<?xml version="1.0" encoding="UTF-8" standalone="no" ?><gpx xmlns="http://www.topografix.com/GPX/1/1" xmlns:gpxx="http://www.garmin.com/xmlschemas/GpxExtensions/v3" xmlns:wptx1="http://www.garmin.com/xmlschemas/WaypointExtension/v1" xmlns:gpxtpx="http://www.garmin.com/xmlschemas/TrackPointExtension/v1" creator="GuideVTT.com" version="1.1" xmlns:xsi="http://www.w3.org/2001/XMLSchema-instance" xsi:schemaLocation="http://www.topografix.com/GPX/1/1 http://www.topografix.com/GPX/1/1/gpx.xsd http://www.garmin.com/xmlschemas/GpxExtensions/v3 http://www8.garmin.com/xmlschemas/GpxExtensionsv3.xsd http://www.garmin.com/xmlschemas/WaypointExtension/v1 http://www8.garmin.com/xmlschemas/WaypointExtensionv1.xsd http://www.garmin.com/xmlschemas/TrackPointExtension/v1 http://www.garmin.com/xmlschemas/TrackPointExtensionv1.xsd">
<metadata><link href="http://www.garmin.com"><text>Garmin International</text></link><time>2013-06-22T15:13:50Z</time></metadata>
<trk><name>rando_st_do_2016_54km_525d+.gpx</name><extensions><gpxx:TrackExtension><gpxx:DisplayColor>Cyan</gpxx:DisplayColor></gpxx:TrackExtension></extensions><trkseg>
<trkpt lat="48.3988140" lon="-1.9047670"><ele></ele><time>2017-12-15T17:34:54Z</time></trkpt>
<trkpt lat="48.3987050" lon="-1.9047210"><ele></ele><time>2017-12-15T17:34:57Z</time></trkpt>
<trkpt lat="48.3986630" lon="-1.9046900"><ele></ele><time>2017-12-15T17:35:0Z</time></trkpt>
<trkpt lat="48.3985990" lon="-1.9046770"><ele></ele><time>2017-12-15T17:35:3Z</time></trkpt>
<trkpt lat="48.3985710" lon="-1.9046750"><ele></ele><time>2017-12-15T17:35:6Z</time></trkpt>
<trkpt lat="48.3985110" lon="-1.9046590"><ele></ele><time>2017-12-15T17:35:9Z</time></trkpt>
<trkpt lat="48.3984670" lon="-1.9046460"><ele></ele><time>2017-12-15T17:35:12Z</time></trkpt>
<trkpt lat="48.3984310" lon="-1.9046410"><ele></ele><time>2017-12-15T17:35:15Z</time></trkpt>
<trkpt lat="48.3983820" lon="-1.9046400"><ele></ele><time>2017-12-15T17:35:18Z</time></trkpt>
<trkpt lat="48.3983190" lon="-1.9046310"><ele></ele><time>2017-12-15T17:35:21Z</time></trkpt>
<trkpt lat="48.3982680" lon="-1.9046230"><ele></ele><time>2017-12-15T17:35:24Z</time></trkpt>
<trkpt lat="48.3982120" lon="-1.9046210"><ele></ele><time>2017-12-15T17:35:27Z</time></trkpt>
<trkpt lat="48.3981730" lon="-1.9046360"><ele></ele><time>2017-12-15T17:35:30Z</time></trkpt>
<trkpt lat="48.3981440" lon="-1.9046480"><ele></ele><time>2017-12-15T17:35:33Z</time></trkpt>
<trkpt lat="48.3981130" lon="-1.9046520"><ele></ele><time>2017-12-15T17:35:36Z</time></trkpt>
<trkpt lat="48.3980800" lon="-1.9046480"><ele></ele><time>2017-12-15T17:35:39Z</time></trkpt>
<trkpt lat="48.3980370" lon="-1.9046390"><ele></ele><time>2017-12-15T17:35:42Z</time></trkpt>
<trkpt lat="48.3979920" lon="-1.9046180"><ele></ele><time>2017-12-15T17:35:45Z</time></trkpt>
<trkpt lat="48.3979500" lon="-1.9045980"><ele></ele><time>2017-12-15T17:35:48Z</time></trkpt>
<trkpt lat="48.3978950" lon="-1.9045810"><ele></ele><time>2017-12-15T17:35:51Z</time></trkpt>
<trkpt lat="48.3978520" lon="-1.9045550"><ele></ele><time>2017-12-15T17:35:54Z</time></trkpt>
<trkpt lat="48.3978040" lon="-1.9045320"><ele></ele><time>2017-12-15T17:35:57Z</time></trkpt>
<trkpt lat="48.3977680" lon="-1.9045220"><ele></ele><time>2017-12-15T17:36:0Z</time></trkpt>
<trkpt lat="48.3977190" lon="-1.9045120"><ele></ele><time>2017-12-15T17:36:3Z</time></trkpt>
<trkpt lat="48.3976720" lon="-1.9044680"><ele></ele><time>2017-12-15T17:36:6Z</time></trkpt>
<trkpt lat="48.3976420" lon="-1.9044360"><ele></ele><time>2017-12-15T17:36:9Z</time></trkpt>
<trkpt lat="48.3976140" lon="-1.9043980"><ele></ele><time>2017-12-15T17:36:12Z</time></trkpt>
<trkpt lat="48.3975900" lon="-1.9043510"><ele></ele><time>2017-12-15T17:36:15Z</time></trkpt>
<trkpt lat="48.3975650" lon="-1.9043010"><ele></ele><time>2017-12-15T17:36:18Z</time></trkpt>
<trkpt lat="48.3975450" lon="-1.9042500"><ele></ele><time>2017-12-15T17:36:21Z</time></trkpt>
<trkpt lat="48.3975180" lon="-1.9042010"><ele></ele><time>2017-12-15T17:36:24Z</time></trkpt>
<trkpt lat="48.3974930" lon="-1.9041500"><ele></ele><time>2017-12-15T17:36:27Z</time></trkpt>
<trkpt lat="48.3974630" lon="-1.9040960"><ele></ele><time>2017-12-15T17:36:30Z</time></trkpt>
<trkpt lat="48.3974280" lon="-1.9040490"><ele></ele><time>2017-12-15T17:36:33Z</time></trkpt>
<trkpt lat="48.3973980" lon="-1.9039920"><ele></ele><time>2017-12-15T17:36:36Z</time></trkpt>
<trkpt lat="48.3973840" lon="-1.9039340"><ele></ele><time>2017-12-15T17:36:39Z</time></trkpt>
<trkpt lat="48.3973620" lon="-1.9038760"><ele></ele><time>2017-12-15T17:36:42Z</time></trkpt>
<trkpt lat="48.3973400" lon="-1.9038190"><ele></ele><time>2017-12-15T17:36:45Z</time></trkpt>
<trkpt lat="48.3973300" lon="-1.9037540"><ele></ele><time>2017-12-15T17:36:48Z</time></trkpt>
<trkpt lat="48.3973100" lon="-1.9036990"><ele></ele><time>2017-12-15T17:36:51Z</time></trkpt>
<trkpt lat="48.3973010" lon="-1.9036420"><ele></ele><time>2017-12-15T17:36:54Z</time></trkpt>
<trkpt lat="48.3973020" lon="-1.9035850"><ele></ele><time>2017-12-15T17:36:57Z</time></trkpt>
<trkpt lat="48.3972850" lon="-1.9035390"><ele></ele><time>2017-12-15T17:37:0Z</time></trkpt>
<trkpt lat="48.3972630" lon="-1.9035010"><ele></ele><time>2017-12-15T17:37:3Z</time></trkpt>
<trkpt lat="48.3972400" lon="-1.9034450"><ele></ele><time>2017-12-15T17:37:6Z</time></trkpt>
<trkpt lat="48.3972110" lon="-1.9033960"><ele></ele><time>2017-12-15T17:37:9Z</time></trkpt>
<trkpt lat="48.3971710" lon="-1.9033520"><ele></ele><time>2017-12-15T17:37:12Z</time></trkpt>
<trkpt lat="48.3971330" lon="-1.9033130"><ele></ele><time>2017-12-15T17:37:15Z</time></trkpt>
<trkpt lat="48.3970880" lon="-1.9032870"><ele></ele><time>2017-12-15T17:37:18Z</time></trkpt>
<trkpt lat="48.3970570" lon="-1.9032290"><ele></ele><time>2017-12-15T17:37:21Z</time></trkpt>
<trkpt lat="48.3970140" lon="-1.9031910"><ele></ele><time>2017-12-15T17:37:24Z</time></trkpt>
<trkpt lat="48.3969770" lon="-1.9031490"><ele></ele><time>2017-12-15T17:37:27Z</time></trkpt>
<trkpt lat="48.3969290" lon="-1.9031150"><ele></ele><time>2017-12-15T17:37:30Z</time></trkpt>
<trkpt lat="48.3968820" lon="-1.9030820"><ele></ele><time>2017-12-15T17:37:33Z</time></trkpt>
<trkpt lat="48.3968440" lon="-1.9030470"><ele></ele><time>2017-12-15T17:37:36Z</time></trkpt>
<trkpt lat="48.3967930" lon="-1.9030100"><ele></ele><time>2017-12-15T17:37:39Z</time></trkpt>
<trkpt lat="48.3967550" lon="-1.9029710"><ele></ele><time>2017-12-15T17:37:42Z</time></trkpt>
<trkpt lat="48.3967120" lon="-1.9029330"><ele></ele><time>2017-12-15T17:37:45Z</time></trkpt>
<trkpt lat="48.3966610" lon="-1.9029050"><ele></ele><time>2017-12-15T17:37:48Z</time></trkpt>
<trkpt lat="48.3966100" lon="-1.9028850"><ele></ele><time>2017-12-15T17:37:51Z</time></trkpt>
<trkpt lat="48.3965640" lon="-1.9028630"><ele></ele><time>2017-12-15T17:37:54Z</time></trkpt>
<trkpt lat="48.3965120" lon="-1.9028480"><ele></ele><time>2017-12-15T17:37:57Z</time></trkpt>
<trkpt lat="48.3964540" lon="-1.9028360"><ele></ele><time>2017-12-15T17:38:0Z</time></trkpt>
<trkpt lat="48.3964000" lon="-1.9028230"><ele></ele><time>2017-12-15T17:38:3Z</time></trkpt>
<trkpt lat="48.3963490" lon="-1.9028120"><ele></ele><time>2017-12-15T17:38:6Z</time></trkpt>
<trkpt lat="48.3962970" lon="-1.9027960"><ele></ele><time>2017-12-15T17:38:9Z</time></trkpt>
<trkpt lat="48.3962410" lon="-1.9027850"><ele></ele><time>2017-12-15T17:38:12Z</time></trkpt>
<trkpt lat="48.3961850" lon="-1.9027830"><ele></ele><time>2017-12-15T17:38:15Z</time></trkpt>
<trkpt lat="48.3961320" lon="-1.9027720"><ele></ele><time>2017-12-15T17:38:18Z</time></trkpt>
<trkpt lat="48.3960760" lon="-1.9027590"><ele></ele><time>2017-12-15T17:38:21Z</time></trkpt>
<trkpt lat="48.3960230" lon="-1.9027420"><ele></ele><time>2017-12-15T17:38:24Z</time></trkpt>
<trkpt lat="48.3959670" lon="-1.9027180"><ele></ele><time>2017-12-15T17:38:27Z</time></trkpt>
<trkpt lat="48.3959100" lon="-1.9027170"><ele></ele><time>2017-12-15T17:38:30Z</time></trkpt>
<trkpt lat="48.3958560" lon="-1.9026960"><ele></ele><time>2017-12-15T17:38:33Z</time></trkpt>
<trkpt lat="48.3957980" lon="-1.9026890"><ele></ele><time>2017-12-15T17:38:36Z</time></trkpt>
<trkpt lat="48.3957420" lon="-1.9026750"><ele></ele><time>2017-12-15T17:38:39Z</time></trkpt>
<trkpt lat="48.3956820" lon="-1.9026570"><ele></ele><time>2017-12-15T17:38:42Z</time></trkpt>
<trkpt lat="48.3956230" lon="-1.9026390"><ele></ele><time>2017-12-15T17:38:45Z</time></trkpt>
<trkpt lat="48.3955620" lon="-1.9026230"><ele></ele><time>2017-12-15T17:38:48Z</time></trkpt>
<trkpt lat="48.3955060" lon="-1.9026010"><ele></ele><time>2017-12-15T17:38:51Z</time></trkpt>
<trkpt lat="48.3954410" lon="-1.9025860"><ele></ele><time>2017-12-15T17:38:54Z</time></trkpt>
<trkpt lat="48.3953760" lon="-1.9025670"><ele></ele><time>2017-12-15T17:38:57Z</time></trkpt>
<trkpt lat="48.3953150" lon="-1.9025490"><ele></ele><time>2017-12-15T17:39:0Z</time></trkpt>
<trkpt lat="48.3952510" lon="-1.9025340"><ele></ele><time>2017-12-15T17:39:3Z</time></trkpt>
<trkpt lat="48.3951880" lon="-1.9025190"><ele></ele><time>2017-12-15T17:39:6Z</time></trkpt>
<trkpt lat="48.3951260" lon="-1.9025000"><ele></ele><time>2017-12-15T17:39:9Z</time></trkpt>
<trkpt lat="48.3950560" lon="-1.9024800"><ele></ele><time>2017-12-15T17:39:12Z</time></trkpt>
<trkpt lat="48.3949890" lon="-1.9024660"><ele></ele><time>2017-12-15T17:39:15Z</time></trkpt>
<trkpt lat="48.3949280" lon="-1.9024540"><ele></ele><time>2017-12-15T17:39:18Z</time></trkpt>
<trkpt lat="48.3948630" lon="-1.9024440"><ele></ele><time>2017-12-15T17:39:21Z</time></trkpt>
<trkpt lat="48.3947970" lon="-1.9024370"><ele></ele><time>2017-12-15T17:39:24Z</time></trkpt>
<trkpt lat="48.3947290" lon="-1.9024300"><ele></ele><time>2017-12-15T17:39:27Z</time></trkpt>
<trkpt lat="48.3946620" lon="-1.9024250"><ele></ele><time>2017-12-15T17:39:30Z</time></trkpt>
<trkpt lat="48.3945890" lon="-1.9024230"><ele></ele><time>2017-12-15T17:39:33Z</time></trkpt>
<trkpt lat="48.3945280" lon="-1.9024030"><ele></ele><time>2017-12-15T17:39:36Z</time></trkpt>
<trkpt lat="48.3944610" lon="-1.9024020"><ele></ele><time>2017-12-15T17:39:39Z</time></trkpt>
<trkpt lat="48.3943960" lon="-1.9024020"><ele></ele><time>2017-12-15T17:39:42Z</time></trkpt>
<trkpt lat="48.3943310" lon="-1.9024020"><ele></ele><time>2017-12-15T17:39:45Z</time></trkpt>
<trkpt lat="48.3942660" lon="-1.9024040"><ele></ele><time>2017-12-15T17:39:48Z</time></trkpt>
<trkpt lat="48.3942010" lon="-1.9024100"><ele></ele><time>2017-12-15T17:39:51Z</time></trkpt>
<trkpt lat="48.3941380" lon="-1.9024090"><ele></ele><time>2017-12-15T17:39:54Z</time></trkpt>
<trkpt lat="48.3940760" lon="-1.9023970"><ele></ele><time>2017-12-15T17:39:57Z</time></trkpt>
<trkpt lat="48.3940160" lon="-1.9023890"><ele></ele><time>2017-12-15T17:40:0Z</time></trkpt>
<trkpt lat="48.3939520" lon="-1.9023630"><ele></ele><time>2017-12-15T17:40:3Z</time></trkpt>
<trkpt lat="48.3938890" lon="-1.9023460"><ele></ele><time>2017-12-15T17:40:6Z</time></trkpt>
<trkpt lat="48.3938280" lon="-1.9023270"><ele></ele><time>2017-12-15T17:40:9Z</time></trkpt>
<trkpt lat="48.3937640" lon="-1.9022930"><ele></ele><time>2017-12-15T17:40:12Z</time></trkpt>
<trkpt lat="48.3937070" lon="-1.9022420"><ele></ele><time>2017-12-15T17:40:15Z</time></trkpt>
<trkpt lat="48.3936470" lon="-1.9022420"><ele></ele><time>2017-12-15T17:40:18Z</time></trkpt>
<trkpt lat="48.3935900" lon="-1.9021990"><ele></ele><time>2017-12-15T17:40:21Z</time></trkpt>
<trkpt lat="48.3935340" lon="-1.9021590"><ele></ele><time>2017-12-15T17:40:24Z</time></trkpt>
<trkpt lat="48.3934780" lon="-1.9021220"><ele></ele><time>2017-12-15T17:40:27Z</time></trkpt>
<trkpt lat="48.3934240" lon="-1.9020960"><ele></ele><time>2017-12-15T17:40:30Z</time></trkpt>
<trkpt lat="48.3933700" lon="-1.9020590"><ele></ele><time>2017-12-15T17:40:33Z</time></trkpt>
<trkpt lat="48.3933170" lon="-1.9020270"><ele></ele><time>2017-12-15T17:40:36Z</time></trkpt>
<trkpt lat="48.3932530" lon="-1.9019890"><ele></ele><time>2017-12-15T17:40:39Z</time></trkpt>
<trkpt lat="48.3932040" lon="-1.9019280"><ele></ele><time>2017-12-15T17:40:42Z</time></trkpt>
<trkpt lat="48.3931530" lon="-1.9018820"><ele></ele><time>2017-12-15T17:40:45Z</time></trkpt>
<trkpt lat="48.3930960" lon="-1.9018330"><ele></ele><time>2017-12-15T17:40:48Z</time></trkpt>
<trkpt lat="48.3930390" lon="-1.9017910"><ele></ele><time>2017-12-15T17:40:51Z</time></trkpt>
<trkpt lat="48.3929870" lon="-1.9017530"><ele></ele><time>2017-12-15T17:40:54Z</time></trkpt>
<trkpt lat="48.3929340" lon="-1.9017050"><ele></ele><time>2017-12-15T17:40:57Z</time></trkpt>
<trkpt lat="48.3928780" lon="-1.9016580"><ele></ele><time>2017-12-15T17:41:0Z</time></trkpt>
<trkpt lat="48.3928290" lon="-1.9016110"><ele></ele><time>2017-12-15T17:41:3Z</time></trkpt>
<trkpt lat="48.3927770" lon="-1.9015660"><ele></ele><time>2017-12-15T17:41:6Z</time></trkpt>
<trkpt lat="48.3927270" lon="-1.9015170"><ele></ele><time>2017-12-15T17:41:9Z</time></trkpt>
<trkpt lat="48.3926770" lon="-1.9014810"><ele></ele><time>2017-12-15T17:41:12Z</time></trkpt>
<trkpt lat="48.3926250" lon="-1.9014500"><ele></ele><time>2017-12-15T17:41:15Z</time></trkpt>
<trkpt lat="48.3925760" lon="-1.9014150"><ele></ele><time>2017-12-15T17:41:18Z</time></trkpt>
<trkpt lat="48.3925280" lon="-1.9013810"><ele></ele><time>2017-12-15T17:41:21Z</time></trkpt>
<trkpt lat="48.3924830" lon="-1.9013400"><ele></ele><time>2017-12-15T17:41:24Z</time></trkpt>
<trkpt lat="48.3924400" lon="-1.9012980"><ele></ele><time>2017-12-15T17:41:27Z</time></trkpt>
<trkpt lat="48.3923930" lon="-1.9012620"><ele></ele><time>2017-12-15T17:41:30Z</time></trkpt>
<trkpt lat="48.3923460" lon="-1.9012370"><ele></ele><time>2017-12-15T17:41:33Z</time></trkpt>
<trkpt lat="48.3923050" lon="-1.9011910"><ele></ele><time>2017-12-15T17:41:36Z</time></trkpt>
<trkpt lat="48.3922640" lon="-1.9011520"><ele></ele><time>2017-12-15T17:41:39Z</time></trkpt>
<trkpt lat="48.3922230" lon="-1.9011290"><ele></ele><time>2017-12-15T17:41:42Z</time></trkpt>
<trkpt lat="48.3921780" lon="-1.9010820"><ele></ele><time>2017-12-15T17:41:45Z</time></trkpt>
<trkpt lat="48.3905260" lon="-1.8997740"><ele></ele><time>2017-12-15T17:41:48Z</time></trkpt>
<trkpt lat="48.3905880" lon="-1.8997250"><ele></ele><time>2017-12-15T17:41:51Z</time></trkpt>
<trkpt lat="48.3905980" lon="-1.8996800"><ele></ele><time>2017-12-15T17:41:54Z</time></trkpt>
<trkpt lat="48.3905850" lon="-1.8995950"><ele></ele><time>2017-12-15T17:41:57Z</time></trkpt>
<trkpt lat="48.3905570" lon="-1.8995560"><ele></ele><time>2017-12-15T17:42:0Z</time></trkpt>
<trkpt lat="48.3905310" lon="-1.8995190"><ele></ele><time>2017-12-15T17:42:3Z</time></trkpt>
<trkpt lat="48.3905010" lon="-1.8994840"><ele></ele><time>2017-12-15T17:42:6Z</time></trkpt>
<trkpt lat="48.3904740" lon="-1.8994410"><ele></ele><time>2017-12-15T17:42:9Z</time></trkpt>
<trkpt lat="48.3904400" lon="-1.8994010"><ele></ele><time>2017-12-15T17:42:12Z</time></trkpt>
<trkpt lat="48.3904100" lon="-1.8993600"><ele></ele><time>2017-12-15T17:42:15Z</time></trkpt>
<trkpt lat="48.3903720" lon="-1.8993250"><ele></ele><time>2017-12-15T17:42:18Z</time></trkpt>
<trkpt lat="48.3903340" lon="-1.8992830"><ele></ele><time>2017-12-15T17:42:21Z</time></trkpt>
<trkpt lat="48.3902940" lon="-1.8992410"><ele></ele><time>2017-12-15T17:42:24Z</time></trkpt>
<trkpt lat="48.3902570" lon="-1.8992040"><ele></ele><time>2017-12-15T17:42:27Z</time></trkpt>
<trkpt lat="48.3902220" lon="-1.8991680"><ele></ele><time>2017-12-15T17:42:30Z</time></trkpt>
<trkpt lat="48.3901830" lon="-1.8991290"><ele></ele><time>2017-12-15T17:42:33Z</time></trkpt>
<trkpt lat="48.3901440" lon="-1.8990900"><ele></ele><time>2017-12-15T17:42:36Z</time></trkpt>
<trkpt lat="48.3901110" lon="-1.8990480"><ele></ele><time>2017-12-15T17:42:39Z</time></trkpt>
<trkpt lat="48.3900760" lon="-1.8990100"><ele></ele><time>2017-12-15T17:42:42Z</time></trkpt>
<trkpt lat="48.3900400" lon="-1.8989770"><ele></ele><time>2017-12-15T17:42:45Z</time></trkpt>
<trkpt lat="48.3900020" lon="-1.8989410"><ele></ele><time>2017-12-15T17:42:48Z</time></trkpt>
<trkpt lat="48.3899640" lon="-1.8989030"><ele></ele><time>2017-12-15T17:42:51Z</time></trkpt>
<trkpt lat="48.3899270" lon="-1.8988680"><ele></ele><time>2017-12-15T17:42:54Z</time></trkpt>
<trkpt lat="48.3898900" lon="-1.8988340"><ele></ele><time>2017-12-15T17:42:57Z</time></trkpt>
<trkpt lat="48.3898520" lon="-1.8987980"><ele></ele><time>2017-12-15T17:43:0Z</time></trkpt>
<trkpt lat="48.3898150" lon="-1.8987580"><ele></ele><time>2017-12-15T17:43:3Z</time></trkpt>
<trkpt lat="48.3897770" lon="-1.8987170"><ele></ele><time>2017-12-15T17:43:6Z</time></trkpt>
<trkpt lat="48.3897400" lon="-1.8986800"><ele></ele><time>2017-12-15T17:43:9Z</time></trkpt>
<trkpt lat="48.3897010" lon="-1.8986400"><ele></ele><time>2017-12-15T17:43:12Z</time></trkpt>
<trkpt lat="48.3896620" lon="-1.8985990"><ele></ele><time>2017-12-15T17:43:15Z</time></trkpt>
<trkpt lat="48.3896220" lon="-1.8985560"><ele></ele><time>2017-12-15T17:43:18Z</time></trkpt>
<trkpt lat="48.3895780" lon="-1.8985110"><ele></ele><time>2017-12-15T17:43:21Z</time></trkpt>
<trkpt lat="48.3895370" lon="-1.8984660"><ele></ele><time>2017-12-15T17:43:24Z</time></trkpt>
<trkpt lat="48.3894930" lon="-1.8984240"><ele></ele><time>2017-12-15T17:43:27Z</time></trkpt>
<trkpt lat="48.3894510" lon="-1.8983830"><ele></ele><time>2017-12-15T17:43:30Z</time></trkpt>
<trkpt lat="48.3894070" lon="-1.8983400"><ele></ele><time>2017-12-15T17:43:33Z</time></trkpt>
<trkpt lat="48.3893630" lon="-1.8983010"><ele></ele><time>2017-12-15T17:43:36Z</time></trkpt>
<trkpt lat="48.3893180" lon="-1.8982600"><ele></ele><time>2017-12-15T17:43:39Z</time></trkpt>
<trkpt lat="48.3892690" lon="-1.8982180"><ele></ele><time>2017-12-15T17:43:42Z</time></trkpt>
<trkpt lat="48.3892170" lon="-1.8981850"><ele></ele><time>2017-12-15T17:43:45Z</time></trkpt>
<trkpt lat="48.3891670" lon="-1.8981490"><ele></ele><time>2017-12-15T17:43:48Z</time></trkpt>
<trkpt lat="48.3891150" lon="-1.8981150"><ele></ele><time>2017-12-15T17:43:51Z</time></trkpt>
<trkpt lat="48.3890590" lon="-1.8980850"><ele></ele><time>2017-12-15T17:43:54Z</time></trkpt>
<trkpt lat="48.3890010" lon="-1.8980570"><ele></ele><time>2017-12-15T17:43:57Z</time></trkpt>
<trkpt lat="48.3889380" lon="-1.8980280"><ele></ele><time>2017-12-15T17:44:0Z</time></trkpt>
<trkpt lat="48.3888690" lon="-1.8979980"><ele></ele><time>2017-12-15T17:44:3Z</time></trkpt>
<trkpt lat="48.3887970" lon="-1.8979700"><ele></ele><time>2017-12-15T17:44:6Z</time></trkpt>
<trkpt lat="48.3887220" lon="-1.8979540"><ele></ele><time>2017-12-15T17:44:9Z</time></trkpt>
<trkpt lat="48.3886370" lon="-1.8979270"><ele></ele><time>2017-12-15T17:44:12Z</time></trkpt>
<trkpt lat="48.3885520" lon="-1.8979000"><ele></ele><time>2017-12-15T17:44:15Z</time></trkpt>
<trkpt lat="48.3884640" lon="-1.8978750"><ele></ele><time>2017-12-15T17:44:18Z</time></trkpt>
<trkpt lat="48.3883730" lon="-1.8978440"><ele></ele><time>2017-12-15T17:44:21Z</time></trkpt>
<trkpt lat="48.3882820" lon="-1.8978170"><ele></ele><time>2017-12-15T17:44:24Z</time></trkpt>
<trkpt lat="48.3881900" lon="-1.8977850"><ele></ele><time>2017-12-15T17:44:27Z</time></trkpt>
<trkpt lat="48.3880990" lon="-1.8977580"><ele></ele><time>2017-12-15T17:44:30Z</time></trkpt>
<trkpt lat="48.3880080" lon="-1.8977270"><ele></ele><time>2017-12-15T17:44:33Z</time></trkpt>
<trkpt lat="48.3879180" lon="-1.8976860"><ele></ele><time>2017-12-15T17:44:36Z</time></trkpt>
<trkpt lat="48.3878320" lon="-1.8976360"><ele></ele><time>2017-12-15T17:44:39Z</time></trkpt>
<trkpt lat="48.3877500" lon="-1.8975700"><ele></ele><time>2017-12-15T17:44:42Z</time></trkpt>
<trkpt lat="48.3876630" lon="-1.8975000"><ele></ele><time>2017-12-15T17:44:45Z</time></trkpt>
<trkpt lat="48.3875760" lon="-1.8974380"><ele></ele><time>2017-12-15T17:44:48Z</time></trkpt>
<trkpt lat="48.3874830" lon="-1.8973780"><ele></ele><time>2017-12-15T17:44:51Z</time></trkpt>
<trkpt lat="48.3873840" lon="-1.8973280"><ele></ele><time>2017-12-15T17:44:54Z</time></trkpt>
<trkpt lat="48.3872780" lon="-1.8972820"><ele></ele><time>2017-12-15T17:44:57Z</time></trkpt>
<trkpt lat="48.3871690" lon="-1.8972380"><ele></ele><time>2017-12-15T17:45:0Z</time></trkpt>
<trkpt lat="48.3870570" lon="-1.8971960"><ele></ele><time>2017-12-15T17:45:3Z</time></trkpt>
<trkpt lat="48.3869450" lon="-1.8971580"><ele></ele><time>2017-12-15T17:45:6Z</time></trkpt>
<trkpt lat="48.3868340" lon="-1.8971210"><ele></ele><time>2017-12-15T17:45:9Z</time></trkpt>
<trkpt lat="48.3867220" lon="-1.8970810"><ele></ele><time>2017-12-15T17:45:12Z</time></trkpt>
<trkpt lat="48.3866100" lon="-1.8970460"><ele></ele><time>2017-12-15T17:45:15Z</time></trkpt>
<trkpt lat="48.3864990" lon="-1.8970100"><ele></ele><time>2017-12-15T17:45:18Z</time></trkpt>
<trkpt lat="48.3863910" lon="-1.8969700"><ele></ele><time>2017-12-15T17:45:21Z</time></trkpt>
<trkpt lat="48.3862840" lon="-1.8969360"><ele></ele><time>2017-12-15T17:45:24Z</time></trkpt>
<trkpt lat="48.3861760" lon="-1.8968970"><ele></ele><time>2017-12-15T17:45:27Z</time></trkpt>
<trkpt lat="48.3860700" lon="-1.8968570"><ele></ele><time>2017-12-15T17:45:30Z</time></trkpt>
<trkpt lat="48.3859650" lon="-1.8968220"><ele></ele><time>2017-12-15T17:45:33Z</time></trkpt>
<trkpt lat="48.3858610" lon="-1.8967880"><ele></ele><time>2017-12-15T17:45:36Z</time></trkpt>
<trkpt lat="48.3857600" lon="-1.8967530"><ele></ele><time>2017-12-15T17:45:39Z</time></trkpt>
<trkpt lat="48.3856590" lon="-1.8967180"><ele></ele><time>2017-12-15T17:45:42Z</time></trkpt>
<trkpt lat="48.3855600" lon="-1.8966740"><ele></ele><time>2017-12-15T17:45:45Z</time></trkpt>
<trkpt lat="48.3854640" lon="-1.8966240"><ele></ele><time>2017-12-15T17:45:48Z</time></trkpt>
<trkpt lat="48.3853740" lon="-1.8965670"><ele></ele><time>2017-12-15T17:45:51Z</time></trkpt>
<trkpt lat="48.3852860" lon="-1.8965060"><ele></ele><time>2017-12-15T17:45:54Z</time></trkpt>
<trkpt lat="48.3852050" lon="-1.8964350"><ele></ele><time>2017-12-15T17:45:57Z</time></trkpt>
<trkpt lat="48.3851310" lon="-1.8963560"><ele></ele><time>2017-12-15T17:46:0Z</time></trkpt>
<trkpt lat="48.3850580" lon="-1.8962830"><ele></ele><time>2017-12-15T17:46:3Z</time></trkpt>
<trkpt lat="48.3849900" lon="-1.8962150"><ele></ele><time>2017-12-15T17:46:6Z</time></trkpt>
<trkpt lat="48.3849210" lon="-1.8961490"><ele></ele><time>2017-12-15T17:46:9Z</time></trkpt>
<trkpt lat="48.3848540" lon="-1.8960850"><ele></ele><time>2017-12-15T17:46:12Z</time></trkpt>
<trkpt lat="48.3847870" lon="-1.8960300"><ele></ele><time>2017-12-15T17:46:15Z</time></trkpt>
<trkpt lat="48.3847210" lon="-1.8959760"><ele></ele><time>2017-12-15T17:46:18Z</time></trkpt>
<trkpt lat="48.3846600" lon="-1.8959230"><ele></ele><time>2017-12-15T17:46:21Z</time></trkpt>
<trkpt lat="48.3845970" lon="-1.8958790"><ele></ele><time>2017-12-15T17:46:24Z</time></trkpt>
<trkpt lat="48.3845390" lon="-1.8958340"><ele></ele><time>2017-12-15T17:46:27Z</time></trkpt>
<trkpt lat="48.3844810" lon="-1.8957850"><ele></ele><time>2017-12-15T17:46:30Z</time></trkpt>
<trkpt lat="48.3844240" lon="-1.8957380"><ele></ele><time>2017-12-15T17:46:33Z</time></trkpt>
<trkpt lat="48.3843670" lon="-1.8956870"><ele></ele><time>2017-12-15T17:46:36Z</time></trkpt>
<trkpt lat="48.3843100" lon="-1.8956440"><ele></ele><time>2017-12-15T17:46:39Z</time></trkpt>
<trkpt lat="48.3842570" lon="-1.8955990"><ele></ele><time>2017-12-15T17:46:42Z</time></trkpt>
<trkpt lat="48.3842040" lon="-1.8955570"><ele></ele><time>2017-12-15T17:46:45Z</time></trkpt>
<trkpt lat="48.3841480" lon="-1.8955230"><ele></ele><time>2017-12-15T17:46:48Z</time></trkpt>
<trkpt lat="48.3840930" lon="-1.8954900"><ele></ele><time>2017-12-15T17:46:51Z</time></trkpt>
<trkpt lat="48.3840400" lon="-1.8954550"><ele></ele><time>2017-12-15T17:46:54Z</time></trkpt>
<trkpt lat="48.3839890" lon="-1.8954240"><ele></ele><time>2017-12-15T17:46:57Z</time></trkpt>
<trkpt lat="48.3839440" lon="-1.8953940"><ele></ele><time>2017-12-15T17:47:0Z</time></trkpt>
<trkpt lat="48.3839060" lon="-1.8953540"><ele></ele><time>2017-12-15T17:47:3Z</time></trkpt>
<trkpt lat="48.3838810" lon="-1.8953040"><ele></ele><time>2017-12-15T17:47:6Z</time></trkpt>
<trkpt lat="48.3838670" lon="-1.8952410"><ele></ele><time>2017-12-15T17:47:9Z</time></trkpt>
<trkpt lat="48.3838660" lon="-1.8951720"><ele></ele><time>2017-12-15T17:47:12Z</time></trkpt>
<trkpt lat="48.3838720" lon="-1.8951040"><ele></ele><time>2017-12-15T17:47:15Z</time></trkpt>
<trkpt lat="48.3838800" lon="-1.8950360"><ele></ele><time>2017-12-15T17:47:18Z</time></trkpt>
<trkpt lat="48.3838860" lon="-1.8949650"><ele></ele><time>2017-12-15T17:47:21Z</time></trkpt>
<trkpt lat="48.3838990" lon="-1.8948980"><ele></ele><time>2017-12-15T17:47:24Z</time></trkpt>
<trkpt lat="48.3839110" lon="-1.8948290"><ele></ele><time>2017-12-15T17:47:27Z</time></trkpt>
<trkpt lat="48.3839170" lon="-1.8947600"><ele></ele><time>2017-12-15T17:47:30Z</time></trkpt>
<trkpt lat="48.3839170" lon="-1.8946830"><ele></ele><time>2017-12-15T17:47:33Z</time></trkpt>
<trkpt lat="48.3839190" lon="-1.8946130"><ele></ele><time>2017-12-15T17:47:36Z</time></trkpt>
<trkpt lat="48.3839220" lon="-1.8945370"><ele></ele><time>2017-12-15T17:47:39Z</time></trkpt>
<trkpt lat="48.3839190" lon="-1.8944650"><ele></ele><time>2017-12-15T17:47:42Z</time></trkpt>
<trkpt lat="48.3839170" lon="-1.8943940"><ele></ele><time>2017-12-15T17:47:45Z</time></trkpt>
<trkpt lat="48.3839470" lon="-1.8943250"><ele></ele><time>2017-12-15T17:47:48Z</time></trkpt>
<trkpt lat="48.3839430" lon="-1.8942550"><ele></ele><time>2017-12-15T17:47:51Z</time></trkpt>
<trkpt lat="48.3839430" lon="-1.8941880"><ele></ele><time>2017-12-15T17:47:54Z</time></trkpt>
<trkpt lat="48.3839510" lon="-1.8941200"><ele></ele><time>2017-12-15T17:47:57Z</time></trkpt>
<trkpt lat="48.3839550" lon="-1.8940600"><ele></ele><time>2017-12-15T17:48:0Z</time></trkpt>
<trkpt lat="48.3839570" lon="-1.8939970"><ele></ele><time>2017-12-15T17:48:3Z</time></trkpt>
<trkpt lat="48.3839620" lon="-1.8939360"><ele></ele><time>2017-12-15T17:48:6Z</time></trkpt>
<trkpt lat="48.3839680" lon="-1.8938820"><ele></ele><time>2017-12-15T17:48:9Z</time></trkpt>
<trkpt lat="48.3839740" lon="-1.8938250"><ele></ele><time>2017-12-15T17:48:12Z</time></trkpt>
<trkpt lat="48.3839840" lon="-1.8937670"><ele></ele><time>2017-12-15T17:48:15Z</time></trkpt>
<trkpt lat="48.3839870" lon="-1.8937120"><ele></ele><time>2017-12-15T17:48:18Z</time></trkpt>
<trkpt lat="48.3839980" lon="-1.8936570"><ele></ele><time>2017-12-15T17:48:21Z</time></trkpt>
<trkpt lat="48.3840010" lon="-1.8936020"><ele></ele><time>2017-12-15T17:48:24Z</time></trkpt>
<trkpt lat="48.3840080" lon="-1.8935520"><ele></ele><time>2017-12-15T17:48:27Z</time></trkpt>
<trkpt lat="48.3840140" lon="-1.8935020"><ele></ele><time>2017-12-15T17:48:30Z</time></trkpt>
<trkpt lat="48.3840180" lon="-1.8934500"><ele></ele><time>2017-12-15T17:48:33Z</time></trkpt>
<trkpt lat="48.3840260" lon="-1.8933950"><ele></ele><time>2017-12-15T17:48:36Z</time></trkpt>
<trkpt lat="48.3840310" lon="-1.8933420"><ele></ele><time>2017-12-15T17:48:39Z</time></trkpt>
<trkpt lat="48.3840360" lon="-1.8932930"><ele></ele><time>2017-12-15T17:48:42Z</time></trkpt>
<trkpt lat="48.3840410" lon="-1.8932400"><ele></ele><time>2017-12-15T17:48:45Z</time></trkpt>
<trkpt lat="48.3840480" lon="-1.8931870"><ele></ele><time>2017-12-15T17:48:48Z</time></trkpt>
<trkpt lat="48.3840550" lon="-1.8931380"><ele></ele><time>2017-12-15T17:48:51Z</time></trkpt>
<trkpt lat="48.3840640" lon="-1.8930880"><ele></ele><time>2017-12-15T17:48:54Z</time></trkpt>
<trkpt lat="48.3840550" lon="-1.8930320"><ele></ele><time>2017-12-15T17:48:57Z</time></trkpt>
<trkpt lat="48.3840610" lon="-1.8929760"><ele></ele><time>2017-12-15T17:49:0Z</time></trkpt>
<trkpt lat="48.3840690" lon="-1.8929260"><ele></ele><time>2017-12-15T17:49:3Z</time></trkpt>
<trkpt lat="48.3840780" lon="-1.8928690"><ele></ele><time>2017-12-15T17:49:6Z</time></trkpt>
<trkpt lat="48.3840870" lon="-1.8928060"><ele></ele><time>2017-12-15T17:49:9Z</time></trkpt>
<trkpt lat="48.3840990" lon="-1.8927440"><ele></ele><time>2017-12-15T17:49:12Z</time></trkpt>
<trkpt lat="48.3841130" lon="-1.8926810"><ele></ele><time>2017-12-15T17:49:15Z</time></trkpt>
<trkpt lat="48.3841270" lon="-1.8926170"><ele></ele><time>2017-12-15T17:49:18Z</time></trkpt>
<trkpt lat="48.3841400" lon="-1.8925510"><ele></ele><time>2017-12-15T17:49:21Z</time></trkpt>
<trkpt lat="48.3841560" lon="-1.8924830"><ele></ele><time>2017-12-15T17:49:24Z</time></trkpt>
<trkpt lat="48.3841740" lon="-1.8924100"><ele></ele><time>2017-12-15T17:49:27Z</time></trkpt>
<trkpt lat="48.3841920" lon="-1.8923340"><ele></ele><time>2017-12-15T17:49:30Z</time></trkpt>
<trkpt lat="48.3842130" lon="-1.8922520"><ele></ele><time>2017-12-15T17:49:33Z</time></trkpt>
<trkpt lat="48.3842370" lon="-1.8921660"><ele></ele><time>2017-12-15T17:49:36Z</time></trkpt>
<trkpt lat="48.3842600" lon="-1.8920760"><ele></ele><time>2017-12-15T17:49:39Z</time></trkpt>
<trkpt lat="48.3842880" lon="-1.8919840"><ele></ele><time>2017-12-15T17:49:42Z</time></trkpt>
<trkpt lat="48.3843170" lon="-1.8918880"><ele></ele><time>2017-12-15T17:49:45Z</time></trkpt>
<trkpt lat="48.3843450" lon="-1.8917930"><ele></ele><time>2017-12-15T17:49:48Z</time></trkpt>
<trkpt lat="48.3843730" lon="-1.8916950"><ele></ele><time>2017-12-15T17:49:51Z</time></trkpt>
<trkpt lat="48.3844060" lon="-1.8915910"><ele></ele><time>2017-12-15T17:49:54Z</time></trkpt>
<trkpt lat="48.3844430" lon="-1.8914870"><ele></ele><time>2017-12-15T17:49:57Z</time></trkpt>
<trkpt lat="48.3844790" lon="-1.8913720"><ele></ele><time>2017-12-15T17:50:0Z</time></trkpt>
<trkpt lat="48.3845190" lon="-1.8912690"><ele></ele><time>2017-12-15T17:50:3Z</time></trkpt>
<trkpt lat="48.3845620" lon="-1.8911660"><ele></ele><time>2017-12-15T17:50:6Z</time></trkpt>
<trkpt lat="48.3846100" lon="-1.8910580"><ele></ele><time>2017-12-15T17:50:9Z</time></trkpt>
<trkpt lat="48.3846570" lon="-1.8909520"><ele></ele><time>2017-12-15T17:50:12Z</time></trkpt>
<trkpt lat="48.3847060" lon="-1.8908490"><ele></ele><time>2017-12-15T17:50:15Z</time></trkpt>
<trkpt lat="48.3847720" lon="-1.8907540"><ele></ele><time>2017-12-15T17:50:18Z</time></trkpt>
<trkpt lat="48.3848190" lon="-1.8906480"><ele></ele><time>2017-12-15T17:50:21Z</time></trkpt>
<trkpt lat="48.3848770" lon="-1.8905430"><ele></ele><time>2017-12-15T17:50:24Z</time></trkpt>
<trkpt lat="48.3849200" lon="-1.8904250"><ele></ele><time>2017-12-15T17:50:27Z</time></trkpt>
<trkpt lat="48.3849580" lon="-1.8902940"><ele></ele><time>2017-12-15T17:50:30Z</time></trkpt>
<trkpt lat="48.3849810" lon="-1.8901660"><ele></ele><time>2017-12-15T17:50:33Z</time></trkpt>
<trkpt lat="48.3849890" lon="-1.8900310"><ele></ele><time>2017-12-15T17:50:36Z</time></trkpt>
<trkpt lat="48.3849870" lon="-1.8898960"><ele></ele><time>2017-12-15T17:50:39Z</time></trkpt>
<trkpt lat="48.3849760" lon="-1.8897600"><ele></ele><time>2017-12-15T17:50:42Z</time></trkpt>
<trkpt lat="48.3849640" lon="-1.8896290"><ele></ele><time>2017-12-15T17:50:45Z</time></trkpt>
<trkpt lat="48.3849540" lon="-1.8894950"><ele></ele><time>2017-12-15T17:50:48Z</time></trkpt>
<trkpt lat="48.3849440" lon="-1.8893640"><ele></ele><time>2017-12-15T17:50:51Z</time></trkpt>
<trkpt lat="48.3849340" lon="-1.8892330"><ele></ele><time>2017-12-15T17:50:54Z</time></trkpt>
<trkpt lat="48.3849250" lon="-1.8891080"><ele></ele><time>2017-12-15T17:50:57Z</time></trkpt>
<trkpt lat="48.3849170" lon="-1.8889850"><ele></ele><time>2017-12-15T17:51:0Z</time></trkpt>
<trkpt lat="48.3849130" lon="-1.8888610"><ele></ele><time>2017-12-15T17:51:3Z</time></trkpt>
<trkpt lat="48.3849170" lon="-1.8887420"><ele></ele><time>2017-12-15T17:51:6Z</time></trkpt>
<trkpt lat="48.3849290" lon="-1.8886290"><ele></ele><time>2017-12-15T17:51:9Z</time></trkpt>
<trkpt lat="48.3849420" lon="-1.8885220"><ele></ele><time>2017-12-15T17:51:12Z</time></trkpt>
<trkpt lat="48.3849650" lon="-1.8884290"><ele></ele><time>2017-12-15T17:51:15Z</time></trkpt>
<trkpt lat="48.3849890" lon="-1.8883480"><ele></ele><time>2017-12-15T17:51:18Z</time></trkpt>
<trkpt lat="48.3850110" lon="-1.8882740"><ele></ele><time>2017-12-15T17:51:21Z</time></trkpt>
<trkpt lat="48.3850430" lon="-1.8882020"><ele></ele><time>2017-12-15T17:51:24Z</time></trkpt>
<trkpt lat="48.3850590" lon="-1.8881350"><ele></ele><time>2017-12-15T17:51:27Z</time></trkpt>
<trkpt lat="48.3850790" lon="-1.8880770"><ele></ele><time>2017-12-15T17:51:30Z</time></trkpt>
<trkpt lat="48.3850990" lon="-1.8880220"><ele></ele><time>2017-12-15T17:51:33Z</time></trkpt>
<trkpt lat="48.3851120" lon="-1.8879710"><ele></ele><time>2017-12-15T17:51:36Z</time></trkpt>
<trkpt lat="48.3851330" lon="-1.8879190"><ele></ele><time>2017-12-15T17:51:39Z</time></trkpt>
<trkpt lat="48.3851530" lon="-1.8878720"><ele></ele><time>2017-12-15T17:51:42Z</time></trkpt>
<trkpt lat="48.3851660" lon="-1.8878250"><ele></ele><time>2017-12-15T17:51:45Z</time></trkpt>
<trkpt lat="48.3851820" lon="-1.8877790"><ele></ele><time>2017-12-15T17:51:48Z</time></trkpt>
<trkpt lat="48.3851950" lon="-1.8877400"><ele></ele><time>2017-12-15T17:51:51Z</time></trkpt>
<trkpt lat="48.3852130" lon="-1.8877000"><ele></ele><time>2017-12-15T17:51:54Z</time></trkpt>
<trkpt lat="48.3852290" lon="-1.8876620"><ele></ele><time>2017-12-15T17:51:57Z</time></trkpt>
<trkpt lat="48.3852430" lon="-1.8876190"><ele></ele><time>2017-12-15T17:52:0Z</time></trkpt>
<trkpt lat="48.3852590" lon="-1.8875710"><ele></ele><time>2017-12-15T17:52:3Z</time></trkpt>
<trkpt lat="48.3852790" lon="-1.8875270"><ele></ele><time>2017-12-15T17:52:6Z</time></trkpt>
<trkpt lat="48.3853000" lon="-1.8874860"><ele></ele><time>2017-12-15T17:52:9Z</time></trkpt>
<trkpt lat="48.3853220" lon="-1.8874430"><ele></ele><time>2017-12-15T17:52:12Z</time></trkpt>
<trkpt lat="48.3853380" lon="-1.8873990"><ele></ele><time>2017-12-15T17:52:15Z</time></trkpt>
<trkpt lat="48.3853570" lon="-1.8873530"><ele></ele><time>2017-12-15T17:52:18Z</time></trkpt>
<trkpt lat="48.3853730" lon="-1.8873080"><ele></ele><time>2017-12-15T17:52:21Z</time></trkpt>
<trkpt lat="48.3853820" lon="-1.8872690"><ele></ele><time>2017-12-15T17:52:24Z</time></trkpt>
<trkpt lat="48.3854040" lon="-1.8872070"><ele></ele><time>2017-12-15T17:52:27Z</time></trkpt>
<trkpt lat="48.3854190" lon="-1.8871700"><ele></ele><time>2017-12-15T17:52:30Z</time></trkpt>
<trkpt lat="48.3854480" lon="-1.8871020"><ele></ele><time>2017-12-15T17:52:33Z</time></trkpt>
<trkpt lat="48.3854630" lon="-1.8870610"><ele></ele><time>2017-12-15T17:52:36Z</time></trkpt>
<trkpt lat="48.3854800" lon="-1.8870230"><ele></ele><time>2017-12-15T17:52:39Z</time></trkpt>
<trkpt lat="48.3854940" lon="-1.8869760"><ele></ele><time>2017-12-15T17:52:42Z</time></trkpt>
<trkpt lat="48.3855130" lon="-1.8869420"><ele></ele><time>2017-12-15T17:52:45Z</time></trkpt>
<trkpt lat="48.3855270" lon="-1.8869070"><ele></ele><time>2017-12-15T17:52:48Z</time></trkpt>
<trkpt lat="48.3855450" lon="-1.8868530"><ele></ele><time>2017-12-15T17:52:51Z</time></trkpt>
<trkpt lat="48.3855620" lon="-1.8867870"><ele></ele><time>2017-12-15T17:52:54Z</time></trkpt>
<trkpt lat="48.3855740" lon="-1.8867200"><ele></ele><time>2017-12-15T17:52:57Z</time></trkpt>
<trkpt lat="48.3855680" lon="-1.8866750"><ele></ele><time>2017-12-15T17:53:0Z</time></trkpt>
<trkpt lat="48.3855590" lon="-1.8866260"><ele></ele><time>2017-12-15T17:53:3Z</time></trkpt>
<trkpt lat="48.3855310" lon="-1.8865600"><ele></ele><time>2017-12-15T17:53:6Z</time></trkpt>
<trkpt lat="48.3855090" lon="-1.8865140"><ele></ele><time>2017-12-15T17:53:9Z</time></trkpt>
<trkpt lat="48.3854780" lon="-1.8864780"><ele></ele><time>2017-12-15T17:53:12Z</time></trkpt>
<trkpt lat="48.3854460" lon="-1.8864320"><ele></ele><time>2017-12-15T17:53:15Z</time></trkpt>
<trkpt lat="48.3854100" lon="-1.8863910"><ele></ele><time>2017-12-15T17:53:18Z</time></trkpt>
<trkpt lat="48.3853790" lon="-1.8863340"><ele></ele><time>2017-12-15T17:53:21Z</time></trkpt>
<trkpt lat="48.3853450" lon="-1.8862880"><ele></ele><time>2017-12-15T17:53:24Z</time></trkpt>
<trkpt lat="48.3853120" lon="-1.8862310"><ele></ele><time>2017-12-15T17:53:27Z</time></trkpt>
<trkpt lat="48.3852760" lon="-1.8861740"><ele></ele><time>2017-12-15T17:53:30Z</time></trkpt>
<trkpt lat="48.3852350" lon="-1.8861140"><ele></ele><time>2017-12-15T17:53:33Z</time></trkpt>
<trkpt lat="48.3851940" lon="-1.8860630"><ele></ele><time>2017-12-15T17:53:36Z</time></trkpt>
<trkpt lat="48.3851470" lon="-1.8860080"><ele></ele><time>2017-12-15T17:53:39Z</time></trkpt>
<trkpt lat="48.3851000" lon="-1.8859540"><ele></ele><time>2017-12-15T17:53:42Z</time></trkpt>
<trkpt lat="48.3850510" lon="-1.8858920"><ele></ele><time>2017-12-15T17:53:45Z</time></trkpt>
<trkpt lat="48.3849990" lon="-1.8858200"><ele></ele><time>2017-12-15T17:53:48Z</time></trkpt>
<trkpt lat="48.3849520" lon="-1.8857490"><ele></ele><time>2017-12-15T17:53:51Z</time></trkpt>
<trkpt lat="48.3849020" lon="-1.8856780"><ele></ele><time>2017-12-15T17:53:54Z</time></trkpt>
<trkpt lat="48.3848520" lon="-1.8856050"><ele></ele><time>2017-12-15T17:53:57Z</time></trkpt>
<trkpt lat="48.3847960" lon="-1.8855330"><ele></ele><time>2017-12-15T17:54:0Z</time></trkpt>
<trkpt lat="48.3847370" lon="-1.8854620"><ele></ele><time>2017-12-15T17:54:3Z</time></trkpt>
<trkpt lat="48.3846770" lon="-1.8853880"><ele></ele><time>2017-12-15T17:54:6Z</time></trkpt>
<trkpt lat="48.3846190" lon="-1.8853120"><ele></ele><time>2017-12-15T17:54:9Z</time></trkpt>
<trkpt lat="48.3845660" lon="-1.8852250"><ele></ele><time>2017-12-15T17:54:12Z</time></trkpt>
<trkpt lat="48.3845070" lon="-1.8851440"><ele></ele><time>2017-12-15T17:54:15Z</time></trkpt>
<trkpt lat="48.3844460" lon="-1.8850630"><ele></ele><time>2017-12-15T17:54:18Z</time></trkpt>
<trkpt lat="48.3843830" lon="-1.8849770"><ele></ele><time>2017-12-15T17:54:21Z</time></trkpt>
<trkpt lat="48.3843210" lon="-1.8848920"><ele></ele><time>2017-12-15T17:54:24Z</time></trkpt>
<trkpt lat="48.3842650" lon="-1.8848080"><ele></ele><time>2017-12-15T17:54:27Z</time></trkpt>
<trkpt lat="48.3842060" lon="-1.8847260"><ele></ele><time>2017-12-15T17:54:30Z</time></trkpt>
<trkpt lat="48.3825780" lon="-1.8828260"><ele></ele><time>2017-12-15T17:54:33Z</time></trkpt>
<trkpt lat="48.3825980" lon="-1.8827150"><ele></ele><time>2017-12-15T17:54:36Z</time></trkpt>
<trkpt lat="48.3826180" lon="-1.8826690"><ele></ele><time>2017-12-15T17:54:39Z</time></trkpt>
<trkpt lat="48.3826110" lon="-1.8826240"><ele></ele><time>2017-12-15T17:54:42Z</time></trkpt>
<trkpt lat="48.3825960" lon="-1.8825760"><ele></ele><time>2017-12-15T17:54:45Z</time></trkpt>
<trkpt lat="48.3825710" lon="-1.8825290"><ele></ele><time>2017-12-15T17:54:48Z</time></trkpt>
<trkpt lat="48.3825370" lon="-1.8824880"><ele></ele><time>2017-12-15T17:54:51Z</time></trkpt>
<trkpt lat="48.3825010" lon="-1.8824460"><ele></ele><time>2017-12-15T17:54:54Z</time></trkpt>
<trkpt lat="48.3824710" lon="-1.8824050"><ele></ele><time>2017-12-15T17:54:57Z</time></trkpt>
<trkpt lat="48.3824430" lon="-1.8823560"><ele></ele><time>2017-12-15T17:55:0Z</time></trkpt>
<trkpt lat="48.3824070" lon="-1.8823120"><ele></ele><time>2017-12-15T17:55:3Z</time></trkpt>
<trkpt lat="48.3823680" lon="-1.8822690"><ele></ele><time>2017-12-15T17:55:6Z</time></trkpt>
<trkpt lat="48.3823270" lon="-1.8822200"><ele></ele><time>2017-12-15T17:55:9Z</time></trkpt>
<trkpt lat="48.3822850" lon="-1.8821710"><ele></ele><time>2017-12-15T17:55:12Z</time></trkpt>
<trkpt lat="48.3822500" lon="-1.8821260"><ele></ele><time>2017-12-15T17:55:15Z</time></trkpt>
<trkpt lat="48.3822140" lon="-1.8820760"><ele></ele><time>2017-12-15T17:55:18Z</time></trkpt>
<trkpt lat="48.3821680" lon="-1.8820280"><ele></ele><time>2017-12-15T17:55:21Z</time></trkpt>
<trkpt lat="48.3821340" lon="-1.8819740"><ele></ele><time>2017-12-15T17:55:24Z</time></trkpt>
<trkpt lat="48.3821000" lon="-1.8819260"><ele></ele><time>2017-12-15T17:55:27Z</time></trkpt>
<trkpt lat="48.3820650" lon="-1.8818800"><ele></ele><time>2017-12-15T17:55:30Z</time></trkpt>
<trkpt lat="48.3820300" lon="-1.8818290"><ele></ele><time>2017-12-15T17:55:33Z</time></trkpt>
<trkpt lat="48.3819980" lon="-1.8817810"><ele></ele><time>2017-12-15T17:55:36Z</time></trkpt>
<trkpt lat="48.3819630" lon="-1.8817350"><ele></ele><time>2017-12-15T17:55:39Z</time></trkpt>
<trkpt lat="48.3819240" lon="-1.8816880"><ele></ele><time>2017-12-15T17:55:42Z</time></trkpt>
<trkpt lat="48.3818860" lon="-1.8816450"><ele></ele><time>2017-12-15T17:55:45Z</time></trkpt>
<trkpt lat="48.3818480" lon="-1.8815970"><ele></ele><time>2017-12-15T17:55:48Z</time></trkpt>
<trkpt lat="48.3818130" lon="-1.8815470"><ele></ele><time>2017-12-15T17:55:51Z</time></trkpt>
<trkpt lat="48.3817780" lon="-1.8814980"><ele></ele><time>2017-12-15T17:55:54Z</time></trkpt>
<trkpt lat="48.3817450" lon="-1.8814460"><ele></ele><time>2017-12-15T17:55:57Z</time></trkpt>
<trkpt lat="48.3817080" lon="-1.8813940"><ele></ele><time>2017-12-15T17:56:0Z</time></trkpt>
<trkpt lat="48.3816700" lon="-1.8813430"><ele></ele><time>2017-12-15T17:56:3Z</time></trkpt>
<trkpt lat="48.3816290" lon="-1.8812900"><ele></ele><time>2017-12-15T17:56:6Z</time></trkpt>
<trkpt lat="48.3815900" lon="-1.8812390"><ele></ele><time>2017-12-15T17:56:9Z</time></trkpt>
<trkpt lat="48.3815470" lon="-1.8811880"><ele></ele><time>2017-12-15T17:56:12Z</time></trkpt>
<trkpt lat="48.3815040" lon="-1.8811380"><ele></ele><time>2017-12-15T17:56:15Z</time></trkpt>
<trkpt lat="48.3814590" lon="-1.8810860"><ele></ele><time>2017-12-15T17:56:18Z</time></trkpt>
<trkpt lat="48.3814140" lon="-1.8810370"><ele></ele><time>2017-12-15T17:56:21Z</time></trkpt>
<trkpt lat="48.3813690" lon="-1.8809860"><ele></ele><time>2017-12-15T17:56:24Z</time></trkpt>
<trkpt lat="48.3813220" lon="-1.8809380"><ele></ele><time>2017-12-15T17:56:27Z</time></trkpt>
<trkpt lat="48.3812730" lon="-1.8808930"><ele></ele><time>2017-12-15T17:56:30Z</time></trkpt>
<trkpt lat="48.3812240" lon="-1.8808480"><ele></ele><time>2017-12-15T17:56:33Z</time></trkpt>
<trkpt lat="48.3811710" lon="-1.8808020"><ele></ele><time>2017-12-15T17:56:36Z</time></trkpt>
<trkpt lat="48.3811190" lon="-1.8807600"><ele></ele><time>2017-12-15T17:56:39Z</time></trkpt>
<trkpt lat="48.3810610" lon="-1.8807200"><ele></ele><time>2017-12-15T17:56:42Z</time></trkpt>
<trkpt lat="48.3810010" lon="-1.8806780"><ele></ele><time>2017-12-15T17:56:45Z</time></trkpt>
<trkpt lat="48.3809480" lon="-1.8806440"><ele></ele><time>2017-12-15T17:56:48Z</time></trkpt>
<trkpt lat="48.3808910" lon="-1.8806060"><ele></ele><time>2017-12-15T17:56:51Z</time></trkpt>
<trkpt lat="48.3808300" lon="-1.8805760"><ele></ele><time>2017-12-15T17:56:54Z</time></trkpt>
<trkpt lat="48.3807680" lon="-1.8805350"><ele></ele><time>2017-12-15T17:56:57Z</time></trkpt>
<trkpt lat="48.3807060" lon="-1.8805020"><ele></ele><time>2017-12-15T17:57:0Z</time></trkpt>
<trkpt lat="48.3806400" lon="-1.8804650"><ele></ele><time>2017-12-15T17:57:3Z</time></trkpt>
<trkpt lat="48.3805720" lon="-1.8804320"><ele></ele><time>2017-12-15T17:57:6Z</time></trkpt>
<trkpt lat="48.3805080" lon="-1.8803940"><ele></ele><time>2017-12-15T17:57:9Z</time></trkpt>
<trkpt lat="48.3804420" lon="-1.8803520"><ele></ele><time>2017-12-15T17:57:12Z</time></trkpt>
<trkpt lat="48.3803770" lon="-1.8803110"><ele></ele><time>2017-12-15T17:57:15Z</time></trkpt>
<trkpt lat="48.3803080" lon="-1.8802680"><ele></ele><time>2017-12-15T17:57:18Z</time></trkpt>
<trkpt lat="48.3802420" lon="-1.8802390"><ele></ele><time>2017-12-15T17:57:21Z</time></trkpt>
<trkpt lat="48.3801730" lon="-1.8802030"><ele></ele><time>2017-12-15T17:57:24Z</time></trkpt>
<trkpt lat="48.3801040" lon="-1.8801660"><ele></ele><time>2017-12-15T17:57:27Z</time></trkpt>
<trkpt lat="48.3800300" lon="-1.8801370"><ele></ele><time>2017-12-15T17:57:30Z</time></trkpt>
<trkpt lat="48.3799630" lon="-1.8801190"><ele></ele><time>2017-12-15T17:57:33Z</time></trkpt>
<trkpt lat="48.3799000" lon="-1.8800880"><ele></ele><time>2017-12-15T17:57:36Z</time></trkpt>
<trkpt lat="48.3798350" lon="-1.8800560"><ele></ele><time>2017-12-15T17:57:39Z</time></trkpt>
<trkpt lat="48.3797800" lon="-1.8800260"><ele></ele><time>2017-12-15T17:57:42Z</time></trkpt>
<trkpt lat="48.3797220" lon="-1.8799930"><ele></ele><time>2017-12-15T17:57:45Z</time></trkpt>
<trkpt lat="48.3796670" lon="-1.8799700"><ele></ele><time>2017-12-15T17:57:48Z</time></trkpt>
<trkpt lat="48.3796100" lon="-1.8799400"><ele></ele><time>2017-12-15T17:57:51Z</time></trkpt>
<trkpt lat="48.3795530" lon="-1.8799280"><ele></ele><time>2017-12-15T17:57:54Z</time></trkpt>
<trkpt lat="48.3795070" lon="-1.8798960"><ele></ele><time>2017-12-15T17:57:57Z</time></trkpt>
<trkpt lat="48.3794610" lon="-1.8798700"><ele></ele><time>2017-12-15T17:58:0Z</time></trkpt>
<trkpt lat="48.3794180" lon="-1.8798460"><ele></ele><time>2017-12-15T17:58:3Z</time></trkpt>
<trkpt lat="48.3793730" lon="-1.8798240"><ele></ele><time>2017-12-15T17:58:6Z</time></trkpt>
<trkpt lat="48.3793300" lon="-1.8798010"><ele></ele><time>2017-12-15T17:58:9Z</time></trkpt>
<trkpt lat="48.3792900" lon="-1.8797820"><ele></ele><time>2017-12-15T17:58:12Z</time></trkpt>
<trkpt lat="48.3792500" lon="-1.8797660"><ele></ele><time>2017-12-15T17:58:15Z</time></trkpt>
<trkpt lat="48.3792120" lon="-1.8797510"><ele></ele><time>2017-12-15T17:58:18Z</time></trkpt>
<trkpt lat="48.3791760" lon="-1.8797330"><ele></ele><time>2017-12-15T17:58:21Z</time></trkpt>
<trkpt lat="48.3791370" lon="-1.8797110"><ele></ele><time>2017-12-15T17:58:24Z</time></trkpt>
<trkpt lat="48.3791010" lon="-1.8796890"><ele></ele><time>2017-12-15T17:58:27Z</time></trkpt>
<trkpt lat="48.3790620" lon="-1.8796660"><ele></ele><time>2017-12-15T17:58:30Z</time></trkpt>
<trkpt lat="48.3790240" lon="-1.8796460"><ele></ele><time>2017-12-15T17:58:33Z</time></trkpt>
<trkpt lat="48.3789890" lon="-1.8796270"><ele></ele><time>2017-12-15T17:58:36Z</time></trkpt>
<trkpt lat="48.3789510" lon="-1.8796100"><ele></ele><time>2017-12-15T17:58:39Z</time></trkpt>
<trkpt lat="48.3789150" lon="-1.8795900"><ele></ele><time>2017-12-15T17:58:42Z</time></trkpt>
<trkpt lat="48.3788810" lon="-1.8795690"><ele></ele><time>2017-12-15T17:58:45Z</time></trkpt>
<trkpt lat="48.3788480" lon="-1.8795620"><ele></ele><time>2017-12-15T17:58:48Z</time></trkpt>
<trkpt lat="48.3788270" lon="-1.8795980"><ele></ele><time>2017-12-15T17:58:51Z</time></trkpt>
<trkpt lat="48.3788070" lon="-1.8796350"><ele></ele><time>2017-12-15T17:58:54Z</time></trkpt>
<trkpt lat="48.3788230" lon="-1.8797040"><ele></ele><time>2017-12-15T17:58:57Z</time></trkpt>
<trkpt lat="48.3788260" lon="-1.8797730"><ele></ele><time>2017-12-15T17:59:0Z</time></trkpt>
<trkpt lat="48.3788310" lon="-1.8798440"><ele></ele><time>2017-12-15T17:59:3Z</time></trkpt>
<trkpt lat="48.3788380" lon="-1.8799190"><ele></ele><time>2017-12-15T17:59:6Z</time></trkpt>
<trkpt lat="48.3788410" lon="-1.8800010"><ele></ele><time>2017-12-15T17:59:9Z</time></trkpt>
<trkpt lat="48.3788510" lon="-1.8800790"><ele></ele><time>2017-12-15T17:59:12Z</time></trkpt>
<trkpt lat="48.3788570" lon="-1.8801490"><ele></ele><time>2017-12-15T17:59:15Z</time></trkpt>
<trkpt lat="48.3788640" lon="-1.8802180"><ele></ele><time>2017-12-15T17:59:18Z</time></trkpt>
<trkpt lat="48.3788690" lon="-1.8802970"><ele></ele><time>2017-12-15T17:59:21Z</time></trkpt>
<trkpt lat="48.3788680" lon="-1.8803780"><ele></ele><time>2017-12-15T17:59:24Z</time></trkpt>
<trkpt lat="48.3788700" lon="-1.8804590"><ele></ele><time>2017-12-15T17:59:27Z</time></trkpt>
<trkpt lat="48.3788750" lon="-1.8805300"><ele></ele><time>2017-12-15T17:59:30Z</time></trkpt>
<trkpt lat="48.3788810" lon="-1.8806040"><ele></ele><time>2017-12-15T17:59:33Z</time></trkpt>
<trkpt lat="48.3788900" lon="-1.8806760"><ele></ele><time>2017-12-15T17:59:36Z</time></trkpt>
<trkpt lat="48.3789000" lon="-1.8807500"><ele></ele><time>2017-12-15T17:59:39Z</time></trkpt>
<trkpt lat="48.3789130" lon="-1.8808210"><ele></ele><time>2017-12-15T17:59:42Z</time></trkpt>
<trkpt lat="48.3789220" lon="-1.8808830"><ele></ele><time>2017-12-15T17:59:45Z</time></trkpt>
<trkpt lat="48.3789180" lon="-1.8809470"><ele></ele><time>2017-12-15T17:59:48Z</time></trkpt>
<trkpt lat="48.3789150" lon="-1.8810050"><ele></ele><time>2017-12-15T17:59:51Z</time></trkpt>
<trkpt lat="48.3789110" lon="-1.8810990"><ele></ele><time>2017-12-15T17:59:54Z</time></trkpt>
<trkpt lat="48.3788980" lon="-1.8811510"><ele></ele><time>2017-12-15T17:59:57Z</time></trkpt>
<trkpt lat="48.3788880" lon="-1.8811920"><ele></ele><time>2017-12-15T18:0:0Z</time></trkpt>
<trkpt lat="48.3788800" lon="-1.8812470"><ele></ele><time>2017-12-15T18:0:3Z</time></trkpt>
<trkpt lat="48.3788720" lon="-1.8813040"><ele></ele><time>2017-12-15T18:0:6Z</time></trkpt>
<trkpt lat="48.3788650" lon="-1.8813550"><ele></ele><time>2017-12-15T18:0:9Z</time></trkpt>
<trkpt lat="48.3788640" lon="-1.8814060"><ele></ele><time>2017-12-15T18:0:12Z</time></trkpt>
<trkpt lat="48.3788640" lon="-1.8814550"><ele></ele><time>2017-12-15T18:0:15Z</time></trkpt>
<trkpt lat="48.3788680" lon="-1.8814980"><ele></ele><time>2017-12-15T18:0:18Z</time></trkpt>
<trkpt lat="48.3788770" lon="-1.8815910"><ele></ele><time>2017-12-15T18:0:21Z</time></trkpt>
<trkpt lat="48.3788930" lon="-1.8816470"><ele></ele><time>2017-12-15T18:0:24Z</time></trkpt>
<trkpt lat="48.3789190" lon="-1.8816790"><ele></ele><time>2017-12-15T18:0:27Z</time></trkpt>
<trkpt lat="48.3789460" lon="-1.8816840"><ele></ele><time>2017-12-15T18:0:30Z</time></trkpt>
<trkpt lat="48.3789730" lon="-1.8817060"><ele></ele><time>2017-12-15T18:0:33Z</time></trkpt>
<trkpt lat="48.3789720" lon="-1.8817500"><ele></ele><time>2017-12-15T18:0:36Z</time></trkpt>
<trkpt lat="48.3789600" lon="-1.8817930"><ele></ele><time>2017-12-15T18:0:39Z</time></trkpt>
<trkpt lat="48.3789530" lon="-1.8818470"><ele></ele><time>2017-12-15T18:0:42Z</time></trkpt>
<trkpt lat="48.3789670" lon="-1.8818880"><ele></ele><time>2017-12-15T18:0:45Z</time></trkpt>
<trkpt lat="48.3789650" lon="-1.8819310"><ele></ele><time>2017-12-15T18:0:48Z</time></trkpt>
<trkpt lat="48.3789460" lon="-1.8819890"><ele></ele><time>2017-12-15T18:0:51Z</time></trkpt>
<trkpt lat="48.3789340" lon="-1.8820360"><ele></ele><time>2017-12-15T18:0:54Z</time></trkpt>
<trkpt lat="48.3789650" lon="-1.8820450"><ele></ele><time>2017-12-15T18:0:57Z</time></trkpt>
<trkpt lat="48.3789940" lon="-1.8820490"><ele></ele><time>2017-12-15T18:1:0Z</time></trkpt>
<trkpt lat="48.3790320" lon="-1.8820420"><ele></ele><time>2017-12-15T18:1:3Z</time></trkpt>
<trkpt lat="48.3790350" lon="-1.8820000"><ele></ele><time>2017-12-15T18:1:6Z</time></trkpt>
<trkpt lat="48.3790170" lon="-1.8819630"><ele></ele><time>2017-12-15T18:1:9Z</time></trkpt>
<trkpt lat="48.3790370" lon="-1.8819320"><ele></ele><time>2017-12-15T18:1:12Z</time></trkpt>
<trkpt lat="48.3790100" lon="-1.8818890"><ele></ele><time>2017-12-15T18:1:15Z</time></trkpt>
<trkpt lat="48.3789890" lon="-1.8819200"><ele></ele><time>2017-12-15T18:1:18Z</time></trkpt>
<trkpt lat="48.3789560" lon="-1.8819690"><ele></ele><time>2017-12-15T18:1:21Z</time></trkpt>
<trkpt lat="48.3789720" lon="-1.8820140"><ele></ele><time>2017-12-15T18:1:24Z</time></trkpt>
<trkpt lat="48.3789750" lon="-1.8821080"><ele></ele><time>2017-12-15T18:1:27Z</time></trkpt>
<trkpt lat="48.3790020" lon="-1.8821190"><ele></ele><time>2017-12-15T18:1:30Z</time></trkpt>
<trkpt lat="48.3790020" lon="-1.8820700"><ele></ele><time>2017-12-15T18:1:33Z</time></trkpt>
<trkpt lat="48.3790190" lon="-1.8821040"><ele></ele><time>2017-12-15T18:1:36Z</time></trkpt>
<trkpt lat="48.3790280" lon="-1.8821440"><ele></ele><time>2017-12-15T18:1:39Z</time></trkpt>
<trkpt lat="48.3790480" lon="-1.8821840"><ele></ele><time>2017-12-15T18:1:42Z</time></trkpt>
<trkpt lat="48.3790720" lon="-1.8822070"><ele></ele><time>2017-12-15T18:1:45Z</time></trkpt>
<trkpt lat="48.3790680" lon="-1.8822510"><ele></ele><time>2017-12-15T18:1:48Z</time></trkpt>
<trkpt lat="48.3790530" lon="-1.8822040"><ele></ele><time>2017-12-15T18:1:51Z</time></trkpt>
<trkpt lat="48.3790260" lon="-1.8822090"><ele></ele><time>2017-12-15T18:1:54Z</time></trkpt>
<trkpt lat="48.3789960" lon="-1.8822090"><ele></ele><time>2017-12-15T18:1:57Z</time></trkpt>
<trkpt lat="48.3789890" lon="-1.8822630"><ele></ele><time>2017-12-15T18:2:0Z</time></trkpt>
<trkpt lat="48.3789950" lon="-1.8822220"><ele></ele><time>2017-12-15T18:2:3Z</time></trkpt>
<trkpt lat="48.3790040" lon="-1.8821800"><ele></ele><time>2017-12-15T18:2:6Z</time></trkpt>
<trkpt lat="48.3790240" lon="-1.8821430"><ele></ele><time>2017-12-15T18:2:9Z</time></trkpt>
<trkpt lat="48.3790520" lon="-1.8821480"><ele></ele><time>2017-12-15T18:2:12Z</time></trkpt>
<trkpt lat="48.3790290" lon="-1.8821160"><ele></ele><time>2017-12-15T18:2:15Z</time></trkpt>
<trkpt lat="48.3790160" lon="-1.8820810"><ele></ele><time>2017-12-15T18:2:18Z</time></trkpt>
<trkpt lat="48.3790170" lon="-1.8820380"><ele></ele><time>2017-12-15T18:2:21Z</time></trkpt>
<trkpt lat="48.3790190" lon="-1.8819810"><ele></ele><time>2017-12-15T18:2:24Z</time></trkpt>
<trkpt lat="48.3790080" lon="-1.8819390"><ele></ele><time>2017-12-15T18:2:27Z</time></trkpt>
<trkpt lat="48.3790200" lon="-1.8818950"><ele></ele><time>2017-12-15T18:2:30Z</time></trkpt>
<trkpt lat="48.3790530" lon="-1.8819330"><ele></ele><time>2017-12-15T18:2:33Z</time></trkpt>
<trkpt lat="48.3790500" lon="-1.8819780"><ele></ele><time>2017-12-15T18:2:36Z</time></trkpt>
<trkpt lat="48.3790320" lon="-1.8820150"><ele></ele><time>2017-12-15T18:2:39Z</time></trkpt>
<trkpt lat="48.3790230" lon="-1.8820620"><ele></ele><time>2017-12-15T18:2:42Z</time></trkpt>
<trkpt lat="48.3790300" lon="-1.8821040"><ele></ele><time>2017-12-15T18:2:45Z</time></trkpt>
<trkpt lat="48.3790120" lon="-1.8821450"><ele></ele><time>2017-12-15T18:2:48Z</time></trkpt>
<trkpt lat="48.3789830" lon="-1.8821320"><ele></ele><time>2017-12-15T18:2:51Z</time></trkpt>
<trkpt lat="48.3789800" lon="-1.8820850"><ele></ele><time>2017-12-15T18:2:54Z</time></trkpt>
<trkpt lat="48.3789780" lon="-1.8820360"><ele></ele><time>2017-12-15T18:2:57Z</time></trkpt>
<trkpt lat="48.3789720" lon="-1.8819920"><ele></ele><time>2017-12-15T18:3:0Z</time></trkpt>
<trkpt lat="48.3789620" lon="-1.8819530"><ele></ele><time>2017-12-15T18:3:3Z</time></trkpt>
<trkpt lat="48.3789360" lon="-1.8819360"><ele></ele><time>2017-12-15T18:3:6Z</time></trkpt>
<trkpt lat="48.3789250" lon="-1.8820010"><ele></ele><time>2017-12-15T18:3:9Z</time></trkpt>
<trkpt lat="48.3789270" lon="-1.8820480"><ele></ele><time>2017-12-15T18:3:12Z</time></trkpt>
<trkpt lat="48.3789350" lon="-1.8820990"><ele></ele><time>2017-12-15T18:3:15Z</time></trkpt>
<trkpt lat="48.3789430" lon="-1.8821430"><ele></ele><time>2017-12-15T18:3:18Z</time></trkpt>
<trkpt lat="48.3789480" lon="-1.8821880"><ele></ele><time>2017-12-15T18:3:21Z</time></trkpt>
<trkpt lat="48.3789570" lon="-1.8822480"><ele></ele><time>2017-12-15T18:3:24Z</time></trkpt>
<trkpt lat="48.3789610" lon="-1.8823020"><ele></ele><time>2017-12-15T18:3:27Z</time></trkpt>
<trkpt lat="48.3789740" lon="-1.8823690"><ele></ele><time>2017-12-15T18:3:30Z</time></trkpt>
<trkpt lat="48.3789810" lon="-1.8824090"><ele></ele><time>2017-12-15T18:3:33Z</time></trkpt>
<trkpt lat="48.3789840" lon="-1.8824520"><ele></ele><time>2017-12-15T18:3:36Z</time></trkpt>
<trkpt lat="48.3789910" lon="-1.8824970"><ele></ele><time>2017-12-15T18:3:39Z</time></trkpt>
<trkpt lat="48.3789960" lon="-1.8825430"><ele></ele><time>2017-12-15T18:3:42Z</time></trkpt>
<trkpt lat="48.3790000" lon="-1.8825920"><ele></ele><time>2017-12-15T18:3:45Z</time></trkpt>
<trkpt lat="48.3790070" lon="-1.8826400"><ele></ele><time>2017-12-15T18:3:48Z</time></trkpt>
<trkpt lat="48.3790150" lon="-1.8826940"><ele></ele><time>2017-12-15T18:3:51Z</time></trkpt>
<trkpt lat="48.3790230" lon="-1.8827460"><ele></ele><time>2017-12-15T18:3:54Z</time></trkpt>
<trkpt lat="48.3790290" lon="-1.8828020"><ele></ele><time>2017-12-15T18:3:57Z</time></trkpt>
<trkpt lat="48.3790350" lon="-1.8828520"><ele></ele><time>2017-12-15T18:4:0Z</time></trkpt>
<trkpt lat="48.3790390" lon="-1.8829040"><ele></ele><time>2017-12-15T18:4:3Z</time></trkpt>
<trkpt lat="48.3790440" lon="-1.8829530"><ele></ele><time>2017-12-15T18:4:6Z</time></trkpt>
<trkpt lat="48.3790470" lon="-1.8830050"><ele></ele><time>2017-12-15T18:4:9Z</time></trkpt>
<trkpt lat="48.3790580" lon="-1.8830580"><ele></ele><time>2017-12-15T18:4:12Z</time></trkpt>
<trkpt lat="48.3790700" lon="-1.8831110"><ele></ele><time>2017-12-15T18:4:15Z</time></trkpt>
<trkpt lat="48.3790790" lon="-1.8831680"><ele></ele><time>2017-12-15T18:4:18Z</time></trkpt>
<trkpt lat="48.3790730" lon="-1.8832260"><ele></ele><time>2017-12-15T18:4:21Z</time></trkpt>
<trkpt lat="48.3790680" lon="-1.8832840"><ele></ele><time>2017-12-15T18:4:24Z</time></trkpt>
<trkpt lat="48.3790680" lon="-1.8833400"><ele></ele><time>2017-12-15T18:4:27Z</time></trkpt>
<trkpt lat="48.3790640" lon="-1.8834000"><ele></ele><time>2017-12-15T18:4:30Z</time></trkpt>
<trkpt lat="48.3790610" lon="-1.8834670"><ele></ele><time>2017-12-15T18:4:33Z</time></trkpt>
<trkpt lat="48.3790630" lon="-1.8835300"><ele></ele><time>2017-12-15T18:4:36Z</time></trkpt>
<trkpt lat="48.3790710" lon="-1.8835950"><ele></ele><time>2017-12-15T18:4:39Z</time></trkpt>
<trkpt lat="48.3790660" lon="-1.8836590"><ele></ele><time>2017-12-15T18:4:42Z</time></trkpt>
<trkpt lat="48.3790710" lon="-1.8837190"><ele></ele><time>2017-12-15T18:4:45Z</time></trkpt>
<trkpt lat="48.3790740" lon="-1.8837760"><ele></ele><time>2017-12-15T18:4:48Z</time></trkpt>
<trkpt lat="48.3790660" lon="-1.8838250"><ele></ele><time>2017-12-15T18:4:51Z</time></trkpt>
<trkpt lat="48.3790490" lon="-1.8838620"><ele></ele><time>2017-12-15T18:4:54Z</time></trkpt>
<trkpt lat="48.3790260" lon="-1.8838860"><ele></ele><time>2017-12-15T18:4:57Z</time></trkpt>
<trkpt lat="48.3790020" lon="-1.8839170"><ele></ele><time>2017-12-15T18:5:0Z</time></trkpt>
<trkpt lat="48.3789700" lon="-1.8839410"><ele></ele><time>2017-12-15T18:5:3Z</time></trkpt>
<trkpt lat="48.3789380" lon="-1.8839620"><ele></ele><time>2017-12-15T18:5:6Z</time></trkpt>
<trkpt lat="48.3789120" lon="-1.8839930"><ele></ele><time>2017-12-15T18:5:9Z</time></trkpt>
<trkpt lat="48.3788850" lon="-1.8840140"><ele></ele><time>2017-12-15T18:5:12Z</time></trkpt>
<trkpt lat="48.3788590" lon="-1.8840350"><ele></ele><time>2017-12-15T18:5:15Z</time></trkpt>
<trkpt lat="48.3788290" lon="-1.8840600"><ele></ele><time>2017-12-15T18:5:18Z</time></trkpt>
<trkpt lat="48.3788010" lon="-1.8840740"><ele></ele><time>2017-12-15T18:5:21Z</time></trkpt>
<trkpt lat="48.3787680" lon="-1.8840880"><ele></ele><time>2017-12-15T18:5:24Z</time></trkpt>
<trkpt lat="48.3787350" lon="-1.8841200"><ele></ele><time>2017-12-15T18:5:27Z</time></trkpt>
<trkpt lat="48.3787020" lon="-1.8841680"><ele></ele><time>2017-12-15T18:5:30Z</time></trkpt>
<trkpt lat="48.3786530" lon="-1.8842000"><ele></ele><time>2017-12-15T18:5:33Z</time></trkpt>
<trkpt lat="48.3786270" lon="-1.8842170"><ele></ele><time>2017-12-15T18:5:36Z</time></trkpt>
<trkpt lat="48.3785990" lon="-1.8842320"><ele></ele><time>2017-12-15T18:5:39Z</time></trkpt>
<trkpt lat="48.3785680" lon="-1.8842480"><ele></ele><time>2017-12-15T18:5:42Z</time></trkpt>
<trkpt lat="48.3785390" lon="-1.8842640"><ele></ele><time>2017-12-15T18:5:45Z</time></trkpt>
<trkpt lat="48.3785040" lon="-1.8842820"><ele></ele><time>2017-12-15T18:5:48Z</time></trkpt>
<trkpt lat="48.3784610" lon="-1.8842820"><ele></ele><time>2017-12-15T18:5:51Z</time></trkpt>
<trkpt lat="48.3784320" lon="-1.8842970"><ele></ele><time>2017-12-15T18:5:54Z</time></trkpt>
<trkpt lat="48.3783960" lon="-1.8843020"><ele></ele><time>2017-12-15T18:5:57Z</time></trkpt>
<trkpt lat="48.3783480" lon="-1.8843170"><ele></ele><time>2017-12-15T18:6:0Z</time></trkpt>
<trkpt lat="48.3783080" lon="-1.8843320"><ele></ele><time>2017-12-15T18:6:3Z</time></trkpt>
<trkpt lat="48.3782690" lon="-1.8843460"><ele></ele><time>2017-12-15T18:6:6Z</time></trkpt>
<trkpt lat="48.3782320" lon="-1.8843560"><ele></ele><time>2017-12-15T18:6:9Z</time></trkpt>
<trkpt lat="48.3781980" lon="-1.8843760"><ele></ele><time>2017-12-15T18:6:12Z</time></trkpt>
<trkpt lat="48.3781610" lon="-1.8843820"><ele></ele><time>2017-12-15T18:6:15Z</time></trkpt>
<trkpt lat="48.3781280" lon="-1.8843930"><ele></ele><time>2017-12-15T18:6:18Z</time></trkpt>
<trkpt lat="48.3780940" lon="-1.8844040"><ele></ele><time>2017-12-15T18:6:21Z</time></trkpt>
<trkpt lat="48.3780620" lon="-1.8844120"><ele></ele><time>2017-12-15T18:6:24Z</time></trkpt>
<trkpt lat="48.3780260" lon="-1.8844180"><ele></ele><time>2017-12-15T18:6:27Z</time></trkpt>
<trkpt lat="48.3779890" lon="-1.8844250"><ele></ele><time>2017-12-15T18:6:30Z</time></trkpt>
<trkpt lat="48.3779520" lon="-1.8844310"><ele></ele><time>2017-12-15T18:6:33Z</time></trkpt>
<trkpt lat="48.3779180" lon="-1.8844390"><ele></ele><time>2017-12-15T18:6:36Z</time></trkpt>
<trkpt lat="48.3778820" lon="-1.8844460"><ele></ele><time>2017-12-15T18:6:39Z</time></trkpt>
<trkpt lat="48.3778430" lon="-1.8844530"><ele></ele><time>2017-12-15T18:6:42Z</time></trkpt>
<trkpt lat="48.3778060" lon="-1.8844570"><ele></ele><time>2017-12-15T18:6:45Z</time></trkpt>
<trkpt lat="48.3777690" lon="-1.8844600"><ele></ele><time>2017-12-15T18:6:48Z</time></trkpt>
<trkpt lat="48.3777360" lon="-1.8844640"><ele></ele><time>2017-12-15T18:6:51Z</time></trkpt>
<trkpt lat="48.3777020" lon="-1.8844710"><ele></ele><time>2017-12-15T18:6:54Z</time></trkpt>
<trkpt lat="48.3776650" lon="-1.8844770"><ele></ele><time>2017-12-15T18:6:57Z</time></trkpt>
<trkpt lat="48.3776320" lon="-1.8844850"><ele></ele><time>2017-12-15T18:7:0Z</time></trkpt>
<trkpt lat="48.3775970" lon="-1.8844930"><ele></ele><time>2017-12-15T18:7:3Z</time></trkpt>
<trkpt lat="48.3775610" lon="-1.8845030"><ele></ele><time>2017-12-15T18:7:6Z</time></trkpt>
<trkpt lat="48.3775340" lon="-1.8845100"><ele></ele><time>2017-12-15T18:7:9Z</time></trkpt>
<trkpt lat="48.3774820" lon="-1.8845310"><ele></ele><time>2017-12-15T18:7:12Z</time></trkpt>
<trkpt lat="48.3774500" lon="-1.8845300"><ele></ele><time>2017-12-15T18:7:15Z</time></trkpt>
<trkpt lat="48.3774160" lon="-1.8845290"><ele></ele><time>2017-12-15T18:7:18Z</time></trkpt>
<trkpt lat="48.3773850" lon="-1.8845330"><ele></ele><time>2017-12-15T18:7:21Z</time></trkpt>
<trkpt lat="48.3773550" lon="-1.8845300"><ele></ele><time>2017-12-15T18:7:24Z</time></trkpt>
<trkpt lat="48.3773230" lon="-1.8845310"><ele></ele><time>2017-12-15T18:7:27Z</time></trkpt>
<trkpt lat="48.3772900" lon="-1.8845280"><ele></ele><time>2017-12-15T18:7:30Z</time></trkpt>
<trkpt lat="48.3772560" lon="-1.8845270"><ele></ele><time>2017-12-15T18:7:33Z</time></trkpt>
<trkpt lat="48.3772170" lon="-1.8845300"><ele></ele><time>2017-12-15T18:7:36Z</time></trkpt>
<trkpt lat="48.3771840" lon="-1.8845360"><ele></ele><time>2017-12-15T18:7:39Z</time></trkpt>
<trkpt lat="48.3771500" lon="-1.8845380"><ele></ele><time>2017-12-15T18:7:42Z</time></trkpt>
<trkpt lat="48.3771080" lon="-1.8845350"><ele></ele><time>2017-12-15T18:7:45Z</time></trkpt>
<trkpt lat="48.3770700" lon="-1.8845380"><ele></ele><time>2017-12-15T18:7:48Z</time></trkpt>
<trkpt lat="48.3770390" lon="-1.8845390"><ele></ele><time>2017-12-15T18:7:51Z</time></trkpt>
<trkpt lat="48.3770020" lon="-1.8845090"><ele></ele><time>2017-12-15T18:7:54Z</time></trkpt>
<trkpt lat="48.3769890" lon="-1.8844690"><ele></ele><time>2017-12-15T18:7:57Z</time></trkpt>
<trkpt lat="48.3769720" lon="-1.8843820"><ele></ele><time>2017-12-15T18:8:0Z</time></trkpt>
<trkpt lat="48.3769600" lon="-1.8843350"><ele></ele><time>2017-12-15T18:8:3Z</time></trkpt>
<trkpt lat="48.3769440" lon="-1.8842940"><ele></ele><time>2017-12-15T18:8:6Z</time></trkpt>
<trkpt lat="48.3769280" lon="-1.8842470"><ele></ele><time>2017-12-15T18:8:9Z</time></trkpt>
<trkpt lat="48.3769270" lon="-1.8841880"><ele></ele><time>2017-12-15T18:8:12Z</time></trkpt>
<trkpt lat="48.3769270" lon="-1.8841320"><ele></ele><time>2017-12-15T18:8:15Z</time></trkpt>
<trkpt lat="48.3769180" lon="-1.8840830"><ele></ele><time>2017-12-15T18:8:18Z</time></trkpt>
<trkpt lat="48.3769090" lon="-1.8840410"><ele></ele><time>2017-12-15T18:8:21Z</time></trkpt>
<trkpt lat="48.3769090" lon="-1.8839840"><ele></ele><time>2017-12-15T18:8:24Z</time></trkpt>
<trkpt lat="48.3769090" lon="-1.8839280"><ele></ele><time>2017-12-15T18:8:27Z</time></trkpt>
<trkpt lat="48.3769090" lon="-1.8838750"><ele></ele><time>2017-12-15T18:8:30Z</time></trkpt>
<trkpt lat="48.3768980" lon="-1.8838340"><ele></ele><time>2017-12-15T18:8:33Z</time></trkpt>
<trkpt lat="48.3768810" lon="-1.8837890"><ele></ele><time>2017-12-15T18:8:36Z</time></trkpt>
<trkpt lat="48.3768770" lon="-1.8837340"><ele></ele><time>2017-12-15T18:8:39Z</time></trkpt>
<trkpt lat="48.3768570" lon="-1.8836890"><ele></ele><time>2017-12-15T18:8:42Z</time></trkpt>
<trkpt lat="48.3768340" lon="-1.8836540"><ele></ele><time>2017-12-15T18:8:45Z</time></trkpt>
<trkpt lat="48.3768090" lon="-1.8836110"><ele></ele><time>2017-12-15T18:8:48Z</time></trkpt>
<trkpt lat="48.3767880" lon="-1.8835660"><ele></ele><time>2017-12-15T18:8:51Z</time></trkpt>
<trkpt lat="48.3767650" lon="-1.8835230"><ele></ele><time>2017-12-15T18:8:54Z</time></trkpt>
<trkpt lat="48.3767300" lon="-1.8834880"><ele></ele><time>2017-12-15T18:8:57Z</time></trkpt>
<trkpt lat="48.3767090" lon="-1.8834430"><ele></ele><time>2017-12-15T18:9:0Z</time></trkpt>
<trkpt lat="48.3766820" lon="-1.8833930"><ele></ele><time>2017-12-15T18:9:3Z</time></trkpt>
<trkpt lat="48.3766510" lon="-1.8833440"><ele></ele><time>2017-12-15T18:9:6Z</time></trkpt>
<trkpt lat="48.3766260" lon="-1.8832940"><ele></ele><time>2017-12-15T18:9:9Z</time></trkpt>
<trkpt lat="48.3766020" lon="-1.8832390"><ele></ele><time>2017-12-15T18:9:12Z</time></trkpt>
<trkpt lat="48.3765790" lon="-1.8831870"><ele></ele><time>2017-12-15T18:9:15Z</time></trkpt>
<trkpt lat="48.3765610" lon="-1.8831350"><ele></ele><time>2017-12-15T18:9:18Z</time></trkpt>
<trkpt lat="48.3765400" lon="-1.8830820"><ele></ele><time>2017-12-15T18:9:21Z</time></trkpt>
<trkpt lat="48.3765140" lon="-1.8830380"><ele></ele><time>2017-12-15T18:9:24Z</time></trkpt>
<trkpt lat="48.3764890" lon="-1.8829940"><ele></ele><time>2017-12-15T18:9:27Z</time></trkpt>
<trkpt lat="48.3764630" lon="-1.8829440"><ele></ele><time>2017-12-15T18:9:30Z</time></trkpt>
<trkpt lat="48.3764270" lon="-1.8828590"><ele></ele><time>2017-12-15T18:9:33Z</time></trkpt>
<trkpt lat="48.3764030" lon="-1.8828240"><ele></ele><time>2017-12-15T18:9:36Z</time></trkpt>
<trkpt lat="48.3763790" lon="-1.8827800"><ele></ele><time>2017-12-15T18:9:39Z</time></trkpt>
<trkpt lat="48.3763610" lon="-1.8827330"><ele></ele><time>2017-12-15T18:9:42Z</time></trkpt>
<trkpt lat="48.3763340" lon="-1.8826920"><ele></ele><time>2017-12-15T18:9:45Z</time></trkpt>
<trkpt lat="48.3763090" lon="-1.8826500"><ele></ele><time>2017-12-15T18:9:48Z</time></trkpt>
<trkpt lat="48.3762800" lon="-1.8826060"><ele></ele><time>2017-12-15T18:9:51Z</time></trkpt>
<trkpt lat="48.3762570" lon="-1.8825600"><ele></ele><time>2017-12-15T18:9:54Z</time></trkpt>
<trkpt lat="48.3762340" lon="-1.8825190"><ele></ele><time>2017-12-15T18:9:57Z</time></trkpt>
<trkpt lat="48.3762120" lon="-1.8824750"><ele></ele><time>2017-12-15T18:10:0Z</time></trkpt>
<trkpt lat="48.3761760" lon="-1.8824530"><ele></ele><time>2017-12-15T18:10:3Z</time></trkpt>
<trkpt lat="48.3761480" lon="-1.8824160"><ele></ele><time>2017-12-15T18:10:6Z</time></trkpt>
<trkpt lat="48.3761120" lon="-1.8823930"><ele></ele><time>2017-12-15T18:10:9Z</time></trkpt>
<trkpt lat="48.3760780" lon="-1.8823550"><ele></ele><time>2017-12-15T18:10:12Z</time></trkpt>
<trkpt lat="48.3760440" lon="-1.8823160"><ele></ele><time>2017-12-15T18:10:15Z</time></trkpt>
<trkpt lat="48.3760120" lon="-1.8822660"><ele></ele><time>2017-12-15T18:10:18Z</time></trkpt>
<trkpt lat="48.3759820" lon="-1.8822260"><ele></ele><time>2017-12-15T18:10:21Z</time></trkpt>
<trkpt lat="48.3759510" lon="-1.8821860"><ele></ele><time>2017-12-15T18:10:24Z</time></trkpt>
<trkpt lat="48.3759140" lon="-1.8821560"><ele></ele><time>2017-12-15T18:10:27Z</time></trkpt>
<trkpt lat="48.3758750" lon="-1.8821270"><ele></ele><time>2017-12-15T18:10:30Z</time></trkpt>
<trkpt lat="48.3758350" lon="-1.8821140"><ele></ele><time>2017-12-15T18:10:33Z</time></trkpt>
<trkpt lat="48.3758000" lon="-1.8821180"><ele></ele><time>2017-12-15T18:10:36Z</time></trkpt>
<trkpt lat="48.3757670" lon="-1.8821320"><ele></ele><time>2017-12-15T18:10:39Z</time></trkpt>
<trkpt lat="48.3757310" lon="-1.8821430"><ele></ele><time>2017-12-15T18:10:42Z</time></trkpt>
<trkpt lat="48.3756990" lon="-1.8821630"><ele></ele><time>2017-12-15T18:10:45Z</time></trkpt>
<trkpt lat="48.3756540" lon="-1.8821660"><ele></ele><time>2017-12-15T18:10:48Z</time></trkpt>
<trkpt lat="48.3756120" lon="-1.8821690"><ele></ele><time>2017-12-15T18:10:51Z</time></trkpt>
<trkpt lat="48.3755740" lon="-1.8821780"><ele></ele><time>2017-12-15T18:10:54Z</time></trkpt>
<trkpt lat="48.3755300" lon="-1.8821800"><ele></ele><time>2017-12-15T18:10:57Z</time></trkpt>
<trkpt lat="48.3754840" lon="-1.8821880"><ele></ele><time>2017-12-15T18:11:0Z</time></trkpt>
<trkpt lat="48.3754410" lon="-1.8821960"><ele></ele><time>2017-12-15T18:11:3Z</time></trkpt>
<trkpt lat="48.3753990" lon="-1.8822050"><ele></ele><time>2017-12-15T18:11:6Z</time></trkpt>
<trkpt lat="48.3753570" lon="-1.8822130"><ele></ele><time>2017-12-15T18:11:9Z</time></trkpt>
<trkpt lat="48.3753150" lon="-1.8822290"><ele></ele><time>2017-12-15T18:11:12Z</time></trkpt>
<trkpt lat="48.3752700" lon="-1.8822480"><ele></ele><time>2017-12-15T18:11:15Z</time></trkpt>
<trkpt lat="48.3752300" lon="-1.8822710"><ele></ele><time>2017-12-15T18:11:18Z</time></trkpt>
<trkpt lat="48.3751930" lon="-1.8822950"><ele></ele><time>2017-12-15T18:11:21Z</time></trkpt>
<trkpt lat="48.3751580" lon="-1.8823240"><ele></ele><time>2017-12-15T18:11:24Z</time></trkpt>
<trkpt lat="48.3751210" lon="-1.8823530"><ele></ele><time>2017-12-15T18:11:27Z</time></trkpt>
<trkpt lat="48.3750840" lon="-1.8823890"><ele></ele><time>2017-12-15T18:11:30Z</time></trkpt>
<trkpt lat="48.3750470" lon="-1.8824230"><ele></ele><time>2017-12-15T18:11:33Z</time></trkpt>
<trkpt lat="48.3750120" lon="-1.8824560"><ele></ele><time>2017-12-15T18:11:36Z</time></trkpt>
<trkpt lat="48.3749790" lon="-1.8824890"><ele></ele><time>2017-12-15T18:11:39Z</time></trkpt>
<trkpt lat="48.3749510" lon="-1.8825270"><ele></ele><time>2017-12-15T18:11:42Z</time></trkpt>
<trkpt lat="48.3749140" lon="-1.8825630"><ele></ele><time>2017-12-15T18:11:45Z</time></trkpt>
<trkpt lat="48.3748780" lon="-1.8826000"><ele></ele><time>2017-12-15T18:11:48Z</time></trkpt>
<trkpt lat="48.3748420" lon="-1.8826410"><ele></ele><time>2017-12-15T18:11:51Z</time></trkpt>
<trkpt lat="48.3748100" lon="-1.8826760"><ele></ele><time>2017-12-15T18:11:54Z</time></trkpt>
<trkpt lat="48.3747810" lon="-1.8827140"><ele></ele><time>2017-12-15T18:11:57Z</time></trkpt>
<trkpt lat="48.3747530" lon="-1.8827500"><ele></ele><time>2017-12-15T18:12:0Z</time></trkpt>
<trkpt lat="48.3747240" lon="-1.8827710"><ele></ele><time>2017-12-15T18:12:3Z</time></trkpt>
<trkpt lat="48.3746930" lon="-1.8827810"><ele></ele><time>2017-12-15T18:12:6Z</time></trkpt>
<trkpt lat="48.3746640" lon="-1.8827680"><ele></ele><time>2017-12-15T18:12:9Z</time></trkpt>
<trkpt lat="48.3746420" lon="-1.8827400"><ele></ele><time>2017-12-15T18:12:12Z</time></trkpt>
<trkpt lat="48.3746260" lon="-1.8827020"><ele></ele><time>2017-12-15T18:12:15Z</time></trkpt>
<trkpt lat="48.3746150" lon="-1.8826620"><ele></ele><time>2017-12-15T18:12:18Z</time></trkpt>
<trkpt lat="48.3746040" lon="-1.8826130"><ele></ele><time>2017-12-15T18:12:21Z</time></trkpt>
<trkpt lat="48.3745930" lon="-1.8825450"><ele></ele><time>2017-12-15T18:12:24Z</time></trkpt>
<trkpt lat="48.3745780" lon="-1.8824860"><ele></ele><time>2017-12-15T18:12:27Z</time></trkpt>
<trkpt lat="48.3745660" lon="-1.8824210"><ele></ele><time>2017-12-15T18:12:30Z</time></trkpt>
<trkpt lat="48.3745710" lon="-1.8823530"><ele></ele><time>2017-12-15T18:12:33Z</time></trkpt>
<trkpt lat="48.3745900" lon="-1.8822810"><ele></ele><time>2017-12-15T18:12:36Z</time></trkpt>
<trkpt lat="48.3745800" lon="-1.8822190"><ele></ele><time>2017-12-15T18:12:39Z</time></trkpt>
<trkpt lat="48.3745840" lon="-1.8821490"><ele></ele><time>2017-12-15T18:12:42Z</time></trkpt>
<trkpt lat="48.3745880" lon="-1.8820820"><ele></ele><time>2017-12-15T18:12:45Z</time></trkpt>
<trkpt lat="48.3745910" lon="-1.8820200"><ele></ele><time>2017-12-15T18:12:48Z</time></trkpt>
<trkpt lat="48.3745880" lon="-1.8819540"><ele></ele><time>2017-12-15T18:12:51Z</time></trkpt>
<trkpt lat="48.3745780" lon="-1.8818850"><ele></ele><time>2017-12-15T18:12:54Z</time></trkpt>
<trkpt lat="48.3745760" lon="-1.8818210"><ele></ele><time>2017-12-15T18:12:57Z</time></trkpt>
<trkpt lat="48.3745770" lon="-1.8817700"><ele></ele><time>2017-12-15T18:13:0Z</time></trkpt>
<trkpt lat="48.3745700" lon="-1.8817040"><ele></ele><time>2017-12-15T18:13:3Z</time></trkpt>
<trkpt lat="48.3745600" lon="-1.8816350"><ele></ele><time>2017-12-15T18:13:6Z</time></trkpt>
<trkpt lat="48.3745450" lon="-1.8815640"><ele></ele><time>2017-12-15T18:13:9Z</time></trkpt>
<trkpt lat="48.3745230" lon="-1.8814980"><ele></ele><time>2017-12-15T18:13:12Z</time></trkpt>
<trkpt lat="48.3744990" lon="-1.8814360"><ele></ele><time>2017-12-15T18:13:15Z</time></trkpt>
<trkpt lat="48.3744800" lon="-1.8813720"><ele></ele><time>2017-12-15T18:13:18Z</time></trkpt>
<trkpt lat="48.3744550" lon="-1.8813120"><ele></ele><time>2017-12-15T18:13:21Z</time></trkpt>
<trkpt lat="48.3744270" lon="-1.8812530"><ele></ele><time>2017-12-15T18:13:24Z</time></trkpt>
<trkpt lat="48.3744110" lon="-1.8811910"><ele></ele><time>2017-12-15T18:13:27Z</time></trkpt>
<trkpt lat="48.3743800" lon="-1.8811460"><ele></ele><time>2017-12-15T18:13:30Z</time></trkpt>
<trkpt lat="48.3743550" lon="-1.8810850"><ele></ele><time>2017-12-15T18:13:33Z</time></trkpt>
<trkpt lat="48.3743150" lon="-1.8810560"><ele></ele><time>2017-12-15T18:13:36Z</time></trkpt>
<trkpt lat="48.3742730" lon="-1.8810280"><ele></ele><time>2017-12-15T18:13:39Z</time></trkpt>
<trkpt lat="48.3742370" lon="-1.8810020"><ele></ele><time>2017-12-15T18:13:42Z</time></trkpt>
<trkpt lat="48.3741940" lon="-1.8809780"><ele></ele><time>2017-12-15T18:13:45Z</time></trkpt>
<trkpt lat="48.3741570" lon="-1.8809520"><ele></ele><time>2017-12-15T18:13:48Z</time></trkpt>
<trkpt lat="48.3741120" lon="-1.8809280"><ele></ele><time>2017-12-15T18:13:51Z</time></trkpt>
<trkpt lat="48.3740710" lon="-1.8809000"><ele></ele><time>2017-12-15T18:13:54Z</time></trkpt>
<trkpt lat="48.3740280" lon="-1.8808890"><ele></ele><time>2017-12-15T18:13:57Z</time></trkpt>
<trkpt lat="48.3739880" lon="-1.8808770"><ele></ele><time>2017-12-15T18:14:0Z</time></trkpt>
<trkpt lat="48.3739460" lon="-1.8808660"><ele></ele><time>2017-12-15T18:14:3Z</time></trkpt>
<trkpt lat="48.3739060" lon="-1.8808550"><ele></ele><time>2017-12-15T18:14:6Z</time></trkpt>
<trkpt lat="48.3738580" lon="-1.8808420"><ele></ele><time>2017-12-15T18:14:9Z</time></trkpt>
<trkpt lat="48.3738170" lon="-1.8808270"><ele></ele><time>2017-12-15T18:14:12Z</time></trkpt>
<trkpt lat="48.3737740" lon="-1.8808040"><ele></ele><time>2017-12-15T18:14:15Z</time></trkpt>
<trkpt lat="48.3737260" lon="-1.8807840"><ele></ele><time>2017-12-15T18:14:18Z</time></trkpt>
<trkpt lat="48.3736790" lon="-1.8807700"><ele></ele><time>2017-12-15T18:14:21Z</time></trkpt>
<trkpt lat="48.3736310" lon="-1.8807590"><ele></ele><time>2017-12-15T18:14:24Z</time></trkpt>
<trkpt lat="48.3735820" lon="-1.8807500"><ele></ele><time>2017-12-15T18:14:27Z</time></trkpt>
<trkpt lat="48.3735330" lon="-1.8807390"><ele></ele><time>2017-12-15T18:14:30Z</time></trkpt>
<trkpt lat="48.3734920" lon="-1.8807360"><ele></ele><time>2017-12-15T18:14:33Z</time></trkpt>
<trkpt lat="48.3734480" lon="-1.8807310"><ele></ele><time>2017-12-15T18:14:36Z</time></trkpt>
<trkpt lat="48.3734020" lon="-1.8807310"><ele></ele><time>2017-12-15T18:14:39Z</time></trkpt>
<trkpt lat="48.3733640" lon="-1.8807470"><ele></ele><time>2017-12-15T18:14:42Z</time></trkpt>
<trkpt lat="48.3733170" lon="-1.8807650"><ele></ele><time>2017-12-15T18:14:45Z</time></trkpt>
<trkpt lat="48.3732700" lon="-1.8807860"><ele></ele><time>2017-12-15T18:14:48Z</time></trkpt>
<trkpt lat="48.3732280" lon="-1.8808060"><ele></ele><time>2017-12-15T18:14:51Z</time></trkpt>
<trkpt lat="48.3731850" lon="-1.8808250"><ele></ele><time>2017-12-15T18:14:54Z</time></trkpt>
<trkpt lat="48.3731380" lon="-1.8808410"><ele></ele><time>2017-12-15T18:14:57Z</time></trkpt>
<trkpt lat="48.3730930" lon="-1.8808510"><ele></ele><time>2017-12-15T18:15:0Z</time></trkpt>
<trkpt lat="48.3730550" lon="-1.8808700"><ele></ele><time>2017-12-15T18:15:3Z</time></trkpt>
<trkpt lat="48.3730120" lon="-1.8808850"><ele></ele><time>2017-12-15T18:15:6Z</time></trkpt>
<trkpt lat="48.3729720" lon="-1.8808980"><ele></ele><time>2017-12-15T18:15:9Z</time></trkpt>
<trkpt lat="48.3729320" lon="-1.8809050"><ele></ele><time>2017-12-15T18:15:12Z</time></trkpt>
<trkpt lat="48.3728870" lon="-1.8809090"><ele></ele><time>2017-12-15T18:15:15Z</time></trkpt>
<trkpt lat="48.3728420" lon="-1.8809120"><ele></ele><time>2017-12-15T18:15:18Z</time></trkpt>
<trkpt lat="48.3728040" lon="-1.8809160"><ele></ele><time>2017-12-15T18:15:21Z</time></trkpt>
<trkpt lat="48.3727660" lon="-1.8809270"><ele></ele><time>2017-12-15T18:15:24Z</time></trkpt>
<trkpt lat="48.3727310" lon="-1.8809410"><ele></ele><time>2017-12-15T18:15:27Z</time></trkpt>
<trkpt lat="48.3726880" lon="-1.8809450"><ele></ele><time>2017-12-15T18:15:30Z</time></trkpt>
<trkpt lat="48.3726490" lon="-1.8809560"><ele></ele><time>2017-12-15T18:15:33Z</time></trkpt>
<trkpt lat="48.3726070" lon="-1.8809680"><ele></ele><time>2017-12-15T18:15:36Z</time></trkpt>
<trkpt lat="48.3725640" lon="-1.8809820"><ele></ele><time>2017-12-15T18:15:39Z</time></trkpt>
<trkpt lat="48.3725210" lon="-1.8809940"><ele></ele><time>2017-12-15T18:15:42Z</time></trkpt>
<trkpt lat="48.3724800" lon="-1.8810060"><ele></ele><time>2017-12-15T18:15:45Z</time></trkpt>
<trkpt lat="48.3724410" lon="-1.8810220"><ele></ele><time>2017-12-15T18:15:48Z</time></trkpt>
<trkpt lat="48.3724050" lon="-1.8810360"><ele></ele><time>2017-12-15T18:15:51Z</time></trkpt>
<trkpt lat="48.3723680" lon="-1.8810370"><ele></ele><time>2017-12-15T18:15:54Z</time></trkpt>
<trkpt lat="48.3723370" lon="-1.8810150"><ele></ele><time>2017-12-15T18:15:57Z</time></trkpt>
<trkpt lat="48.3723210" lon="-1.8809660"><ele></ele><time>2017-12-15T18:16:0Z</time></trkpt>
<trkpt lat="48.3723090" lon="-1.8809120"><ele></ele><time>2017-12-15T18:16:3Z</time></trkpt>
<trkpt lat="48.3722960" lon="-1.8808560"><ele></ele><time>2017-12-15T18:16:6Z</time></trkpt>
<trkpt lat="48.3722850" lon="-1.8807990"><ele></ele><time>2017-12-15T18:16:9Z</time></trkpt>
<trkpt lat="48.3722740" lon="-1.8807430"><ele></ele><time>2017-12-15T18:16:12Z</time></trkpt>
<trkpt lat="48.3722630" lon="-1.8806920"><ele></ele><time>2017-12-15T18:16:15Z</time></trkpt>
<trkpt lat="48.3722570" lon="-1.8806420"><ele></ele><time>2017-12-15T18:16:18Z</time></trkpt>
<trkpt lat="48.3722470" lon="-1.8805960"><ele></ele><time>2017-12-15T18:16:21Z</time></trkpt>
<trkpt lat="48.3722360" lon="-1.8805480"><ele></ele><time>2017-12-15T18:16:24Z</time></trkpt>
<trkpt lat="48.3722220" lon="-1.8805040"><ele></ele><time>2017-12-15T18:16:27Z</time></trkpt>
<trkpt lat="48.3722090" lon="-1.8804550"><ele></ele><time>2017-12-15T18:16:30Z</time></trkpt>
<trkpt lat="48.3721980" lon="-1.8804030"><ele></ele><time>2017-12-15T18:16:33Z</time></trkpt>
<trkpt lat="48.3721870" lon="-1.8803560"><ele></ele><time>2017-12-15T18:16:36Z</time></trkpt>
<trkpt lat="48.3721780" lon="-1.8803110"><ele></ele><time>2017-12-15T18:16:39Z</time></trkpt>
<trkpt lat="48.3721690" lon="-1.8802720"><ele></ele><time>2017-12-15T18:16:42Z</time></trkpt>
<trkpt lat="48.3721600" lon="-1.8802340"><ele></ele><time>2017-12-15T18:16:45Z</time></trkpt>
<trkpt lat="48.3721400" lon="-1.8801580"><ele></ele><time>2017-12-15T18:16:48Z</time></trkpt>
<trkpt lat="48.3721330" lon="-1.8801180"><ele></ele><time>2017-12-15T18:16:51Z</time></trkpt>
<trkpt lat="48.3721170" lon="-1.8800390"><ele></ele><time>2017-12-15T18:16:54Z</time></trkpt>
<trkpt lat="48.3721070" lon="-1.8799970"><ele></ele><time>2017-12-15T18:16:57Z</time></trkpt>
<trkpt lat="48.3720970" lon="-1.8799570"><ele></ele><time>2017-12-15T18:17:0Z</time></trkpt>
<trkpt lat="48.3720750" lon="-1.8798810"><ele></ele><time>2017-12-15T18:17:3Z</time></trkpt>
<trkpt lat="48.3720630" lon="-1.8798400"><ele></ele><time>2017-12-15T18:17:6Z</time></trkpt>
<trkpt lat="48.3720540" lon="-1.8797950"><ele></ele><time>2017-12-15T18:17:9Z</time></trkpt>
<trkpt lat="48.3720430" lon="-1.8797520"><ele></ele><time>2017-12-15T18:17:12Z</time></trkpt>
<trkpt lat="48.3720310" lon="-1.8797100"><ele></ele><time>2017-12-15T18:17:15Z</time></trkpt>
<trkpt lat="48.3720200" lon="-1.8796640"><ele></ele><time>2017-12-15T18:17:18Z</time></trkpt>
<trkpt lat="48.3720090" lon="-1.8796170"><ele></ele><time>2017-12-15T18:17:21Z</time></trkpt>
<trkpt lat="48.3719930" lon="-1.8795750"><ele></ele><time>2017-12-15T18:17:24Z</time></trkpt>
<trkpt lat="48.3719810" lon="-1.8795310"><ele></ele><time>2017-12-15T18:17:27Z</time></trkpt>
<trkpt lat="48.3719730" lon="-1.8794830"><ele></ele><time>2017-12-15T18:17:30Z</time></trkpt>
<trkpt lat="48.3719580" lon="-1.8794390"><ele></ele><time>2017-12-15T18:17:33Z</time></trkpt>
<trkpt lat="48.3719500" lon="-1.8793900"><ele></ele><time>2017-12-15T18:17:36Z</time></trkpt>
<trkpt lat="48.3719410" lon="-1.8793460"><ele></ele><time>2017-12-15T18:17:39Z</time></trkpt>
<trkpt lat="48.3719320" lon="-1.8792980"><ele></ele><time>2017-12-15T18:17:42Z</time></trkpt>
<trkpt lat="48.3719220" lon="-1.8792450"><ele></ele><time>2017-12-15T18:17:45Z</time></trkpt>
<trkpt lat="48.3719120" lon="-1.8791940"><ele></ele><time>2017-12-15T18:17:48Z</time></trkpt>
<trkpt lat="48.3718970" lon="-1.8791420"><ele></ele><time>2017-12-15T18:17:51Z</time></trkpt>
<trkpt lat="48.3718840" lon="-1.8790880"><ele></ele><time>2017-12-15T18:17:54Z</time></trkpt>
<trkpt lat="48.3718710" lon="-1.8790390"><ele></ele><time>2017-12-15T18:17:57Z</time></trkpt>
<trkpt lat="48.3718590" lon="-1.8789870"><ele></ele><time>2017-12-15T18:18:0Z</time></trkpt>
<trkpt lat="48.3718460" lon="-1.8789350"><ele></ele><time>2017-12-15T18:18:3Z</time></trkpt>
<trkpt lat="48.3718340" lon="-1.8788830"><ele></ele><time>2017-12-15T18:18:6Z</time></trkpt>
<trkpt lat="48.3718220" lon="-1.8788300"><ele></ele><time>2017-12-15T18:18:9Z</time></trkpt>
<trkpt lat="48.3718110" lon="-1.8787760"><ele></ele><time>2017-12-15T18:18:12Z</time></trkpt>
<trkpt lat="48.3717950" lon="-1.8787240"><ele></ele><time>2017-12-15T18:18:15Z</time></trkpt>
<trkpt lat="48.3717840" lon="-1.8786730"><ele></ele><time>2017-12-15T18:18:18Z</time></trkpt>
<trkpt lat="48.3717780" lon="-1.8786100"><ele></ele><time>2017-12-15T18:18:21Z</time></trkpt>
<trkpt lat="48.3717650" lon="-1.8785700"><ele></ele><time>2017-12-15T18:18:24Z</time></trkpt>
<trkpt lat="48.3717550" lon="-1.8785250"><ele></ele><time>2017-12-15T18:18:27Z</time></trkpt>
<trkpt lat="48.3717610" lon="-1.8784770"><ele></ele><time>2017-12-15T18:18:30Z</time></trkpt>
<trkpt lat="48.3717680" lon="-1.8784250"><ele></ele><time>2017-12-15T18:18:33Z</time></trkpt>
<trkpt lat="48.3717820" lon="-1.8783710"><ele></ele><time>2017-12-15T18:18:36Z</time></trkpt>
<trkpt lat="48.3718010" lon="-1.8783220"><ele></ele><time>2017-12-15T18:18:39Z</time></trkpt>
<trkpt lat="48.3718190" lon="-1.8782750"><ele></ele><time>2017-12-15T18:18:42Z</time></trkpt>
<trkpt lat="48.3718330" lon="-1.8782260"><ele></ele><time>2017-12-15T18:18:45Z</time></trkpt>
<trkpt lat="48.3718470" lon="-1.8781790"><ele></ele><time>2017-12-15T18:18:48Z</time></trkpt>
<trkpt lat="48.3718630" lon="-1.8781310"><ele></ele><time>2017-12-15T18:18:51Z</time></trkpt>
<trkpt lat="48.3718800" lon="-1.8780840"><ele></ele><time>2017-12-15T18:18:54Z</time></trkpt>
<trkpt lat="48.3718960" lon="-1.8780360"><ele></ele><time>2017-12-15T18:18:57Z</time></trkpt>
<trkpt lat="48.3719120" lon="-1.8779860"><ele></ele><time>2017-12-15T18:19:0Z</time></trkpt>
<trkpt lat="48.3719280" lon="-1.8779380"><ele></ele><time>2017-12-15T18:19:3Z</time></trkpt>
<trkpt lat="48.3719440" lon="-1.8778930"><ele></ele><time>2017-12-15T18:19:6Z</time></trkpt>
<trkpt lat="48.3719600" lon="-1.8778440"><ele></ele><time>2017-12-15T18:19:9Z</time></trkpt>
<trkpt lat="48.3719770" lon="-1.8777930"><ele></ele><time>2017-12-15T18:19:12Z</time></trkpt>
<trkpt lat="48.3719960" lon="-1.8777410"><ele></ele><time>2017-12-15T18:19:15Z</time></trkpt>
<trkpt lat="48.3720130" lon="-1.8776900"><ele></ele><time>2017-12-15T18:19:18Z</time></trkpt>
<trkpt lat="48.3720290" lon="-1.8776370"><ele></ele><time>2017-12-15T18:19:21Z</time></trkpt>
<trkpt lat="48.3720470" lon="-1.8775860"><ele></ele><time>2017-12-15T18:19:24Z</time></trkpt>
<trkpt lat="48.3720620" lon="-1.8775390"><ele></ele><time>2017-12-15T18:19:27Z</time></trkpt>
<trkpt lat="48.3720740" lon="-1.8774940"><ele></ele><time>2017-12-15T18:19:30Z</time></trkpt>
<trkpt lat="48.3720760" lon="-1.8774490"><ele></ele><time>2017-12-15T18:19:33Z</time></trkpt>
<trkpt lat="48.3720740" lon="-1.8774010"><ele></ele><time>2017-12-15T18:19:36Z</time></trkpt>
<trkpt lat="48.3720750" lon="-1.8773430"><ele></ele><time>2017-12-15T18:19:39Z</time></trkpt>
<trkpt lat="48.3720840" lon="-1.8772790"><ele></ele><time>2017-12-15T18:19:42Z</time></trkpt>
<trkpt lat="48.3720990" lon="-1.8772160"><ele></ele><time>2017-12-15T18:19:45Z</time></trkpt>
<trkpt lat="48.3721160" lon="-1.8771580"><ele></ele><time>2017-12-15T18:19:48Z</time></trkpt>
<trkpt lat="48.3721350" lon="-1.8771000"><ele></ele><time>2017-12-15T18:19:51Z</time></trkpt>
<trkpt lat="48.3721540" lon="-1.8770460"><ele></ele><time>2017-12-15T18:19:54Z</time></trkpt>
<trkpt lat="48.3721740" lon="-1.8769940"><ele></ele><time>2017-12-15T18:19:57Z</time></trkpt>
<trkpt lat="48.3721920" lon="-1.8769400"><ele></ele><time>2017-12-15T18:20:0Z</time></trkpt>
<trkpt lat="48.3722120" lon="-1.8768890"><ele></ele><time>2017-12-15T18:20:3Z</time></trkpt>
<trkpt lat="48.3722340" lon="-1.8768360"><ele></ele><time>2017-12-15T18:20:6Z</time></trkpt>
<trkpt lat="48.3722530" lon="-1.8767850"><ele></ele><time>2017-12-15T18:20:9Z</time></trkpt>
<trkpt lat="48.3722690" lon="-1.8767310"><ele></ele><time>2017-12-15T18:20:12Z</time></trkpt>
<trkpt lat="48.3722850" lon="-1.8766740"><ele></ele><time>2017-12-15T18:20:15Z</time></trkpt>
<trkpt lat="48.3723010" lon="-1.8766190"><ele></ele><time>2017-12-15T18:20:18Z</time></trkpt>
<trkpt lat="48.3723190" lon="-1.8765660"><ele></ele><time>2017-12-15T18:20:21Z</time></trkpt>
<trkpt lat="48.3723340" lon="-1.8765110"><ele></ele><time>2017-12-15T18:20:24Z</time></trkpt>
<trkpt lat="48.3723500" lon="-1.8764600"><ele></ele><time>2017-12-15T18:20:27Z</time></trkpt>
<trkpt lat="48.3723630" lon="-1.8764120"><ele></ele><time>2017-12-15T18:20:30Z</time></trkpt>
<trkpt lat="48.3723720" lon="-1.8763620"><ele></ele><time>2017-12-15T18:20:33Z</time></trkpt>
<trkpt lat="48.3723820" lon="-1.8763200"><ele></ele><time>2017-12-15T18:20:36Z</time></trkpt>
<trkpt lat="48.3724010" lon="-1.8762470"><ele></ele><time>2017-12-15T18:20:39Z</time></trkpt>
<trkpt lat="48.3724050" lon="-1.8761790"><ele></ele><time>2017-12-15T18:20:42Z</time></trkpt>
<trkpt lat="48.3723710" lon="-1.8761530"><ele></ele><time>2017-12-15T18:20:45Z</time></trkpt>
<trkpt lat="48.3723470" lon="-1.8761210"><ele></ele><time>2017-12-15T18:20:48Z</time></trkpt>
<trkpt lat="48.3722870" lon="-1.8760720"><ele></ele><time>2017-12-15T18:20:51Z</time></trkpt>
<trkpt lat="48.3722580" lon="-1.8760550"><ele></ele><time>2017-12-15T18:20:54Z</time></trkpt>
<trkpt lat="48.3722250" lon="-1.8760410"><ele></ele><time>2017-12-15T18:20:57Z</time></trkpt>
<trkpt lat="48.3721960" lon="-1.8760140"><ele></ele><time>2017-12-15T18:21:0Z</time></trkpt>
<trkpt lat="48.3721620" lon="-1.8759880"><ele></ele><time>2017-12-15T18:21:3Z</time></trkpt>
<trkpt lat="48.3721300" lon="-1.8759690"><ele></ele><time>2017-12-15T18:21:6Z</time></trkpt>
<trkpt lat="48.3720960" lon="-1.8759580"><ele></ele><time>2017-12-15T18:21:9Z</time></trkpt>
<trkpt lat="48.3720640" lon="-1.8759390"><ele></ele><time>2017-12-15T18:21:12Z</time></trkpt>
<trkpt lat="48.3720300" lon="-1.8759170"><ele></ele><time>2017-12-15T18:21:15Z</time></trkpt>
<trkpt lat="48.3719970" lon="-1.8758900"><ele></ele><time>2017-12-15T18:21:18Z</time></trkpt>
<trkpt lat="48.3719640" lon="-1.8758670"><ele></ele><time>2017-12-15T18:21:21Z</time></trkpt>
<trkpt lat="48.3719320" lon="-1.8758380"><ele></ele><time>2017-12-15T18:21:24Z</time></trkpt>
<trkpt lat="48.3718950" lon="-1.8758160"><ele></ele><time>2017-12-15T18:21:27Z</time></trkpt>
<trkpt lat="48.3718630" lon="-1.8757940"><ele></ele><time>2017-12-15T18:21:30Z</time></trkpt>
<trkpt lat="48.3718270" lon="-1.8757750"><ele></ele><time>2017-12-15T18:21:33Z</time></trkpt>
<trkpt lat="48.3717950" lon="-1.8757600"><ele></ele><time>2017-12-15T18:21:36Z</time></trkpt>
<trkpt lat="48.3717690" lon="-1.8757400"><ele></ele><time>2017-12-15T18:21:39Z</time></trkpt>
<trkpt lat="48.3717380" lon="-1.8757210"><ele></ele><time>2017-12-15T18:21:42Z</time></trkpt>
<trkpt lat="48.3717070" lon="-1.8756990"><ele></ele><time>2017-12-15T18:21:45Z</time></trkpt>
<trkpt lat="48.3716760" lon="-1.8756760"><ele></ele><time>2017-12-15T18:21:48Z</time></trkpt>
<trkpt lat="48.3716500" lon="-1.8756510"><ele></ele><time>2017-12-15T18:21:51Z</time></trkpt>
<trkpt lat="48.3716160" lon="-1.8756320"><ele></ele><time>2017-12-15T18:21:54Z</time></trkpt>
<trkpt lat="48.3715850" lon="-1.8756110"><ele></ele><time>2017-12-15T18:21:57Z</time></trkpt>
<trkpt lat="48.3715550" lon="-1.8755860"><ele></ele><time>2017-12-15T18:22:0Z</time></trkpt>
<trkpt lat="48.3715250" lon="-1.8755610"><ele></ele><time>2017-12-15T18:22:3Z</time></trkpt>
<trkpt lat="48.3714940" lon="-1.8755400"><ele></ele><time>2017-12-15T18:22:6Z</time></trkpt>
<trkpt lat="48.3714600" lon="-1.8755200"><ele></ele><time>2017-12-15T18:22:9Z</time></trkpt>
<trkpt lat="48.3714260" lon="-1.8755010"><ele></ele><time>2017-12-15T18:22:12Z</time></trkpt>
<trkpt lat="48.3713900" lon="-1.8754770"><ele></ele><time>2017-12-15T18:22:15Z</time></trkpt>
<trkpt lat="48.3713560" lon="-1.8754510"><ele></ele><time>2017-12-15T18:22:18Z</time></trkpt>
<trkpt lat="48.3713200" lon="-1.8754260"><ele></ele><time>2017-12-15T18:22:21Z</time></trkpt>
<trkpt lat="48.3712860" lon="-1.8754050"><ele></ele><time>2017-12-15T18:22:24Z</time></trkpt>
<trkpt lat="48.3712500" lon="-1.8753840"><ele></ele><time>2017-12-15T18:22:27Z</time></trkpt>
<trkpt lat="48.3712170" lon="-1.8753640"><ele></ele><time>2017-12-15T18:22:30Z</time></trkpt>
<trkpt lat="48.3711830" lon="-1.8753420"><ele></ele><time>2017-12-15T18:22:33Z</time></trkpt>
<trkpt lat="48.3711520" lon="-1.8753190"><ele></ele><time>2017-12-15T18:22:36Z</time></trkpt>
<trkpt lat="48.3711220" lon="-1.8752910"><ele></ele><time>2017-12-15T18:22:39Z</time></trkpt>
<trkpt lat="48.3710870" lon="-1.8752710"><ele></ele><time>2017-12-15T18:22:42Z</time></trkpt>
<trkpt lat="48.3710550" lon="-1.8752510"><ele></ele><time>2017-12-15T18:22:45Z</time></trkpt>
<trkpt lat="48.3710190" lon="-1.8752310"><ele></ele><time>2017-12-15T18:22:48Z</time></trkpt>
<trkpt lat="48.3709850" lon="-1.8752110"><ele></ele><time>2017-12-15T18:22:51Z</time></trkpt>
<trkpt lat="48.3709490" lon="-1.8751930"><ele></ele><time>2017-12-15T18:22:54Z</time></trkpt>
<trkpt lat="48.3709090" lon="-1.8751660"><ele></ele><time>2017-12-15T18:22:57Z</time></trkpt>
<trkpt lat="48.3708720" lon="-1.8751430"><ele></ele><time>2017-12-15T18:23:0Z</time></trkpt>
<trkpt lat="48.3708390" lon="-1.8751200"><ele></ele><time>2017-12-15T18:23:3Z</time></trkpt>
<trkpt lat="48.3708010" lon="-1.8751010"><ele></ele><time>2017-12-15T18:23:6Z</time></trkpt>
<trkpt lat="48.3707640" lon="-1.8750750"><ele></ele><time>2017-12-15T18:23:9Z</time></trkpt>
<trkpt lat="48.3707260" lon="-1.8750540"><ele></ele><time>2017-12-15T18:23:12Z</time></trkpt>
<trkpt lat="48.3706900" lon="-1.8750320"><ele></ele><time>2017-12-15T18:23:15Z</time></trkpt>
<trkpt lat="48.3706550" lon="-1.8750070"><ele></ele><time>2017-12-15T18:23:18Z</time></trkpt>
<trkpt lat="48.3706200" lon="-1.8749840"><ele></ele><time>2017-12-15T18:23:21Z</time></trkpt>
<trkpt lat="48.3705850" lon="-1.8749570"><ele></ele><time>2017-12-15T18:23:24Z</time></trkpt>
<trkpt lat="48.3705510" lon="-1.8749320"><ele></ele><time>2017-12-15T18:23:27Z</time></trkpt>
<trkpt lat="48.3705160" lon="-1.8749110"><ele></ele><time>2017-12-15T18:23:30Z</time></trkpt>
<trkpt lat="48.3704780" lon="-1.8748870"><ele></ele><time>2017-12-15T18:23:33Z</time></trkpt>
<trkpt lat="48.3704440" lon="-1.8748690"><ele></ele><time>2017-12-15T18:23:36Z</time></trkpt>
<trkpt lat="48.3704090" lon="-1.8748450"><ele></ele><time>2017-12-15T18:23:39Z</time></trkpt>
<trkpt lat="48.3703740" lon="-1.8748230"><ele></ele><time>2017-12-15T18:23:42Z</time></trkpt>
<trkpt lat="48.3703380" lon="-1.8748010"><ele></ele><time>2017-12-15T18:23:45Z</time></trkpt>
<trkpt lat="48.3703010" lon="-1.8747820"><ele></ele><time>2017-12-15T18:23:48Z</time></trkpt>
<trkpt lat="48.3702660" lon="-1.8747590"><ele></ele><time>2017-12-15T18:23:51Z</time></trkpt>
<trkpt lat="48.3702300" lon="-1.8747360"><ele></ele><time>2017-12-15T18:23:54Z</time></trkpt>
<trkpt lat="48.3701950" lon="-1.8747160"><ele></ele><time>2017-12-15T18:23:57Z</time></trkpt>
<trkpt lat="48.3701580" lon="-1.8746930"><ele></ele><time>2017-12-15T18:24:0Z</time></trkpt>
<trkpt lat="48.3701250" lon="-1.8746720"><ele></ele><time>2017-12-15T18:24:3Z</time></trkpt>
<trkpt lat="48.3700930" lon="-1.8746500"><ele></ele><time>2017-12-15T18:24:6Z</time></trkpt>
<trkpt lat="48.3700560" lon="-1.8746340"><ele></ele><time>2017-12-15T18:24:9Z</time></trkpt>
<trkpt lat="48.3700210" lon="-1.8746150"><ele></ele><time>2017-12-15T18:24:12Z</time></trkpt>
<trkpt lat="48.3699850" lon="-1.8745940"><ele></ele><time>2017-12-15T18:24:15Z</time></trkpt>
<trkpt lat="48.3699480" lon="-1.8745740"><ele></ele><time>2017-12-15T18:24:18Z</time></trkpt>
<trkpt lat="48.3699120" lon="-1.8745510"><ele></ele><time>2017-12-15T18:24:21Z</time></trkpt>
<trkpt lat="48.3698790" lon="-1.8745320"><ele></ele><time>2017-12-15T18:24:24Z</time></trkpt>
<trkpt lat="48.3698430" lon="-1.8745130"><ele></ele><time>2017-12-15T18:24:27Z</time></trkpt>
<trkpt lat="48.3698080" lon="-1.8744950"><ele></ele><time>2017-12-15T18:24:30Z</time></trkpt>
<trkpt lat="48.3697710" lon="-1.8744700"><ele></ele><time>2017-12-15T18:24:33Z</time></trkpt>
<trkpt lat="48.3697330" lon="-1.8744520"><ele></ele><time>2017-12-15T18:24:36Z</time></trkpt>
<trkpt lat="48.3696970" lon="-1.8744340"><ele></ele><time>2017-12-15T18:24:39Z</time></trkpt>
<trkpt lat="48.3696600" lon="-1.8744130"><ele></ele><time>2017-12-15T18:24:42Z</time></trkpt>
<trkpt lat="48.3696230" lon="-1.8743890"><ele></ele><time>2017-12-15T18:24:45Z</time></trkpt>
<trkpt lat="48.3695910" lon="-1.8743630"><ele></ele><time>2017-12-15T18:24:48Z</time></trkpt>
<trkpt lat="48.3695580" lon="-1.8743460"><ele></ele><time>2017-12-15T18:24:51Z</time></trkpt>
<trkpt lat="48.3695220" lon="-1.8743220"><ele></ele><time>2017-12-15T18:24:54Z</time></trkpt>
<trkpt lat="48.3694860" lon="-1.8743080"><ele></ele><time>2017-12-15T18:24:57Z</time></trkpt>
<trkpt lat="48.3694490" lon="-1.8742850"><ele></ele><time>2017-12-15T18:25:0Z</time></trkpt>
<trkpt lat="48.3694110" lon="-1.8742600"><ele></ele><time>2017-12-15T18:25:3Z</time></trkpt>
<trkpt lat="48.3693740" lon="-1.8742310"><ele></ele><time>2017-12-15T18:25:6Z</time></trkpt>
<trkpt lat="48.3693460" lon="-1.8742100"><ele></ele><time>2017-12-15T18:25:9Z</time></trkpt>
<trkpt lat="48.3693150" lon="-1.8741890"><ele></ele><time>2017-12-15T18:25:12Z</time></trkpt>
<trkpt lat="48.3692820" lon="-1.8741650"><ele></ele><time>2017-12-15T18:25:15Z</time></trkpt>
<trkpt lat="48.3692470" lon="-1.8741430"><ele></ele><time>2017-12-15T18:25:18Z</time></trkpt>
<trkpt lat="48.3692130" lon="-1.8741200"><ele></ele><time>2017-12-15T18:25:21Z</time></trkpt>
<trkpt lat="48.3691780" lon="-1.8740970"><ele></ele><time>2017-12-15T18:25:24Z</time></trkpt>
<trkpt lat="48.3691440" lon="-1.8740740"><ele></ele><time>2017-12-15T18:25:27Z</time></trkpt>
<trkpt lat="48.3691140" lon="-1.8740540"><ele></ele><time>2017-12-15T18:25:30Z</time></trkpt>
<trkpt lat="48.3690760" lon="-1.8740340"><ele></ele><time>2017-12-15T18:25:33Z</time></trkpt>
<trkpt lat="48.3690400" lon="-1.8740130"><ele></ele><time>2017-12-15T18:25:36Z</time></trkpt>
<trkpt lat="48.3690030" lon="-1.8739970"><ele></ele><time>2017-12-15T18:25:39Z</time></trkpt>
<trkpt lat="48.3689660" lon="-1.8739800"><ele></ele><time>2017-12-15T18:25:42Z</time></trkpt>
<trkpt lat="48.3689330" lon="-1.8739560"><ele></ele><time>2017-12-15T18:25:45Z</time></trkpt>
<trkpt lat="48.3689020" lon="-1.8739370"><ele></ele><time>2017-12-15T18:25:48Z</time></trkpt>
<trkpt lat="48.3688680" lon="-1.8739170"><ele></ele><time>2017-12-15T18:25:51Z</time></trkpt>
<trkpt lat="48.3688330" lon="-1.8738960"><ele></ele><time>2017-12-15T18:25:54Z</time></trkpt>
<trkpt lat="48.3687990" lon="-1.8738750"><ele></ele><time>2017-12-15T18:25:57Z</time></trkpt>
<trkpt lat="48.3687650" lon="-1.8738610"><ele></ele><time>2017-12-15T18:26:0Z</time></trkpt>
<trkpt lat="48.3687320" lon="-1.8738470"><ele></ele><time>2017-12-15T18:26:3Z</time></trkpt>
<trkpt lat="48.3686990" lon="-1.8738270"><ele></ele><time>2017-12-15T18:26:6Z</time></trkpt>
<trkpt lat="48.3686660" lon="-1.8738040"><ele></ele><time>2017-12-15T18:26:9Z</time></trkpt>
<trkpt lat="48.3686370" lon="-1.8737860"><ele></ele><time>2017-12-15T18:26:12Z</time></trkpt>
<trkpt lat="48.3686090" lon="-1.8737820"><ele></ele><time>2017-12-15T18:26:15Z</time></trkpt>
<trkpt lat="48.3685820" lon="-1.8737800"><ele></ele><time>2017-12-15T18:26:18Z</time></trkpt>
<trkpt lat="48.3685370" lon="-1.8738200"><ele></ele><time>2017-12-15T18:26:21Z</time></trkpt>
<trkpt lat="48.3685130" lon="-1.8738550"><ele></ele><time>2017-12-15T18:26:24Z</time></trkpt>
<trkpt lat="48.3684900" lon="-1.8738830"><ele></ele><time>2017-12-15T18:26:27Z</time></trkpt>
<trkpt lat="48.3684680" lon="-1.8739080"><ele></ele><time>2017-12-15T18:26:30Z</time></trkpt>
<trkpt lat="48.3684270" lon="-1.8739460"><ele></ele><time>2017-12-15T18:26:33Z</time></trkpt>
<trkpt lat="48.3684020" lon="-1.8740010"><ele></ele><time>2017-12-15T18:26:36Z</time></trkpt>
<trkpt lat="48.3684020" lon="-1.8740550"><ele></ele><time>2017-12-15T18:26:39Z</time></trkpt>
<trkpt lat="48.3683990" lon="-1.8741020"><ele></ele><time>2017-12-15T18:26:42Z</time></trkpt>
<trkpt lat="48.3683920" lon="-1.8741530"><ele></ele><time>2017-12-15T18:26:45Z</time></trkpt>
<trkpt lat="48.3683830" lon="-1.8742080"><ele></ele><time>2017-12-15T18:26:48Z</time></trkpt>
<trkpt lat="48.3683810" lon="-1.8742610"><ele></ele><time>2017-12-15T18:26:51Z</time></trkpt>
<trkpt lat="48.3683810" lon="-1.8743200"><ele></ele><time>2017-12-15T18:26:54Z</time></trkpt>
<trkpt lat="48.3683780" lon="-1.8743760"><ele></ele><time>2017-12-15T18:26:57Z</time></trkpt>
<trkpt lat="48.3683760" lon="-1.8744360"><ele></ele><time>2017-12-15T18:27:0Z</time></trkpt>
<trkpt lat="48.3683690" lon="-1.8744940"><ele></ele><time>2017-12-15T18:27:3Z</time></trkpt>
<trkpt lat="48.3683730" lon="-1.8745560"><ele></ele><time>2017-12-15T18:27:6Z</time></trkpt>
<trkpt lat="48.3683680" lon="-1.8746130"><ele></ele><time>2017-12-15T18:27:9Z</time></trkpt>
<trkpt lat="48.3683650" lon="-1.8746700"><ele></ele><time>2017-12-15T18:27:12Z</time></trkpt>
<trkpt lat="48.3683650" lon="-1.8747270"><ele></ele><time>2017-12-15T18:27:15Z</time></trkpt>
<trkpt lat="48.3683630" lon="-1.8747840"><ele></ele><time>2017-12-15T18:27:18Z</time></trkpt>
<trkpt lat="48.3683650" lon="-1.8748350"><ele></ele><time>2017-12-15T18:27:21Z</time></trkpt>
<trkpt lat="48.3683770" lon="-1.8748870"><ele></ele><time>2017-12-15T18:27:24Z</time></trkpt>
<trkpt lat="48.3683820" lon="-1.8749460"><ele></ele><time>2017-12-15T18:27:27Z</time></trkpt>
<trkpt lat="48.3683860" lon="-1.8749970"><ele></ele><time>2017-12-15T18:27:30Z</time></trkpt>
<trkpt lat="48.3683850" lon="-1.8750620"><ele></ele><time>2017-12-15T18:27:33Z</time></trkpt>
<trkpt lat="48.3683820" lon="-1.8751230"><ele></ele><time>2017-12-15T18:27:36Z</time></trkpt>
<trkpt lat="48.3683830" lon="-1.8751830"><ele></ele><time>2017-12-15T18:27:39Z</time></trkpt>
<trkpt lat="48.3683820" lon="-1.8752430"><ele></ele><time>2017-12-15T18:27:42Z</time></trkpt>
<trkpt lat="48.3683740" lon="-1.8753070"><ele></ele><time>2017-12-15T18:27:45Z</time></trkpt>
<trkpt lat="48.3683680" lon="-1.8753640"><ele></ele><time>2017-12-15T18:27:48Z</time></trkpt>
<trkpt lat="48.3683720" lon="-1.8754250"><ele></ele><time>2017-12-15T18:27:51Z</time></trkpt>
<trkpt lat="48.3683660" lon="-1.8754870"><ele></ele><time>2017-12-15T18:27:54Z</time></trkpt>
<trkpt lat="48.3683650" lon="-1.8755480"><ele></ele><time>2017-12-15T18:27:57Z</time></trkpt>
<trkpt lat="48.3683560" lon="-1.8756050"><ele></ele><time>2017-12-15T18:28:0Z</time></trkpt>
<trkpt lat="48.3683450" lon="-1.8756640"><ele></ele><time>2017-12-15T18:28:3Z</time></trkpt>
<trkpt lat="48.3683340" lon="-1.8757240"><ele></ele><time>2017-12-15T18:28:6Z</time></trkpt>
<trkpt lat="48.3683240" lon="-1.8757840"><ele></ele><time>2017-12-15T18:28:9Z</time></trkpt>
<trkpt lat="48.3683150" lon="-1.8758400"><ele></ele><time>2017-12-15T18:28:12Z</time></trkpt>
<trkpt lat="48.3683030" lon="-1.8758960"><ele></ele><time>2017-12-15T18:28:15Z</time></trkpt>
<trkpt lat="48.3682900" lon="-1.8759520"><ele></ele><time>2017-12-15T18:28:18Z</time></trkpt>
<trkpt lat="48.3682740" lon="-1.8760000"><ele></ele><time>2017-12-15T18:28:21Z</time></trkpt>
<trkpt lat="48.3682520" lon="-1.8760480"><ele></ele><time>2017-12-15T18:28:24Z</time></trkpt>
<trkpt lat="48.3682310" lon="-1.8760930"><ele></ele><time>2017-12-15T18:28:27Z</time></trkpt>
<trkpt lat="48.3682080" lon="-1.8761330"><ele></ele><time>2017-12-15T18:28:30Z</time></trkpt>
<trkpt lat="48.3681750" lon="-1.8761620"><ele></ele><time>2017-12-15T18:28:33Z</time></trkpt>
<trkpt lat="48.3681390" lon="-1.8761810"><ele></ele><time>2017-12-15T18:28:36Z</time></trkpt>
<trkpt lat="48.3680970" lon="-1.8761860"><ele></ele><time>2017-12-15T18:28:39Z</time></trkpt>
<trkpt lat="48.3680560" lon="-1.8761840"><ele></ele><time>2017-12-15T18:28:42Z</time></trkpt>
<trkpt lat="48.3680150" lon="-1.8761770"><ele></ele><time>2017-12-15T18:28:45Z</time></trkpt>
<trkpt lat="48.3679750" lon="-1.8761720"><ele></ele><time>2017-12-15T18:28:48Z</time></trkpt>
<trkpt lat="48.3679400" lon="-1.8761650"><ele></ele><time>2017-12-15T18:28:51Z</time></trkpt>
<trkpt lat="48.3678990" lon="-1.8761540"><ele></ele><time>2017-12-15T18:28:54Z</time></trkpt>
<trkpt lat="48.3678620" lon="-1.8761510"><ele></ele><time>2017-12-15T18:28:57Z</time></trkpt>
<trkpt lat="48.3678250" lon="-1.8761440"><ele></ele><time>2017-12-15T18:29:0Z</time></trkpt>
<trkpt lat="48.3677900" lon="-1.8761390"><ele></ele><time>2017-12-15T18:29:3Z</time></trkpt>
<trkpt lat="48.3677550" lon="-1.8761330"><ele></ele><time>2017-12-15T18:29:6Z</time></trkpt>
<trkpt lat="48.3677160" lon="-1.8761270"><ele></ele><time>2017-12-15T18:29:9Z</time></trkpt>
<trkpt lat="48.3676770" lon="-1.8761200"><ele></ele><time>2017-12-15T18:29:12Z</time></trkpt>
<trkpt lat="48.3676390" lon="-1.8761150"><ele></ele><time>2017-12-15T18:29:15Z</time></trkpt>
<trkpt lat="48.3675980" lon="-1.8761060"><ele></ele><time>2017-12-15T18:29:18Z</time></trkpt>
<trkpt lat="48.3675580" lon="-1.8760980"><ele></ele><time>2017-12-15T18:29:21Z</time></trkpt>
<trkpt lat="48.3675160" lon="-1.8760880"><ele></ele><time>2017-12-15T18:29:24Z</time></trkpt>
<trkpt lat="48.3674720" lon="-1.8760770"><ele></ele><time>2017-12-15T18:29:27Z</time></trkpt>
<trkpt lat="48.3674300" lon="-1.8760690"><ele></ele><time>2017-12-15T18:29:30Z</time></trkpt>
<trkpt lat="48.3673870" lon="-1.8760610"><ele></ele><time>2017-12-15T18:29:33Z</time></trkpt>
<trkpt lat="48.3673450" lon="-1.8760510"><ele></ele><time>2017-12-15T18:29:36Z</time></trkpt>
<trkpt lat="48.3673020" lon="-1.8760460"><ele></ele><time>2017-12-15T18:29:39Z</time></trkpt>
<trkpt lat="48.3672620" lon="-1.8760400"><ele></ele><time>2017-12-15T18:29:42Z</time></trkpt>
<trkpt lat="48.3672230" lon="-1.8760350"><ele></ele><time>2017-12-15T18:29:45Z</time></trkpt>
<trkpt lat="48.3671810" lon="-1.8760290"><ele></ele><time>2017-12-15T18:29:48Z</time></trkpt>
<trkpt lat="48.3671400" lon="-1.8760200"><ele></ele><time>2017-12-15T18:29:51Z</time></trkpt>
<trkpt lat="48.3670980" lon="-1.8760120"><ele></ele><time>2017-12-15T18:29:54Z</time></trkpt>
<trkpt lat="48.3670560" lon="-1.8760040"><ele></ele><time>2017-12-15T18:29:57Z</time></trkpt>
<trkpt lat="48.3670150" lon="-1.8759980"><ele></ele><time>2017-12-15T18:30:0Z</time></trkpt>
<trkpt lat="48.3669720" lon="-1.8759910"><ele></ele><time>2017-12-15T18:30:3Z</time></trkpt>
<trkpt lat="48.3669300" lon="-1.8759850"><ele></ele><time>2017-12-15T18:30:6Z</time></trkpt>
<trkpt lat="48.3668910" lon="-1.8759780"><ele></ele><time>2017-12-15T18:30:9Z</time></trkpt>
<trkpt lat="48.3668540" lon="-1.8759760"><ele></ele><time>2017-12-15T18:30:12Z</time></trkpt>
<trkpt lat="48.3668150" lon="-1.8759730"><ele></ele><time>2017-12-15T18:30:15Z</time></trkpt>
<trkpt lat="48.3667760" lon="-1.8759700"><ele></ele><time>2017-12-15T18:30:18Z</time></trkpt>
<trkpt lat="48.3667380" lon="-1.8759670"><ele></ele><time>2017-12-15T18:30:21Z</time></trkpt>
<trkpt lat="48.3667000" lon="-1.8759650"><ele></ele><time>2017-12-15T18:30:24Z</time></trkpt>
<trkpt lat="48.3666600" lon="-1.8759620"><ele></ele><time>2017-12-15T18:30:27Z</time></trkpt>
<trkpt lat="48.3666190" lon="-1.8759600"><ele></ele><time>2017-12-15T18:30:30Z</time></trkpt>
<trkpt lat="48.3665790" lon="-1.8759640"><ele></ele><time>2017-12-15T18:30:33Z</time></trkpt>
<trkpt lat="48.3665390" lon="-1.8759670"><ele></ele><time>2017-12-15T18:30:36Z</time></trkpt>
<trkpt lat="48.3665000" lon="-1.8759720"><ele></ele><time>2017-12-15T18:30:39Z</time></trkpt>
<trkpt lat="48.3664560" lon="-1.8759730"><ele></ele><time>2017-12-15T18:30:42Z</time></trkpt>
<trkpt lat="48.3664150" lon="-1.8759780"><ele></ele><time>2017-12-15T18:30:45Z</time></trkpt>
<trkpt lat="48.3663750" lon="-1.8759820"><ele></ele><time>2017-12-15T18:30:48Z</time></trkpt>
<trkpt lat="48.3663350" lon="-1.8759850"><ele></ele><time>2017-12-15T18:30:51Z</time></trkpt>
<trkpt lat="48.3662950" lon="-1.8759880"><ele></ele><time>2017-12-15T18:30:54Z</time></trkpt>
<trkpt lat="48.3662550" lon="-1.8759910"><ele></ele><time>2017-12-15T18:30:57Z</time></trkpt>
<trkpt lat="48.3662150" lon="-1.8759970"><ele></ele><time>2017-12-15T18:31:0Z</time></trkpt>
<trkpt lat="48.3661750" lon="-1.8759990"><ele></ele><time>2017-12-15T18:31:3Z</time></trkpt>
<trkpt lat="48.3661360" lon="-1.8760020"><ele></ele><time>2017-12-15T18:31:6Z</time></trkpt>
<trkpt lat="48.3660960" lon="-1.8760060"><ele></ele><time>2017-12-15T18:31:9Z</time></trkpt>
<trkpt lat="48.3660530" lon="-1.8760100"><ele></ele><time>2017-12-15T18:31:12Z</time></trkpt>
<trkpt lat="48.3660120" lon="-1.8760140"><ele></ele><time>2017-12-15T18:31:15Z</time></trkpt>
<trkpt lat="48.3659720" lon="-1.8760180"><ele></ele><time>2017-12-15T18:31:18Z</time></trkpt>
<trkpt lat="48.3659310" lon="-1.8760230"><ele></ele><time>2017-12-15T18:31:21Z</time></trkpt>
<trkpt lat="48.3658880" lon="-1.8760230"><ele></ele><time>2017-12-15T18:31:24Z</time></trkpt>
<trkpt lat="48.3658470" lon="-1.8760250"><ele></ele><time>2017-12-15T18:31:27Z</time></trkpt>
<trkpt lat="48.3658050" lon="-1.8760270"><ele></ele><time>2017-12-15T18:31:30Z</time></trkpt>
<trkpt lat="48.3657660" lon="-1.8760300"><ele></ele><time>2017-12-15T18:31:33Z</time></trkpt>
<trkpt lat="48.3657270" lon="-1.8760320"><ele></ele><time>2017-12-15T18:31:36Z</time></trkpt>
<trkpt lat="48.3656890" lon="-1.8760340"><ele></ele><time>2017-12-15T18:31:39Z</time></trkpt>
<trkpt lat="48.3656480" lon="-1.8760340"><ele></ele><time>2017-12-15T18:31:42Z</time></trkpt>
<trkpt lat="48.3656110" lon="-1.8760370"><ele></ele><time>2017-12-15T18:31:45Z</time></trkpt>
<trkpt lat="48.3655720" lon="-1.8760390"><ele></ele><time>2017-12-15T18:31:48Z</time></trkpt>
<trkpt lat="48.3655330" lon="-1.8760430"><ele></ele><time>2017-12-15T18:31:51Z</time></trkpt>
<trkpt lat="48.3654940" lon="-1.8760470"><ele></ele><time>2017-12-15T18:31:54Z</time></trkpt>
<trkpt lat="48.3654510" lon="-1.8760540"><ele></ele><time>2017-12-15T18:31:57Z</time></trkpt>
<trkpt lat="48.3654100" lon="-1.8760590"><ele></ele><time>2017-12-15T18:32:0Z</time></trkpt>
<trkpt lat="48.3653690" lon="-1.8760650"><ele></ele><time>2017-12-15T18:32:3Z</time></trkpt>
<trkpt lat="48.3653280" lon="-1.8760700"><ele></ele><time>2017-12-15T18:32:6Z</time></trkpt>
<trkpt lat="48.3652870" lon="-1.8760760"><ele></ele><time>2017-12-15T18:32:9Z</time></trkpt>
<trkpt lat="48.3652450" lon="-1.8760770"><ele></ele><time>2017-12-15T18:32:12Z</time></trkpt>
<trkpt lat="48.3652040" lon="-1.8760790"><ele></ele><time>2017-12-15T18:32:15Z</time></trkpt>
<trkpt lat="48.3651600" lon="-1.8760680"><ele></ele><time>2017-12-15T18:32:18Z</time></trkpt>
<trkpt lat="48.3651150" lon="-1.8760480"><ele></ele><time>2017-12-15T18:32:21Z</time></trkpt>
<trkpt lat="48.3650740" lon="-1.8760190"><ele></ele><time>2017-12-15T18:32:24Z</time></trkpt>
<trkpt lat="48.3650350" lon="-1.8759790"><ele></ele><time>2017-12-15T18:32:27Z</time></trkpt>
<trkpt lat="48.3649990" lon="-1.8759340"><ele></ele><time>2017-12-15T18:32:30Z</time></trkpt>
<trkpt lat="48.3649690" lon="-1.8758820"><ele></ele><time>2017-12-15T18:32:33Z</time></trkpt>
<trkpt lat="48.3649410" lon="-1.8758280"><ele></ele><time>2017-12-15T18:32:36Z</time></trkpt>
<trkpt lat="48.3649110" lon="-1.8757810"><ele></ele><time>2017-12-15T18:32:39Z</time></trkpt>
<trkpt lat="48.3648840" lon="-1.8757290"><ele></ele><time>2017-12-15T18:32:42Z</time></trkpt>
<trkpt lat="48.3648600" lon="-1.8756750"><ele></ele><time>2017-12-15T18:32:45Z</time></trkpt>
<trkpt lat="48.3648420" lon="-1.8756110"><ele></ele><time>2017-12-15T18:32:48Z</time></trkpt>
<trkpt lat="48.3648310" lon="-1.8755370"><ele></ele><time>2017-12-15T18:32:51Z</time></trkpt>
<trkpt lat="48.3648340" lon="-1.8754630"><ele></ele><time>2017-12-15T18:32:54Z</time></trkpt>
<trkpt lat="48.3648650" lon="-1.8753150"><ele></ele><time>2017-12-15T18:32:57Z</time></trkpt>
<trkpt lat="48.3648890" lon="-1.8752470"><ele></ele><time>2017-12-15T18:33:0Z</time></trkpt>
<trkpt lat="48.3649170" lon="-1.8751790"><ele></ele><time>2017-12-15T18:33:3Z</time></trkpt>
<trkpt lat="48.3649410" lon="-1.8751140"><ele></ele><time>2017-12-15T18:33:6Z</time></trkpt>
<trkpt lat="48.3649610" lon="-1.8750470"><ele></ele><time>2017-12-15T18:33:9Z</time></trkpt>
<trkpt lat="48.3649740" lon="-1.8749750"><ele></ele><time>2017-12-15T18:33:12Z</time></trkpt>
<trkpt lat="48.3649690" lon="-1.8749000"><ele></ele><time>2017-12-15T18:33:15Z</time></trkpt>
<trkpt lat="48.3649410" lon="-1.8748530"><ele></ele><time>2017-12-15T18:33:18Z</time></trkpt>
<trkpt lat="48.3649000" lon="-1.8748460"><ele></ele><time>2017-12-15T18:33:21Z</time></trkpt>
<trkpt lat="48.3648720" lon="-1.8748780"><ele></ele><time>2017-12-15T18:33:24Z</time></trkpt>
<trkpt lat="48.3648520" lon="-1.8749200"><ele></ele><time>2017-12-15T18:33:27Z</time></trkpt>
<trkpt lat="48.3648310" lon="-1.8749660"><ele></ele><time>2017-12-15T18:33:30Z</time></trkpt>
<trkpt lat="48.3648090" lon="-1.8750150"><ele></ele><time>2017-12-15T18:33:33Z</time></trkpt>
<trkpt lat="48.3647850" lon="-1.8750610"><ele></ele><time>2017-12-15T18:33:36Z</time></trkpt>
<trkpt lat="48.3647610" lon="-1.8751170"><ele></ele><time>2017-12-15T18:33:39Z</time></trkpt>
<trkpt lat="48.3647350" lon="-1.8751740"><ele></ele><time>2017-12-15T18:33:42Z</time></trkpt>
<trkpt lat="48.3647070" lon="-1.8752320"><ele></ele><time>2017-12-15T18:33:45Z</time></trkpt>
<trkpt lat="48.3646750" lon="-1.8752950"><ele></ele><time>2017-12-15T18:33:48Z</time></trkpt>
<trkpt lat="48.3646500" lon="-1.8753550"><ele></ele><time>2017-12-15T18:33:51Z</time></trkpt>
<trkpt lat="48.3646190" lon="-1.8754120"><ele></ele><time>2017-12-15T18:33:54Z</time></trkpt>
<trkpt lat="48.3645870" lon="-1.8754730"><ele></ele><time>2017-12-15T18:33:57Z</time></trkpt>
<trkpt lat="48.3645490" lon="-1.8755300"><ele></ele><time>2017-12-15T18:34:0Z</time></trkpt>
<trkpt lat="48.3645150" lon="-1.8755900"><ele></ele><time>2017-12-15T18:34:3Z</time></trkpt>
<trkpt lat="48.3644810" lon="-1.8756480"><ele></ele><time>2017-12-15T18:34:6Z</time></trkpt>
<trkpt lat="48.3644460" lon="-1.8757040"><ele></ele><time>2017-12-15T18:34:9Z</time></trkpt>
<trkpt lat="48.3644130" lon="-1.8757590"><ele></ele><time>2017-12-15T18:34:12Z</time></trkpt>
<trkpt lat="48.3643790" lon="-1.8758210"><ele></ele><time>2017-12-15T18:34:15Z</time></trkpt>
<trkpt lat="48.3643440" lon="-1.8758820"><ele></ele><time>2017-12-15T18:34:18Z</time></trkpt>
<trkpt lat="48.3643100" lon="-1.8759410"><ele></ele><time>2017-12-15T18:34:21Z</time></trkpt>
<trkpt lat="48.3642720" lon="-1.8759980"><ele></ele><time>2017-12-15T18:34:24Z</time></trkpt>
<trkpt lat="48.3642380" lon="-1.8760580"><ele></ele><time>2017-12-15T18:34:27Z</time></trkpt>
<trkpt lat="48.3642000" lon="-1.8761200"><ele></ele><time>2017-12-15T18:34:30Z</time></trkpt>
<trkpt lat="48.3641580" lon="-1.8761800"><ele></ele><time>2017-12-15T18:34:33Z</time></trkpt>
<trkpt lat="48.3641200" lon="-1.8762410"><ele></ele><time>2017-12-15T18:34:36Z</time></trkpt>
<trkpt lat="48.3640800" lon="-1.8763040"><ele></ele><time>2017-12-15T18:34:39Z</time></trkpt>
<trkpt lat="48.3640400" lon="-1.8763670"><ele></ele><time>2017-12-15T18:34:42Z</time></trkpt>
<trkpt lat="48.3639950" lon="-1.8764270"><ele></ele><time>2017-12-15T18:34:45Z</time></trkpt>
<trkpt lat="48.3639450" lon="-1.8764830"><ele></ele><time>2017-12-15T18:34:48Z</time></trkpt>
<trkpt lat="48.3638940" lon="-1.8765380"><ele></ele><time>2017-12-15T18:34:51Z</time></trkpt>
<trkpt lat="48.3638380" lon="-1.8765880"><ele></ele><time>2017-12-15T18:34:54Z</time></trkpt>
<trkpt lat="48.3637770" lon="-1.8766370"><ele></ele><time>2017-12-15T18:34:57Z</time></trkpt>
<trkpt lat="48.3637140" lon="-1.8766800"><ele></ele><time>2017-12-15T18:35:0Z</time></trkpt>
<trkpt lat="48.3636480" lon="-1.8767230"><ele></ele><time>2017-12-15T18:35:3Z</time></trkpt>
<trkpt lat="48.3635750" lon="-1.8767550"><ele></ele><time>2017-12-15T18:35:6Z</time></trkpt>
<trkpt lat="48.3634990" lon="-1.8767800"><ele></ele><time>2017-12-15T18:35:9Z</time></trkpt>
<trkpt lat="48.3634230" lon="-1.8768000"><ele></ele><time>2017-12-15T18:35:12Z</time></trkpt>
<trkpt lat="48.3633490" lon="-1.8768110"><ele></ele><time>2017-12-15T18:35:15Z</time></trkpt>
<trkpt lat="48.3632670" lon="-1.8768170"><ele></ele><time>2017-12-15T18:35:18Z</time></trkpt>
<trkpt lat="48.3631890" lon="-1.8768160"><ele></ele><time>2017-12-15T18:35:21Z</time></trkpt>
<trkpt lat="48.3631060" lon="-1.8767970"><ele></ele><time>2017-12-15T18:35:24Z</time></trkpt>
<trkpt lat="48.3630230" lon="-1.8767690"><ele></ele><time>2017-12-15T18:35:27Z</time></trkpt>
<trkpt lat="48.3629440" lon="-1.8767410"><ele></ele><time>2017-12-15T18:35:30Z</time></trkpt>
<trkpt lat="48.3628630" lon="-1.8767060"><ele></ele><time>2017-12-15T18:35:33Z</time></trkpt>
<trkpt lat="48.3627850" lon="-1.8766620"><ele></ele><time>2017-12-15T18:35:36Z</time></trkpt>
<trkpt lat="48.3627100" lon="-1.8766160"><ele></ele><time>2017-12-15T18:35:39Z</time></trkpt>
<trkpt lat="48.3626360" lon="-1.8765620"><ele></ele><time>2017-12-15T18:35:42Z</time></trkpt>
<trkpt lat="48.3625660" lon="-1.8765060"><ele></ele><time>2017-12-15T18:35:45Z</time></trkpt>
<trkpt lat="48.3624980" lon="-1.8764540"><ele></ele><time>2017-12-15T18:35:48Z</time></trkpt>
<trkpt lat="48.3624300" lon="-1.8764030"><ele></ele><time>2017-12-15T18:35:51Z</time></trkpt>
<trkpt lat="48.3623630" lon="-1.8763470"><ele></ele><time>2017-12-15T18:35:54Z</time></trkpt>
<trkpt lat="48.3622970" lon="-1.8762960"><ele></ele><time>2017-12-15T18:35:57Z</time></trkpt>
<trkpt lat="48.3622350" lon="-1.8762410"><ele></ele><time>2017-12-15T18:36:0Z</time></trkpt>
<trkpt lat="48.3621690" lon="-1.8761940"><ele></ele><time>2017-12-15T18:36:3Z</time></trkpt>
<trkpt lat="48.3621020" lon="-1.8761520"><ele></ele><time>2017-12-15T18:36:6Z</time></trkpt>
<trkpt lat="48.3620390" lon="-1.8761070"><ele></ele><time>2017-12-15T18:36:9Z</time></trkpt>
<trkpt lat="48.3619770" lon="-1.8760700"><ele></ele><time>2017-12-15T18:36:12Z</time></trkpt>
<trkpt lat="48.3619080" lon="-1.8760240"><ele></ele><time>2017-12-15T18:36:15Z</time></trkpt>
<trkpt lat="48.3618530" lon="-1.8759910"><ele></ele><time>2017-12-15T18:36:18Z</time></trkpt>
<trkpt lat="48.3617870" lon="-1.8759600"><ele></ele><time>2017-12-15T18:36:21Z</time></trkpt>
<trkpt lat="48.3617220" lon="-1.8759280"><ele></ele><time>2017-12-15T18:36:24Z</time></trkpt>
<trkpt lat="48.3616570" lon="-1.8758980"><ele></ele><time>2017-12-15T18:36:27Z</time></trkpt>
<trkpt lat="48.3615910" lon="-1.8758740"><ele></ele><time>2017-12-15T18:36:30Z</time></trkpt>
<trkpt lat="48.3615260" lon="-1.8758540"><ele></ele><time>2017-12-15T18:36:33Z</time></trkpt>
<trkpt lat="48.3614600" lon="-1.8758340"><ele></ele><time>2017-12-15T18:36:36Z</time></trkpt>
<trkpt lat="48.3613960" lon="-1.8758140"><ele></ele><time>2017-12-15T18:36:39Z</time></trkpt>
<trkpt lat="48.3613330" lon="-1.8758010"><ele></ele><time>2017-12-15T18:36:42Z</time></trkpt>
<trkpt lat="48.3612690" lon="-1.8757900"><ele></ele><time>2017-12-15T18:36:45Z</time></trkpt>
<trkpt lat="48.3612100" lon="-1.8757870"><ele></ele><time>2017-12-15T18:36:48Z</time></trkpt>
<trkpt lat="48.3611470" lon="-1.8757820"><ele></ele><time>2017-12-15T18:36:51Z</time></trkpt>
<trkpt lat="48.3610850" lon="-1.8757830"><ele></ele><time>2017-12-15T18:36:54Z</time></trkpt>
<trkpt lat="48.3610230" lon="-1.8757860"><ele></ele><time>2017-12-15T18:36:57Z</time></trkpt>
<trkpt lat="48.3609630" lon="-1.8757920"><ele></ele><time>2017-12-15T18:37:0Z</time></trkpt>
<trkpt lat="48.3609050" lon="-1.8758010"><ele></ele><time>2017-12-15T18:37:3Z</time></trkpt>
<trkpt lat="48.3608470" lon="-1.8758110"><ele></ele><time>2017-12-15T18:37:6Z</time></trkpt>
<trkpt lat="48.3607870" lon="-1.8758180"><ele></ele><time>2017-12-15T18:37:9Z</time></trkpt>
<trkpt lat="48.3607280" lon="-1.8758280"><ele></ele><time>2017-12-15T18:37:12Z</time></trkpt>
<trkpt lat="48.3606700" lon="-1.8758370"><ele></ele><time>2017-12-15T18:37:15Z</time></trkpt>
<trkpt lat="48.3606080" lon="-1.8758450"><ele></ele><time>2017-12-15T18:37:18Z</time></trkpt>
<trkpt lat="48.3605500" lon="-1.8758550"><ele></ele><time>2017-12-15T18:37:21Z</time></trkpt>
<trkpt lat="48.3604900" lon="-1.8758640"><ele></ele><time>2017-12-15T18:37:24Z</time></trkpt>
<trkpt lat="48.3604300" lon="-1.8758780"><ele></ele><time>2017-12-15T18:37:27Z</time></trkpt>
<trkpt lat="48.3603660" lon="-1.8758940"><ele></ele><time>2017-12-15T18:37:30Z</time></trkpt>
<trkpt lat="48.3603080" lon="-1.8759080"><ele></ele><time>2017-12-15T18:37:33Z</time></trkpt>
<trkpt lat="48.3602500" lon="-1.8759250"><ele></ele><time>2017-12-15T18:37:36Z</time></trkpt>
<trkpt lat="48.3601900" lon="-1.8759380"><ele></ele><time>2017-12-15T18:37:39Z</time></trkpt>
<trkpt lat="48.3601340" lon="-1.8759530"><ele></ele><time>2017-12-15T18:37:42Z</time></trkpt>
<trkpt lat="48.3600780" lon="-1.8759660"><ele></ele><time>2017-12-15T18:37:45Z</time></trkpt>
<trkpt lat="48.3600240" lon="-1.8759870"><ele></ele><time>2017-12-15T18:37:48Z</time></trkpt>
<trkpt lat="48.3599650" lon="-1.8760000"><ele></ele><time>2017-12-15T18:37:51Z</time></trkpt>
<trkpt lat="48.3599040" lon="-1.8760110"><ele></ele><time>2017-12-15T18:37:54Z</time></trkpt>
<trkpt lat="48.3598420" lon="-1.8760150"><ele></ele><time>2017-12-15T18:37:57Z</time></trkpt>
<trkpt lat="48.3597840" lon="-1.8760320"><ele></ele><time>2017-12-15T18:38:0Z</time></trkpt>
<trkpt lat="48.3597270" lon="-1.8760600"><ele></ele><time>2017-12-15T18:38:3Z</time></trkpt>
<trkpt lat="48.3596680" lon="-1.8761010"><ele></ele><time>2017-12-15T18:38:6Z</time></trkpt>
<trkpt lat="48.3596160" lon="-1.8761530"><ele></ele><time>2017-12-15T18:38:9Z</time></trkpt>
<trkpt lat="48.3595710" lon="-1.8761870"><ele></ele><time>2017-12-15T18:38:12Z</time></trkpt>
<trkpt lat="48.3595250" lon="-1.8761920"><ele></ele><time>2017-12-15T18:38:15Z</time></trkpt>
<trkpt lat="48.3594860" lon="-1.8761670"><ele></ele><time>2017-12-15T18:38:18Z</time></trkpt>
<trkpt lat="48.3594580" lon="-1.8761060"><ele></ele><time>2017-12-15T18:38:21Z</time></trkpt>
<trkpt lat="48.3594420" lon="-1.8760350"><ele></ele><time>2017-12-15T18:38:24Z</time></trkpt>
<trkpt lat="48.3594320" lon="-1.8759590"><ele></ele><time>2017-12-15T18:38:27Z</time></trkpt>
<trkpt lat="48.3594150" lon="-1.8758960"><ele></ele><time>2017-12-15T18:38:30Z</time></trkpt>
<trkpt lat="48.3593980" lon="-1.8758270"><ele></ele><time>2017-12-15T18:38:33Z</time></trkpt>
<trkpt lat="48.3593760" lon="-1.8757660"><ele></ele><time>2017-12-15T18:38:36Z</time></trkpt>
<trkpt lat="48.3593560" lon="-1.8757020"><ele></ele><time>2017-12-15T18:38:39Z</time></trkpt>
<trkpt lat="48.3593330" lon="-1.8756350"><ele></ele><time>2017-12-15T18:38:42Z</time></trkpt>
<trkpt lat="48.3593120" lon="-1.8755640"><ele></ele><time>2017-12-15T18:38:45Z</time></trkpt>
<trkpt lat="48.3592890" lon="-1.8754960"><ele></ele><time>2017-12-15T18:38:48Z</time></trkpt>
<trkpt lat="48.3592700" lon="-1.8754220"><ele></ele><time>2017-12-15T18:38:51Z</time></trkpt>
<trkpt lat="48.3592570" lon="-1.8753380"><ele></ele><time>2017-12-15T18:38:54Z</time></trkpt>
<trkpt lat="48.3592510" lon="-1.8752550"><ele></ele><time>2017-12-15T18:38:57Z</time></trkpt>
<trkpt lat="48.3592440" lon="-1.8751720"><ele></ele><time>2017-12-15T18:39:0Z</time></trkpt>
<trkpt lat="48.3592370" lon="-1.8750890"><ele></ele><time>2017-12-15T18:39:3Z</time></trkpt>
<trkpt lat="48.3592240" lon="-1.8750070"><ele></ele><time>2017-12-15T18:39:6Z</time></trkpt>
<trkpt lat="48.3592080" lon="-1.8749100"><ele></ele><time>2017-12-15T18:39:9Z</time></trkpt>
<trkpt lat="48.3591870" lon="-1.8748480"><ele></ele><time>2017-12-15T18:39:12Z</time></trkpt>
<trkpt lat="48.3591720" lon="-1.8747790"><ele></ele><time>2017-12-15T18:39:15Z</time></trkpt>
<trkpt lat="48.3591590" lon="-1.8747040"><ele></ele><time>2017-12-15T18:39:18Z</time></trkpt>
<trkpt lat="48.3591450" lon="-1.8746320"><ele></ele><time>2017-12-15T18:39:21Z</time></trkpt>
<trkpt lat="48.3591310" lon="-1.8745560"><ele></ele><time>2017-12-15T18:39:24Z</time></trkpt>
<trkpt lat="48.3591150" lon="-1.8744770"><ele></ele><time>2017-12-15T18:39:27Z</time></trkpt>
<trkpt lat="48.3590990" lon="-1.8744010"><ele></ele><time>2017-12-15T18:39:30Z</time></trkpt>
<trkpt lat="48.3590830" lon="-1.8743170"><ele></ele><time>2017-12-15T18:39:33Z</time></trkpt>
<trkpt lat="48.3590720" lon="-1.8742320"><ele></ele><time>2017-12-15T18:39:36Z</time></trkpt>
<trkpt lat="48.3590570" lon="-1.8741530"><ele></ele><time>2017-12-15T18:39:39Z</time></trkpt>
<trkpt lat="48.3590390" lon="-1.8740760"><ele></ele><time>2017-12-15T18:39:42Z</time></trkpt>
<trkpt lat="48.3590230" lon="-1.8740010"><ele></ele><time>2017-12-15T18:39:45Z</time></trkpt>
<trkpt lat="48.3590080" lon="-1.8739230"><ele></ele><time>2017-12-15T18:39:48Z</time></trkpt>
<trkpt lat="48.3589920" lon="-1.8738430"><ele></ele><time>2017-12-15T18:39:51Z</time></trkpt>
<trkpt lat="48.3589770" lon="-1.8737620"><ele></ele><time>2017-12-15T18:39:54Z</time></trkpt>
<trkpt lat="48.3589660" lon="-1.8736800"><ele></ele><time>2017-12-15T18:39:57Z</time></trkpt>
<trkpt lat="48.3589510" lon="-1.8736060"><ele></ele><time>2017-12-15T18:40:0Z</time></trkpt>
<trkpt lat="48.3589350" lon="-1.8735350"><ele></ele><time>2017-12-15T18:40:3Z</time></trkpt>
<trkpt lat="48.3589180" lon="-1.8734720"><ele></ele><time>2017-12-15T18:40:6Z</time></trkpt>
<trkpt lat="48.3588930" lon="-1.8734120"><ele></ele><time>2017-12-15T18:40:9Z</time></trkpt>
<trkpt lat="48.3588530" lon="-1.8733760"><ele></ele><time>2017-12-15T18:40:12Z</time></trkpt>
<trkpt lat="48.3588050" lon="-1.8733660"><ele></ele><time>2017-12-15T18:40:15Z</time></trkpt>
<trkpt lat="48.3587550" lon="-1.8733750"><ele></ele><time>2017-12-15T18:40:18Z</time></trkpt>
<trkpt lat="48.3587080" lon="-1.8733910"><ele></ele><time>2017-12-15T18:40:21Z</time></trkpt>
<trkpt lat="48.3586620" lon="-1.8734150"><ele></ele><time>2017-12-15T18:40:24Z</time></trkpt>
<trkpt lat="48.3586130" lon="-1.8734400"><ele></ele><time>2017-12-15T18:40:27Z</time></trkpt>
<trkpt lat="48.3585610" lon="-1.8734630"><ele></ele><time>2017-12-15T18:40:30Z</time></trkpt>
<trkpt lat="48.3585100" lon="-1.8734920"><ele></ele><time>2017-12-15T18:40:33Z</time></trkpt>
<trkpt lat="48.3584590" lon="-1.8735200"><ele></ele><time>2017-12-15T18:40:36Z</time></trkpt>
<trkpt lat="48.3584090" lon="-1.8735450"><ele></ele><time>2017-12-15T18:40:39Z</time></trkpt>
<trkpt lat="48.3583590" lon="-1.8735700"><ele></ele><time>2017-12-15T18:40:42Z</time></trkpt>
<trkpt lat="48.3583090" lon="-1.8735940"><ele></ele><time>2017-12-15T18:40:45Z</time></trkpt>
<trkpt lat="48.3582600" lon="-1.8736200"><ele></ele><time>2017-12-15T18:40:48Z</time></trkpt>
<trkpt lat="48.3582120" lon="-1.8736500"><ele></ele><time>2017-12-15T18:40:51Z</time></trkpt>
<trkpt lat="48.3581600" lon="-1.8736780"><ele></ele><time>2017-12-15T18:40:54Z</time></trkpt>
<trkpt lat="48.3581070" lon="-1.8737050"><ele></ele><time>2017-12-15T18:40:57Z</time></trkpt>
<trkpt lat="48.3580550" lon="-1.8737300"><ele></ele><time>2017-12-15T18:41:0Z</time></trkpt>
<trkpt lat="48.3580030" lon="-1.8737580"><ele></ele><time>2017-12-15T18:41:3Z</time></trkpt>
<trkpt lat="48.3579510" lon="-1.8737850"><ele></ele><time>2017-12-15T18:41:6Z</time></trkpt>
<trkpt lat="48.3578990" lon="-1.8738130"><ele></ele><time>2017-12-15T18:41:9Z</time></trkpt>
<trkpt lat="48.3578450" lon="-1.8738370"><ele></ele><time>2017-12-15T18:41:12Z</time></trkpt>
<trkpt lat="48.3577930" lon="-1.8738610"><ele></ele><time>2017-12-15T18:41:15Z</time></trkpt>
<trkpt lat="48.3577410" lon="-1.8738900"><ele></ele><time>2017-12-15T18:41:18Z</time></trkpt>
<trkpt lat="48.3576870" lon="-1.8739180"><ele></ele><time>2017-12-15T18:41:21Z</time></trkpt>
<trkpt lat="48.3576330" lon="-1.8739470"><ele></ele><time>2017-12-15T18:41:24Z</time></trkpt>
<trkpt lat="48.3575790" lon="-1.8739740"><ele></ele><time>2017-12-15T18:41:27Z</time></trkpt>
<trkpt lat="48.3575250" lon="-1.8740010"><ele></ele><time>2017-12-15T18:41:30Z</time></trkpt>
<trkpt lat="48.3574680" lon="-1.8740310"><ele></ele><time>2017-12-15T18:41:33Z</time></trkpt>
<trkpt lat="48.3574130" lon="-1.8740570"><ele></ele><time>2017-12-15T18:41:36Z</time></trkpt>
<trkpt lat="48.3573560" lon="-1.8740830"><ele></ele><time>2017-12-15T18:41:39Z</time></trkpt>
<trkpt lat="48.3573030" lon="-1.8741140"><ele></ele><time>2017-12-15T18:41:42Z</time></trkpt>
<trkpt lat="48.3572470" lon="-1.8741430"><ele></ele><time>2017-12-15T18:41:45Z</time></trkpt>
<trkpt lat="48.3571940" lon="-1.8741760"><ele></ele><time>2017-12-15T18:41:48Z</time></trkpt>
<trkpt lat="48.3571360" lon="-1.8742030"><ele></ele><time>2017-12-15T18:41:51Z</time></trkpt>
<trkpt lat="48.3570780" lon="-1.8742280"><ele></ele><time>2017-12-15T18:41:54Z</time></trkpt>
<trkpt lat="48.3570190" lon="-1.8742540"><ele></ele><time>2017-12-15T18:41:57Z</time></trkpt>
<trkpt lat="48.3569640" lon="-1.8742850"><ele></ele><time>2017-12-15T18:42:0Z</time></trkpt>
<trkpt lat="48.3569020" lon="-1.8743170"><ele></ele><time>2017-12-15T18:42:3Z</time></trkpt>
<trkpt lat="48.3568440" lon="-1.8743470"><ele></ele><time>2017-12-15T18:42:6Z</time></trkpt>
<trkpt lat="48.3567840" lon="-1.8743770"><ele></ele><time>2017-12-15T18:42:9Z</time></trkpt>
<trkpt lat="48.3567260" lon="-1.8744090"><ele></ele><time>2017-12-15T18:42:12Z</time></trkpt>
<trkpt lat="48.3566660" lon="-1.8744440"><ele></ele><time>2017-12-15T18:42:15Z</time></trkpt>
<trkpt lat="48.3566050" lon="-1.8744740"><ele></ele><time>2017-12-15T18:42:18Z</time></trkpt>
<trkpt lat="48.3565430" lon="-1.8745010"><ele></ele><time>2017-12-15T18:42:21Z</time></trkpt>
<trkpt lat="48.3564800" lon="-1.8745330"><ele></ele><time>2017-12-15T18:42:24Z</time></trkpt>
<trkpt lat="48.3564170" lon="-1.8745660"><ele></ele><time>2017-12-15T18:42:27Z</time></trkpt>
<trkpt lat="48.3563530" lon="-1.8745980"><ele></ele><time>2017-12-15T18:42:30Z</time></trkpt>
<trkpt lat="48.3562900" lon="-1.8746300"><ele></ele><time>2017-12-15T18:42:33Z</time></trkpt>
<trkpt lat="48.3562320" lon="-1.8746610"><ele></ele><time>2017-12-15T18:42:36Z</time></trkpt>
<trkpt lat="48.3561820" lon="-1.8746780"><ele></ele><time>2017-12-15T18:42:39Z</time></trkpt>
<trkpt lat="48.3561290" lon="-1.8746820"><ele></ele><time>2017-12-15T18:42:42Z</time></trkpt>
<trkpt lat="48.3560810" lon="-1.8746550"><ele></ele><time>2017-12-15T18:42:45Z</time></trkpt>
<trkpt lat="48.3560400" lon="-1.8746020"><ele></ele><time>2017-12-15T18:42:48Z</time></trkpt>
<trkpt lat="48.3560100" lon="-1.8745290"><ele></ele><time>2017-12-15T18:42:51Z</time></trkpt>
<trkpt lat="48.3559750" lon="-1.8744520"><ele></ele><time>2017-12-15T18:42:54Z</time></trkpt>
<trkpt lat="48.3559430" lon="-1.8743710"><ele></ele><time>2017-12-15T18:42:57Z</time></trkpt>
<trkpt lat="48.3559150" lon="-1.8742870"><ele></ele><time>2017-12-15T18:43:0Z</time></trkpt>
<trkpt lat="48.3558770" lon="-1.8742080"><ele></ele><time>2017-12-15T18:43:3Z</time></trkpt>
<trkpt lat="48.3558410" lon="-1.8741300"><ele></ele><time>2017-12-15T18:43:6Z</time></trkpt>
<trkpt lat="48.3558030" lon="-1.8740550"><ele></ele><time>2017-12-15T18:43:9Z</time></trkpt>
<trkpt lat="48.3557640" lon="-1.8739830"><ele></ele><time>2017-12-15T18:43:12Z</time></trkpt>
<trkpt lat="48.3557190" lon="-1.8739170"><ele></ele><time>2017-12-15T18:43:15Z</time></trkpt>
<trkpt lat="48.3556770" lon="-1.8738500"><ele></ele><time>2017-12-15T18:43:18Z</time></trkpt>
<trkpt lat="48.3556330" lon="-1.8737830"><ele></ele><time>2017-12-15T18:43:21Z</time></trkpt>
<trkpt lat="48.3555910" lon="-1.8737130"><ele></ele><time>2017-12-15T18:43:24Z</time></trkpt>
<trkpt lat="48.3555440" lon="-1.8736450"><ele></ele><time>2017-12-15T18:43:27Z</time></trkpt>
<trkpt lat="48.3555070" lon="-1.8735680"><ele></ele><time>2017-12-15T18:43:30Z</time></trkpt>
<trkpt lat="48.3554730" lon="-1.8734890"><ele></ele><time>2017-12-15T18:43:33Z</time></trkpt>
<trkpt lat="48.3554390" lon="-1.8734090"><ele></ele><time>2017-12-15T18:43:36Z</time></trkpt>
<trkpt lat="48.3554110" lon="-1.8733260"><ele></ele><time>2017-12-15T18:43:39Z</time></trkpt>
<trkpt lat="48.3553860" lon="-1.8732460"><ele></ele><time>2017-12-15T18:43:42Z</time></trkpt>
<trkpt lat="48.3553600" lon="-1.8731600"><ele></ele><time>2017-12-15T18:43:45Z</time></trkpt>
<trkpt lat="48.3553390" lon="-1.8730730"><ele></ele><time>2017-12-15T18:43:48Z</time></trkpt>
<trkpt lat="48.3553220" lon="-1.8729850"><ele></ele><time>2017-12-15T18:43:51Z</time></trkpt>
<trkpt lat="48.3553040" lon="-1.8728980"><ele></ele><time>2017-12-15T18:43:54Z</time></trkpt>
<trkpt lat="48.3552880" lon="-1.8728100"><ele></ele><time>2017-12-15T18:43:57Z</time></trkpt>
<trkpt lat="48.3552700" lon="-1.8727210"><ele></ele><time>2017-12-15T18:44:0Z</time></trkpt>
<trkpt lat="48.3552540" lon="-1.8726380"><ele></ele><time>2017-12-15T18:44:3Z</time></trkpt>
<trkpt lat="48.3552400" lon="-1.8725550"><ele></ele><time>2017-12-15T18:44:6Z</time></trkpt>
<trkpt lat="48.3552310" lon="-1.8724700"><ele></ele><time>2017-12-15T18:44:9Z</time></trkpt>
<trkpt lat="48.3552180" lon="-1.8723900"><ele></ele><time>2017-12-15T18:44:12Z</time></trkpt>
<trkpt lat="48.3552070" lon="-1.8723100"><ele></ele><time>2017-12-15T18:44:15Z</time></trkpt>
<trkpt lat="48.3551980" lon="-1.8722300"><ele></ele><time>2017-12-15T18:44:18Z</time></trkpt>
<trkpt lat="48.3551890" lon="-1.8721510"><ele></ele><time>2017-12-15T18:44:21Z</time></trkpt>
<trkpt lat="48.3551830" lon="-1.8720660"><ele></ele><time>2017-12-15T18:44:24Z</time></trkpt>
<trkpt lat="48.3551760" lon="-1.8719850"><ele></ele><time>2017-12-15T18:44:27Z</time></trkpt>
<trkpt lat="48.3551630" lon="-1.8719040"><ele></ele><time>2017-12-15T18:44:30Z</time></trkpt>
<trkpt lat="48.3551620" lon="-1.8718240"><ele></ele><time>2017-12-15T18:44:33Z</time></trkpt>
<trkpt lat="48.3551510" lon="-1.8717490"><ele></ele><time>2017-12-15T18:44:36Z</time></trkpt>
<trkpt lat="48.3551420" lon="-1.8716690"><ele></ele><time>2017-12-15T18:44:39Z</time></trkpt>
<trkpt lat="48.3551350" lon="-1.8715910"><ele></ele><time>2017-12-15T18:44:42Z</time></trkpt>
<trkpt lat="48.3551270" lon="-1.8715150"><ele></ele><time>2017-12-15T18:44:45Z</time></trkpt>
<trkpt lat="48.3551220" lon="-1.8714380"><ele></ele><time>2017-12-15T18:44:48Z</time></trkpt>
<trkpt lat="48.3551160" lon="-1.8713550"><ele></ele><time>2017-12-15T18:44:51Z</time></trkpt>
<trkpt lat="48.3551070" lon="-1.8712810"><ele></ele><time>2017-12-15T18:44:54Z</time></trkpt>
<trkpt lat="48.3551000" lon="-1.8712060"><ele></ele><time>2017-12-15T18:44:57Z</time></trkpt>
<trkpt lat="48.3550950" lon="-1.8711280"><ele></ele><time>2017-12-15T18:45:0Z</time></trkpt>
<trkpt lat="48.3550840" lon="-1.8710520"><ele></ele><time>2017-12-15T18:45:3Z</time></trkpt>
<trkpt lat="48.3550730" lon="-1.8709780"><ele></ele><time>2017-12-15T18:45:6Z</time></trkpt>
<trkpt lat="48.3550680" lon="-1.8709010"><ele></ele><time>2017-12-15T18:45:9Z</time></trkpt>
<trkpt lat="48.3550570" lon="-1.8708240"><ele></ele><time>2017-12-15T18:45:12Z</time></trkpt>
<trkpt lat="48.3550510" lon="-1.8707440"><ele></ele><time>2017-12-15T18:45:15Z</time></trkpt>
<trkpt lat="48.3550450" lon="-1.8706690"><ele></ele><time>2017-12-15T18:45:18Z</time></trkpt>
<trkpt lat="48.3550370" lon="-1.8705900"><ele></ele><time>2017-12-15T18:45:21Z</time></trkpt>
<trkpt lat="48.3550270" lon="-1.8705140"><ele></ele><time>2017-12-15T18:45:24Z</time></trkpt>
<trkpt lat="48.3550090" lon="-1.8704490"><ele></ele><time>2017-12-15T18:45:27Z</time></trkpt>
<trkpt lat="48.3549830" lon="-1.8703910"><ele></ele><time>2017-12-15T18:45:30Z</time></trkpt>
<trkpt lat="48.3549450" lon="-1.8703470"><ele></ele><time>2017-12-15T18:45:33Z</time></trkpt>
<trkpt lat="48.3549020" lon="-1.8703130"><ele></ele><time>2017-12-15T18:45:36Z</time></trkpt>
<trkpt lat="48.3548560" lon="-1.8702890"><ele></ele><time>2017-12-15T18:45:39Z</time></trkpt>
<trkpt lat="48.3548090" lon="-1.8702650"><ele></ele><time>2017-12-15T18:45:42Z</time></trkpt>
<trkpt lat="48.3547610" lon="-1.8702390"><ele></ele><time>2017-12-15T18:45:45Z</time></trkpt>
<trkpt lat="48.3547150" lon="-1.8702120"><ele></ele><time>2017-12-15T18:45:48Z</time></trkpt>
<trkpt lat="48.3546660" lon="-1.8701840"><ele></ele><time>2017-12-15T18:45:51Z</time></trkpt>
<trkpt lat="48.3546170" lon="-1.8701570"><ele></ele><time>2017-12-15T18:45:54Z</time></trkpt>
<trkpt lat="48.3545650" lon="-1.8701310"><ele></ele><time>2017-12-15T18:45:57Z</time></trkpt>
<trkpt lat="48.3545200" lon="-1.8700980"><ele></ele><time>2017-12-15T18:46:0Z</time></trkpt>
<trkpt lat="48.3544760" lon="-1.8700640"><ele></ele><time>2017-12-15T18:46:3Z</time></trkpt>
<trkpt lat="48.3544330" lon="-1.8700240"><ele></ele><time>2017-12-15T18:46:6Z</time></trkpt>
<trkpt lat="48.3544000" lon="-1.8699720"><ele></ele><time>2017-12-15T18:46:9Z</time></trkpt>
<trkpt lat="48.3543720" lon="-1.8699170"><ele></ele><time>2017-12-15T18:46:12Z</time></trkpt>
<trkpt lat="48.3543520" lon="-1.8698470"><ele></ele><time>2017-12-15T18:46:15Z</time></trkpt>
<trkpt lat="48.3543410" lon="-1.8697760"><ele></ele><time>2017-12-15T18:46:18Z</time></trkpt>
<trkpt lat="48.3543390" lon="-1.8696990"><ele></ele><time>2017-12-15T18:46:21Z</time></trkpt>
<trkpt lat="48.3543420" lon="-1.8696280"><ele></ele><time>2017-12-15T18:46:24Z</time></trkpt>
<trkpt lat="48.3543460" lon="-1.8695580"><ele></ele><time>2017-12-15T18:46:27Z</time></trkpt>
<trkpt lat="48.3543540" lon="-1.8694850"><ele></ele><time>2017-12-15T18:46:30Z</time></trkpt>
<trkpt lat="48.3543540" lon="-1.8694190"><ele></ele><time>2017-12-15T18:46:33Z</time></trkpt>
<trkpt lat="48.3543510" lon="-1.8693530"><ele></ele><time>2017-12-15T18:46:36Z</time></trkpt>
<trkpt lat="48.3543300" lon="-1.8693010"><ele></ele><time>2017-12-15T18:46:39Z</time></trkpt>
<trkpt lat="48.3542920" lon="-1.8692790"><ele></ele><time>2017-12-15T18:46:42Z</time></trkpt>
<trkpt lat="48.3542510" lon="-1.8692650"><ele></ele><time>2017-12-15T18:46:45Z</time></trkpt>
<trkpt lat="48.3542030" lon="-1.8692540"><ele></ele><time>2017-12-15T18:46:48Z</time></trkpt>
<trkpt lat="48.3541550" lon="-1.8692470"><ele></ele><time>2017-12-15T18:46:51Z</time></trkpt>
<trkpt lat="48.3541060" lon="-1.8692310"><ele></ele><time>2017-12-15T18:46:54Z</time></trkpt>
<trkpt lat="48.3540590" lon="-1.8692190"><ele></ele><time>2017-12-15T18:46:57Z</time></trkpt>
<trkpt lat="48.3540140" lon="-1.8692040"><ele></ele><time>2017-12-15T18:47:0Z</time></trkpt>
<trkpt lat="48.3539700" lon="-1.8691830"><ele></ele><time>2017-12-15T18:47:3Z</time></trkpt>
<trkpt lat="48.3539250" lon="-1.8691680"><ele></ele><time>2017-12-15T18:47:6Z</time></trkpt>
<trkpt lat="48.3538740" lon="-1.8691550"><ele></ele><time>2017-12-15T18:47:9Z</time></trkpt>
<trkpt lat="48.3538290" lon="-1.8691440"><ele></ele><time>2017-12-15T18:47:12Z</time></trkpt>
<trkpt lat="48.3537810" lon="-1.8691280"><ele></ele><time>2017-12-15T18:47:15Z</time></trkpt>
<trkpt lat="48.3537360" lon="-1.8691150"><ele></ele><time>2017-12-15T18:47:18Z</time></trkpt>
<trkpt lat="48.3536910" lon="-1.8691030"><ele></ele><time>2017-12-15T18:47:21Z</time></trkpt>
<trkpt lat="48.3536420" lon="-1.8690870"><ele></ele><time>2017-12-15T18:47:24Z</time></trkpt>
<trkpt lat="48.3535920" lon="-1.8690710"><ele></ele><time>2017-12-15T18:47:27Z</time></trkpt>
<trkpt lat="48.3535460" lon="-1.8690530"><ele></ele><time>2017-12-15T18:47:30Z</time></trkpt>
<trkpt lat="48.3535010" lon="-1.8690340"><ele></ele><time>2017-12-15T18:47:33Z</time></trkpt>
<trkpt lat="48.3534550" lon="-1.8690120"><ele></ele><time>2017-12-15T18:47:36Z</time></trkpt>
<trkpt lat="48.3534060" lon="-1.8689890"><ele></ele><time>2017-12-15T18:47:39Z</time></trkpt>
<trkpt lat="48.3533600" lon="-1.8689680"><ele></ele><time>2017-12-15T18:47:42Z</time></trkpt>
<trkpt lat="48.3533130" lon="-1.8689460"><ele></ele><time>2017-12-15T18:47:45Z</time></trkpt>
<trkpt lat="48.3532670" lon="-1.8689230"><ele></ele><time>2017-12-15T18:47:48Z</time></trkpt>
<trkpt lat="48.3532190" lon="-1.8688960"><ele></ele><time>2017-12-15T18:47:51Z</time></trkpt>
<trkpt lat="48.3531750" lon="-1.8688750"><ele></ele><time>2017-12-15T18:47:54Z</time></trkpt>
<trkpt lat="48.3531310" lon="-1.8688510"><ele></ele><time>2017-12-15T18:47:57Z</time></trkpt>
<trkpt lat="48.3530870" lon="-1.8688230"><ele></ele><time>2017-12-15T18:48:0Z</time></trkpt>
<trkpt lat="48.3530450" lon="-1.8688020"><ele></ele><time>2017-12-15T18:48:3Z</time></trkpt>
<trkpt lat="48.3530020" lon="-1.8687730"><ele></ele><time>2017-12-15T18:48:6Z</time></trkpt>
<trkpt lat="48.3529610" lon="-1.8687520"><ele></ele><time>2017-12-15T18:48:9Z</time></trkpt>
<trkpt lat="48.3529190" lon="-1.8687200"><ele></ele><time>2017-12-15T18:48:12Z</time></trkpt>
<trkpt lat="48.3528770" lon="-1.8686970"><ele></ele><time>2017-12-15T18:48:15Z</time></trkpt>
<trkpt lat="48.3528360" lon="-1.8686710"><ele></ele><time>2017-12-15T18:48:18Z</time></trkpt>
<trkpt lat="48.3527980" lon="-1.8686430"><ele></ele><time>2017-12-15T18:48:21Z</time></trkpt>
<trkpt lat="48.3527700" lon="-1.8685970"><ele></ele><time>2017-12-15T18:48:24Z</time></trkpt>
<trkpt lat="48.3527510" lon="-1.8685350"><ele></ele><time>2017-12-15T18:48:27Z</time></trkpt>
<trkpt lat="48.3527410" lon="-1.8684740"><ele></ele><time>2017-12-15T18:48:30Z</time></trkpt>
<trkpt lat="48.3527340" lon="-1.8684050"><ele></ele><time>2017-12-15T18:48:33Z</time></trkpt>
<trkpt lat="48.3527280" lon="-1.8683390"><ele></ele><time>2017-12-15T18:48:36Z</time></trkpt>
<trkpt lat="48.3527200" lon="-1.8682720"><ele></ele><time>2017-12-15T18:48:39Z</time></trkpt>
<trkpt lat="48.3527120" lon="-1.8682070"><ele></ele><time>2017-12-15T18:48:42Z</time></trkpt>
<trkpt lat="48.3527080" lon="-1.8681390"><ele></ele><time>2017-12-15T18:48:45Z</time></trkpt>
<trkpt lat="48.3527060" lon="-1.8680720"><ele></ele><time>2017-12-15T18:48:48Z</time></trkpt>
<trkpt lat="48.3527030" lon="-1.8680020"><ele></ele><time>2017-12-15T18:48:51Z</time></trkpt>
<trkpt lat="48.3526970" lon="-1.8679300"><ele></ele><time>2017-12-15T18:48:54Z</time></trkpt>
<trkpt lat="48.3526880" lon="-1.8678620"><ele></ele><time>2017-12-15T18:48:57Z</time></trkpt>
<trkpt lat="48.3526750" lon="-1.8677990"><ele></ele><time>2017-12-15T18:49:0Z</time></trkpt>
<trkpt lat="48.3526530" lon="-1.8677390"><ele></ele><time>2017-12-15T18:49:3Z</time></trkpt>
<trkpt lat="48.3526240" lon="-1.8676920"><ele></ele><time>2017-12-15T18:49:6Z</time></trkpt>
<trkpt lat="48.3525820" lon="-1.8676600"><ele></ele><time>2017-12-15T18:49:9Z</time></trkpt>
<trkpt lat="48.3525370" lon="-1.8676380"><ele></ele><time>2017-12-15T18:49:12Z</time></trkpt>
<trkpt lat="48.3524910" lon="-1.8676280"><ele></ele><time>2017-12-15T18:49:15Z</time></trkpt>
<trkpt lat="48.3524420" lon="-1.8676200"><ele></ele><time>2017-12-15T18:49:18Z</time></trkpt>
<trkpt lat="48.3523920" lon="-1.8676190"><ele></ele><time>2017-12-15T18:49:21Z</time></trkpt>
<trkpt lat="48.3523430" lon="-1.8676180"><ele></ele><time>2017-12-15T18:49:24Z</time></trkpt>
<trkpt lat="48.3522920" lon="-1.8676140"><ele></ele><time>2017-12-15T18:49:27Z</time></trkpt>
<trkpt lat="48.3522430" lon="-1.8676160"><ele></ele><time>2017-12-15T18:49:30Z</time></trkpt>
<trkpt lat="48.3521940" lon="-1.8676170"><ele></ele><time>2017-12-15T18:49:33Z</time></trkpt>
<trkpt lat="48.3521440" lon="-1.8676160"><ele></ele><time>2017-12-15T18:49:36Z</time></trkpt>
<trkpt lat="48.3520920" lon="-1.8676150"><ele></ele><time>2017-12-15T18:49:39Z</time></trkpt>
<trkpt lat="48.3520440" lon="-1.8676170"><ele></ele><time>2017-12-15T18:49:42Z</time></trkpt>
<trkpt lat="48.3519970" lon="-1.8676160"><ele></ele><time>2017-12-15T18:49:45Z</time></trkpt>
<trkpt lat="48.3519470" lon="-1.8676120"><ele></ele><time>2017-12-15T18:49:48Z</time></trkpt>
<trkpt lat="48.3518980" lon="-1.8676130"><ele></ele><time>2017-12-15T18:49:51Z</time></trkpt>
<trkpt lat="48.3518520" lon="-1.8676150"><ele></ele><time>2017-12-15T18:49:54Z</time></trkpt>
<trkpt lat="48.3518010" lon="-1.8676130"><ele></ele><time>2017-12-15T18:49:57Z</time></trkpt>
<trkpt lat="48.3517520" lon="-1.8676110"><ele></ele><time>2017-12-15T18:50:0Z</time></trkpt>
<trkpt lat="48.3517040" lon="-1.8676120"><ele></ele><time>2017-12-15T18:50:3Z</time></trkpt>
<trkpt lat="48.3516550" lon="-1.8676130"><ele></ele><time>2017-12-15T18:50:6Z</time></trkpt>
<trkpt lat="48.3516040" lon="-1.8676080"><ele></ele><time>2017-12-15T18:50:9Z</time></trkpt>
<trkpt lat="48.3515530" lon="-1.8676040"><ele></ele><time>2017-12-15T18:50:12Z</time></trkpt>
<trkpt lat="48.3515030" lon="-1.8676030"><ele></ele><time>2017-12-15T18:50:15Z</time></trkpt>
<trkpt lat="48.3514550" lon="-1.8676080"><ele></ele><time>2017-12-15T18:50:18Z</time></trkpt>
<trkpt lat="48.3514040" lon="-1.8676070"><ele></ele><time>2017-12-15T18:50:21Z</time></trkpt>
<trkpt lat="48.3513540" lon="-1.8676090"><ele></ele><time>2017-12-15T18:50:24Z</time></trkpt>
<trkpt lat="48.3513060" lon="-1.8676120"><ele></ele><time>2017-12-15T18:50:27Z</time></trkpt>
<trkpt lat="48.3512560" lon="-1.8676190"><ele></ele><time>2017-12-15T18:50:30Z</time></trkpt>
<trkpt lat="48.3512080" lon="-1.8676240"><ele></ele><time>2017-12-15T18:50:33Z</time></trkpt>
<trkpt lat="48.3511570" lon="-1.8676300"><ele></ele><time>2017-12-15T18:50:36Z</time></trkpt>
<trkpt lat="48.3511080" lon="-1.8676370"><ele></ele><time>2017-12-15T18:50:39Z</time></trkpt>
<trkpt lat="48.3510600" lon="-1.8676450"><ele></ele><time>2017-12-15T18:50:42Z</time></trkpt>
<trkpt lat="48.3510150" lon="-1.8676590"><ele></ele><time>2017-12-15T18:50:45Z</time></trkpt>
<trkpt lat="48.3509640" lon="-1.8676730"><ele></ele><time>2017-12-15T18:50:48Z</time></trkpt>
<trkpt lat="48.3509160" lon="-1.8676910"><ele></ele><time>2017-12-15T18:50:51Z</time></trkpt>
<trkpt lat="48.3508690" lon="-1.8677100"><ele></ele><time>2017-12-15T18:50:54Z</time></trkpt>
<trkpt lat="48.3508220" lon="-1.8677280"><ele></ele><time>2017-12-15T18:50:57Z</time></trkpt>
<trkpt lat="48.3507750" lon="-1.8677500"><ele></ele><time>2017-12-15T18:51:0Z</time></trkpt>
<trkpt lat="48.3507320" lon="-1.8677750"><ele></ele><time>2017-12-15T18:51:3Z</time></trkpt>
<trkpt lat="48.3506870" lon="-1.8677980"><ele></ele><time>2017-12-15T18:51:6Z</time></trkpt>
<trkpt lat="48.3506410" lon="-1.8678180"><ele></ele><time>2017-12-15T18:51:9Z</time></trkpt>
<trkpt lat="48.3505990" lon="-1.8678390"><ele></ele><time>2017-12-15T18:51:12Z</time></trkpt>
<trkpt lat="48.3505550" lon="-1.8678610"><ele></ele><time>2017-12-15T18:51:15Z</time></trkpt>
<trkpt lat="48.3505120" lon="-1.8678800"><ele></ele><time>2017-12-15T18:51:18Z</time></trkpt>
<trkpt lat="48.3504680" lon="-1.8679030"><ele></ele><time>2017-12-15T18:51:21Z</time></trkpt>
<trkpt lat="48.3504320" lon="-1.8679300"><ele></ele><time>2017-12-15T18:51:24Z</time></trkpt>
<trkpt lat="48.3503890" lon="-1.8679550"><ele></ele><time>2017-12-15T18:51:27Z</time></trkpt>
<trkpt lat="48.3503480" lon="-1.8679830"><ele></ele><time>2017-12-15T18:51:30Z</time></trkpt>
<trkpt lat="48.3503020" lon="-1.8680030"><ele></ele><time>2017-12-15T18:51:33Z</time></trkpt>
<trkpt lat="48.3502550" lon="-1.8680210"><ele></ele><time>2017-12-15T18:51:36Z</time></trkpt>
<trkpt lat="48.3502100" lon="-1.8680460"><ele></ele><time>2017-12-15T18:51:39Z</time></trkpt>
<trkpt lat="48.3501610" lon="-1.8680600"><ele></ele><time>2017-12-15T18:51:42Z</time></trkpt>
<trkpt lat="48.3501150" lon="-1.8680730"><ele></ele><time>2017-12-15T18:51:45Z</time></trkpt>
<trkpt lat="48.3500740" lon="-1.8680910"><ele></ele><time>2017-12-15T18:51:48Z</time></trkpt>
<trkpt lat="48.3500260" lon="-1.8681030"><ele></ele><time>2017-12-15T18:51:51Z</time></trkpt>
<trkpt lat="48.3499810" lon="-1.8681190"><ele></ele><time>2017-12-15T18:51:54Z</time></trkpt>
<trkpt lat="48.3499410" lon="-1.8681350"><ele></ele><time>2017-12-15T18:51:57Z</time></trkpt>
<trkpt lat="48.3498950" lon="-1.8681450"><ele></ele><time>2017-12-15T18:52:0Z</time></trkpt>
<trkpt lat="48.3498510" lon="-1.8681610"><ele></ele><time>2017-12-15T18:52:3Z</time></trkpt>
<trkpt lat="48.3498040" lon="-1.8681750"><ele></ele><time>2017-12-15T18:52:6Z</time></trkpt>
<trkpt lat="48.3497570" lon="-1.8681870"><ele></ele><time>2017-12-15T18:52:9Z</time></trkpt>
<trkpt lat="48.3497090" lon="-1.8682020"><ele></ele><time>2017-12-15T18:52:12Z</time></trkpt>
<trkpt lat="48.3496620" lon="-1.8682160"><ele></ele><time>2017-12-15T18:52:15Z</time></trkpt>
<trkpt lat="48.3496150" lon="-1.8682260"><ele></ele><time>2017-12-15T18:52:18Z</time></trkpt>
<trkpt lat="48.3495650" lon="-1.8682310"><ele></ele><time>2017-12-15T18:52:21Z</time></trkpt>
<trkpt lat="48.3495170" lon="-1.8682320"><ele></ele><time>2017-12-15T18:52:24Z</time></trkpt>
<trkpt lat="48.3494710" lon="-1.8682320"><ele></ele><time>2017-12-15T18:52:27Z</time></trkpt>
<trkpt lat="48.3494230" lon="-1.8682300"><ele></ele><time>2017-12-15T18:52:30Z</time></trkpt>
<trkpt lat="48.3493800" lon="-1.8682240"><ele></ele><time>2017-12-15T18:52:33Z</time></trkpt>
<trkpt lat="48.3493310" lon="-1.8682150"><ele></ele><time>2017-12-15T18:52:36Z</time></trkpt>
<trkpt lat="48.3492900" lon="-1.8682050"><ele></ele><time>2017-12-15T18:52:39Z</time></trkpt>
<trkpt lat="48.3492460" lon="-1.8681950"><ele></ele><time>2017-12-15T18:52:42Z</time></trkpt>
<trkpt lat="48.3492000" lon="-1.8681810"><ele></ele><time>2017-12-15T18:52:45Z</time></trkpt>
<trkpt lat="48.3491520" lon="-1.8681700"><ele></ele><time>2017-12-15T18:52:48Z</time></trkpt>
<trkpt lat="48.3491070" lon="-1.8681600"><ele></ele><time>2017-12-15T18:52:51Z</time></trkpt>
<trkpt lat="48.3490580" lon="-1.8681500"><ele></ele><time>2017-12-15T18:52:54Z</time></trkpt>
<trkpt lat="48.3490100" lon="-1.8681400"><ele></ele><time>2017-12-15T18:52:57Z</time></trkpt>
<trkpt lat="48.3489630" lon="-1.8681330"><ele></ele><time>2017-12-15T18:53:0Z</time></trkpt>
<trkpt lat="48.3489150" lon="-1.8681240"><ele></ele><time>2017-12-15T18:53:3Z</time></trkpt>
<trkpt lat="48.3488670" lon="-1.8681140"><ele></ele><time>2017-12-15T18:53:6Z</time></trkpt>
<trkpt lat="48.3488220" lon="-1.8681000"><ele></ele><time>2017-12-15T18:53:9Z</time></trkpt>
<trkpt lat="48.3487730" lon="-1.8680900"><ele></ele><time>2017-12-15T18:53:12Z</time></trkpt>
<trkpt lat="48.3487240" lon="-1.8680790"><ele></ele><time>2017-12-15T18:53:15Z</time></trkpt>
<trkpt lat="48.3486750" lon="-1.8680660"><ele></ele><time>2017-12-15T18:53:18Z</time></trkpt>
<trkpt lat="48.3486290" lon="-1.8680570"><ele></ele><time>2017-12-15T18:53:21Z</time></trkpt>
<trkpt lat="48.3485800" lon="-1.8680470"><ele></ele><time>2017-12-15T18:53:24Z</time></trkpt>
<trkpt lat="48.3485310" lon="-1.8680340"><ele></ele><time>2017-12-15T18:53:27Z</time></trkpt>
<trkpt lat="48.3484860" lon="-1.8680210"><ele></ele><time>2017-12-15T18:53:30Z</time></trkpt>
<trkpt lat="48.3484420" lon="-1.8680140"><ele></ele><time>2017-12-15T18:53:33Z</time></trkpt>
<trkpt lat="48.3483910" lon="-1.8679990"><ele></ele><time>2017-12-15T18:53:36Z</time></trkpt>
<trkpt lat="48.3483450" lon="-1.8679850"><ele></ele><time>2017-12-15T18:53:39Z</time></trkpt>
<trkpt lat="48.3483020" lon="-1.8679680"><ele></ele><time>2017-12-15T18:53:42Z</time></trkpt>
<trkpt lat="48.3482590" lon="-1.8679680"><ele></ele><time>2017-12-15T18:53:45Z</time></trkpt>
<trkpt lat="48.3482160" lon="-1.8679880"><ele></ele><time>2017-12-15T18:53:48Z</time></trkpt>
<trkpt lat="48.3481900" lon="-1.8680380"><ele></ele><time>2017-12-15T18:53:51Z</time></trkpt>
<trkpt lat="48.3481820" lon="-1.8681030"><ele></ele><time>2017-12-15T18:53:54Z</time></trkpt>
<trkpt lat="48.3481780" lon="-1.8681680"><ele></ele><time>2017-12-15T18:53:57Z</time></trkpt>
<trkpt lat="48.3481760" lon="-1.8682370"><ele></ele><time>2017-12-15T18:54:0Z</time></trkpt>
<trkpt lat="48.3481730" lon="-1.8683100"><ele></ele><time>2017-12-15T18:54:3Z</time></trkpt>
<trkpt lat="48.3481680" lon="-1.8683830"><ele></ele><time>2017-12-15T18:54:6Z</time></trkpt>
<trkpt lat="48.3481630" lon="-1.8684550"><ele></ele><time>2017-12-15T18:54:9Z</time></trkpt>
<trkpt lat="48.3481590" lon="-1.8685270"><ele></ele><time>2017-12-15T18:54:12Z</time></trkpt>
<trkpt lat="48.3481490" lon="-1.8686000"><ele></ele><time>2017-12-15T18:54:15Z</time></trkpt>
<trkpt lat="48.3481410" lon="-1.8686720"><ele></ele><time>2017-12-15T18:54:18Z</time></trkpt>
<trkpt lat="48.3481320" lon="-1.8687430"><ele></ele><time>2017-12-15T18:54:21Z</time></trkpt>
<trkpt lat="48.3481210" lon="-1.8688200"><ele></ele><time>2017-12-15T18:54:24Z</time></trkpt>
<trkpt lat="48.3481140" lon="-1.8688910"><ele></ele><time>2017-12-15T18:54:27Z</time></trkpt>
<trkpt lat="48.3481050" lon="-1.8689610"><ele></ele><time>2017-12-15T18:54:30Z</time></trkpt>
<trkpt lat="48.3480970" lon="-1.8690290"><ele></ele><time>2017-12-15T18:54:33Z</time></trkpt>
<trkpt lat="48.3480880" lon="-1.8691010"><ele></ele><time>2017-12-15T18:54:36Z</time></trkpt>
<trkpt lat="48.3480790" lon="-1.8691750"><ele></ele><time>2017-12-15T18:54:39Z</time></trkpt>
<trkpt lat="48.3480680" lon="-1.8692510"><ele></ele><time>2017-12-15T18:54:42Z</time></trkpt>
<trkpt lat="48.3480590" lon="-1.8693250"><ele></ele><time>2017-12-15T18:54:45Z</time></trkpt>
<trkpt lat="48.3480480" lon="-1.8693990"><ele></ele><time>2017-12-15T18:54:48Z</time></trkpt>
<trkpt lat="48.3480380" lon="-1.8694770"><ele></ele><time>2017-12-15T18:54:51Z</time></trkpt>
<trkpt lat="48.3480290" lon="-1.8695500"><ele></ele><time>2017-12-15T18:54:54Z</time></trkpt>
<trkpt lat="48.3480200" lon="-1.8696300"><ele></ele><time>2017-12-15T18:54:57Z</time></trkpt>
<trkpt lat="48.3480100" lon="-1.8697030"><ele></ele><time>2017-12-15T18:55:0Z</time></trkpt>
<trkpt lat="48.3480020" lon="-1.8697790"><ele></ele><time>2017-12-15T18:55:3Z</time></trkpt>
<trkpt lat="48.3479920" lon="-1.8698570"><ele></ele><time>2017-12-15T18:55:6Z</time></trkpt>
<trkpt lat="48.3479830" lon="-1.8699390"><ele></ele><time>2017-12-15T18:55:9Z</time></trkpt>
<trkpt lat="48.3479710" lon="-1.8700200"><ele></ele><time>2017-12-15T18:55:12Z</time></trkpt>
<trkpt lat="48.3479590" lon="-1.8701000"><ele></ele><time>2017-12-15T18:55:15Z</time></trkpt>
<trkpt lat="48.3479490" lon="-1.8701820"><ele></ele><time>2017-12-15T18:55:18Z</time></trkpt>
<trkpt lat="48.3479370" lon="-1.8702660"><ele></ele><time>2017-12-15T18:55:21Z</time></trkpt>
<trkpt lat="48.3479260" lon="-1.8703470"><ele></ele><time>2017-12-15T18:55:24Z</time></trkpt>
<trkpt lat="48.3479130" lon="-1.8704350"><ele></ele><time>2017-12-15T18:55:27Z</time></trkpt>
<trkpt lat="48.3479030" lon="-1.8705230"><ele></ele><time>2017-12-15T18:55:30Z</time></trkpt>
<trkpt lat="48.3478950" lon="-1.8706060"><ele></ele><time>2017-12-15T18:55:33Z</time></trkpt>
<trkpt lat="48.3478860" lon="-1.8706930"><ele></ele><time>2017-12-15T18:55:36Z</time></trkpt>
<trkpt lat="48.3478720" lon="-1.8707780"><ele></ele><time>2017-12-15T18:55:39Z</time></trkpt>
<trkpt lat="48.3478510" lon="-1.8708590"><ele></ele><time>2017-12-15T18:55:42Z</time></trkpt>
<trkpt lat="48.3478180" lon="-1.8709370"><ele></ele><time>2017-12-15T18:55:45Z</time></trkpt>
<trkpt lat="48.3477690" lon="-1.8709990"><ele></ele><time>2017-12-15T18:55:48Z</time></trkpt>
<trkpt lat="48.3477130" lon="-1.8710290"><ele></ele><time>2017-12-15T18:55:51Z</time></trkpt>
<trkpt lat="48.3476510" lon="-1.8710350"><ele></ele><time>2017-12-15T18:55:54Z</time></trkpt>
<trkpt lat="48.3475930" lon="-1.8710340"><ele></ele><time>2017-12-15T18:55:57Z</time></trkpt>
<trkpt lat="48.3475320" lon="-1.8710330"><ele></ele><time>2017-12-15T18:56:0Z</time></trkpt>
<trkpt lat="48.3474710" lon="-1.8710310"><ele></ele><time>2017-12-15T18:56:3Z</time></trkpt>
<trkpt lat="48.3474130" lon="-1.8710360"><ele></ele><time>2017-12-15T18:56:6Z</time></trkpt>
<trkpt lat="48.3473590" lon="-1.8710500"><ele></ele><time>2017-12-15T18:56:9Z</time></trkpt>
<trkpt lat="48.3473020" lon="-1.8710650"><ele></ele><time>2017-12-15T18:56:12Z</time></trkpt>
<trkpt lat="48.3472470" lon="-1.8710890"><ele></ele><time>2017-12-15T18:56:15Z</time></trkpt>
<trkpt lat="48.3471960" lon="-1.8711200"><ele></ele><time>2017-12-15T18:56:18Z</time></trkpt>
<trkpt lat="48.3471470" lon="-1.8711550"><ele></ele><time>2017-12-15T18:56:21Z</time></trkpt>
<trkpt lat="48.3471000" lon="-1.8711950"><ele></ele><time>2017-12-15T18:56:24Z</time></trkpt>
<trkpt lat="48.3470530" lon="-1.8712390"><ele></ele><time>2017-12-15T18:56:27Z</time></trkpt>
<trkpt lat="48.3470060" lon="-1.8712840"><ele></ele><time>2017-12-15T18:56:30Z</time></trkpt>
<trkpt lat="48.3469590" lon="-1.8713240"><ele></ele><time>2017-12-15T18:56:33Z</time></trkpt>
<trkpt lat="48.3469140" lon="-1.8713680"><ele></ele><time>2017-12-15T18:56:36Z</time></trkpt>
<trkpt lat="48.3468730" lon="-1.8714170"><ele></ele><time>2017-12-15T18:56:39Z</time></trkpt>
<trkpt lat="48.3468300" lon="-1.8714660"><ele></ele><time>2017-12-15T18:56:42Z</time></trkpt>
<trkpt lat="48.3467960" lon="-1.8715240"><ele></ele><time>2017-12-15T18:56:45Z</time></trkpt>
<trkpt lat="48.3467640" lon="-1.8715900"><ele></ele><time>2017-12-15T18:56:48Z</time></trkpt>
<trkpt lat="48.3467400" lon="-1.8716620"><ele></ele><time>2017-12-15T18:56:51Z</time></trkpt>
<trkpt lat="48.3467300" lon="-1.8717430"><ele></ele><time>2017-12-15T18:56:54Z</time></trkpt>
<trkpt lat="48.3467400" lon="-1.8718260"><ele></ele><time>2017-12-15T18:56:57Z</time></trkpt>
<trkpt lat="48.3467740" lon="-1.8718990"><ele></ele><time>2017-12-15T18:57:0Z</time></trkpt>
<trkpt lat="48.3468200" lon="-1.8719520"><ele></ele><time>2017-12-15T18:57:3Z</time></trkpt>
<trkpt lat="48.3468700" lon="-1.8719960"><ele></ele><time>2017-12-15T18:57:6Z</time></trkpt>
<trkpt lat="48.3469190" lon="-1.8720440"><ele></ele><time>2017-12-15T18:57:9Z</time></trkpt>
<trkpt lat="48.3469710" lon="-1.8721020"><ele></ele><time>2017-12-15T18:57:12Z</time></trkpt>
<trkpt lat="48.3470170" lon="-1.8721670"><ele></ele><time>2017-12-15T18:57:15Z</time></trkpt>
<trkpt lat="48.3470620" lon="-1.8722450"><ele></ele><time>2017-12-15T18:57:18Z</time></trkpt>
<trkpt lat="48.3471070" lon="-1.8723230"><ele></ele><time>2017-12-15T18:57:21Z</time></trkpt>
<trkpt lat="48.3471550" lon="-1.8724160"><ele></ele><time>2017-12-15T18:57:24Z</time></trkpt>
<trkpt lat="48.3472000" lon="-1.8725030"><ele></ele><time>2017-12-15T18:57:27Z</time></trkpt>
<trkpt lat="48.3472450" lon="-1.8725920"><ele></ele><time>2017-12-15T18:57:30Z</time></trkpt>
<trkpt lat="48.3472930" lon="-1.8726800"><ele></ele><time>2017-12-15T18:57:33Z</time></trkpt>
<trkpt lat="48.3473400" lon="-1.8727700"><ele></ele><time>2017-12-15T18:57:36Z</time></trkpt>
<trkpt lat="48.3473830" lon="-1.8728540"><ele></ele><time>2017-12-15T18:57:39Z</time></trkpt>
<trkpt lat="48.3474270" lon="-1.8729410"><ele></ele><time>2017-12-15T18:57:42Z</time></trkpt>
<trkpt lat="48.3474770" lon="-1.8730350"><ele></ele><time>2017-12-15T18:57:45Z</time></trkpt>
<trkpt lat="48.3475260" lon="-1.8731240"><ele></ele><time>2017-12-15T18:57:48Z</time></trkpt>
<trkpt lat="48.3475750" lon="-1.8732120"><ele></ele><time>2017-12-15T18:57:51Z</time></trkpt>
<trkpt lat="48.3476220" lon="-1.8733020"><ele></ele><time>2017-12-15T18:57:54Z</time></trkpt>
<trkpt lat="48.3476670" lon="-1.8733930"><ele></ele><time>2017-12-15T18:57:57Z</time></trkpt>
<trkpt lat="48.3477140" lon="-1.8734880"><ele></ele><time>2017-12-15T18:58:0Z</time></trkpt>
<trkpt lat="48.3477610" lon="-1.8735780"><ele></ele><time>2017-12-15T18:58:3Z</time></trkpt>
<trkpt lat="48.3478090" lon="-1.8736660"><ele></ele><time>2017-12-15T18:58:6Z</time></trkpt>
<trkpt lat="48.3478550" lon="-1.8737500"><ele></ele><time>2017-12-15T18:58:9Z</time></trkpt>
<trkpt lat="48.3479030" lon="-1.8738370"><ele></ele><time>2017-12-15T18:58:12Z</time></trkpt>
<trkpt lat="48.3479470" lon="-1.8739240"><ele></ele><time>2017-12-15T18:58:15Z</time></trkpt>
<trkpt lat="48.3479930" lon="-1.8740120"><ele></ele><time>2017-12-15T18:58:18Z</time></trkpt>
<trkpt lat="48.3480370" lon="-1.8740960"><ele></ele><time>2017-12-15T18:58:21Z</time></trkpt>
<trkpt lat="48.3480790" lon="-1.8741810"><ele></ele><time>2017-12-15T18:58:24Z</time></trkpt>
<trkpt lat="48.3481250" lon="-1.8742580"><ele></ele><time>2017-12-15T18:58:27Z</time></trkpt>
<trkpt lat="48.3481630" lon="-1.8743410"><ele></ele><time>2017-12-15T18:58:30Z</time></trkpt>
<trkpt lat="48.3482050" lon="-1.8744260"><ele></ele><time>2017-12-15T18:58:33Z</time></trkpt>
<trkpt lat="48.3482440" lon="-1.8745050"><ele></ele><time>2017-12-15T18:58:36Z</time></trkpt>
<trkpt lat="48.3482880" lon="-1.8745830"><ele></ele><time>2017-12-15T18:58:39Z</time></trkpt>
<trkpt lat="48.3483300" lon="-1.8746600"><ele></ele><time>2017-12-15T18:58:42Z</time></trkpt>
<trkpt lat="48.3483730" lon="-1.8747300"><ele></ele><time>2017-12-15T18:58:45Z</time></trkpt>
<trkpt lat="48.3484130" lon="-1.8748030"><ele></ele><time>2017-12-15T18:58:48Z</time></trkpt>
<trkpt lat="48.3484550" lon="-1.8748720"><ele></ele><time>2017-12-15T18:58:51Z</time></trkpt>
<trkpt lat="48.3484930" lon="-1.8749420"><ele></ele><time>2017-12-15T18:58:54Z</time></trkpt>
<trkpt lat="48.3485320" lon="-1.8750120"><ele></ele><time>2017-12-15T18:58:57Z</time></trkpt>
<trkpt lat="48.3485690" lon="-1.8750810"><ele></ele><time>2017-12-15T18:59:0Z</time></trkpt>
<trkpt lat="48.3486060" lon="-1.8751510"><ele></ele><time>2017-12-15T18:59:3Z</time></trkpt>
<trkpt lat="48.3486410" lon="-1.8752210"><ele></ele><time>2017-12-15T18:59:6Z</time></trkpt>
<trkpt lat="48.3486760" lon="-1.8752910"><ele></ele><time>2017-12-15T18:59:9Z</time></trkpt>
<trkpt lat="48.3487070" lon="-1.8753690"><ele></ele><time>2017-12-15T18:59:12Z</time></trkpt>
<trkpt lat="48.3487370" lon="-1.8754410"><ele></ele><time>2017-12-15T18:59:15Z</time></trkpt>
<trkpt lat="48.3487700" lon="-1.8755180"><ele></ele><time>2017-12-15T18:59:18Z</time></trkpt>
<trkpt lat="48.3487990" lon="-1.8755940"><ele></ele><time>2017-12-15T18:59:21Z</time></trkpt>
<trkpt lat="48.3488240" lon="-1.8756750"><ele></ele><time>2017-12-15T18:59:24Z</time></trkpt>
<trkpt lat="48.3488470" lon="-1.8757530"><ele></ele><time>2017-12-15T18:59:27Z</time></trkpt>
<trkpt lat="48.3488660" lon="-1.8758330"><ele></ele><time>2017-12-15T18:59:30Z</time></trkpt>
<trkpt lat="48.3488900" lon="-1.8759120"><ele></ele><time>2017-12-15T18:59:33Z</time></trkpt>
<trkpt lat="48.3489120" lon="-1.8759900"><ele></ele><time>2017-12-15T18:59:36Z</time></trkpt>
<trkpt lat="48.3489340" lon="-1.8760660"><ele></ele><time>2017-12-15T18:59:39Z</time></trkpt>
<trkpt lat="48.3489560" lon="-1.8761410"><ele></ele><time>2017-12-15T18:59:42Z</time></trkpt>
<trkpt lat="48.3489770" lon="-1.8762190"><ele></ele><time>2017-12-15T18:59:45Z</time></trkpt>
<trkpt lat="48.3489950" lon="-1.8762920"><ele></ele><time>2017-12-15T18:59:48Z</time></trkpt>
<trkpt lat="48.3490140" lon="-1.8763610"><ele></ele><time>2017-12-15T18:59:51Z</time></trkpt>
<trkpt lat="48.3490330" lon="-1.8764300"><ele></ele><time>2017-12-15T18:59:54Z</time></trkpt>
<trkpt lat="48.3490520" lon="-1.8764990"><ele></ele><time>2017-12-15T18:59:57Z</time></trkpt>
<trkpt lat="48.3490680" lon="-1.8765640"><ele></ele><time>2017-12-15T19:0:0Z</time></trkpt>
<trkpt lat="48.3490860" lon="-1.8766300"><ele></ele><time>2017-12-15T19:0:3Z</time></trkpt>
<trkpt lat="48.3491020" lon="-1.8766920"><ele></ele><time>2017-12-15T19:0:6Z</time></trkpt>
<trkpt lat="48.3491190" lon="-1.8767590"><ele></ele><time>2017-12-15T19:0:9Z</time></trkpt>
<trkpt lat="48.3491390" lon="-1.8768250"><ele></ele><time>2017-12-15T19:0:12Z</time></trkpt>
<trkpt lat="48.3491560" lon="-1.8768880"><ele></ele><time>2017-12-15T19:0:15Z</time></trkpt>
<trkpt lat="48.3491740" lon="-1.8769540"><ele></ele><time>2017-12-15T19:0:18Z</time></trkpt>
<trkpt lat="48.3491940" lon="-1.8770140"><ele></ele><time>2017-12-15T19:0:21Z</time></trkpt>
<trkpt lat="48.3492100" lon="-1.8770750"><ele></ele><time>2017-12-15T19:0:24Z</time></trkpt>
<trkpt lat="48.3492350" lon="-1.8771270"><ele></ele><time>2017-12-15T19:0:27Z</time></trkpt>
<trkpt lat="48.3492600" lon="-1.8771770"><ele></ele><time>2017-12-15T19:0:30Z</time></trkpt>
<trkpt lat="48.3492830" lon="-1.8772250"><ele></ele><time>2017-12-15T19:0:33Z</time></trkpt>
<trkpt lat="48.3493060" lon="-1.8772730"><ele></ele><time>2017-12-15T19:0:36Z</time></trkpt>
<trkpt lat="48.3493270" lon="-1.8773210"><ele></ele><time>2017-12-15T19:0:39Z</time></trkpt>
<trkpt lat="48.3493510" lon="-1.8773690"><ele></ele><time>2017-12-15T19:0:42Z</time></trkpt>
<trkpt lat="48.3493790" lon="-1.8774260"><ele></ele><time>2017-12-15T19:0:45Z</time></trkpt>
<trkpt lat="48.3494110" lon="-1.8774780"><ele></ele><time>2017-12-15T19:0:48Z</time></trkpt>
<trkpt lat="48.3494400" lon="-1.8775280"><ele></ele><time>2017-12-15T19:0:51Z</time></trkpt>
<trkpt lat="48.3494640" lon="-1.8775820"><ele></ele><time>2017-12-15T19:0:54Z</time></trkpt>
<trkpt lat="48.3494910" lon="-1.8776370"><ele></ele><time>2017-12-15T19:0:57Z</time></trkpt>
<trkpt lat="48.3495150" lon="-1.8776870"><ele></ele><time>2017-12-15T19:1:0Z</time></trkpt>
<trkpt lat="48.3495320" lon="-1.8777320"><ele></ele><time>2017-12-15T19:1:3Z</time></trkpt>
<trkpt lat="48.3495560" lon="-1.8777900"><ele></ele><time>2017-12-15T19:1:6Z</time></trkpt>
<trkpt lat="48.3495840" lon="-1.8778430"><ele></ele><time>2017-12-15T19:1:9Z</time></trkpt>
<trkpt lat="48.3496060" lon="-1.8778990"><ele></ele><time>2017-12-15T19:1:12Z</time></trkpt>
<trkpt lat="48.3496280" lon="-1.8779540"><ele></ele><time>2017-12-15T19:1:15Z</time></trkpt>
<trkpt lat="48.3496660" lon="-1.8780070"><ele></ele><time>2017-12-15T19:1:18Z</time></trkpt>
<trkpt lat="48.3496940" lon="-1.8780720"><ele></ele><time>2017-12-15T19:1:21Z</time></trkpt>
<trkpt lat="48.3497180" lon="-1.8781280"><ele></ele><time>2017-12-15T19:1:24Z</time></trkpt>
<trkpt lat="48.3497430" lon="-1.8781830"><ele></ele><time>2017-12-15T19:1:27Z</time></trkpt>
<trkpt lat="48.3497670" lon="-1.8782400"><ele></ele><time>2017-12-15T19:1:30Z</time></trkpt>
<trkpt lat="48.3497900" lon="-1.8782980"><ele></ele><time>2017-12-15T19:1:33Z</time></trkpt>
<trkpt lat="48.3498120" lon="-1.8783570"><ele></ele><time>2017-12-15T19:1:36Z</time></trkpt>
<trkpt lat="48.3498390" lon="-1.8784080"><ele></ele><time>2017-12-15T19:1:39Z</time></trkpt>
<trkpt lat="48.3498680" lon="-1.8784560"><ele></ele><time>2017-12-15T19:1:42Z</time></trkpt>
<trkpt lat="48.3499000" lon="-1.8785000"><ele></ele><time>2017-12-15T19:1:45Z</time></trkpt>
<trkpt lat="48.3499270" lon="-1.8785430"><ele></ele><time>2017-12-15T19:1:48Z</time></trkpt>
<trkpt lat="48.3499450" lon="-1.8785930"><ele></ele><time>2017-12-15T19:1:51Z</time></trkpt>
<trkpt lat="48.3499550" lon="-1.8786340"><ele></ele><time>2017-12-15T19:1:54Z</time></trkpt>
<trkpt lat="48.3499520" lon="-1.8786800"><ele></ele><time>2017-12-15T19:1:57Z</time></trkpt>
<trkpt lat="48.3499320" lon="-1.8787080"><ele></ele><time>2017-12-15T19:2:0Z</time></trkpt>
<trkpt lat="48.3498690" lon="-1.8787220"><ele></ele><time>2017-12-15T19:2:3Z</time></trkpt>
<trkpt lat="48.3498310" lon="-1.8787180"><ele></ele><time>2017-12-15T19:2:6Z</time></trkpt>
<trkpt lat="48.3497950" lon="-1.8787140"><ele></ele><time>2017-12-15T19:2:9Z</time></trkpt>
<trkpt lat="48.3497640" lon="-1.8787230"><ele></ele><time>2017-12-15T19:2:12Z</time></trkpt>
<trkpt lat="48.3497380" lon="-1.8787340"><ele></ele><time>2017-12-15T19:2:15Z</time></trkpt>
<trkpt lat="48.3496640" lon="-1.8787480"><ele></ele><time>2017-12-15T19:2:18Z</time></trkpt>
<trkpt lat="48.3495990" lon="-1.8787480"><ele></ele><time>2017-12-15T19:2:21Z</time></trkpt>
<trkpt lat="48.3495660" lon="-1.8787590"><ele></ele><time>2017-12-15T19:2:24Z</time></trkpt>
<trkpt lat="48.3495320" lon="-1.8787560"><ele></ele><time>2017-12-15T19:2:27Z</time></trkpt>
<trkpt lat="48.3494820" lon="-1.8787440"><ele></ele><time>2017-12-15T19:2:30Z</time></trkpt>
<trkpt lat="48.3494450" lon="-1.8787040"><ele></ele><time>2017-12-15T19:2:33Z</time></trkpt>
<trkpt lat="48.3493920" lon="-1.8786800"><ele></ele><time>2017-12-15T19:2:36Z</time></trkpt>
<trkpt lat="48.3493340" lon="-1.8786490"><ele></ele><time>2017-12-15T19:2:39Z</time></trkpt>
<trkpt lat="48.3492940" lon="-1.8786550"><ele></ele><time>2017-12-15T19:2:42Z</time></trkpt>
<trkpt lat="48.3492550" lon="-1.8786800"><ele></ele><time>2017-12-15T19:2:45Z</time></trkpt>
<trkpt lat="48.3492250" lon="-1.8786950"><ele></ele><time>2017-12-15T19:2:48Z</time></trkpt>
<trkpt lat="48.3492290" lon="-1.8787480"><ele></ele><time>2017-12-15T19:2:51Z</time></trkpt>
<trkpt lat="48.3492480" lon="-1.8788220"><ele></ele><time>2017-12-15T19:2:54Z</time></trkpt>
<trkpt lat="48.3492590" lon="-1.8788820"><ele></ele><time>2017-12-15T19:2:57Z</time></trkpt>
<trkpt lat="48.3492650" lon="-1.8789330"><ele></ele><time>2017-12-15T19:3:0Z</time></trkpt>
<trkpt lat="48.3492600" lon="-1.8789960"><ele></ele><time>2017-12-15T19:3:3Z</time></trkpt>
<trkpt lat="48.3492620" lon="-1.8790640"><ele></ele><time>2017-12-15T19:3:6Z</time></trkpt>
<trkpt lat="48.3492700" lon="-1.8791170"><ele></ele><time>2017-12-15T19:3:9Z</time></trkpt>
<trkpt lat="48.3492840" lon="-1.8791550"><ele></ele><time>2017-12-15T19:3:12Z</time></trkpt>
<trkpt lat="48.3492820" lon="-1.8792000"><ele></ele><time>2017-12-15T19:3:15Z</time></trkpt>
<trkpt lat="48.3492820" lon="-1.8792650"><ele></ele><time>2017-12-15T19:3:18Z</time></trkpt>
<trkpt lat="48.3492920" lon="-1.8793210"><ele></ele><time>2017-12-15T19:3:21Z</time></trkpt>
<trkpt lat="48.3492970" lon="-1.8793800"><ele></ele><time>2017-12-15T19:3:24Z</time></trkpt>
<trkpt lat="48.3493030" lon="-1.8794330"><ele></ele><time>2017-12-15T19:3:27Z</time></trkpt>
<trkpt lat="48.3493070" lon="-1.8794770"><ele></ele><time>2017-12-15T19:3:30Z</time></trkpt>
<trkpt lat="48.3493070" lon="-1.8795340"><ele></ele><time>2017-12-15T19:3:33Z</time></trkpt>
<trkpt lat="48.3493040" lon="-1.8796020"><ele></ele><time>2017-12-15T19:3:36Z</time></trkpt>
<trkpt lat="48.3493090" lon="-1.8796580"><ele></ele><time>2017-12-15T19:3:39Z</time></trkpt>
<trkpt lat="48.3493150" lon="-1.8797080"><ele></ele><time>2017-12-15T19:3:42Z</time></trkpt>
<trkpt lat="48.3493210" lon="-1.8797630"><ele></ele><time>2017-12-15T19:3:45Z</time></trkpt>
<trkpt lat="48.3493230" lon="-1.8798200"><ele></ele><time>2017-12-15T19:3:48Z</time></trkpt>
<trkpt lat="48.3493340" lon="-1.8798610"><ele></ele><time>2017-12-15T19:3:51Z</time></trkpt>
<trkpt lat="48.3493280" lon="-1.8799670"><ele></ele><time>2017-12-15T19:3:54Z</time></trkpt>
<trkpt lat="48.3493390" lon="-1.8800270"><ele></ele><time>2017-12-15T19:3:57Z</time></trkpt>
<trkpt lat="48.3493670" lon="-1.8800650"><ele></ele><time>2017-12-15T19:4:0Z</time></trkpt>
<trkpt lat="48.3493690" lon="-1.8801190"><ele></ele><time>2017-12-15T19:4:3Z</time></trkpt>
<trkpt lat="48.3493740" lon="-1.8801670"><ele></ele><time>2017-12-15T19:4:6Z</time></trkpt>
<trkpt lat="48.3493720" lon="-1.8802100"><ele></ele><time>2017-12-15T19:4:9Z</time></trkpt>
<trkpt lat="48.3493560" lon="-1.8802580"><ele></ele><time>2017-12-15T19:4:12Z</time></trkpt>
<trkpt lat="48.3493640" lon="-1.8803210"><ele></ele><time>2017-12-15T19:4:15Z</time></trkpt>
<trkpt lat="48.3493790" lon="-1.8803990"><ele></ele><time>2017-12-15T19:4:18Z</time></trkpt>
<trkpt lat="48.3493750" lon="-1.8804530"><ele></ele><time>2017-12-15T19:4:21Z</time></trkpt>
<trkpt lat="48.3493810" lon="-1.8805030"><ele></ele><time>2017-12-15T19:4:24Z</time></trkpt>
<trkpt lat="48.3493820" lon="-1.8805520"><ele></ele><time>2017-12-15T19:4:27Z</time></trkpt>
<trkpt lat="48.3493890" lon="-1.8806070"><ele></ele><time>2017-12-15T19:4:30Z</time></trkpt>
<trkpt lat="48.3493870" lon="-1.8806570"><ele></ele><time>2017-12-15T19:4:33Z</time></trkpt>
<trkpt lat="48.3493870" lon="-1.8807080"><ele></ele><time>2017-12-15T19:4:36Z</time></trkpt>
<trkpt lat="48.3493840" lon="-1.8807620"><ele></ele><time>2017-12-15T19:4:39Z</time></trkpt>
<trkpt lat="48.3493820" lon="-1.8808190"><ele></ele><time>2017-12-15T19:4:42Z</time></trkpt>
<trkpt lat="48.3493810" lon="-1.8808700"><ele></ele><time>2017-12-15T19:4:45Z</time></trkpt>
<trkpt lat="48.3493750" lon="-1.8809370"><ele></ele><time>2017-12-15T19:4:48Z</time></trkpt>
<trkpt lat="48.3493750" lon="-1.8809990"><ele></ele><time>2017-12-15T19:4:51Z</time></trkpt>
<trkpt lat="48.3493670" lon="-1.8810640"><ele></ele><time>2017-12-15T19:4:54Z</time></trkpt>
<trkpt lat="48.3493650" lon="-1.8811250"><ele></ele><time>2017-12-15T19:4:57Z</time></trkpt>
<trkpt lat="48.3493640" lon="-1.8811970"><ele></ele><time>2017-12-15T19:5:0Z</time></trkpt>
<trkpt lat="48.3493610" lon="-1.8812680"><ele></ele><time>2017-12-15T19:5:3Z</time></trkpt>
<trkpt lat="48.3493560" lon="-1.8813440"><ele></ele><time>2017-12-15T19:5:6Z</time></trkpt>
<trkpt lat="48.3493530" lon="-1.8814170"><ele></ele><time>2017-12-15T19:5:9Z</time></trkpt>
<trkpt lat="48.3493490" lon="-1.8814890"><ele></ele><time>2017-12-15T19:5:12Z</time></trkpt>
<trkpt lat="48.3493420" lon="-1.8815600"><ele></ele><time>2017-12-15T19:5:15Z</time></trkpt>
<trkpt lat="48.3493390" lon="-1.8816330"><ele></ele><time>2017-12-15T19:5:18Z</time></trkpt>
<trkpt lat="48.3493330" lon="-1.8817010"><ele></ele><time>2017-12-15T19:5:21Z</time></trkpt>
<trkpt lat="48.3493220" lon="-1.8817660"><ele></ele><time>2017-12-15T19:5:24Z</time></trkpt>
<trkpt lat="48.3493060" lon="-1.8818280"><ele></ele><time>2017-12-15T19:5:27Z</time></trkpt>
<trkpt lat="48.3492960" lon="-1.8818910"><ele></ele><time>2017-12-15T19:5:30Z</time></trkpt>
<trkpt lat="48.3492890" lon="-1.8819530"><ele></ele><time>2017-12-15T19:5:33Z</time></trkpt>
<trkpt lat="48.3492780" lon="-1.8820140"><ele></ele><time>2017-12-15T19:5:36Z</time></trkpt>
<trkpt lat="48.3492680" lon="-1.8820780"><ele></ele><time>2017-12-15T19:5:39Z</time></trkpt>
<trkpt lat="48.3492540" lon="-1.8821430"><ele></ele><time>2017-12-15T19:5:42Z</time></trkpt>
<trkpt lat="48.3492410" lon="-1.8822090"><ele></ele><time>2017-12-15T19:5:45Z</time></trkpt>
<trkpt lat="48.3492250" lon="-1.8822710"><ele></ele><time>2017-12-15T19:5:48Z</time></trkpt>
<trkpt lat="48.3492100" lon="-1.8823360"><ele></ele><time>2017-12-15T19:5:51Z</time></trkpt>
<trkpt lat="48.3491970" lon="-1.8823970"><ele></ele><time>2017-12-15T19:5:54Z</time></trkpt>
<trkpt lat="48.3491830" lon="-1.8824520"><ele></ele><time>2017-12-15T19:5:57Z</time></trkpt>
<trkpt lat="48.3491650" lon="-1.8825020"><ele></ele><time>2017-12-15T19:6:0Z</time></trkpt>
<trkpt lat="48.3491400" lon="-1.8825390"><ele></ele><time>2017-12-15T19:6:3Z</time></trkpt>
<trkpt lat="48.3491080" lon="-1.8825580"><ele></ele><time>2017-12-15T19:6:6Z</time></trkpt>
<trkpt lat="48.3490700" lon="-1.8825490"><ele></ele><time>2017-12-15T19:6:9Z</time></trkpt>
<trkpt lat="48.3490370" lon="-1.8825200"><ele></ele><time>2017-12-15T19:6:12Z</time></trkpt>
<trkpt lat="48.3490030" lon="-1.8824850"><ele></ele><time>2017-12-15T19:6:15Z</time></trkpt>
<trkpt lat="48.3489670" lon="-1.8824570"><ele></ele><time>2017-12-15T19:6:18Z</time></trkpt>
<trkpt lat="48.3489330" lon="-1.8824250"><ele></ele><time>2017-12-15T19:6:21Z</time></trkpt>
<trkpt lat="48.3488970" lon="-1.8823960"><ele></ele><time>2017-12-15T19:6:24Z</time></trkpt>
<trkpt lat="48.3488630" lon="-1.8823750"><ele></ele><time>2017-12-15T19:6:27Z</time></trkpt>
<trkpt lat="48.3488280" lon="-1.8823530"><ele></ele><time>2017-12-15T19:6:30Z</time></trkpt>
<trkpt lat="48.3487900" lon="-1.8823290"><ele></ele><time>2017-12-15T19:6:33Z</time></trkpt>
<trkpt lat="48.3487520" lon="-1.8823090"><ele></ele><time>2017-12-15T19:6:36Z</time></trkpt>
<trkpt lat="48.3487130" lon="-1.8822880"><ele></ele><time>2017-12-15T19:6:39Z</time></trkpt>
<trkpt lat="48.3486720" lon="-1.8822700"><ele></ele><time>2017-12-15T19:6:42Z</time></trkpt>
<trkpt lat="48.3486340" lon="-1.8822500"><ele></ele><time>2017-12-15T19:6:45Z</time></trkpt>
<trkpt lat="48.3485930" lon="-1.8822340"><ele></ele><time>2017-12-15T19:6:48Z</time></trkpt>
<trkpt lat="48.3485520" lon="-1.8822180"><ele></ele><time>2017-12-15T19:6:51Z</time></trkpt>
<trkpt lat="48.3485120" lon="-1.8821970"><ele></ele><time>2017-12-15T19:6:54Z</time></trkpt>
<trkpt lat="48.3484690" lon="-1.8821800"><ele></ele><time>2017-12-15T19:6:57Z</time></trkpt>
<trkpt lat="48.3484260" lon="-1.8821640"><ele></ele><time>2017-12-15T19:7:0Z</time></trkpt>
<trkpt lat="48.3483830" lon="-1.8821460"><ele></ele><time>2017-12-15T19:7:3Z</time></trkpt>
<trkpt lat="48.3483380" lon="-1.8821350"><ele></ele><time>2017-12-15T19:7:6Z</time></trkpt>
<trkpt lat="48.3482930" lon="-1.8821310"><ele></ele><time>2017-12-15T19:7:9Z</time></trkpt>
<trkpt lat="48.3482480" lon="-1.8821310"><ele></ele><time>2017-12-15T19:7:12Z</time></trkpt>
<trkpt lat="48.3482040" lon="-1.8821310"><ele></ele><time>2017-12-15T19:7:15Z</time></trkpt>
<trkpt lat="48.3481580" lon="-1.8821290"><ele></ele><time>2017-12-15T19:7:18Z</time></trkpt>
<trkpt lat="48.3481120" lon="-1.8821260"><ele></ele><time>2017-12-15T19:7:21Z</time></trkpt>
<trkpt lat="48.3480670" lon="-1.8821220"><ele></ele><time>2017-12-15T19:7:24Z</time></trkpt>
<trkpt lat="48.3480190" lon="-1.8821210"><ele></ele><time>2017-12-15T19:7:27Z</time></trkpt>
<trkpt lat="48.3479730" lon="-1.8821250"><ele></ele><time>2017-12-15T19:7:30Z</time></trkpt>
<trkpt lat="48.3479300" lon="-1.8821310"><ele></ele><time>2017-12-15T19:7:33Z</time></trkpt>
<trkpt lat="48.3478830" lon="-1.8821300"><ele></ele><time>2017-12-15T19:7:36Z</time></trkpt>
<trkpt lat="48.3478380" lon="-1.8821290"><ele></ele><time>2017-12-15T19:7:39Z</time></trkpt>
<trkpt lat="48.3477920" lon="-1.8821320"><ele></ele><time>2017-12-15T19:7:42Z</time></trkpt>
<trkpt lat="48.3477480" lon="-1.8821310"><ele></ele><time>2017-12-15T19:7:45Z</time></trkpt>
<trkpt lat="48.3477020" lon="-1.8821330"><ele></ele><time>2017-12-15T19:7:48Z</time></trkpt>
<trkpt lat="48.3476540" lon="-1.8821390"><ele></ele><time>2017-12-15T19:7:51Z</time></trkpt>
<trkpt lat="48.3476100" lon="-1.8821400"><ele></ele><time>2017-12-15T19:7:54Z</time></trkpt>
<trkpt lat="48.3475640" lon="-1.8821380"><ele></ele><time>2017-12-15T19:7:57Z</time></trkpt>
<trkpt lat="48.3475160" lon="-1.8821360"><ele></ele><time>2017-12-15T19:8:0Z</time></trkpt>
<trkpt lat="48.3474700" lon="-1.8821370"><ele></ele><time>2017-12-15T19:8:3Z</time></trkpt>
<trkpt lat="48.3474270" lon="-1.8821400"><ele></ele><time>2017-12-15T19:8:6Z</time></trkpt>
<trkpt lat="48.3473830" lon="-1.8821410"><ele></ele><time>2017-12-15T19:8:9Z</time></trkpt>
<trkpt lat="48.3473400" lon="-1.8821440"><ele></ele><time>2017-12-15T19:8:12Z</time></trkpt>
<trkpt lat="48.3472970" lon="-1.8821470"><ele></ele><time>2017-12-15T19:8:15Z</time></trkpt>
<trkpt lat="48.3472520" lon="-1.8821480"><ele></ele><time>2017-12-15T19:8:18Z</time></trkpt>
<trkpt lat="48.3472100" lon="-1.8821520"><ele></ele><time>2017-12-15T19:8:21Z</time></trkpt>
<trkpt lat="48.3471690" lon="-1.8821500"><ele></ele><time>2017-12-15T19:8:24Z</time></trkpt>
<trkpt lat="48.3471270" lon="-1.8821470"><ele></ele><time>2017-12-15T19:8:27Z</time></trkpt>
<trkpt lat="48.3470860" lon="-1.8821450"><ele></ele><time>2017-12-15T19:8:30Z</time></trkpt>
<trkpt lat="48.3470530" lon="-1.8821590"><ele></ele><time>2017-12-15T19:8:33Z</time></trkpt>
<trkpt lat="48.3470290" lon="-1.8821990"><ele></ele><time>2017-12-15T19:8:36Z</time></trkpt>
<trkpt lat="48.3470140" lon="-1.8822500"><ele></ele><time>2017-12-15T19:8:39Z</time></trkpt>
<trkpt lat="48.3470180" lon="-1.8823030"><ele></ele><time>2017-12-15T19:8:42Z</time></trkpt>
<trkpt lat="48.3470150" lon="-1.8823560"><ele></ele><time>2017-12-15T19:8:45Z</time></trkpt>
<trkpt lat="48.3470110" lon="-1.8824090"><ele></ele><time>2017-12-15T19:8:48Z</time></trkpt>
<trkpt lat="48.3470030" lon="-1.8824670"><ele></ele><time>2017-12-15T19:8:51Z</time></trkpt>
<trkpt lat="48.3469960" lon="-1.8825250"><ele></ele><time>2017-12-15T19:8:54Z</time></trkpt>
<trkpt lat="48.3469840" lon="-1.8825840"><ele></ele><time>2017-12-15T19:8:57Z</time></trkpt>
<trkpt lat="48.3469710" lon="-1.8826380"><ele></ele><time>2017-12-15T19:9:0Z</time></trkpt>
<trkpt lat="48.3469630" lon="-1.8826970"><ele></ele><time>2017-12-15T19:9:3Z</time></trkpt>
<trkpt lat="48.3469500" lon="-1.8827570"><ele></ele><time>2017-12-15T19:9:6Z</time></trkpt>
<trkpt lat="48.3469430" lon="-1.8828080"><ele></ele><time>2017-12-15T19:9:9Z</time></trkpt>
<trkpt lat="48.3469320" lon="-1.8828640"><ele></ele><time>2017-12-15T19:9:12Z</time></trkpt>
<trkpt lat="48.3469200" lon="-1.8829210"><ele></ele><time>2017-12-15T19:9:15Z</time></trkpt>
<trkpt lat="48.3469090" lon="-1.8829790"><ele></ele><time>2017-12-15T19:9:18Z</time></trkpt>
<trkpt lat="48.3468910" lon="-1.8830370"><ele></ele><time>2017-12-15T19:9:21Z</time></trkpt>
<trkpt lat="48.3468760" lon="-1.8830970"><ele></ele><time>2017-12-15T19:9:24Z</time></trkpt>
<trkpt lat="48.3468640" lon="-1.8831550"><ele></ele><time>2017-12-15T19:9:27Z</time></trkpt>
<trkpt lat="48.3468450" lon="-1.8832070"><ele></ele><time>2017-12-15T19:9:30Z</time></trkpt>
<trkpt lat="48.3468340" lon="-1.8832610"><ele></ele><time>2017-12-15T19:9:33Z</time></trkpt>
<trkpt lat="48.3468260" lon="-1.8833110"><ele></ele><time>2017-12-15T19:9:36Z</time></trkpt>
<trkpt lat="48.3468120" lon="-1.8833590"><ele></ele><time>2017-12-15T19:9:39Z</time></trkpt>
<trkpt lat="48.3467980" lon="-1.8834080"><ele></ele><time>2017-12-15T19:9:42Z</time></trkpt>
<trkpt lat="48.3467880" lon="-1.8834530"><ele></ele><time>2017-12-15T19:9:45Z</time></trkpt>
<trkpt lat="48.3467710" lon="-1.8835000"><ele></ele><time>2017-12-15T19:9:48Z</time></trkpt>
<trkpt lat="48.3467580" lon="-1.8835500"><ele></ele><time>2017-12-15T19:9:51Z</time></trkpt>
<trkpt lat="48.3467450" lon="-1.8836010"><ele></ele><time>2017-12-15T19:9:54Z</time></trkpt>
<trkpt lat="48.3467360" lon="-1.8836520"><ele></ele><time>2017-12-15T19:9:57Z</time></trkpt>
<trkpt lat="48.3467230" lon="-1.8837020"><ele></ele><time>2017-12-15T19:10:0Z</time></trkpt>
<trkpt lat="48.3467040" lon="-1.8837510"><ele></ele><time>2017-12-15T19:10:3Z</time></trkpt>
<trkpt lat="48.3466910" lon="-1.8838020"><ele></ele><time>2017-12-15T19:10:6Z</time></trkpt>
<trkpt lat="48.3466730" lon="-1.8838510"><ele></ele><time>2017-12-15T19:10:9Z</time></trkpt>
<trkpt lat="48.3466540" lon="-1.8839000"><ele></ele><time>2017-12-15T19:10:12Z</time></trkpt>
<trkpt lat="48.3466390" lon="-1.8839480"><ele></ele><time>2017-12-15T19:10:15Z</time></trkpt>
<trkpt lat="48.3466230" lon="-1.8839930"><ele></ele><time>2017-12-15T19:10:18Z</time></trkpt>
<trkpt lat="48.3466110" lon="-1.8840380"><ele></ele><time>2017-12-15T19:10:21Z</time></trkpt>
<trkpt lat="48.3465980" lon="-1.8840870"><ele></ele><time>2017-12-15T19:10:24Z</time></trkpt>
<trkpt lat="48.3465860" lon="-1.8841360"><ele></ele><time>2017-12-15T19:10:27Z</time></trkpt>
<trkpt lat="48.3465690" lon="-1.8841860"><ele></ele><time>2017-12-15T19:10:30Z</time></trkpt>
<trkpt lat="48.3465540" lon="-1.8842340"><ele></ele><time>2017-12-15T19:10:33Z</time></trkpt>
<trkpt lat="48.3465380" lon="-1.8842810"><ele></ele><time>2017-12-15T19:10:36Z</time></trkpt>
<trkpt lat="48.3465240" lon="-1.8843310"><ele></ele><time>2017-12-15T19:10:39Z</time></trkpt>
<trkpt lat="48.3465080" lon="-1.8843820"><ele></ele><time>2017-12-15T19:10:42Z</time></trkpt>
<trkpt lat="48.3464940" lon="-1.8844300"><ele></ele><time>2017-12-15T19:10:45Z</time></trkpt>
<trkpt lat="48.3464800" lon="-1.8844770"><ele></ele><time>2017-12-15T19:10:48Z</time></trkpt>
<trkpt lat="48.3464690" lon="-1.8845240"><ele></ele><time>2017-12-15T19:10:51Z</time></trkpt>
<trkpt lat="48.3464490" lon="-1.8845680"><ele></ele><time>2017-12-15T19:10:54Z</time></trkpt>
<trkpt lat="48.3464310" lon="-1.8846100"><ele></ele><time>2017-12-15T19:10:57Z</time></trkpt>
<trkpt lat="48.3464150" lon="-1.8846550"><ele></ele><time>2017-12-15T19:11:0Z</time></trkpt>
<trkpt lat="48.3464120" lon="-1.8847120"><ele></ele><time>2017-12-15T19:11:3Z</time></trkpt>
<trkpt lat="48.3464090" lon="-1.8847560"><ele></ele><time>2017-12-15T19:11:6Z</time></trkpt>
<trkpt lat="48.3463990" lon="-1.8848030"><ele></ele><time>2017-12-15T19:11:9Z</time></trkpt>
<trkpt lat="48.3463810" lon="-1.8848480"><ele></ele><time>2017-12-15T19:11:12Z</time></trkpt>
<trkpt lat="48.3463720" lon="-1.8848970"><ele></ele><time>2017-12-15T19:11:15Z</time></trkpt>
<trkpt lat="48.3463680" lon="-1.8849530"><ele></ele><time>2017-12-15T19:11:18Z</time></trkpt>
<trkpt lat="48.3463660" lon="-1.8850080"><ele></ele><time>2017-12-15T19:11:21Z</time></trkpt>
<trkpt lat="48.3463660" lon="-1.8850620"><ele></ele><time>2017-12-15T19:11:24Z</time></trkpt>
<trkpt lat="48.3463560" lon="-1.8851240"><ele></ele><time>2017-12-15T19:11:27Z</time></trkpt>
<trkpt lat="48.3463520" lon="-1.8851730"><ele></ele><time>2017-12-15T19:11:30Z</time></trkpt>
<trkpt lat="48.3463570" lon="-1.8852270"><ele></ele><time>2017-12-15T19:11:33Z</time></trkpt>
<trkpt lat="48.3463690" lon="-1.8852850"><ele></ele><time>2017-12-15T19:11:36Z</time></trkpt>
<trkpt lat="48.3463690" lon="-1.8853430"><ele></ele><time>2017-12-15T19:11:39Z</time></trkpt>
<trkpt lat="48.3463710" lon="-1.8853980"><ele></ele><time>2017-12-15T19:11:42Z</time></trkpt>
<trkpt lat="48.3463750" lon="-1.8854510"><ele></ele><time>2017-12-15T19:11:45Z</time></trkpt>
<trkpt lat="48.3463800" lon="-1.8854960"><ele></ele><time>2017-12-15T19:11:48Z</time></trkpt>
<trkpt lat="48.3463870" lon="-1.8855470"><ele></ele><time>2017-12-15T19:11:51Z</time></trkpt>
<trkpt lat="48.3464000" lon="-1.8856020"><ele></ele><time>2017-12-15T19:11:54Z</time></trkpt>
<trkpt lat="48.3464110" lon="-1.8856590"><ele></ele><time>2017-12-15T19:11:57Z</time></trkpt>
<trkpt lat="48.3464090" lon="-1.8857140"><ele></ele><time>2017-12-15T19:12:0Z</time></trkpt>
<trkpt lat="48.3464170" lon="-1.8857740"><ele></ele><time>2017-12-15T19:12:3Z</time></trkpt>
<trkpt lat="48.3464230" lon="-1.8858340"><ele></ele><time>2017-12-15T19:12:6Z</time></trkpt>
<trkpt lat="48.3464300" lon="-1.8858960"><ele></ele><time>2017-12-15T19:12:9Z</time></trkpt>
<trkpt lat="48.3464420" lon="-1.8859520"><ele></ele><time>2017-12-15T19:12:12Z</time></trkpt>
<trkpt lat="48.3464450" lon="-1.8860160"><ele></ele><time>2017-12-15T19:12:15Z</time></trkpt>
<trkpt lat="48.3464620" lon="-1.8860710"><ele></ele><time>2017-12-15T19:12:18Z</time></trkpt>
<trkpt lat="48.3464590" lon="-1.8861260"><ele></ele><time>2017-12-15T19:12:21Z</time></trkpt>
<trkpt lat="48.3464530" lon="-1.8861820"><ele></ele><time>2017-12-15T19:12:24Z</time></trkpt>
<trkpt lat="48.3464530" lon="-1.8862340"><ele></ele><time>2017-12-15T19:12:27Z</time></trkpt>
<trkpt lat="48.3464420" lon="-1.8862840"><ele></ele><time>2017-12-15T19:12:30Z</time></trkpt>
<trkpt lat="48.3464300" lon="-1.8863400"><ele></ele><time>2017-12-15T19:12:33Z</time></trkpt>
<trkpt lat="48.3464240" lon="-1.8863950"><ele></ele><time>2017-12-15T19:12:36Z</time></trkpt>
<trkpt lat="48.3464130" lon="-1.8864550"><ele></ele><time>2017-12-15T19:12:39Z</time></trkpt>
<trkpt lat="48.3464140" lon="-1.8865070"><ele></ele><time>2017-12-15T19:12:42Z</time></trkpt>
<trkpt lat="48.3464280" lon="-1.8865670"><ele></ele><time>2017-12-15T19:12:45Z</time></trkpt>
<trkpt lat="48.3464420" lon="-1.8866240"><ele></ele><time>2017-12-15T19:12:48Z</time></trkpt>
<trkpt lat="48.3464740" lon="-1.8866740"><ele></ele><time>2017-12-15T19:12:51Z</time></trkpt>
<trkpt lat="48.3465010" lon="-1.8867200"><ele></ele><time>2017-12-15T19:12:54Z</time></trkpt>
<trkpt lat="48.3465270" lon="-1.8867580"><ele></ele><time>2017-12-15T19:12:57Z</time></trkpt>
<trkpt lat="48.3465530" lon="-1.8868020"><ele></ele><time>2017-12-15T19:13:0Z</time></trkpt>
<trkpt lat="48.3465840" lon="-1.8868430"><ele></ele><time>2017-12-15T19:13:3Z</time></trkpt>
<trkpt lat="48.3466130" lon="-1.8868850"><ele></ele><time>2017-12-15T19:13:6Z</time></trkpt>
<trkpt lat="48.3466360" lon="-1.8869200"><ele></ele><time>2017-12-15T19:13:9Z</time></trkpt>
<trkpt lat="48.3466620" lon="-1.8869640"><ele></ele><time>2017-12-15T19:13:12Z</time></trkpt>
<trkpt lat="48.3466830" lon="-1.8870080"><ele></ele><time>2017-12-15T19:13:15Z</time></trkpt>
<trkpt lat="48.3467080" lon="-1.8870600"><ele></ele><time>2017-12-15T19:13:18Z</time></trkpt>
<trkpt lat="48.3467340" lon="-1.8871110"><ele></ele><time>2017-12-15T19:13:21Z</time></trkpt>
<trkpt lat="48.3467580" lon="-1.8871600"><ele></ele><time>2017-12-15T19:13:24Z</time></trkpt>
<trkpt lat="48.3467760" lon="-1.8872170"><ele></ele><time>2017-12-15T19:13:27Z</time></trkpt>
<trkpt lat="48.3467890" lon="-1.8872800"><ele></ele><time>2017-12-15T19:13:30Z</time></trkpt>
<trkpt lat="48.3467990" lon="-1.8873400"><ele></ele><time>2017-12-15T19:13:33Z</time></trkpt>
<trkpt lat="48.3468090" lon="-1.8873950"><ele></ele><time>2017-12-15T19:13:36Z</time></trkpt>
<trkpt lat="48.3468190" lon="-1.8874470"><ele></ele><time>2017-12-15T19:13:39Z</time></trkpt>
<trkpt lat="48.3468300" lon="-1.8875040"><ele></ele><time>2017-12-15T19:13:42Z</time></trkpt>
<trkpt lat="48.3468400" lon="-1.8875550"><ele></ele><time>2017-12-15T19:13:45Z</time></trkpt>
<trkpt lat="48.3468500" lon="-1.8876060"><ele></ele><time>2017-12-15T19:13:48Z</time></trkpt>
<trkpt lat="48.3468590" lon="-1.8876570"><ele></ele><time>2017-12-15T19:13:51Z</time></trkpt>
<trkpt lat="48.3468700" lon="-1.8877080"><ele></ele><time>2017-12-15T19:13:54Z</time></trkpt>
<trkpt lat="48.3468800" lon="-1.8877520"><ele></ele><time>2017-12-15T19:13:57Z</time></trkpt>
<trkpt lat="48.3468870" lon="-1.8878030"><ele></ele><time>2017-12-15T19:14:0Z</time></trkpt>
<trkpt lat="48.3468950" lon="-1.8878460"><ele></ele><time>2017-12-15T19:14:3Z</time></trkpt>
<trkpt lat="48.3469040" lon="-1.8878860"><ele></ele><time>2017-12-15T19:14:6Z</time></trkpt>
<trkpt lat="48.3469100" lon="-1.8879360"><ele></ele><time>2017-12-15T19:14:9Z</time></trkpt>
<trkpt lat="48.3469150" lon="-1.8879820"><ele></ele><time>2017-12-15T19:14:12Z</time></trkpt>
<trkpt lat="48.3469230" lon="-1.8880260"><ele></ele><time>2017-12-15T19:14:15Z</time></trkpt>
<trkpt lat="48.3469400" lon="-1.8881070"><ele></ele><time>2017-12-15T19:14:18Z</time></trkpt>
<trkpt lat="48.3469470" lon="-1.8881620"><ele></ele><time>2017-12-15T19:14:21Z</time></trkpt>
<trkpt lat="48.3469600" lon="-1.8882080"><ele></ele><time>2017-12-15T19:14:24Z</time></trkpt>
<trkpt lat="48.3469750" lon="-1.8882460"><ele></ele><time>2017-12-15T19:14:27Z</time></trkpt>
<trkpt lat="48.3469650" lon="-1.8883200"><ele></ele><time>2017-12-15T19:14:30Z</time></trkpt>
<trkpt lat="48.3469550" lon="-1.8883590"><ele></ele><time>2017-12-15T19:14:33Z</time></trkpt>
<trkpt lat="48.3469560" lon="-1.8884030"><ele></ele><time>2017-12-15T19:14:36Z</time></trkpt>
<trkpt lat="48.3469680" lon="-1.8884420"><ele></ele><time>2017-12-15T19:14:39Z</time></trkpt>
<trkpt lat="48.3469840" lon="-1.8884910"><ele></ele><time>2017-12-15T19:14:42Z</time></trkpt>
<trkpt lat="48.3470010" lon="-1.8885460"><ele></ele><time>2017-12-15T19:14:45Z</time></trkpt>
<trkpt lat="48.3470220" lon="-1.8886180"><ele></ele><time>2017-12-15T19:14:48Z</time></trkpt>
<trkpt lat="48.3470420" lon="-1.8886770"><ele></ele><time>2017-12-15T19:14:51Z</time></trkpt>
<trkpt lat="48.3470660" lon="-1.8887270"><ele></ele><time>2017-12-15T19:14:54Z</time></trkpt>
<trkpt lat="48.3470820" lon="-1.8887750"><ele></ele><time>2017-12-15T19:14:57Z</time></trkpt>
<trkpt lat="48.3471010" lon="-1.8888320"><ele></ele><time>2017-12-15T19:15:0Z</time></trkpt>
<trkpt lat="48.3471170" lon="-1.8888900"><ele></ele><time>2017-12-15T19:15:3Z</time></trkpt>
<trkpt lat="48.3471380" lon="-1.8889440"><ele></ele><time>2017-12-15T19:15:6Z</time></trkpt>
<trkpt lat="48.3471580" lon="-1.8889950"><ele></ele><time>2017-12-15T19:15:9Z</time></trkpt>
<trkpt lat="48.3471750" lon="-1.8890460"><ele></ele><time>2017-12-15T19:15:12Z</time></trkpt>
<trkpt lat="48.3471910" lon="-1.8890950"><ele></ele><time>2017-12-15T19:15:15Z</time></trkpt>
<trkpt lat="48.3472070" lon="-1.8891380"><ele></ele><time>2017-12-15T19:15:18Z</time></trkpt>
<trkpt lat="48.3472240" lon="-1.8891880"><ele></ele><time>2017-12-15T19:15:21Z</time></trkpt>
<trkpt lat="48.3472390" lon="-1.8892420"><ele></ele><time>2017-12-15T19:15:24Z</time></trkpt>
<trkpt lat="48.3472550" lon="-1.8892920"><ele></ele><time>2017-12-15T19:15:27Z</time></trkpt>
<trkpt lat="48.3472590" lon="-1.8893560"><ele></ele><time>2017-12-15T19:15:30Z</time></trkpt>
<trkpt lat="48.3472710" lon="-1.8894020"><ele></ele><time>2017-12-15T19:15:33Z</time></trkpt>
<trkpt lat="48.3472990" lon="-1.8894300"><ele></ele><time>2017-12-15T19:15:36Z</time></trkpt>
<trkpt lat="48.3473220" lon="-1.8895100"><ele></ele><time>2017-12-15T19:15:39Z</time></trkpt>
<trkpt lat="48.3473370" lon="-1.8895600"><ele></ele><time>2017-12-15T19:15:42Z</time></trkpt>
<trkpt lat="48.3473540" lon="-1.8896090"><ele></ele><time>2017-12-15T19:15:45Z</time></trkpt>
<trkpt lat="48.3473680" lon="-1.8896580"><ele></ele><time>2017-12-15T19:15:48Z</time></trkpt>
<trkpt lat="48.3473850" lon="-1.8897100"><ele></ele><time>2017-12-15T19:15:51Z</time></trkpt>
<trkpt lat="48.3474010" lon="-1.8897610"><ele></ele><time>2017-12-15T19:15:54Z</time></trkpt>
<trkpt lat="48.3474150" lon="-1.8898140"><ele></ele><time>2017-12-15T19:15:57Z</time></trkpt>
<trkpt lat="48.3474310" lon="-1.8898630"><ele></ele><time>2017-12-15T19:16:0Z</time></trkpt>
<trkpt lat="48.3474450" lon="-1.8899120"><ele></ele><time>2017-12-15T19:16:3Z</time></trkpt>
<trkpt lat="48.3474640" lon="-1.8899580"><ele></ele><time>2017-12-15T19:16:6Z</time></trkpt>
<trkpt lat="48.3474800" lon="-1.8899990"><ele></ele><time>2017-12-15T19:16:9Z</time></trkpt>
<trkpt lat="48.3474970" lon="-1.8900520"><ele></ele><time>2017-12-15T19:16:12Z</time></trkpt>
<trkpt lat="48.3475170" lon="-1.8900970"><ele></ele><time>2017-12-15T19:16:15Z</time></trkpt>
<trkpt lat="48.3475420" lon="-1.8901490"><ele></ele><time>2017-12-15T19:16:18Z</time></trkpt>
<trkpt lat="48.3475680" lon="-1.8902010"><ele></ele><time>2017-12-15T19:16:21Z</time></trkpt>
<trkpt lat="48.3475820" lon="-1.8902570"><ele></ele><time>2017-12-15T19:16:24Z</time></trkpt>
<trkpt lat="48.3475860" lon="-1.8903100"><ele></ele><time>2017-12-15T19:16:27Z</time></trkpt>
<trkpt lat="48.3475840" lon="-1.8903570"><ele></ele><time>2017-12-15T19:16:30Z</time></trkpt>
<trkpt lat="48.3475740" lon="-1.8904050"><ele></ele><time>2017-12-15T19:16:33Z</time></trkpt>
<trkpt lat="48.3475620" lon="-1.8904530"><ele></ele><time>2017-12-15T19:16:36Z</time></trkpt>
<trkpt lat="48.3475290" lon="-1.8904820"><ele></ele><time>2017-12-15T19:16:39Z</time></trkpt>
<trkpt lat="48.3475120" lon="-1.8905200"><ele></ele><time>2017-12-15T19:16:42Z</time></trkpt>
<trkpt lat="48.3474920" lon="-1.8905540"><ele></ele><time>2017-12-15T19:16:45Z</time></trkpt>
<trkpt lat="48.3474700" lon="-1.8905990"><ele></ele><time>2017-12-15T19:16:48Z</time></trkpt>
<trkpt lat="48.3474470" lon="-1.8906320"><ele></ele><time>2017-12-15T19:16:51Z</time></trkpt>
<trkpt lat="48.3474160" lon="-1.8906660"><ele></ele><time>2017-12-15T19:16:54Z</time></trkpt>
<trkpt lat="48.3474110" lon="-1.8907160"><ele></ele><time>2017-12-15T19:16:57Z</time></trkpt>
<trkpt lat="48.3474250" lon="-1.8907710"><ele></ele><time>2017-12-15T19:17:0Z</time></trkpt>
<trkpt lat="48.3474440" lon="-1.8908320"><ele></ele><time>2017-12-15T19:17:3Z</time></trkpt>
<trkpt lat="48.3474370" lon="-1.8909610"><ele></ele><time>2017-12-15T19:17:6Z</time></trkpt>
<trkpt lat="48.3474410" lon="-1.8910230"><ele></ele><time>2017-12-15T19:17:9Z</time></trkpt>
<trkpt lat="48.3474480" lon="-1.8910820"><ele></ele><time>2017-12-15T19:17:12Z</time></trkpt>
<trkpt lat="48.3474620" lon="-1.8911380"><ele></ele><time>2017-12-15T19:17:15Z</time></trkpt>
<trkpt lat="48.3474860" lon="-1.8912040"><ele></ele><time>2017-12-15T19:17:18Z</time></trkpt>
<trkpt lat="48.3475200" lon="-1.8912570"><ele></ele><time>2017-12-15T19:17:21Z</time></trkpt>
<trkpt lat="48.3475370" lon="-1.8913000"><ele></ele><time>2017-12-15T19:17:24Z</time></trkpt>
<trkpt lat="48.3475600" lon="-1.8913410"><ele></ele><time>2017-12-15T19:17:27Z</time></trkpt>
<trkpt lat="48.3475760" lon="-1.8914020"><ele></ele><time>2017-12-15T19:17:30Z</time></trkpt>
<trkpt lat="48.3476030" lon="-1.8913700"><ele></ele><time>2017-12-15T19:17:33Z</time></trkpt>
<trkpt lat="48.3476360" lon="-1.8913660"><ele></ele><time>2017-12-15T19:17:36Z</time></trkpt>
<trkpt lat="48.3476710" lon="-1.8913620"><ele></ele><time>2017-12-15T19:17:39Z</time></trkpt>
<trkpt lat="48.3477180" lon="-1.8913590"><ele></ele><time>2017-12-15T19:17:42Z</time></trkpt>
<trkpt lat="48.3477540" lon="-1.8913560"><ele></ele><time>2017-12-15T19:17:45Z</time></trkpt>
<trkpt lat="48.3477850" lon="-1.8913650"><ele></ele><time>2017-12-15T19:17:48Z</time></trkpt>
<trkpt lat="48.3478190" lon="-1.8913780"><ele></ele><time>2017-12-15T19:17:51Z</time></trkpt>
<trkpt lat="48.3478440" lon="-1.8914150"><ele></ele><time>2017-12-15T19:17:54Z</time></trkpt>
<trkpt lat="48.3478580" lon="-1.8914630"><ele></ele><time>2017-12-15T19:17:57Z</time></trkpt>
<trkpt lat="48.3478810" lon="-1.8914940"><ele></ele><time>2017-12-15T19:18:0Z</time></trkpt>
<trkpt lat="48.3478970" lon="-1.8915300"><ele></ele><time>2017-12-15T19:18:3Z</time></trkpt>
<trkpt lat="48.3479250" lon="-1.8915530"><ele></ele><time>2017-12-15T19:18:6Z</time></trkpt>
<trkpt lat="48.3479570" lon="-1.8915690"><ele></ele><time>2017-12-15T19:18:9Z</time></trkpt>
<trkpt lat="48.3479820" lon="-1.8915960"><ele></ele><time>2017-12-15T19:18:12Z</time></trkpt>
<trkpt lat="48.3480260" lon="-1.8916680"><ele></ele><time>2017-12-15T19:18:15Z</time></trkpt>
<trkpt lat="48.3480590" lon="-1.8917140"><ele></ele><time>2017-12-15T19:18:18Z</time></trkpt>
<trkpt lat="48.3480930" lon="-1.8917610"><ele></ele><time>2017-12-15T19:18:21Z</time></trkpt>
<trkpt lat="48.3481210" lon="-1.8918120"><ele></ele><time>2017-12-15T19:18:24Z</time></trkpt>
<trkpt lat="48.3481480" lon="-1.8918580"><ele></ele><time>2017-12-15T19:18:27Z</time></trkpt>
<trkpt lat="48.3481730" lon="-1.8919030"><ele></ele><time>2017-12-15T19:18:30Z</time></trkpt>
<trkpt lat="48.3482060" lon="-1.8919450"><ele></ele><time>2017-12-15T19:18:33Z</time></trkpt>
<trkpt lat="48.3482300" lon="-1.8920010"><ele></ele><time>2017-12-15T19:18:36Z</time></trkpt>
<trkpt lat="48.3482560" lon="-1.8920570"><ele></ele><time>2017-12-15T19:18:39Z</time></trkpt>
<trkpt lat="48.3482800" lon="-1.8921110"><ele></ele><time>2017-12-15T19:18:42Z</time></trkpt>
<trkpt lat="48.3483010" lon="-1.8921600"><ele></ele><time>2017-12-15T19:18:45Z</time></trkpt>
<trkpt lat="48.3483200" lon="-1.8922070"><ele></ele><time>2017-12-15T19:18:48Z</time></trkpt>
<trkpt lat="48.3483260" lon="-1.8922560"><ele></ele><time>2017-12-15T19:18:51Z</time></trkpt>
<trkpt lat="48.3482800" lon="-1.8923030"><ele></ele><time>2017-12-15T19:18:54Z</time></trkpt>
<trkpt lat="48.3482480" lon="-1.8923130"><ele></ele><time>2017-12-15T19:18:57Z</time></trkpt>
<trkpt lat="48.3482150" lon="-1.8923290"><ele></ele><time>2017-12-15T19:19:0Z</time></trkpt>
<trkpt lat="48.3481790" lon="-1.8923460"><ele></ele><time>2017-12-15T19:19:3Z</time></trkpt>
<trkpt lat="48.3481460" lon="-1.8923670"><ele></ele><time>2017-12-15T19:19:6Z</time></trkpt>
<trkpt lat="48.3481130" lon="-1.8923870"><ele></ele><time>2017-12-15T19:19:9Z</time></trkpt>
<trkpt lat="48.3480790" lon="-1.8924050"><ele></ele><time>2017-12-15T19:19:12Z</time></trkpt>
<trkpt lat="48.3480470" lon="-1.8924210"><ele></ele><time>2017-12-15T19:19:15Z</time></trkpt>
<trkpt lat="48.3480150" lon="-1.8924410"><ele></ele><time>2017-12-15T19:19:18Z</time></trkpt>
<trkpt lat="48.3479840" lon="-1.8924590"><ele></ele><time>2017-12-15T19:19:21Z</time></trkpt>
<trkpt lat="48.3479550" lon="-1.8924760"><ele></ele><time>2017-12-15T19:19:24Z</time></trkpt>
<trkpt lat="48.3479280" lon="-1.8924920"><ele></ele><time>2017-12-15T19:19:27Z</time></trkpt>
<trkpt lat="48.3479010" lon="-1.8925050"><ele></ele><time>2017-12-15T19:19:30Z</time></trkpt>
<trkpt lat="48.3478760" lon="-1.8925200"><ele></ele><time>2017-12-15T19:19:33Z</time></trkpt>
<trkpt lat="48.3478480" lon="-1.8925390"><ele></ele><time>2017-12-15T19:19:36Z</time></trkpt>
<trkpt lat="48.3478200" lon="-1.8925600"><ele></ele><time>2017-12-15T19:19:39Z</time></trkpt>
<trkpt lat="48.3477920" lon="-1.8925730"><ele></ele><time>2017-12-15T19:19:42Z</time></trkpt>
<trkpt lat="48.3477640" lon="-1.8925930"><ele></ele><time>2017-12-15T19:19:45Z</time></trkpt>
<trkpt lat="48.3477110" lon="-1.8926180"><ele></ele><time>2017-12-15T19:19:48Z</time></trkpt>
<trkpt lat="48.3476810" lon="-1.8926330"><ele></ele><time>2017-12-15T19:19:51Z</time></trkpt>
<trkpt lat="48.3476520" lon="-1.8926540"><ele></ele><time>2017-12-15T19:19:54Z</time></trkpt>
<trkpt lat="48.3476240" lon="-1.8926650"><ele></ele><time>2017-12-15T19:19:57Z</time></trkpt>
<trkpt lat="48.3475970" lon="-1.8926800"><ele></ele><time>2017-12-15T19:20:0Z</time></trkpt>
<trkpt lat="48.3475650" lon="-1.8926920"><ele></ele><time>2017-12-15T19:20:3Z</time></trkpt>
<trkpt lat="48.3475350" lon="-1.8927040"><ele></ele><time>2017-12-15T19:20:6Z</time></trkpt>
<trkpt lat="48.3475060" lon="-1.8927170"><ele></ele><time>2017-12-15T19:20:9Z</time></trkpt>
<trkpt lat="48.3474730" lon="-1.8927280"><ele></ele><time>2017-12-15T19:20:12Z</time></trkpt>
<trkpt lat="48.3474410" lon="-1.8927390"><ele></ele><time>2017-12-15T19:20:15Z</time></trkpt>
<trkpt lat="48.3474100" lon="-1.8927510"><ele></ele><time>2017-12-15T19:20:18Z</time></trkpt>
<trkpt lat="48.3473770" lon="-1.8927620"><ele></ele><time>2017-12-15T19:20:21Z</time></trkpt>
<trkpt lat="48.3473480" lon="-1.8927720"><ele></ele><time>2017-12-15T19:20:24Z</time></trkpt>
<trkpt lat="48.3473160" lon="-1.8927800"><ele></ele><time>2017-12-15T19:20:27Z</time></trkpt>
<trkpt lat="48.3472880" lon="-1.8927910"><ele></ele><time>2017-12-15T19:20:30Z</time></trkpt>
<trkpt lat="48.3472350" lon="-1.8928130"><ele></ele><time>2017-12-15T19:20:33Z</time></trkpt>
<trkpt lat="48.3472050" lon="-1.8928220"><ele></ele><time>2017-12-15T19:20:36Z</time></trkpt>
<trkpt lat="48.3471780" lon="-1.8928330"><ele></ele><time>2017-12-15T19:20:39Z</time></trkpt>
<trkpt lat="48.3471500" lon="-1.8928480"><ele></ele><time>2017-12-15T19:20:42Z</time></trkpt>
<trkpt lat="48.3471210" lon="-1.8928600"><ele></ele><time>2017-12-15T19:20:45Z</time></trkpt>
<trkpt lat="48.3470910" lon="-1.8928710"><ele></ele><time>2017-12-15T19:20:48Z</time></trkpt>
<trkpt lat="48.3470640" lon="-1.8928860"><ele></ele><time>2017-12-15T19:20:51Z</time></trkpt>
<trkpt lat="48.3470380" lon="-1.8929030"><ele></ele><time>2017-12-15T19:20:54Z</time></trkpt>
<trkpt lat="48.3469940" lon="-1.8929410"><ele></ele><time>2017-12-15T19:20:57Z</time></trkpt>
<trkpt lat="48.3469430" lon="-1.8929520"><ele></ele><time>2017-12-15T19:21:0Z</time></trkpt>
<trkpt lat="48.3469160" lon="-1.8929630"><ele></ele><time>2017-12-15T19:21:3Z</time></trkpt>
<trkpt lat="48.3468660" lon="-1.8929830"><ele></ele><time>2017-12-15T19:21:6Z</time></trkpt>
<trkpt lat="48.3468330" lon="-1.8930170"><ele></ele><time>2017-12-15T19:21:9Z</time></trkpt>
<trkpt lat="48.3467850" lon="-1.8930260"><ele></ele><time>2017-12-15T19:21:12Z</time></trkpt>
<trkpt lat="48.3467480" lon="-1.8930420"><ele></ele><time>2017-12-15T19:21:15Z</time></trkpt>
<trkpt lat="48.3466890" lon="-1.8930620"><ele></ele><time>2017-12-15T19:21:18Z</time></trkpt>
<trkpt lat="48.3466590" lon="-1.8930700"><ele></ele><time>2017-12-15T19:21:21Z</time></trkpt>
<trkpt lat="48.3466280" lon="-1.8930780"><ele></ele><time>2017-12-15T19:21:24Z</time></trkpt>
<trkpt lat="48.3466000" lon="-1.8930820"><ele></ele><time>2017-12-15T19:21:27Z</time></trkpt>
<trkpt lat="48.3465700" lon="-1.8930840"><ele></ele><time>2017-12-15T19:21:30Z</time></trkpt>
<trkpt lat="48.3465430" lon="-1.8930890"><ele></ele><time>2017-12-15T19:21:33Z</time></trkpt>
<trkpt lat="48.3464940" lon="-1.8931060"><ele></ele><time>2017-12-15T19:21:36Z</time></trkpt>
<trkpt lat="48.3464360" lon="-1.8931280"><ele></ele><time>2017-12-15T19:21:39Z</time></trkpt>
<trkpt lat="48.3464070" lon="-1.8931270"><ele></ele><time>2017-12-15T19:21:42Z</time></trkpt>
<trkpt lat="48.3463620" lon="-1.8931450"><ele></ele><time>2017-12-15T19:21:45Z</time></trkpt>
<trkpt lat="48.3463350" lon="-1.8931420"><ele></ele><time>2017-12-15T19:21:48Z</time></trkpt>
<trkpt lat="48.3462990" lon="-1.8931440"><ele></ele><time>2017-12-15T19:21:51Z</time></trkpt>
<trkpt lat="48.3462710" lon="-1.8931380"><ele></ele><time>2017-12-15T19:21:54Z</time></trkpt>
<trkpt lat="48.3462370" lon="-1.8931360"><ele></ele><time>2017-12-15T19:21:57Z</time></trkpt>
<trkpt lat="48.3462040" lon="-1.8931310"><ele></ele><time>2017-12-15T19:22:0Z</time></trkpt>
<trkpt lat="48.3461540" lon="-1.8931090"><ele></ele><time>2017-12-15T19:22:3Z</time></trkpt>
<trkpt lat="48.3461250" lon="-1.8930930"><ele></ele><time>2017-12-15T19:22:6Z</time></trkpt>
<trkpt lat="48.3460790" lon="-1.8930590"><ele></ele><time>2017-12-15T19:22:9Z</time></trkpt>
<trkpt lat="48.3460500" lon="-1.8930400"><ele></ele><time>2017-12-15T19:22:12Z</time></trkpt>
<trkpt lat="48.3460240" lon="-1.8930100"><ele></ele><time>2017-12-15T19:22:15Z</time></trkpt>
<trkpt lat="48.3460000" lon="-1.8929820"><ele></ele><time>2017-12-15T19:22:18Z</time></trkpt>
<trkpt lat="48.3459600" lon="-1.8929260"><ele></ele><time>2017-12-15T19:22:21Z</time></trkpt>
<trkpt lat="48.3459200" lon="-1.8928730"><ele></ele><time>2017-12-15T19:22:24Z</time></trkpt>
<trkpt lat="48.3458940" lon="-1.8928410"><ele></ele><time>2017-12-15T19:22:27Z</time></trkpt>
<trkpt lat="48.3458610" lon="-1.8927890"><ele></ele><time>2017-12-15T19:22:30Z</time></trkpt>
<trkpt lat="48.3458410" lon="-1.8927590"><ele></ele><time>2017-12-15T19:22:33Z</time></trkpt>
<trkpt lat="48.3458220" lon="-1.8927270"><ele></ele><time>2017-12-15T19:22:36Z</time></trkpt>
<trkpt lat="48.3457830" lon="-1.8926670"><ele></ele><time>2017-12-15T19:22:39Z</time></trkpt>
<trkpt lat="48.3457590" lon="-1.8926450"><ele></ele><time>2017-12-15T19:22:42Z</time></trkpt>
<trkpt lat="48.3457340" lon="-1.8926190"><ele></ele><time>2017-12-15T19:22:45Z</time></trkpt>
<trkpt lat="48.3457070" lon="-1.8926040"><ele></ele><time>2017-12-15T19:22:48Z</time></trkpt>
<trkpt lat="48.3456780" lon="-1.8925810"><ele></ele><time>2017-12-15T19:22:51Z</time></trkpt>
<trkpt lat="48.3456530" lon="-1.8925660"><ele></ele><time>2017-12-15T19:22:54Z</time></trkpt>
<trkpt lat="48.3456060" lon="-1.8925390"><ele></ele><time>2017-12-15T19:22:57Z</time></trkpt>
<trkpt lat="48.3455760" lon="-1.8925340"><ele></ele><time>2017-12-15T19:23:0Z</time></trkpt>
<trkpt lat="48.3455310" lon="-1.8925160"><ele></ele><time>2017-12-15T19:23:3Z</time></trkpt>
<trkpt lat="48.3455060" lon="-1.8925010"><ele></ele><time>2017-12-15T19:23:6Z</time></trkpt>
<trkpt lat="48.3454770" lon="-1.8924790"><ele></ele><time>2017-12-15T19:23:9Z</time></trkpt>
<trkpt lat="48.3454250" lon="-1.8924630"><ele></ele><time>2017-12-15T19:23:12Z</time></trkpt>
<trkpt lat="48.3453780" lon="-1.8924480"><ele></ele><time>2017-12-15T19:23:15Z</time></trkpt>
<trkpt lat="48.3453280" lon="-1.8924420"><ele></ele><time>2017-12-15T19:23:18Z</time></trkpt>
<trkpt lat="48.3452750" lon="-1.8924300"><ele></ele><time>2017-12-15T19:23:21Z</time></trkpt>
<trkpt lat="48.3452220" lon="-1.8924290"><ele></ele><time>2017-12-15T19:23:24Z</time></trkpt>
<trkpt lat="48.3451760" lon="-1.8924250"><ele></ele><time>2017-12-15T19:23:27Z</time></trkpt>
<trkpt lat="48.3451410" lon="-1.8924210"><ele></ele><time>2017-12-15T19:23:30Z</time></trkpt>
<trkpt lat="48.3450880" lon="-1.8924150"><ele></ele><time>2017-12-15T19:23:33Z</time></trkpt>
<trkpt lat="48.3450340" lon="-1.8924120"><ele></ele><time>2017-12-15T19:23:36Z</time></trkpt>
<trkpt lat="48.3449870" lon="-1.8924080"><ele></ele><time>2017-12-15T19:23:39Z</time></trkpt>
<trkpt lat="48.3449580" lon="-1.8924030"><ele></ele><time>2017-12-15T19:23:42Z</time></trkpt>
<trkpt lat="48.3449260" lon="-1.8924030"><ele></ele><time>2017-12-15T19:23:45Z</time></trkpt>
<trkpt lat="48.3448970" lon="-1.8924050"><ele></ele><time>2017-12-15T19:23:48Z</time></trkpt>
<trkpt lat="48.3448440" lon="-1.8923980"><ele></ele><time>2017-12-15T19:23:51Z</time></trkpt>
<trkpt lat="48.3447950" lon="-1.8924020"><ele></ele><time>2017-12-15T19:23:54Z</time></trkpt>
<trkpt lat="48.3447640" lon="-1.8923960"><ele></ele><time>2017-12-15T19:23:57Z</time></trkpt>
<trkpt lat="48.3447110" lon="-1.8924070"><ele></ele><time>2017-12-15T19:24:0Z</time></trkpt>
<trkpt lat="48.3446620" lon="-1.8924130"><ele></ele><time>2017-12-15T19:24:3Z</time></trkpt>
<trkpt lat="48.3446180" lon="-1.8924180"><ele></ele><time>2017-12-15T19:24:6Z</time></trkpt>
<trkpt lat="48.3445670" lon="-1.8924270"><ele></ele><time>2017-12-15T19:24:9Z</time></trkpt>
<trkpt lat="48.3445160" lon="-1.8924270"><ele></ele><time>2017-12-15T19:24:12Z</time></trkpt>
<trkpt lat="48.3444890" lon="-1.8924280"><ele></ele><time>2017-12-15T19:24:15Z</time></trkpt>
<trkpt lat="48.3444610" lon="-1.8924260"><ele></ele><time>2017-12-15T19:24:18Z</time></trkpt>
<trkpt lat="48.3444140" lon="-1.8924260"><ele></ele><time>2017-12-15T19:24:21Z</time></trkpt>
<trkpt lat="48.3443730" lon="-1.8924300"><ele></ele><time>2017-12-15T19:24:24Z</time></trkpt>
<trkpt lat="48.3443440" lon="-1.8924340"><ele></ele><time>2017-12-15T19:24:27Z</time></trkpt>
<trkpt lat="48.3443150" lon="-1.8924370"><ele></ele><time>2017-12-15T19:24:30Z</time></trkpt>
<trkpt lat="48.3442870" lon="-1.8924320"><ele></ele><time>2017-12-15T19:24:33Z</time></trkpt>
<trkpt lat="48.3442600" lon="-1.8924250"><ele></ele><time>2017-12-15T19:24:36Z</time></trkpt>
<trkpt lat="48.3442350" lon="-1.8924130"><ele></ele><time>2017-12-15T19:24:39Z</time></trkpt>
<trkpt lat="48.3441970" lon="-1.8923890"><ele></ele><time>2017-12-15T19:24:42Z</time></trkpt>
<trkpt lat="48.3441470" lon="-1.8923840"><ele></ele><time>2017-12-15T19:24:45Z</time></trkpt>
<trkpt lat="48.3441190" lon="-1.8923940"><ele></ele><time>2017-12-15T19:24:48Z</time></trkpt>
<trkpt lat="48.3440910" lon="-1.8924050"><ele></ele><time>2017-12-15T19:24:51Z</time></trkpt>
<trkpt lat="48.3440420" lon="-1.8924260"><ele></ele><time>2017-12-15T19:24:54Z</time></trkpt>
<trkpt lat="48.3440150" lon="-1.8924320"><ele></ele><time>2017-12-15T19:24:57Z</time></trkpt>
<trkpt lat="48.3439640" lon="-1.8924480"><ele></ele><time>2017-12-15T19:25:0Z</time></trkpt>
<trkpt lat="48.3439110" lon="-1.8924650"><ele></ele><time>2017-12-15T19:25:3Z</time></trkpt>
<trkpt lat="48.3438570" lon="-1.8924700"><ele></ele><time>2017-12-15T19:25:6Z</time></trkpt>
<trkpt lat="48.3438300" lon="-1.8924690"><ele></ele><time>2017-12-15T19:25:9Z</time></trkpt>
<trkpt lat="48.3438020" lon="-1.8924730"><ele></ele><time>2017-12-15T19:25:12Z</time></trkpt>
<trkpt lat="48.3437730" lon="-1.8924780"><ele></ele><time>2017-12-15T19:25:15Z</time></trkpt>
<trkpt lat="48.3437440" lon="-1.8924800"><ele></ele><time>2017-12-15T19:25:18Z</time></trkpt>
<trkpt lat="48.3437130" lon="-1.8924900"><ele></ele><time>2017-12-15T19:25:21Z</time></trkpt>
<trkpt lat="48.3436860" lon="-1.8924970"><ele></ele><time>2017-12-15T19:25:24Z</time></trkpt>
<trkpt lat="48.3436580" lon="-1.8925080"><ele></ele><time>2017-12-15T19:25:27Z</time></trkpt>
<trkpt lat="48.3436290" lon="-1.8925180"><ele></ele><time>2017-12-15T19:25:30Z</time></trkpt>
<trkpt lat="48.3436000" lon="-1.8925280"><ele></ele><time>2017-12-15T19:25:33Z</time></trkpt>
<trkpt lat="48.3435700" lon="-1.8925360"><ele></ele><time>2017-12-15T19:25:36Z</time></trkpt>
<trkpt lat="48.3435400" lon="-1.8925440"><ele></ele><time>2017-12-15T19:25:39Z</time></trkpt>
<trkpt lat="48.3435140" lon="-1.8925580"><ele></ele><time>2017-12-15T19:25:42Z</time></trkpt>
<trkpt lat="48.3434830" lon="-1.8925660"><ele></ele><time>2017-12-15T19:25:45Z</time></trkpt>
<trkpt lat="48.3434530" lon="-1.8925750"><ele></ele><time>2017-12-15T19:25:48Z</time></trkpt>
<trkpt lat="48.3434210" lon="-1.8925830"><ele></ele><time>2017-12-15T19:25:51Z</time></trkpt>
<trkpt lat="48.3433860" lon="-1.8925870"><ele></ele><time>2017-12-15T19:25:54Z</time></trkpt>
<trkpt lat="48.3433550" lon="-1.8925930"><ele></ele><time>2017-12-15T19:25:57Z</time></trkpt>
<trkpt lat="48.3433240" lon="-1.8926010"><ele></ele><time>2017-12-15T19:26:0Z</time></trkpt>
<trkpt lat="48.3432940" lon="-1.8926070"><ele></ele><time>2017-12-15T19:26:3Z</time></trkpt>
<trkpt lat="48.3432600" lon="-1.8926120"><ele></ele><time>2017-12-15T19:26:6Z</time></trkpt>
<trkpt lat="48.3432270" lon="-1.8926210"><ele></ele><time>2017-12-15T19:26:9Z</time></trkpt>
<trkpt lat="48.3431930" lon="-1.8926290"><ele></ele><time>2017-12-15T19:26:12Z</time></trkpt>
<trkpt lat="48.3431590" lon="-1.8926390"><ele></ele><time>2017-12-15T19:26:15Z</time></trkpt>
<trkpt lat="48.3431260" lon="-1.8926470"><ele></ele><time>2017-12-15T19:26:18Z</time></trkpt>
<trkpt lat="48.3430930" lon="-1.8926560"><ele></ele><time>2017-12-15T19:26:21Z</time></trkpt>
<trkpt lat="48.3430590" lon="-1.8926620"><ele></ele><time>2017-12-15T19:26:24Z</time></trkpt>
<trkpt lat="48.3430240" lon="-1.8926670"><ele></ele><time>2017-12-15T19:26:27Z</time></trkpt>
<trkpt lat="48.3429850" lon="-1.8926740"><ele></ele><time>2017-12-15T19:26:30Z</time></trkpt>
<trkpt lat="48.3429480" lon="-1.8926850"><ele></ele><time>2017-12-15T19:26:33Z</time></trkpt>
<trkpt lat="48.3429070" lon="-1.8926920"><ele></ele><time>2017-12-15T19:26:36Z</time></trkpt>
<trkpt lat="48.3428640" lon="-1.8927010"><ele></ele><time>2017-12-15T19:26:39Z</time></trkpt>
<trkpt lat="48.3428210" lon="-1.8927070"><ele></ele><time>2017-12-15T19:26:42Z</time></trkpt>
<trkpt lat="48.3427730" lon="-1.8927170"><ele></ele><time>2017-12-15T19:26:45Z</time></trkpt>
<trkpt lat="48.3427260" lon="-1.8927260"><ele></ele><time>2017-12-15T19:26:48Z</time></trkpt>
<trkpt lat="48.3426760" lon="-1.8927390"><ele></ele><time>2017-12-15T19:26:51Z</time></trkpt>
<trkpt lat="48.3426310" lon="-1.8927540"><ele></ele><time>2017-12-15T19:26:54Z</time></trkpt>
<trkpt lat="48.3425800" lon="-1.8927640"><ele></ele><time>2017-12-15T19:26:57Z</time></trkpt>
<trkpt lat="48.3425260" lon="-1.8927740"><ele></ele><time>2017-12-15T19:27:0Z</time></trkpt>
<trkpt lat="48.3424750" lon="-1.8927850"><ele></ele><time>2017-12-15T19:27:3Z</time></trkpt>
<trkpt lat="48.3424210" lon="-1.8927990"><ele></ele><time>2017-12-15T19:27:6Z</time></trkpt>
<trkpt lat="48.3423640" lon="-1.8928100"><ele></ele><time>2017-12-15T19:27:9Z</time></trkpt>
<trkpt lat="48.3423080" lon="-1.8928200"><ele></ele><time>2017-12-15T19:27:12Z</time></trkpt>
<trkpt lat="48.3422530" lon="-1.8928340"><ele></ele><time>2017-12-15T19:27:15Z</time></trkpt>
<trkpt lat="48.3421960" lon="-1.8928450"><ele></ele><time>2017-12-15T19:27:18Z</time></trkpt>
<trkpt lat="48.3421390" lon="-1.8928570"><ele></ele><time>2017-12-15T19:27:21Z</time></trkpt>
<trkpt lat="48.3420800" lon="-1.8928700"><ele></ele><time>2017-12-15T19:27:24Z</time></trkpt>
<trkpt lat="48.3420250" lon="-1.8928850"><ele></ele><time>2017-12-15T19:27:27Z</time></trkpt>
<trkpt lat="48.3419810" lon="-1.8929170"><ele></ele><time>2017-12-15T19:27:30Z</time></trkpt>
<trkpt lat="48.3419530" lon="-1.8929760"><ele></ele><time>2017-12-15T19:27:33Z</time></trkpt>
<trkpt lat="48.3419430" lon="-1.8930450"><ele></ele><time>2017-12-15T19:27:36Z</time></trkpt>
<trkpt lat="48.3419460" lon="-1.8931220"><ele></ele><time>2017-12-15T19:27:39Z</time></trkpt>
<trkpt lat="48.3419500" lon="-1.8932010"><ele></ele><time>2017-12-15T19:27:42Z</time></trkpt>
<trkpt lat="48.3419490" lon="-1.8932810"><ele></ele><time>2017-12-15T19:27:45Z</time></trkpt>
<trkpt lat="48.3419480" lon="-1.8933670"><ele></ele><time>2017-12-15T19:27:48Z</time></trkpt>
<trkpt lat="48.3419520" lon="-1.8934530"><ele></ele><time>2017-12-15T19:27:51Z</time></trkpt>
<trkpt lat="48.3419560" lon="-1.8935390"><ele></ele><time>2017-12-15T19:27:54Z</time></trkpt>
<trkpt lat="48.3419620" lon="-1.8936230"><ele></ele><time>2017-12-15T19:27:57Z</time></trkpt>
<trkpt lat="48.3419690" lon="-1.8937080"><ele></ele><time>2017-12-15T19:28:0Z</time></trkpt>
<trkpt lat="48.3419750" lon="-1.8937970"><ele></ele><time>2017-12-15T19:28:3Z</time></trkpt>
<trkpt lat="48.3419820" lon="-1.8938830"><ele></ele><time>2017-12-15T19:28:6Z</time></trkpt>
<trkpt lat="48.3419880" lon="-1.8939730"><ele></ele><time>2017-12-15T19:28:9Z</time></trkpt>
<trkpt lat="48.3419930" lon="-1.8940650"><ele></ele><time>2017-12-15T19:28:12Z</time></trkpt>
<trkpt lat="48.3420040" lon="-1.8941580"><ele></ele><time>2017-12-15T19:28:15Z</time></trkpt>
<trkpt lat="48.3420190" lon="-1.8942570"><ele></ele><time>2017-12-15T19:28:18Z</time></trkpt>
<trkpt lat="48.3420300" lon="-1.8943570"><ele></ele><time>2017-12-15T19:28:21Z</time></trkpt>
<trkpt lat="48.3420380" lon="-1.8944560"><ele></ele><time>2017-12-15T19:28:24Z</time></trkpt>
<trkpt lat="48.3420410" lon="-1.8945540"><ele></ele><time>2017-12-15T19:28:27Z</time></trkpt>
<trkpt lat="48.3420420" lon="-1.8946480"><ele></ele><time>2017-12-15T19:28:30Z</time></trkpt>
<trkpt lat="48.3420400" lon="-1.8947370"><ele></ele><time>2017-12-15T19:28:33Z</time></trkpt>
<trkpt lat="48.3420440" lon="-1.8948270"><ele></ele><time>2017-12-15T19:28:36Z</time></trkpt>
<trkpt lat="48.3420390" lon="-1.8949070"><ele></ele><time>2017-12-15T19:28:39Z</time></trkpt>
<trkpt lat="48.3420330" lon="-1.8949800"><ele></ele><time>2017-12-15T19:28:42Z</time></trkpt>
<trkpt lat="48.3420290" lon="-1.8950510"><ele></ele><time>2017-12-15T19:28:45Z</time></trkpt>
<trkpt lat="48.3420240" lon="-1.8951150"><ele></ele><time>2017-12-15T19:28:48Z</time></trkpt>
<trkpt lat="48.3420180" lon="-1.8951860"><ele></ele><time>2017-12-15T19:28:51Z</time></trkpt>
<trkpt lat="48.3420140" lon="-1.8952640"><ele></ele><time>2017-12-15T19:28:54Z</time></trkpt>
<trkpt lat="48.3420120" lon="-1.8953390"><ele></ele><time>2017-12-15T19:28:57Z</time></trkpt>
<trkpt lat="48.3420080" lon="-1.8954170"><ele></ele><time>2017-12-15T19:29:0Z</time></trkpt>
<trkpt lat="48.3420100" lon="-1.8954900"><ele></ele><time>2017-12-15T19:29:3Z</time></trkpt>
<trkpt lat="48.3420140" lon="-1.8955620"><ele></ele><time>2017-12-15T19:29:6Z</time></trkpt>
<trkpt lat="48.3420180" lon="-1.8956340"><ele></ele><time>2017-12-15T19:29:9Z</time></trkpt>
<trkpt lat="48.3420200" lon="-1.8957040"><ele></ele><time>2017-12-15T19:29:12Z</time></trkpt>
<trkpt lat="48.3420230" lon="-1.8957700"><ele></ele><time>2017-12-15T19:29:15Z</time></trkpt>
<trkpt lat="48.3420200" lon="-1.8958360"><ele></ele><time>2017-12-15T19:29:18Z</time></trkpt>
<trkpt lat="48.3420110" lon="-1.8959010"><ele></ele><time>2017-12-15T19:29:21Z</time></trkpt>
<trkpt lat="48.3419950" lon="-1.8959600"><ele></ele><time>2017-12-15T19:29:24Z</time></trkpt>
<trkpt lat="48.3419670" lon="-1.8960090"><ele></ele><time>2017-12-15T19:29:27Z</time></trkpt>
<trkpt lat="48.3419320" lon="-1.8960390"><ele></ele><time>2017-12-15T19:29:30Z</time></trkpt>
<trkpt lat="48.3418960" lon="-1.8960540"><ele></ele><time>2017-12-15T19:29:33Z</time></trkpt>
<trkpt lat="48.3418540" lon="-1.8960540"><ele></ele><time>2017-12-15T19:29:36Z</time></trkpt>
<trkpt lat="48.3418140" lon="-1.8960520"><ele></ele><time>2017-12-15T19:29:39Z</time></trkpt>
<trkpt lat="48.3417790" lon="-1.8960540"><ele></ele><time>2017-12-15T19:29:42Z</time></trkpt>
<trkpt lat="48.3417400" lon="-1.8960580"><ele></ele><time>2017-12-15T19:29:45Z</time></trkpt>
<trkpt lat="48.3417060" lon="-1.8960650"><ele></ele><time>2017-12-15T19:29:48Z</time></trkpt>
<trkpt lat="48.3416710" lon="-1.8960670"><ele></ele><time>2017-12-15T19:29:51Z</time></trkpt>
<trkpt lat="48.3416340" lon="-1.8960660"><ele></ele><time>2017-12-15T19:29:54Z</time></trkpt>
<trkpt lat="48.3415970" lon="-1.8960660"><ele></ele><time>2017-12-15T19:29:57Z</time></trkpt>
<trkpt lat="48.3415630" lon="-1.8960720"><ele></ele><time>2017-12-15T19:30:0Z</time></trkpt>
<trkpt lat="48.3415330" lon="-1.8960810"><ele></ele><time>2017-12-15T19:30:3Z</time></trkpt>
<trkpt lat="48.3415000" lon="-1.8960910"><ele></ele><time>2017-12-15T19:30:6Z</time></trkpt>
<trkpt lat="48.3414680" lon="-1.8960970"><ele></ele><time>2017-12-15T19:30:9Z</time></trkpt>
<trkpt lat="48.3414370" lon="-1.8961080"><ele></ele><time>2017-12-15T19:30:12Z</time></trkpt>
<trkpt lat="48.3414070" lon="-1.8961170"><ele></ele><time>2017-12-15T19:30:15Z</time></trkpt>
<trkpt lat="48.3413760" lon="-1.8961220"><ele></ele><time>2017-12-15T19:30:18Z</time></trkpt>
<trkpt lat="48.3413420" lon="-1.8961320"><ele></ele><time>2017-12-15T19:30:21Z</time></trkpt>
<trkpt lat="48.3413130" lon="-1.8961400"><ele></ele><time>2017-12-15T19:30:24Z</time></trkpt>
<trkpt lat="48.3412820" lon="-1.8961390"><ele></ele><time>2017-12-15T19:30:27Z</time></trkpt>
<trkpt lat="48.3412530" lon="-1.8961550"><ele></ele><time>2017-12-15T19:30:30Z</time></trkpt>
<trkpt lat="48.3412240" lon="-1.8961660"><ele></ele><time>2017-12-15T19:30:33Z</time></trkpt>
<trkpt lat="48.3411940" lon="-1.8961760"><ele></ele><time>2017-12-15T19:30:36Z</time></trkpt>
<trkpt lat="48.3411630" lon="-1.8961740"><ele></ele><time>2017-12-15T19:30:39Z</time></trkpt>
<trkpt lat="48.3411320" lon="-1.8961830"><ele></ele><time>2017-12-15T19:30:42Z</time></trkpt>
<trkpt lat="48.3411040" lon="-1.8961980"><ele></ele><time>2017-12-15T19:30:45Z</time></trkpt>
<trkpt lat="48.3410760" lon="-1.8962080"><ele></ele><time>2017-12-15T19:30:48Z</time></trkpt>
<trkpt lat="48.3410490" lon="-1.8962210"><ele></ele><time>2017-12-15T19:30:51Z</time></trkpt>
<trkpt lat="48.3410110" lon="-1.8962710"><ele></ele><time>2017-12-15T19:30:54Z</time></trkpt>
<trkpt lat="48.3409990" lon="-1.8963090"><ele></ele><time>2017-12-15T19:30:57Z</time></trkpt>
<trkpt lat="48.3409990" lon="-1.8963500"><ele></ele><time>2017-12-15T19:31:0Z</time></trkpt>
<trkpt lat="48.3410040" lon="-1.8963940"><ele></ele><time>2017-12-15T19:31:3Z</time></trkpt>
<trkpt lat="48.3410130" lon="-1.8964390"><ele></ele><time>2017-12-15T19:31:6Z</time></trkpt>
<trkpt lat="48.3410270" lon="-1.8964870"><ele></ele><time>2017-12-15T19:31:9Z</time></trkpt>
<trkpt lat="48.3410380" lon="-1.8965380"><ele></ele><time>2017-12-15T19:31:12Z</time></trkpt>
<trkpt lat="48.3410490" lon="-1.8965920"><ele></ele><time>2017-12-15T19:31:15Z</time></trkpt>
<trkpt lat="48.3410610" lon="-1.8966510"><ele></ele><time>2017-12-15T19:31:18Z</time></trkpt>
<trkpt lat="48.3410750" lon="-1.8967060"><ele></ele><time>2017-12-15T19:31:21Z</time></trkpt>
<trkpt lat="48.3410920" lon="-1.8967650"><ele></ele><time>2017-12-15T19:31:24Z</time></trkpt>
<trkpt lat="48.3411120" lon="-1.8968250"><ele></ele><time>2017-12-15T19:31:27Z</time></trkpt>
<trkpt lat="48.3411340" lon="-1.8968880"><ele></ele><time>2017-12-15T19:31:30Z</time></trkpt>
<trkpt lat="48.3411600" lon="-1.8969500"><ele></ele><time>2017-12-15T19:31:33Z</time></trkpt>
<trkpt lat="48.3411900" lon="-1.8970010"><ele></ele><time>2017-12-15T19:31:36Z</time></trkpt>
<trkpt lat="48.3412240" lon="-1.8970560"><ele></ele><time>2017-12-15T19:31:39Z</time></trkpt>
<trkpt lat="48.3412610" lon="-1.8971090"><ele></ele><time>2017-12-15T19:31:42Z</time></trkpt>
<trkpt lat="48.3412950" lon="-1.8971600"><ele></ele><time>2017-12-15T19:31:45Z</time></trkpt>
<trkpt lat="48.3413260" lon="-1.8972160"><ele></ele><time>2017-12-15T19:31:48Z</time></trkpt>
<trkpt lat="48.3413540" lon="-1.8972750"><ele></ele><time>2017-12-15T19:31:51Z</time></trkpt>
<trkpt lat="48.3413800" lon="-1.8973400"><ele></ele><time>2017-12-15T19:31:54Z</time></trkpt>
<trkpt lat="48.3414060" lon="-1.8974070"><ele></ele><time>2017-12-15T19:31:57Z</time></trkpt>
<trkpt lat="48.3414270" lon="-1.8974810"><ele></ele><time>2017-12-15T19:32:0Z</time></trkpt>
<trkpt lat="48.3414480" lon="-1.8975550"><ele></ele><time>2017-12-15T19:32:3Z</time></trkpt>
<trkpt lat="48.3414640" lon="-1.8976320"><ele></ele><time>2017-12-15T19:32:6Z</time></trkpt>
<trkpt lat="48.3414740" lon="-1.8977090"><ele></ele><time>2017-12-15T19:32:9Z</time></trkpt>
<trkpt lat="48.3414810" lon="-1.8977810"><ele></ele><time>2017-12-15T19:32:12Z</time></trkpt>
<trkpt lat="48.3414910" lon="-1.8978520"><ele></ele><time>2017-12-15T19:32:15Z</time></trkpt>
<trkpt lat="48.3415000" lon="-1.8979200"><ele></ele><time>2017-12-15T19:32:18Z</time></trkpt>
<trkpt lat="48.3415120" lon="-1.8979870"><ele></ele><time>2017-12-15T19:32:21Z</time></trkpt>
<trkpt lat="48.3415160" lon="-1.8980520"><ele></ele><time>2017-12-15T19:32:24Z</time></trkpt>
<trkpt lat="48.3415220" lon="-1.8981140"><ele></ele><time>2017-12-15T19:32:27Z</time></trkpt>
<trkpt lat="48.3415290" lon="-1.8981770"><ele></ele><time>2017-12-15T19:32:30Z</time></trkpt>
<trkpt lat="48.3415340" lon="-1.8982400"><ele></ele><time>2017-12-15T19:32:33Z</time></trkpt>
<trkpt lat="48.3415380" lon="-1.8983040"><ele></ele><time>2017-12-15T19:32:36Z</time></trkpt>
<trkpt lat="48.3415430" lon="-1.8983650"><ele></ele><time>2017-12-15T19:32:39Z</time></trkpt>
<trkpt lat="48.3415500" lon="-1.8984300"><ele></ele><time>2017-12-15T19:32:42Z</time></trkpt>
<trkpt lat="48.3415590" lon="-1.8984920"><ele></ele><time>2017-12-15T19:32:45Z</time></trkpt>
<trkpt lat="48.3415660" lon="-1.8985550"><ele></ele><time>2017-12-15T19:32:48Z</time></trkpt>
<trkpt lat="48.3415750" lon="-1.8986170"><ele></ele><time>2017-12-15T19:32:51Z</time></trkpt>
<trkpt lat="48.3415830" lon="-1.8986820"><ele></ele><time>2017-12-15T19:32:54Z</time></trkpt>
<trkpt lat="48.3415910" lon="-1.8987470"><ele></ele><time>2017-12-15T19:32:57Z</time></trkpt>
<trkpt lat="48.3416050" lon="-1.8988150"><ele></ele><time>2017-12-15T19:33:0Z</time></trkpt>
<trkpt lat="48.3416200" lon="-1.8988840"><ele></ele><time>2017-12-15T19:33:3Z</time></trkpt>
<trkpt lat="48.3416420" lon="-1.8989510"><ele></ele><time>2017-12-15T19:33:6Z</time></trkpt>
<trkpt lat="48.3416620" lon="-1.8990220"><ele></ele><time>2017-12-15T19:33:9Z</time></trkpt>
<trkpt lat="48.3416990" lon="-1.8990900"><ele></ele><time>2017-12-15T19:33:12Z</time></trkpt>
<trkpt lat="48.3417320" lon="-1.8991650"><ele></ele><time>2017-12-15T19:33:15Z</time></trkpt>
<trkpt lat="48.3417690" lon="-1.8992390"><ele></ele><time>2017-12-15T19:33:18Z</time></trkpt>
<trkpt lat="48.3418070" lon="-1.8993140"><ele></ele><time>2017-12-15T19:33:21Z</time></trkpt>
<trkpt lat="48.3418460" lon="-1.8993910"><ele></ele><time>2017-12-15T19:33:24Z</time></trkpt>
<trkpt lat="48.3418870" lon="-1.8994700"><ele></ele><time>2017-12-15T19:33:27Z</time></trkpt>
<trkpt lat="48.3419270" lon="-1.8995550"><ele></ele><time>2017-12-15T19:33:30Z</time></trkpt>
<trkpt lat="48.3419640" lon="-1.8996470"><ele></ele><time>2017-12-15T19:33:33Z</time></trkpt>
<trkpt lat="48.3420010" lon="-1.8997460"><ele></ele><time>2017-12-15T19:33:36Z</time></trkpt>
<trkpt lat="48.3420340" lon="-1.8998530"><ele></ele><time>2017-12-15T19:33:39Z</time></trkpt>
<trkpt lat="48.3420640" lon="-1.8999640"><ele></ele><time>2017-12-15T19:33:42Z</time></trkpt>
<trkpt lat="48.3420930" lon="-1.9000810"><ele></ele><time>2017-12-15T19:33:45Z</time></trkpt>
<trkpt lat="48.3421240" lon="-1.9001920"><ele></ele><time>2017-12-15T19:33:48Z</time></trkpt>
<trkpt lat="48.3421530" lon="-1.9003200"><ele></ele><time>2017-12-15T19:33:51Z</time></trkpt>
<trkpt lat="48.3421770" lon="-1.9004440"><ele></ele><time>2017-12-15T19:33:54Z</time></trkpt>
<trkpt lat="48.3422190" lon="-1.9005680"><ele></ele><time>2017-12-15T19:33:57Z</time></trkpt>
<trkpt lat="48.3422540" lon="-1.9006930"><ele></ele><time>2017-12-15T19:34:0Z</time></trkpt>
<trkpt lat="48.3422890" lon="-1.9008230"><ele></ele><time>2017-12-15T19:34:3Z</time></trkpt>
<trkpt lat="48.3423260" lon="-1.9009610"><ele></ele><time>2017-12-15T19:34:6Z</time></trkpt>
<trkpt lat="48.3423680" lon="-1.9010870"><ele></ele><time>2017-12-15T19:34:9Z</time></trkpt>
<trkpt lat="48.3424130" lon="-1.9012190"><ele></ele><time>2017-12-15T19:34:12Z</time></trkpt>
<trkpt lat="48.3424610" lon="-1.9013480"><ele></ele><time>2017-12-15T19:34:15Z</time></trkpt>
<trkpt lat="48.3425090" lon="-1.9014790"><ele></ele><time>2017-12-15T19:34:18Z</time></trkpt>
<trkpt lat="48.3425570" lon="-1.9016170"><ele></ele><time>2017-12-15T19:34:21Z</time></trkpt>
<trkpt lat="48.3426050" lon="-1.9017500"><ele></ele><time>2017-12-15T19:34:24Z</time></trkpt>
<trkpt lat="48.3426580" lon="-1.9018820"><ele></ele><time>2017-12-15T19:34:27Z</time></trkpt>
<trkpt lat="48.3427090" lon="-1.9020200"><ele></ele><time>2017-12-15T19:34:30Z</time></trkpt>
<trkpt lat="48.3427600" lon="-1.9021540"><ele></ele><time>2017-12-15T19:34:33Z</time></trkpt>
<trkpt lat="48.3428060" lon="-1.9022700"><ele></ele><time>2017-12-15T19:34:36Z</time></trkpt>
<trkpt lat="48.3428440" lon="-1.9023730"><ele></ele><time>2017-12-15T19:34:39Z</time></trkpt>
<trkpt lat="48.3428770" lon="-1.9024670"><ele></ele><time>2017-12-15T19:34:42Z</time></trkpt>
<trkpt lat="48.3429060" lon="-1.9025540"><ele></ele><time>2017-12-15T19:34:45Z</time></trkpt>
<trkpt lat="48.3429270" lon="-1.9026320"><ele></ele><time>2017-12-15T19:34:48Z</time></trkpt>
<trkpt lat="48.3429310" lon="-1.9027110"><ele></ele><time>2017-12-15T19:34:51Z</time></trkpt>
<trkpt lat="48.3429150" lon="-1.9027890"><ele></ele><time>2017-12-15T19:34:54Z</time></trkpt>
<trkpt lat="48.3428770" lon="-1.9028570"><ele></ele><time>2017-12-15T19:34:57Z</time></trkpt>
<trkpt lat="48.3428260" lon="-1.9029080"><ele></ele><time>2017-12-15T19:35:0Z</time></trkpt>
<trkpt lat="48.3427720" lon="-1.9029500"><ele></ele><time>2017-12-15T19:35:3Z</time></trkpt>
<trkpt lat="48.3427180" lon="-1.9029950"><ele></ele><time>2017-12-15T19:35:6Z</time></trkpt>
<trkpt lat="48.3426610" lon="-1.9030360"><ele></ele><time>2017-12-15T19:35:9Z</time></trkpt>
<trkpt lat="48.3426070" lon="-1.9030710"><ele></ele><time>2017-12-15T19:35:12Z</time></trkpt>
<trkpt lat="48.3425550" lon="-1.9031080"><ele></ele><time>2017-12-15T19:35:15Z</time></trkpt>
<trkpt lat="48.3424980" lon="-1.9031380"><ele></ele><time>2017-12-15T19:35:18Z</time></trkpt>
<trkpt lat="48.3424490" lon="-1.9031750"><ele></ele><time>2017-12-15T19:35:21Z</time></trkpt>
<trkpt lat="48.3424000" lon="-1.9032120"><ele></ele><time>2017-12-15T19:35:24Z</time></trkpt>
<trkpt lat="48.3423540" lon="-1.9032470"><ele></ele><time>2017-12-15T19:35:27Z</time></trkpt>
<trkpt lat="48.3423050" lon="-1.9032770"><ele></ele><time>2017-12-15T19:35:30Z</time></trkpt>
<trkpt lat="48.3422590" lon="-1.9033080"><ele></ele><time>2017-12-15T19:35:33Z</time></trkpt>
<trkpt lat="48.3422100" lon="-1.9033470"><ele></ele><time>2017-12-15T19:35:36Z</time></trkpt>
<trkpt lat="48.3421630" lon="-1.9033830"><ele></ele><time>2017-12-15T19:35:39Z</time></trkpt>
<trkpt lat="48.3421130" lon="-1.9034190"><ele></ele><time>2017-12-15T19:35:42Z</time></trkpt>
<trkpt lat="48.3420600" lon="-1.9034530"><ele></ele><time>2017-12-15T19:35:45Z</time></trkpt>
<trkpt lat="48.3420010" lon="-1.9034900"><ele></ele><time>2017-12-15T19:35:48Z</time></trkpt>
<trkpt lat="48.3419410" lon="-1.9035370"><ele></ele><time>2017-12-15T19:35:51Z</time></trkpt>
<trkpt lat="48.3418800" lon="-1.9035850"><ele></ele><time>2017-12-15T19:35:54Z</time></trkpt>
<trkpt lat="48.3418210" lon="-1.9036320"><ele></ele><time>2017-12-15T19:35:57Z</time></trkpt>
<trkpt lat="48.3417610" lon="-1.9036760"><ele></ele><time>2017-12-15T19:36:0Z</time></trkpt>
<trkpt lat="48.3417010" lon="-1.9037200"><ele></ele><time>2017-12-15T19:36:3Z</time></trkpt>
<trkpt lat="48.3416430" lon="-1.9037630"><ele></ele><time>2017-12-15T19:36:6Z</time></trkpt>
<trkpt lat="48.3415820" lon="-1.9038060"><ele></ele><time>2017-12-15T19:36:9Z</time></trkpt>
<trkpt lat="48.3415190" lon="-1.9038460"><ele></ele><time>2017-12-15T19:36:12Z</time></trkpt>
<trkpt lat="48.3414590" lon="-1.9038900"><ele></ele><time>2017-12-15T19:36:15Z</time></trkpt>
<trkpt lat="48.3413970" lon="-1.9039280"><ele></ele><time>2017-12-15T19:36:18Z</time></trkpt>
<trkpt lat="48.3413370" lon="-1.9039660"><ele></ele><time>2017-12-15T19:36:21Z</time></trkpt>
<trkpt lat="48.3412800" lon="-1.9040050"><ele></ele><time>2017-12-15T19:36:24Z</time></trkpt>
<trkpt lat="48.3412240" lon="-1.9040460"><ele></ele><time>2017-12-15T19:36:27Z</time></trkpt>
<trkpt lat="48.3411700" lon="-1.9040890"><ele></ele><time>2017-12-15T19:36:30Z</time></trkpt>
<trkpt lat="48.3411090" lon="-1.9041230"><ele></ele><time>2017-12-15T19:36:33Z</time></trkpt>
<trkpt lat="48.3410500" lon="-1.9041560"><ele></ele><time>2017-12-15T19:36:36Z</time></trkpt>
<trkpt lat="48.3409950" lon="-1.9041940"><ele></ele><time>2017-12-15T19:36:39Z</time></trkpt>
<trkpt lat="48.3409360" lon="-1.9042290"><ele></ele><time>2017-12-15T19:36:42Z</time></trkpt>
<trkpt lat="48.3408780" lon="-1.9042700"><ele></ele><time>2017-12-15T19:36:45Z</time></trkpt>
<trkpt lat="48.3408200" lon="-1.9043100"><ele></ele><time>2017-12-15T19:36:48Z</time></trkpt>
<trkpt lat="48.3407730" lon="-1.9043590"><ele></ele><time>2017-12-15T19:36:51Z</time></trkpt>
<trkpt lat="48.3407320" lon="-1.9043980"><ele></ele><time>2017-12-15T19:36:54Z</time></trkpt>
<trkpt lat="48.3406740" lon="-1.9044320"><ele></ele><time>2017-12-15T19:36:57Z</time></trkpt>
<trkpt lat="48.3406190" lon="-1.9044640"><ele></ele><time>2017-12-15T19:37:0Z</time></trkpt>
<trkpt lat="48.3405690" lon="-1.9045010"><ele></ele><time>2017-12-15T19:37:3Z</time></trkpt>
<trkpt lat="48.3405160" lon="-1.9045260"><ele></ele><time>2017-12-15T19:37:6Z</time></trkpt>
<trkpt lat="48.3404640" lon="-1.9045670"><ele></ele><time>2017-12-15T19:37:9Z</time></trkpt>
<trkpt lat="48.3404140" lon="-1.9045970"><ele></ele><time>2017-12-15T19:37:12Z</time></trkpt>
<trkpt lat="48.3403690" lon="-1.9046300"><ele></ele><time>2017-12-15T19:37:15Z</time></trkpt>
<trkpt lat="48.3403220" lon="-1.9046680"><ele></ele><time>2017-12-15T19:37:18Z</time></trkpt>
<trkpt lat="48.3402750" lon="-1.9047000"><ele></ele><time>2017-12-15T19:37:21Z</time></trkpt>
<trkpt lat="48.3402270" lon="-1.9047330"><ele></ele><time>2017-12-15T19:37:24Z</time></trkpt>
<trkpt lat="48.3401800" lon="-1.9047650"><ele></ele><time>2017-12-15T19:37:27Z</time></trkpt>
<trkpt lat="48.3401330" lon="-1.9047960"><ele></ele><time>2017-12-15T19:37:30Z</time></trkpt>
<trkpt lat="48.3400870" lon="-1.9048340"><ele></ele><time>2017-12-15T19:37:33Z</time></trkpt>
<trkpt lat="48.3400360" lon="-1.9048560"><ele></ele><time>2017-12-15T19:37:36Z</time></trkpt>
<trkpt lat="48.3399890" lon="-1.9048890"><ele></ele><time>2017-12-15T19:37:39Z</time></trkpt>
<trkpt lat="48.3399410" lon="-1.9049240"><ele></ele><time>2017-12-15T19:37:42Z</time></trkpt>
<trkpt lat="48.3398920" lon="-1.9049540"><ele></ele><time>2017-12-15T19:37:45Z</time></trkpt>
<trkpt lat="48.3398380" lon="-1.9049820"><ele></ele><time>2017-12-15T19:37:48Z</time></trkpt>
<trkpt lat="48.3397910" lon="-1.9050090"><ele></ele><time>2017-12-15T19:37:51Z</time></trkpt>
<trkpt lat="48.3397400" lon="-1.9050310"><ele></ele><time>2017-12-15T19:37:54Z</time></trkpt>
<trkpt lat="48.3396900" lon="-1.9050510"><ele></ele><time>2017-12-15T19:37:57Z</time></trkpt>
<trkpt lat="48.3396380" lon="-1.9050670"><ele></ele><time>2017-12-15T19:38:0Z</time></trkpt>
<trkpt lat="48.3395880" lon="-1.9050830"><ele></ele><time>2017-12-15T19:38:3Z</time></trkpt>
<trkpt lat="48.3395340" lon="-1.9050940"><ele></ele><time>2017-12-15T19:38:6Z</time></trkpt>
<trkpt lat="48.3394820" lon="-1.9051100"><ele></ele><time>2017-12-15T19:38:9Z</time></trkpt>
<trkpt lat="48.3394250" lon="-1.9051180"><ele></ele><time>2017-12-15T19:38:12Z</time></trkpt>
<trkpt lat="48.3393730" lon="-1.9051240"><ele></ele><time>2017-12-15T19:38:15Z</time></trkpt>
<trkpt lat="48.3393180" lon="-1.9051370"><ele></ele><time>2017-12-15T19:38:18Z</time></trkpt>
<trkpt lat="48.3392630" lon="-1.9051370"><ele></ele><time>2017-12-15T19:38:21Z</time></trkpt>
<trkpt lat="48.3392090" lon="-1.9051410"><ele></ele><time>2017-12-15T19:38:24Z</time></trkpt>
<trkpt lat="48.3391570" lon="-1.9051440"><ele></ele><time>2017-12-15T19:38:27Z</time></trkpt>
<trkpt lat="48.3391110" lon="-1.9051450"><ele></ele><time>2017-12-15T19:38:30Z</time></trkpt>
<trkpt lat="48.3390640" lon="-1.9051460"><ele></ele><time>2017-12-15T19:38:33Z</time></trkpt>
<trkpt lat="48.3390150" lon="-1.9051430"><ele></ele><time>2017-12-15T19:38:36Z</time></trkpt>
<trkpt lat="48.3389660" lon="-1.9051410"><ele></ele><time>2017-12-15T19:38:39Z</time></trkpt>
<trkpt lat="48.3389170" lon="-1.9051360"><ele></ele><time>2017-12-15T19:38:42Z</time></trkpt>
<trkpt lat="48.3388690" lon="-1.9051320"><ele></ele><time>2017-12-15T19:38:45Z</time></trkpt>
<trkpt lat="48.3388200" lon="-1.9051230"><ele></ele><time>2017-12-15T19:38:48Z</time></trkpt>
<trkpt lat="48.3387720" lon="-1.9051140"><ele></ele><time>2017-12-15T19:38:51Z</time></trkpt>
<trkpt lat="48.3387240" lon="-1.9050990"><ele></ele><time>2017-12-15T19:38:54Z</time></trkpt>
<trkpt lat="48.3386790" lon="-1.9050880"><ele></ele><time>2017-12-15T19:38:57Z</time></trkpt>
<trkpt lat="48.3386340" lon="-1.9050790"><ele></ele><time>2017-12-15T19:39:0Z</time></trkpt>
<trkpt lat="48.3385920" lon="-1.9050700"><ele></ele><time>2017-12-15T19:39:3Z</time></trkpt>
<trkpt lat="48.3385490" lon="-1.9050590"><ele></ele><time>2017-12-15T19:39:6Z</time></trkpt>
<trkpt lat="48.3385080" lon="-1.9050490"><ele></ele><time>2017-12-15T19:39:9Z</time></trkpt>
<trkpt lat="48.3384730" lon="-1.9050390"><ele></ele><time>2017-12-15T19:39:12Z</time></trkpt>
<trkpt lat="48.3384440" lon="-1.9050270"><ele></ele><time>2017-12-15T19:39:15Z</time></trkpt>
<trkpt lat="48.3384030" lon="-1.9049960"><ele></ele><time>2017-12-15T19:39:18Z</time></trkpt>
<trkpt lat="48.3383860" lon="-1.9049440"><ele></ele><time>2017-12-15T19:39:21Z</time></trkpt>
<trkpt lat="48.3383970" lon="-1.9048920"><ele></ele><time>2017-12-15T19:39:24Z</time></trkpt>
<trkpt lat="48.3384160" lon="-1.9048210"><ele></ele><time>2017-12-15T19:39:27Z</time></trkpt>
<trkpt lat="48.3384290" lon="-1.9047780"><ele></ele><time>2017-12-15T19:39:30Z</time></trkpt>
<trkpt lat="48.3384540" lon="-1.9046970"><ele></ele><time>2017-12-15T19:39:33Z</time></trkpt>
<trkpt lat="48.3384630" lon="-1.9046590"><ele></ele><time>2017-12-15T19:39:36Z</time></trkpt>
<trkpt lat="48.3384770" lon="-1.9046180"><ele></ele><time>2017-12-15T19:39:39Z</time></trkpt>
<trkpt lat="48.3384890" lon="-1.9045790"><ele></ele><time>2017-12-15T19:39:42Z</time></trkpt>
<trkpt lat="48.3385010" lon="-1.9045420"><ele></ele><time>2017-12-15T19:39:45Z</time></trkpt>
<trkpt lat="48.3385120" lon="-1.9045010"><ele></ele><time>2017-12-15T19:39:48Z</time></trkpt>
<trkpt lat="48.3385240" lon="-1.9044620"><ele></ele><time>2017-12-15T19:39:51Z</time></trkpt>
<trkpt lat="48.3385360" lon="-1.9044240"><ele></ele><time>2017-12-15T19:39:54Z</time></trkpt>
<trkpt lat="48.3385480" lon="-1.9043850"><ele></ele><time>2017-12-15T19:39:57Z</time></trkpt>
<trkpt lat="48.3385690" lon="-1.9043120"><ele></ele><time>2017-12-15T19:40:0Z</time></trkpt>
<trkpt lat="48.3385800" lon="-1.9042740"><ele></ele><time>2017-12-15T19:40:3Z</time></trkpt>
<trkpt lat="48.3385910" lon="-1.9042360"><ele></ele><time>2017-12-15T19:40:6Z</time></trkpt>
<trkpt lat="48.3386010" lon="-1.9041970"><ele></ele><time>2017-12-15T19:40:9Z</time></trkpt>
<trkpt lat="48.3386140" lon="-1.9041600"><ele></ele><time>2017-12-15T19:40:12Z</time></trkpt>
<trkpt lat="48.3386370" lon="-1.9040900"><ele></ele><time>2017-12-15T19:40:15Z</time></trkpt>
<trkpt lat="48.3386590" lon="-1.9040290"><ele></ele><time>2017-12-15T19:40:18Z</time></trkpt>
<trkpt lat="48.3386800" lon="-1.9039620"><ele></ele><time>2017-12-15T19:40:21Z</time></trkpt>
<trkpt lat="48.3387080" lon="-1.9038960"><ele></ele><time>2017-12-15T19:40:24Z</time></trkpt>
<trkpt lat="48.3387300" lon="-1.9038330"><ele></ele><time>2017-12-15T19:40:27Z</time></trkpt>
<trkpt lat="48.3387580" lon="-1.9037710"><ele></ele><time>2017-12-15T19:40:30Z</time></trkpt>
<trkpt lat="48.3387860" lon="-1.9037150"><ele></ele><time>2017-12-15T19:40:33Z</time></trkpt>
<trkpt lat="48.3388140" lon="-1.9036560"><ele></ele><time>2017-12-15T19:40:36Z</time></trkpt>
<trkpt lat="48.3388400" lon="-1.9036080"><ele></ele><time>2017-12-15T19:40:39Z</time></trkpt>
<trkpt lat="48.3388610" lon="-1.9035580"><ele></ele><time>2017-12-15T19:40:42Z</time></trkpt>
<trkpt lat="48.3388860" lon="-1.9035080"><ele></ele><time>2017-12-15T19:40:45Z</time></trkpt>
<trkpt lat="48.3389180" lon="-1.9034670"><ele></ele><time>2017-12-15T19:40:48Z</time></trkpt>
<trkpt lat="48.3389460" lon="-1.9034290"><ele></ele><time>2017-12-15T19:40:51Z</time></trkpt>
<trkpt lat="48.3389770" lon="-1.9033840"><ele></ele><time>2017-12-15T19:40:54Z</time></trkpt>
<trkpt lat="48.3390050" lon="-1.9033410"><ele></ele><time>2017-12-15T19:40:57Z</time></trkpt>
<trkpt lat="48.3390320" lon="-1.9033020"><ele></ele><time>2017-12-15T19:41:0Z</time></trkpt>
<trkpt lat="48.3390610" lon="-1.9032620"><ele></ele><time>2017-12-15T19:41:3Z</time></trkpt>
<trkpt lat="48.3390860" lon="-1.9032220"><ele></ele><time>2017-12-15T19:41:6Z</time></trkpt>
<trkpt lat="48.3391120" lon="-1.9031750"><ele></ele><time>2017-12-15T19:41:9Z</time></trkpt>
<trkpt lat="48.3391400" lon="-1.9031300"><ele></ele><time>2017-12-15T19:41:12Z</time></trkpt>
<trkpt lat="48.3391630" lon="-1.9030760"><ele></ele><time>2017-12-15T19:41:15Z</time></trkpt>
<trkpt lat="48.3391900" lon="-1.9030110"><ele></ele><time>2017-12-15T19:41:18Z</time></trkpt>
<trkpt lat="48.3392130" lon="-1.9029490"><ele></ele><time>2017-12-15T19:41:21Z</time></trkpt>
<trkpt lat="48.3392340" lon="-1.9028830"><ele></ele><time>2017-12-15T19:41:24Z</time></trkpt>
<trkpt lat="48.3392580" lon="-1.9028200"><ele></ele><time>2017-12-15T19:41:27Z</time></trkpt>
<trkpt lat="48.3392780" lon="-1.9027570"><ele></ele><time>2017-12-15T19:41:30Z</time></trkpt>
<trkpt lat="48.3393010" lon="-1.9027040"><ele></ele><time>2017-12-15T19:41:33Z</time></trkpt>
<trkpt lat="48.3393180" lon="-1.9026440"><ele></ele><time>2017-12-15T19:41:36Z</time></trkpt>
<trkpt lat="48.3393330" lon="-1.9025860"><ele></ele><time>2017-12-15T19:41:39Z</time></trkpt>
<trkpt lat="48.3393470" lon="-1.9025250"><ele></ele><time>2017-12-15T19:41:42Z</time></trkpt>
<trkpt lat="48.3393600" lon="-1.9024660"><ele></ele><time>2017-12-15T19:41:45Z</time></trkpt>
<trkpt lat="48.3393750" lon="-1.9024120"><ele></ele><time>2017-12-15T19:41:48Z</time></trkpt>
<trkpt lat="48.3393860" lon="-1.9023540"><ele></ele><time>2017-12-15T19:41:51Z</time></trkpt>
<trkpt lat="48.3394010" lon="-1.9022990"><ele></ele><time>2017-12-15T19:41:54Z</time></trkpt>
<trkpt lat="48.3394170" lon="-1.9022410"><ele></ele><time>2017-12-15T19:41:57Z</time></trkpt>
<trkpt lat="48.3394330" lon="-1.9021780"><ele></ele><time>2017-12-15T19:42:0Z</time></trkpt>
<trkpt lat="48.3394470" lon="-1.9021190"><ele></ele><time>2017-12-15T19:42:3Z</time></trkpt>
<trkpt lat="48.3394570" lon="-1.9020640"><ele></ele><time>2017-12-15T19:42:6Z</time></trkpt>
<trkpt lat="48.3394550" lon="-1.9020170"><ele></ele><time>2017-12-15T19:42:9Z</time></trkpt>
<trkpt lat="48.3394280" lon="-1.9019840"><ele></ele><time>2017-12-15T19:42:12Z</time></trkpt>
<trkpt lat="48.3393930" lon="-1.9019720"><ele></ele><time>2017-12-15T19:42:15Z</time></trkpt>
<trkpt lat="48.3393450" lon="-1.9019370"><ele></ele><time>2017-12-15T19:42:18Z</time></trkpt>
<trkpt lat="48.3393190" lon="-1.9019240"><ele></ele><time>2017-12-15T19:42:21Z</time></trkpt>
<trkpt lat="48.3392920" lon="-1.9019110"><ele></ele><time>2017-12-15T19:42:24Z</time></trkpt>
<trkpt lat="48.3392670" lon="-1.9018970"><ele></ele><time>2017-12-15T19:42:27Z</time></trkpt>
<trkpt lat="48.3392170" lon="-1.9018700"><ele></ele><time>2017-12-15T19:42:30Z</time></trkpt>
<trkpt lat="48.3391690" lon="-1.9018440"><ele></ele><time>2017-12-15T19:42:33Z</time></trkpt>
<trkpt lat="48.3391200" lon="-1.9018220"><ele></ele><time>2017-12-15T19:42:36Z</time></trkpt>
<trkpt lat="48.3390660" lon="-1.9018020"><ele></ele><time>2017-12-15T19:42:39Z</time></trkpt>
<trkpt lat="48.3390180" lon="-1.9017860"><ele></ele><time>2017-12-15T19:42:42Z</time></trkpt>
<trkpt lat="48.3389640" lon="-1.9017770"><ele></ele><time>2017-12-15T19:42:45Z</time></trkpt>
<trkpt lat="48.3389360" lon="-1.9017690"><ele></ele><time>2017-12-15T19:42:48Z</time></trkpt>
<trkpt lat="48.3389090" lon="-1.9017630"><ele></ele><time>2017-12-15T19:42:51Z</time></trkpt>
<trkpt lat="48.3388540" lon="-1.9017530"><ele></ele><time>2017-12-15T19:42:54Z</time></trkpt>
<trkpt lat="48.3388270" lon="-1.9017480"><ele></ele><time>2017-12-15T19:42:57Z</time></trkpt>
<trkpt lat="48.3387990" lon="-1.9017450"><ele></ele><time>2017-12-15T19:43:0Z</time></trkpt>
<trkpt lat="48.3387720" lon="-1.9017410"><ele></ele><time>2017-12-15T19:43:3Z</time></trkpt>
<trkpt lat="48.3387440" lon="-1.9017370"><ele></ele><time>2017-12-15T19:43:6Z</time></trkpt>
<trkpt lat="48.3387160" lon="-1.9017320"><ele></ele><time>2017-12-15T19:43:9Z</time></trkpt>
<trkpt lat="48.3386890" lon="-1.9017250"><ele></ele><time>2017-12-15T19:43:12Z</time></trkpt>
<trkpt lat="48.3386360" lon="-1.9017150"><ele></ele><time>2017-12-15T19:43:15Z</time></trkpt>
<trkpt lat="48.3385850" lon="-1.9017090"><ele></ele><time>2017-12-15T19:43:18Z</time></trkpt>
<trkpt lat="48.3385580" lon="-1.9017040"><ele></ele><time>2017-12-15T19:43:21Z</time></trkpt>
<trkpt lat="48.3385120" lon="-1.9016980"><ele></ele><time>2017-12-15T19:43:24Z</time></trkpt>
<trkpt lat="48.3384850" lon="-1.9016940"><ele></ele><time>2017-12-15T19:43:27Z</time></trkpt>
<trkpt lat="48.3384580" lon="-1.9016860"><ele></ele><time>2017-12-15T19:43:30Z</time></trkpt>
<trkpt lat="48.3384050" lon="-1.9016750"><ele></ele><time>2017-12-15T19:43:33Z</time></trkpt>
<trkpt lat="48.3383760" lon="-1.9016690"><ele></ele><time>2017-12-15T19:43:36Z</time></trkpt>
<trkpt lat="48.3383240" lon="-1.9016600"><ele></ele><time>2017-12-15T19:43:39Z</time></trkpt>
<trkpt lat="48.3382960" lon="-1.9016540"><ele></ele><time>2017-12-15T19:43:42Z</time></trkpt>
<trkpt lat="48.3382440" lon="-1.9016430"><ele></ele><time>2017-12-15T19:43:45Z</time></trkpt>
<trkpt lat="48.3382160" lon="-1.9016360"><ele></ele><time>2017-12-15T19:43:48Z</time></trkpt>
<trkpt lat="48.3381650" lon="-1.9016250"><ele></ele><time>2017-12-15T19:43:51Z</time></trkpt>
<trkpt lat="48.3381150" lon="-1.9016140"><ele></ele><time>2017-12-15T19:43:54Z</time></trkpt>
<trkpt lat="48.3380690" lon="-1.9015970"><ele></ele><time>2017-12-15T19:43:57Z</time></trkpt>
<trkpt lat="48.3380380" lon="-1.9015920"><ele></ele><time>2017-12-15T19:44:0Z</time></trkpt>
<trkpt lat="48.3380070" lon="-1.9015860"><ele></ele><time>2017-12-15T19:44:3Z</time></trkpt>
<trkpt lat="48.3379770" lon="-1.9015790"><ele></ele><time>2017-12-15T19:44:6Z</time></trkpt>
<trkpt lat="48.3379500" lon="-1.9015730"><ele></ele><time>2017-12-15T19:44:9Z</time></trkpt>
<trkpt lat="48.3378990" lon="-1.9015590"><ele></ele><time>2017-12-15T19:44:12Z</time></trkpt>
<trkpt lat="48.3378500" lon="-1.9015430"><ele></ele><time>2017-12-15T19:44:15Z</time></trkpt>
<trkpt lat="48.3378020" lon="-1.9015250"><ele></ele><time>2017-12-15T19:44:18Z</time></trkpt>
<trkpt lat="48.3377500" lon="-1.9015050"><ele></ele><time>2017-12-15T19:44:21Z</time></trkpt>
<trkpt lat="48.3377010" lon="-1.9014800"><ele></ele><time>2017-12-15T19:44:24Z</time></trkpt>
<trkpt lat="48.3376500" lon="-1.9014530"><ele></ele><time>2017-12-15T19:44:27Z</time></trkpt>
<trkpt lat="48.3376040" lon="-1.9014260"><ele></ele><time>2017-12-15T19:44:30Z</time></trkpt>
<trkpt lat="48.3375540" lon="-1.9013960"><ele></ele><time>2017-12-15T19:44:33Z</time></trkpt>
<trkpt lat="48.3375060" lon="-1.9013710"><ele></ele><time>2017-12-15T19:44:36Z</time></trkpt>
<trkpt lat="48.3374630" lon="-1.9013400"><ele></ele><time>2017-12-15T19:44:39Z</time></trkpt>
<trkpt lat="48.3374210" lon="-1.9013080"><ele></ele><time>2017-12-15T19:44:42Z</time></trkpt>
<trkpt lat="48.3373750" lon="-1.9012810"><ele></ele><time>2017-12-15T19:44:45Z</time></trkpt>
<trkpt lat="48.3373500" lon="-1.9012650"><ele></ele><time>2017-12-15T19:44:48Z</time></trkpt>
<trkpt lat="48.3373060" lon="-1.9012340"><ele></ele><time>2017-12-15T19:44:51Z</time></trkpt>
<trkpt lat="48.3372600" lon="-1.9012040"><ele></ele><time>2017-12-15T19:44:54Z</time></trkpt>
<trkpt lat="48.3372360" lon="-1.9011870"><ele></ele><time>2017-12-15T19:44:57Z</time></trkpt>
<trkpt lat="48.3371910" lon="-1.9011530"><ele></ele><time>2017-12-15T19:45:0Z</time></trkpt>
<trkpt lat="48.3371520" lon="-1.9011230"><ele></ele><time>2017-12-15T19:45:3Z</time></trkpt>
<trkpt lat="48.3371150" lon="-1.9010890"><ele></ele><time>2017-12-15T19:45:6Z</time></trkpt>
<trkpt lat="48.3370740" lon="-1.9010440"><ele></ele><time>2017-12-15T19:45:9Z</time></trkpt>
<trkpt lat="48.3370510" lon="-1.9010200"><ele></ele><time>2017-12-15T19:45:12Z</time></trkpt>
<trkpt lat="48.3370270" lon="-1.9009970"><ele></ele><time>2017-12-15T19:45:15Z</time></trkpt>
<trkpt lat="48.3369800" lon="-1.9009590"><ele></ele><time>2017-12-15T19:45:18Z</time></trkpt>
<trkpt lat="48.3369520" lon="-1.9009360"><ele></ele><time>2017-12-15T19:45:21Z</time></trkpt>
<trkpt lat="48.3369260" lon="-1.9009170"><ele></ele><time>2017-12-15T19:45:24Z</time></trkpt>
<trkpt lat="48.3368980" lon="-1.9009000"><ele></ele><time>2017-12-15T19:45:27Z</time></trkpt>
<trkpt lat="48.3368510" lon="-1.9008630"><ele></ele><time>2017-12-15T19:45:30Z</time></trkpt>
<trkpt lat="48.3368220" lon="-1.9008420"><ele></ele><time>2017-12-15T19:45:33Z</time></trkpt>
<trkpt lat="48.3367970" lon="-1.9008210"><ele></ele><time>2017-12-15T19:45:36Z</time></trkpt>
<trkpt lat="48.3367680" lon="-1.9008020"><ele></ele><time>2017-12-15T19:45:39Z</time></trkpt>
<trkpt lat="48.3367370" lon="-1.9007800"><ele></ele><time>2017-12-15T19:45:42Z</time></trkpt>
<trkpt lat="48.3367040" lon="-1.9007570"><ele></ele><time>2017-12-15T19:45:45Z</time></trkpt>
<trkpt lat="48.3366780" lon="-1.9007290"><ele></ele><time>2017-12-15T19:45:48Z</time></trkpt>
<trkpt lat="48.3366510" lon="-1.9007070"><ele></ele><time>2017-12-15T19:45:51Z</time></trkpt>
<trkpt lat="48.3366210" lon="-1.9006840"><ele></ele><time>2017-12-15T19:45:54Z</time></trkpt>
<trkpt lat="48.3365860" lon="-1.9006620"><ele></ele><time>2017-12-15T19:45:57Z</time></trkpt>
<trkpt lat="48.3365560" lon="-1.9006430"><ele></ele><time>2017-12-15T19:46:0Z</time></trkpt>
<trkpt lat="48.3365240" lon="-1.9006230"><ele></ele><time>2017-12-15T19:46:3Z</time></trkpt>
<trkpt lat="48.3364940" lon="-1.9006000"><ele></ele><time>2017-12-15T19:46:6Z</time></trkpt>
<trkpt lat="48.3364570" lon="-1.9005810"><ele></ele><time>2017-12-15T19:46:9Z</time></trkpt>
<trkpt lat="48.3364280" lon="-1.9005630"><ele></ele><time>2017-12-15T19:46:12Z</time></trkpt>
<trkpt lat="48.3363940" lon="-1.9005440"><ele></ele><time>2017-12-15T19:46:15Z</time></trkpt>
<trkpt lat="48.3363640" lon="-1.9005250"><ele></ele><time>2017-12-15T19:46:18Z</time></trkpt>
<trkpt lat="48.3363320" lon="-1.9005060"><ele></ele><time>2017-12-15T19:46:21Z</time></trkpt>
<trkpt lat="48.3363010" lon="-1.9004850"><ele></ele><time>2017-12-15T19:46:24Z</time></trkpt>
<trkpt lat="48.3362720" lon="-1.9004600"><ele></ele><time>2017-12-15T19:46:27Z</time></trkpt>
<trkpt lat="48.3362420" lon="-1.9004290"><ele></ele><time>2017-12-15T19:46:30Z</time></trkpt>
<trkpt lat="48.3362220" lon="-1.9003860"><ele></ele><time>2017-12-15T19:46:33Z</time></trkpt>
<trkpt lat="48.3362100" lon="-1.9003310"><ele></ele><time>2017-12-15T19:46:36Z</time></trkpt>
<trkpt lat="48.3362080" lon="-1.9002740"><ele></ele><time>2017-12-15T19:46:39Z</time></trkpt>
<trkpt lat="48.3362070" lon="-1.9002150"><ele></ele><time>2017-12-15T19:46:42Z</time></trkpt>
<trkpt lat="48.3362080" lon="-1.9001650"><ele></ele><time>2017-12-15T19:46:45Z</time></trkpt>
<trkpt lat="48.3362120" lon="-1.9001140"><ele></ele><time>2017-12-15T19:46:48Z</time></trkpt>
<trkpt lat="48.3362130" lon="-1.9000590"><ele></ele><time>2017-12-15T19:46:51Z</time></trkpt>
<trkpt lat="48.3362150" lon="-1.9000090"><ele></ele><time>2017-12-15T19:46:54Z</time></trkpt>
<trkpt lat="48.3362090" lon="-1.8999510"><ele></ele><time>2017-12-15T19:46:57Z</time></trkpt>
<trkpt lat="48.3362130" lon="-1.8998950"><ele></ele><time>2017-12-15T19:47:0Z</time></trkpt>
<trkpt lat="48.3362170" lon="-1.8998370"><ele></ele><time>2017-12-15T19:47:3Z</time></trkpt>
<trkpt lat="48.3362150" lon="-1.8997820"><ele></ele><time>2017-12-15T19:47:6Z</time></trkpt>
<trkpt lat="48.3362140" lon="-1.8997230"><ele></ele><time>2017-12-15T19:47:9Z</time></trkpt>
<trkpt lat="48.3362170" lon="-1.8996620"><ele></ele><time>2017-12-15T19:47:12Z</time></trkpt>
<trkpt lat="48.3362180" lon="-1.8995990"><ele></ele><time>2017-12-15T19:47:15Z</time></trkpt>
<trkpt lat="48.3362210" lon="-1.8995380"><ele></ele><time>2017-12-15T19:47:18Z</time></trkpt>
<trkpt lat="48.3362190" lon="-1.8994810"><ele></ele><time>2017-12-15T19:47:21Z</time></trkpt>
<trkpt lat="48.3362200" lon="-1.8994210"><ele></ele><time>2017-12-15T19:47:24Z</time></trkpt>
<trkpt lat="48.3362220" lon="-1.8993640"><ele></ele><time>2017-12-15T19:47:27Z</time></trkpt>
<trkpt lat="48.3362240" lon="-1.8993100"><ele></ele><time>2017-12-15T19:47:30Z</time></trkpt>
<trkpt lat="48.3362280" lon="-1.8992510"><ele></ele><time>2017-12-15T19:47:33Z</time></trkpt>
<trkpt lat="48.3362320" lon="-1.8991900"><ele></ele><time>2017-12-15T19:47:36Z</time></trkpt>
<trkpt lat="48.3362340" lon="-1.8991340"><ele></ele><time>2017-12-15T19:47:39Z</time></trkpt>
<trkpt lat="48.3362390" lon="-1.8990810"><ele></ele><time>2017-12-15T19:47:42Z</time></trkpt>
<trkpt lat="48.3362440" lon="-1.8990270"><ele></ele><time>2017-12-15T19:47:45Z</time></trkpt>
<trkpt lat="48.3362470" lon="-1.8989750"><ele></ele><time>2017-12-15T19:47:48Z</time></trkpt>
<trkpt lat="48.3362550" lon="-1.8989230"><ele></ele><time>2017-12-15T19:47:51Z</time></trkpt>
<trkpt lat="48.3362630" lon="-1.8988720"><ele></ele><time>2017-12-15T19:47:54Z</time></trkpt>
<trkpt lat="48.3362680" lon="-1.8988180"><ele></ele><time>2017-12-15T19:47:57Z</time></trkpt>
<trkpt lat="48.3362730" lon="-1.8987640"><ele></ele><time>2017-12-15T19:48:0Z</time></trkpt>
<trkpt lat="48.3362770" lon="-1.8987120"><ele></ele><time>2017-12-15T19:48:3Z</time></trkpt>
<trkpt lat="48.3362790" lon="-1.8986620"><ele></ele><time>2017-12-15T19:48:6Z</time></trkpt>
<trkpt lat="48.3362790" lon="-1.8986080"><ele></ele><time>2017-12-15T19:48:9Z</time></trkpt>
<trkpt lat="48.3362770" lon="-1.8985550"><ele></ele><time>2017-12-15T19:48:12Z</time></trkpt>
<trkpt lat="48.3362730" lon="-1.8985030"><ele></ele><time>2017-12-15T19:48:15Z</time></trkpt>
<trkpt lat="48.3362670" lon="-1.8984450"><ele></ele><time>2017-12-15T19:48:18Z</time></trkpt>
<trkpt lat="48.3362550" lon="-1.8983870"><ele></ele><time>2017-12-15T19:48:21Z</time></trkpt>
<trkpt lat="48.3362420" lon="-1.8983260"><ele></ele><time>2017-12-15T19:48:24Z</time></trkpt>
<trkpt lat="48.3362250" lon="-1.8982700"><ele></ele><time>2017-12-15T19:48:27Z</time></trkpt>
<trkpt lat="48.3362060" lon="-1.8982130"><ele></ele><time>2017-12-15T19:48:30Z</time></trkpt>
<trkpt lat="48.3361870" lon="-1.8981560"><ele></ele><time>2017-12-15T19:48:33Z</time></trkpt>
<trkpt lat="48.3361730" lon="-1.8980980"><ele></ele><time>2017-12-15T19:48:36Z</time></trkpt>
<trkpt lat="48.3361610" lon="-1.8980410"><ele></ele><time>2017-12-15T19:48:39Z</time></trkpt>
<trkpt lat="48.3361490" lon="-1.8979830"><ele></ele><time>2017-12-15T19:48:42Z</time></trkpt>
<trkpt lat="48.3361330" lon="-1.8979310"><ele></ele><time>2017-12-15T19:48:45Z</time></trkpt>
<trkpt lat="48.3361230" lon="-1.8978730"><ele></ele><time>2017-12-15T19:48:48Z</time></trkpt>
<trkpt lat="48.3361120" lon="-1.8978180"><ele></ele><time>2017-12-15T19:48:51Z</time></trkpt>
<trkpt lat="48.3361030" lon="-1.8977640"><ele></ele><time>2017-12-15T19:48:54Z</time></trkpt>
<trkpt lat="48.3360950" lon="-1.8977080"><ele></ele><time>2017-12-15T19:48:57Z</time></trkpt>
<trkpt lat="48.3360860" lon="-1.8976570"><ele></ele><time>2017-12-15T19:49:0Z</time></trkpt>
<trkpt lat="48.3360790" lon="-1.8976040"><ele></ele><time>2017-12-15T19:49:3Z</time></trkpt>
<trkpt lat="48.3360710" lon="-1.8975530"><ele></ele><time>2017-12-15T19:49:6Z</time></trkpt>
<trkpt lat="48.3360640" lon="-1.8975060"><ele></ele><time>2017-12-15T19:49:9Z</time></trkpt>
<trkpt lat="48.3360560" lon="-1.8974580"><ele></ele><time>2017-12-15T19:49:12Z</time></trkpt>
<trkpt lat="48.3360490" lon="-1.8974130"><ele></ele><time>2017-12-15T19:49:15Z</time></trkpt>
<trkpt lat="48.3360420" lon="-1.8973680"><ele></ele><time>2017-12-15T19:49:18Z</time></trkpt>
<trkpt lat="48.3360340" lon="-1.8973210"><ele></ele><time>2017-12-15T19:49:21Z</time></trkpt>
<trkpt lat="48.3360270" lon="-1.8972760"><ele></ele><time>2017-12-15T19:49:24Z</time></trkpt>
<trkpt lat="48.3360220" lon="-1.8972270"><ele></ele><time>2017-12-15T19:49:27Z</time></trkpt>
<trkpt lat="48.3360100" lon="-1.8971360"><ele></ele><time>2017-12-15T19:49:30Z</time></trkpt>
<trkpt lat="48.3360030" lon="-1.8970830"><ele></ele><time>2017-12-15T19:49:33Z</time></trkpt>
<trkpt lat="48.3359960" lon="-1.8970300"><ele></ele><time>2017-12-15T19:49:36Z</time></trkpt>
<trkpt lat="48.3359850" lon="-1.8969720"><ele></ele><time>2017-12-15T19:49:39Z</time></trkpt>
<trkpt lat="48.3359730" lon="-1.8969190"><ele></ele><time>2017-12-15T19:49:42Z</time></trkpt>
<trkpt lat="48.3359600" lon="-1.8968610"><ele></ele><time>2017-12-15T19:49:45Z</time></trkpt>
<trkpt lat="48.3359480" lon="-1.8968010"><ele></ele><time>2017-12-15T19:49:48Z</time></trkpt>
<trkpt lat="48.3359320" lon="-1.8967460"><ele></ele><time>2017-12-15T19:49:51Z</time></trkpt>
<trkpt lat="48.3358980" lon="-1.8967040"><ele></ele><time>2017-12-15T19:49:54Z</time></trkpt>
<trkpt lat="48.3358570" lon="-1.8966880"><ele></ele><time>2017-12-15T19:49:57Z</time></trkpt>
<trkpt lat="48.3358130" lon="-1.8966920"><ele></ele><time>2017-12-15T19:50:0Z</time></trkpt>
<trkpt lat="48.3357680" lon="-1.8967070"><ele></ele><time>2017-12-15T19:50:3Z</time></trkpt>
<trkpt lat="48.3357180" lon="-1.8967180"><ele></ele><time>2017-12-15T19:50:6Z</time></trkpt>
<trkpt lat="48.3356700" lon="-1.8967290"><ele></ele><time>2017-12-15T19:50:9Z</time></trkpt>
<trkpt lat="48.3356210" lon="-1.8967410"><ele></ele><time>2017-12-15T19:50:12Z</time></trkpt>
<trkpt lat="48.3355700" lon="-1.8967540"><ele></ele><time>2017-12-15T19:50:15Z</time></trkpt>
<trkpt lat="48.3355150" lon="-1.8967650"><ele></ele><time>2017-12-15T19:50:18Z</time></trkpt>
<trkpt lat="48.3354610" lon="-1.8967770"><ele></ele><time>2017-12-15T19:50:21Z</time></trkpt>
<trkpt lat="48.3354080" lon="-1.8967890"><ele></ele><time>2017-12-15T19:50:24Z</time></trkpt>
<trkpt lat="48.3353560" lon="-1.8968050"><ele></ele><time>2017-12-15T19:50:27Z</time></trkpt>
<trkpt lat="48.3353070" lon="-1.8968210"><ele></ele><time>2017-12-15T19:50:30Z</time></trkpt>
<trkpt lat="48.3352560" lon="-1.8968350"><ele></ele><time>2017-12-15T19:50:33Z</time></trkpt>
<trkpt lat="48.3352040" lon="-1.8968510"><ele></ele><time>2017-12-15T19:50:36Z</time></trkpt>
<trkpt lat="48.3351500" lon="-1.8968670"><ele></ele><time>2017-12-15T19:50:39Z</time></trkpt>
<trkpt lat="48.3350990" lon="-1.8968860"><ele></ele><time>2017-12-15T19:50:42Z</time></trkpt>
<trkpt lat="48.3350530" lon="-1.8969130"><ele></ele><time>2017-12-15T19:50:45Z</time></trkpt>
<trkpt lat="48.3350120" lon="-1.8969350"><ele></ele><time>2017-12-15T19:50:48Z</time></trkpt>
<trkpt lat="48.3349790" lon="-1.8969450"><ele></ele><time>2017-12-15T19:50:51Z</time></trkpt>
<trkpt lat="48.3349520" lon="-1.8969310"><ele></ele><time>2017-12-15T19:50:54Z</time></trkpt>
<trkpt lat="48.3349280" lon="-1.8968940"><ele></ele><time>2017-12-15T19:50:57Z</time></trkpt>
<trkpt lat="48.3349170" lon="-1.8968390"><ele></ele><time>2017-12-15T19:51:0Z</time></trkpt>
<trkpt lat="48.3349070" lon="-1.8967810"><ele></ele><time>2017-12-15T19:51:3Z</time></trkpt>
<trkpt lat="48.3349040" lon="-1.8967000"><ele></ele><time>2017-12-15T19:51:6Z</time></trkpt>
<trkpt lat="48.3348950" lon="-1.8966270"><ele></ele><time>2017-12-15T19:51:9Z</time></trkpt>
<trkpt lat="48.3348860" lon="-1.8965480"><ele></ele><time>2017-12-15T19:51:12Z</time></trkpt>
<trkpt lat="48.3348760" lon="-1.8964770"><ele></ele><time>2017-12-15T19:51:15Z</time></trkpt>
<trkpt lat="48.3348640" lon="-1.8964040"><ele></ele><time>2017-12-15T19:51:18Z</time></trkpt>
<trkpt lat="48.3348530" lon="-1.8963330"><ele></ele><time>2017-12-15T19:51:21Z</time></trkpt>
<trkpt lat="48.3348410" lon="-1.8962580"><ele></ele><time>2017-12-15T19:51:24Z</time></trkpt>
<trkpt lat="48.3348230" lon="-1.8961930"><ele></ele><time>2017-12-15T19:51:27Z</time></trkpt>
<trkpt lat="48.3347940" lon="-1.8961410"><ele></ele><time>2017-12-15T19:51:30Z</time></trkpt>
<trkpt lat="48.3347580" lon="-1.8961010"><ele></ele><time>2017-12-15T19:51:33Z</time></trkpt>
<trkpt lat="48.3347120" lon="-1.8960790"><ele></ele><time>2017-12-15T19:51:36Z</time></trkpt>
<trkpt lat="48.3346620" lon="-1.8960670"><ele></ele><time>2017-12-15T19:51:39Z</time></trkpt>
<trkpt lat="48.3346110" lon="-1.8960580"><ele></ele><time>2017-12-15T19:51:42Z</time></trkpt>
<trkpt lat="48.3345610" lon="-1.8960520"><ele></ele><time>2017-12-15T19:51:45Z</time></trkpt>
<trkpt lat="48.3345070" lon="-1.8960470"><ele></ele><time>2017-12-15T19:51:48Z</time></trkpt>
<trkpt lat="48.3344570" lon="-1.8960450"><ele></ele><time>2017-12-15T19:51:51Z</time></trkpt>
<trkpt lat="48.3344050" lon="-1.8960490"><ele></ele><time>2017-12-15T19:51:54Z</time></trkpt>
<trkpt lat="48.3343520" lon="-1.8960510"><ele></ele><time>2017-12-15T19:51:57Z</time></trkpt>
<trkpt lat="48.3343010" lon="-1.8960520"><ele></ele><time>2017-12-15T19:52:0Z</time></trkpt>
<trkpt lat="48.3342530" lon="-1.8960500"><ele></ele><time>2017-12-15T19:52:3Z</time></trkpt>
<trkpt lat="48.3342030" lon="-1.8960510"><ele></ele><time>2017-12-15T19:52:6Z</time></trkpt>
<trkpt lat="48.3341560" lon="-1.8960520"><ele></ele><time>2017-12-15T19:52:9Z</time></trkpt>
<trkpt lat="48.3341070" lon="-1.8960460"><ele></ele><time>2017-12-15T19:52:12Z</time></trkpt>
<trkpt lat="48.3340620" lon="-1.8960360"><ele></ele><time>2017-12-15T19:52:15Z</time></trkpt>
<trkpt lat="48.3340150" lon="-1.8960270"><ele></ele><time>2017-12-15T19:52:18Z</time></trkpt>
<trkpt lat="48.3339710" lon="-1.8960310"><ele></ele><time>2017-12-15T19:52:21Z</time></trkpt>
<trkpt lat="48.3339280" lon="-1.8960440"><ele></ele><time>2017-12-15T19:52:24Z</time></trkpt>
<trkpt lat="48.3338830" lon="-1.8960570"><ele></ele><time>2017-12-15T19:52:27Z</time></trkpt>
<trkpt lat="48.3338390" lon="-1.8960680"><ele></ele><time>2017-12-15T19:52:30Z</time></trkpt>
<trkpt lat="48.3337960" lon="-1.8960770"><ele></ele><time>2017-12-15T19:52:33Z</time></trkpt>
<trkpt lat="48.3337540" lon="-1.8960850"><ele></ele><time>2017-12-15T19:52:36Z</time></trkpt>
<trkpt lat="48.3337120" lon="-1.8960940"><ele></ele><time>2017-12-15T19:52:39Z</time></trkpt>
<trkpt lat="48.3336770" lon="-1.8961000"><ele></ele><time>2017-12-15T19:52:42Z</time></trkpt>
<trkpt lat="48.3336440" lon="-1.8961080"><ele></ele><time>2017-12-15T19:52:45Z</time></trkpt>
<trkpt lat="48.3336070" lon="-1.8961170"><ele></ele><time>2017-12-15T19:52:48Z</time></trkpt>
<trkpt lat="48.3335700" lon="-1.8961240"><ele></ele><time>2017-12-15T19:52:51Z</time></trkpt>
<trkpt lat="48.3335340" lon="-1.8961260"><ele></ele><time>2017-12-15T19:52:54Z</time></trkpt>
<trkpt lat="48.3334990" lon="-1.8961270"><ele></ele><time>2017-12-15T19:52:57Z</time></trkpt>
<trkpt lat="48.3334630" lon="-1.8961270"><ele></ele><time>2017-12-15T19:53:0Z</time></trkpt>
<trkpt lat="48.3334260" lon="-1.8961260"><ele></ele><time>2017-12-15T19:53:3Z</time></trkpt>
<trkpt lat="48.3333920" lon="-1.8961250"><ele></ele><time>2017-12-15T19:53:6Z</time></trkpt>
<trkpt lat="48.3333590" lon="-1.8961220"><ele></ele><time>2017-12-15T19:53:9Z</time></trkpt>
<trkpt lat="48.3333210" lon="-1.8961220"><ele></ele><time>2017-12-15T19:53:12Z</time></trkpt>
<trkpt lat="48.3332860" lon="-1.8961230"><ele></ele><time>2017-12-15T19:53:15Z</time></trkpt>
<trkpt lat="48.3332520" lon="-1.8961290"><ele></ele><time>2017-12-15T19:53:18Z</time></trkpt>
<trkpt lat="48.3332170" lon="-1.8961300"><ele></ele><time>2017-12-15T19:53:21Z</time></trkpt>
<trkpt lat="48.3331770" lon="-1.8961260"><ele></ele><time>2017-12-15T19:53:24Z</time></trkpt>
<trkpt lat="48.3331470" lon="-1.8961310"><ele></ele><time>2017-12-15T19:53:27Z</time></trkpt>
<trkpt lat="48.3331120" lon="-1.8961270"><ele></ele><time>2017-12-15T19:53:30Z</time></trkpt>
<trkpt lat="48.3330780" lon="-1.8961280"><ele></ele><time>2017-12-15T19:53:33Z</time></trkpt>
<trkpt lat="48.3330460" lon="-1.8961280"><ele></ele><time>2017-12-15T19:53:36Z</time></trkpt>
<trkpt lat="48.3330080" lon="-1.8961260"><ele></ele><time>2017-12-15T19:53:39Z</time></trkpt>
<trkpt lat="48.3329710" lon="-1.8961210"><ele></ele><time>2017-12-15T19:53:42Z</time></trkpt>
<trkpt lat="48.3329350" lon="-1.8961170"><ele></ele><time>2017-12-15T19:53:45Z</time></trkpt>
<trkpt lat="48.3328980" lon="-1.8961120"><ele></ele><time>2017-12-15T19:53:48Z</time></trkpt>
<trkpt lat="48.3328620" lon="-1.8961080"><ele></ele><time>2017-12-15T19:53:51Z</time></trkpt>
<trkpt lat="48.3328250" lon="-1.8961050"><ele></ele><time>2017-12-15T19:53:54Z</time></trkpt>
<trkpt lat="48.3327950" lon="-1.8960970"><ele></ele><time>2017-12-15T19:53:57Z</time></trkpt>
<trkpt lat="48.3327580" lon="-1.8960860"><ele></ele><time>2017-12-15T19:54:0Z</time></trkpt>
<trkpt lat="48.3327220" lon="-1.8960880"><ele></ele><time>2017-12-15T19:54:3Z</time></trkpt>
<trkpt lat="48.3326840" lon="-1.8960900"><ele></ele><time>2017-12-15T19:54:6Z</time></trkpt>
<trkpt lat="48.3326460" lon="-1.8960880"><ele></ele><time>2017-12-15T19:54:9Z</time></trkpt>
<trkpt lat="48.3326080" lon="-1.8960850"><ele></ele><time>2017-12-15T19:54:12Z</time></trkpt>
<trkpt lat="48.3325730" lon="-1.8960900"><ele></ele><time>2017-12-15T19:54:15Z</time></trkpt>
<trkpt lat="48.3325340" lon="-1.8960810"><ele></ele><time>2017-12-15T19:54:18Z</time></trkpt>
<trkpt lat="48.3324930" lon="-1.8960780"><ele></ele><time>2017-12-15T19:54:21Z</time></trkpt>
<trkpt lat="48.3324520" lon="-1.8960740"><ele></ele><time>2017-12-15T19:54:24Z</time></trkpt>
<trkpt lat="48.3324100" lon="-1.8960670"><ele></ele><time>2017-12-15T19:54:27Z</time></trkpt>
<trkpt lat="48.3323670" lon="-1.8960640"><ele></ele><time>2017-12-15T19:54:30Z</time></trkpt>
<trkpt lat="48.3323250" lon="-1.8960580"><ele></ele><time>2017-12-15T19:54:33Z</time></trkpt>
<trkpt lat="48.3322830" lon="-1.8960550"><ele></ele><time>2017-12-15T19:54:36Z</time></trkpt>
<trkpt lat="48.3322420" lon="-1.8960510"><ele></ele><time>2017-12-15T19:54:39Z</time></trkpt>
<trkpt lat="48.3322020" lon="-1.8960470"><ele></ele><time>2017-12-15T19:54:42Z</time></trkpt>
<trkpt lat="48.3321590" lon="-1.8960450"><ele></ele><time>2017-12-15T19:54:45Z</time></trkpt>
<trkpt lat="48.3321180" lon="-1.8960410"><ele></ele><time>2017-12-15T19:54:48Z</time></trkpt>
<trkpt lat="48.3320780" lon="-1.8960380"><ele></ele><time>2017-12-15T19:54:51Z</time></trkpt>
<trkpt lat="48.3320370" lon="-1.8960340"><ele></ele><time>2017-12-15T19:54:54Z</time></trkpt>
<trkpt lat="48.3319990" lon="-1.8960330"><ele></ele><time>2017-12-15T19:54:57Z</time></trkpt>
<trkpt lat="48.3319610" lon="-1.8960330"><ele></ele><time>2017-12-15T19:55:0Z</time></trkpt>
<trkpt lat="48.3319260" lon="-1.8960320"><ele></ele><time>2017-12-15T19:55:3Z</time></trkpt>
<trkpt lat="48.3318890" lon="-1.8960300"><ele></ele><time>2017-12-15T19:55:6Z</time></trkpt>
<trkpt lat="48.3318500" lon="-1.8960320"><ele></ele><time>2017-12-15T19:55:9Z</time></trkpt>
<trkpt lat="48.3318180" lon="-1.8960550"><ele></ele><time>2017-12-15T19:55:12Z</time></trkpt>
<trkpt lat="48.3317950" lon="-1.8961000"><ele></ele><time>2017-12-15T19:55:15Z</time></trkpt>
<trkpt lat="48.3317840" lon="-1.8961630"><ele></ele><time>2017-12-15T19:55:18Z</time></trkpt>
<trkpt lat="48.3317790" lon="-1.8962300"><ele></ele><time>2017-12-15T19:55:21Z</time></trkpt>
<trkpt lat="48.3317740" lon="-1.8963030"><ele></ele><time>2017-12-15T19:55:24Z</time></trkpt>
<trkpt lat="48.3317720" lon="-1.8963740"><ele></ele><time>2017-12-15T19:55:27Z</time></trkpt>
<trkpt lat="48.3317720" lon="-1.8964510"><ele></ele><time>2017-12-15T19:55:30Z</time></trkpt>
<trkpt lat="48.3317720" lon="-1.8965280"><ele></ele><time>2017-12-15T19:55:33Z</time></trkpt>
<trkpt lat="48.3317680" lon="-1.8966090"><ele></ele><time>2017-12-15T19:55:36Z</time></trkpt>
<trkpt lat="48.3317660" lon="-1.8966860"><ele></ele><time>2017-12-15T19:55:39Z</time></trkpt>
<trkpt lat="48.3317620" lon="-1.8967630"><ele></ele><time>2017-12-15T19:55:42Z</time></trkpt>
<trkpt lat="48.3317620" lon="-1.8968430"><ele></ele><time>2017-12-15T19:55:45Z</time></trkpt>
<trkpt lat="48.3317640" lon="-1.8969230"><ele></ele><time>2017-12-15T19:55:48Z</time></trkpt>
<trkpt lat="48.3317630" lon="-1.8970000"><ele></ele><time>2017-12-15T19:55:51Z</time></trkpt>
<trkpt lat="48.3317640" lon="-1.8970800"><ele></ele><time>2017-12-15T19:55:54Z</time></trkpt>
<trkpt lat="48.3317630" lon="-1.8971600"><ele></ele><time>2017-12-15T19:55:57Z</time></trkpt>
<trkpt lat="48.3317590" lon="-1.8972400"><ele></ele><time>2017-12-15T19:56:0Z</time></trkpt>
<trkpt lat="48.3317390" lon="-1.8973110"><ele></ele><time>2017-12-15T19:56:3Z</time></trkpt>
<trkpt lat="48.3316990" lon="-1.8973500"><ele></ele><time>2017-12-15T19:56:6Z</time></trkpt>
<trkpt lat="48.3316600" lon="-1.8973690"><ele></ele><time>2017-12-15T19:56:9Z</time></trkpt>
<trkpt lat="48.3316130" lon="-1.8973660"><ele></ele><time>2017-12-15T19:56:12Z</time></trkpt>
<trkpt lat="48.3315680" lon="-1.8973590"><ele></ele><time>2017-12-15T19:56:15Z</time></trkpt>
<trkpt lat="48.3315230" lon="-1.8973580"><ele></ele><time>2017-12-15T19:56:18Z</time></trkpt>
<trkpt lat="48.3314780" lon="-1.8973580"><ele></ele><time>2017-12-15T19:56:21Z</time></trkpt>
<trkpt lat="48.3314370" lon="-1.8973580"><ele></ele><time>2017-12-15T19:56:24Z</time></trkpt>
<trkpt lat="48.3313890" lon="-1.8973490"><ele></ele><time>2017-12-15T19:56:27Z</time></trkpt>
<trkpt lat="48.3313410" lon="-1.8973450"><ele></ele><time>2017-12-15T19:56:30Z</time></trkpt>
<trkpt lat="48.3312950" lon="-1.8973430"><ele></ele><time>2017-12-15T19:56:33Z</time></trkpt>
<trkpt lat="48.3312490" lon="-1.8973440"><ele></ele><time>2017-12-15T19:56:36Z</time></trkpt>
<trkpt lat="48.3311990" lon="-1.8973320"><ele></ele><time>2017-12-15T19:56:39Z</time></trkpt>
<trkpt lat="48.3311510" lon="-1.8973200"><ele></ele><time>2017-12-15T19:56:42Z</time></trkpt>
<trkpt lat="48.3310870" lon="-1.8973160"><ele></ele><time>2017-12-15T19:56:45Z</time></trkpt>
<trkpt lat="48.3310430" lon="-1.8973020"><ele></ele><time>2017-12-15T19:56:48Z</time></trkpt>
<trkpt lat="48.3310160" lon="-1.8973070"><ele></ele><time>2017-12-15T19:56:51Z</time></trkpt>
<trkpt lat="48.3309850" lon="-1.8973120"><ele></ele><time>2017-12-15T19:56:54Z</time></trkpt>
<trkpt lat="48.3309380" lon="-1.8973030"><ele></ele><time>2017-12-15T19:56:57Z</time></trkpt>
<trkpt lat="48.3308930" lon="-1.8972960"><ele></ele><time>2017-12-15T19:57:0Z</time></trkpt>
<trkpt lat="48.3308530" lon="-1.8972880"><ele></ele><time>2017-12-15T19:57:3Z</time></trkpt>
<trkpt lat="48.3308060" lon="-1.8972840"><ele></ele><time>2017-12-15T19:57:6Z</time></trkpt>
<trkpt lat="48.3307600" lon="-1.8972830"><ele></ele><time>2017-12-15T19:57:9Z</time></trkpt>
<trkpt lat="48.3307180" lon="-1.8972880"><ele></ele><time>2017-12-15T19:57:12Z</time></trkpt>
<trkpt lat="48.3306760" lon="-1.8973080"><ele></ele><time>2017-12-15T19:57:15Z</time></trkpt>
<trkpt lat="48.3306360" lon="-1.8973220"><ele></ele><time>2017-12-15T19:57:18Z</time></trkpt>
<trkpt lat="48.3305960" lon="-1.8973450"><ele></ele><time>2017-12-15T19:57:21Z</time></trkpt>
<trkpt lat="48.3305550" lon="-1.8973670"><ele></ele><time>2017-12-15T19:57:24Z</time></trkpt>
<trkpt lat="48.3305230" lon="-1.8974010"><ele></ele><time>2017-12-15T19:57:27Z</time></trkpt>
<trkpt lat="48.3304900" lon="-1.8974390"><ele></ele><time>2017-12-15T19:57:30Z</time></trkpt>
<trkpt lat="48.3304570" lon="-1.8974820"><ele></ele><time>2017-12-15T19:57:33Z</time></trkpt>
<trkpt lat="48.3304190" lon="-1.8975170"><ele></ele><time>2017-12-15T19:57:36Z</time></trkpt>
<trkpt lat="48.3303830" lon="-1.8975480"><ele></ele><time>2017-12-15T19:57:39Z</time></trkpt>
<trkpt lat="48.3303440" lon="-1.8975800"><ele></ele><time>2017-12-15T19:57:42Z</time></trkpt>
<trkpt lat="48.3303020" lon="-1.8976100"><ele></ele><time>2017-12-15T19:57:45Z</time></trkpt>
<trkpt lat="48.3302540" lon="-1.8976320"><ele></ele><time>2017-12-15T19:57:48Z</time></trkpt>
<trkpt lat="48.3302080" lon="-1.8976530"><ele></ele><time>2017-12-15T19:57:51Z</time></trkpt>
<trkpt lat="48.3301740" lon="-1.8976890"><ele></ele><time>2017-12-15T19:57:54Z</time></trkpt>
<trkpt lat="48.3301230" lon="-1.8977160"><ele></ele><time>2017-12-15T19:57:57Z</time></trkpt>
<trkpt lat="48.3300620" lon="-1.8977390"><ele></ele><time>2017-12-15T19:58:0Z</time></trkpt>
<trkpt lat="48.3300060" lon="-1.8977590"><ele></ele><time>2017-12-15T19:58:3Z</time></trkpt>
<trkpt lat="48.3299480" lon="-1.8977850"><ele></ele><time>2017-12-15T19:58:6Z</time></trkpt>
<trkpt lat="48.3298940" lon="-1.8978060"><ele></ele><time>2017-12-15T19:58:9Z</time></trkpt>
<trkpt lat="48.3298350" lon="-1.8978170"><ele></ele><time>2017-12-15T19:58:12Z</time></trkpt>
<trkpt lat="48.3297840" lon="-1.8978330"><ele></ele><time>2017-12-15T19:58:15Z</time></trkpt>
<trkpt lat="48.3297330" lon="-1.8978510"><ele></ele><time>2017-12-15T19:58:18Z</time></trkpt>
<trkpt lat="48.3296790" lon="-1.8978650"><ele></ele><time>2017-12-15T19:58:21Z</time></trkpt>
<trkpt lat="48.3296200" lon="-1.8978880"><ele></ele><time>2017-12-15T19:58:24Z</time></trkpt>
<trkpt lat="48.3295650" lon="-1.8979150"><ele></ele><time>2017-12-15T19:58:27Z</time></trkpt>
<trkpt lat="48.3295090" lon="-1.8979420"><ele></ele><time>2017-12-15T19:58:30Z</time></trkpt>
<trkpt lat="48.3294560" lon="-1.8979680"><ele></ele><time>2017-12-15T19:58:33Z</time></trkpt>
<trkpt lat="48.3294010" lon="-1.8979910"><ele></ele><time>2017-12-15T19:58:36Z</time></trkpt>
<trkpt lat="48.3293400" lon="-1.8980100"><ele></ele><time>2017-12-15T19:58:39Z</time></trkpt>
<trkpt lat="48.3292770" lon="-1.8980300"><ele></ele><time>2017-12-15T19:58:42Z</time></trkpt>
<trkpt lat="48.3292280" lon="-1.8980670"><ele></ele><time>2017-12-15T19:58:45Z</time></trkpt>
<trkpt lat="48.3291680" lon="-1.8980880"><ele></ele><time>2017-12-15T19:58:48Z</time></trkpt>
<trkpt lat="48.3291140" lon="-1.8981020"><ele></ele><time>2017-12-15T19:58:51Z</time></trkpt>
<trkpt lat="48.3290610" lon="-1.8981060"><ele></ele><time>2017-12-15T19:58:54Z</time></trkpt>
<trkpt lat="48.3290080" lon="-1.8981110"><ele></ele><time>2017-12-15T19:58:57Z</time></trkpt>
<trkpt lat="48.3289570" lon="-1.8981110"><ele></ele><time>2017-12-15T19:59:0Z</time></trkpt>
<trkpt lat="48.3289050" lon="-1.8981070"><ele></ele><time>2017-12-15T19:59:3Z</time></trkpt>
<trkpt lat="48.3288520" lon="-1.8981080"><ele></ele><time>2017-12-15T19:59:6Z</time></trkpt>
<trkpt lat="48.3288120" lon="-1.8981060"><ele></ele><time>2017-12-15T19:59:9Z</time></trkpt>
<trkpt lat="48.3287640" lon="-1.8981110"><ele></ele><time>2017-12-15T19:59:12Z</time></trkpt>
<trkpt lat="48.3287370" lon="-1.8981290"><ele></ele><time>2017-12-15T19:59:15Z</time></trkpt>
<trkpt lat="48.3287020" lon="-1.8981080"><ele></ele><time>2017-12-15T19:59:18Z</time></trkpt>
<trkpt lat="48.3286620" lon="-1.8981000"><ele></ele><time>2017-12-15T19:59:21Z</time></trkpt>
<trkpt lat="48.3286290" lon="-1.8980950"><ele></ele><time>2017-12-15T19:59:24Z</time></trkpt>
<trkpt lat="48.3285980" lon="-1.8980890"><ele></ele><time>2017-12-15T19:59:27Z</time></trkpt>
<trkpt lat="48.3285700" lon="-1.8980800"><ele></ele><time>2017-12-15T19:59:30Z</time></trkpt>
<trkpt lat="48.3285360" lon="-1.8980690"><ele></ele><time>2017-12-15T19:59:33Z</time></trkpt>
<trkpt lat="48.3285040" lon="-1.8980640"><ele></ele><time>2017-12-15T19:59:36Z</time></trkpt>
<trkpt lat="48.3284650" lon="-1.8980580"><ele></ele><time>2017-12-15T19:59:39Z</time></trkpt>
<trkpt lat="48.3284250" lon="-1.8980680"><ele></ele><time>2017-12-15T19:59:42Z</time></trkpt>
<trkpt lat="48.3283910" lon="-1.8980700"><ele></ele><time>2017-12-15T19:59:45Z</time></trkpt>
<trkpt lat="48.3283490" lon="-1.8980640"><ele></ele><time>2017-12-15T19:59:48Z</time></trkpt>
<trkpt lat="48.3283140" lon="-1.8980630"><ele></ele><time>2017-12-15T19:59:51Z</time></trkpt>
<trkpt lat="48.3282850" lon="-1.8980630"><ele></ele><time>2017-12-15T19:59:54Z</time></trkpt>
<trkpt lat="48.3282490" lon="-1.8980660"><ele></ele><time>2017-12-15T19:59:57Z</time></trkpt>
<trkpt lat="48.3282130" lon="-1.8980690"><ele></ele><time>2017-12-15T20:0:0Z</time></trkpt>
<trkpt lat="48.3281770" lon="-1.8980710"><ele></ele><time>2017-12-15T20:0:3Z</time></trkpt>
<trkpt lat="48.3281440" lon="-1.8980790"><ele></ele><time>2017-12-15T20:0:6Z</time></trkpt>
<trkpt lat="48.3281050" lon="-1.8980790"><ele></ele><time>2017-12-15T20:0:9Z</time></trkpt>
<trkpt lat="48.3280650" lon="-1.8980780"><ele></ele><time>2017-12-15T20:0:12Z</time></trkpt>
<trkpt lat="48.3280310" lon="-1.8980820"><ele></ele><time>2017-12-15T20:0:15Z</time></trkpt>
<trkpt lat="48.3279990" lon="-1.8980840"><ele></ele><time>2017-12-15T20:0:18Z</time></trkpt>
<trkpt lat="48.3279680" lon="-1.8980880"><ele></ele><time>2017-12-15T20:0:21Z</time></trkpt>
<trkpt lat="48.3279370" lon="-1.8980930"><ele></ele><time>2017-12-15T20:0:24Z</time></trkpt>
<trkpt lat="48.3279000" lon="-1.8981040"><ele></ele><time>2017-12-15T20:0:27Z</time></trkpt>
<trkpt lat="48.3278670" lon="-1.8981160"><ele></ele><time>2017-12-15T20:0:30Z</time></trkpt>
<trkpt lat="48.3278410" lon="-1.8981260"><ele></ele><time>2017-12-15T20:0:33Z</time></trkpt>
<trkpt lat="48.3278090" lon="-1.8981300"><ele></ele><time>2017-12-15T20:0:36Z</time></trkpt>
<trkpt lat="48.3277780" lon="-1.8981280"><ele></ele><time>2017-12-15T20:0:39Z</time></trkpt>
<trkpt lat="48.3277460" lon="-1.8981280"><ele></ele><time>2017-12-15T20:0:42Z</time></trkpt>
<trkpt lat="48.3276860" lon="-1.8981360"><ele></ele><time>2017-12-15T20:0:45Z</time></trkpt>
<trkpt lat="48.3276550" lon="-1.8981390"><ele></ele><time>2017-12-15T20:0:48Z</time></trkpt>
<trkpt lat="48.3276270" lon="-1.8981490"><ele></ele><time>2017-12-15T20:0:51Z</time></trkpt>
<trkpt lat="48.3275980" lon="-1.8981550"><ele></ele><time>2017-12-15T20:0:54Z</time></trkpt>
<trkpt lat="48.3275620" lon="-1.8981470"><ele></ele><time>2017-12-15T20:0:57Z</time></trkpt>
<trkpt lat="48.3275030" lon="-1.8981550"><ele></ele><time>2017-12-15T20:1:0Z</time></trkpt>
<trkpt lat="48.3274700" lon="-1.8981660"><ele></ele><time>2017-12-15T20:1:3Z</time></trkpt>
<trkpt lat="48.3274400" lon="-1.8981790"><ele></ele><time>2017-12-15T20:1:6Z</time></trkpt>
<trkpt lat="48.3274040" lon="-1.8981850"><ele></ele><time>2017-12-15T20:1:9Z</time></trkpt>
<trkpt lat="48.3273740" lon="-1.8981890"><ele></ele><time>2017-12-15T20:1:12Z</time></trkpt>
<trkpt lat="48.3273290" lon="-1.8982190"><ele></ele><time>2017-12-15T20:1:15Z</time></trkpt>
<trkpt lat="48.3272810" lon="-1.8982310"><ele></ele><time>2017-12-15T20:1:18Z</time></trkpt>
<trkpt lat="48.3272350" lon="-1.8982430"><ele></ele><time>2017-12-15T20:1:21Z</time></trkpt>
<trkpt lat="48.3271820" lon="-1.8982530"><ele></ele><time>2017-12-15T20:1:24Z</time></trkpt>
<trkpt lat="48.3271540" lon="-1.8982570"><ele></ele><time>2017-12-15T20:1:27Z</time></trkpt>
<trkpt lat="48.3271260" lon="-1.8982570"><ele></ele><time>2017-12-15T20:1:30Z</time></trkpt>
<trkpt lat="48.3270830" lon="-1.8982580"><ele></ele><time>2017-12-15T20:1:33Z</time></trkpt>
<trkpt lat="48.3270430" lon="-1.8982630"><ele></ele><time>2017-12-15T20:1:36Z</time></trkpt>
<trkpt lat="48.3269860" lon="-1.8982530"><ele></ele><time>2017-12-15T20:1:39Z</time></trkpt>
<trkpt lat="48.3269380" lon="-1.8982470"><ele></ele><time>2017-12-15T20:1:42Z</time></trkpt>
<trkpt lat="48.3269080" lon="-1.8982520"><ele></ele><time>2017-12-15T20:1:45Z</time></trkpt>
<trkpt lat="48.3268720" lon="-1.8982460"><ele></ele><time>2017-12-15T20:1:48Z</time></trkpt>
<trkpt lat="48.3268450" lon="-1.8982430"><ele></ele><time>2017-12-15T20:1:51Z</time></trkpt>
<trkpt lat="48.3268150" lon="-1.8982420"><ele></ele><time>2017-12-15T20:1:54Z</time></trkpt>
<trkpt lat="48.3267860" lon="-1.8982270"><ele></ele><time>2017-12-15T20:1:57Z</time></trkpt>
<trkpt lat="48.3267300" lon="-1.8982280"><ele></ele><time>2017-12-15T20:2:0Z</time></trkpt>
<trkpt lat="48.3266990" lon="-1.8982260"><ele></ele><time>2017-12-15T20:2:3Z</time></trkpt>
<trkpt lat="48.3266680" lon="-1.8982250"><ele></ele><time>2017-12-15T20:2:6Z</time></trkpt>
<trkpt lat="48.3266330" lon="-1.8982250"><ele></ele><time>2017-12-15T20:2:9Z</time></trkpt>
<trkpt lat="48.3266030" lon="-1.8982290"><ele></ele><time>2017-12-15T20:2:12Z</time></trkpt>
<trkpt lat="48.3265740" lon="-1.8982280"><ele></ele><time>2017-12-15T20:2:15Z</time></trkpt>
<trkpt lat="48.3265450" lon="-1.8982310"><ele></ele><time>2017-12-15T20:2:18Z</time></trkpt>
<trkpt lat="48.3265110" lon="-1.8982350"><ele></ele><time>2017-12-15T20:2:21Z</time></trkpt>
<trkpt lat="48.3264800" lon="-1.8982450"><ele></ele><time>2017-12-15T20:2:24Z</time></trkpt>
<trkpt lat="48.3264470" lon="-1.8982490"><ele></ele><time>2017-12-15T20:2:27Z</time></trkpt>
<trkpt lat="48.3264170" lon="-1.8982290"><ele></ele><time>2017-12-15T20:2:30Z</time></trkpt>
<trkpt lat="48.3263970" lon="-1.8981900"><ele></ele><time>2017-12-15T20:2:33Z</time></trkpt>
<trkpt lat="48.3263850" lon="-1.8981420"><ele></ele><time>2017-12-15T20:2:36Z</time></trkpt>
<trkpt lat="48.3263710" lon="-1.8980950"><ele></ele><time>2017-12-15T20:2:39Z</time></trkpt>
<trkpt lat="48.3263550" lon="-1.8980490"><ele></ele><time>2017-12-15T20:2:42Z</time></trkpt>
<trkpt lat="48.3263400" lon="-1.8980060"><ele></ele><time>2017-12-15T20:2:45Z</time></trkpt>
<trkpt lat="48.3263340" lon="-1.8979530"><ele></ele><time>2017-12-15T20:2:48Z</time></trkpt>
<trkpt lat="48.3263210" lon="-1.8979000"><ele></ele><time>2017-12-15T20:2:51Z</time></trkpt>
<trkpt lat="48.3263100" lon="-1.8978410"><ele></ele><time>2017-12-15T20:2:54Z</time></trkpt>
<trkpt lat="48.3263000" lon="-1.8977860"><ele></ele><time>2017-12-15T20:2:57Z</time></trkpt>
<trkpt lat="48.3262900" lon="-1.8977320"><ele></ele><time>2017-12-15T20:3:0Z</time></trkpt>
<trkpt lat="48.3262790" lon="-1.8976760"><ele></ele><time>2017-12-15T20:3:3Z</time></trkpt>
<trkpt lat="48.3262690" lon="-1.8976180"><ele></ele><time>2017-12-15T20:3:6Z</time></trkpt>
<trkpt lat="48.3262610" lon="-1.8975610"><ele></ele><time>2017-12-15T20:3:9Z</time></trkpt>
<trkpt lat="48.3262540" lon="-1.8975050"><ele></ele><time>2017-12-15T20:3:12Z</time></trkpt>
<trkpt lat="48.3262500" lon="-1.8974480"><ele></ele><time>2017-12-15T20:3:15Z</time></trkpt>
<trkpt lat="48.3262440" lon="-1.8973950"><ele></ele><time>2017-12-15T20:3:18Z</time></trkpt>
<trkpt lat="48.3262360" lon="-1.8973430"><ele></ele><time>2017-12-15T20:3:21Z</time></trkpt>
<trkpt lat="48.3262300" lon="-1.8972860"><ele></ele><time>2017-12-15T20:3:24Z</time></trkpt>
<trkpt lat="48.3262250" lon="-1.8972260"><ele></ele><time>2017-12-15T20:3:27Z</time></trkpt>
<trkpt lat="48.3262170" lon="-1.8971680"><ele></ele><time>2017-12-15T20:3:30Z</time></trkpt>
<trkpt lat="48.3262070" lon="-1.8971090"><ele></ele><time>2017-12-15T20:3:33Z</time></trkpt>
<trkpt lat="48.3261970" lon="-1.8970520"><ele></ele><time>2017-12-15T20:3:36Z</time></trkpt>
<trkpt lat="48.3261870" lon="-1.8969910"><ele></ele><time>2017-12-15T20:3:39Z</time></trkpt>
<trkpt lat="48.3261720" lon="-1.8969340"><ele></ele><time>2017-12-15T20:3:42Z</time></trkpt>
<trkpt lat="48.3261580" lon="-1.8968760"><ele></ele><time>2017-12-15T20:3:45Z</time></trkpt>
<trkpt lat="48.3261400" lon="-1.8968190"><ele></ele><time>2017-12-15T20:3:48Z</time></trkpt>
<trkpt lat="48.3261200" lon="-1.8967670"><ele></ele><time>2017-12-15T20:3:51Z</time></trkpt>
<trkpt lat="48.3260990" lon="-1.8967140"><ele></ele><time>2017-12-15T20:3:54Z</time></trkpt>
<trkpt lat="48.3260800" lon="-1.8966590"><ele></ele><time>2017-12-15T20:3:57Z</time></trkpt>
<trkpt lat="48.3260580" lon="-1.8966050"><ele></ele><time>2017-12-15T20:4:0Z</time></trkpt>
<trkpt lat="48.3260390" lon="-1.8965560"><ele></ele><time>2017-12-15T20:4:3Z</time></trkpt>
<trkpt lat="48.3260160" lon="-1.8965050"><ele></ele><time>2017-12-15T20:4:6Z</time></trkpt>
<trkpt lat="48.3259910" lon="-1.8964540"><ele></ele><time>2017-12-15T20:4:9Z</time></trkpt>
<trkpt lat="48.3259690" lon="-1.8964000"><ele></ele><time>2017-12-15T20:4:12Z</time></trkpt>
<trkpt lat="48.3259480" lon="-1.8963460"><ele></ele><time>2017-12-15T20:4:15Z</time></trkpt>
<trkpt lat="48.3259240" lon="-1.8962950"><ele></ele><time>2017-12-15T20:4:18Z</time></trkpt>
<trkpt lat="48.3258990" lon="-1.8962470"><ele></ele><time>2017-12-15T20:4:21Z</time></trkpt>
<trkpt lat="48.3258740" lon="-1.8961970"><ele></ele><time>2017-12-15T20:4:24Z</time></trkpt>
<trkpt lat="48.3258480" lon="-1.8961500"><ele></ele><time>2017-12-15T20:4:27Z</time></trkpt>
<trkpt lat="48.3258230" lon="-1.8961000"><ele></ele><time>2017-12-15T20:4:30Z</time></trkpt>
<trkpt lat="48.3258010" lon="-1.8960450"><ele></ele><time>2017-12-15T20:4:33Z</time></trkpt>
<trkpt lat="48.3257790" lon="-1.8959920"><ele></ele><time>2017-12-15T20:4:36Z</time></trkpt>
<trkpt lat="48.3257540" lon="-1.8959440"><ele></ele><time>2017-12-15T20:4:39Z</time></trkpt>
<trkpt lat="48.3257300" lon="-1.8958960"><ele></ele><time>2017-12-15T20:4:42Z</time></trkpt>
<trkpt lat="48.3257050" lon="-1.8958470"><ele></ele><time>2017-12-15T20:4:45Z</time></trkpt>
<trkpt lat="48.3256820" lon="-1.8958000"><ele></ele><time>2017-12-15T20:4:48Z</time></trkpt>
<trkpt lat="48.3256640" lon="-1.8957490"><ele></ele><time>2017-12-15T20:4:51Z</time></trkpt>
<trkpt lat="48.3256440" lon="-1.8956970"><ele></ele><time>2017-12-15T20:4:54Z</time></trkpt>
<trkpt lat="48.3256220" lon="-1.8956490"><ele></ele><time>2017-12-15T20:4:57Z</time></trkpt>
<trkpt lat="48.3256010" lon="-1.8956030"><ele></ele><time>2017-12-15T20:5:0Z</time></trkpt>
<trkpt lat="48.3255780" lon="-1.8955620"><ele></ele><time>2017-12-15T20:5:3Z</time></trkpt>
<trkpt lat="48.3255570" lon="-1.8955260"><ele></ele><time>2017-12-15T20:5:6Z</time></trkpt>
<trkpt lat="48.3255320" lon="-1.8954990"><ele></ele><time>2017-12-15T20:5:9Z</time></trkpt>
<trkpt lat="48.3254990" lon="-1.8954800"><ele></ele><time>2017-12-15T20:5:12Z</time></trkpt>
<trkpt lat="48.3254630" lon="-1.8954780"><ele></ele><time>2017-12-15T20:5:15Z</time></trkpt>
<trkpt lat="48.3254250" lon="-1.8954910"><ele></ele><time>2017-12-15T20:5:18Z</time></trkpt>
<trkpt lat="48.3253860" lon="-1.8955180"><ele></ele><time>2017-12-15T20:5:21Z</time></trkpt>
<trkpt lat="48.3253460" lon="-1.8955400"><ele></ele><time>2017-12-15T20:5:24Z</time></trkpt>
<trkpt lat="48.3253060" lon="-1.8955650"><ele></ele><time>2017-12-15T20:5:27Z</time></trkpt>
<trkpt lat="48.3252670" lon="-1.8955860"><ele></ele><time>2017-12-15T20:5:30Z</time></trkpt>
<trkpt lat="48.3252260" lon="-1.8955960"><ele></ele><time>2017-12-15T20:5:33Z</time></trkpt>
<trkpt lat="48.3251880" lon="-1.8956150"><ele></ele><time>2017-12-15T20:5:36Z</time></trkpt>
<trkpt lat="48.3251470" lon="-1.8956260"><ele></ele><time>2017-12-15T20:5:39Z</time></trkpt>
<trkpt lat="48.3251060" lon="-1.8956440"><ele></ele><time>2017-12-15T20:5:42Z</time></trkpt>
<trkpt lat="48.3250670" lon="-1.8956590"><ele></ele><time>2017-12-15T20:5:45Z</time></trkpt>
<trkpt lat="48.3250290" lon="-1.8956780"><ele></ele><time>2017-12-15T20:5:48Z</time></trkpt>
<trkpt lat="48.3249900" lon="-1.8956950"><ele></ele><time>2017-12-15T20:5:51Z</time></trkpt>
<trkpt lat="48.3249530" lon="-1.8957110"><ele></ele><time>2017-12-15T20:5:54Z</time></trkpt>
<trkpt lat="48.3249160" lon="-1.8957300"><ele></ele><time>2017-12-15T20:5:57Z</time></trkpt>
<trkpt lat="48.3248780" lon="-1.8957520"><ele></ele><time>2017-12-15T20:6:0Z</time></trkpt>
<trkpt lat="48.3248400" lon="-1.8957720"><ele></ele><time>2017-12-15T20:6:3Z</time></trkpt>
<trkpt lat="48.3248000" lon="-1.8957890"><ele></ele><time>2017-12-15T20:6:6Z</time></trkpt>
<trkpt lat="48.3247620" lon="-1.8958060"><ele></ele><time>2017-12-15T20:6:9Z</time></trkpt>
<trkpt lat="48.3247240" lon="-1.8958270"><ele></ele><time>2017-12-15T20:6:12Z</time></trkpt>
<trkpt lat="48.3246870" lon="-1.8958460"><ele></ele><time>2017-12-15T20:6:15Z</time></trkpt>
<trkpt lat="48.3246510" lon="-1.8958630"><ele></ele><time>2017-12-15T20:6:18Z</time></trkpt>
<trkpt lat="48.3246160" lon="-1.8958770"><ele></ele><time>2017-12-15T20:6:21Z</time></trkpt>
<trkpt lat="48.3245830" lon="-1.8958920"><ele></ele><time>2017-12-15T20:6:24Z</time></trkpt>
<trkpt lat="48.3245550" lon="-1.8959020"><ele></ele><time>2017-12-15T20:6:27Z</time></trkpt>
<trkpt lat="48.3245300" lon="-1.8959150"><ele></ele><time>2017-12-15T20:6:30Z</time></trkpt>
<trkpt lat="48.3245060" lon="-1.8959820"><ele></ele><time>2017-12-15T20:6:33Z</time></trkpt>
<trkpt lat="48.3245080" lon="-1.8960310"><ele></ele><time>2017-12-15T20:6:36Z</time></trkpt>
<trkpt lat="48.3245140" lon="-1.8960730"><ele></ele><time>2017-12-15T20:6:39Z</time></trkpt>
<trkpt lat="48.3245280" lon="-1.8961220"><ele></ele><time>2017-12-15T20:6:42Z</time></trkpt>
<trkpt lat="48.3245340" lon="-1.8961630"><ele></ele><time>2017-12-15T20:6:45Z</time></trkpt>
<trkpt lat="48.3245400" lon="-1.8962050"><ele></ele><time>2017-12-15T20:6:48Z</time></trkpt>
<trkpt lat="48.3245600" lon="-1.8962650"><ele></ele><time>2017-12-15T20:6:51Z</time></trkpt>
<trkpt lat="48.3245690" lon="-1.8963280"><ele></ele><time>2017-12-15T20:6:54Z</time></trkpt>
<trkpt lat="48.3245760" lon="-1.8963730"><ele></ele><time>2017-12-15T20:6:57Z</time></trkpt>
<trkpt lat="48.3245880" lon="-1.8964460"><ele></ele><time>2017-12-15T20:7:0Z</time></trkpt>
<trkpt lat="48.3245980" lon="-1.8965250"><ele></ele><time>2017-12-15T20:7:3Z</time></trkpt>
<trkpt lat="48.3246100" lon="-1.8965660"><ele></ele><time>2017-12-15T20:7:6Z</time></trkpt>
<trkpt lat="48.3246160" lon="-1.8966090"><ele></ele><time>2017-12-15T20:7:9Z</time></trkpt>
<trkpt lat="48.3246180" lon="-1.8966720"><ele></ele><time>2017-12-15T20:7:12Z</time></trkpt>
<trkpt lat="48.3246270" lon="-1.8967210"><ele></ele><time>2017-12-15T20:7:15Z</time></trkpt>
<trkpt lat="48.3246330" lon="-1.8967780"><ele></ele><time>2017-12-15T20:7:18Z</time></trkpt>
<trkpt lat="48.3246420" lon="-1.8968480"><ele></ele><time>2017-12-15T20:7:21Z</time></trkpt>
<trkpt lat="48.3246570" lon="-1.8968970"><ele></ele><time>2017-12-15T20:7:24Z</time></trkpt>
<trkpt lat="48.3246680" lon="-1.8969410"><ele></ele><time>2017-12-15T20:7:27Z</time></trkpt>
<trkpt lat="48.3246760" lon="-1.8969980"><ele></ele><time>2017-12-15T20:7:30Z</time></trkpt>
<trkpt lat="48.3246830" lon="-1.8970570"><ele></ele><time>2017-12-15T20:7:33Z</time></trkpt>
<trkpt lat="48.3246920" lon="-1.8971100"><ele></ele><time>2017-12-15T20:7:36Z</time></trkpt>
<trkpt lat="48.3247010" lon="-1.8971600"><ele></ele><time>2017-12-15T20:7:39Z</time></trkpt>
<trkpt lat="48.3247040" lon="-1.8972060"><ele></ele><time>2017-12-15T20:7:42Z</time></trkpt>
<trkpt lat="48.3247000" lon="-1.8972690"><ele></ele><time>2017-12-15T20:7:45Z</time></trkpt>
<trkpt lat="48.3247010" lon="-1.8973110"><ele></ele><time>2017-12-15T20:7:48Z</time></trkpt>
<trkpt lat="48.3247120" lon="-1.8973510"><ele></ele><time>2017-12-15T20:7:51Z</time></trkpt>
<trkpt lat="48.3247160" lon="-1.8973920"><ele></ele><time>2017-12-15T20:7:54Z</time></trkpt>
<trkpt lat="48.3247240" lon="-1.8974420"><ele></ele><time>2017-12-15T20:7:57Z</time></trkpt>
<trkpt lat="48.3247330" lon="-1.8974930"><ele></ele><time>2017-12-15T20:8:0Z</time></trkpt>
<trkpt lat="48.3247350" lon="-1.8975360"><ele></ele><time>2017-12-15T20:8:3Z</time></trkpt>
<trkpt lat="48.3247400" lon="-1.8975890"><ele></ele><time>2017-12-15T20:8:6Z</time></trkpt>
<trkpt lat="48.3247440" lon="-1.8976600"><ele></ele><time>2017-12-15T20:8:9Z</time></trkpt>
<trkpt lat="48.3247550" lon="-1.8977240"><ele></ele><time>2017-12-15T20:8:12Z</time></trkpt>
<trkpt lat="48.3247630" lon="-1.8977740"><ele></ele><time>2017-12-15T20:8:15Z</time></trkpt>
<trkpt lat="48.3247720" lon="-1.8978280"><ele></ele><time>2017-12-15T20:8:18Z</time></trkpt>
<trkpt lat="48.3247830" lon="-1.8978800"><ele></ele><time>2017-12-15T20:8:21Z</time></trkpt>
<trkpt lat="48.3247880" lon="-1.8979340"><ele></ele><time>2017-12-15T20:8:24Z</time></trkpt>
<trkpt lat="48.3247890" lon="-1.8979880"><ele></ele><time>2017-12-15T20:8:27Z</time></trkpt>
<trkpt lat="48.3247920" lon="-1.8980300"><ele></ele><time>2017-12-15T20:8:30Z</time></trkpt>
<trkpt lat="48.3247930" lon="-1.8980830"><ele></ele><time>2017-12-15T20:8:33Z</time></trkpt>
<trkpt lat="48.3247960" lon="-1.8981350"><ele></ele><time>2017-12-15T20:8:36Z</time></trkpt>
<trkpt lat="48.3247950" lon="-1.8981900"><ele></ele><time>2017-12-15T20:8:39Z</time></trkpt>
<trkpt lat="48.3247990" lon="-1.8982450"><ele></ele><time>2017-12-15T20:8:42Z</time></trkpt>
<trkpt lat="48.3248000" lon="-1.8982910"><ele></ele><time>2017-12-15T20:8:45Z</time></trkpt>
<trkpt lat="48.3248030" lon="-1.8983400"><ele></ele><time>2017-12-15T20:8:48Z</time></trkpt>
<trkpt lat="48.3248050" lon="-1.8983840"><ele></ele><time>2017-12-15T20:8:51Z</time></trkpt>
<trkpt lat="48.3248120" lon="-1.8984370"><ele></ele><time>2017-12-15T20:8:54Z</time></trkpt>
<trkpt lat="48.3248180" lon="-1.8984890"><ele></ele><time>2017-12-15T20:8:57Z</time></trkpt>
<trkpt lat="48.3248170" lon="-1.8985450"><ele></ele><time>2017-12-15T20:9:0Z</time></trkpt>
<trkpt lat="48.3248270" lon="-1.8985870"><ele></ele><time>2017-12-15T20:9:3Z</time></trkpt>
<trkpt lat="48.3248270" lon="-1.8986380"><ele></ele><time>2017-12-15T20:9:6Z</time></trkpt>
<trkpt lat="48.3248290" lon="-1.8986910"><ele></ele><time>2017-12-15T20:9:9Z</time></trkpt>
<trkpt lat="48.3248260" lon="-1.8987390"><ele></ele><time>2017-12-15T20:9:12Z</time></trkpt>
<trkpt lat="48.3248260" lon="-1.8988050"><ele></ele><time>2017-12-15T20:9:15Z</time></trkpt>
<trkpt lat="48.3248350" lon="-1.8988740"><ele></ele><time>2017-12-15T20:9:18Z</time></trkpt>
<trkpt lat="48.3248350" lon="-1.8989350"><ele></ele><time>2017-12-15T20:9:21Z</time></trkpt>
<trkpt lat="48.3248350" lon="-1.8989890"><ele></ele><time>2017-12-15T20:9:24Z</time></trkpt>
<trkpt lat="48.3248320" lon="-1.8990400"><ele></ele><time>2017-12-15T20:9:27Z</time></trkpt>
<trkpt lat="48.3248360" lon="-1.8990890"><ele></ele><time>2017-12-15T20:9:30Z</time></trkpt>
<trkpt lat="48.3248370" lon="-1.8991310"><ele></ele><time>2017-12-15T20:9:33Z</time></trkpt>
<trkpt lat="48.3248430" lon="-1.8991750"><ele></ele><time>2017-12-15T20:9:36Z</time></trkpt>
<trkpt lat="48.3248510" lon="-1.8992150"><ele></ele><time>2017-12-15T20:9:39Z</time></trkpt>
<trkpt lat="48.3248540" lon="-1.8992610"><ele></ele><time>2017-12-15T20:9:42Z</time></trkpt>
<trkpt lat="48.3248500" lon="-1.8993110"><ele></ele><time>2017-12-15T20:9:45Z</time></trkpt>
<trkpt lat="48.3248500" lon="-1.8993640"><ele></ele><time>2017-12-15T20:9:48Z</time></trkpt>
<trkpt lat="48.3248530" lon="-1.8994190"><ele></ele><time>2017-12-15T20:9:51Z</time></trkpt>
<trkpt lat="48.3248580" lon="-1.8994700"><ele></ele><time>2017-12-15T20:9:54Z</time></trkpt>
<trkpt lat="48.3248600" lon="-1.8995200"><ele></ele><time>2017-12-15T20:9:57Z</time></trkpt>
<trkpt lat="48.3248680" lon="-1.8995730"><ele></ele><time>2017-12-15T20:10:0Z</time></trkpt>
<trkpt lat="48.3248750" lon="-1.8996140"><ele></ele><time>2017-12-15T20:10:3Z</time></trkpt>
<trkpt lat="48.3248800" lon="-1.8996980"><ele></ele><time>2017-12-15T20:10:6Z</time></trkpt>
<trkpt lat="48.3248860" lon="-1.8997400"><ele></ele><time>2017-12-15T20:10:9Z</time></trkpt>
<trkpt lat="48.3248950" lon="-1.8998010"><ele></ele><time>2017-12-15T20:10:12Z</time></trkpt>
<trkpt lat="48.3249050" lon="-1.8998630"><ele></ele><time>2017-12-15T20:10:15Z</time></trkpt>
<trkpt lat="48.3249120" lon="-1.8999210"><ele></ele><time>2017-12-15T20:10:18Z</time></trkpt>
<trkpt lat="48.3249200" lon="-1.8999710"><ele></ele><time>2017-12-15T20:10:21Z</time></trkpt>
<trkpt lat="48.3249270" lon="-1.9000270"><ele></ele><time>2017-12-15T20:10:24Z</time></trkpt>
<trkpt lat="48.3249350" lon="-1.9000790"><ele></ele><time>2017-12-15T20:10:27Z</time></trkpt>
<trkpt lat="48.3249470" lon="-1.9001190"><ele></ele><time>2017-12-15T20:10:30Z</time></trkpt>
<trkpt lat="48.3249560" lon="-1.9001800"><ele></ele><time>2017-12-15T20:10:33Z</time></trkpt>
<trkpt lat="48.3249680" lon="-1.9002400"><ele></ele><time>2017-12-15T20:10:36Z</time></trkpt>
<trkpt lat="48.3249730" lon="-1.9003020"><ele></ele><time>2017-12-15T20:10:39Z</time></trkpt>
<trkpt lat="48.3249870" lon="-1.9003550"><ele></ele><time>2017-12-15T20:10:42Z</time></trkpt>
<trkpt lat="48.3250010" lon="-1.9004150"><ele></ele><time>2017-12-15T20:10:45Z</time></trkpt>
<trkpt lat="48.3250080" lon="-1.9004600"><ele></ele><time>2017-12-15T20:10:48Z</time></trkpt>
<trkpt lat="48.3249640" lon="-1.9005210"><ele></ele><time>2017-12-15T20:10:51Z</time></trkpt>
<trkpt lat="48.3249390" lon="-1.9005430"><ele></ele><time>2017-12-15T20:10:54Z</time></trkpt>
<trkpt lat="48.3249100" lon="-1.9005510"><ele></ele><time>2017-12-15T20:10:57Z</time></trkpt>
<trkpt lat="48.3248780" lon="-1.9005560"><ele></ele><time>2017-12-15T20:11:0Z</time></trkpt>
<trkpt lat="48.3248450" lon="-1.9005680"><ele></ele><time>2017-12-15T20:11:3Z</time></trkpt>
<trkpt lat="48.3248190" lon="-1.9005960"><ele></ele><time>2017-12-15T20:11:6Z</time></trkpt>
<trkpt lat="48.3247880" lon="-1.9006070"><ele></ele><time>2017-12-15T20:11:9Z</time></trkpt>
<trkpt lat="48.3247580" lon="-1.9006250"><ele></ele><time>2017-12-15T20:11:12Z</time></trkpt>
<trkpt lat="48.3247210" lon="-1.9006420"><ele></ele><time>2017-12-15T20:11:15Z</time></trkpt>
<trkpt lat="48.3246890" lon="-1.9006560"><ele></ele><time>2017-12-15T20:11:18Z</time></trkpt>
<trkpt lat="48.3246620" lon="-1.9006740"><ele></ele><time>2017-12-15T20:11:21Z</time></trkpt>
<trkpt lat="48.3246340" lon="-1.9006900"><ele></ele><time>2017-12-15T20:11:24Z</time></trkpt>
<trkpt lat="48.3246070" lon="-1.9007110"><ele></ele><time>2017-12-15T20:11:27Z</time></trkpt>
<trkpt lat="48.3245830" lon="-1.9007310"><ele></ele><time>2017-12-15T20:11:30Z</time></trkpt>
<trkpt lat="48.3245490" lon="-1.9007470"><ele></ele><time>2017-12-15T20:11:33Z</time></trkpt>
<trkpt lat="48.3245230" lon="-1.9007790"><ele></ele><time>2017-12-15T20:11:36Z</time></trkpt>
<trkpt lat="48.3244960" lon="-1.9007980"><ele></ele><time>2017-12-15T20:11:39Z</time></trkpt>
<trkpt lat="48.3244600" lon="-1.9008120"><ele></ele><time>2017-12-15T20:11:42Z</time></trkpt>
<trkpt lat="48.3244260" lon="-1.9008290"><ele></ele><time>2017-12-15T20:11:45Z</time></trkpt>
<trkpt lat="48.3243960" lon="-1.9008480"><ele></ele><time>2017-12-15T20:11:48Z</time></trkpt>
<trkpt lat="48.3243670" lon="-1.9008610"><ele></ele><time>2017-12-15T20:11:51Z</time></trkpt>
<trkpt lat="48.3243290" lon="-1.9008680"><ele></ele><time>2017-12-15T20:11:54Z</time></trkpt>
<trkpt lat="48.3242890" lon="-1.9008820"><ele></ele><time>2017-12-15T20:11:57Z</time></trkpt>
<trkpt lat="48.3242520" lon="-1.9009000"><ele></ele><time>2017-12-15T20:12:0Z</time></trkpt>
<trkpt lat="48.3242160" lon="-1.9009120"><ele></ele><time>2017-12-15T20:12:3Z</time></trkpt>
<trkpt lat="48.3241890" lon="-1.9009290"><ele></ele><time>2017-12-15T20:12:6Z</time></trkpt>
<trkpt lat="48.3241580" lon="-1.9009420"><ele></ele><time>2017-12-15T20:12:9Z</time></trkpt>
<trkpt lat="48.3241220" lon="-1.9009520"><ele></ele><time>2017-12-15T20:12:12Z</time></trkpt>
<trkpt lat="48.3240930" lon="-1.9009650"><ele></ele><time>2017-12-15T20:12:15Z</time></trkpt>
<trkpt lat="48.3240590" lon="-1.9009760"><ele></ele><time>2017-12-15T20:12:18Z</time></trkpt>
<trkpt lat="48.3240120" lon="-1.9010000"><ele></ele><time>2017-12-15T20:12:21Z</time></trkpt>
<trkpt lat="48.3239850" lon="-1.9010170"><ele></ele><time>2017-12-15T20:12:24Z</time></trkpt>
<trkpt lat="48.3239540" lon="-1.9010340"><ele></ele><time>2017-12-15T20:12:27Z</time></trkpt>
<trkpt lat="48.3239230" lon="-1.9010480"><ele></ele><time>2017-12-15T20:12:30Z</time></trkpt>
<trkpt lat="48.3238950" lon="-1.9010630"><ele></ele><time>2017-12-15T20:12:33Z</time></trkpt>
<trkpt lat="48.3238540" lon="-1.9010630"><ele></ele><time>2017-12-15T20:12:36Z</time></trkpt>
<trkpt lat="48.3238240" lon="-1.9010710"><ele></ele><time>2017-12-15T20:12:39Z</time></trkpt>
<trkpt lat="48.3237880" lon="-1.9010810"><ele></ele><time>2017-12-15T20:12:42Z</time></trkpt>
<trkpt lat="48.3237490" lon="-1.9011070"><ele></ele><time>2017-12-15T20:12:45Z</time></trkpt>
<trkpt lat="48.3237150" lon="-1.9011220"><ele></ele><time>2017-12-15T20:12:48Z</time></trkpt>
<trkpt lat="48.3236780" lon="-1.9011330"><ele></ele><time>2017-12-15T20:12:51Z</time></trkpt>
<trkpt lat="48.3236430" lon="-1.9011700"><ele></ele><time>2017-12-15T20:12:54Z</time></trkpt>
<trkpt lat="48.3235830" lon="-1.9011960"><ele></ele><time>2017-12-15T20:12:57Z</time></trkpt>
<trkpt lat="48.3235460" lon="-1.9012040"><ele></ele><time>2017-12-15T20:13:0Z</time></trkpt>
<trkpt lat="48.3235160" lon="-1.9012100"><ele></ele><time>2017-12-15T20:13:3Z</time></trkpt>
<trkpt lat="48.3234880" lon="-1.9012170"><ele></ele><time>2017-12-15T20:13:6Z</time></trkpt>
<trkpt lat="48.3234470" lon="-1.9012190"><ele></ele><time>2017-12-15T20:13:9Z</time></trkpt>
<trkpt lat="48.3234010" lon="-1.9012540"><ele></ele><time>2017-12-15T20:13:12Z</time></trkpt>
<trkpt lat="48.3233840" lon="-1.9012920"><ele></ele><time>2017-12-15T20:13:15Z</time></trkpt>
<trkpt lat="48.3233780" lon="-1.9013370"><ele></ele><time>2017-12-15T20:13:18Z</time></trkpt>
<trkpt lat="48.3233820" lon="-1.9013800"><ele></ele><time>2017-12-15T20:13:21Z</time></trkpt>
<trkpt lat="48.3233880" lon="-1.9014250"><ele></ele><time>2017-12-15T20:13:24Z</time></trkpt>
<trkpt lat="48.3233930" lon="-1.9014720"><ele></ele><time>2017-12-15T20:13:27Z</time></trkpt>
<trkpt lat="48.3233950" lon="-1.9015220"><ele></ele><time>2017-12-15T20:13:30Z</time></trkpt>
<trkpt lat="48.3233970" lon="-1.9015770"><ele></ele><time>2017-12-15T20:13:33Z</time></trkpt>
<trkpt lat="48.3233990" lon="-1.9016320"><ele></ele><time>2017-12-15T20:13:36Z</time></trkpt>
<trkpt lat="48.3234010" lon="-1.9016880"><ele></ele><time>2017-12-15T20:13:39Z</time></trkpt>
<trkpt lat="48.3234040" lon="-1.9017460"><ele></ele><time>2017-12-15T20:13:42Z</time></trkpt>
<trkpt lat="48.3234070" lon="-1.9018110"><ele></ele><time>2017-12-15T20:13:45Z</time></trkpt>
<trkpt lat="48.3234100" lon="-1.9018810"><ele></ele><time>2017-12-15T20:13:48Z</time></trkpt>
<trkpt lat="48.3234120" lon="-1.9019550"><ele></ele><time>2017-12-15T20:13:51Z</time></trkpt>
<trkpt lat="48.3234150" lon="-1.9020200"><ele></ele><time>2017-12-15T20:13:54Z</time></trkpt>
<trkpt lat="48.3234100" lon="-1.9020730"><ele></ele><time>2017-12-15T20:13:57Z</time></trkpt>
<trkpt lat="48.3233910" lon="-1.9021060"><ele></ele><time>2017-12-15T20:14:0Z</time></trkpt>
<trkpt lat="48.3233590" lon="-1.9021290"><ele></ele><time>2017-12-15T20:14:3Z</time></trkpt>
<trkpt lat="48.3233290" lon="-1.9021460"><ele></ele><time>2017-12-15T20:14:6Z</time></trkpt>
<trkpt lat="48.3232920" lon="-1.9021310"><ele></ele><time>2017-12-15T20:14:9Z</time></trkpt>
<trkpt lat="48.3232420" lon="-1.9021320"><ele></ele><time>2017-12-15T20:14:12Z</time></trkpt>
<trkpt lat="48.3232130" lon="-1.9021310"><ele></ele><time>2017-12-15T20:14:15Z</time></trkpt>
<trkpt lat="48.3231850" lon="-1.9021380"><ele></ele><time>2017-12-15T20:14:18Z</time></trkpt>
<trkpt lat="48.3231560" lon="-1.9021410"><ele></ele><time>2017-12-15T20:14:21Z</time></trkpt>
<trkpt lat="48.3231240" lon="-1.9021390"><ele></ele><time>2017-12-15T20:14:24Z</time></trkpt>
<trkpt lat="48.3230950" lon="-1.9021390"><ele></ele><time>2017-12-15T20:14:27Z</time></trkpt>
<trkpt lat="48.3230440" lon="-1.9021430"><ele></ele><time>2017-12-15T20:14:30Z</time></trkpt>
<trkpt lat="48.3229920" lon="-1.9021370"><ele></ele><time>2017-12-15T20:14:33Z</time></trkpt>
<trkpt lat="48.3229630" lon="-1.9021360"><ele></ele><time>2017-12-15T20:14:36Z</time></trkpt>
<trkpt lat="48.3229350" lon="-1.9021390"><ele></ele><time>2017-12-15T20:14:39Z</time></trkpt>
<trkpt lat="48.3228810" lon="-1.9021390"><ele></ele><time>2017-12-15T20:14:42Z</time></trkpt>
<trkpt lat="48.3228540" lon="-1.9021410"><ele></ele><time>2017-12-15T20:14:45Z</time></trkpt>
<trkpt lat="48.3228260" lon="-1.9021430"><ele></ele><time>2017-12-15T20:14:48Z</time></trkpt>
<trkpt lat="48.3227980" lon="-1.9021430"><ele></ele><time>2017-12-15T20:14:51Z</time></trkpt>
<trkpt lat="48.3227700" lon="-1.9021410"><ele></ele><time>2017-12-15T20:14:54Z</time></trkpt>
<trkpt lat="48.3227410" lon="-1.9021420"><ele></ele><time>2017-12-15T20:14:57Z</time></trkpt>
<trkpt lat="48.3227120" lon="-1.9021440"><ele></ele><time>2017-12-15T20:15:0Z</time></trkpt>
<trkpt lat="48.3226830" lon="-1.9021470"><ele></ele><time>2017-12-15T20:15:3Z</time></trkpt>
<trkpt lat="48.3226530" lon="-1.9021480"><ele></ele><time>2017-12-15T20:15:6Z</time></trkpt>
<trkpt lat="48.3226210" lon="-1.9021450"><ele></ele><time>2017-12-15T20:15:9Z</time></trkpt>
<trkpt lat="48.3225900" lon="-1.9021450"><ele></ele><time>2017-12-15T20:15:12Z</time></trkpt>
<trkpt lat="48.3225600" lon="-1.9021410"><ele></ele><time>2017-12-15T20:15:15Z</time></trkpt>
<trkpt lat="48.3225310" lon="-1.9021320"><ele></ele><time>2017-12-15T20:15:18Z</time></trkpt>
<trkpt lat="48.3225000" lon="-1.9021300"><ele></ele><time>2017-12-15T20:15:21Z</time></trkpt>
<trkpt lat="48.3224710" lon="-1.9021270"><ele></ele><time>2017-12-15T20:15:24Z</time></trkpt>
<trkpt lat="48.3224410" lon="-1.9021260"><ele></ele><time>2017-12-15T20:15:27Z</time></trkpt>
<trkpt lat="48.3224130" lon="-1.9021270"><ele></ele><time>2017-12-15T20:15:30Z</time></trkpt>
<trkpt lat="48.3223850" lon="-1.9021310"><ele></ele><time>2017-12-15T20:15:33Z</time></trkpt>
<trkpt lat="48.3223560" lon="-1.9021310"><ele></ele><time>2017-12-15T20:15:36Z</time></trkpt>
<trkpt lat="48.3223290" lon="-1.9021380"><ele></ele><time>2017-12-15T20:15:39Z</time></trkpt>
<trkpt lat="48.3223000" lon="-1.9021430"><ele></ele><time>2017-12-15T20:15:42Z</time></trkpt>
<trkpt lat="48.3222710" lon="-1.9021470"><ele></ele><time>2017-12-15T20:15:45Z</time></trkpt>
<trkpt lat="48.3222390" lon="-1.9021500"><ele></ele><time>2017-12-15T20:15:48Z</time></trkpt>
<trkpt lat="48.3222090" lon="-1.9021530"><ele></ele><time>2017-12-15T20:15:51Z</time></trkpt>
<trkpt lat="48.3221810" lon="-1.9021620"><ele></ele><time>2017-12-15T20:15:54Z</time></trkpt>
<trkpt lat="48.3221530" lon="-1.9021650"><ele></ele><time>2017-12-15T20:15:57Z</time></trkpt>
<trkpt lat="48.3221230" lon="-1.9021660"><ele></ele><time>2017-12-15T20:16:0Z</time></trkpt>
<trkpt lat="48.3220950" lon="-1.9021680"><ele></ele><time>2017-12-15T20:16:3Z</time></trkpt>
<trkpt lat="48.3220650" lon="-1.9021690"><ele></ele><time>2017-12-15T20:16:6Z</time></trkpt>
<trkpt lat="48.3220350" lon="-1.9021740"><ele></ele><time>2017-12-15T20:16:9Z</time></trkpt>
<trkpt lat="48.3220030" lon="-1.9021730"><ele></ele><time>2017-12-15T20:16:12Z</time></trkpt>
<trkpt lat="48.3219510" lon="-1.9021780"><ele></ele><time>2017-12-15T20:16:15Z</time></trkpt>
<trkpt lat="48.3219230" lon="-1.9021810"><ele></ele><time>2017-12-15T20:16:18Z</time></trkpt>
<trkpt lat="48.3218950" lon="-1.9021840"><ele></ele><time>2017-12-15T20:16:21Z</time></trkpt>
<trkpt lat="48.3218440" lon="-1.9021780"><ele></ele><time>2017-12-15T20:16:24Z</time></trkpt>
<trkpt lat="48.3218010" lon="-1.9021430"><ele></ele><time>2017-12-15T20:16:27Z</time></trkpt>
<trkpt lat="48.3217750" lon="-1.9020870"><ele></ele><time>2017-12-15T20:16:30Z</time></trkpt>
<trkpt lat="48.3217710" lon="-1.9020110"><ele></ele><time>2017-12-15T20:16:33Z</time></trkpt>
<trkpt lat="48.3217680" lon="-1.9019700"><ele></ele><time>2017-12-15T20:16:36Z</time></trkpt>
<trkpt lat="48.3217610" lon="-1.9018910"><ele></ele><time>2017-12-15T20:16:39Z</time></trkpt>
<trkpt lat="48.3217470" lon="-1.9018140"><ele></ele><time>2017-12-15T20:16:42Z</time></trkpt>
<trkpt lat="48.3217390" lon="-1.9017730"><ele></ele><time>2017-12-15T20:16:45Z</time></trkpt>
<trkpt lat="48.3217230" lon="-1.9016970"><ele></ele><time>2017-12-15T20:16:48Z</time></trkpt>
<trkpt lat="48.3217060" lon="-1.9016150"><ele></ele><time>2017-12-15T20:16:51Z</time></trkpt>
<trkpt lat="48.3216930" lon="-1.9015750"><ele></ele><time>2017-12-15T20:16:54Z</time></trkpt>
<trkpt lat="48.3216710" lon="-1.9015450"><ele></ele><time>2017-12-15T20:16:57Z</time></trkpt>
<trkpt lat="48.3216440" lon="-1.9015280"><ele></ele><time>2017-12-15T20:17:0Z</time></trkpt>
<trkpt lat="48.3216140" lon="-1.9015290"><ele></ele><time>2017-12-15T20:17:3Z</time></trkpt>
<trkpt lat="48.3215810" lon="-1.9015410"><ele></ele><time>2017-12-15T20:17:6Z</time></trkpt>
<trkpt lat="48.3215490" lon="-1.9015540"><ele></ele><time>2017-12-15T20:17:9Z</time></trkpt>
<trkpt lat="48.3215170" lon="-1.9015680"><ele></ele><time>2017-12-15T20:17:12Z</time></trkpt>
<trkpt lat="48.3214850" lon="-1.9015810"><ele></ele><time>2017-12-15T20:17:15Z</time></trkpt>
<trkpt lat="48.3214490" lon="-1.9016020"><ele></ele><time>2017-12-15T20:17:18Z</time></trkpt>
<trkpt lat="48.3214140" lon="-1.9016140"><ele></ele><time>2017-12-15T20:17:21Z</time></trkpt>
<trkpt lat="48.3213810" lon="-1.9016290"><ele></ele><time>2017-12-15T20:17:24Z</time></trkpt>
<trkpt lat="48.3213510" lon="-1.9016410"><ele></ele><time>2017-12-15T20:17:27Z</time></trkpt>
<trkpt lat="48.3213180" lon="-1.9016510"><ele></ele><time>2017-12-15T20:17:30Z</time></trkpt>
<trkpt lat="48.3212840" lon="-1.9016590"><ele></ele><time>2017-12-15T20:17:33Z</time></trkpt>
<trkpt lat="48.3212540" lon="-1.9016690"><ele></ele><time>2017-12-15T20:17:36Z</time></trkpt>
<trkpt lat="48.3212260" lon="-1.9016770"><ele></ele><time>2017-12-15T20:17:39Z</time></trkpt>
<trkpt lat="48.3211980" lon="-1.9016900"><ele></ele><time>2017-12-15T20:17:42Z</time></trkpt>
<trkpt lat="48.3211650" lon="-1.9016990"><ele></ele><time>2017-12-15T20:17:45Z</time></trkpt>
<trkpt lat="48.3211340" lon="-1.9017100"><ele></ele><time>2017-12-15T20:17:48Z</time></trkpt>
<trkpt lat="48.3211060" lon="-1.9017190"><ele></ele><time>2017-12-15T20:17:51Z</time></trkpt>
<trkpt lat="48.3210780" lon="-1.9017170"><ele></ele><time>2017-12-15T20:17:54Z</time></trkpt>
<trkpt lat="48.3210730" lon="-1.9016580"><ele></ele><time>2017-12-15T20:17:57Z</time></trkpt>
<trkpt lat="48.3210610" lon="-1.9016090"><ele></ele><time>2017-12-15T20:18:0Z</time></trkpt>
<trkpt lat="48.3210200" lon="-1.9015640"><ele></ele><time>2017-12-15T20:18:3Z</time></trkpt>
<trkpt lat="48.3209800" lon="-1.9015670"><ele></ele><time>2017-12-15T20:18:6Z</time></trkpt>
<trkpt lat="48.3209550" lon="-1.9015850"><ele></ele><time>2017-12-15T20:18:9Z</time></trkpt>
<trkpt lat="48.3209240" lon="-1.9016060"><ele></ele><time>2017-12-15T20:18:12Z</time></trkpt>
<trkpt lat="48.3208960" lon="-1.9016260"><ele></ele><time>2017-12-15T20:18:15Z</time></trkpt>
<trkpt lat="48.3208600" lon="-1.9016420"><ele></ele><time>2017-12-15T20:18:18Z</time></trkpt>
<trkpt lat="48.3208270" lon="-1.9016620"><ele></ele><time>2017-12-15T20:18:21Z</time></trkpt>
<trkpt lat="48.3207960" lon="-1.9016860"><ele></ele><time>2017-12-15T20:18:24Z</time></trkpt>
<trkpt lat="48.3207670" lon="-1.9016980"><ele></ele><time>2017-12-15T20:18:27Z</time></trkpt>
<trkpt lat="48.3207270" lon="-1.9017270"><ele></ele><time>2017-12-15T20:18:30Z</time></trkpt>
<trkpt lat="48.3206920" lon="-1.9017590"><ele></ele><time>2017-12-15T20:18:33Z</time></trkpt>
<trkpt lat="48.3206490" lon="-1.9017940"><ele></ele><time>2017-12-15T20:18:36Z</time></trkpt>
<trkpt lat="48.3206070" lon="-1.9018280"><ele></ele><time>2017-12-15T20:18:39Z</time></trkpt>
<trkpt lat="48.3205590" lon="-1.9018500"><ele></ele><time>2017-12-15T20:18:42Z</time></trkpt>
<trkpt lat="48.3205100" lon="-1.9018640"><ele></ele><time>2017-12-15T20:18:45Z</time></trkpt>
<trkpt lat="48.3204680" lon="-1.9019040"><ele></ele><time>2017-12-15T20:18:48Z</time></trkpt>
<trkpt lat="48.3204200" lon="-1.9019210"><ele></ele><time>2017-12-15T20:18:51Z</time></trkpt>
<trkpt lat="48.3203790" lon="-1.9019450"><ele></ele><time>2017-12-15T20:18:54Z</time></trkpt>
<trkpt lat="48.3203410" lon="-1.9019780"><ele></ele><time>2017-12-15T20:18:57Z</time></trkpt>
<trkpt lat="48.3202960" lon="-1.9020070"><ele></ele><time>2017-12-15T20:19:0Z</time></trkpt>
<trkpt lat="48.3202470" lon="-1.9020330"><ele></ele><time>2017-12-15T20:19:3Z</time></trkpt>
<trkpt lat="48.3202050" lon="-1.9020570"><ele></ele><time>2017-12-15T20:19:6Z</time></trkpt>
<trkpt lat="48.3201670" lon="-1.9020740"><ele></ele><time>2017-12-15T20:19:9Z</time></trkpt>
<trkpt lat="48.3201330" lon="-1.9020960"><ele></ele><time>2017-12-15T20:19:12Z</time></trkpt>
<trkpt lat="48.3200940" lon="-1.9021160"><ele></ele><time>2017-12-15T20:19:15Z</time></trkpt>
<trkpt lat="48.3200600" lon="-1.9021320"><ele></ele><time>2017-12-15T20:19:18Z</time></trkpt>
<trkpt lat="48.3200250" lon="-1.9021520"><ele></ele><time>2017-12-15T20:19:21Z</time></trkpt>
<trkpt lat="48.3199890" lon="-1.9021690"><ele></ele><time>2017-12-15T20:19:24Z</time></trkpt>
<trkpt lat="48.3199500" lon="-1.9021770"><ele></ele><time>2017-12-15T20:19:27Z</time></trkpt>
<trkpt lat="48.3199110" lon="-1.9021750"><ele></ele><time>2017-12-15T20:19:30Z</time></trkpt>
<trkpt lat="48.3198670" lon="-1.9021480"><ele></ele><time>2017-12-15T20:19:33Z</time></trkpt>
<trkpt lat="48.3198450" lon="-1.9021200"><ele></ele><time>2017-12-15T20:19:36Z</time></trkpt>
<trkpt lat="48.3198310" lon="-1.9020740"><ele></ele><time>2017-12-15T20:19:39Z</time></trkpt>
<trkpt lat="48.3198210" lon="-1.9020290"><ele></ele><time>2017-12-15T20:19:42Z</time></trkpt>
<trkpt lat="48.3198070" lon="-1.9019810"><ele></ele><time>2017-12-15T20:19:45Z</time></trkpt>
<trkpt lat="48.3197940" lon="-1.9019290"><ele></ele><time>2017-12-15T20:19:48Z</time></trkpt>
<trkpt lat="48.3197760" lon="-1.9018810"><ele></ele><time>2017-12-15T20:19:51Z</time></trkpt>
<trkpt lat="48.3197600" lon="-1.9018280"><ele></ele><time>2017-12-15T20:19:54Z</time></trkpt>
<trkpt lat="48.3197440" lon="-1.9017800"><ele></ele><time>2017-12-15T20:19:57Z</time></trkpt>
<trkpt lat="48.3197250" lon="-1.9017330"><ele></ele><time>2017-12-15T20:20:0Z</time></trkpt>
<trkpt lat="48.3197040" lon="-1.9016870"><ele></ele><time>2017-12-15T20:20:3Z</time></trkpt>
<trkpt lat="48.3196900" lon="-1.9016330"><ele></ele><time>2017-12-15T20:20:6Z</time></trkpt>
<trkpt lat="48.3196750" lon="-1.9015800"><ele></ele><time>2017-12-15T20:20:9Z</time></trkpt>
<trkpt lat="48.3196540" lon="-1.9015230"><ele></ele><time>2017-12-15T20:20:12Z</time></trkpt>
<trkpt lat="48.3196330" lon="-1.9014790"><ele></ele><time>2017-12-15T20:20:15Z</time></trkpt>
<trkpt lat="48.3196190" lon="-1.9014270"><ele></ele><time>2017-12-15T20:20:18Z</time></trkpt>
<trkpt lat="48.3196050" lon="-1.9013770"><ele></ele><time>2017-12-15T20:20:21Z</time></trkpt>
<trkpt lat="48.3195850" lon="-1.9013180"><ele></ele><time>2017-12-15T20:20:24Z</time></trkpt>
<trkpt lat="48.3195650" lon="-1.9012660"><ele></ele><time>2017-12-15T20:20:27Z</time></trkpt>
<trkpt lat="48.3195490" lon="-1.9012160"><ele></ele><time>2017-12-15T20:20:30Z</time></trkpt>
<trkpt lat="48.3195290" lon="-1.9011650"><ele></ele><time>2017-12-15T20:20:33Z</time></trkpt>
<trkpt lat="48.3195110" lon="-1.9011140"><ele></ele><time>2017-12-15T20:20:36Z</time></trkpt>
<trkpt lat="48.3194950" lon="-1.9010610"><ele></ele><time>2017-12-15T20:20:39Z</time></trkpt>
<trkpt lat="48.3194800" lon="-1.9010110"><ele></ele><time>2017-12-15T20:20:42Z</time></trkpt>
<trkpt lat="48.3194680" lon="-1.9009530"><ele></ele><time>2017-12-15T20:20:45Z</time></trkpt>
<trkpt lat="48.3194580" lon="-1.9008980"><ele></ele><time>2017-12-15T20:20:48Z</time></trkpt>
<trkpt lat="48.3194460" lon="-1.9008480"><ele></ele><time>2017-12-15T20:20:51Z</time></trkpt>
<trkpt lat="48.3194340" lon="-1.9007990"><ele></ele><time>2017-12-15T20:20:54Z</time></trkpt>
<trkpt lat="48.3194220" lon="-1.9007440"><ele></ele><time>2017-12-15T20:20:57Z</time></trkpt>
<trkpt lat="48.3194120" lon="-1.9006890"><ele></ele><time>2017-12-15T20:21:0Z</time></trkpt>
<trkpt lat="48.3194000" lon="-1.9006430"><ele></ele><time>2017-12-15T20:21:3Z</time></trkpt>
<trkpt lat="48.3193870" lon="-1.9005940"><ele></ele><time>2017-12-15T20:21:6Z</time></trkpt>
<trkpt lat="48.3193770" lon="-1.9005430"><ele></ele><time>2017-12-15T20:21:9Z</time></trkpt>
<trkpt lat="48.3193650" lon="-1.9004930"><ele></ele><time>2017-12-15T20:21:12Z</time></trkpt>
<trkpt lat="48.3193530" lon="-1.9004410"><ele></ele><time>2017-12-15T20:21:15Z</time></trkpt>
<trkpt lat="48.3193420" lon="-1.9003920"><ele></ele><time>2017-12-15T20:21:18Z</time></trkpt>
<trkpt lat="48.3193320" lon="-1.9003450"><ele></ele><time>2017-12-15T20:21:21Z</time></trkpt>
<trkpt lat="48.3193220" lon="-1.9002960"><ele></ele><time>2017-12-15T20:21:24Z</time></trkpt>
<trkpt lat="48.3193120" lon="-1.9002450"><ele></ele><time>2017-12-15T20:21:27Z</time></trkpt>
<trkpt lat="48.3193050" lon="-1.9001890"><ele></ele><time>2017-12-15T20:21:30Z</time></trkpt>
<trkpt lat="48.3192980" lon="-1.9001380"><ele></ele><time>2017-12-15T20:21:33Z</time></trkpt>
<trkpt lat="48.3192910" lon="-1.9000910"><ele></ele><time>2017-12-15T20:21:36Z</time></trkpt>
<trkpt lat="48.3192830" lon="-1.9000490"><ele></ele><time>2017-12-15T20:21:39Z</time></trkpt>
<trkpt lat="48.3192740" lon="-1.9000100"><ele></ele><time>2017-12-15T20:21:42Z</time></trkpt>
<trkpt lat="48.3192630" lon="-1.8999710"><ele></ele><time>2017-12-15T20:21:45Z</time></trkpt>
<trkpt lat="48.3192420" lon="-1.8999230"><ele></ele><time>2017-12-15T20:21:48Z</time></trkpt>
<trkpt lat="48.3192210" lon="-1.8998430"><ele></ele><time>2017-12-15T20:21:51Z</time></trkpt>
<trkpt lat="48.3192130" lon="-1.8997980"><ele></ele><time>2017-12-15T20:21:54Z</time></trkpt>
<trkpt lat="48.3192040" lon="-1.8997460"><ele></ele><time>2017-12-15T20:21:57Z</time></trkpt>
<trkpt lat="48.3191910" lon="-1.8996930"><ele></ele><time>2017-12-15T20:22:0Z</time></trkpt>
<trkpt lat="48.3191760" lon="-1.8996430"><ele></ele><time>2017-12-15T20:22:3Z</time></trkpt>
<trkpt lat="48.3191620" lon="-1.8995920"><ele></ele><time>2017-12-15T20:22:6Z</time></trkpt>
<trkpt lat="48.3191460" lon="-1.8995410"><ele></ele><time>2017-12-15T20:22:9Z</time></trkpt>
<trkpt lat="48.3191360" lon="-1.8994880"><ele></ele><time>2017-12-15T20:22:12Z</time></trkpt>
<trkpt lat="48.3191240" lon="-1.8994330"><ele></ele><time>2017-12-15T20:22:15Z</time></trkpt>
<trkpt lat="48.3191100" lon="-1.8993770"><ele></ele><time>2017-12-15T20:22:18Z</time></trkpt>
<trkpt lat="48.3190920" lon="-1.8993140"><ele></ele><time>2017-12-15T20:22:21Z</time></trkpt>
<trkpt lat="48.3190770" lon="-1.8992490"><ele></ele><time>2017-12-15T20:22:24Z</time></trkpt>
<trkpt lat="48.3190620" lon="-1.8991820"><ele></ele><time>2017-12-15T20:22:27Z</time></trkpt>
<trkpt lat="48.3190460" lon="-1.8991080"><ele></ele><time>2017-12-15T20:22:30Z</time></trkpt>
<trkpt lat="48.3190280" lon="-1.8990350"><ele></ele><time>2017-12-15T20:22:33Z</time></trkpt>
<trkpt lat="48.3190110" lon="-1.8989630"><ele></ele><time>2017-12-15T20:22:36Z</time></trkpt>
<trkpt lat="48.3189930" lon="-1.8988950"><ele></ele><time>2017-12-15T20:22:39Z</time></trkpt>
<trkpt lat="48.3189750" lon="-1.8988210"><ele></ele><time>2017-12-15T20:22:42Z</time></trkpt>
<trkpt lat="48.3189550" lon="-1.8987410"><ele></ele><time>2017-12-15T20:22:45Z</time></trkpt>
<trkpt lat="48.3189310" lon="-1.8986700"><ele></ele><time>2017-12-15T20:22:48Z</time></trkpt>
<trkpt lat="48.3189100" lon="-1.8986010"><ele></ele><time>2017-12-15T20:22:51Z</time></trkpt>
<trkpt lat="48.3188910" lon="-1.8985250"><ele></ele><time>2017-12-15T20:22:54Z</time></trkpt>
<trkpt lat="48.3188780" lon="-1.8984530"><ele></ele><time>2017-12-15T20:22:57Z</time></trkpt>
<trkpt lat="48.3188610" lon="-1.8983870"><ele></ele><time>2017-12-15T20:23:0Z</time></trkpt>
<trkpt lat="48.3188470" lon="-1.8983180"><ele></ele><time>2017-12-15T20:23:3Z</time></trkpt>
<trkpt lat="48.3188310" lon="-1.8982520"><ele></ele><time>2017-12-15T20:23:6Z</time></trkpt>
<trkpt lat="48.3188160" lon="-1.8981870"><ele></ele><time>2017-12-15T20:23:9Z</time></trkpt>
<trkpt lat="48.3188010" lon="-1.8981280"><ele></ele><time>2017-12-15T20:23:12Z</time></trkpt>
<trkpt lat="48.3187860" lon="-1.8980670"><ele></ele><time>2017-12-15T20:23:15Z</time></trkpt>
<trkpt lat="48.3187710" lon="-1.8980150"><ele></ele><time>2017-12-15T20:23:18Z</time></trkpt>
<trkpt lat="48.3187600" lon="-1.8979600"><ele></ele><time>2017-12-15T20:23:21Z</time></trkpt>
<trkpt lat="48.3187480" lon="-1.8979120"><ele></ele><time>2017-12-15T20:23:24Z</time></trkpt>
<trkpt lat="48.3187350" lon="-1.8978680"><ele></ele><time>2017-12-15T20:23:27Z</time></trkpt>
<trkpt lat="48.3187230" lon="-1.8978260"><ele></ele><time>2017-12-15T20:23:30Z</time></trkpt>
<trkpt lat="48.3187120" lon="-1.8977670"><ele></ele><time>2017-12-15T20:23:33Z</time></trkpt>
<trkpt lat="48.3187010" lon="-1.8977030"><ele></ele><time>2017-12-15T20:23:36Z</time></trkpt>
<trkpt lat="48.3186970" lon="-1.8976280"><ele></ele><time>2017-12-15T20:23:39Z</time></trkpt>
<trkpt lat="48.3186900" lon="-1.8975530"><ele></ele><time>2017-12-15T20:23:42Z</time></trkpt>
<trkpt lat="48.3186820" lon="-1.8974790"><ele></ele><time>2017-12-15T20:23:45Z</time></trkpt>
<trkpt lat="48.3186760" lon="-1.8974010"><ele></ele><time>2017-12-15T20:23:48Z</time></trkpt>
<trkpt lat="48.3186660" lon="-1.8973170"><ele></ele><time>2017-12-15T20:23:51Z</time></trkpt>
<trkpt lat="48.3186590" lon="-1.8972260"><ele></ele><time>2017-12-15T20:23:54Z</time></trkpt>
<trkpt lat="48.3186500" lon="-1.8971300"><ele></ele><time>2017-12-15T20:23:57Z</time></trkpt>
<trkpt lat="48.3186410" lon="-1.8970360"><ele></ele><time>2017-12-15T20:24:0Z</time></trkpt>
<trkpt lat="48.3186290" lon="-1.8969340"><ele></ele><time>2017-12-15T20:24:3Z</time></trkpt>
<trkpt lat="48.3186060" lon="-1.8968590"><ele></ele><time>2017-12-15T20:24:6Z</time></trkpt>
<trkpt lat="48.3186020" lon="-1.8967690"><ele></ele><time>2017-12-15T20:24:9Z</time></trkpt>
<trkpt lat="48.3185930" lon="-1.8966840"><ele></ele><time>2017-12-15T20:24:12Z</time></trkpt>
<trkpt lat="48.3185880" lon="-1.8965970"><ele></ele><time>2017-12-15T20:24:15Z</time></trkpt>
<trkpt lat="48.3185820" lon="-1.8965130"><ele></ele><time>2017-12-15T20:24:18Z</time></trkpt>
<trkpt lat="48.3185740" lon="-1.8964230"><ele></ele><time>2017-12-15T20:24:21Z</time></trkpt>
<trkpt lat="48.3185660" lon="-1.8963380"><ele></ele><time>2017-12-15T20:24:24Z</time></trkpt>
<trkpt lat="48.3185610" lon="-1.8962470"><ele></ele><time>2017-12-15T20:24:27Z</time></trkpt>
<trkpt lat="48.3185490" lon="-1.8961530"><ele></ele><time>2017-12-15T20:24:30Z</time></trkpt>
<trkpt lat="48.3185430" lon="-1.8960560"><ele></ele><time>2017-12-15T20:24:33Z</time></trkpt>
<trkpt lat="48.3185380" lon="-1.8959580"><ele></ele><time>2017-12-15T20:24:36Z</time></trkpt>
<trkpt lat="48.3185270" lon="-1.8958730"><ele></ele><time>2017-12-15T20:24:39Z</time></trkpt>
<trkpt lat="48.3185150" lon="-1.8958000"><ele></ele><time>2017-12-15T20:24:42Z</time></trkpt>
<trkpt lat="48.3185050" lon="-1.8957250"><ele></ele><time>2017-12-15T20:24:45Z</time></trkpt>
<trkpt lat="48.3184960" lon="-1.8956510"><ele></ele><time>2017-12-15T20:24:48Z</time></trkpt>
<trkpt lat="48.3184860" lon="-1.8955780"><ele></ele><time>2017-12-15T20:24:51Z</time></trkpt>
<trkpt lat="48.3184800" lon="-1.8955040"><ele></ele><time>2017-12-15T20:24:54Z</time></trkpt>
<trkpt lat="48.3184850" lon="-1.8954350"><ele></ele><time>2017-12-15T20:24:57Z</time></trkpt>
<trkpt lat="48.3185070" lon="-1.8953730"><ele></ele><time>2017-12-15T20:25:0Z</time></trkpt>
<trkpt lat="48.3185350" lon="-1.8953190"><ele></ele><time>2017-12-15T20:25:3Z</time></trkpt>
<trkpt lat="48.3185590" lon="-1.8952870"><ele></ele><time>2017-12-15T20:25:6Z</time></trkpt>
<trkpt lat="48.3185970" lon="-1.8952560"><ele></ele><time>2017-12-15T20:25:9Z</time></trkpt>
<trkpt lat="48.3186500" lon="-1.8952120"><ele></ele><time>2017-12-15T20:25:12Z</time></trkpt>
<trkpt lat="48.3186790" lon="-1.8951890"><ele></ele><time>2017-12-15T20:25:15Z</time></trkpt>
<trkpt lat="48.3187090" lon="-1.8951650"><ele></ele><time>2017-12-15T20:25:18Z</time></trkpt>
<trkpt lat="48.3187340" lon="-1.8951390"><ele></ele><time>2017-12-15T20:25:21Z</time></trkpt>
<trkpt lat="48.3187560" lon="-1.8951080"><ele></ele><time>2017-12-15T20:25:24Z</time></trkpt>
<trkpt lat="48.3187820" lon="-1.8950730"><ele></ele><time>2017-12-15T20:25:27Z</time></trkpt>
<trkpt lat="48.3188170" lon="-1.8950360"><ele></ele><time>2017-12-15T20:25:30Z</time></trkpt>
<trkpt lat="48.3188510" lon="-1.8950010"><ele></ele><time>2017-12-15T20:25:33Z</time></trkpt>
<trkpt lat="48.3188810" lon="-1.8949580"><ele></ele><time>2017-12-15T20:25:36Z</time></trkpt>
<trkpt lat="48.3189020" lon="-1.8949120"><ele></ele><time>2017-12-15T20:25:39Z</time></trkpt>
<trkpt lat="48.3189200" lon="-1.8948540"><ele></ele><time>2017-12-15T20:25:42Z</time></trkpt>
<trkpt lat="48.3189310" lon="-1.8947980"><ele></ele><time>2017-12-15T20:25:45Z</time></trkpt>
<trkpt lat="48.3189470" lon="-1.8947370"><ele></ele><time>2017-12-15T20:25:48Z</time></trkpt>
<trkpt lat="48.3189540" lon="-1.8946850"><ele></ele><time>2017-12-15T20:25:51Z</time></trkpt>
<trkpt lat="48.3189690" lon="-1.8946140"><ele></ele><time>2017-12-15T20:25:54Z</time></trkpt>
<trkpt lat="48.3189770" lon="-1.8945530"><ele></ele><time>2017-12-15T20:25:57Z</time></trkpt>
<trkpt lat="48.3189800" lon="-1.8944930"><ele></ele><time>2017-12-15T20:26:0Z</time></trkpt>
<trkpt lat="48.3189820" lon="-1.8944310"><ele></ele><time>2017-12-15T20:26:3Z</time></trkpt>
<trkpt lat="48.3189900" lon="-1.8943790"><ele></ele><time>2017-12-15T20:26:6Z</time></trkpt>
<trkpt lat="48.3189970" lon="-1.8943230"><ele></ele><time>2017-12-15T20:26:9Z</time></trkpt>
<trkpt lat="48.3190010" lon="-1.8942680"><ele></ele><time>2017-12-15T20:26:12Z</time></trkpt>
<trkpt lat="48.3190040" lon="-1.8942110"><ele></ele><time>2017-12-15T20:26:15Z</time></trkpt>
<trkpt lat="48.3190080" lon="-1.8941520"><ele></ele><time>2017-12-15T20:26:18Z</time></trkpt>
<trkpt lat="48.3190150" lon="-1.8940980"><ele></ele><time>2017-12-15T20:26:21Z</time></trkpt>
<trkpt lat="48.3190210" lon="-1.8940400"><ele></ele><time>2017-12-15T20:26:24Z</time></trkpt>
<trkpt lat="48.3190320" lon="-1.8939790"><ele></ele><time>2017-12-15T20:26:27Z</time></trkpt>
<trkpt lat="48.3190490" lon="-1.8939150"><ele></ele><time>2017-12-15T20:26:30Z</time></trkpt>
<trkpt lat="48.3190700" lon="-1.8938570"><ele></ele><time>2017-12-15T20:26:33Z</time></trkpt>
<trkpt lat="48.3190890" lon="-1.8937960"><ele></ele><time>2017-12-15T20:26:36Z</time></trkpt>
<trkpt lat="48.3191030" lon="-1.8937460"><ele></ele><time>2017-12-15T20:26:39Z</time></trkpt>
<trkpt lat="48.3191180" lon="-1.8936830"><ele></ele><time>2017-12-15T20:26:42Z</time></trkpt>
<trkpt lat="48.3191240" lon="-1.8936200"><ele></ele><time>2017-12-15T20:26:45Z</time></trkpt>
<trkpt lat="48.3191380" lon="-1.8935600"><ele></ele><time>2017-12-15T20:26:48Z</time></trkpt>
<trkpt lat="48.3191320" lon="-1.8934940"><ele></ele><time>2017-12-15T20:26:51Z</time></trkpt>
<trkpt lat="48.3191280" lon="-1.8934210"><ele></ele><time>2017-12-15T20:26:54Z</time></trkpt>
<trkpt lat="48.3191150" lon="-1.8933580"><ele></ele><time>2017-12-15T20:26:57Z</time></trkpt>
<trkpt lat="48.3191200" lon="-1.8932800"><ele></ele><time>2017-12-15T20:27:0Z</time></trkpt>
<trkpt lat="48.3191260" lon="-1.8932090"><ele></ele><time>2017-12-15T20:27:3Z</time></trkpt>
<trkpt lat="48.3191370" lon="-1.8931440"><ele></ele><time>2017-12-15T20:27:6Z</time></trkpt>
<trkpt lat="48.3191480" lon="-1.8930850"><ele></ele><time>2017-12-15T20:27:9Z</time></trkpt>
<trkpt lat="48.3191530" lon="-1.8930280"><ele></ele><time>2017-12-15T20:27:12Z</time></trkpt>
<trkpt lat="48.3191540" lon="-1.8929690"><ele></ele><time>2017-12-15T20:27:15Z</time></trkpt>
<trkpt lat="48.3191590" lon="-1.8929090"><ele></ele><time>2017-12-15T20:27:18Z</time></trkpt>
<trkpt lat="48.3191630" lon="-1.8928480"><ele></ele><time>2017-12-15T20:27:21Z</time></trkpt>
<trkpt lat="48.3191680" lon="-1.8927870"><ele></ele><time>2017-12-15T20:27:24Z</time></trkpt>
<trkpt lat="48.3191730" lon="-1.8927240"><ele></ele><time>2017-12-15T20:27:27Z</time></trkpt>
<trkpt lat="48.3191730" lon="-1.8926620"><ele></ele><time>2017-12-15T20:27:30Z</time></trkpt>
<trkpt lat="48.3191800" lon="-1.8925980"><ele></ele><time>2017-12-15T20:27:33Z</time></trkpt>
<trkpt lat="48.3191840" lon="-1.8925370"><ele></ele><time>2017-12-15T20:27:36Z</time></trkpt>
<trkpt lat="48.3191840" lon="-1.8924760"><ele></ele><time>2017-12-15T20:27:39Z</time></trkpt>
<trkpt lat="48.3191870" lon="-1.8924200"><ele></ele><time>2017-12-15T20:27:42Z</time></trkpt>
<trkpt lat="48.3191880" lon="-1.8923560"><ele></ele><time>2017-12-15T20:27:45Z</time></trkpt>
<trkpt lat="48.3191940" lon="-1.8922860"><ele></ele><time>2017-12-15T20:27:48Z</time></trkpt>
<trkpt lat="48.3192020" lon="-1.8922240"><ele></ele><time>2017-12-15T20:27:51Z</time></trkpt>
<trkpt lat="48.3192080" lon="-1.8921510"><ele></ele><time>2017-12-15T20:27:54Z</time></trkpt>
<trkpt lat="48.3192140" lon="-1.8920880"><ele></ele><time>2017-12-15T20:27:57Z</time></trkpt>
<trkpt lat="48.3192220" lon="-1.8920280"><ele></ele><time>2017-12-15T20:28:0Z</time></trkpt>
<trkpt lat="48.3192270" lon="-1.8919690"><ele></ele><time>2017-12-15T20:28:3Z</time></trkpt>
<trkpt lat="48.3192300" lon="-1.8919050"><ele></ele><time>2017-12-15T20:28:6Z</time></trkpt>
<trkpt lat="48.3192340" lon="-1.8918510"><ele></ele><time>2017-12-15T20:28:9Z</time></trkpt>
<trkpt lat="48.3192370" lon="-1.8918010"><ele></ele><time>2017-12-15T20:28:12Z</time></trkpt>
<trkpt lat="48.3192340" lon="-1.8917570"><ele></ele><time>2017-12-15T20:28:15Z</time></trkpt>
<trkpt lat="48.3192370" lon="-1.8916910"><ele></ele><time>2017-12-15T20:28:18Z</time></trkpt>
<trkpt lat="48.3192430" lon="-1.8916330"><ele></ele><time>2017-12-15T20:28:21Z</time></trkpt>
<trkpt lat="48.3192390" lon="-1.8915770"><ele></ele><time>2017-12-15T20:28:24Z</time></trkpt>
<trkpt lat="48.3192410" lon="-1.8915260"><ele></ele><time>2017-12-15T20:28:27Z</time></trkpt>
<trkpt lat="48.3192400" lon="-1.8914480"><ele></ele><time>2017-12-15T20:28:30Z</time></trkpt>
<trkpt lat="48.3192380" lon="-1.8914070"><ele></ele><time>2017-12-15T20:28:33Z</time></trkpt>
<trkpt lat="48.3192530" lon="-1.8913480"><ele></ele><time>2017-12-15T20:28:36Z</time></trkpt>
<trkpt lat="48.3192630" lon="-1.8912950"><ele></ele><time>2017-12-15T20:28:39Z</time></trkpt>
<trkpt lat="48.3192710" lon="-1.8912310"><ele></ele><time>2017-12-15T20:28:42Z</time></trkpt>
<trkpt lat="48.3192810" lon="-1.8911710"><ele></ele><time>2017-12-15T20:28:45Z</time></trkpt>
<trkpt lat="48.3192990" lon="-1.8911110"><ele></ele><time>2017-12-15T20:28:48Z</time></trkpt>
<trkpt lat="48.3193030" lon="-1.8910410"><ele></ele><time>2017-12-15T20:28:51Z</time></trkpt>
<trkpt lat="48.3193010" lon="-1.8909740"><ele></ele><time>2017-12-15T20:28:54Z</time></trkpt>
<trkpt lat="48.3193090" lon="-1.8909110"><ele></ele><time>2017-12-15T20:28:57Z</time></trkpt>
<trkpt lat="48.3193060" lon="-1.8908540"><ele></ele><time>2017-12-15T20:29:0Z</time></trkpt>
<trkpt lat="48.3193070" lon="-1.8908000"><ele></ele><time>2017-12-15T20:29:3Z</time></trkpt>
<trkpt lat="48.3193060" lon="-1.8907560"><ele></ele><time>2017-12-15T20:29:6Z</time></trkpt>
<trkpt lat="48.3193020" lon="-1.8907070"><ele></ele><time>2017-12-15T20:29:9Z</time></trkpt>
<trkpt lat="48.3192850" lon="-1.8906630"><ele></ele><time>2017-12-15T20:29:12Z</time></trkpt>
<trkpt lat="48.3192820" lon="-1.8906220"><ele></ele><time>2017-12-15T20:29:15Z</time></trkpt>
<trkpt lat="48.3192730" lon="-1.8905510"><ele></ele><time>2017-12-15T20:29:18Z</time></trkpt>
<trkpt lat="48.3192720" lon="-1.8904970"><ele></ele><time>2017-12-15T20:29:21Z</time></trkpt>
<trkpt lat="48.3192660" lon="-1.8904320"><ele></ele><time>2017-12-15T20:29:24Z</time></trkpt>
<trkpt lat="48.3192630" lon="-1.8903820"><ele></ele><time>2017-12-15T20:29:27Z</time></trkpt>
<trkpt lat="48.3192550" lon="-1.8903360"><ele></ele><time>2017-12-15T20:29:30Z</time></trkpt>
<trkpt lat="48.3192470" lon="-1.8902850"><ele></ele><time>2017-12-15T20:29:33Z</time></trkpt>
<trkpt lat="48.3192370" lon="-1.8902370"><ele></ele><time>2017-12-15T20:29:36Z</time></trkpt>
<trkpt lat="48.3192250" lon="-1.8901920"><ele></ele><time>2017-12-15T20:29:39Z</time></trkpt>
<trkpt lat="48.3192170" lon="-1.8901360"><ele></ele><time>2017-12-15T20:29:42Z</time></trkpt>
<trkpt lat="48.3192140" lon="-1.8900880"><ele></ele><time>2017-12-15T20:29:45Z</time></trkpt>
<trkpt lat="48.3192160" lon="-1.8900450"><ele></ele><time>2017-12-15T20:29:48Z</time></trkpt>
<trkpt lat="48.3192130" lon="-1.8900000"><ele></ele><time>2017-12-15T20:29:51Z</time></trkpt>
<trkpt lat="48.3192080" lon="-1.8899590"><ele></ele><time>2017-12-15T20:29:54Z</time></trkpt>
<trkpt lat="48.3192030" lon="-1.8899150"><ele></ele><time>2017-12-15T20:29:57Z</time></trkpt>
<trkpt lat="48.3191940" lon="-1.8898290"><ele></ele><time>2017-12-15T20:30:0Z</time></trkpt>
<trkpt lat="48.3191740" lon="-1.8897930"><ele></ele><time>2017-12-15T20:30:3Z</time></trkpt>
<trkpt lat="48.3191650" lon="-1.8897430"><ele></ele><time>2017-12-15T20:30:6Z</time></trkpt>
<trkpt lat="48.3191540" lon="-1.8897050"><ele></ele><time>2017-12-15T20:30:9Z</time></trkpt>
<trkpt lat="48.3191470" lon="-1.8896550"><ele></ele><time>2017-12-15T20:30:12Z</time></trkpt>
<trkpt lat="48.3191420" lon="-1.8896080"><ele></ele><time>2017-12-15T20:30:15Z</time></trkpt>
<trkpt lat="48.3191370" lon="-1.8895530"><ele></ele><time>2017-12-15T20:30:18Z</time></trkpt>
<trkpt lat="48.3191280" lon="-1.8895050"><ele></ele><time>2017-12-15T20:30:21Z</time></trkpt>
<trkpt lat="48.3191280" lon="-1.8894540"><ele></ele><time>2017-12-15T20:30:24Z</time></trkpt>
<trkpt lat="48.3191180" lon="-1.8894090"><ele></ele><time>2017-12-15T20:30:27Z</time></trkpt>
<trkpt lat="48.3191100" lon="-1.8893550"><ele></ele><time>2017-12-15T20:30:30Z</time></trkpt>
<trkpt lat="48.3190990" lon="-1.8893020"><ele></ele><time>2017-12-15T20:30:33Z</time></trkpt>
<trkpt lat="48.3190840" lon="-1.8892380"><ele></ele><time>2017-12-15T20:30:36Z</time></trkpt>
<trkpt lat="48.3190890" lon="-1.8891820"><ele></ele><time>2017-12-15T20:30:39Z</time></trkpt>
<trkpt lat="48.3190790" lon="-1.8891320"><ele></ele><time>2017-12-15T20:30:42Z</time></trkpt>
<trkpt lat="48.3190640" lon="-1.8890880"><ele></ele><time>2017-12-15T20:30:45Z</time></trkpt>
<trkpt lat="48.3190560" lon="-1.8889920"><ele></ele><time>2017-12-15T20:30:48Z</time></trkpt>
<trkpt lat="48.3190480" lon="-1.8889360"><ele></ele><time>2017-12-15T20:30:51Z</time></trkpt>
<trkpt lat="48.3190430" lon="-1.8888720"><ele></ele><time>2017-12-15T20:30:54Z</time></trkpt>
<trkpt lat="48.3190300" lon="-1.8888090"><ele></ele><time>2017-12-15T20:30:57Z</time></trkpt>
<trkpt lat="48.3190300" lon="-1.8887500"><ele></ele><time>2017-12-15T20:31:0Z</time></trkpt>
<trkpt lat="48.3190210" lon="-1.8886960"><ele></ele><time>2017-12-15T20:31:3Z</time></trkpt>
<trkpt lat="48.3190130" lon="-1.8886450"><ele></ele><time>2017-12-15T20:31:6Z</time></trkpt>
<trkpt lat="48.3190010" lon="-1.8886020"><ele></ele><time>2017-12-15T20:31:9Z</time></trkpt>
<trkpt lat="48.3189930" lon="-1.8885310"><ele></ele><time>2017-12-15T20:31:12Z</time></trkpt>
<trkpt lat="48.3189870" lon="-1.8884800"><ele></ele><time>2017-12-15T20:31:15Z</time></trkpt>
<trkpt lat="48.3189770" lon="-1.8884150"><ele></ele><time>2017-12-15T20:31:18Z</time></trkpt>
<trkpt lat="48.3189590" lon="-1.8883670"><ele></ele><time>2017-12-15T20:31:21Z</time></trkpt>
<trkpt lat="48.3189410" lon="-1.8883090"><ele></ele><time>2017-12-15T20:31:24Z</time></trkpt>
<trkpt lat="48.3189220" lon="-1.8882550"><ele></ele><time>2017-12-15T20:31:27Z</time></trkpt>
<trkpt lat="48.3189050" lon="-1.8881990"><ele></ele><time>2017-12-15T20:31:30Z</time></trkpt>
<trkpt lat="48.3188860" lon="-1.8881440"><ele></ele><time>2017-12-15T20:31:33Z</time></trkpt>
<trkpt lat="48.3188700" lon="-1.8880800"><ele></ele><time>2017-12-15T20:31:36Z</time></trkpt>
<trkpt lat="48.3188580" lon="-1.8880260"><ele></ele><time>2017-12-15T20:31:39Z</time></trkpt>
<trkpt lat="48.3188360" lon="-1.8879610"><ele></ele><time>2017-12-15T20:31:42Z</time></trkpt>
<trkpt lat="48.3188170" lon="-1.8879140"><ele></ele><time>2017-12-15T20:31:45Z</time></trkpt>
<trkpt lat="48.3187940" lon="-1.8878550"><ele></ele><time>2017-12-15T20:31:48Z</time></trkpt>
<trkpt lat="48.3187780" lon="-1.8877870"><ele></ele><time>2017-12-15T20:31:51Z</time></trkpt>
<trkpt lat="48.3187580" lon="-1.8877210"><ele></ele><time>2017-12-15T20:31:54Z</time></trkpt>
<trkpt lat="48.3187410" lon="-1.8876540"><ele></ele><time>2017-12-15T20:31:57Z</time></trkpt>
<trkpt lat="48.3187210" lon="-1.8875850"><ele></ele><time>2017-12-15T20:32:0Z</time></trkpt>
<trkpt lat="48.3187010" lon="-1.8875150"><ele></ele><time>2017-12-15T20:32:3Z</time></trkpt>
<trkpt lat="48.3186820" lon="-1.8874360"><ele></ele><time>2017-12-15T20:32:6Z</time></trkpt>
<trkpt lat="48.3186660" lon="-1.8873580"><ele></ele><time>2017-12-15T20:32:9Z</time></trkpt>
<trkpt lat="48.3186470" lon="-1.8872800"><ele></ele><time>2017-12-15T20:32:12Z</time></trkpt>
<trkpt lat="48.3186230" lon="-1.8872040"><ele></ele><time>2017-12-15T20:32:15Z</time></trkpt>
<trkpt lat="48.3186100" lon="-1.8871350"><ele></ele><time>2017-12-15T20:32:18Z</time></trkpt>
<trkpt lat="48.3185950" lon="-1.8870670"><ele></ele><time>2017-12-15T20:32:21Z</time></trkpt>
<trkpt lat="48.3185780" lon="-1.8870070"><ele></ele><time>2017-12-15T20:32:24Z</time></trkpt>
<trkpt lat="48.3185560" lon="-1.8869630"><ele></ele><time>2017-12-15T20:32:27Z</time></trkpt>
<trkpt lat="48.3185320" lon="-1.8869010"><ele></ele><time>2017-12-15T20:32:30Z</time></trkpt>
<trkpt lat="48.3185250" lon="-1.8868190"><ele></ele><time>2017-12-15T20:32:33Z</time></trkpt>
<trkpt lat="48.3185130" lon="-1.8867490"><ele></ele><time>2017-12-15T20:32:36Z</time></trkpt>
<trkpt lat="48.3184940" lon="-1.8866740"><ele></ele><time>2017-12-15T20:32:39Z</time></trkpt>
<trkpt lat="48.3184850" lon="-1.8865660"><ele></ele><time>2017-12-15T20:32:42Z</time></trkpt>
<trkpt lat="48.3184580" lon="-1.8865010"><ele></ele><time>2017-12-15T20:32:45Z</time></trkpt>
<trkpt lat="48.3184470" lon="-1.8864230"><ele></ele><time>2017-12-15T20:32:48Z</time></trkpt>
<trkpt lat="48.3184370" lon="-1.8863480"><ele></ele><time>2017-12-15T20:32:51Z</time></trkpt>
<trkpt lat="48.3184190" lon="-1.8862860"><ele></ele><time>2017-12-15T20:32:54Z</time></trkpt>
<trkpt lat="48.3184100" lon="-1.8862280"><ele></ele><time>2017-12-15T20:32:57Z</time></trkpt>
<trkpt lat="48.3183960" lon="-1.8861700"><ele></ele><time>2017-12-15T20:33:0Z</time></trkpt>
<trkpt lat="48.3183760" lon="-1.8861190"><ele></ele><time>2017-12-15T20:33:3Z</time></trkpt>
<trkpt lat="48.3183580" lon="-1.8860640"><ele></ele><time>2017-12-15T20:33:6Z</time></trkpt>
<trkpt lat="48.3183370" lon="-1.8860080"><ele></ele><time>2017-12-15T20:33:9Z</time></trkpt>
<trkpt lat="48.3183190" lon="-1.8859410"><ele></ele><time>2017-12-15T20:33:12Z</time></trkpt>
<trkpt lat="48.3183000" lon="-1.8858910"><ele></ele><time>2017-12-15T20:33:15Z</time></trkpt>
<trkpt lat="48.3182850" lon="-1.8858340"><ele></ele><time>2017-12-15T20:33:18Z</time></trkpt>
<trkpt lat="48.3182680" lon="-1.8857710"><ele></ele><time>2017-12-15T20:33:21Z</time></trkpt>
<trkpt lat="48.3182530" lon="-1.8857060"><ele></ele><time>2017-12-15T20:33:24Z</time></trkpt>
<trkpt lat="48.3182380" lon="-1.8856410"><ele></ele><time>2017-12-15T20:33:27Z</time></trkpt>
<trkpt lat="48.3182190" lon="-1.8855930"><ele></ele><time>2017-12-15T20:33:30Z</time></trkpt>
<trkpt lat="48.3181990" lon="-1.8855350"><ele></ele><time>2017-12-15T20:33:33Z</time></trkpt>
<trkpt lat="48.3181860" lon="-1.8854910"><ele></ele><time>2017-12-15T20:33:36Z</time></trkpt>
<trkpt lat="48.3181650" lon="-1.8854260"><ele></ele><time>2017-12-15T20:33:39Z</time></trkpt>
<trkpt lat="48.3181510" lon="-1.8853770"><ele></ele><time>2017-12-15T20:33:42Z</time></trkpt>
<trkpt lat="48.3181370" lon="-1.8853190"><ele></ele><time>2017-12-15T20:33:45Z</time></trkpt>
<trkpt lat="48.3181200" lon="-1.8852700"><ele></ele><time>2017-12-15T20:33:48Z</time></trkpt>
<trkpt lat="48.3181030" lon="-1.8852180"><ele></ele><time>2017-12-15T20:33:51Z</time></trkpt>
<trkpt lat="48.3180870" lon="-1.8851630"><ele></ele><time>2017-12-15T20:33:54Z</time></trkpt>
<trkpt lat="48.3180730" lon="-1.8851110"><ele></ele><time>2017-12-15T20:33:57Z</time></trkpt>
<trkpt lat="48.3180570" lon="-1.8850610"><ele></ele><time>2017-12-15T20:34:0Z</time></trkpt>
<trkpt lat="48.3180470" lon="-1.8850110"><ele></ele><time>2017-12-15T20:34:3Z</time></trkpt>
<trkpt lat="48.3180200" lon="-1.8849850"><ele></ele><time>2017-12-15T20:34:6Z</time></trkpt>
<trkpt lat="48.3179890" lon="-1.8849910"><ele></ele><time>2017-12-15T20:34:9Z</time></trkpt>
<trkpt lat="48.3179600" lon="-1.8850030"><ele></ele><time>2017-12-15T20:34:12Z</time></trkpt>
<trkpt lat="48.3179350" lon="-1.8850370"><ele></ele><time>2017-12-15T20:34:15Z</time></trkpt>
<trkpt lat="48.3179090" lon="-1.8850690"><ele></ele><time>2017-12-15T20:34:18Z</time></trkpt>
<trkpt lat="48.3178800" lon="-1.8851140"><ele></ele><time>2017-12-15T20:34:21Z</time></trkpt>
<trkpt lat="48.3178510" lon="-1.8851630"><ele></ele><time>2017-12-15T20:34:24Z</time></trkpt>
<trkpt lat="48.3178320" lon="-1.8852230"><ele></ele><time>2017-12-15T20:34:27Z</time></trkpt>
<trkpt lat="48.3178110" lon="-1.8852830"><ele></ele><time>2017-12-15T20:34:30Z</time></trkpt>
<trkpt lat="48.3177850" lon="-1.8853410"><ele></ele><time>2017-12-15T20:34:33Z</time></trkpt>
<trkpt lat="48.3177600" lon="-1.8853990"><ele></ele><time>2017-12-15T20:34:36Z</time></trkpt>
<trkpt lat="48.3177410" lon="-1.8854600"><ele></ele><time>2017-12-15T20:34:39Z</time></trkpt>
<trkpt lat="48.3177230" lon="-1.8855200"><ele></ele><time>2017-12-15T20:34:42Z</time></trkpt>
<trkpt lat="48.3177070" lon="-1.8855820"><ele></ele><time>2017-12-15T20:34:45Z</time></trkpt>
<trkpt lat="48.3176900" lon="-1.8856410"><ele></ele><time>2017-12-15T20:34:48Z</time></trkpt>
<trkpt lat="48.3176750" lon="-1.8857010"><ele></ele><time>2017-12-15T20:34:51Z</time></trkpt>
<trkpt lat="48.3176590" lon="-1.8857640"><ele></ele><time>2017-12-15T20:34:54Z</time></trkpt>
<trkpt lat="48.3176470" lon="-1.8858260"><ele></ele><time>2017-12-15T20:34:57Z</time></trkpt>
<trkpt lat="48.3176340" lon="-1.8858830"><ele></ele><time>2017-12-15T20:35:0Z</time></trkpt>
<trkpt lat="48.3176220" lon="-1.8859400"><ele></ele><time>2017-12-15T20:35:3Z</time></trkpt>
<trkpt lat="48.3176120" lon="-1.8859930"><ele></ele><time>2017-12-15T20:35:6Z</time></trkpt>
<trkpt lat="48.3175980" lon="-1.8860520"><ele></ele><time>2017-12-15T20:35:9Z</time></trkpt>
<trkpt lat="48.3175810" lon="-1.8861040"><ele></ele><time>2017-12-15T20:35:12Z</time></trkpt>
<trkpt lat="48.3175560" lon="-1.8861560"><ele></ele><time>2017-12-15T20:35:15Z</time></trkpt>
<trkpt lat="48.3175400" lon="-1.8862070"><ele></ele><time>2017-12-15T20:35:18Z</time></trkpt>
<trkpt lat="48.3175240" lon="-1.8862590"><ele></ele><time>2017-12-15T20:35:21Z</time></trkpt>
<trkpt lat="48.3175030" lon="-1.8862990"><ele></ele><time>2017-12-15T20:35:24Z</time></trkpt>
<trkpt lat="48.3174860" lon="-1.8863420"><ele></ele><time>2017-12-15T20:35:27Z</time></trkpt>
<trkpt lat="48.3174610" lon="-1.8863870"><ele></ele><time>2017-12-15T20:35:30Z</time></trkpt>
<trkpt lat="48.3174450" lon="-1.8864320"><ele></ele><time>2017-12-15T20:35:33Z</time></trkpt>
<trkpt lat="48.3174300" lon="-1.8864770"><ele></ele><time>2017-12-15T20:35:36Z</time></trkpt>
<trkpt lat="48.3174170" lon="-1.8865230"><ele></ele><time>2017-12-15T20:35:39Z</time></trkpt>
<trkpt lat="48.3173990" lon="-1.8865680"><ele></ele><time>2017-12-15T20:35:42Z</time></trkpt>
<trkpt lat="48.3173820" lon="-1.8866110"><ele></ele><time>2017-12-15T20:35:45Z</time></trkpt>
<trkpt lat="48.3173610" lon="-1.8866530"><ele></ele><time>2017-12-15T20:35:48Z</time></trkpt>
<trkpt lat="48.3173420" lon="-1.8867010"><ele></ele><time>2017-12-15T20:35:51Z</time></trkpt>
<trkpt lat="48.3173250" lon="-1.8867500"><ele></ele><time>2017-12-15T20:35:54Z</time></trkpt>
<trkpt lat="48.3173080" lon="-1.8867930"><ele></ele><time>2017-12-15T20:35:57Z</time></trkpt>
<trkpt lat="48.3172920" lon="-1.8868410"><ele></ele><time>2017-12-15T20:36:0Z</time></trkpt>
<trkpt lat="48.3172750" lon="-1.8868930"><ele></ele><time>2017-12-15T20:36:3Z</time></trkpt>
<trkpt lat="48.3172580" lon="-1.8869440"><ele></ele><time>2017-12-15T20:36:6Z</time></trkpt>
<trkpt lat="48.3172450" lon="-1.8869930"><ele></ele><time>2017-12-15T20:36:9Z</time></trkpt>
<trkpt lat="48.3172310" lon="-1.8870420"><ele></ele><time>2017-12-15T20:36:12Z</time></trkpt>
<trkpt lat="48.3172200" lon="-1.8870910"><ele></ele><time>2017-12-15T20:36:15Z</time></trkpt>
<trkpt lat="48.3172070" lon="-1.8871400"><ele></ele><time>2017-12-15T20:36:18Z</time></trkpt>
<trkpt lat="48.3171960" lon="-1.8871910"><ele></ele><time>2017-12-15T20:36:21Z</time></trkpt>
<trkpt lat="48.3171850" lon="-1.8872390"><ele></ele><time>2017-12-15T20:36:24Z</time></trkpt>
<trkpt lat="48.3171750" lon="-1.8872870"><ele></ele><time>2017-12-15T20:36:27Z</time></trkpt>
<trkpt lat="48.3171640" lon="-1.8873320"><ele></ele><time>2017-12-15T20:36:30Z</time></trkpt>
<trkpt lat="48.3171550" lon="-1.8873790"><ele></ele><time>2017-12-15T20:36:33Z</time></trkpt>
<trkpt lat="48.3171460" lon="-1.8874250"><ele></ele><time>2017-12-15T20:36:36Z</time></trkpt>
<trkpt lat="48.3171350" lon="-1.8874750"><ele></ele><time>2017-12-15T20:36:39Z</time></trkpt>
<trkpt lat="48.3171250" lon="-1.8875270"><ele></ele><time>2017-12-15T20:36:42Z</time></trkpt>
<trkpt lat="48.3171160" lon="-1.8875760"><ele></ele><time>2017-12-15T20:36:45Z</time></trkpt>
<trkpt lat="48.3171070" lon="-1.8876260"><ele></ele><time>2017-12-15T20:36:48Z</time></trkpt>
<trkpt lat="48.3170950" lon="-1.8876790"><ele></ele><time>2017-12-15T20:36:51Z</time></trkpt>
<trkpt lat="48.3170850" lon="-1.8877320"><ele></ele><time>2017-12-15T20:36:54Z</time></trkpt>
<trkpt lat="48.3170790" lon="-1.8877820"><ele></ele><time>2017-12-15T20:36:57Z</time></trkpt>
<trkpt lat="48.3170700" lon="-1.8878340"><ele></ele><time>2017-12-15T20:37:0Z</time></trkpt>
<trkpt lat="48.3170590" lon="-1.8878850"><ele></ele><time>2017-12-15T20:37:3Z</time></trkpt>
<trkpt lat="48.3170440" lon="-1.8879370"><ele></ele><time>2017-12-15T20:37:6Z</time></trkpt>
<trkpt lat="48.3170320" lon="-1.8879850"><ele></ele><time>2017-12-15T20:37:9Z</time></trkpt>
<trkpt lat="48.3170180" lon="-1.8880330"><ele></ele><time>2017-12-15T20:37:12Z</time></trkpt>
<trkpt lat="48.3170000" lon="-1.8880820"><ele></ele><time>2017-12-15T20:37:15Z</time></trkpt>
<trkpt lat="48.3169810" lon="-1.8881290"><ele></ele><time>2017-12-15T20:37:18Z</time></trkpt>
<trkpt lat="48.3169640" lon="-1.8881760"><ele></ele><time>2017-12-15T20:37:21Z</time></trkpt>
<trkpt lat="48.3169440" lon="-1.8882220"><ele></ele><time>2017-12-15T20:37:24Z</time></trkpt>
<trkpt lat="48.3169230" lon="-1.8882640"><ele></ele><time>2017-12-15T20:37:27Z</time></trkpt>
<trkpt lat="48.3169000" lon="-1.8883090"><ele></ele><time>2017-12-15T20:37:30Z</time></trkpt>
<trkpt lat="48.3168770" lon="-1.8883530"><ele></ele><time>2017-12-15T20:37:33Z</time></trkpt>
<trkpt lat="48.3168560" lon="-1.8883960"><ele></ele><time>2017-12-15T20:37:36Z</time></trkpt>
<trkpt lat="48.3168310" lon="-1.8884390"><ele></ele><time>2017-12-15T20:37:39Z</time></trkpt>
<trkpt lat="48.3168080" lon="-1.8884830"><ele></ele><time>2017-12-15T20:37:42Z</time></trkpt>
<trkpt lat="48.3167850" lon="-1.8885230"><ele></ele><time>2017-12-15T20:37:45Z</time></trkpt>
<trkpt lat="48.3167610" lon="-1.8885640"><ele></ele><time>2017-12-15T20:37:48Z</time></trkpt>
<trkpt lat="48.3167340" lon="-1.8885990"><ele></ele><time>2017-12-15T20:37:51Z</time></trkpt>
<trkpt lat="48.3167090" lon="-1.8886310"><ele></ele><time>2017-12-15T20:37:54Z</time></trkpt>
<trkpt lat="48.3166840" lon="-1.8886630"><ele></ele><time>2017-12-15T20:37:57Z</time></trkpt>
<trkpt lat="48.3166580" lon="-1.8886890"><ele></ele><time>2017-12-15T20:38:0Z</time></trkpt>
<trkpt lat="48.3166320" lon="-1.8887120"><ele></ele><time>2017-12-15T20:38:3Z</time></trkpt>
<trkpt lat="48.3166030" lon="-1.8887310"><ele></ele><time>2017-12-15T20:38:6Z</time></trkpt>
<trkpt lat="48.3165750" lon="-1.8887550"><ele></ele><time>2017-12-15T20:38:9Z</time></trkpt>
<trkpt lat="48.3165540" lon="-1.8887890"><ele></ele><time>2017-12-15T20:38:12Z</time></trkpt>
<trkpt lat="48.3165450" lon="-1.8888300"><ele></ele><time>2017-12-15T20:38:15Z</time></trkpt>
<trkpt lat="48.3165330" lon="-1.8889040"><ele></ele><time>2017-12-15T20:38:18Z</time></trkpt>
<trkpt lat="48.3165170" lon="-1.8889810"><ele></ele><time>2017-12-15T20:38:21Z</time></trkpt>
<trkpt lat="48.3165050" lon="-1.8890210"><ele></ele><time>2017-12-15T20:38:24Z</time></trkpt>
<trkpt lat="48.3164910" lon="-1.8890590"><ele></ele><time>2017-12-15T20:38:27Z</time></trkpt>
<trkpt lat="48.3164760" lon="-1.8891040"><ele></ele><time>2017-12-15T20:38:30Z</time></trkpt>
<trkpt lat="48.3164620" lon="-1.8891450"><ele></ele><time>2017-12-15T20:38:33Z</time></trkpt>
<trkpt lat="48.3164440" lon="-1.8891840"><ele></ele><time>2017-12-15T20:38:36Z</time></trkpt>
<trkpt lat="48.3164280" lon="-1.8892240"><ele></ele><time>2017-12-15T20:38:39Z</time></trkpt>
<trkpt lat="48.3164130" lon="-1.8892630"><ele></ele><time>2017-12-15T20:38:42Z</time></trkpt>
<trkpt lat="48.3163980" lon="-1.8893010"><ele></ele><time>2017-12-15T20:38:45Z</time></trkpt>
<trkpt lat="48.3163820" lon="-1.8893400"><ele></ele><time>2017-12-15T20:38:48Z</time></trkpt>
<trkpt lat="48.3163670" lon="-1.8893790"><ele></ele><time>2017-12-15T20:38:51Z</time></trkpt>
<trkpt lat="48.3163530" lon="-1.8894190"><ele></ele><time>2017-12-15T20:38:54Z</time></trkpt>
<trkpt lat="48.3163380" lon="-1.8894580"><ele></ele><time>2017-12-15T20:38:57Z</time></trkpt>
<trkpt lat="48.3163230" lon="-1.8894970"><ele></ele><time>2017-12-15T20:39:0Z</time></trkpt>
<trkpt lat="48.3163080" lon="-1.8895360"><ele></ele><time>2017-12-15T20:39:3Z</time></trkpt>
<trkpt lat="48.3162910" lon="-1.8895760"><ele></ele><time>2017-12-15T20:39:6Z</time></trkpt>
<trkpt lat="48.3162760" lon="-1.8896150"><ele></ele><time>2017-12-15T20:39:9Z</time></trkpt>
<trkpt lat="48.3162610" lon="-1.8896550"><ele></ele><time>2017-12-15T20:39:12Z</time></trkpt>
<trkpt lat="48.3162450" lon="-1.8896940"><ele></ele><time>2017-12-15T20:39:15Z</time></trkpt>
<trkpt lat="48.3162270" lon="-1.8897310"><ele></ele><time>2017-12-15T20:39:18Z</time></trkpt>
<trkpt lat="48.3162090" lon="-1.8897680"><ele></ele><time>2017-12-15T20:39:21Z</time></trkpt>
<trkpt lat="48.3161920" lon="-1.8898060"><ele></ele><time>2017-12-15T20:39:24Z</time></trkpt>
<trkpt lat="48.3161750" lon="-1.8898420"><ele></ele><time>2017-12-15T20:39:27Z</time></trkpt>
<trkpt lat="48.3161570" lon="-1.8898770"><ele></ele><time>2017-12-15T20:39:30Z</time></trkpt>
<trkpt lat="48.3161400" lon="-1.8899140"><ele></ele><time>2017-12-15T20:39:33Z</time></trkpt>
<trkpt lat="48.3161080" lon="-1.8899810"><ele></ele><time>2017-12-15T20:39:36Z</time></trkpt>
<trkpt lat="48.3160900" lon="-1.8900190"><ele></ele><time>2017-12-15T20:39:39Z</time></trkpt>
<trkpt lat="48.3160560" lon="-1.8900830"><ele></ele><time>2017-12-15T20:39:42Z</time></trkpt>
<trkpt lat="48.3160360" lon="-1.8901140"><ele></ele><time>2017-12-15T20:39:45Z</time></trkpt>
<trkpt lat="48.3160150" lon="-1.8901460"><ele></ele><time>2017-12-15T20:39:48Z</time></trkpt>
<trkpt lat="48.3159950" lon="-1.8901760"><ele></ele><time>2017-12-15T20:39:51Z</time></trkpt>
<trkpt lat="48.3159750" lon="-1.8902070"><ele></ele><time>2017-12-15T20:39:54Z</time></trkpt>
<trkpt lat="48.3159550" lon="-1.8902410"><ele></ele><time>2017-12-15T20:39:57Z</time></trkpt>
<trkpt lat="48.3159350" lon="-1.8902690"><ele></ele><time>2017-12-15T20:40:0Z</time></trkpt>
<trkpt lat="48.3159160" lon="-1.8902990"><ele></ele><time>2017-12-15T20:40:3Z</time></trkpt>
<trkpt lat="48.3158960" lon="-1.8903290"><ele></ele><time>2017-12-15T20:40:6Z</time></trkpt>
<trkpt lat="48.3158770" lon="-1.8903580"><ele></ele><time>2017-12-15T20:40:9Z</time></trkpt>
<trkpt lat="48.3158350" lon="-1.8904060"><ele></ele><time>2017-12-15T20:40:12Z</time></trkpt>
<trkpt lat="48.3158140" lon="-1.8904310"><ele></ele><time>2017-12-15T20:40:15Z</time></trkpt>
<trkpt lat="48.3157870" lon="-1.8904580"><ele></ele><time>2017-12-15T20:40:18Z</time></trkpt>
<trkpt lat="48.3157580" lon="-1.8904850"><ele></ele><time>2017-12-15T20:40:21Z</time></trkpt>
<trkpt lat="48.3157310" lon="-1.8905110"><ele></ele><time>2017-12-15T20:40:24Z</time></trkpt>
<trkpt lat="48.3157070" lon="-1.8905360"><ele></ele><time>2017-12-15T20:40:27Z</time></trkpt>
<trkpt lat="48.3156830" lon="-1.8905610"><ele></ele><time>2017-12-15T20:40:30Z</time></trkpt>
<trkpt lat="48.3156640" lon="-1.8905910"><ele></ele><time>2017-12-15T20:40:33Z</time></trkpt>
<trkpt lat="48.3156230" lon="-1.8906330"><ele></ele><time>2017-12-15T20:40:36Z</time></trkpt>
<trkpt lat="48.3155920" lon="-1.8906710"><ele></ele><time>2017-12-15T20:40:39Z</time></trkpt>
<trkpt lat="48.3155560" lon="-1.8907050"><ele></ele><time>2017-12-15T20:40:42Z</time></trkpt>
<trkpt lat="48.3155140" lon="-1.8907410"><ele></ele><time>2017-12-15T20:40:45Z</time></trkpt>
<trkpt lat="48.3154910" lon="-1.8907650"><ele></ele><time>2017-12-15T20:40:48Z</time></trkpt>
<trkpt lat="48.3154660" lon="-1.8907890"><ele></ele><time>2017-12-15T20:40:51Z</time></trkpt>
<trkpt lat="48.3154220" lon="-1.8908380"><ele></ele><time>2017-12-15T20:40:54Z</time></trkpt>
<trkpt lat="48.3153990" lon="-1.8908630"><ele></ele><time>2017-12-15T20:40:57Z</time></trkpt>
<trkpt lat="48.3153770" lon="-1.8908900"><ele></ele><time>2017-12-15T20:41:0Z</time></trkpt>
<trkpt lat="48.3153540" lon="-1.8909130"><ele></ele><time>2017-12-15T20:41:3Z</time></trkpt>
<trkpt lat="48.3153150" lon="-1.8909660"><ele></ele><time>2017-12-15T20:41:6Z</time></trkpt>
<trkpt lat="48.3152790" lon="-1.8910120"><ele></ele><time>2017-12-15T20:41:9Z</time></trkpt>
<trkpt lat="48.3152510" lon="-1.8910610"><ele></ele><time>2017-12-15T20:41:12Z</time></trkpt>
<trkpt lat="48.3152240" lon="-1.8911130"><ele></ele><time>2017-12-15T20:41:15Z</time></trkpt>
<trkpt lat="48.3152000" lon="-1.8911600"><ele></ele><time>2017-12-15T20:41:18Z</time></trkpt>
<trkpt lat="48.3151900" lon="-1.8912240"><ele></ele><time>2017-12-15T20:41:21Z</time></trkpt>
<trkpt lat="48.3151870" lon="-1.8912830"><ele></ele><time>2017-12-15T20:41:24Z</time></trkpt>
<trkpt lat="48.3151820" lon="-1.8913600"><ele></ele><time>2017-12-15T20:41:27Z</time></trkpt>
<trkpt lat="48.3151780" lon="-1.8914330"><ele></ele><time>2017-12-15T20:41:30Z</time></trkpt>
<trkpt lat="48.3151670" lon="-1.8915050"><ele></ele><time>2017-12-15T20:41:33Z</time></trkpt>
<trkpt lat="48.3151560" lon="-1.8915790"><ele></ele><time>2017-12-15T20:41:36Z</time></trkpt>
<trkpt lat="48.3151440" lon="-1.8916480"><ele></ele><time>2017-12-15T20:41:39Z</time></trkpt>
<trkpt lat="48.3151310" lon="-1.8917210"><ele></ele><time>2017-12-15T20:41:42Z</time></trkpt>
<trkpt lat="48.3151150" lon="-1.8917850"><ele></ele><time>2017-12-15T20:41:45Z</time></trkpt>
<trkpt lat="48.3150950" lon="-1.8918480"><ele></ele><time>2017-12-15T20:41:48Z</time></trkpt>
<trkpt lat="48.3150690" lon="-1.8919070"><ele></ele><time>2017-12-15T20:41:51Z</time></trkpt>
<trkpt lat="48.3150410" lon="-1.8919640"><ele></ele><time>2017-12-15T20:41:54Z</time></trkpt>
<trkpt lat="48.3150090" lon="-1.8920220"><ele></ele><time>2017-12-15T20:41:57Z</time></trkpt>
<trkpt lat="48.3149800" lon="-1.8920750"><ele></ele><time>2017-12-15T20:42:0Z</time></trkpt>
<trkpt lat="48.3149360" lon="-1.8921060"><ele></ele><time>2017-12-15T20:42:3Z</time></trkpt>
<trkpt lat="48.3149070" lon="-1.8921150"><ele></ele><time>2017-12-15T20:42:6Z</time></trkpt>
<trkpt lat="48.3148800" lon="-1.8921290"><ele></ele><time>2017-12-15T20:42:9Z</time></trkpt>
<trkpt lat="48.3148290" lon="-1.8921560"><ele></ele><time>2017-12-15T20:42:12Z</time></trkpt>
<trkpt lat="48.3148010" lon="-1.8921690"><ele></ele><time>2017-12-15T20:42:15Z</time></trkpt>
<trkpt lat="48.3147730" lon="-1.8921840"><ele></ele><time>2017-12-15T20:42:18Z</time></trkpt>
<trkpt lat="48.3147440" lon="-1.8922010"><ele></ele><time>2017-12-15T20:42:21Z</time></trkpt>
<trkpt lat="48.3147180" lon="-1.8922160"><ele></ele><time>2017-12-15T20:42:24Z</time></trkpt>
<trkpt lat="48.3146910" lon="-1.8922330"><ele></ele><time>2017-12-15T20:42:27Z</time></trkpt>
<trkpt lat="48.3146630" lon="-1.8922510"><ele></ele><time>2017-12-15T20:42:30Z</time></trkpt>
<trkpt lat="48.3146340" lon="-1.8922680"><ele></ele><time>2017-12-15T20:42:33Z</time></trkpt>
<trkpt lat="48.3146080" lon="-1.8922900"><ele></ele><time>2017-12-15T20:42:36Z</time></trkpt>
<trkpt lat="48.3145820" lon="-1.8923120"><ele></ele><time>2017-12-15T20:42:39Z</time></trkpt>
<trkpt lat="48.3145580" lon="-1.8923310"><ele></ele><time>2017-12-15T20:42:42Z</time></trkpt>
<trkpt lat="48.3145310" lon="-1.8923510"><ele></ele><time>2017-12-15T20:42:45Z</time></trkpt>
<trkpt lat="48.3145080" lon="-1.8923760"><ele></ele><time>2017-12-15T20:42:48Z</time></trkpt>
<trkpt lat="48.3144820" lon="-1.8923970"><ele></ele><time>2017-12-15T20:42:51Z</time></trkpt>
<trkpt lat="48.3144400" lon="-1.8924440"><ele></ele><time>2017-12-15T20:42:54Z</time></trkpt>
<trkpt lat="48.3143960" lon="-1.8924830"><ele></ele><time>2017-12-15T20:42:57Z</time></trkpt>
<trkpt lat="48.3143530" lon="-1.8925260"><ele></ele><time>2017-12-15T20:43:0Z</time></trkpt>
<trkpt lat="48.3143300" lon="-1.8925510"><ele></ele><time>2017-12-15T20:43:3Z</time></trkpt>
<trkpt lat="48.3143090" lon="-1.8925790"><ele></ele><time>2017-12-15T20:43:6Z</time></trkpt>
<trkpt lat="48.3142860" lon="-1.8926020"><ele></ele><time>2017-12-15T20:43:9Z</time></trkpt>
<trkpt lat="48.3142630" lon="-1.8926280"><ele></ele><time>2017-12-15T20:43:12Z</time></trkpt>
<trkpt lat="48.3142410" lon="-1.8926590"><ele></ele><time>2017-12-15T20:43:15Z</time></trkpt>
<trkpt lat="48.3142200" lon="-1.8926890"><ele></ele><time>2017-12-15T20:43:18Z</time></trkpt>
<trkpt lat="48.3141970" lon="-1.8927180"><ele></ele><time>2017-12-15T20:43:21Z</time></trkpt>
<trkpt lat="48.3141740" lon="-1.8927500"><ele></ele><time>2017-12-15T20:43:24Z</time></trkpt>
<trkpt lat="48.3141540" lon="-1.8927810"><ele></ele><time>2017-12-15T20:43:27Z</time></trkpt>
<trkpt lat="48.3141330" lon="-1.8928110"><ele></ele><time>2017-12-15T20:43:30Z</time></trkpt>
<trkpt lat="48.3141120" lon="-1.8928460"><ele></ele><time>2017-12-15T20:43:33Z</time></trkpt>
<trkpt lat="48.3140930" lon="-1.8928790"><ele></ele><time>2017-12-15T20:43:36Z</time></trkpt>
<trkpt lat="48.3140740" lon="-1.8929130"><ele></ele><time>2017-12-15T20:43:39Z</time></trkpt>
<trkpt lat="48.3140570" lon="-1.8929460"><ele></ele><time>2017-12-15T20:43:42Z</time></trkpt>
<trkpt lat="48.3140380" lon="-1.8929790"><ele></ele><time>2017-12-15T20:43:45Z</time></trkpt>
<trkpt lat="48.3140170" lon="-1.8930150"><ele></ele><time>2017-12-15T20:43:48Z</time></trkpt>
<trkpt lat="48.3139970" lon="-1.8930470"><ele></ele><time>2017-12-15T20:43:51Z</time></trkpt>
<trkpt lat="48.3139790" lon="-1.8930810"><ele></ele><time>2017-12-15T20:43:54Z</time></trkpt>
<trkpt lat="48.3139620" lon="-1.8931180"><ele></ele><time>2017-12-15T20:43:57Z</time></trkpt>
<trkpt lat="48.3139440" lon="-1.8931540"><ele></ele><time>2017-12-15T20:44:0Z</time></trkpt>
<trkpt lat="48.3139250" lon="-1.8931900"><ele></ele><time>2017-12-15T20:44:3Z</time></trkpt>
<trkpt lat="48.3139060" lon="-1.8932260"><ele></ele><time>2017-12-15T20:44:6Z</time></trkpt>
<trkpt lat="48.3138900" lon="-1.8932630"><ele></ele><time>2017-12-15T20:44:9Z</time></trkpt>
<trkpt lat="48.3138730" lon="-1.8932980"><ele></ele><time>2017-12-15T20:44:12Z</time></trkpt>
<trkpt lat="48.3138520" lon="-1.8933340"><ele></ele><time>2017-12-15T20:44:15Z</time></trkpt>
<trkpt lat="48.3138290" lon="-1.8933730"><ele></ele><time>2017-12-15T20:44:18Z</time></trkpt>
<trkpt lat="48.3138090" lon="-1.8934150"><ele></ele><time>2017-12-15T20:44:21Z</time></trkpt>
<trkpt lat="48.3137910" lon="-1.8934570"><ele></ele><time>2017-12-15T20:44:24Z</time></trkpt>
<trkpt lat="48.3137690" lon="-1.8934970"><ele></ele><time>2017-12-15T20:44:27Z</time></trkpt>
<trkpt lat="48.3137500" lon="-1.8935390"><ele></ele><time>2017-12-15T20:44:30Z</time></trkpt>
<trkpt lat="48.3137220" lon="-1.8935780"><ele></ele><time>2017-12-15T20:44:33Z</time></trkpt>
<trkpt lat="48.3137020" lon="-1.8936230"><ele></ele><time>2017-12-15T20:44:36Z</time></trkpt>
<trkpt lat="48.3136810" lon="-1.8936710"><ele></ele><time>2017-12-15T20:44:39Z</time></trkpt>
<trkpt lat="48.3136570" lon="-1.8937130"><ele></ele><time>2017-12-15T20:44:42Z</time></trkpt>
<trkpt lat="48.3136330" lon="-1.8937590"><ele></ele><time>2017-12-15T20:44:45Z</time></trkpt>
<trkpt lat="48.3136100" lon="-1.8938020"><ele></ele><time>2017-12-15T20:44:48Z</time></trkpt>
<trkpt lat="48.3135860" lon="-1.8938490"><ele></ele><time>2017-12-15T20:44:51Z</time></trkpt>
<trkpt lat="48.3135620" lon="-1.8938930"><ele></ele><time>2017-12-15T20:44:54Z</time></trkpt>
<trkpt lat="48.3135360" lon="-1.8939380"><ele></ele><time>2017-12-15T20:44:57Z</time></trkpt>
<trkpt lat="48.3135090" lon="-1.8939820"><ele></ele><time>2017-12-15T20:45:0Z</time></trkpt>
<trkpt lat="48.3134810" lon="-1.8940260"><ele></ele><time>2017-12-15T20:45:3Z</time></trkpt>
<trkpt lat="48.3134510" lon="-1.8940700"><ele></ele><time>2017-12-15T20:45:6Z</time></trkpt>
<trkpt lat="48.3134220" lon="-1.8941180"><ele></ele><time>2017-12-15T20:45:9Z</time></trkpt>
<trkpt lat="48.3133900" lon="-1.8941650"><ele></ele><time>2017-12-15T20:45:12Z</time></trkpt>
<trkpt lat="48.3133570" lon="-1.8942130"><ele></ele><time>2017-12-15T20:45:15Z</time></trkpt>
<trkpt lat="48.3133240" lon="-1.8942570"><ele></ele><time>2017-12-15T20:45:18Z</time></trkpt>
<trkpt lat="48.3132890" lon="-1.8943050"><ele></ele><time>2017-12-15T20:45:21Z</time></trkpt>
<trkpt lat="48.3132530" lon="-1.8943530"><ele></ele><time>2017-12-15T20:45:24Z</time></trkpt>
<trkpt lat="48.3132200" lon="-1.8944020"><ele></ele><time>2017-12-15T20:45:27Z</time></trkpt>
<trkpt lat="48.3131800" lon="-1.8944500"><ele></ele><time>2017-12-15T20:45:30Z</time></trkpt>
<trkpt lat="48.3131400" lon="-1.8944870"><ele></ele><time>2017-12-15T20:45:33Z</time></trkpt>
<trkpt lat="48.3131030" lon="-1.8945020"><ele></ele><time>2017-12-15T20:45:36Z</time></trkpt>
<trkpt lat="48.3130710" lon="-1.8944940"><ele></ele><time>2017-12-15T20:45:39Z</time></trkpt>
<trkpt lat="48.3130530" lon="-1.8944300"><ele></ele><time>2017-12-15T20:45:42Z</time></trkpt>
<trkpt lat="48.3130590" lon="-1.8943850"><ele></ele><time>2017-12-15T20:45:45Z</time></trkpt>
<trkpt lat="48.3130610" lon="-1.8943300"><ele></ele><time>2017-12-15T20:45:48Z</time></trkpt>
<trkpt lat="48.3130640" lon="-1.8942730"><ele></ele><time>2017-12-15T20:45:51Z</time></trkpt>
<trkpt lat="48.3130660" lon="-1.8942090"><ele></ele><time>2017-12-15T20:45:54Z</time></trkpt>
<trkpt lat="48.3130670" lon="-1.8941390"><ele></ele><time>2017-12-15T20:45:57Z</time></trkpt>
<trkpt lat="48.3130700" lon="-1.8940660"><ele></ele><time>2017-12-15T20:46:0Z</time></trkpt>
<trkpt lat="48.3130730" lon="-1.8939920"><ele></ele><time>2017-12-15T20:46:3Z</time></trkpt>
<trkpt lat="48.3130730" lon="-1.8939170"><ele></ele><time>2017-12-15T20:46:6Z</time></trkpt>
<trkpt lat="48.3130740" lon="-1.8938370"><ele></ele><time>2017-12-15T20:46:9Z</time></trkpt>
<trkpt lat="48.3130750" lon="-1.8937590"><ele></ele><time>2017-12-15T20:46:12Z</time></trkpt>
<trkpt lat="48.3130750" lon="-1.8936930"><ele></ele><time>2017-12-15T20:46:15Z</time></trkpt>
<trkpt lat="48.3130760" lon="-1.8936260"><ele></ele><time>2017-12-15T20:46:18Z</time></trkpt>
<trkpt lat="48.3130790" lon="-1.8935660"><ele></ele><time>2017-12-15T20:46:21Z</time></trkpt>
<trkpt lat="48.3130800" lon="-1.8935060"><ele></ele><time>2017-12-15T20:46:24Z</time></trkpt>
<trkpt lat="48.3130820" lon="-1.8934480"><ele></ele><time>2017-12-15T20:46:27Z</time></trkpt>
<trkpt lat="48.3130820" lon="-1.8934000"><ele></ele><time>2017-12-15T20:46:30Z</time></trkpt>
<trkpt lat="48.3130860" lon="-1.8933590"><ele></ele><time>2017-12-15T20:46:33Z</time></trkpt>
<trkpt lat="48.3130580" lon="-1.8933270"><ele></ele><time>2017-12-15T20:46:36Z</time></trkpt>
<trkpt lat="48.3130270" lon="-1.8933030"><ele></ele><time>2017-12-15T20:46:39Z</time></trkpt>
<trkpt lat="48.3129710" lon="-1.8932800"><ele></ele><time>2017-12-15T20:46:42Z</time></trkpt>
<trkpt lat="48.3129380" lon="-1.8932720"><ele></ele><time>2017-12-15T20:46:45Z</time></trkpt>
<trkpt lat="48.3129020" lon="-1.8932700"><ele></ele><time>2017-12-15T20:46:48Z</time></trkpt>
<trkpt lat="48.3128630" lon="-1.8932680"><ele></ele><time>2017-12-15T20:46:51Z</time></trkpt>
<trkpt lat="48.3128270" lon="-1.8932640"><ele></ele><time>2017-12-15T20:46:54Z</time></trkpt>
<trkpt lat="48.3127900" lon="-1.8932620"><ele></ele><time>2017-12-15T20:46:57Z</time></trkpt>
<trkpt lat="48.3127550" lon="-1.8932520"><ele></ele><time>2017-12-15T20:47:0Z</time></trkpt>
<trkpt lat="48.3127210" lon="-1.8932340"><ele></ele><time>2017-12-15T20:47:3Z</time></trkpt>
<trkpt lat="48.3126980" lon="-1.8932030"><ele></ele><time>2017-12-15T20:47:6Z</time></trkpt>
<trkpt lat="48.3126880" lon="-1.8931510"><ele></ele><time>2017-12-15T20:47:9Z</time></trkpt>
<trkpt lat="48.3126830" lon="-1.8930910"><ele></ele><time>2017-12-15T20:47:12Z</time></trkpt>
<trkpt lat="48.3126770" lon="-1.8930310"><ele></ele><time>2017-12-15T20:47:15Z</time></trkpt>
<trkpt lat="48.3126680" lon="-1.8929660"><ele></ele><time>2017-12-15T20:47:18Z</time></trkpt>
<trkpt lat="48.3126590" lon="-1.8928960"><ele></ele><time>2017-12-15T20:47:21Z</time></trkpt>
<trkpt lat="48.3126490" lon="-1.8928230"><ele></ele><time>2017-12-15T20:47:24Z</time></trkpt>
<trkpt lat="48.3126410" lon="-1.8927530"><ele></ele><time>2017-12-15T20:47:27Z</time></trkpt>
<trkpt lat="48.3126310" lon="-1.8926840"><ele></ele><time>2017-12-15T20:47:30Z</time></trkpt>
<trkpt lat="48.3126190" lon="-1.8926250"><ele></ele><time>2017-12-15T20:47:33Z</time></trkpt>
<trkpt lat="48.3126110" lon="-1.8925670"><ele></ele><time>2017-12-15T20:47:36Z</time></trkpt>
<trkpt lat="48.3126020" lon="-1.8925030"><ele></ele><time>2017-12-15T20:47:39Z</time></trkpt>
<trkpt lat="48.3125980" lon="-1.8924420"><ele></ele><time>2017-12-15T20:47:42Z</time></trkpt>
<trkpt lat="48.3125860" lon="-1.8923860"><ele></ele><time>2017-12-15T20:47:45Z</time></trkpt>
<trkpt lat="48.3125790" lon="-1.8923230"><ele></ele><time>2017-12-15T20:47:48Z</time></trkpt>
<trkpt lat="48.3125660" lon="-1.8922590"><ele></ele><time>2017-12-15T20:47:51Z</time></trkpt>
<trkpt lat="48.3125610" lon="-1.8922070"><ele></ele><time>2017-12-15T20:47:54Z</time></trkpt>
<trkpt lat="48.3125590" lon="-1.8921250"><ele></ele><time>2017-12-15T20:47:57Z</time></trkpt>
<trkpt lat="48.3125540" lon="-1.8920440"><ele></ele><time>2017-12-15T20:48:0Z</time></trkpt>
<trkpt lat="48.3125540" lon="-1.8919520"><ele></ele><time>2017-12-15T20:48:3Z</time></trkpt>
<trkpt lat="48.3125500" lon="-1.8918640"><ele></ele><time>2017-12-15T20:48:6Z</time></trkpt>
<trkpt lat="48.3125580" lon="-1.8917800"><ele></ele><time>2017-12-15T20:48:9Z</time></trkpt>
<trkpt lat="48.3125560" lon="-1.8916900"><ele></ele><time>2017-12-15T20:48:12Z</time></trkpt>
<trkpt lat="48.3125510" lon="-1.8915960"><ele></ele><time>2017-12-15T20:48:15Z</time></trkpt>
<trkpt lat="48.3125580" lon="-1.8914930"><ele></ele><time>2017-12-15T20:48:18Z</time></trkpt>
<trkpt lat="48.3125590" lon="-1.8913910"><ele></ele><time>2017-12-15T20:48:21Z</time></trkpt>
<trkpt lat="48.3125630" lon="-1.8912890"><ele></ele><time>2017-12-15T20:48:24Z</time></trkpt>
<trkpt lat="48.3125590" lon="-1.8911870"><ele></ele><time>2017-12-15T20:48:27Z</time></trkpt>
<trkpt lat="48.3125440" lon="-1.8910820"><ele></ele><time>2017-12-15T20:48:30Z</time></trkpt>
<trkpt lat="48.3125360" lon="-1.8909720"><ele></ele><time>2017-12-15T20:48:33Z</time></trkpt>
<trkpt lat="48.3125270" lon="-1.8908760"><ele></ele><time>2017-12-15T20:48:36Z</time></trkpt>
<trkpt lat="48.3125070" lon="-1.8907780"><ele></ele><time>2017-12-15T20:48:39Z</time></trkpt>
<trkpt lat="48.3124790" lon="-1.8906790"><ele></ele><time>2017-12-15T20:48:42Z</time></trkpt>
<trkpt lat="48.3124550" lon="-1.8905820"><ele></ele><time>2017-12-15T20:48:45Z</time></trkpt>
<trkpt lat="48.3124360" lon="-1.8904900"><ele></ele><time>2017-12-15T20:48:48Z</time></trkpt>
<trkpt lat="48.3124180" lon="-1.8904090"><ele></ele><time>2017-12-15T20:48:51Z</time></trkpt>
<trkpt lat="48.3124230" lon="-1.8903240"><ele></ele><time>2017-12-15T20:48:54Z</time></trkpt>
<trkpt lat="48.3124340" lon="-1.8902280"><ele></ele><time>2017-12-15T20:48:57Z</time></trkpt>
<trkpt lat="48.3124410" lon="-1.8901430"><ele></ele><time>2017-12-15T20:49:0Z</time></trkpt>
<trkpt lat="48.3124450" lon="-1.8900500"><ele></ele><time>2017-12-15T20:49:3Z</time></trkpt>
<trkpt lat="48.3124390" lon="-1.8899520"><ele></ele><time>2017-12-15T20:49:6Z</time></trkpt>
<trkpt lat="48.3124330" lon="-1.8898400"><ele></ele><time>2017-12-15T20:49:9Z</time></trkpt>
<trkpt lat="48.3124330" lon="-1.8897240"><ele></ele><time>2017-12-15T20:49:12Z</time></trkpt>
<trkpt lat="48.3124320" lon="-1.8896130"><ele></ele><time>2017-12-15T20:49:15Z</time></trkpt>
<trkpt lat="48.3124340" lon="-1.8894980"><ele></ele><time>2017-12-15T20:49:18Z</time></trkpt>
<trkpt lat="48.3124310" lon="-1.8893830"><ele></ele><time>2017-12-15T20:49:21Z</time></trkpt>
<trkpt lat="48.3124340" lon="-1.8892710"><ele></ele><time>2017-12-15T20:49:24Z</time></trkpt>
<trkpt lat="48.3124270" lon="-1.8891580"><ele></ele><time>2017-12-15T20:49:27Z</time></trkpt>
<trkpt lat="48.3124160" lon="-1.8890550"><ele></ele><time>2017-12-15T20:49:30Z</time></trkpt>
<trkpt lat="48.3123950" lon="-1.8889760"><ele></ele><time>2017-12-15T20:49:33Z</time></trkpt>
<trkpt lat="48.3123590" lon="-1.8889390"><ele></ele><time>2017-12-15T20:49:36Z</time></trkpt>
<trkpt lat="48.3123210" lon="-1.8888980"><ele></ele><time>2017-12-15T20:49:39Z</time></trkpt>
<trkpt lat="48.3122840" lon="-1.8888570"><ele></ele><time>2017-12-15T20:49:42Z</time></trkpt>
<trkpt lat="48.3122530" lon="-1.8888140"><ele></ele><time>2017-12-15T20:49:45Z</time></trkpt>
<trkpt lat="48.3122300" lon="-1.8887620"><ele></ele><time>2017-12-15T20:49:48Z</time></trkpt>
<trkpt lat="48.3122120" lon="-1.8887040"><ele></ele><time>2017-12-15T20:49:51Z</time></trkpt>
<trkpt lat="48.3122020" lon="-1.8886420"><ele></ele><time>2017-12-15T20:49:54Z</time></trkpt>
<trkpt lat="48.3121950" lon="-1.8885790"><ele></ele><time>2017-12-15T20:49:57Z</time></trkpt>
<trkpt lat="48.3121870" lon="-1.8885110"><ele></ele><time>2017-12-15T20:50:0Z</time></trkpt>
<trkpt lat="48.3121850" lon="-1.8884430"><ele></ele><time>2017-12-15T20:50:3Z</time></trkpt>
<trkpt lat="48.3121800" lon="-1.8883810"><ele></ele><time>2017-12-15T20:50:6Z</time></trkpt>
<trkpt lat="48.3121720" lon="-1.8883190"><ele></ele><time>2017-12-15T20:50:9Z</time></trkpt>
<trkpt lat="48.3121620" lon="-1.8882610"><ele></ele><time>2017-12-15T20:50:12Z</time></trkpt>
<trkpt lat="48.3121470" lon="-1.8881910"><ele></ele><time>2017-12-15T20:50:15Z</time></trkpt>
<trkpt lat="48.3121210" lon="-1.8881360"><ele></ele><time>2017-12-15T20:50:18Z</time></trkpt>
<trkpt lat="48.3121040" lon="-1.8880770"><ele></ele><time>2017-12-15T20:50:21Z</time></trkpt>
<trkpt lat="48.3120930" lon="-1.8880260"><ele></ele><time>2017-12-15T20:50:24Z</time></trkpt>
<trkpt lat="48.3120760" lon="-1.8879760"><ele></ele><time>2017-12-15T20:50:27Z</time></trkpt>
<trkpt lat="48.3120630" lon="-1.8879180"><ele></ele><time>2017-12-15T20:50:30Z</time></trkpt>
<trkpt lat="48.3120400" lon="-1.8878530"><ele></ele><time>2017-12-15T20:50:33Z</time></trkpt>
<trkpt lat="48.3120450" lon="-1.8878040"><ele></ele><time>2017-12-15T20:50:36Z</time></trkpt>
<trkpt lat="48.3120230" lon="-1.8877460"><ele></ele><time>2017-12-15T20:50:39Z</time></trkpt>
<trkpt lat="48.3119950" lon="-1.8876990"><ele></ele><time>2017-12-15T20:50:42Z</time></trkpt>
<trkpt lat="48.3119880" lon="-1.8876430"><ele></ele><time>2017-12-15T20:50:45Z</time></trkpt>
<trkpt lat="48.3120060" lon="-1.8875790"><ele></ele><time>2017-12-15T20:50:48Z</time></trkpt>
<trkpt lat="48.3120240" lon="-1.8875160"><ele></ele><time>2017-12-15T20:50:51Z</time></trkpt>
<trkpt lat="48.3120230" lon="-1.8874510"><ele></ele><time>2017-12-15T20:50:54Z</time></trkpt>
<trkpt lat="48.3120090" lon="-1.8873910"><ele></ele><time>2017-12-15T20:50:57Z</time></trkpt>
<trkpt lat="48.3119890" lon="-1.8873260"><ele></ele><time>2017-12-15T20:51:0Z</time></trkpt>
<trkpt lat="48.3119720" lon="-1.8872720"><ele></ele><time>2017-12-15T20:51:3Z</time></trkpt>
<trkpt lat="48.3119550" lon="-1.8872260"><ele></ele><time>2017-12-15T20:51:6Z</time></trkpt>
<trkpt lat="48.3119390" lon="-1.8871690"><ele></ele><time>2017-12-15T20:51:9Z</time></trkpt>
<trkpt lat="48.3119200" lon="-1.8871170"><ele></ele><time>2017-12-15T20:51:12Z</time></trkpt>
<trkpt lat="48.3119030" lon="-1.8870570"><ele></ele><time>2017-12-15T20:51:15Z</time></trkpt>
<trkpt lat="48.3118840" lon="-1.8869950"><ele></ele><time>2017-12-15T20:51:18Z</time></trkpt>
<trkpt lat="48.3118680" lon="-1.8869380"><ele></ele><time>2017-12-15T20:51:21Z</time></trkpt>
<trkpt lat="48.3118520" lon="-1.8868760"><ele></ele><time>2017-12-15T20:51:24Z</time></trkpt>
<trkpt lat="48.3118320" lon="-1.8868250"><ele></ele><time>2017-12-15T20:51:27Z</time></trkpt>
<trkpt lat="48.3118090" lon="-1.8867770"><ele></ele><time>2017-12-15T20:51:30Z</time></trkpt>
<trkpt lat="48.3117850" lon="-1.8867340"><ele></ele><time>2017-12-15T20:51:33Z</time></trkpt>
<trkpt lat="48.3117610" lon="-1.8866950"><ele></ele><time>2017-12-15T20:51:36Z</time></trkpt>
<trkpt lat="48.3117370" lon="-1.8866570"><ele></ele><time>2017-12-15T20:51:39Z</time></trkpt>
<trkpt lat="48.3117180" lon="-1.8866230"><ele></ele><time>2017-12-15T20:51:42Z</time></trkpt>
<trkpt lat="48.3116950" lon="-1.8865900"><ele></ele><time>2017-12-15T20:51:45Z</time></trkpt>
<trkpt lat="48.3116590" lon="-1.8865190"><ele></ele><time>2017-12-15T20:51:48Z</time></trkpt>
<trkpt lat="48.3116480" lon="-1.8864740"><ele></ele><time>2017-12-15T20:51:51Z</time></trkpt>
<trkpt lat="48.3116370" lon="-1.8864200"><ele></ele><time>2017-12-15T20:51:54Z</time></trkpt>
<trkpt lat="48.3116350" lon="-1.8863570"><ele></ele><time>2017-12-15T20:51:57Z</time></trkpt>
<trkpt lat="48.3116300" lon="-1.8862920"><ele></ele><time>2017-12-15T20:52:0Z</time></trkpt>
<trkpt lat="48.3116260" lon="-1.8862220"><ele></ele><time>2017-12-15T20:52:3Z</time></trkpt>
<trkpt lat="48.3116170" lon="-1.8861550"><ele></ele><time>2017-12-15T20:52:6Z</time></trkpt>
<trkpt lat="48.3116050" lon="-1.8860910"><ele></ele><time>2017-12-15T20:52:9Z</time></trkpt>
<trkpt lat="48.3115960" lon="-1.8860170"><ele></ele><time>2017-12-15T20:52:12Z</time></trkpt>
<trkpt lat="48.3115860" lon="-1.8859560"><ele></ele><time>2017-12-15T20:52:15Z</time></trkpt>
<trkpt lat="48.3115820" lon="-1.8858950"><ele></ele><time>2017-12-15T20:52:18Z</time></trkpt>
<trkpt lat="48.3115850" lon="-1.8858220"><ele></ele><time>2017-12-15T20:52:21Z</time></trkpt>
<trkpt lat="48.3115920" lon="-1.8857560"><ele></ele><time>2017-12-15T20:52:24Z</time></trkpt>
<trkpt lat="48.3116010" lon="-1.8856940"><ele></ele><time>2017-12-15T20:52:27Z</time></trkpt>
<trkpt lat="48.3116170" lon="-1.8856330"><ele></ele><time>2017-12-15T20:52:30Z</time></trkpt>
<trkpt lat="48.3116200" lon="-1.8855690"><ele></ele><time>2017-12-15T20:52:33Z</time></trkpt>
<trkpt lat="48.3116160" lon="-1.8855060"><ele></ele><time>2017-12-15T20:52:36Z</time></trkpt>
<trkpt lat="48.3116000" lon="-1.8854520"><ele></ele><time>2017-12-15T20:52:39Z</time></trkpt>
<trkpt lat="48.3115660" lon="-1.8854180"><ele></ele><time>2017-12-15T20:52:42Z</time></trkpt>
<trkpt lat="48.3115260" lon="-1.8854010"><ele></ele><time>2017-12-15T20:52:45Z</time></trkpt>
<trkpt lat="48.3114880" lon="-1.8854000"><ele></ele><time>2017-12-15T20:52:48Z</time></trkpt>
<trkpt lat="48.3114500" lon="-1.8853970"><ele></ele><time>2017-12-15T20:52:51Z</time></trkpt>
<trkpt lat="48.3114100" lon="-1.8853920"><ele></ele><time>2017-12-15T20:52:54Z</time></trkpt>
<trkpt lat="48.3113740" lon="-1.8853920"><ele></ele><time>2017-12-15T20:52:57Z</time></trkpt>
<trkpt lat="48.3113360" lon="-1.8853970"><ele></ele><time>2017-12-15T20:53:0Z</time></trkpt>
<trkpt lat="48.3113030" lon="-1.8853890"><ele></ele><time>2017-12-15T20:53:3Z</time></trkpt>
<trkpt lat="48.3112680" lon="-1.8853860"><ele></ele><time>2017-12-15T20:53:6Z</time></trkpt>
<trkpt lat="48.3112350" lon="-1.8853820"><ele></ele><time>2017-12-15T20:53:9Z</time></trkpt>
<trkpt lat="48.3111990" lon="-1.8853760"><ele></ele><time>2017-12-15T20:53:12Z</time></trkpt>
<trkpt lat="48.3111650" lon="-1.8853710"><ele></ele><time>2017-12-15T20:53:15Z</time></trkpt>
<trkpt lat="48.3111300" lon="-1.8853600"><ele></ele><time>2017-12-15T20:53:18Z</time></trkpt>
<trkpt lat="48.3110990" lon="-1.8853350"><ele></ele><time>2017-12-15T20:53:21Z</time></trkpt>
<trkpt lat="48.3110720" lon="-1.8853040"><ele></ele><time>2017-12-15T20:53:24Z</time></trkpt>
<trkpt lat="48.3110540" lon="-1.8852650"><ele></ele><time>2017-12-15T20:53:27Z</time></trkpt>
<trkpt lat="48.3110500" lon="-1.8852090"><ele></ele><time>2017-12-15T20:53:30Z</time></trkpt>
<trkpt lat="48.3110500" lon="-1.8851580"><ele></ele><time>2017-12-15T20:53:33Z</time></trkpt>
<trkpt lat="48.3110550" lon="-1.8851090"><ele></ele><time>2017-12-15T20:53:36Z</time></trkpt>
<trkpt lat="48.3110550" lon="-1.8850570"><ele></ele><time>2017-12-15T20:53:39Z</time></trkpt>
<trkpt lat="48.3110530" lon="-1.8850100"><ele></ele><time>2017-12-15T20:53:42Z</time></trkpt>
<trkpt lat="48.3110460" lon="-1.8849650"><ele></ele><time>2017-12-15T20:53:45Z</time></trkpt>
<trkpt lat="48.3110410" lon="-1.8849220"><ele></ele><time>2017-12-15T20:53:48Z</time></trkpt>
<trkpt lat="48.3110320" lon="-1.8848520"><ele></ele><time>2017-12-15T20:53:51Z</time></trkpt>
<trkpt lat="48.3110180" lon="-1.8847820"><ele></ele><time>2017-12-15T20:53:54Z</time></trkpt>
<trkpt lat="48.3110020" lon="-1.8847150"><ele></ele><time>2017-12-15T20:53:57Z</time></trkpt>
<trkpt lat="48.3109920" lon="-1.8846400"><ele></ele><time>2017-12-15T20:54:0Z</time></trkpt>
<trkpt lat="48.3109830" lon="-1.8845660"><ele></ele><time>2017-12-15T20:54:3Z</time></trkpt>
<trkpt lat="48.3109600" lon="-1.8844960"><ele></ele><time>2017-12-15T20:54:6Z</time></trkpt>
<trkpt lat="48.3109490" lon="-1.8844310"><ele></ele><time>2017-12-15T20:54:9Z</time></trkpt>
<trkpt lat="48.3109330" lon="-1.8843660"><ele></ele><time>2017-12-15T20:54:12Z</time></trkpt>
<trkpt lat="48.3109290" lon="-1.8843080"><ele></ele><time>2017-12-15T20:54:15Z</time></trkpt>
<trkpt lat="48.3109230" lon="-1.8842620"><ele></ele><time>2017-12-15T20:54:18Z</time></trkpt>
<trkpt lat="48.3109250" lon="-1.8841880"><ele></ele><time>2017-12-15T20:54:21Z</time></trkpt>
<trkpt lat="48.3109160" lon="-1.8841200"><ele></ele><time>2017-12-15T20:54:24Z</time></trkpt>
<trkpt lat="48.3109030" lon="-1.8840520"><ele></ele><time>2017-12-15T20:54:27Z</time></trkpt>
<trkpt lat="48.3108970" lon="-1.8839950"><ele></ele><time>2017-12-15T20:54:30Z</time></trkpt>
<trkpt lat="48.3108920" lon="-1.8839520"><ele></ele><time>2017-12-15T20:54:33Z</time></trkpt>
<trkpt lat="48.3108790" lon="-1.8838860"><ele></ele><time>2017-12-15T20:54:36Z</time></trkpt>
<trkpt lat="48.3108780" lon="-1.8838080"><ele></ele><time>2017-12-15T20:54:39Z</time></trkpt>
<trkpt lat="48.3108740" lon="-1.8837650"><ele></ele><time>2017-12-15T20:54:42Z</time></trkpt>
<trkpt lat="48.3108690" lon="-1.8837240"><ele></ele><time>2017-12-15T20:54:45Z</time></trkpt>
<trkpt lat="48.3108570" lon="-1.8836450"><ele></ele><time>2017-12-15T20:54:48Z</time></trkpt>
<trkpt lat="48.3108530" lon="-1.8836040"><ele></ele><time>2017-12-15T20:54:51Z</time></trkpt>
<trkpt lat="48.3108460" lon="-1.8835350"><ele></ele><time>2017-12-15T20:54:54Z</time></trkpt>
<trkpt lat="48.3108450" lon="-1.8834740"><ele></ele><time>2017-12-15T20:54:57Z</time></trkpt>
<trkpt lat="48.3108310" lon="-1.8834360"><ele></ele><time>2017-12-15T20:55:0Z</time></trkpt>
<trkpt lat="48.3108120" lon="-1.8833890"><ele></ele><time>2017-12-15T20:55:3Z</time></trkpt>
<trkpt lat="48.3108070" lon="-1.8833410"><ele></ele><time>2017-12-15T20:55:6Z</time></trkpt>
<trkpt lat="48.3107920" lon="-1.8832770"><ele></ele><time>2017-12-15T20:55:9Z</time></trkpt>
<trkpt lat="48.3107780" lon="-1.8832180"><ele></ele><time>2017-12-15T20:55:12Z</time></trkpt>
<trkpt lat="48.3107670" lon="-1.8831420"><ele></ele><time>2017-12-15T20:55:15Z</time></trkpt>
<trkpt lat="48.3107620" lon="-1.8830720"><ele></ele><time>2017-12-15T20:55:18Z</time></trkpt>
<trkpt lat="48.3107550" lon="-1.8830030"><ele></ele><time>2017-12-15T20:55:21Z</time></trkpt>
<trkpt lat="48.3107460" lon="-1.8829410"><ele></ele><time>2017-12-15T20:55:24Z</time></trkpt>
<trkpt lat="48.3107350" lon="-1.8828860"><ele></ele><time>2017-12-15T20:55:27Z</time></trkpt>
<trkpt lat="48.3107250" lon="-1.8828100"><ele></ele><time>2017-12-15T20:55:30Z</time></trkpt>
<trkpt lat="48.3107170" lon="-1.8827650"><ele></ele><time>2017-12-15T20:55:33Z</time></trkpt>
<trkpt lat="48.3107110" lon="-1.8827180"><ele></ele><time>2017-12-15T20:55:36Z</time></trkpt>
<trkpt lat="48.3107070" lon="-1.8826640"><ele></ele><time>2017-12-15T20:55:39Z</time></trkpt>
<trkpt lat="48.3106970" lon="-1.8825870"><ele></ele><time>2017-12-15T20:55:42Z</time></trkpt>
<trkpt lat="48.3106960" lon="-1.8825420"><ele></ele><time>2017-12-15T20:55:45Z</time></trkpt>
<trkpt lat="48.3106930" lon="-1.8824840"><ele></ele><time>2017-12-15T20:55:48Z</time></trkpt>
<trkpt lat="48.3106920" lon="-1.8824370"><ele></ele><time>2017-12-15T20:55:51Z</time></trkpt>
<trkpt lat="48.3106850" lon="-1.8823890"><ele></ele><time>2017-12-15T20:55:54Z</time></trkpt>
<trkpt lat="48.3106830" lon="-1.8823380"><ele></ele><time>2017-12-15T20:55:57Z</time></trkpt>
<trkpt lat="48.3106800" lon="-1.8822800"><ele></ele><time>2017-12-15T20:56:0Z</time></trkpt>
<trkpt lat="48.3106810" lon="-1.8822340"><ele></ele><time>2017-12-15T20:56:3Z</time></trkpt>
<trkpt lat="48.3106790" lon="-1.8821780"><ele></ele><time>2017-12-15T20:56:6Z</time></trkpt>
<trkpt lat="48.3106790" lon="-1.8821260"><ele></ele><time>2017-12-15T20:56:9Z</time></trkpt>
<trkpt lat="48.3106800" lon="-1.8820670"><ele></ele><time>2017-12-15T20:56:12Z</time></trkpt>
<trkpt lat="48.3106700" lon="-1.8820070"><ele></ele><time>2017-12-15T20:56:15Z</time></trkpt>
<trkpt lat="48.3106680" lon="-1.8819420"><ele></ele><time>2017-12-15T20:56:18Z</time></trkpt>
<trkpt lat="48.3106590" lon="-1.8818790"><ele></ele><time>2017-12-15T20:56:21Z</time></trkpt>
<trkpt lat="48.3106470" lon="-1.8818040"><ele></ele><time>2017-12-15T20:56:24Z</time></trkpt>
<trkpt lat="48.3106310" lon="-1.8817300"><ele></ele><time>2017-12-15T20:56:27Z</time></trkpt>
<trkpt lat="48.3106190" lon="-1.8816560"><ele></ele><time>2017-12-15T20:56:30Z</time></trkpt>
<trkpt lat="48.3106080" lon="-1.8815840"><ele></ele><time>2017-12-15T20:56:33Z</time></trkpt>
<trkpt lat="48.3105980" lon="-1.8815120"><ele></ele><time>2017-12-15T20:56:36Z</time></trkpt>
<trkpt lat="48.3105880" lon="-1.8814360"><ele></ele><time>2017-12-15T20:56:39Z</time></trkpt>
<trkpt lat="48.3105770" lon="-1.8813620"><ele></ele><time>2017-12-15T20:56:42Z</time></trkpt>
<trkpt lat="48.3105700" lon="-1.8812910"><ele></ele><time>2017-12-15T20:56:45Z</time></trkpt>
<trkpt lat="48.3105610" lon="-1.8812170"><ele></ele><time>2017-12-15T20:56:48Z</time></trkpt>
<trkpt lat="48.3105530" lon="-1.8811400"><ele></ele><time>2017-12-15T20:56:51Z</time></trkpt>
<trkpt lat="48.3105440" lon="-1.8810640"><ele></ele><time>2017-12-15T20:56:54Z</time></trkpt>
<trkpt lat="48.3105360" lon="-1.8809870"><ele></ele><time>2017-12-15T20:56:57Z</time></trkpt>
<trkpt lat="48.3105310" lon="-1.8809050"><ele></ele><time>2017-12-15T20:57:0Z</time></trkpt>
<trkpt lat="48.3105210" lon="-1.8808230"><ele></ele><time>2017-12-15T20:57:3Z</time></trkpt>
<trkpt lat="48.3105130" lon="-1.8807430"><ele></ele><time>2017-12-15T20:57:6Z</time></trkpt>
<trkpt lat="48.3105050" lon="-1.8806620"><ele></ele><time>2017-12-15T20:57:9Z</time></trkpt>
<trkpt lat="48.3105020" lon="-1.8805820"><ele></ele><time>2017-12-15T20:57:12Z</time></trkpt>
<trkpt lat="48.3104990" lon="-1.8804970"><ele></ele><time>2017-12-15T20:57:15Z</time></trkpt>
<trkpt lat="48.3104910" lon="-1.8804090"><ele></ele><time>2017-12-15T20:57:18Z</time></trkpt>
<trkpt lat="48.3104840" lon="-1.8803240"><ele></ele><time>2017-12-15T20:57:21Z</time></trkpt>
<trkpt lat="48.3104810" lon="-1.8802390"><ele></ele><time>2017-12-15T20:57:24Z</time></trkpt>
<trkpt lat="48.3104750" lon="-1.8801540"><ele></ele><time>2017-12-15T20:57:27Z</time></trkpt>
<trkpt lat="48.3104690" lon="-1.8800770"><ele></ele><time>2017-12-15T20:57:30Z</time></trkpt>
<trkpt lat="48.3104610" lon="-1.8800020"><ele></ele><time>2017-12-15T20:57:33Z</time></trkpt>
<trkpt lat="48.3104540" lon="-1.8799310"><ele></ele><time>2017-12-15T20:57:36Z</time></trkpt>
<trkpt lat="48.3104490" lon="-1.8798650"><ele></ele><time>2017-12-15T20:57:39Z</time></trkpt>
<trkpt lat="48.3104470" lon="-1.8798130"><ele></ele><time>2017-12-15T20:57:42Z</time></trkpt>
<trkpt lat="48.3104550" lon="-1.8797670"><ele></ele><time>2017-12-15T20:57:45Z</time></trkpt>
<trkpt lat="48.3104680" lon="-1.8797200"><ele></ele><time>2017-12-15T20:57:48Z</time></trkpt>
<trkpt lat="48.3104890" lon="-1.8796770"><ele></ele><time>2017-12-15T20:57:51Z</time></trkpt>
<trkpt lat="48.3105210" lon="-1.8796450"><ele></ele><time>2017-12-15T20:57:54Z</time></trkpt>
<trkpt lat="48.3105480" lon="-1.8796150"><ele></ele><time>2017-12-15T20:57:57Z</time></trkpt>
<trkpt lat="48.3105830" lon="-1.8795900"><ele></ele><time>2017-12-15T20:58:0Z</time></trkpt>
<trkpt lat="48.3106290" lon="-1.8795540"><ele></ele><time>2017-12-15T20:58:3Z</time></trkpt>
<trkpt lat="48.3106770" lon="-1.8795150"><ele></ele><time>2017-12-15T20:58:6Z</time></trkpt>
<trkpt lat="48.3107240" lon="-1.8794770"><ele></ele><time>2017-12-15T20:58:9Z</time></trkpt>
<trkpt lat="48.3107670" lon="-1.8794330"><ele></ele><time>2017-12-15T20:58:12Z</time></trkpt>
<trkpt lat="48.3108110" lon="-1.8793940"><ele></ele><time>2017-12-15T20:58:15Z</time></trkpt>
<trkpt lat="48.3108590" lon="-1.8793580"><ele></ele><time>2017-12-15T20:58:18Z</time></trkpt>
<trkpt lat="48.3109080" lon="-1.8793210"><ele></ele><time>2017-12-15T20:58:21Z</time></trkpt>
<trkpt lat="48.3109550" lon="-1.8792800"><ele></ele><time>2017-12-15T20:58:24Z</time></trkpt>
<trkpt lat="48.3110040" lon="-1.8792390"><ele></ele><time>2017-12-15T20:58:27Z</time></trkpt>
<trkpt lat="48.3110510" lon="-1.8791990"><ele></ele><time>2017-12-15T20:58:30Z</time></trkpt>
<trkpt lat="48.3111040" lon="-1.8791600"><ele></ele><time>2017-12-15T20:58:33Z</time></trkpt>
<trkpt lat="48.3111530" lon="-1.8791240"><ele></ele><time>2017-12-15T20:58:36Z</time></trkpt>
<trkpt lat="48.3112030" lon="-1.8790830"><ele></ele><time>2017-12-15T20:58:39Z</time></trkpt>
<trkpt lat="48.3112570" lon="-1.8790430"><ele></ele><time>2017-12-15T20:58:42Z</time></trkpt>
<trkpt lat="48.3113120" lon="-1.8790030"><ele></ele><time>2017-12-15T20:58:45Z</time></trkpt>
<trkpt lat="48.3113650" lon="-1.8789630"><ele></ele><time>2017-12-15T20:58:48Z</time></trkpt>
<trkpt lat="48.3114200" lon="-1.8789190"><ele></ele><time>2017-12-15T20:58:51Z</time></trkpt>
<trkpt lat="48.3114760" lon="-1.8788780"><ele></ele><time>2017-12-15T20:58:54Z</time></trkpt>
<trkpt lat="48.3115310" lon="-1.8788360"><ele></ele><time>2017-12-15T20:58:57Z</time></trkpt>
<trkpt lat="48.3115860" lon="-1.8787940"><ele></ele><time>2017-12-15T20:59:0Z</time></trkpt>
<trkpt lat="48.3116440" lon="-1.8787530"><ele></ele><time>2017-12-15T20:59:3Z</time></trkpt>
<trkpt lat="48.3117000" lon="-1.8787170"><ele></ele><time>2017-12-15T20:59:6Z</time></trkpt>
<trkpt lat="48.3117480" lon="-1.8786770"><ele></ele><time>2017-12-15T20:59:9Z</time></trkpt>
<trkpt lat="48.3118000" lon="-1.8786370"><ele></ele><time>2017-12-15T20:59:12Z</time></trkpt>
<trkpt lat="48.3118500" lon="-1.8785990"><ele></ele><time>2017-12-15T20:59:15Z</time></trkpt>
<trkpt lat="48.3118980" lon="-1.8785580"><ele></ele><time>2017-12-15T20:59:18Z</time></trkpt>
<trkpt lat="48.3119440" lon="-1.8785190"><ele></ele><time>2017-12-15T20:59:21Z</time></trkpt>
<trkpt lat="48.3119910" lon="-1.8784730"><ele></ele><time>2017-12-15T20:59:24Z</time></trkpt>
<trkpt lat="48.3120280" lon="-1.8784190"><ele></ele><time>2017-12-15T20:59:27Z</time></trkpt>
<trkpt lat="48.3120540" lon="-1.8783490"><ele></ele><time>2017-12-15T20:59:30Z</time></trkpt>
<trkpt lat="48.3120600" lon="-1.8782680"><ele></ele><time>2017-12-15T20:59:33Z</time></trkpt>
<trkpt lat="48.3120500" lon="-1.8781880"><ele></ele><time>2017-12-15T20:59:36Z</time></trkpt>
<trkpt lat="48.3120290" lon="-1.8781120"><ele></ele><time>2017-12-15T20:59:39Z</time></trkpt>
<trkpt lat="48.3120080" lon="-1.8780360"><ele></ele><time>2017-12-15T20:59:42Z</time></trkpt>
<trkpt lat="48.3119850" lon="-1.8779570"><ele></ele><time>2017-12-15T20:59:45Z</time></trkpt>
<trkpt lat="48.3119620" lon="-1.8778820"><ele></ele><time>2017-12-15T20:59:48Z</time></trkpt>
<trkpt lat="48.3119410" lon="-1.8778080"><ele></ele><time>2017-12-15T20:59:51Z</time></trkpt>
<trkpt lat="48.3119210" lon="-1.8777380"><ele></ele><time>2017-12-15T20:59:54Z</time></trkpt>
<trkpt lat="48.3119000" lon="-1.8776720"><ele></ele><time>2017-12-15T20:59:57Z</time></trkpt>
<trkpt lat="48.3118770" lon="-1.8776060"><ele></ele><time>2017-12-15T21:0:0Z</time></trkpt>
<trkpt lat="48.3118560" lon="-1.8775410"><ele></ele><time>2017-12-15T21:0:3Z</time></trkpt>
<trkpt lat="48.3118350" lon="-1.8774730"><ele></ele><time>2017-12-15T21:0:6Z</time></trkpt>
<trkpt lat="48.3118140" lon="-1.8774020"><ele></ele><time>2017-12-15T21:0:9Z</time></trkpt>
<trkpt lat="48.3117940" lon="-1.8773320"><ele></ele><time>2017-12-15T21:0:12Z</time></trkpt>
<trkpt lat="48.3117730" lon="-1.8772630"><ele></ele><time>2017-12-15T21:0:15Z</time></trkpt>
<trkpt lat="48.3117520" lon="-1.8771940"><ele></ele><time>2017-12-15T21:0:18Z</time></trkpt>
<trkpt lat="48.3117300" lon="-1.8771280"><ele></ele><time>2017-12-15T21:0:21Z</time></trkpt>
<trkpt lat="48.3117080" lon="-1.8770600"><ele></ele><time>2017-12-15T21:0:24Z</time></trkpt>
<trkpt lat="48.3116840" lon="-1.8769890"><ele></ele><time>2017-12-15T21:0:27Z</time></trkpt>
<trkpt lat="48.3116630" lon="-1.8769260"><ele></ele><time>2017-12-15T21:0:30Z</time></trkpt>
<trkpt lat="48.3116440" lon="-1.8768560"><ele></ele><time>2017-12-15T21:0:33Z</time></trkpt>
<trkpt lat="48.3116270" lon="-1.8767870"><ele></ele><time>2017-12-15T21:0:36Z</time></trkpt>
<trkpt lat="48.3116080" lon="-1.8767250"><ele></ele><time>2017-12-15T21:0:39Z</time></trkpt>
<trkpt lat="48.3115910" lon="-1.8766580"><ele></ele><time>2017-12-15T21:0:42Z</time></trkpt>
<trkpt lat="48.3115730" lon="-1.8765940"><ele></ele><time>2017-12-15T21:0:45Z</time></trkpt>
<trkpt lat="48.3115540" lon="-1.8765310"><ele></ele><time>2017-12-15T21:0:48Z</time></trkpt>
<trkpt lat="48.3115380" lon="-1.8764730"><ele></ele><time>2017-12-15T21:0:51Z</time></trkpt>
<trkpt lat="48.3115220" lon="-1.8764100"><ele></ele><time>2017-12-15T21:0:54Z</time></trkpt>
<trkpt lat="48.3115060" lon="-1.8763530"><ele></ele><time>2017-12-15T21:0:57Z</time></trkpt>
<trkpt lat="48.3114910" lon="-1.8762900"><ele></ele><time>2017-12-15T21:1:0Z</time></trkpt>
<trkpt lat="48.3114730" lon="-1.8762290"><ele></ele><time>2017-12-15T21:1:3Z</time></trkpt>
<trkpt lat="48.3114580" lon="-1.8761690"><ele></ele><time>2017-12-15T21:1:6Z</time></trkpt>
<trkpt lat="48.3114420" lon="-1.8761090"><ele></ele><time>2017-12-15T21:1:9Z</time></trkpt>
<trkpt lat="48.3114260" lon="-1.8760430"><ele></ele><time>2017-12-15T21:1:12Z</time></trkpt>
<trkpt lat="48.3114130" lon="-1.8759820"><ele></ele><time>2017-12-15T21:1:15Z</time></trkpt>
<trkpt lat="48.3113960" lon="-1.8759210"><ele></ele><time>2017-12-15T21:1:18Z</time></trkpt>
<trkpt lat="48.3113790" lon="-1.8758620"><ele></ele><time>2017-12-15T21:1:21Z</time></trkpt>
<trkpt lat="48.3113640" lon="-1.8757970"><ele></ele><time>2017-12-15T21:1:24Z</time></trkpt>
<trkpt lat="48.3113520" lon="-1.8757320"><ele></ele><time>2017-12-15T21:1:27Z</time></trkpt>
<trkpt lat="48.3113360" lon="-1.8756700"><ele></ele><time>2017-12-15T21:1:30Z</time></trkpt>
<trkpt lat="48.3113230" lon="-1.8756090"><ele></ele><time>2017-12-15T21:1:33Z</time></trkpt>
<trkpt lat="48.3113090" lon="-1.8755480"><ele></ele><time>2017-12-15T21:1:36Z</time></trkpt>
<trkpt lat="48.3112950" lon="-1.8754850"><ele></ele><time>2017-12-15T21:1:39Z</time></trkpt>
<trkpt lat="48.3112810" lon="-1.8754210"><ele></ele><time>2017-12-15T21:1:42Z</time></trkpt>
<trkpt lat="48.3112670" lon="-1.8753590"><ele></ele><time>2017-12-15T21:1:45Z</time></trkpt>
<trkpt lat="48.3112520" lon="-1.8752990"><ele></ele><time>2017-12-15T21:1:48Z</time></trkpt>
<trkpt lat="48.3112410" lon="-1.8752330"><ele></ele><time>2017-12-15T21:1:51Z</time></trkpt>
<trkpt lat="48.3112260" lon="-1.8751680"><ele></ele><time>2017-12-15T21:1:54Z</time></trkpt>
<trkpt lat="48.3112160" lon="-1.8751110"><ele></ele><time>2017-12-15T21:1:57Z</time></trkpt>
<trkpt lat="48.3112070" lon="-1.8750490"><ele></ele><time>2017-12-15T21:2:0Z</time></trkpt>
<trkpt lat="48.3111960" lon="-1.8749890"><ele></ele><time>2017-12-15T21:2:3Z</time></trkpt>
<trkpt lat="48.3111840" lon="-1.8749300"><ele></ele><time>2017-12-15T21:2:6Z</time></trkpt>
<trkpt lat="48.3111710" lon="-1.8748700"><ele></ele><time>2017-12-15T21:2:9Z</time></trkpt>
<trkpt lat="48.3111580" lon="-1.8748140"><ele></ele><time>2017-12-15T21:2:12Z</time></trkpt>
<trkpt lat="48.3111460" lon="-1.8747640"><ele></ele><time>2017-12-15T21:2:15Z</time></trkpt>
<trkpt lat="48.3111340" lon="-1.8747090"><ele></ele><time>2017-12-15T21:2:18Z</time></trkpt>
<trkpt lat="48.3111230" lon="-1.8746500"><ele></ele><time>2017-12-15T21:2:21Z</time></trkpt>
<trkpt lat="48.3111110" lon="-1.8745910"><ele></ele><time>2017-12-15T21:2:24Z</time></trkpt>
<trkpt lat="48.3111000" lon="-1.8745320"><ele></ele><time>2017-12-15T21:2:27Z</time></trkpt>
<trkpt lat="48.3110860" lon="-1.8744720"><ele></ele><time>2017-12-15T21:2:30Z</time></trkpt>
<trkpt lat="48.3110710" lon="-1.8744100"><ele></ele><time>2017-12-15T21:2:33Z</time></trkpt>
<trkpt lat="48.3110560" lon="-1.8743460"><ele></ele><time>2017-12-15T21:2:36Z</time></trkpt>
<trkpt lat="48.3110440" lon="-1.8742840"><ele></ele><time>2017-12-15T21:2:39Z</time></trkpt>
<trkpt lat="48.3110340" lon="-1.8742240"><ele></ele><time>2017-12-15T21:2:42Z</time></trkpt>
<trkpt lat="48.3110200" lon="-1.8741620"><ele></ele><time>2017-12-15T21:2:45Z</time></trkpt>
<trkpt lat="48.3110060" lon="-1.8741010"><ele></ele><time>2017-12-15T21:2:48Z</time></trkpt>
<trkpt lat="48.3109930" lon="-1.8740370"><ele></ele><time>2017-12-15T21:2:51Z</time></trkpt>
<trkpt lat="48.3109810" lon="-1.8739750"><ele></ele><time>2017-12-15T21:2:54Z</time></trkpt>
<trkpt lat="48.3109700" lon="-1.8739130"><ele></ele><time>2017-12-15T21:2:57Z</time></trkpt>
<trkpt lat="48.3109560" lon="-1.8738530"><ele></ele><time>2017-12-15T21:3:0Z</time></trkpt>
<trkpt lat="48.3109450" lon="-1.8737860"><ele></ele><time>2017-12-15T21:3:3Z</time></trkpt>
<trkpt lat="48.3109330" lon="-1.8737270"><ele></ele><time>2017-12-15T21:3:6Z</time></trkpt>
<trkpt lat="48.3109200" lon="-1.8736660"><ele></ele><time>2017-12-15T21:3:9Z</time></trkpt>
<trkpt lat="48.3109060" lon="-1.8736010"><ele></ele><time>2017-12-15T21:3:12Z</time></trkpt>
<trkpt lat="48.3108930" lon="-1.8735360"><ele></ele><time>2017-12-15T21:3:15Z</time></trkpt>
<trkpt lat="48.3108800" lon="-1.8734720"><ele></ele><time>2017-12-15T21:3:18Z</time></trkpt>
<trkpt lat="48.3108660" lon="-1.8734080"><ele></ele><time>2017-12-15T21:3:21Z</time></trkpt>
<trkpt lat="48.3108510" lon="-1.8733440"><ele></ele><time>2017-12-15T21:3:24Z</time></trkpt>
<trkpt lat="48.3108340" lon="-1.8732780"><ele></ele><time>2017-12-15T21:3:27Z</time></trkpt>
<trkpt lat="48.3108170" lon="-1.8732150"><ele></ele><time>2017-12-15T21:3:30Z</time></trkpt>
<trkpt lat="48.3107950" lon="-1.8731580"><ele></ele><time>2017-12-15T21:3:33Z</time></trkpt>
<trkpt lat="48.3107630" lon="-1.8731120"><ele></ele><time>2017-12-15T21:3:36Z</time></trkpt>
<trkpt lat="48.3107240" lon="-1.8730850"><ele></ele><time>2017-12-15T21:3:39Z</time></trkpt>
<trkpt lat="48.3106810" lon="-1.8730810"><ele></ele><time>2017-12-15T21:3:42Z</time></trkpt>
<trkpt lat="48.3106370" lon="-1.8730950"><ele></ele><time>2017-12-15T21:3:45Z</time></trkpt>
<trkpt lat="48.3105970" lon="-1.8731210"><ele></ele><time>2017-12-15T21:3:48Z</time></trkpt>
<trkpt lat="48.3105570" lon="-1.8731430"><ele></ele><time>2017-12-15T21:3:51Z</time></trkpt>
<trkpt lat="48.3105160" lon="-1.8731690"><ele></ele><time>2017-12-15T21:3:54Z</time></trkpt>
<trkpt lat="48.3104790" lon="-1.8731980"><ele></ele><time>2017-12-15T21:3:57Z</time></trkpt>
<trkpt lat="48.3104430" lon="-1.8732280"><ele></ele><time>2017-12-15T21:4:0Z</time></trkpt>
<trkpt lat="48.3104040" lon="-1.8732540"><ele></ele><time>2017-12-15T21:4:3Z</time></trkpt>
<trkpt lat="48.3103640" lon="-1.8732840"><ele></ele><time>2017-12-15T21:4:6Z</time></trkpt>
<trkpt lat="48.3103260" lon="-1.8733120"><ele></ele><time>2017-12-15T21:4:9Z</time></trkpt>
<trkpt lat="48.3102880" lon="-1.8733350"><ele></ele><time>2017-12-15T21:4:12Z</time></trkpt>
<trkpt lat="48.3102480" lon="-1.8733570"><ele></ele><time>2017-12-15T21:4:15Z</time></trkpt>
<trkpt lat="48.3102090" lon="-1.8733740"><ele></ele><time>2017-12-15T21:4:18Z</time></trkpt>
<trkpt lat="48.3101690" lon="-1.8733900"><ele></ele><time>2017-12-15T21:4:21Z</time></trkpt>
<trkpt lat="48.3101280" lon="-1.8733950"><ele></ele><time>2017-12-15T21:4:24Z</time></trkpt>
<trkpt lat="48.3100890" lon="-1.8734020"><ele></ele><time>2017-12-15T21:4:27Z</time></trkpt>
<trkpt lat="48.3100520" lon="-1.8734240"><ele></ele><time>2017-12-15T21:4:30Z</time></trkpt>
<trkpt lat="48.3100220" lon="-1.8734600"><ele></ele><time>2017-12-15T21:4:33Z</time></trkpt>
<trkpt lat="48.3099970" lon="-1.8735060"><ele></ele><time>2017-12-15T21:4:36Z</time></trkpt>
<trkpt lat="48.3099700" lon="-1.8735480"><ele></ele><time>2017-12-15T21:4:39Z</time></trkpt>
<trkpt lat="48.3099420" lon="-1.8735870"><ele></ele><time>2017-12-15T21:4:42Z</time></trkpt>
<trkpt lat="48.3099050" lon="-1.8736160"><ele></ele><time>2017-12-15T21:4:45Z</time></trkpt>
<trkpt lat="48.3098680" lon="-1.8736510"><ele></ele><time>2017-12-15T21:4:48Z</time></trkpt>
<trkpt lat="48.3098340" lon="-1.8736820"><ele></ele><time>2017-12-15T21:4:51Z</time></trkpt>
<trkpt lat="48.3097990" lon="-1.8737130"><ele></ele><time>2017-12-15T21:4:54Z</time></trkpt>
<trkpt lat="48.3097620" lon="-1.8737430"><ele></ele><time>2017-12-15T21:4:57Z</time></trkpt>
<trkpt lat="48.3097290" lon="-1.8737770"><ele></ele><time>2017-12-15T21:5:0Z</time></trkpt>
<trkpt lat="48.3096930" lon="-1.8738150"><ele></ele><time>2017-12-15T21:5:3Z</time></trkpt>
<trkpt lat="48.3096570" lon="-1.8738560"><ele></ele><time>2017-12-15T21:5:6Z</time></trkpt>
<trkpt lat="48.3096190" lon="-1.8738900"><ele></ele><time>2017-12-15T21:5:9Z</time></trkpt>
<trkpt lat="48.3095870" lon="-1.8739240"><ele></ele><time>2017-12-15T21:5:12Z</time></trkpt>
<trkpt lat="48.3095540" lon="-1.8739490"><ele></ele><time>2017-12-15T21:5:15Z</time></trkpt>
<trkpt lat="48.3095230" lon="-1.8739820"><ele></ele><time>2017-12-15T21:5:18Z</time></trkpt>
<trkpt lat="48.3094840" lon="-1.8740000"><ele></ele><time>2017-12-15T21:5:21Z</time></trkpt>
<trkpt lat="48.3094410" lon="-1.8740160"><ele></ele><time>2017-12-15T21:5:24Z</time></trkpt>
<trkpt lat="48.3094010" lon="-1.8740280"><ele></ele><time>2017-12-15T21:5:27Z</time></trkpt>
<trkpt lat="48.3093610" lon="-1.8740540"><ele></ele><time>2017-12-15T21:5:30Z</time></trkpt>
<trkpt lat="48.3093240" lon="-1.8740820"><ele></ele><time>2017-12-15T21:5:33Z</time></trkpt>
<trkpt lat="48.3092830" lon="-1.8741060"><ele></ele><time>2017-12-15T21:5:36Z</time></trkpt>
<trkpt lat="48.3092480" lon="-1.8741360"><ele></ele><time>2017-12-15T21:5:39Z</time></trkpt>
<trkpt lat="48.3092120" lon="-1.8741620"><ele></ele><time>2017-12-15T21:5:42Z</time></trkpt>
<trkpt lat="48.3091760" lon="-1.8741850"><ele></ele><time>2017-12-15T21:5:45Z</time></trkpt>
<trkpt lat="48.3091430" lon="-1.8742070"><ele></ele><time>2017-12-15T21:5:48Z</time></trkpt>
<trkpt lat="48.3091080" lon="-1.8742260"><ele></ele><time>2017-12-15T21:5:51Z</time></trkpt>
<trkpt lat="48.3090700" lon="-1.8742480"><ele></ele><time>2017-12-15T21:5:54Z</time></trkpt>
<trkpt lat="48.3090370" lon="-1.8742720"><ele></ele><time>2017-12-15T21:5:57Z</time></trkpt>
<trkpt lat="48.3090000" lon="-1.8743010"><ele></ele><time>2017-12-15T21:6:0Z</time></trkpt>
<trkpt lat="48.3089650" lon="-1.8743240"><ele></ele><time>2017-12-15T21:6:3Z</time></trkpt>
<trkpt lat="48.3089330" lon="-1.8743480"><ele></ele><time>2017-12-15T21:6:6Z</time></trkpt>
<trkpt lat="48.3088950" lon="-1.8743710"><ele></ele><time>2017-12-15T21:6:9Z</time></trkpt>
<trkpt lat="48.3088580" lon="-1.8743920"><ele></ele><time>2017-12-15T21:6:12Z</time></trkpt>
<trkpt lat="48.3088210" lon="-1.8744150"><ele></ele><time>2017-12-15T21:6:15Z</time></trkpt>
<trkpt lat="48.3087840" lon="-1.8744340"><ele></ele><time>2017-12-15T21:6:18Z</time></trkpt>
<trkpt lat="48.3087540" lon="-1.8744520"><ele></ele><time>2017-12-15T21:6:21Z</time></trkpt>
<trkpt lat="48.3087220" lon="-1.8744770"><ele></ele><time>2017-12-15T21:6:24Z</time></trkpt>
<trkpt lat="48.3086920" lon="-1.8745020"><ele></ele><time>2017-12-15T21:6:27Z</time></trkpt>
<trkpt lat="48.3086600" lon="-1.8745230"><ele></ele><time>2017-12-15T21:6:30Z</time></trkpt>
<trkpt lat="48.3086260" lon="-1.8745470"><ele></ele><time>2017-12-15T21:6:33Z</time></trkpt>
<trkpt lat="48.3085900" lon="-1.8745730"><ele></ele><time>2017-12-15T21:6:36Z</time></trkpt>
<trkpt lat="48.3085560" lon="-1.8745950"><ele></ele><time>2017-12-15T21:6:39Z</time></trkpt>
<trkpt lat="48.3085210" lon="-1.8746180"><ele></ele><time>2017-12-15T21:6:42Z</time></trkpt>
<trkpt lat="48.3084870" lon="-1.8746390"><ele></ele><time>2017-12-15T21:6:45Z</time></trkpt>
<trkpt lat="48.3084530" lon="-1.8746600"><ele></ele><time>2017-12-15T21:6:48Z</time></trkpt>
<trkpt lat="48.3084240" lon="-1.8746830"><ele></ele><time>2017-12-15T21:6:51Z</time></trkpt>
<trkpt lat="48.3083890" lon="-1.8747030"><ele></ele><time>2017-12-15T21:6:54Z</time></trkpt>
<trkpt lat="48.3083570" lon="-1.8747280"><ele></ele><time>2017-12-15T21:6:57Z</time></trkpt>
<trkpt lat="48.3083230" lon="-1.8747500"><ele></ele><time>2017-12-15T21:7:0Z</time></trkpt>
<trkpt lat="48.3082940" lon="-1.8747760"><ele></ele><time>2017-12-15T21:7:3Z</time></trkpt>
<trkpt lat="48.3082600" lon="-1.8747980"><ele></ele><time>2017-12-15T21:7:6Z</time></trkpt>
<trkpt lat="48.3082300" lon="-1.8748210"><ele></ele><time>2017-12-15T21:7:9Z</time></trkpt>
<trkpt lat="48.3082030" lon="-1.8748490"><ele></ele><time>2017-12-15T21:7:12Z</time></trkpt>
<trkpt lat="48.3081740" lon="-1.8748760"><ele></ele><time>2017-12-15T21:7:15Z</time></trkpt>
<trkpt lat="48.3081450" lon="-1.8748990"><ele></ele><time>2017-12-15T21:7:18Z</time></trkpt>
<trkpt lat="48.3081170" lon="-1.8749200"><ele></ele><time>2017-12-15T21:7:21Z</time></trkpt>
<trkpt lat="48.3080900" lon="-1.8749420"><ele></ele><time>2017-12-15T21:7:24Z</time></trkpt>
<trkpt lat="48.3080630" lon="-1.8749620"><ele></ele><time>2017-12-15T21:7:27Z</time></trkpt>
<trkpt lat="48.3080380" lon="-1.8749830"><ele></ele><time>2017-12-15T21:7:30Z</time></trkpt>
<trkpt lat="48.3080100" lon="-1.8750050"><ele></ele><time>2017-12-15T21:7:33Z</time></trkpt>
<trkpt lat="48.3079840" lon="-1.8750320"><ele></ele><time>2017-12-15T21:7:36Z</time></trkpt>
<trkpt lat="48.3079550" lon="-1.8750520"><ele></ele><time>2017-12-15T21:7:39Z</time></trkpt>
<trkpt lat="48.3079320" lon="-1.8750750"><ele></ele><time>2017-12-15T21:7:42Z</time></trkpt>
<trkpt lat="48.3079030" lon="-1.8750920"><ele></ele><time>2017-12-15T21:7:45Z</time></trkpt>
<trkpt lat="48.3078750" lon="-1.8751070"><ele></ele><time>2017-12-15T21:7:48Z</time></trkpt>
<trkpt lat="48.3078450" lon="-1.8751140"><ele></ele><time>2017-12-15T21:7:51Z</time></trkpt>
<trkpt lat="48.3078160" lon="-1.8751360"><ele></ele><time>2017-12-15T21:7:54Z</time></trkpt>
<trkpt lat="48.3077880" lon="-1.8751550"><ele></ele><time>2017-12-15T21:7:57Z</time></trkpt>
<trkpt lat="48.3077590" lon="-1.8751730"><ele></ele><time>2017-12-15T21:8:0Z</time></trkpt>
<trkpt lat="48.3077340" lon="-1.8751990"><ele></ele><time>2017-12-15T21:8:3Z</time></trkpt>
<trkpt lat="48.3077060" lon="-1.8752190"><ele></ele><time>2017-12-15T21:8:6Z</time></trkpt>
<trkpt lat="48.3076770" lon="-1.8752360"><ele></ele><time>2017-12-15T21:8:9Z</time></trkpt>
<trkpt lat="48.3076510" lon="-1.8752480"><ele></ele><time>2017-12-15T21:8:12Z</time></trkpt>
<trkpt lat="48.3076010" lon="-1.8752770"><ele></ele><time>2017-12-15T21:8:15Z</time></trkpt>
<trkpt lat="48.3075760" lon="-1.8752930"><ele></ele><time>2017-12-15T21:8:18Z</time></trkpt>
<trkpt lat="48.3075290" lon="-1.8753150"><ele></ele><time>2017-12-15T21:8:21Z</time></trkpt>
<trkpt lat="48.3074810" lon="-1.8753450"><ele></ele><time>2017-12-15T21:8:24Z</time></trkpt>
<trkpt lat="48.3074360" lon="-1.8753810"><ele></ele><time>2017-12-15T21:8:27Z</time></trkpt>
<trkpt lat="48.3073860" lon="-1.8754180"><ele></ele><time>2017-12-15T21:8:30Z</time></trkpt>
<trkpt lat="48.3073600" lon="-1.8754390"><ele></ele><time>2017-12-15T21:8:33Z</time></trkpt>
<trkpt lat="48.3073340" lon="-1.8754580"><ele></ele><time>2017-12-15T21:8:36Z</time></trkpt>
<trkpt lat="48.3073100" lon="-1.8754800"><ele></ele><time>2017-12-15T21:8:39Z</time></trkpt>
<trkpt lat="48.3072610" lon="-1.8755210"><ele></ele><time>2017-12-15T21:8:42Z</time></trkpt>
<trkpt lat="48.3072340" lon="-1.8755460"><ele></ele><time>2017-12-15T21:8:45Z</time></trkpt>
<trkpt lat="48.3072050" lon="-1.8755730"><ele></ele><time>2017-12-15T21:8:48Z</time></trkpt>
<trkpt lat="48.3071760" lon="-1.8756000"><ele></ele><time>2017-12-15T21:8:51Z</time></trkpt>
<trkpt lat="48.3071500" lon="-1.8756280"><ele></ele><time>2017-12-15T21:8:54Z</time></trkpt>
<trkpt lat="48.3071230" lon="-1.8756540"><ele></ele><time>2017-12-15T21:8:57Z</time></trkpt>
<trkpt lat="48.3070980" lon="-1.8756840"><ele></ele><time>2017-12-15T21:9:0Z</time></trkpt>
<trkpt lat="48.3070710" lon="-1.8757120"><ele></ele><time>2017-12-15T21:9:3Z</time></trkpt>
<trkpt lat="48.3070450" lon="-1.8757400"><ele></ele><time>2017-12-15T21:9:6Z</time></trkpt>
<trkpt lat="48.3070200" lon="-1.8757700"><ele></ele><time>2017-12-15T21:9:9Z</time></trkpt>
<trkpt lat="48.3069940" lon="-1.8758000"><ele></ele><time>2017-12-15T21:9:12Z</time></trkpt>
<trkpt lat="48.3069700" lon="-1.8758280"><ele></ele><time>2017-12-15T21:9:15Z</time></trkpt>
<trkpt lat="48.3069420" lon="-1.8758540"><ele></ele><time>2017-12-15T21:9:18Z</time></trkpt>
<trkpt lat="48.3069150" lon="-1.8758820"><ele></ele><time>2017-12-15T21:9:21Z</time></trkpt>
<trkpt lat="48.3068920" lon="-1.8759100"><ele></ele><time>2017-12-15T21:9:24Z</time></trkpt>
<trkpt lat="48.3068660" lon="-1.8759390"><ele></ele><time>2017-12-15T21:9:27Z</time></trkpt>
<trkpt lat="48.3068420" lon="-1.8759620"><ele></ele><time>2017-12-15T21:9:30Z</time></trkpt>
<trkpt lat="48.3068160" lon="-1.8759830"><ele></ele><time>2017-12-15T21:9:33Z</time></trkpt>
<trkpt lat="48.3067910" lon="-1.8760080"><ele></ele><time>2017-12-15T21:9:36Z</time></trkpt>
<trkpt lat="48.3067660" lon="-1.8760350"><ele></ele><time>2017-12-15T21:9:39Z</time></trkpt>
<trkpt lat="48.3067430" lon="-1.8760600"><ele></ele><time>2017-12-15T21:9:42Z</time></trkpt>
<trkpt lat="48.3067180" lon="-1.8760890"><ele></ele><time>2017-12-15T21:9:45Z</time></trkpt>
<trkpt lat="48.3066930" lon="-1.8761190"><ele></ele><time>2017-12-15T21:9:48Z</time></trkpt>
<trkpt lat="48.3066680" lon="-1.8761500"><ele></ele><time>2017-12-15T21:9:51Z</time></trkpt>
<trkpt lat="48.3066430" lon="-1.8761800"><ele></ele><time>2017-12-15T21:9:54Z</time></trkpt>
<trkpt lat="48.3066190" lon="-1.8762070"><ele></ele><time>2017-12-15T21:9:57Z</time></trkpt>
<trkpt lat="48.3065960" lon="-1.8762360"><ele></ele><time>2017-12-15T21:10:0Z</time></trkpt>
<trkpt lat="48.3065720" lon="-1.8762620"><ele></ele><time>2017-12-15T21:10:3Z</time></trkpt>
<trkpt lat="48.3065450" lon="-1.8762870"><ele></ele><time>2017-12-15T21:10:6Z</time></trkpt>
<trkpt lat="48.3065210" lon="-1.8763190"><ele></ele><time>2017-12-15T21:10:9Z</time></trkpt>
<trkpt lat="48.3064950" lon="-1.8763510"><ele></ele><time>2017-12-15T21:10:12Z</time></trkpt>
<trkpt lat="48.3064690" lon="-1.8763840"><ele></ele><time>2017-12-15T21:10:15Z</time></trkpt>
<trkpt lat="48.3064400" lon="-1.8764200"><ele></ele><time>2017-12-15T21:10:18Z</time></trkpt>
<trkpt lat="48.3064110" lon="-1.8764570"><ele></ele><time>2017-12-15T21:10:21Z</time></trkpt>
<trkpt lat="48.3063820" lon="-1.8764930"><ele></ele><time>2017-12-15T21:10:24Z</time></trkpt>
<trkpt lat="48.3063540" lon="-1.8765300"><ele></ele><time>2017-12-15T21:10:27Z</time></trkpt>
<trkpt lat="48.3063240" lon="-1.8765650"><ele></ele><time>2017-12-15T21:10:30Z</time></trkpt>
<trkpt lat="48.3062940" lon="-1.8765990"><ele></ele><time>2017-12-15T21:10:33Z</time></trkpt>
<trkpt lat="48.3062630" lon="-1.8766370"><ele></ele><time>2017-12-15T21:10:36Z</time></trkpt>
<trkpt lat="48.3062300" lon="-1.8766750"><ele></ele><time>2017-12-15T21:10:39Z</time></trkpt>
<trkpt lat="48.3061960" lon="-1.8767130"><ele></ele><time>2017-12-15T21:10:42Z</time></trkpt>
<trkpt lat="48.3061620" lon="-1.8767520"><ele></ele><time>2017-12-15T21:10:45Z</time></trkpt>
<trkpt lat="48.3061280" lon="-1.8767870"><ele></ele><time>2017-12-15T21:10:48Z</time></trkpt>
<trkpt lat="48.3060940" lon="-1.8768210"><ele></ele><time>2017-12-15T21:10:51Z</time></trkpt>
<trkpt lat="48.3060630" lon="-1.8768620"><ele></ele><time>2017-12-15T21:10:54Z</time></trkpt>
<trkpt lat="48.3060310" lon="-1.8769110"><ele></ele><time>2017-12-15T21:10:57Z</time></trkpt>
<trkpt lat="48.3059960" lon="-1.8769600"><ele></ele><time>2017-12-15T21:11:0Z</time></trkpt>
<trkpt lat="48.3059590" lon="-1.8770060"><ele></ele><time>2017-12-15T21:11:3Z</time></trkpt>
<trkpt lat="48.3059250" lon="-1.8770560"><ele></ele><time>2017-12-15T21:11:6Z</time></trkpt>
<trkpt lat="48.3058920" lon="-1.8771090"><ele></ele><time>2017-12-15T21:11:9Z</time></trkpt>
<trkpt lat="48.3058660" lon="-1.8771610"><ele></ele><time>2017-12-15T21:11:12Z</time></trkpt>
<trkpt lat="48.3058450" lon="-1.8772200"><ele></ele><time>2017-12-15T21:11:15Z</time></trkpt>
<trkpt lat="48.3058140" lon="-1.8772610"><ele></ele><time>2017-12-15T21:11:18Z</time></trkpt>
<trkpt lat="48.3057760" lon="-1.8772780"><ele></ele><time>2017-12-15T21:11:21Z</time></trkpt>
<trkpt lat="48.3057380" lon="-1.8772680"><ele></ele><time>2017-12-15T21:11:24Z</time></trkpt>
<trkpt lat="48.3056990" lon="-1.8772430"><ele></ele><time>2017-12-15T21:11:27Z</time></trkpt>
<trkpt lat="48.3056630" lon="-1.8772440"><ele></ele><time>2017-12-15T21:11:30Z</time></trkpt>
<trkpt lat="48.3056360" lon="-1.8772690"><ele></ele><time>2017-12-15T21:11:33Z</time></trkpt>
<trkpt lat="48.3056050" lon="-1.8772920"><ele></ele><time>2017-12-15T21:11:36Z</time></trkpt>
<trkpt lat="48.3055750" lon="-1.8773150"><ele></ele><time>2017-12-15T21:11:39Z</time></trkpt>
<trkpt lat="48.3055420" lon="-1.8773320"><ele></ele><time>2017-12-15T21:11:42Z</time></trkpt>
<trkpt lat="48.3055100" lon="-1.8773420"><ele></ele><time>2017-12-15T21:11:45Z</time></trkpt>
<trkpt lat="48.3054640" lon="-1.8773510"><ele></ele><time>2017-12-15T21:11:48Z</time></trkpt>
<trkpt lat="48.3054320" lon="-1.8773540"><ele></ele><time>2017-12-15T21:11:51Z</time></trkpt>
<trkpt lat="48.3053910" lon="-1.8773520"><ele></ele><time>2017-12-15T21:11:54Z</time></trkpt>
<trkpt lat="48.3053640" lon="-1.8773290"><ele></ele><time>2017-12-15T21:11:57Z</time></trkpt>
<trkpt lat="48.3053340" lon="-1.8772960"><ele></ele><time>2017-12-15T21:12:0Z</time></trkpt>
<trkpt lat="48.3053110" lon="-1.8772710"><ele></ele><time>2017-12-15T21:12:3Z</time></trkpt>
<trkpt lat="48.3052800" lon="-1.8772570"><ele></ele><time>2017-12-15T21:12:6Z</time></trkpt>
<trkpt lat="48.3052480" lon="-1.8772640"><ele></ele><time>2017-12-15T21:12:9Z</time></trkpt>
<trkpt lat="48.3052100" lon="-1.8772880"><ele></ele><time>2017-12-15T21:12:12Z</time></trkpt>
<trkpt lat="48.3051820" lon="-1.8773100"><ele></ele><time>2017-12-15T21:12:15Z</time></trkpt>
<trkpt lat="48.3051360" lon="-1.8773410"><ele></ele><time>2017-12-15T21:12:18Z</time></trkpt>
<trkpt lat="48.3050950" lon="-1.8773720"><ele></ele><time>2017-12-15T21:12:21Z</time></trkpt>
<trkpt lat="48.3050550" lon="-1.8774030"><ele></ele><time>2017-12-15T21:12:24Z</time></trkpt>
<trkpt lat="48.3050160" lon="-1.8774270"><ele></ele><time>2017-12-15T21:12:27Z</time></trkpt>
<trkpt lat="48.3049850" lon="-1.8774570"><ele></ele><time>2017-12-15T21:12:30Z</time></trkpt>
<trkpt lat="48.3049530" lon="-1.8774860"><ele></ele><time>2017-12-15T21:12:33Z</time></trkpt>
<trkpt lat="48.3049190" lon="-1.8775100"><ele></ele><time>2017-12-15T21:12:36Z</time></trkpt>
<trkpt lat="48.3048790" lon="-1.8775340"><ele></ele><time>2017-12-15T21:12:39Z</time></trkpt>
<trkpt lat="48.3048410" lon="-1.8775580"><ele></ele><time>2017-12-15T21:12:42Z</time></trkpt>
<trkpt lat="48.3048010" lon="-1.8775840"><ele></ele><time>2017-12-15T21:12:45Z</time></trkpt>
<trkpt lat="48.3047590" lon="-1.8776000"><ele></ele><time>2017-12-15T21:12:48Z</time></trkpt>
<trkpt lat="48.3047220" lon="-1.8776260"><ele></ele><time>2017-12-15T21:12:51Z</time></trkpt>
<trkpt lat="48.3046810" lon="-1.8776450"><ele></ele><time>2017-12-15T21:12:54Z</time></trkpt>
<trkpt lat="48.3046460" lon="-1.8776650"><ele></ele><time>2017-12-15T21:12:57Z</time></trkpt>
<trkpt lat="48.3046070" lon="-1.8776840"><ele></ele><time>2017-12-15T21:13:0Z</time></trkpt>
<trkpt lat="48.3045760" lon="-1.8777160"><ele></ele><time>2017-12-15T21:13:3Z</time></trkpt>
<trkpt lat="48.3045510" lon="-1.8777500"><ele></ele><time>2017-12-15T21:13:6Z</time></trkpt>
<trkpt lat="48.3045220" lon="-1.8777890"><ele></ele><time>2017-12-15T21:13:9Z</time></trkpt>
<trkpt lat="48.3044890" lon="-1.8778240"><ele></ele><time>2017-12-15T21:13:12Z</time></trkpt>
<trkpt lat="48.3044550" lon="-1.8778550"><ele></ele><time>2017-12-15T21:13:15Z</time></trkpt>
<trkpt lat="48.3044190" lon="-1.8778920"><ele></ele><time>2017-12-15T21:13:18Z</time></trkpt>
<trkpt lat="48.3043860" lon="-1.8779350"><ele></ele><time>2017-12-15T21:13:21Z</time></trkpt>
<trkpt lat="48.3043500" lon="-1.8779680"><ele></ele><time>2017-12-15T21:13:24Z</time></trkpt>
<trkpt lat="48.3043100" lon="-1.8779940"><ele></ele><time>2017-12-15T21:13:27Z</time></trkpt>
<trkpt lat="48.3042780" lon="-1.8780130"><ele></ele><time>2017-12-15T21:13:30Z</time></trkpt>
<trkpt lat="48.3042380" lon="-1.8780380"><ele></ele><time>2017-12-15T21:13:33Z</time></trkpt>
<trkpt lat="48.3042020" lon="-1.8780640"><ele></ele><time>2017-12-15T21:13:36Z</time></trkpt>
<trkpt lat="48.3041700" lon="-1.8780920"><ele></ele><time>2017-12-15T21:13:39Z</time></trkpt>
<trkpt lat="48.3041330" lon="-1.8781180"><ele></ele><time>2017-12-15T21:13:42Z</time></trkpt>
<trkpt lat="48.3040920" lon="-1.8781510"><ele></ele><time>2017-12-15T21:13:45Z</time></trkpt>
<trkpt lat="48.3040520" lon="-1.8781830"><ele></ele><time>2017-12-15T21:13:48Z</time></trkpt>
<trkpt lat="48.3040090" lon="-1.8782080"><ele></ele><time>2017-12-15T21:13:51Z</time></trkpt>
<trkpt lat="48.3039660" lon="-1.8782280"><ele></ele><time>2017-12-15T21:13:54Z</time></trkpt>
<trkpt lat="48.3039130" lon="-1.8782050"><ele></ele><time>2017-12-15T21:13:57Z</time></trkpt>
<trkpt lat="48.3038930" lon="-1.8781650"><ele></ele><time>2017-12-15T21:14:0Z</time></trkpt>
<trkpt lat="48.3038740" lon="-1.8781190"><ele></ele><time>2017-12-15T21:14:3Z</time></trkpt>
<trkpt lat="48.3038570" lon="-1.8780720"><ele></ele><time>2017-12-15T21:14:6Z</time></trkpt>
<trkpt lat="48.3038350" lon="-1.8780230"><ele></ele><time>2017-12-15T21:14:9Z</time></trkpt>
<trkpt lat="48.3038110" lon="-1.8779740"><ele></ele><time>2017-12-15T21:14:12Z</time></trkpt>
<trkpt lat="48.3037880" lon="-1.8779140"><ele></ele><time>2017-12-15T21:14:15Z</time></trkpt>
<trkpt lat="48.3037580" lon="-1.8778470"><ele></ele><time>2017-12-15T21:14:18Z</time></trkpt>
<trkpt lat="48.3037270" lon="-1.8777760"><ele></ele><time>2017-12-15T21:14:21Z</time></trkpt>
<trkpt lat="48.3036950" lon="-1.8776970"><ele></ele><time>2017-12-15T21:14:24Z</time></trkpt>
<trkpt lat="48.3036610" lon="-1.8776060"><ele></ele><time>2017-12-15T21:14:27Z</time></trkpt>
<trkpt lat="48.3036250" lon="-1.8775150"><ele></ele><time>2017-12-15T21:14:30Z</time></trkpt>
<trkpt lat="48.3035960" lon="-1.8774290"><ele></ele><time>2017-12-15T21:14:33Z</time></trkpt>
<trkpt lat="48.3035690" lon="-1.8773430"><ele></ele><time>2017-12-15T21:14:36Z</time></trkpt>
<trkpt lat="48.3035430" lon="-1.8772570"><ele></ele><time>2017-12-15T21:14:39Z</time></trkpt>
<trkpt lat="48.3035220" lon="-1.8771650"><ele></ele><time>2017-12-15T21:14:42Z</time></trkpt>
<trkpt lat="48.3035090" lon="-1.8770720"><ele></ele><time>2017-12-15T21:14:45Z</time></trkpt>
<trkpt lat="48.3034980" lon="-1.8769770"><ele></ele><time>2017-12-15T21:14:48Z</time></trkpt>
<trkpt lat="48.3034800" lon="-1.8768770"><ele></ele><time>2017-12-15T21:14:51Z</time></trkpt>
<trkpt lat="48.3034650" lon="-1.8767790"><ele></ele><time>2017-12-15T21:14:54Z</time></trkpt>
<trkpt lat="48.3034550" lon="-1.8766790"><ele></ele><time>2017-12-15T21:14:57Z</time></trkpt>
<trkpt lat="48.3034420" lon="-1.8765740"><ele></ele><time>2017-12-15T21:15:0Z</time></trkpt>
<trkpt lat="48.3034320" lon="-1.8764750"><ele></ele><time>2017-12-15T21:15:3Z</time></trkpt>
<trkpt lat="48.3034190" lon="-1.8763790"><ele></ele><time>2017-12-15T21:15:6Z</time></trkpt>
<trkpt lat="48.3034070" lon="-1.8762820"><ele></ele><time>2017-12-15T21:15:9Z</time></trkpt>
<trkpt lat="48.3033970" lon="-1.8761900"><ele></ele><time>2017-12-15T21:15:12Z</time></trkpt>
<trkpt lat="48.3033810" lon="-1.8761040"><ele></ele><time>2017-12-15T21:15:15Z</time></trkpt>
<trkpt lat="48.3033610" lon="-1.8760210"><ele></ele><time>2017-12-15T21:15:18Z</time></trkpt>
<trkpt lat="48.3033440" lon="-1.8759430"><ele></ele><time>2017-12-15T21:15:21Z</time></trkpt>
<trkpt lat="48.3033310" lon="-1.8758660"><ele></ele><time>2017-12-15T21:15:24Z</time></trkpt>
<trkpt lat="48.3033170" lon="-1.8757960"><ele></ele><time>2017-12-15T21:15:27Z</time></trkpt>
<trkpt lat="48.3033030" lon="-1.8757270"><ele></ele><time>2017-12-15T21:15:30Z</time></trkpt>
<trkpt lat="48.3032930" lon="-1.8756630"><ele></ele><time>2017-12-15T21:15:33Z</time></trkpt>
<trkpt lat="48.3032880" lon="-1.8756010"><ele></ele><time>2017-12-15T21:15:36Z</time></trkpt>
<trkpt lat="48.3032820" lon="-1.8755340"><ele></ele><time>2017-12-15T21:15:39Z</time></trkpt>
<trkpt lat="48.3032720" lon="-1.8754720"><ele></ele><time>2017-12-15T21:15:42Z</time></trkpt>
<trkpt lat="48.3032640" lon="-1.8754070"><ele></ele><time>2017-12-15T21:15:45Z</time></trkpt>
<trkpt lat="48.3032590" lon="-1.8753420"><ele></ele><time>2017-12-15T21:15:48Z</time></trkpt>
<trkpt lat="48.3032540" lon="-1.8752810"><ele></ele><time>2017-12-15T21:15:51Z</time></trkpt>
<trkpt lat="48.3032450" lon="-1.8752270"><ele></ele><time>2017-12-15T21:15:54Z</time></trkpt>
<trkpt lat="48.3032370" lon="-1.8751720"><ele></ele><time>2017-12-15T21:15:57Z</time></trkpt>
<trkpt lat="48.3032290" lon="-1.8751090"><ele></ele><time>2017-12-15T21:16:0Z</time></trkpt>
<trkpt lat="48.3032180" lon="-1.8750520"><ele></ele><time>2017-12-15T21:16:3Z</time></trkpt>
<trkpt lat="48.3032070" lon="-1.8749860"><ele></ele><time>2017-12-15T21:16:6Z</time></trkpt>
<trkpt lat="48.3031990" lon="-1.8749130"><ele></ele><time>2017-12-15T21:16:9Z</time></trkpt>
<trkpt lat="48.3031910" lon="-1.8748400"><ele></ele><time>2017-12-15T21:16:12Z</time></trkpt>
<trkpt lat="48.3031750" lon="-1.8747750"><ele></ele><time>2017-12-15T21:16:15Z</time></trkpt>
<trkpt lat="48.3031590" lon="-1.8747180"><ele></ele><time>2017-12-15T21:16:18Z</time></trkpt>
<trkpt lat="48.3031550" lon="-1.8746640"><ele></ele><time>2017-12-15T21:16:21Z</time></trkpt>
<trkpt lat="48.3031570" lon="-1.8745980"><ele></ele><time>2017-12-15T21:16:24Z</time></trkpt>
<trkpt lat="48.3031610" lon="-1.8745430"><ele></ele><time>2017-12-15T21:16:27Z</time></trkpt>
<trkpt lat="48.3031640" lon="-1.8744850"><ele></ele><time>2017-12-15T21:16:30Z</time></trkpt>
<trkpt lat="48.3031650" lon="-1.8744280"><ele></ele><time>2017-12-15T21:16:33Z</time></trkpt>
<trkpt lat="48.3031680" lon="-1.8743610"><ele></ele><time>2017-12-15T21:16:36Z</time></trkpt>
<trkpt lat="48.3031660" lon="-1.8743020"><ele></ele><time>2017-12-15T21:16:39Z</time></trkpt>
<trkpt lat="48.3031680" lon="-1.8742380"><ele></ele><time>2017-12-15T21:16:42Z</time></trkpt>
<trkpt lat="48.3031720" lon="-1.8741580"><ele></ele><time>2017-12-15T21:16:45Z</time></trkpt>
<trkpt lat="48.3031700" lon="-1.8741130"><ele></ele><time>2017-12-15T21:16:48Z</time></trkpt>
<trkpt lat="48.3031690" lon="-1.8740490"><ele></ele><time>2017-12-15T21:16:51Z</time></trkpt>
<trkpt lat="48.3031690" lon="-1.8739880"><ele></ele><time>2017-12-15T21:16:54Z</time></trkpt>
<trkpt lat="48.3031590" lon="-1.8739420"><ele></ele><time>2017-12-15T21:16:57Z</time></trkpt>
<trkpt lat="48.3031630" lon="-1.8738540"><ele></ele><time>2017-12-15T21:17:0Z</time></trkpt>
<trkpt lat="48.3031590" lon="-1.8737980"><ele></ele><time>2017-12-15T21:17:3Z</time></trkpt>
<trkpt lat="48.3031490" lon="-1.8737540"><ele></ele><time>2017-12-15T21:17:6Z</time></trkpt>
<trkpt lat="48.3031320" lon="-1.8737080"><ele></ele><time>2017-12-15T21:17:9Z</time></trkpt>
<trkpt lat="48.3031070" lon="-1.8736590"><ele></ele><time>2017-12-15T21:17:12Z</time></trkpt>
<trkpt lat="48.3030990" lon="-1.8735980"><ele></ele><time>2017-12-15T21:17:15Z</time></trkpt>
<trkpt lat="48.3030820" lon="-1.8735240"><ele></ele><time>2017-12-15T21:17:18Z</time></trkpt>
<trkpt lat="48.3030830" lon="-1.8734740"><ele></ele><time>2017-12-15T21:17:21Z</time></trkpt>
<trkpt lat="48.3030750" lon="-1.8734230"><ele></ele><time>2017-12-15T21:17:24Z</time></trkpt>
<trkpt lat="48.3030670" lon="-1.8733610"><ele></ele><time>2017-12-15T21:17:27Z</time></trkpt>
<trkpt lat="48.3030570" lon="-1.8732970"><ele></ele><time>2017-12-15T21:17:30Z</time></trkpt>
<trkpt lat="48.3030490" lon="-1.8732370"><ele></ele><time>2017-12-15T21:17:33Z</time></trkpt>
<trkpt lat="48.3030470" lon="-1.8731590"><ele></ele><time>2017-12-15T21:17:36Z</time></trkpt>
<trkpt lat="48.3030470" lon="-1.8731100"><ele></ele><time>2017-12-15T21:17:39Z</time></trkpt>
<trkpt lat="48.3030450" lon="-1.8730580"><ele></ele><time>2017-12-15T21:17:42Z</time></trkpt>
<trkpt lat="48.3030550" lon="-1.8730090"><ele></ele><time>2017-12-15T21:17:45Z</time></trkpt>
<trkpt lat="48.3030490" lon="-1.8729570"><ele></ele><time>2017-12-15T21:17:48Z</time></trkpt>
<trkpt lat="48.3030390" lon="-1.8728880"><ele></ele><time>2017-12-15T21:17:51Z</time></trkpt>
<trkpt lat="48.3030370" lon="-1.8728410"><ele></ele><time>2017-12-15T21:17:54Z</time></trkpt>
<trkpt lat="48.3030400" lon="-1.8727920"><ele></ele><time>2017-12-15T21:17:57Z</time></trkpt>
<trkpt lat="48.3030420" lon="-1.8727360"><ele></ele><time>2017-12-15T21:18:0Z</time></trkpt>
<trkpt lat="48.3030340" lon="-1.8726900"><ele></ele><time>2017-12-15T21:18:3Z</time></trkpt>
<trkpt lat="48.3030310" lon="-1.8726490"><ele></ele><time>2017-12-15T21:18:6Z</time></trkpt>
<trkpt lat="48.3030340" lon="-1.8725980"><ele></ele><time>2017-12-15T21:18:9Z</time></trkpt>
<trkpt lat="48.3030310" lon="-1.8725490"><ele></ele><time>2017-12-15T21:18:12Z</time></trkpt>
<trkpt lat="48.3030360" lon="-1.8724950"><ele></ele><time>2017-12-15T21:18:15Z</time></trkpt>
<trkpt lat="48.3030380" lon="-1.8724330"><ele></ele><time>2017-12-15T21:18:18Z</time></trkpt>
<trkpt lat="48.3030350" lon="-1.8723860"><ele></ele><time>2017-12-15T21:18:21Z</time></trkpt>
<trkpt lat="48.3030340" lon="-1.8723420"><ele></ele><time>2017-12-15T21:18:24Z</time></trkpt>
<trkpt lat="48.3030200" lon="-1.8722860"><ele></ele><time>2017-12-15T21:18:27Z</time></trkpt>
<trkpt lat="48.3030180" lon="-1.8722440"><ele></ele><time>2017-12-15T21:18:30Z</time></trkpt>
<trkpt lat="48.3030070" lon="-1.8721760"><ele></ele><time>2017-12-15T21:18:33Z</time></trkpt>
<trkpt lat="48.3030070" lon="-1.8721050"><ele></ele><time>2017-12-15T21:18:36Z</time></trkpt>
<trkpt lat="48.3030030" lon="-1.8720640"><ele></ele><time>2017-12-15T21:18:39Z</time></trkpt>
<trkpt lat="48.3030030" lon="-1.8720150"><ele></ele><time>2017-12-15T21:18:42Z</time></trkpt>
<trkpt lat="48.3030150" lon="-1.8719730"><ele></ele><time>2017-12-15T21:18:45Z</time></trkpt>
<trkpt lat="48.3030190" lon="-1.8719140"><ele></ele><time>2017-12-15T21:18:48Z</time></trkpt>
<trkpt lat="48.3029810" lon="-1.8718960"><ele></ele><time>2017-12-15T21:18:51Z</time></trkpt>
<trkpt lat="48.3029310" lon="-1.8719060"><ele></ele><time>2017-12-15T21:18:54Z</time></trkpt>
<trkpt lat="48.3029030" lon="-1.8719160"><ele></ele><time>2017-12-15T21:18:57Z</time></trkpt>
<trkpt lat="48.3028730" lon="-1.8719280"><ele></ele><time>2017-12-15T21:19:0Z</time></trkpt>
<trkpt lat="48.3028460" lon="-1.8719430"><ele></ele><time>2017-12-15T21:19:3Z</time></trkpt>
<trkpt lat="48.3027880" lon="-1.8719670"><ele></ele><time>2017-12-15T21:19:6Z</time></trkpt>
<trkpt lat="48.3027570" lon="-1.8719790"><ele></ele><time>2017-12-15T21:19:9Z</time></trkpt>
<trkpt lat="48.3027280" lon="-1.8719930"><ele></ele><time>2017-12-15T21:19:12Z</time></trkpt>
<trkpt lat="48.3026950" lon="-1.8720130"><ele></ele><time>2017-12-15T21:19:15Z</time></trkpt>
<trkpt lat="48.3026650" lon="-1.8720290"><ele></ele><time>2017-12-15T21:19:18Z</time></trkpt>
<trkpt lat="48.3026370" lon="-1.8720440"><ele></ele><time>2017-12-15T21:19:21Z</time></trkpt>
<trkpt lat="48.3026070" lon="-1.8720610"><ele></ele><time>2017-12-15T21:19:24Z</time></trkpt>
<trkpt lat="48.3025780" lon="-1.8720760"><ele></ele><time>2017-12-15T21:19:27Z</time></trkpt>
<trkpt lat="48.3025500" lon="-1.8720900"><ele></ele><time>2017-12-15T21:19:30Z</time></trkpt>
<trkpt lat="48.3025250" lon="-1.8721060"><ele></ele><time>2017-12-15T21:19:33Z</time></trkpt>
<trkpt lat="48.3024990" lon="-1.8721190"><ele></ele><time>2017-12-15T21:19:36Z</time></trkpt>
<trkpt lat="48.3024720" lon="-1.8721250"><ele></ele><time>2017-12-15T21:19:39Z</time></trkpt>
<trkpt lat="48.3024170" lon="-1.8721430"><ele></ele><time>2017-12-15T21:19:42Z</time></trkpt>
<trkpt lat="48.3023870" lon="-1.8721500"><ele></ele><time>2017-12-15T21:19:45Z</time></trkpt>
<trkpt lat="48.3023540" lon="-1.8721650"><ele></ele><time>2017-12-15T21:19:48Z</time></trkpt>
<trkpt lat="48.3023220" lon="-1.8721800"><ele></ele><time>2017-12-15T21:19:51Z</time></trkpt>
<trkpt lat="48.3022950" lon="-1.8721950"><ele></ele><time>2017-12-15T21:19:54Z</time></trkpt>
<trkpt lat="48.3022450" lon="-1.8722210"><ele></ele><time>2017-12-15T21:19:57Z</time></trkpt>
<trkpt lat="48.3022160" lon="-1.8722370"><ele></ele><time>2017-12-15T21:20:0Z</time></trkpt>
<trkpt lat="48.3021900" lon="-1.8722530"><ele></ele><time>2017-12-15T21:20:3Z</time></trkpt>
<trkpt lat="48.3021510" lon="-1.8722710"><ele></ele><time>2017-12-15T21:20:6Z</time></trkpt>
<trkpt lat="48.3020990" lon="-1.8722700"><ele></ele><time>2017-12-15T21:20:9Z</time></trkpt>
<trkpt lat="48.3020720" lon="-1.8722710"><ele></ele><time>2017-12-15T21:20:12Z</time></trkpt>
<trkpt lat="48.3020200" lon="-1.8722650"><ele></ele><time>2017-12-15T21:20:15Z</time></trkpt>
<trkpt lat="48.3019760" lon="-1.8722330"><ele></ele><time>2017-12-15T21:20:18Z</time></trkpt>
<trkpt lat="48.3019410" lon="-1.8722310"><ele></ele><time>2017-12-15T21:20:21Z</time></trkpt>
<trkpt lat="48.3019090" lon="-1.8722360"><ele></ele><time>2017-12-15T21:20:24Z</time></trkpt>
<trkpt lat="48.3018640" lon="-1.8722550"><ele></ele><time>2017-12-15T21:20:27Z</time></trkpt>
<trkpt lat="48.3018190" lon="-1.8722560"><ele></ele><time>2017-12-15T21:20:30Z</time></trkpt>
<trkpt lat="48.3017790" lon="-1.8722540"><ele></ele><time>2017-12-15T21:20:33Z</time></trkpt>
<trkpt lat="48.3017470" lon="-1.8722550"><ele></ele><time>2017-12-15T21:20:36Z</time></trkpt>
<trkpt lat="48.3017100" lon="-1.8722530"><ele></ele><time>2017-12-15T21:20:39Z</time></trkpt>
<trkpt lat="48.3016810" lon="-1.8722450"><ele></ele><time>2017-12-15T21:20:42Z</time></trkpt>
<trkpt lat="48.3016500" lon="-1.8722390"><ele></ele><time>2017-12-15T21:20:45Z</time></trkpt>
<trkpt lat="48.3016130" lon="-1.8722380"><ele></ele><time>2017-12-15T21:20:48Z</time></trkpt>
<trkpt lat="48.3015740" lon="-1.8722220"><ele></ele><time>2017-12-15T21:20:51Z</time></trkpt>
<trkpt lat="48.3015360" lon="-1.8722200"><ele></ele><time>2017-12-15T21:20:54Z</time></trkpt>
<trkpt lat="48.3015010" lon="-1.8722190"><ele></ele><time>2017-12-15T21:20:57Z</time></trkpt>
<trkpt lat="48.3014730" lon="-1.8722210"><ele></ele><time>2017-12-15T21:21:0Z</time></trkpt>
<trkpt lat="48.3014340" lon="-1.8722300"><ele></ele><time>2017-12-15T21:21:3Z</time></trkpt>
<trkpt lat="48.3014000" lon="-1.8722330"><ele></ele><time>2017-12-15T21:21:6Z</time></trkpt>
<trkpt lat="48.3013480" lon="-1.8722360"><ele></ele><time>2017-12-15T21:21:9Z</time></trkpt>
<trkpt lat="48.3013170" lon="-1.8722250"><ele></ele><time>2017-12-15T21:21:12Z</time></trkpt>
<trkpt lat="48.3012810" lon="-1.8722180"><ele></ele><time>2017-12-15T21:21:15Z</time></trkpt>
<trkpt lat="48.3012450" lon="-1.8722160"><ele></ele><time>2017-12-15T21:21:18Z</time></trkpt>
<trkpt lat="48.3012060" lon="-1.8722040"><ele></ele><time>2017-12-15T21:21:21Z</time></trkpt>
<trkpt lat="48.3011670" lon="-1.8722110"><ele></ele><time>2017-12-15T21:21:24Z</time></trkpt>
<trkpt lat="48.3011370" lon="-1.8722070"><ele></ele><time>2017-12-15T21:21:27Z</time></trkpt>
<trkpt lat="48.3010920" lon="-1.8721910"><ele></ele><time>2017-12-15T21:21:30Z</time></trkpt>
<trkpt lat="48.3010540" lon="-1.8721870"><ele></ele><time>2017-12-15T21:21:33Z</time></trkpt>
<trkpt lat="48.3010190" lon="-1.8721860"><ele></ele><time>2017-12-15T21:21:36Z</time></trkpt>
<trkpt lat="48.3009820" lon="-1.8721850"><ele></ele><time>2017-12-15T21:21:39Z</time></trkpt>
<trkpt lat="48.3009360" lon="-1.8721850"><ele></ele><time>2017-12-15T21:21:42Z</time></trkpt>
<trkpt lat="48.3008910" lon="-1.8721800"><ele></ele><time>2017-12-15T21:21:45Z</time></trkpt>
<trkpt lat="48.3008500" lon="-1.8721700"><ele></ele><time>2017-12-15T21:21:48Z</time></trkpt>
<trkpt lat="48.3008030" lon="-1.8721650"><ele></ele><time>2017-12-15T21:21:51Z</time></trkpt>
<trkpt lat="48.3007640" lon="-1.8721630"><ele></ele><time>2017-12-15T21:21:54Z</time></trkpt>
<trkpt lat="48.3007370" lon="-1.8721510"><ele></ele><time>2017-12-15T21:21:57Z</time></trkpt>
<trkpt lat="48.3007090" lon="-1.8721500"><ele></ele><time>2017-12-15T21:22:0Z</time></trkpt>
<trkpt lat="48.3006800" lon="-1.8721540"><ele></ele><time>2017-12-15T21:22:3Z</time></trkpt>
<trkpt lat="48.3006470" lon="-1.8721480"><ele></ele><time>2017-12-15T21:22:6Z</time></trkpt>
<trkpt lat="48.3006110" lon="-1.8721450"><ele></ele><time>2017-12-15T21:22:9Z</time></trkpt>
<trkpt lat="48.3005650" lon="-1.8721480"><ele></ele><time>2017-12-15T21:22:12Z</time></trkpt>
<trkpt lat="48.3005160" lon="-1.8721580"><ele></ele><time>2017-12-15T21:22:15Z</time></trkpt>
<trkpt lat="48.3004810" lon="-1.8721480"><ele></ele><time>2017-12-15T21:22:18Z</time></trkpt>
<trkpt lat="48.3004450" lon="-1.8721270"><ele></ele><time>2017-12-15T21:22:21Z</time></trkpt>
<trkpt lat="48.3004020" lon="-1.8721090"><ele></ele><time>2017-12-15T21:22:24Z</time></trkpt>
<trkpt lat="48.3003660" lon="-1.8720680"><ele></ele><time>2017-12-15T21:22:27Z</time></trkpt>
<trkpt lat="48.3003400" lon="-1.8720370"><ele></ele><time>2017-12-15T21:22:30Z</time></trkpt>
<trkpt lat="48.3003160" lon="-1.8720120"><ele></ele><time>2017-12-15T21:22:33Z</time></trkpt>
<trkpt lat="48.3002890" lon="-1.8720000"><ele></ele><time>2017-12-15T21:22:36Z</time></trkpt>
<trkpt lat="48.3002590" lon="-1.8719790"><ele></ele><time>2017-12-15T21:22:39Z</time></trkpt>
<trkpt lat="48.3002200" lon="-1.8719600"><ele></ele><time>2017-12-15T21:22:42Z</time></trkpt>
<trkpt lat="48.3001730" lon="-1.8719470"><ele></ele><time>2017-12-15T21:22:45Z</time></trkpt>
<trkpt lat="48.3001280" lon="-1.8719570"><ele></ele><time>2017-12-15T21:22:48Z</time></trkpt>
<trkpt lat="48.3000740" lon="-1.8719360"><ele></ele><time>2017-12-15T21:22:51Z</time></trkpt>
<trkpt lat="48.3000470" lon="-1.8719260"><ele></ele><time>2017-12-15T21:22:54Z</time></trkpt>
<trkpt lat="48.3000030" lon="-1.8719080"><ele></ele><time>2017-12-15T21:22:57Z</time></trkpt>
<trkpt lat="48.2999360" lon="-1.8718840"><ele></ele><time>2017-12-15T21:23:0Z</time></trkpt>
<trkpt lat="48.2998940" lon="-1.8718810"><ele></ele><time>2017-12-15T21:23:3Z</time></trkpt>
<trkpt lat="48.2998680" lon="-1.8718960"><ele></ele><time>2017-12-15T21:23:6Z</time></trkpt>
<trkpt lat="48.2998370" lon="-1.8719000"><ele></ele><time>2017-12-15T21:23:9Z</time></trkpt>
<trkpt lat="48.2998030" lon="-1.8719100"><ele></ele><time>2017-12-15T21:23:12Z</time></trkpt>
<trkpt lat="48.2997640" lon="-1.8719230"><ele></ele><time>2017-12-15T21:23:15Z</time></trkpt>
<trkpt lat="48.2997190" lon="-1.8719310"><ele></ele><time>2017-12-15T21:23:18Z</time></trkpt>
<trkpt lat="48.2996890" lon="-1.8719370"><ele></ele><time>2017-12-15T21:23:21Z</time></trkpt>
<trkpt lat="48.2996520" lon="-1.8719240"><ele></ele><time>2017-12-15T21:23:24Z</time></trkpt>
<trkpt lat="48.2996080" lon="-1.8719240"><ele></ele><time>2017-12-15T21:23:27Z</time></trkpt>
<trkpt lat="48.2995620" lon="-1.8719270"><ele></ele><time>2017-12-15T21:23:30Z</time></trkpt>
<trkpt lat="48.2995190" lon="-1.8719450"><ele></ele><time>2017-12-15T21:23:33Z</time></trkpt>
<trkpt lat="48.2995180" lon="-1.8720180"><ele></ele><time>2017-12-15T21:23:36Z</time></trkpt>
<trkpt lat="48.2995250" lon="-1.8720940"><ele></ele><time>2017-12-15T21:23:39Z</time></trkpt>
<trkpt lat="48.2995250" lon="-1.8721780"><ele></ele><time>2017-12-15T21:23:42Z</time></trkpt>
<trkpt lat="48.2995300" lon="-1.8722250"><ele></ele><time>2017-12-15T21:23:45Z</time></trkpt>
<trkpt lat="48.2995390" lon="-1.8722720"><ele></ele><time>2017-12-15T21:23:48Z</time></trkpt>
<trkpt lat="48.2995440" lon="-1.8723240"><ele></ele><time>2017-12-15T21:23:51Z</time></trkpt>
<trkpt lat="48.2995510" lon="-1.8723800"><ele></ele><time>2017-12-15T21:23:54Z</time></trkpt>
<trkpt lat="48.2995570" lon="-1.8724380"><ele></ele><time>2017-12-15T21:23:57Z</time></trkpt>
<trkpt lat="48.2995620" lon="-1.8725010"><ele></ele><time>2017-12-15T21:24:0Z</time></trkpt>
<trkpt lat="48.2995650" lon="-1.8725650"><ele></ele><time>2017-12-15T21:24:3Z</time></trkpt>
<trkpt lat="48.2995720" lon="-1.8726300"><ele></ele><time>2017-12-15T21:24:6Z</time></trkpt>
<trkpt lat="48.2995810" lon="-1.8726960"><ele></ele><time>2017-12-15T21:24:9Z</time></trkpt>
<trkpt lat="48.2995910" lon="-1.8727570"><ele></ele><time>2017-12-15T21:24:12Z</time></trkpt>
<trkpt lat="48.2995960" lon="-1.8728230"><ele></ele><time>2017-12-15T21:24:15Z</time></trkpt>
<trkpt lat="48.2996000" lon="-1.8728890"><ele></ele><time>2017-12-15T21:24:18Z</time></trkpt>
<trkpt lat="48.2996050" lon="-1.8729590"><ele></ele><time>2017-12-15T21:24:21Z</time></trkpt>
<trkpt lat="48.2996090" lon="-1.8730350"><ele></ele><time>2017-12-15T21:24:24Z</time></trkpt>
<trkpt lat="48.2996090" lon="-1.8731130"><ele></ele><time>2017-12-15T21:24:27Z</time></trkpt>
<trkpt lat="48.2996110" lon="-1.8731890"><ele></ele><time>2017-12-15T21:24:30Z</time></trkpt>
<trkpt lat="48.2996060" lon="-1.8732610"><ele></ele><time>2017-12-15T21:24:33Z</time></trkpt>
<trkpt lat="48.2996000" lon="-1.8733440"><ele></ele><time>2017-12-15T21:24:36Z</time></trkpt>
<trkpt lat="48.2996000" lon="-1.8734010"><ele></ele><time>2017-12-15T21:24:39Z</time></trkpt>
<trkpt lat="48.2996050" lon="-1.8734590"><ele></ele><time>2017-12-15T21:24:42Z</time></trkpt>
<trkpt lat="48.2996110" lon="-1.8735130"><ele></ele><time>2017-12-15T21:24:45Z</time></trkpt>
<trkpt lat="48.2996160" lon="-1.8735610"><ele></ele><time>2017-12-15T21:24:48Z</time></trkpt>
<trkpt lat="48.2996250" lon="-1.8736090"><ele></ele><time>2017-12-15T21:24:51Z</time></trkpt>
<trkpt lat="48.2995970" lon="-1.8736310"><ele></ele><time>2017-12-15T21:24:54Z</time></trkpt>
<trkpt lat="48.2995790" lon="-1.8736760"><ele></ele><time>2017-12-15T21:24:57Z</time></trkpt>
<trkpt lat="48.2995680" lon="-1.8737130"><ele></ele><time>2017-12-15T21:25:0Z</time></trkpt>
<trkpt lat="48.2995660" lon="-1.8737550"><ele></ele><time>2017-12-15T21:25:3Z</time></trkpt>
<trkpt lat="48.2995760" lon="-1.8737100"><ele></ele><time>2017-12-15T21:25:6Z</time></trkpt>
<trkpt lat="48.2995760" lon="-1.8737550"><ele></ele><time>2017-12-15T21:25:9Z</time></trkpt>
<trkpt lat="48.2995580" lon="-1.8737230"><ele></ele><time>2017-12-15T21:25:12Z</time></trkpt>
<trkpt lat="48.2995640" lon="-1.8737690"><ele></ele><time>2017-12-15T21:25:15Z</time></trkpt>
<trkpt lat="48.2995570" lon="-1.8737280"><ele></ele><time>2017-12-15T21:25:18Z</time></trkpt>
<trkpt lat="48.2995800" lon="-1.8736900"><ele></ele><time>2017-12-15T21:25:21Z</time></trkpt>
<trkpt lat="48.2995890" lon="-1.8736410"><ele></ele><time>2017-12-15T21:25:24Z</time></trkpt>
<trkpt lat="48.2995650" lon="-1.8736710"><ele></ele><time>2017-12-15T21:25:27Z</time></trkpt>
<trkpt lat="48.2995460" lon="-1.8737170"><ele></ele><time>2017-12-15T21:25:30Z</time></trkpt>
<trkpt lat="48.2995190" lon="-1.8737870"><ele></ele><time>2017-12-15T21:25:33Z</time></trkpt>
<trkpt lat="48.2995010" lon="-1.8738250"><ele></ele><time>2017-12-15T21:25:36Z</time></trkpt>
<trkpt lat="48.2994830" lon="-1.8738580"><ele></ele><time>2017-12-15T21:25:39Z</time></trkpt>
<trkpt lat="48.2994610" lon="-1.8738850"><ele></ele><time>2017-12-15T21:25:42Z</time></trkpt>
<trkpt lat="48.2994380" lon="-1.8739180"><ele></ele><time>2017-12-15T21:25:45Z</time></trkpt>
<trkpt lat="48.2994140" lon="-1.8739510"><ele></ele><time>2017-12-15T21:25:48Z</time></trkpt>
<trkpt lat="48.2993910" lon="-1.8739900"><ele></ele><time>2017-12-15T21:25:51Z</time></trkpt>
<trkpt lat="48.2993490" lon="-1.8740340"><ele></ele><time>2017-12-15T21:25:54Z</time></trkpt>
<trkpt lat="48.2993300" lon="-1.8740670"><ele></ele><time>2017-12-15T21:25:57Z</time></trkpt>
<trkpt lat="48.2993040" lon="-1.8740960"><ele></ele><time>2017-12-15T21:26:0Z</time></trkpt>
<trkpt lat="48.2992760" lon="-1.8741290"><ele></ele><time>2017-12-15T21:26:3Z</time></trkpt>
<trkpt lat="48.2992520" lon="-1.8741610"><ele></ele><time>2017-12-15T21:26:6Z</time></trkpt>
<trkpt lat="48.2992290" lon="-1.8741910"><ele></ele><time>2017-12-15T21:26:9Z</time></trkpt>
<trkpt lat="48.2991990" lon="-1.8742190"><ele></ele><time>2017-12-15T21:26:12Z</time></trkpt>
<trkpt lat="48.2991660" lon="-1.8742490"><ele></ele><time>2017-12-15T21:26:15Z</time></trkpt>
<trkpt lat="48.2991310" lon="-1.8742750"><ele></ele><time>2017-12-15T21:26:18Z</time></trkpt>
<trkpt lat="48.2990980" lon="-1.8743010"><ele></ele><time>2017-12-15T21:26:21Z</time></trkpt>
<trkpt lat="48.2990690" lon="-1.8743270"><ele></ele><time>2017-12-15T21:26:24Z</time></trkpt>
<trkpt lat="48.2990160" lon="-1.8743700"><ele></ele><time>2017-12-15T21:26:27Z</time></trkpt>
<trkpt lat="48.2989820" lon="-1.8743880"><ele></ele><time>2017-12-15T21:26:30Z</time></trkpt>
<trkpt lat="48.2989550" lon="-1.8744000"><ele></ele><time>2017-12-15T21:26:33Z</time></trkpt>
<trkpt lat="48.2989220" lon="-1.8744130"><ele></ele><time>2017-12-15T21:26:36Z</time></trkpt>
<trkpt lat="48.2988900" lon="-1.8744260"><ele></ele><time>2017-12-15T21:26:39Z</time></trkpt>
<trkpt lat="48.2988580" lon="-1.8744380"><ele></ele><time>2017-12-15T21:26:42Z</time></trkpt>
<trkpt lat="48.2988250" lon="-1.8744540"><ele></ele><time>2017-12-15T21:26:45Z</time></trkpt>
<trkpt lat="48.2987930" lon="-1.8744690"><ele></ele><time>2017-12-15T21:26:48Z</time></trkpt>
<trkpt lat="48.2987610" lon="-1.8744860"><ele></ele><time>2017-12-15T21:26:51Z</time></trkpt>
<trkpt lat="48.2987300" lon="-1.8744990"><ele></ele><time>2017-12-15T21:26:54Z</time></trkpt>
<trkpt lat="48.2987030" lon="-1.8745100"><ele></ele><time>2017-12-15T21:26:57Z</time></trkpt>
<trkpt lat="48.2986740" lon="-1.8745240"><ele></ele><time>2017-12-15T21:27:0Z</time></trkpt>
<trkpt lat="48.2986460" lon="-1.8745350"><ele></ele><time>2017-12-15T21:27:3Z</time></trkpt>
<trkpt lat="48.2985940" lon="-1.8745560"><ele></ele><time>2017-12-15T21:27:6Z</time></trkpt>
<trkpt lat="48.2985440" lon="-1.8745800"><ele></ele><time>2017-12-15T21:27:9Z</time></trkpt>
<trkpt lat="48.2985180" lon="-1.8745930"><ele></ele><time>2017-12-15T21:27:12Z</time></trkpt>
<trkpt lat="48.2984920" lon="-1.8746120"><ele></ele><time>2017-12-15T21:27:15Z</time></trkpt>
<trkpt lat="48.2984650" lon="-1.8746350"><ele></ele><time>2017-12-15T21:27:18Z</time></trkpt>
<trkpt lat="48.2984380" lon="-1.8746560"><ele></ele><time>2017-12-15T21:27:21Z</time></trkpt>
<trkpt lat="48.2984130" lon="-1.8746760"><ele></ele><time>2017-12-15T21:27:24Z</time></trkpt>
<trkpt lat="48.2983850" lon="-1.8746940"><ele></ele><time>2017-12-15T21:27:27Z</time></trkpt>
<trkpt lat="48.2983390" lon="-1.8747300"><ele></ele><time>2017-12-15T21:27:30Z</time></trkpt>
<trkpt lat="48.2982920" lon="-1.8747650"><ele></ele><time>2017-12-15T21:27:33Z</time></trkpt>
<trkpt lat="48.2982460" lon="-1.8747990"><ele></ele><time>2017-12-15T21:27:36Z</time></trkpt>
<trkpt lat="48.2982210" lon="-1.8748180"><ele></ele><time>2017-12-15T21:27:39Z</time></trkpt>
<trkpt lat="48.2981850" lon="-1.8748530"><ele></ele><time>2017-12-15T21:27:42Z</time></trkpt>
<trkpt lat="48.2981550" lon="-1.8748620"><ele></ele><time>2017-12-15T21:27:45Z</time></trkpt>
<trkpt lat="48.2981280" lon="-1.8748720"><ele></ele><time>2017-12-15T21:27:48Z</time></trkpt>
<trkpt lat="48.2980850" lon="-1.8748860"><ele></ele><time>2017-12-15T21:27:51Z</time></trkpt>
<trkpt lat="48.2980430" lon="-1.8749000"><ele></ele><time>2017-12-15T21:27:54Z</time></trkpt>
<trkpt lat="48.2980180" lon="-1.8749170"><ele></ele><time>2017-12-15T21:27:57Z</time></trkpt>
<trkpt lat="48.2979860" lon="-1.8749460"><ele></ele><time>2017-12-15T21:28:0Z</time></trkpt>
<trkpt lat="48.2979530" lon="-1.8749840"><ele></ele><time>2017-12-15T21:28:3Z</time></trkpt>
<trkpt lat="48.2978960" lon="-1.8749910"><ele></ele><time>2017-12-15T21:28:6Z</time></trkpt>
<trkpt lat="48.2978480" lon="-1.8750150"><ele></ele><time>2017-12-15T21:28:9Z</time></trkpt>
<trkpt lat="48.2978150" lon="-1.8750360"><ele></ele><time>2017-12-15T21:28:12Z</time></trkpt>
<trkpt lat="48.2977850" lon="-1.8750290"><ele></ele><time>2017-12-15T21:28:15Z</time></trkpt>
<trkpt lat="48.2977500" lon="-1.8750180"><ele></ele><time>2017-12-15T21:28:18Z</time></trkpt>
<trkpt lat="48.2976870" lon="-1.8749790"><ele></ele><time>2017-12-15T21:28:21Z</time></trkpt>
<trkpt lat="48.2976370" lon="-1.8749730"><ele></ele><time>2017-12-15T21:28:24Z</time></trkpt>
<trkpt lat="48.2976030" lon="-1.8749650"><ele></ele><time>2017-12-15T21:28:27Z</time></trkpt>
<trkpt lat="48.2975690" lon="-1.8749500"><ele></ele><time>2017-12-15T21:28:30Z</time></trkpt>
<trkpt lat="48.2975400" lon="-1.8749460"><ele></ele><time>2017-12-15T21:28:33Z</time></trkpt>
<trkpt lat="48.2975050" lon="-1.8749310"><ele></ele><time>2017-12-15T21:28:36Z</time></trkpt>
<trkpt lat="48.2974700" lon="-1.8749100"><ele></ele><time>2017-12-15T21:28:39Z</time></trkpt>
<trkpt lat="48.2974240" lon="-1.8749140"><ele></ele><time>2017-12-15T21:28:42Z</time></trkpt>
<trkpt lat="48.2973650" lon="-1.8748770"><ele></ele><time>2017-12-15T21:28:45Z</time></trkpt>
<trkpt lat="48.2973330" lon="-1.8748870"><ele></ele><time>2017-12-15T21:28:48Z</time></trkpt>
<trkpt lat="48.2972890" lon="-1.8748620"><ele></ele><time>2017-12-15T21:28:51Z</time></trkpt>
<trkpt lat="48.2972540" lon="-1.8748330"><ele></ele><time>2017-12-15T21:28:54Z</time></trkpt>
<trkpt lat="48.2972210" lon="-1.8748070"><ele></ele><time>2017-12-15T21:28:57Z</time></trkpt>
<trkpt lat="48.2971900" lon="-1.8747970"><ele></ele><time>2017-12-15T21:29:0Z</time></trkpt>
<trkpt lat="48.2971370" lon="-1.8747800"><ele></ele><time>2017-12-15T21:29:3Z</time></trkpt>
<trkpt lat="48.2971040" lon="-1.8747770"><ele></ele><time>2017-12-15T21:29:6Z</time></trkpt>
<trkpt lat="48.2970690" lon="-1.8747680"><ele></ele><time>2017-12-15T21:29:9Z</time></trkpt>
<trkpt lat="48.2970400" lon="-1.8747660"><ele></ele><time>2017-12-15T21:29:12Z</time></trkpt>
<trkpt lat="48.2970000" lon="-1.8747570"><ele></ele><time>2017-12-15T21:29:15Z</time></trkpt>
<trkpt lat="48.2969550" lon="-1.8747540"><ele></ele><time>2017-12-15T21:29:18Z</time></trkpt>
<trkpt lat="48.2969290" lon="-1.8747960"><ele></ele><time>2017-12-15T21:29:21Z</time></trkpt>
<trkpt lat="48.2969000" lon="-1.8748010"><ele></ele><time>2017-12-15T21:29:24Z</time></trkpt>
<trkpt lat="48.2968570" lon="-1.8748130"><ele></ele><time>2017-12-15T21:29:27Z</time></trkpt>
<trkpt lat="48.2968130" lon="-1.8748180"><ele></ele><time>2017-12-15T21:29:30Z</time></trkpt>
<trkpt lat="48.2967820" lon="-1.8748140"><ele></ele><time>2017-12-15T21:29:33Z</time></trkpt>
<trkpt lat="48.2967450" lon="-1.8748330"><ele></ele><time>2017-12-15T21:29:36Z</time></trkpt>
<trkpt lat="48.2967080" lon="-1.8748620"><ele></ele><time>2017-12-15T21:29:39Z</time></trkpt>
<trkpt lat="48.2966750" lon="-1.8748540"><ele></ele><time>2017-12-15T21:29:42Z</time></trkpt>
<trkpt lat="48.2966280" lon="-1.8748610"><ele></ele><time>2017-12-15T21:29:45Z</time></trkpt>
<trkpt lat="48.2966010" lon="-1.8748610"><ele></ele><time>2017-12-15T21:29:48Z</time></trkpt>
<trkpt lat="48.2965680" lon="-1.8748930"><ele></ele><time>2017-12-15T21:29:51Z</time></trkpt>
<trkpt lat="48.2965350" lon="-1.8749040"><ele></ele><time>2017-12-15T21:29:54Z</time></trkpt>
<trkpt lat="48.2964950" lon="-1.8749180"><ele></ele><time>2017-12-15T21:29:57Z</time></trkpt>
<trkpt lat="48.2964630" lon="-1.8749130"><ele></ele><time>2017-12-15T21:30:0Z</time></trkpt>
<trkpt lat="48.2964340" lon="-1.8749110"><ele></ele><time>2017-12-15T21:30:3Z</time></trkpt>
<trkpt lat="48.2963800" lon="-1.8749270"><ele></ele><time>2017-12-15T21:30:6Z</time></trkpt>
<trkpt lat="48.2963240" lon="-1.8749270"><ele></ele><time>2017-12-15T21:30:9Z</time></trkpt>
<trkpt lat="48.2962800" lon="-1.8749370"><ele></ele><time>2017-12-15T21:30:12Z</time></trkpt>
<trkpt lat="48.2962530" lon="-1.8749460"><ele></ele><time>2017-12-15T21:30:15Z</time></trkpt>
<trkpt lat="48.2962270" lon="-1.8749570"><ele></ele><time>2017-12-15T21:30:18Z</time></trkpt>
<trkpt lat="48.2961990" lon="-1.8749610"><ele></ele><time>2017-12-15T21:30:21Z</time></trkpt>
<trkpt lat="48.2961600" lon="-1.8749570"><ele></ele><time>2017-12-15T21:30:24Z</time></trkpt>
<trkpt lat="48.2961460" lon="-1.8749980"><ele></ele><time>2017-12-15T21:30:27Z</time></trkpt>
<trkpt lat="48.2961140" lon="-1.8750420"><ele></ele><time>2017-12-15T21:30:30Z</time></trkpt>
<trkpt lat="48.2960740" lon="-1.8750770"><ele></ele><time>2017-12-15T21:30:33Z</time></trkpt>
<trkpt lat="48.2960440" lon="-1.8751160"><ele></ele><time>2017-12-15T21:30:36Z</time></trkpt>
<trkpt lat="48.2960160" lon="-1.8751360"><ele></ele><time>2017-12-15T21:30:39Z</time></trkpt>
<trkpt lat="48.2959850" lon="-1.8751540"><ele></ele><time>2017-12-15T21:30:42Z</time></trkpt>
<trkpt lat="48.2959580" lon="-1.8751650"><ele></ele><time>2017-12-15T21:30:45Z</time></trkpt>
<trkpt lat="48.2959610" lon="-1.8752150"><ele></ele><time>2017-12-15T21:30:48Z</time></trkpt>
<trkpt lat="48.2959680" lon="-1.8752660"><ele></ele><time>2017-12-15T21:30:51Z</time></trkpt>
<trkpt lat="48.2959850" lon="-1.8753250"><ele></ele><time>2017-12-15T21:30:54Z</time></trkpt>
<trkpt lat="48.2960120" lon="-1.8753900"><ele></ele><time>2017-12-15T21:30:57Z</time></trkpt>
<trkpt lat="48.2960210" lon="-1.8754290"><ele></ele><time>2017-12-15T21:31:0Z</time></trkpt>
<trkpt lat="48.2960390" lon="-1.8754690"><ele></ele><time>2017-12-15T21:31:3Z</time></trkpt>
<trkpt lat="48.2960690" lon="-1.8755380"><ele></ele><time>2017-12-15T21:31:6Z</time></trkpt>
<trkpt lat="48.2960890" lon="-1.8755700"><ele></ele><time>2017-12-15T21:31:9Z</time></trkpt>
<trkpt lat="48.2961070" lon="-1.8756120"><ele></ele><time>2017-12-15T21:31:12Z</time></trkpt>
<trkpt lat="48.2961280" lon="-1.8756560"><ele></ele><time>2017-12-15T21:31:15Z</time></trkpt>
<trkpt lat="48.2961500" lon="-1.8757000"><ele></ele><time>2017-12-15T21:31:18Z</time></trkpt>
<trkpt lat="48.2961640" lon="-1.8757580"><ele></ele><time>2017-12-15T21:31:21Z</time></trkpt>
<trkpt lat="48.2961890" lon="-1.8758020"><ele></ele><time>2017-12-15T21:31:24Z</time></trkpt>
<trkpt lat="48.2962140" lon="-1.8758700"><ele></ele><time>2017-12-15T21:31:27Z</time></trkpt>
<trkpt lat="48.2962380" lon="-1.8759190"><ele></ele><time>2017-12-15T21:31:30Z</time></trkpt>
<trkpt lat="48.2962690" lon="-1.8759650"><ele></ele><time>2017-12-15T21:31:33Z</time></trkpt>
<trkpt lat="48.2963030" lon="-1.8760030"><ele></ele><time>2017-12-15T21:31:36Z</time></trkpt>
<trkpt lat="48.2963330" lon="-1.8760380"><ele></ele><time>2017-12-15T21:31:39Z</time></trkpt>
<trkpt lat="48.2963700" lon="-1.8760750"><ele></ele><time>2017-12-15T21:31:42Z</time></trkpt>
<trkpt lat="48.2964050" lon="-1.8761240"><ele></ele><time>2017-12-15T21:31:45Z</time></trkpt>
<trkpt lat="48.2964400" lon="-1.8761780"><ele></ele><time>2017-12-15T21:31:48Z</time></trkpt>
<trkpt lat="48.2964780" lon="-1.8762310"><ele></ele><time>2017-12-15T21:31:51Z</time></trkpt>
<trkpt lat="48.2965040" lon="-1.8762970"><ele></ele><time>2017-12-15T21:31:54Z</time></trkpt>
<trkpt lat="48.2965200" lon="-1.8763400"><ele></ele><time>2017-12-15T21:31:57Z</time></trkpt>
<trkpt lat="48.2965430" lon="-1.8763900"><ele></ele><time>2017-12-15T21:32:0Z</time></trkpt>
<trkpt lat="48.2965560" lon="-1.8764500"><ele></ele><time>2017-12-15T21:32:3Z</time></trkpt>
<trkpt lat="48.2965560" lon="-1.8765090"><ele></ele><time>2017-12-15T21:32:6Z</time></trkpt>
<trkpt lat="48.2965570" lon="-1.8765670"><ele></ele><time>2017-12-15T21:32:9Z</time></trkpt>
<trkpt lat="48.2965680" lon="-1.8766210"><ele></ele><time>2017-12-15T21:32:12Z</time></trkpt>
<trkpt lat="48.2965770" lon="-1.8766680"><ele></ele><time>2017-12-15T21:32:15Z</time></trkpt>
<trkpt lat="48.2965890" lon="-1.8767230"><ele></ele><time>2017-12-15T21:32:18Z</time></trkpt>
<trkpt lat="48.2966000" lon="-1.8767710"><ele></ele><time>2017-12-15T21:32:21Z</time></trkpt>
<trkpt lat="48.2966140" lon="-1.8768170"><ele></ele><time>2017-12-15T21:32:24Z</time></trkpt>
<trkpt lat="48.2966280" lon="-1.8768600"><ele></ele><time>2017-12-15T21:32:27Z</time></trkpt>
<trkpt lat="48.2966360" lon="-1.8769060"><ele></ele><time>2017-12-15T21:32:30Z</time></trkpt>
<trkpt lat="48.2966380" lon="-1.8769550"><ele></ele><time>2017-12-15T21:32:33Z</time></trkpt>
<trkpt lat="48.2966440" lon="-1.8770020"><ele></ele><time>2017-12-15T21:32:36Z</time></trkpt>
<trkpt lat="48.2966320" lon="-1.8770470"><ele></ele><time>2017-12-15T21:32:39Z</time></trkpt>
<trkpt lat="48.2966220" lon="-1.8770870"><ele></ele><time>2017-12-15T21:32:42Z</time></trkpt>
<trkpt lat="48.2966060" lon="-1.8771250"><ele></ele><time>2017-12-15T21:32:45Z</time></trkpt>
<trkpt lat="48.2965890" lon="-1.8771640"><ele></ele><time>2017-12-15T21:32:48Z</time></trkpt>
<trkpt lat="48.2965610" lon="-1.8772280"><ele></ele><time>2017-12-15T21:32:51Z</time></trkpt>
<trkpt lat="48.2965460" lon="-1.8772630"><ele></ele><time>2017-12-15T21:32:54Z</time></trkpt>
<trkpt lat="48.2965240" lon="-1.8773380"><ele></ele><time>2017-12-15T21:32:57Z</time></trkpt>
<trkpt lat="48.2965080" lon="-1.8773740"><ele></ele><time>2017-12-15T21:33:0Z</time></trkpt>
<trkpt lat="48.2964830" lon="-1.8774370"><ele></ele><time>2017-12-15T21:33:3Z</time></trkpt>
<trkpt lat="48.2964560" lon="-1.8774950"><ele></ele><time>2017-12-15T21:33:6Z</time></trkpt>
<trkpt lat="48.2964260" lon="-1.8775510"><ele></ele><time>2017-12-15T21:33:9Z</time></trkpt>
<trkpt lat="48.2964000" lon="-1.8776090"><ele></ele><time>2017-12-15T21:33:12Z</time></trkpt>
<trkpt lat="48.2963740" lon="-1.8776600"><ele></ele><time>2017-12-15T21:33:15Z</time></trkpt>
<trkpt lat="48.2963440" lon="-1.8777070"><ele></ele><time>2017-12-15T21:33:18Z</time></trkpt>
<trkpt lat="48.2963120" lon="-1.8777480"><ele></ele><time>2017-12-15T21:33:21Z</time></trkpt>
<trkpt lat="48.2962900" lon="-1.8777950"><ele></ele><time>2017-12-15T21:33:24Z</time></trkpt>
<trkpt lat="48.2962780" lon="-1.8778540"><ele></ele><time>2017-12-15T21:33:27Z</time></trkpt>
<trkpt lat="48.2962620" lon="-1.8779130"><ele></ele><time>2017-12-15T21:33:30Z</time></trkpt>
<trkpt lat="48.2962540" lon="-1.8779760"><ele></ele><time>2017-12-15T21:33:33Z</time></trkpt>
<trkpt lat="48.2962430" lon="-1.8780290"><ele></ele><time>2017-12-15T21:33:36Z</time></trkpt>
<trkpt lat="48.2962320" lon="-1.8780950"><ele></ele><time>2017-12-15T21:33:39Z</time></trkpt>
<trkpt lat="48.2962250" lon="-1.8781640"><ele></ele><time>2017-12-15T21:33:42Z</time></trkpt>
<trkpt lat="48.2962110" lon="-1.8782320"><ele></ele><time>2017-12-15T21:33:45Z</time></trkpt>
<trkpt lat="48.2961940" lon="-1.8782960"><ele></ele><time>2017-12-15T21:33:48Z</time></trkpt>
<trkpt lat="48.2961710" lon="-1.8783560"><ele></ele><time>2017-12-15T21:33:51Z</time></trkpt>
<trkpt lat="48.2961490" lon="-1.8784120"><ele></ele><time>2017-12-15T21:33:54Z</time></trkpt>
<trkpt lat="48.2961280" lon="-1.8784680"><ele></ele><time>2017-12-15T21:33:57Z</time></trkpt>
<trkpt lat="48.2961050" lon="-1.8785180"><ele></ele><time>2017-12-15T21:34:0Z</time></trkpt>
<trkpt lat="48.2960810" lon="-1.8785680"><ele></ele><time>2017-12-15T21:34:3Z</time></trkpt>
<trkpt lat="48.2960610" lon="-1.8786060"><ele></ele><time>2017-12-15T21:34:6Z</time></trkpt>
<trkpt lat="48.2960450" lon="-1.8786600"><ele></ele><time>2017-12-15T21:34:9Z</time></trkpt>
<trkpt lat="48.2960250" lon="-1.8787170"><ele></ele><time>2017-12-15T21:34:12Z</time></trkpt>
<trkpt lat="48.2960040" lon="-1.8787690"><ele></ele><time>2017-12-15T21:34:15Z</time></trkpt>
<trkpt lat="48.2959930" lon="-1.8788240"><ele></ele><time>2017-12-15T21:34:18Z</time></trkpt>
<trkpt lat="48.2960050" lon="-1.8788700"><ele></ele><time>2017-12-15T21:34:21Z</time></trkpt>
<trkpt lat="48.2960250" lon="-1.8789020"><ele></ele><time>2017-12-15T21:34:24Z</time></trkpt>
<trkpt lat="48.2960520" lon="-1.8789450"><ele></ele><time>2017-12-15T21:34:27Z</time></trkpt>
<trkpt lat="48.2960750" lon="-1.8790000"><ele></ele><time>2017-12-15T21:34:30Z</time></trkpt>
<trkpt lat="48.2961000" lon="-1.8790380"><ele></ele><time>2017-12-15T21:34:33Z</time></trkpt>
<trkpt lat="48.2961130" lon="-1.8790820"><ele></ele><time>2017-12-15T21:34:36Z</time></trkpt>
<trkpt lat="48.2961550" lon="-1.8791420"><ele></ele><time>2017-12-15T21:34:39Z</time></trkpt>
<trkpt lat="48.2961740" lon="-1.8791840"><ele></ele><time>2017-12-15T21:34:42Z</time></trkpt>
<trkpt lat="48.2962020" lon="-1.8792240"><ele></ele><time>2017-12-15T21:34:45Z</time></trkpt>
<trkpt lat="48.2962380" lon="-1.8792450"><ele></ele><time>2017-12-15T21:34:48Z</time></trkpt>
<trkpt lat="48.2962560" lon="-1.8792900"><ele></ele><time>2017-12-15T21:34:51Z</time></trkpt>
<trkpt lat="48.2962980" lon="-1.8793350"><ele></ele><time>2017-12-15T21:34:54Z</time></trkpt>
<trkpt lat="48.2963280" lon="-1.8793740"><ele></ele><time>2017-12-15T21:34:57Z</time></trkpt>
<trkpt lat="48.2963520" lon="-1.8793990"><ele></ele><time>2017-12-15T21:35:0Z</time></trkpt>
<trkpt lat="48.2963870" lon="-1.8794430"><ele></ele><time>2017-12-15T21:35:3Z</time></trkpt>
<trkpt lat="48.2963910" lon="-1.8794900"><ele></ele><time>2017-12-15T21:35:6Z</time></trkpt>
<trkpt lat="48.2964170" lon="-1.8795230"><ele></ele><time>2017-12-15T21:35:9Z</time></trkpt>
<trkpt lat="48.2964330" lon="-1.8795600"><ele></ele><time>2017-12-15T21:35:12Z</time></trkpt>
<trkpt lat="48.2964540" lon="-1.8795940"><ele></ele><time>2017-12-15T21:35:15Z</time></trkpt>
<trkpt lat="48.2964770" lon="-1.8796210"><ele></ele><time>2017-12-15T21:35:18Z</time></trkpt>
<trkpt lat="48.2965190" lon="-1.8796120"><ele></ele><time>2017-12-15T21:35:21Z</time></trkpt>
<trkpt lat="48.2965140" lon="-1.8794660"><ele></ele><time>2017-12-15T21:35:24Z</time></trkpt>
<trkpt lat="48.2964900" lon="-1.8793880"><ele></ele><time>2017-12-15T21:35:27Z</time></trkpt>
<trkpt lat="48.2964900" lon="-1.8793030"><ele></ele><time>2017-12-15T21:35:30Z</time></trkpt>
<trkpt lat="48.2964760" lon="-1.8792200"><ele></ele><time>2017-12-15T21:35:33Z</time></trkpt>
<trkpt lat="48.2964670" lon="-1.8791370"><ele></ele><time>2017-12-15T21:35:36Z</time></trkpt>
<trkpt lat="48.2964630" lon="-1.8790560"><ele></ele><time>2017-12-15T21:35:39Z</time></trkpt>
<trkpt lat="48.2964820" lon="-1.8789710"><ele></ele><time>2017-12-15T21:35:42Z</time></trkpt>
<trkpt lat="48.2965210" lon="-1.8788950"><ele></ele><time>2017-12-15T21:35:45Z</time></trkpt>
<trkpt lat="48.2965750" lon="-1.8788310"><ele></ele><time>2017-12-15T21:35:48Z</time></trkpt>
<trkpt lat="48.2966280" lon="-1.8787610"><ele></ele><time>2017-12-15T21:35:51Z</time></trkpt>
<trkpt lat="48.2966890" lon="-1.8786930"><ele></ele><time>2017-12-15T21:35:54Z</time></trkpt>
<trkpt lat="48.2967510" lon="-1.8786260"><ele></ele><time>2017-12-15T21:35:57Z</time></trkpt>
<trkpt lat="48.2968100" lon="-1.8785590"><ele></ele><time>2017-12-15T21:36:0Z</time></trkpt>
<trkpt lat="48.2968680" lon="-1.8784900"><ele></ele><time>2017-12-15T21:36:3Z</time></trkpt>
<trkpt lat="48.2969380" lon="-1.8784120"><ele></ele><time>2017-12-15T21:36:6Z</time></trkpt>
<trkpt lat="48.2970020" lon="-1.8783380"><ele></ele><time>2017-12-15T21:36:9Z</time></trkpt>
<trkpt lat="48.2970660" lon="-1.8782630"><ele></ele><time>2017-12-15T21:36:12Z</time></trkpt>
<trkpt lat="48.2971230" lon="-1.8781800"><ele></ele><time>2017-12-15T21:36:15Z</time></trkpt>
<trkpt lat="48.2971690" lon="-1.8780760"><ele></ele><time>2017-12-15T21:36:18Z</time></trkpt>
<trkpt lat="48.2972090" lon="-1.8779640"><ele></ele><time>2017-12-15T21:36:21Z</time></trkpt>
<trkpt lat="48.2972420" lon="-1.8778570"><ele></ele><time>2017-12-15T21:36:24Z</time></trkpt>
<trkpt lat="48.2972770" lon="-1.8777470"><ele></ele><time>2017-12-15T21:36:27Z</time></trkpt>
<trkpt lat="48.2973080" lon="-1.8776380"><ele></ele><time>2017-12-15T21:36:30Z</time></trkpt>
<trkpt lat="48.2973300" lon="-1.8775480"><ele></ele><time>2017-12-15T21:36:33Z</time></trkpt>
<trkpt lat="48.2973490" lon="-1.8774910"><ele></ele><time>2017-12-15T21:36:36Z</time></trkpt>
<trkpt lat="48.2973870" lon="-1.8774880"><ele></ele><time>2017-12-15T21:36:39Z</time></trkpt>
<trkpt lat="48.2974290" lon="-1.8774940"><ele></ele><time>2017-12-15T21:36:42Z</time></trkpt>
<trkpt lat="48.2974660" lon="-1.8775080"><ele></ele><time>2017-12-15T21:36:45Z</time></trkpt>
<trkpt lat="48.2974950" lon="-1.8775510"><ele></ele><time>2017-12-15T21:36:48Z</time></trkpt>
<trkpt lat="48.2975270" lon="-1.8776020"><ele></ele><time>2017-12-15T21:36:51Z</time></trkpt>
<trkpt lat="48.2975630" lon="-1.8776640"><ele></ele><time>2017-12-15T21:36:54Z</time></trkpt>
<trkpt lat="48.2975950" lon="-1.8777020"><ele></ele><time>2017-12-15T21:36:57Z</time></trkpt>
<trkpt lat="48.2976470" lon="-1.8777360"><ele></ele><time>2017-12-15T21:37:0Z</time></trkpt>
<trkpt lat="48.2976860" lon="-1.8777820"><ele></ele><time>2017-12-15T21:37:3Z</time></trkpt>
<trkpt lat="48.2977220" lon="-1.8778070"><ele></ele><time>2017-12-15T21:37:6Z</time></trkpt>
<trkpt lat="48.2977480" lon="-1.8778690"><ele></ele><time>2017-12-15T21:37:9Z</time></trkpt>
<trkpt lat="48.2977730" lon="-1.8779340"><ele></ele><time>2017-12-15T21:37:12Z</time></trkpt>
<trkpt lat="48.2977890" lon="-1.8779830"><ele></ele><time>2017-12-15T21:37:15Z</time></trkpt>
<trkpt lat="48.2977980" lon="-1.8780310"><ele></ele><time>2017-12-15T21:37:18Z</time></trkpt>
<trkpt lat="48.2978100" lon="-1.8780730"><ele></ele><time>2017-12-15T21:37:21Z</time></trkpt>
<trkpt lat="48.2978120" lon="-1.8781170"><ele></ele><time>2017-12-15T21:37:24Z</time></trkpt>
<trkpt lat="48.2978240" lon="-1.8781890"><ele></ele><time>2017-12-15T21:37:27Z</time></trkpt>
<trkpt lat="48.2978280" lon="-1.8782670"><ele></ele><time>2017-12-15T21:37:30Z</time></trkpt>
<trkpt lat="48.2978310" lon="-1.8783560"><ele></ele><time>2017-12-15T21:37:33Z</time></trkpt>
<trkpt lat="48.2978410" lon="-1.8784050"><ele></ele><time>2017-12-15T21:37:36Z</time></trkpt>
<trkpt lat="48.2978430" lon="-1.8784680"><ele></ele><time>2017-12-15T21:37:39Z</time></trkpt>
<trkpt lat="48.2978430" lon="-1.8785430"><ele></ele><time>2017-12-15T21:37:42Z</time></trkpt>
<trkpt lat="48.2978590" lon="-1.8786010"><ele></ele><time>2017-12-15T21:37:45Z</time></trkpt>
<trkpt lat="48.2978760" lon="-1.8786700"><ele></ele><time>2017-12-15T21:37:48Z</time></trkpt>
<trkpt lat="48.2978940" lon="-1.8787290"><ele></ele><time>2017-12-15T21:37:51Z</time></trkpt>
<trkpt lat="48.2979170" lon="-1.8787920"><ele></ele><time>2017-12-15T21:37:54Z</time></trkpt>
<trkpt lat="48.2979350" lon="-1.8788510"><ele></ele><time>2017-12-15T21:37:57Z</time></trkpt>
<trkpt lat="48.2979590" lon="-1.8789080"><ele></ele><time>2017-12-15T21:38:0Z</time></trkpt>
<trkpt lat="48.2979770" lon="-1.8789570"><ele></ele><time>2017-12-15T21:38:3Z</time></trkpt>
<trkpt lat="48.2979980" lon="-1.8790130"><ele></ele><time>2017-12-15T21:38:6Z</time></trkpt>
<trkpt lat="48.2980360" lon="-1.8790760"><ele></ele><time>2017-12-15T21:38:9Z</time></trkpt>
<trkpt lat="48.2980650" lon="-1.8791370"><ele></ele><time>2017-12-15T21:38:12Z</time></trkpt>
<trkpt lat="48.2980970" lon="-1.8791760"><ele></ele><time>2017-12-15T21:38:15Z</time></trkpt>
<trkpt lat="48.2981170" lon="-1.8792080"><ele></ele><time>2017-12-15T21:38:18Z</time></trkpt>
<trkpt lat="48.2981490" lon="-1.8792570"><ele></ele><time>2017-12-15T21:38:21Z</time></trkpt>
<trkpt lat="48.2981910" lon="-1.8793070"><ele></ele><time>2017-12-15T21:38:24Z</time></trkpt>
<trkpt lat="48.2982180" lon="-1.8793450"><ele></ele><time>2017-12-15T21:38:27Z</time></trkpt>
<trkpt lat="48.2982490" lon="-1.8793840"><ele></ele><time>2017-12-15T21:38:30Z</time></trkpt>
<trkpt lat="48.2982750" lon="-1.8794120"><ele></ele><time>2017-12-15T21:38:33Z</time></trkpt>
<trkpt lat="48.2982980" lon="-1.8794780"><ele></ele><time>2017-12-15T21:38:36Z</time></trkpt>
<trkpt lat="48.2983090" lon="-1.8795340"><ele></ele><time>2017-12-15T21:38:39Z</time></trkpt>
<trkpt lat="48.2983170" lon="-1.8795860"><ele></ele><time>2017-12-15T21:38:42Z</time></trkpt>
<trkpt lat="48.2983390" lon="-1.8796200"><ele></ele><time>2017-12-15T21:38:45Z</time></trkpt>
<trkpt lat="48.2983330" lon="-1.8796700"><ele></ele><time>2017-12-15T21:38:48Z</time></trkpt>
<trkpt lat="48.2983180" lon="-1.8797080"><ele></ele><time>2017-12-15T21:38:51Z</time></trkpt>
<trkpt lat="48.2982990" lon="-1.8797760"><ele></ele><time>2017-12-15T21:38:54Z</time></trkpt>
<trkpt lat="48.2982930" lon="-1.8798290"><ele></ele><time>2017-12-15T21:38:57Z</time></trkpt>
<trkpt lat="48.2982860" lon="-1.8798980"><ele></ele><time>2017-12-15T21:39:0Z</time></trkpt>
<trkpt lat="48.2982880" lon="-1.8799550"><ele></ele><time>2017-12-15T21:39:3Z</time></trkpt>
<trkpt lat="48.2982760" lon="-1.8800260"><ele></ele><time>2017-12-15T21:39:6Z</time></trkpt>
<trkpt lat="48.2982600" lon="-1.8800900"><ele></ele><time>2017-12-15T21:39:9Z</time></trkpt>
<trkpt lat="48.2982630" lon="-1.8801600"><ele></ele><time>2017-12-15T21:39:12Z</time></trkpt>
<trkpt lat="48.2982570" lon="-1.8802240"><ele></ele><time>2017-12-15T21:39:15Z</time></trkpt>
<trkpt lat="48.2982530" lon="-1.8802900"><ele></ele><time>2017-12-15T21:39:18Z</time></trkpt>
<trkpt lat="48.2982180" lon="-1.8803610"><ele></ele><time>2017-12-15T21:39:21Z</time></trkpt>
<trkpt lat="48.2982020" lon="-1.8804420"><ele></ele><time>2017-12-15T21:39:24Z</time></trkpt>
<trkpt lat="48.2981940" lon="-1.8805070"><ele></ele><time>2017-12-15T21:39:27Z</time></trkpt>
<trkpt lat="48.2981980" lon="-1.8805530"><ele></ele><time>2017-12-15T21:39:30Z</time></trkpt>
<trkpt lat="48.2981740" lon="-1.8806000"><ele></ele><time>2017-12-15T21:39:33Z</time></trkpt>
<trkpt lat="48.2981260" lon="-1.8806300"><ele></ele><time>2017-12-15T21:39:36Z</time></trkpt>
<trkpt lat="48.2980840" lon="-1.8806660"><ele></ele><time>2017-12-15T21:39:39Z</time></trkpt>
<trkpt lat="48.2980560" lon="-1.8806960"><ele></ele><time>2017-12-15T21:39:42Z</time></trkpt>
<trkpt lat="48.2980100" lon="-1.8807240"><ele></ele><time>2017-12-15T21:39:45Z</time></trkpt>
<trkpt lat="48.2979650" lon="-1.8807440"><ele></ele><time>2017-12-15T21:39:48Z</time></trkpt>
<trkpt lat="48.2979360" lon="-1.8807800"><ele></ele><time>2017-12-15T21:39:51Z</time></trkpt>
<trkpt lat="48.2979000" lon="-1.8808340"><ele></ele><time>2017-12-15T21:39:54Z</time></trkpt>
<trkpt lat="48.2979190" lon="-1.8808880"><ele></ele><time>2017-12-15T21:39:57Z</time></trkpt>
<trkpt lat="48.2978830" lon="-1.8809310"><ele></ele><time>2017-12-15T21:40:0Z</time></trkpt>
<trkpt lat="48.2978440" lon="-1.8809610"><ele></ele><time>2017-12-15T21:40:3Z</time></trkpt>
<trkpt lat="48.2977820" lon="-1.8809950"><ele></ele><time>2017-12-15T21:40:6Z</time></trkpt>
<trkpt lat="48.2977580" lon="-1.8809990"><ele></ele><time>2017-12-15T21:40:9Z</time></trkpt>
<trkpt lat="48.2977260" lon="-1.8809940"><ele></ele><time>2017-12-15T21:40:12Z</time></trkpt>
<trkpt lat="48.2976900" lon="-1.8809920"><ele></ele><time>2017-12-15T21:40:15Z</time></trkpt>
<trkpt lat="48.2976570" lon="-1.8810110"><ele></ele><time>2017-12-15T21:40:18Z</time></trkpt>
<trkpt lat="48.2976330" lon="-1.8810370"><ele></ele><time>2017-12-15T21:40:21Z</time></trkpt>
<trkpt lat="48.2976030" lon="-1.8810560"><ele></ele><time>2017-12-15T21:40:24Z</time></trkpt>
<trkpt lat="48.2975800" lon="-1.8810870"><ele></ele><time>2017-12-15T21:40:27Z</time></trkpt>
<trkpt lat="48.2975790" lon="-1.8811540"><ele></ele><time>2017-12-15T21:40:30Z</time></trkpt>
<trkpt lat="48.2975540" lon="-1.8812030"><ele></ele><time>2017-12-15T21:40:33Z</time></trkpt>
<trkpt lat="48.2975230" lon="-1.8812160"><ele></ele><time>2017-12-15T21:40:36Z</time></trkpt>
<trkpt lat="48.2974890" lon="-1.8812390"><ele></ele><time>2017-12-15T21:40:39Z</time></trkpt>
<trkpt lat="48.2974600" lon="-1.8812420"><ele></ele><time>2017-12-15T21:40:42Z</time></trkpt>
<trkpt lat="48.2974260" lon="-1.8812580"><ele></ele><time>2017-12-15T21:40:45Z</time></trkpt>
<trkpt lat="48.2973990" lon="-1.8812760"><ele></ele><time>2017-12-15T21:40:48Z</time></trkpt>
<trkpt lat="48.2973560" lon="-1.8812940"><ele></ele><time>2017-12-15T21:40:51Z</time></trkpt>
<trkpt lat="48.2973210" lon="-1.8813250"><ele></ele><time>2017-12-15T21:40:54Z</time></trkpt>
<trkpt lat="48.2972880" lon="-1.8813400"><ele></ele><time>2017-12-15T21:40:57Z</time></trkpt>
<trkpt lat="48.2972620" lon="-1.8813510"><ele></ele><time>2017-12-15T21:41:0Z</time></trkpt>
<trkpt lat="48.2972360" lon="-1.8813720"><ele></ele><time>2017-12-15T21:41:3Z</time></trkpt>
<trkpt lat="48.2972070" lon="-1.8813720"><ele></ele><time>2017-12-15T21:41:6Z</time></trkpt>
<trkpt lat="48.2971780" lon="-1.8813680"><ele></ele><time>2017-12-15T21:41:9Z</time></trkpt>
<trkpt lat="48.2971390" lon="-1.8813480"><ele></ele><time>2017-12-15T21:41:12Z</time></trkpt>
<trkpt lat="48.2971010" lon="-1.8813390"><ele></ele><time>2017-12-15T21:41:15Z</time></trkpt>
<trkpt lat="48.2970690" lon="-1.8813320"><ele></ele><time>2017-12-15T21:41:18Z</time></trkpt>
<trkpt lat="48.2970220" lon="-1.8813140"><ele></ele><time>2017-12-15T21:41:21Z</time></trkpt>
<trkpt lat="48.2969920" lon="-1.8812860"><ele></ele><time>2017-12-15T21:41:24Z</time></trkpt>
<trkpt lat="48.2969710" lon="-1.8813130"><ele></ele><time>2017-12-15T21:41:27Z</time></trkpt>
<trkpt lat="48.2969830" lon="-1.8813770"><ele></ele><time>2017-12-15T21:41:30Z</time></trkpt>
<trkpt lat="48.2970020" lon="-1.8814240"><ele></ele><time>2017-12-15T21:41:33Z</time></trkpt>
<trkpt lat="48.2970300" lon="-1.8814740"><ele></ele><time>2017-12-15T21:41:36Z</time></trkpt>
<trkpt lat="48.2970480" lon="-1.8815250"><ele></ele><time>2017-12-15T21:41:39Z</time></trkpt>
<trkpt lat="48.2970700" lon="-1.8815560"><ele></ele><time>2017-12-15T21:41:42Z</time></trkpt>
<trkpt lat="48.2970920" lon="-1.8815950"><ele></ele><time>2017-12-15T21:41:45Z</time></trkpt>
<trkpt lat="48.2971200" lon="-1.8816180"><ele></ele><time>2017-12-15T21:41:48Z</time></trkpt>
<trkpt lat="48.2971490" lon="-1.8816460"><ele></ele><time>2017-12-15T21:41:51Z</time></trkpt>
<trkpt lat="48.2971770" lon="-1.8816460"><ele></ele><time>2017-12-15T21:41:54Z</time></trkpt>
<trkpt lat="48.2972250" lon="-1.8816490"><ele></ele><time>2017-12-15T21:41:57Z</time></trkpt>
<trkpt lat="48.2972720" lon="-1.8816390"><ele></ele><time>2017-12-15T21:42:0Z</time></trkpt>
<trkpt lat="48.2973160" lon="-1.8816490"><ele></ele><time>2017-12-15T21:42:3Z</time></trkpt>
<trkpt lat="48.2973460" lon="-1.8816470"><ele></ele><time>2017-12-15T21:42:6Z</time></trkpt>
<trkpt lat="48.2973870" lon="-1.8816850"><ele></ele><time>2017-12-15T21:42:9Z</time></trkpt>
<trkpt lat="48.2974330" lon="-1.8816980"><ele></ele><time>2017-12-15T21:42:12Z</time></trkpt>
<trkpt lat="48.2974800" lon="-1.8817120"><ele></ele><time>2017-12-15T21:42:15Z</time></trkpt>
<trkpt lat="48.2975200" lon="-1.8817310"><ele></ele><time>2017-12-15T21:42:18Z</time></trkpt>
<trkpt lat="48.2975630" lon="-1.8817280"><ele></ele><time>2017-12-15T21:42:21Z</time></trkpt>
<trkpt lat="48.2976050" lon="-1.8817380"><ele></ele><time>2017-12-15T21:42:24Z</time></trkpt>
<trkpt lat="48.2976380" lon="-1.8817680"><ele></ele><time>2017-12-15T21:42:27Z</time></trkpt>
<trkpt lat="48.2976730" lon="-1.8818010"><ele></ele><time>2017-12-15T21:42:30Z</time></trkpt>
<trkpt lat="48.2977410" lon="-1.8818290"><ele></ele><time>2017-12-15T21:42:33Z</time></trkpt>
<trkpt lat="48.2977690" lon="-1.8818550"><ele></ele><time>2017-12-15T21:42:36Z</time></trkpt>
<trkpt lat="48.2978060" lon="-1.8818970"><ele></ele><time>2017-12-15T21:42:39Z</time></trkpt>
<trkpt lat="48.2978250" lon="-1.8819320"><ele></ele><time>2017-12-15T21:42:42Z</time></trkpt>
<trkpt lat="48.2978220" lon="-1.8819730"><ele></ele><time>2017-12-15T21:42:45Z</time></trkpt>
<trkpt lat="48.2978180" lon="-1.8820300"><ele></ele><time>2017-12-15T21:42:48Z</time></trkpt>
<trkpt lat="48.2978560" lon="-1.8820640"><ele></ele><time>2017-12-15T21:42:51Z</time></trkpt>
<trkpt lat="48.2979180" lon="-1.8820790"><ele></ele><time>2017-12-15T21:42:54Z</time></trkpt>
<trkpt lat="48.2979620" lon="-1.8820960"><ele></ele><time>2017-12-15T21:42:57Z</time></trkpt>
<trkpt lat="48.2979920" lon="-1.8821110"><ele></ele><time>2017-12-15T21:43:0Z</time></trkpt>
<trkpt lat="48.2980260" lon="-1.8821130"><ele></ele><time>2017-12-15T21:43:3Z</time></trkpt>
<trkpt lat="48.2980520" lon="-1.8821810"><ele></ele><time>2017-12-15T21:43:6Z</time></trkpt>
<trkpt lat="48.2980820" lon="-1.8822090"><ele></ele><time>2017-12-15T21:43:9Z</time></trkpt>
<trkpt lat="48.2981140" lon="-1.8822430"><ele></ele><time>2017-12-15T21:43:12Z</time></trkpt>
<trkpt lat="48.2981460" lon="-1.8822940"><ele></ele><time>2017-12-15T21:43:15Z</time></trkpt>
<trkpt lat="48.2981750" lon="-1.8823530"><ele></ele><time>2017-12-15T21:43:18Z</time></trkpt>
<trkpt lat="48.2981700" lon="-1.8824390"><ele></ele><time>2017-12-15T21:43:21Z</time></trkpt>
<trkpt lat="48.2982180" lon="-1.8824980"><ele></ele><time>2017-12-15T21:43:24Z</time></trkpt>
<trkpt lat="48.2982480" lon="-1.8825060"><ele></ele><time>2017-12-15T21:43:27Z</time></trkpt>
<trkpt lat="48.2982710" lon="-1.8825290"><ele></ele><time>2017-12-15T21:43:30Z</time></trkpt>
<trkpt lat="48.2983150" lon="-1.8825680"><ele></ele><time>2017-12-15T21:43:33Z</time></trkpt>
<trkpt lat="48.2983950" lon="-1.8825570"><ele></ele><time>2017-12-15T21:43:36Z</time></trkpt>
<trkpt lat="48.2984650" lon="-1.8825580"><ele></ele><time>2017-12-15T21:43:39Z</time></trkpt>
<trkpt lat="48.2985310" lon="-1.8825530"><ele></ele><time>2017-12-15T21:43:42Z</time></trkpt>
<trkpt lat="48.2985890" lon="-1.8825380"><ele></ele><time>2017-12-15T21:43:45Z</time></trkpt>
<trkpt lat="48.2986410" lon="-1.8825220"><ele></ele><time>2017-12-15T21:43:48Z</time></trkpt>
<trkpt lat="48.2986660" lon="-1.8825720"><ele></ele><time>2017-12-15T21:43:51Z</time></trkpt>
<trkpt lat="48.2986380" lon="-1.8825750"><ele></ele><time>2017-12-15T21:43:54Z</time></trkpt>
<trkpt lat="48.2986610" lon="-1.8826150"><ele></ele><time>2017-12-15T21:43:57Z</time></trkpt>
<trkpt lat="48.2986880" lon="-1.8826410"><ele></ele><time>2017-12-15T21:44:0Z</time></trkpt>
<trkpt lat="48.2987160" lon="-1.8826250"><ele></ele><time>2017-12-15T21:44:3Z</time></trkpt>
<trkpt lat="48.2987350" lon="-1.8826790"><ele></ele><time>2017-12-15T21:44:6Z</time></trkpt>
<trkpt lat="48.2987500" lon="-1.8827170"><ele></ele><time>2017-12-15T21:44:9Z</time></trkpt>
<trkpt lat="48.2987480" lon="-1.8828040"><ele></ele><time>2017-12-15T21:44:12Z</time></trkpt>
<trkpt lat="48.2987650" lon="-1.8828780"><ele></ele><time>2017-12-15T21:44:15Z</time></trkpt>
<trkpt lat="48.2987600" lon="-1.8829260"><ele></ele><time>2017-12-15T21:44:18Z</time></trkpt>
<trkpt lat="48.2987890" lon="-1.8829720"><ele></ele><time>2017-12-15T21:44:21Z</time></trkpt>
<trkpt lat="48.2987770" lon="-1.8830190"><ele></ele><time>2017-12-15T21:44:24Z</time></trkpt>
<trkpt lat="48.2987890" lon="-1.8830820"><ele></ele><time>2017-12-15T21:44:27Z</time></trkpt>
<trkpt lat="48.2987920" lon="-1.8831300"><ele></ele><time>2017-12-15T21:44:30Z</time></trkpt>
<trkpt lat="48.2987950" lon="-1.8831800"><ele></ele><time>2017-12-15T21:44:33Z</time></trkpt>
<trkpt lat="48.2988000" lon="-1.8832260"><ele></ele><time>2017-12-15T21:44:36Z</time></trkpt>
<trkpt lat="48.2987660" lon="-1.8832720"><ele></ele><time>2017-12-15T21:44:39Z</time></trkpt>
<trkpt lat="48.2987410" lon="-1.8833130"><ele></ele><time>2017-12-15T21:44:42Z</time></trkpt>
<trkpt lat="48.2987270" lon="-1.8833520"><ele></ele><time>2017-12-15T21:44:45Z</time></trkpt>
<trkpt lat="48.2987040" lon="-1.8833970"><ele></ele><time>2017-12-15T21:44:48Z</time></trkpt>
<trkpt lat="48.2986960" lon="-1.8834380"><ele></ele><time>2017-12-15T21:44:51Z</time></trkpt>
<trkpt lat="48.2986860" lon="-1.8834920"><ele></ele><time>2017-12-15T21:44:54Z</time></trkpt>
<trkpt lat="48.2986660" lon="-1.8835500"><ele></ele><time>2017-12-15T21:44:57Z</time></trkpt>
<trkpt lat="48.2986380" lon="-1.8835990"><ele></ele><time>2017-12-15T21:45:0Z</time></trkpt>
<trkpt lat="48.2986110" lon="-1.8836730"><ele></ele><time>2017-12-15T21:45:3Z</time></trkpt>
<trkpt lat="48.2986050" lon="-1.8837230"><ele></ele><time>2017-12-15T21:45:6Z</time></trkpt>
<trkpt lat="48.2985810" lon="-1.8837530"><ele></ele><time>2017-12-15T21:45:9Z</time></trkpt>
<trkpt lat="48.2985650" lon="-1.8838160"><ele></ele><time>2017-12-15T21:45:12Z</time></trkpt>
<trkpt lat="48.2985800" lon="-1.8838770"><ele></ele><time>2017-12-15T21:45:15Z</time></trkpt>
<trkpt lat="48.2985910" lon="-1.8839250"><ele></ele><time>2017-12-15T21:45:18Z</time></trkpt>
<trkpt lat="48.2985980" lon="-1.8839820"><ele></ele><time>2017-12-15T21:45:21Z</time></trkpt>
<trkpt lat="48.2985990" lon="-1.8840440"><ele></ele><time>2017-12-15T21:45:24Z</time></trkpt>
<trkpt lat="48.2985820" lon="-1.8840880"><ele></ele><time>2017-12-15T21:45:27Z</time></trkpt>
<trkpt lat="48.2985630" lon="-1.8841730"><ele></ele><time>2017-12-15T21:45:30Z</time></trkpt>
<trkpt lat="48.2985850" lon="-1.8842250"><ele></ele><time>2017-12-15T21:45:33Z</time></trkpt>
<trkpt lat="48.2985910" lon="-1.8842690"><ele></ele><time>2017-12-15T21:45:36Z</time></trkpt>
<trkpt lat="48.2985590" lon="-1.8843540"><ele></ele><time>2017-12-15T21:45:39Z</time></trkpt>
<trkpt lat="48.2985370" lon="-1.8843810"><ele></ele><time>2017-12-15T21:45:42Z</time></trkpt>
<trkpt lat="48.2985340" lon="-1.8844600"><ele></ele><time>2017-12-15T21:45:45Z</time></trkpt>
<trkpt lat="48.2985700" lon="-1.8845020"><ele></ele><time>2017-12-15T21:45:48Z</time></trkpt>
<trkpt lat="48.2986140" lon="-1.8845390"><ele></ele><time>2017-12-15T21:45:51Z</time></trkpt>
<trkpt lat="48.2985960" lon="-1.8846190"><ele></ele><time>2017-12-15T21:45:54Z</time></trkpt>
<trkpt lat="48.2986050" lon="-1.8847000"><ele></ele><time>2017-12-15T21:45:57Z</time></trkpt>
<trkpt lat="48.2985890" lon="-1.8847580"><ele></ele><time>2017-12-15T21:46:0Z</time></trkpt>
<trkpt lat="48.2985630" lon="-1.8847760"><ele></ele><time>2017-12-15T21:46:3Z</time></trkpt>
<trkpt lat="48.2985510" lon="-1.8848200"><ele></ele><time>2017-12-15T21:46:6Z</time></trkpt>
<trkpt lat="48.2985640" lon="-1.8849050"><ele></ele><time>2017-12-15T21:46:9Z</time></trkpt>
<trkpt lat="48.2985690" lon="-1.8849560"><ele></ele><time>2017-12-15T21:46:12Z</time></trkpt>
<trkpt lat="48.2985370" lon="-1.8850520"><ele></ele><time>2017-12-15T21:46:15Z</time></trkpt>
<trkpt lat="48.2985200" lon="-1.8850960"><ele></ele><time>2017-12-15T21:46:18Z</time></trkpt>
<trkpt lat="48.2984860" lon="-1.8851240"><ele></ele><time>2017-12-15T21:46:21Z</time></trkpt>
<trkpt lat="48.2984570" lon="-1.8851500"><ele></ele><time>2017-12-15T21:46:24Z</time></trkpt>
<trkpt lat="48.2984320" lon="-1.8851860"><ele></ele><time>2017-12-15T21:46:27Z</time></trkpt>
<trkpt lat="48.2984050" lon="-1.8852220"><ele></ele><time>2017-12-15T21:46:30Z</time></trkpt>
<trkpt lat="48.2983930" lon="-1.8852620"><ele></ele><time>2017-12-15T21:46:33Z</time></trkpt>
<trkpt lat="48.2983890" lon="-1.8853150"><ele></ele><time>2017-12-15T21:46:36Z</time></trkpt>
<trkpt lat="48.2983730" lon="-1.8853680"><ele></ele><time>2017-12-15T21:46:39Z</time></trkpt>
<trkpt lat="48.2983160" lon="-1.8854430"><ele></ele><time>2017-12-15T21:46:42Z</time></trkpt>
<trkpt lat="48.2982910" lon="-1.8854760"><ele></ele><time>2017-12-15T21:46:45Z</time></trkpt>
<trkpt lat="48.2982580" lon="-1.8855190"><ele></ele><time>2017-12-15T21:46:48Z</time></trkpt>
<trkpt lat="48.2982290" lon="-1.8855570"><ele></ele><time>2017-12-15T21:46:51Z</time></trkpt>
<trkpt lat="48.2981990" lon="-1.8855940"><ele></ele><time>2017-12-15T21:46:54Z</time></trkpt>
<trkpt lat="48.2981750" lon="-1.8856310"><ele></ele><time>2017-12-15T21:46:57Z</time></trkpt>
<trkpt lat="48.2981500" lon="-1.8856770"><ele></ele><time>2017-12-15T21:47:0Z</time></trkpt>
<trkpt lat="48.2981270" lon="-1.8857110"><ele></ele><time>2017-12-15T21:47:3Z</time></trkpt>
<trkpt lat="48.2981040" lon="-1.8857640"><ele></ele><time>2017-12-15T21:47:6Z</time></trkpt>
<trkpt lat="48.2980720" lon="-1.8857660"><ele></ele><time>2017-12-15T21:47:9Z</time></trkpt>
<trkpt lat="48.2980260" lon="-1.8857740"><ele></ele><time>2017-12-15T21:47:12Z</time></trkpt>
<trkpt lat="48.2979940" lon="-1.8858190"><ele></ele><time>2017-12-15T21:47:15Z</time></trkpt>
<trkpt lat="48.2979400" lon="-1.8858160"><ele></ele><time>2017-12-15T21:47:18Z</time></trkpt>
<trkpt lat="48.2979110" lon="-1.8858270"><ele></ele><time>2017-12-15T21:47:21Z</time></trkpt>
<trkpt lat="48.2978690" lon="-1.8858580"><ele></ele><time>2017-12-15T21:47:24Z</time></trkpt>
<trkpt lat="48.2978360" lon="-1.8858720"><ele></ele><time>2017-12-15T21:47:27Z</time></trkpt>
<trkpt lat="48.2978010" lon="-1.8859000"><ele></ele><time>2017-12-15T21:47:30Z</time></trkpt>
<trkpt lat="48.2977720" lon="-1.8859190"><ele></ele><time>2017-12-15T21:47:33Z</time></trkpt>
<trkpt lat="48.2977430" lon="-1.8859320"><ele></ele><time>2017-12-15T21:47:36Z</time></trkpt>
<trkpt lat="48.2976880" lon="-1.8859240"><ele></ele><time>2017-12-15T21:47:39Z</time></trkpt>
<trkpt lat="48.2976620" lon="-1.8858930"><ele></ele><time>2017-12-15T21:47:42Z</time></trkpt>
<trkpt lat="48.2976380" lon="-1.8858580"><ele></ele><time>2017-12-15T21:47:45Z</time></trkpt>
<trkpt lat="48.2976490" lon="-1.8857970"><ele></ele><time>2017-12-15T21:47:48Z</time></trkpt>
<trkpt lat="48.2976420" lon="-1.8857510"><ele></ele><time>2017-12-15T21:47:51Z</time></trkpt>
<trkpt lat="48.2976490" lon="-1.8856960"><ele></ele><time>2017-12-15T21:47:54Z</time></trkpt>
<trkpt lat="48.2976610" lon="-1.8856490"><ele></ele><time>2017-12-15T21:47:57Z</time></trkpt>
<trkpt lat="48.2976720" lon="-1.8856000"><ele></ele><time>2017-12-15T21:48:0Z</time></trkpt>
<trkpt lat="48.2976720" lon="-1.8855400"><ele></ele><time>2017-12-15T21:48:3Z</time></trkpt>
<trkpt lat="48.2976740" lon="-1.8854840"><ele></ele><time>2017-12-15T21:48:6Z</time></trkpt>
<trkpt lat="48.2976930" lon="-1.8854290"><ele></ele><time>2017-12-15T21:48:9Z</time></trkpt>
<trkpt lat="48.2976950" lon="-1.8853760"><ele></ele><time>2017-12-15T21:48:12Z</time></trkpt>
<trkpt lat="48.2977130" lon="-1.8853100"><ele></ele><time>2017-12-15T21:48:15Z</time></trkpt>
<trkpt lat="48.2977480" lon="-1.8852450"><ele></ele><time>2017-12-15T21:48:18Z</time></trkpt>
<trkpt lat="48.2977860" lon="-1.8852030"><ele></ele><time>2017-12-15T21:48:21Z</time></trkpt>
<trkpt lat="48.2977940" lon="-1.8851460"><ele></ele><time>2017-12-15T21:48:24Z</time></trkpt>
<trkpt lat="48.2978120" lon="-1.8850840"><ele></ele><time>2017-12-15T21:48:27Z</time></trkpt>
<trkpt lat="48.2978190" lon="-1.8850190"><ele></ele><time>2017-12-15T21:48:30Z</time></trkpt>
<trkpt lat="48.2978090" lon="-1.8849590"><ele></ele><time>2017-12-15T21:48:33Z</time></trkpt>
<trkpt lat="48.2978110" lon="-1.8848840"><ele></ele><time>2017-12-15T21:48:36Z</time></trkpt>
<trkpt lat="48.2977990" lon="-1.8848290"><ele></ele><time>2017-12-15T21:48:39Z</time></trkpt>
<trkpt lat="48.2977800" lon="-1.8847680"><ele></ele><time>2017-12-15T21:48:42Z</time></trkpt>
<trkpt lat="48.2977730" lon="-1.8846970"><ele></ele><time>2017-12-15T21:48:45Z</time></trkpt>
<trkpt lat="48.2977590" lon="-1.8846400"><ele></ele><time>2017-12-15T21:48:48Z</time></trkpt>
<trkpt lat="48.2977550" lon="-1.8845920"><ele></ele><time>2017-12-15T21:48:51Z</time></trkpt>
<trkpt lat="48.2977630" lon="-1.8845450"><ele></ele><time>2017-12-15T21:48:54Z</time></trkpt>
<trkpt lat="48.2977570" lon="-1.8844900"><ele></ele><time>2017-12-15T21:48:57Z</time></trkpt>
<trkpt lat="48.2977460" lon="-1.8844460"><ele></ele><time>2017-12-15T21:49:0Z</time></trkpt>
<trkpt lat="48.2977450" lon="-1.8843870"><ele></ele><time>2017-12-15T21:49:3Z</time></trkpt>
<trkpt lat="48.2977420" lon="-1.8843300"><ele></ele><time>2017-12-15T21:49:6Z</time></trkpt>
<trkpt lat="48.2977440" lon="-1.8842680"><ele></ele><time>2017-12-15T21:49:9Z</time></trkpt>
<trkpt lat="48.2977490" lon="-1.8842180"><ele></ele><time>2017-12-15T21:49:12Z</time></trkpt>
<trkpt lat="48.2977250" lon="-1.8841680"><ele></ele><time>2017-12-15T21:49:15Z</time></trkpt>
<trkpt lat="48.2977100" lon="-1.8841080"><ele></ele><time>2017-12-15T21:49:18Z</time></trkpt>
<trkpt lat="48.2977120" lon="-1.8840510"><ele></ele><time>2017-12-15T21:49:21Z</time></trkpt>
<trkpt lat="48.2977060" lon="-1.8840010"><ele></ele><time>2017-12-15T21:49:24Z</time></trkpt>
<trkpt lat="48.2976960" lon="-1.8839490"><ele></ele><time>2017-12-15T21:49:27Z</time></trkpt>
<trkpt lat="48.2976800" lon="-1.8839140"><ele></ele><time>2017-12-15T21:49:30Z</time></trkpt>
<trkpt lat="48.2976600" lon="-1.8838520"><ele></ele><time>2017-12-15T21:49:33Z</time></trkpt>
<trkpt lat="48.2976580" lon="-1.8837920"><ele></ele><time>2017-12-15T21:49:36Z</time></trkpt>
<trkpt lat="48.2976440" lon="-1.8837450"><ele></ele><time>2017-12-15T21:49:39Z</time></trkpt>
<trkpt lat="48.2976260" lon="-1.8836870"><ele></ele><time>2017-12-15T21:49:42Z</time></trkpt>
<trkpt lat="48.2976070" lon="-1.8836390"><ele></ele><time>2017-12-15T21:49:45Z</time></trkpt>
<trkpt lat="48.2975760" lon="-1.8835980"><ele></ele><time>2017-12-15T21:49:48Z</time></trkpt>
<trkpt lat="48.2975710" lon="-1.8835400"><ele></ele><time>2017-12-15T21:49:51Z</time></trkpt>
<trkpt lat="48.2975600" lon="-1.8835000"><ele></ele><time>2017-12-15T21:49:54Z</time></trkpt>
<trkpt lat="48.2975480" lon="-1.8834500"><ele></ele><time>2017-12-15T21:49:57Z</time></trkpt>
<trkpt lat="48.2975330" lon="-1.8833970"><ele></ele><time>2017-12-15T21:50:0Z</time></trkpt>
<trkpt lat="48.2975230" lon="-1.8833460"><ele></ele><time>2017-12-15T21:50:3Z</time></trkpt>
<trkpt lat="48.2975430" lon="-1.8832840"><ele></ele><time>2017-12-15T21:50:6Z</time></trkpt>
<trkpt lat="48.2975420" lon="-1.8832110"><ele></ele><time>2017-12-15T21:50:9Z</time></trkpt>
<trkpt lat="48.2975460" lon="-1.8831280"><ele></ele><time>2017-12-15T21:50:12Z</time></trkpt>
<trkpt lat="48.2975250" lon="-1.8830490"><ele></ele><time>2017-12-15T21:50:15Z</time></trkpt>
<trkpt lat="48.2975000" lon="-1.8830260"><ele></ele><time>2017-12-15T21:50:18Z</time></trkpt>
<trkpt lat="48.2974880" lon="-1.8829900"><ele></ele><time>2017-12-15T21:50:21Z</time></trkpt>
<trkpt lat="48.2974660" lon="-1.8829270"><ele></ele><time>2017-12-15T21:50:24Z</time></trkpt>
<trkpt lat="48.2974470" lon="-1.8828710"><ele></ele><time>2017-12-15T21:50:27Z</time></trkpt>
<trkpt lat="48.2974340" lon="-1.8828230"><ele></ele><time>2017-12-15T21:50:30Z</time></trkpt>
<trkpt lat="48.2974150" lon="-1.8827790"><ele></ele><time>2017-12-15T21:50:33Z</time></trkpt>
<trkpt lat="48.2973930" lon="-1.8827470"><ele></ele><time>2017-12-15T21:50:36Z</time></trkpt>
<trkpt lat="48.2973860" lon="-1.8827000"><ele></ele><time>2017-12-15T21:50:39Z</time></trkpt>
<trkpt lat="48.2973790" lon="-1.8826530"><ele></ele><time>2017-12-15T21:50:42Z</time></trkpt>
<trkpt lat="48.2973390" lon="-1.8826290"><ele></ele><time>2017-12-15T21:50:45Z</time></trkpt>
<trkpt lat="48.2973480" lon="-1.8825690"><ele></ele><time>2017-12-15T21:50:48Z</time></trkpt>
<trkpt lat="48.2973300" lon="-1.8825270"><ele></ele><time>2017-12-15T21:50:51Z</time></trkpt>
<trkpt lat="48.2973060" lon="-1.8825020"><ele></ele><time>2017-12-15T21:50:54Z</time></trkpt>
<trkpt lat="48.2972810" lon="-1.8824510"><ele></ele><time>2017-12-15T21:50:57Z</time></trkpt>
<trkpt lat="48.2972690" lon="-1.8824050"><ele></ele><time>2017-12-15T21:51:0Z</time></trkpt>
<trkpt lat="48.2972490" lon="-1.8823770"><ele></ele><time>2017-12-15T21:51:3Z</time></trkpt>
<trkpt lat="48.2972280" lon="-1.8823480"><ele></ele><time>2017-12-15T21:51:6Z</time></trkpt>
<trkpt lat="48.2971940" lon="-1.8822920"><ele></ele><time>2017-12-15T21:51:9Z</time></trkpt>
<trkpt lat="48.2971950" lon="-1.8822510"><ele></ele><time>2017-12-15T21:51:12Z</time></trkpt>
<trkpt lat="48.2971540" lon="-1.8821890"><ele></ele><time>2017-12-15T21:51:15Z</time></trkpt>
<trkpt lat="48.2971240" lon="-1.8821390"><ele></ele><time>2017-12-15T21:51:18Z</time></trkpt>
<trkpt lat="48.2970860" lon="-1.8820750"><ele></ele><time>2017-12-15T21:51:21Z</time></trkpt>
<trkpt lat="48.2970600" lon="-1.8820440"><ele></ele><time>2017-12-15T21:51:24Z</time></trkpt>
<trkpt lat="48.2970410" lon="-1.8820160"><ele></ele><time>2017-12-15T21:51:27Z</time></trkpt>
<trkpt lat="48.2970090" lon="-1.8819880"><ele></ele><time>2017-12-15T21:51:30Z</time></trkpt>
<trkpt lat="48.2969780" lon="-1.8819540"><ele></ele><time>2017-12-15T21:51:33Z</time></trkpt>
<trkpt lat="48.2969360" lon="-1.8819240"><ele></ele><time>2017-12-15T21:51:36Z</time></trkpt>
<trkpt lat="48.2969110" lon="-1.8818950"><ele></ele><time>2017-12-15T21:51:39Z</time></trkpt>
<trkpt lat="48.2968870" lon="-1.8818600"><ele></ele><time>2017-12-15T21:51:42Z</time></trkpt>
<trkpt lat="48.2968570" lon="-1.8818330"><ele></ele><time>2017-12-15T21:51:45Z</time></trkpt>
<trkpt lat="48.2968040" lon="-1.8818120"><ele></ele><time>2017-12-15T21:51:48Z</time></trkpt>
<trkpt lat="48.2967740" lon="-1.8817980"><ele></ele><time>2017-12-15T21:51:51Z</time></trkpt>
<trkpt lat="48.2967460" lon="-1.8817940"><ele></ele><time>2017-12-15T21:51:54Z</time></trkpt>
<trkpt lat="48.2967090" lon="-1.8818030"><ele></ele><time>2017-12-15T21:51:57Z</time></trkpt>
<trkpt lat="48.2966770" lon="-1.8817750"><ele></ele><time>2017-12-15T21:52:0Z</time></trkpt>
<trkpt lat="48.2966320" lon="-1.8817680"><ele></ele><time>2017-12-15T21:52:3Z</time></trkpt>
<trkpt lat="48.2966010" lon="-1.8817620"><ele></ele><time>2017-12-15T21:52:6Z</time></trkpt>
<trkpt lat="48.2965620" lon="-1.8817400"><ele></ele><time>2017-12-15T21:52:9Z</time></trkpt>
<trkpt lat="48.2965280" lon="-1.8817300"><ele></ele><time>2017-12-15T21:52:12Z</time></trkpt>
<trkpt lat="48.2964860" lon="-1.8817180"><ele></ele><time>2017-12-15T21:52:15Z</time></trkpt>
<trkpt lat="48.2964300" lon="-1.8817170"><ele></ele><time>2017-12-15T21:52:18Z</time></trkpt>
<trkpt lat="48.2963880" lon="-1.8816960"><ele></ele><time>2017-12-15T21:52:21Z</time></trkpt>
<trkpt lat="48.2963480" lon="-1.8816820"><ele></ele><time>2017-12-15T21:52:24Z</time></trkpt>
<trkpt lat="48.2963200" lon="-1.8816670"><ele></ele><time>2017-12-15T21:52:27Z</time></trkpt>
<trkpt lat="48.2962890" lon="-1.8816560"><ele></ele><time>2017-12-15T21:52:30Z</time></trkpt>
<trkpt lat="48.2962480" lon="-1.8816460"><ele></ele><time>2017-12-15T21:52:33Z</time></trkpt>
<trkpt lat="48.2962070" lon="-1.8816330"><ele></ele><time>2017-12-15T21:52:36Z</time></trkpt>
<trkpt lat="48.2961730" lon="-1.8816320"><ele></ele><time>2017-12-15T21:52:39Z</time></trkpt>
<trkpt lat="48.2961410" lon="-1.8816210"><ele></ele><time>2017-12-15T21:52:42Z</time></trkpt>
<trkpt lat="48.2961040" lon="-1.8815970"><ele></ele><time>2017-12-15T21:52:45Z</time></trkpt>
<trkpt lat="48.2960730" lon="-1.8815760"><ele></ele><time>2017-12-15T21:52:48Z</time></trkpt>
<trkpt lat="48.2960310" lon="-1.8815790"><ele></ele><time>2017-12-15T21:52:51Z</time></trkpt>
<trkpt lat="48.2960000" lon="-1.8815720"><ele></ele><time>2017-12-15T21:52:54Z</time></trkpt>
<trkpt lat="48.2959560" lon="-1.8815670"><ele></ele><time>2017-12-15T21:52:57Z</time></trkpt>
<trkpt lat="48.2959280" lon="-1.8815420"><ele></ele><time>2017-12-15T21:53:0Z</time></trkpt>
<trkpt lat="48.2959020" lon="-1.8815280"><ele></ele><time>2017-12-15T21:53:3Z</time></trkpt>
<trkpt lat="48.2958750" lon="-1.8815450"><ele></ele><time>2017-12-15T21:53:6Z</time></trkpt>
<trkpt lat="48.2958410" lon="-1.8815460"><ele></ele><time>2017-12-15T21:53:9Z</time></trkpt>
<trkpt lat="48.2958150" lon="-1.8815350"><ele></ele><time>2017-12-15T21:53:12Z</time></trkpt>
<trkpt lat="48.2957860" lon="-1.8815310"><ele></ele><time>2017-12-15T21:53:15Z</time></trkpt>
<trkpt lat="48.2957550" lon="-1.8815460"><ele></ele><time>2017-12-15T21:53:18Z</time></trkpt>
<trkpt lat="48.2957150" lon="-1.8815600"><ele></ele><time>2017-12-15T21:53:21Z</time></trkpt>
<trkpt lat="48.2956790" lon="-1.8815620"><ele></ele><time>2017-12-15T21:53:24Z</time></trkpt>
<trkpt lat="48.2956450" lon="-1.8816000"><ele></ele><time>2017-12-15T21:53:27Z</time></trkpt>
<trkpt lat="48.2956120" lon="-1.8816040"><ele></ele><time>2017-12-15T21:53:30Z</time></trkpt>
<trkpt lat="48.2955850" lon="-1.8816140"><ele></ele><time>2017-12-15T21:53:33Z</time></trkpt>
<trkpt lat="48.2955550" lon="-1.8816280"><ele></ele><time>2017-12-15T21:53:36Z</time></trkpt>
<trkpt lat="48.2955270" lon="-1.8816530"><ele></ele><time>2017-12-15T21:53:39Z</time></trkpt>
<trkpt lat="48.2955330" lon="-1.8816960"><ele></ele><time>2017-12-15T21:53:42Z</time></trkpt>
<trkpt lat="48.2955360" lon="-1.8817540"><ele></ele><time>2017-12-15T21:53:45Z</time></trkpt>
<trkpt lat="48.2955350" lon="-1.8818070"><ele></ele><time>2017-12-15T21:53:48Z</time></trkpt>
<trkpt lat="48.2955520" lon="-1.8818570"><ele></ele><time>2017-12-15T21:53:51Z</time></trkpt>
<trkpt lat="48.2955380" lon="-1.8819270"><ele></ele><time>2017-12-15T21:53:54Z</time></trkpt>
<trkpt lat="48.2955430" lon="-1.8819750"><ele></ele><time>2017-12-15T21:53:57Z</time></trkpt>
<trkpt lat="48.2955460" lon="-1.8820170"><ele></ele><time>2017-12-15T21:54:0Z</time></trkpt>
<trkpt lat="48.2955770" lon="-1.8820210"><ele></ele><time>2017-12-15T21:54:3Z</time></trkpt>
<trkpt lat="48.2955810" lon="-1.8820650"><ele></ele><time>2017-12-15T21:54:6Z</time></trkpt>
<trkpt lat="48.2956120" lon="-1.8820860"><ele></ele><time>2017-12-15T21:54:9Z</time></trkpt>
<trkpt lat="48.2956540" lon="-1.8820890"><ele></ele><time>2017-12-15T21:54:12Z</time></trkpt>
<trkpt lat="48.2956730" lon="-1.8821290"><ele></ele><time>2017-12-15T21:54:15Z</time></trkpt>
<trkpt lat="48.2956920" lon="-1.8821750"><ele></ele><time>2017-12-15T21:54:18Z</time></trkpt>
<trkpt lat="48.2956900" lon="-1.8822430"><ele></ele><time>2017-12-15T21:54:21Z</time></trkpt>
<trkpt lat="48.2956900" lon="-1.8823090"><ele></ele><time>2017-12-15T21:54:24Z</time></trkpt>
<trkpt lat="48.2956520" lon="-1.8822990"><ele></ele><time>2017-12-15T21:54:27Z</time></trkpt>
<trkpt lat="48.2956240" lon="-1.8823090"><ele></ele><time>2017-12-15T21:54:30Z</time></trkpt>
<trkpt lat="48.2955920" lon="-1.8823310"><ele></ele><time>2017-12-15T21:54:33Z</time></trkpt>
<trkpt lat="48.2955680" lon="-1.8823540"><ele></ele><time>2017-12-15T21:54:36Z</time></trkpt>
<trkpt lat="48.2955850" lon="-1.8823930"><ele></ele><time>2017-12-15T21:54:39Z</time></trkpt>
<trkpt lat="48.2956200" lon="-1.8824250"><ele></ele><time>2017-12-15T21:54:42Z</time></trkpt>
<trkpt lat="48.2956470" lon="-1.8824690"><ele></ele><time>2017-12-15T21:54:45Z</time></trkpt>
<trkpt lat="48.2956830" lon="-1.8824950"><ele></ele><time>2017-12-15T21:54:48Z</time></trkpt>
<trkpt lat="48.2957270" lon="-1.8825370"><ele></ele><time>2017-12-15T21:54:51Z</time></trkpt>
<trkpt lat="48.2957440" lon="-1.8825900"><ele></ele><time>2017-12-15T21:54:54Z</time></trkpt>
<trkpt lat="48.2957580" lon="-1.8826270"><ele></ele><time>2017-12-15T21:54:57Z</time></trkpt>
<trkpt lat="48.2957720" lon="-1.8826630"><ele></ele><time>2017-12-15T21:55:0Z</time></trkpt>
<trkpt lat="48.2957870" lon="-1.8827060"><ele></ele><time>2017-12-15T21:55:3Z</time></trkpt>
<trkpt lat="48.2958040" lon="-1.8827600"><ele></ele><time>2017-12-15T21:55:6Z</time></trkpt>
<trkpt lat="48.2958160" lon="-1.8828070"><ele></ele><time>2017-12-15T21:55:9Z</time></trkpt>
<trkpt lat="48.2958240" lon="-1.8828500"><ele></ele><time>2017-12-15T21:55:12Z</time></trkpt>
<trkpt lat="48.2958260" lon="-1.8829200"><ele></ele><time>2017-12-15T21:55:15Z</time></trkpt>
<trkpt lat="48.2958320" lon="-1.8829710"><ele></ele><time>2017-12-15T21:55:18Z</time></trkpt>
<trkpt lat="48.2958520" lon="-1.8830010"><ele></ele><time>2017-12-15T21:55:21Z</time></trkpt>
<trkpt lat="48.2958700" lon="-1.8830430"><ele></ele><time>2017-12-15T21:55:24Z</time></trkpt>
<trkpt lat="48.2959020" lon="-1.8830950"><ele></ele><time>2017-12-15T21:55:27Z</time></trkpt>
<trkpt lat="48.2959220" lon="-1.8831240"><ele></ele><time>2017-12-15T21:55:30Z</time></trkpt>
<trkpt lat="48.2959360" lon="-1.8831720"><ele></ele><time>2017-12-15T21:55:33Z</time></trkpt>
<trkpt lat="48.2959440" lon="-1.8832270"><ele></ele><time>2017-12-15T21:55:36Z</time></trkpt>
<trkpt lat="48.2959500" lon="-1.8832930"><ele></ele><time>2017-12-15T21:55:39Z</time></trkpt>
<trkpt lat="48.2959750" lon="-1.8833180"><ele></ele><time>2017-12-15T21:55:42Z</time></trkpt>
<trkpt lat="48.2960040" lon="-1.8833170"><ele></ele><time>2017-12-15T21:55:45Z</time></trkpt>
<trkpt lat="48.2960310" lon="-1.8833770"><ele></ele><time>2017-12-15T21:55:48Z</time></trkpt>
<trkpt lat="48.2960520" lon="-1.8834170"><ele></ele><time>2017-12-15T21:55:51Z</time></trkpt>
<trkpt lat="48.2960770" lon="-1.8834770"><ele></ele><time>2017-12-15T21:55:54Z</time></trkpt>
<trkpt lat="48.2960880" lon="-1.8835250"><ele></ele><time>2017-12-15T21:55:57Z</time></trkpt>
<trkpt lat="48.2961300" lon="-1.8835890"><ele></ele><time>2017-12-15T21:56:0Z</time></trkpt>
<trkpt lat="48.2961550" lon="-1.8836190"><ele></ele><time>2017-12-15T21:56:3Z</time></trkpt>
<trkpt lat="48.2961880" lon="-1.8836560"><ele></ele><time>2017-12-15T21:56:6Z</time></trkpt>
<trkpt lat="48.2962130" lon="-1.8836940"><ele></ele><time>2017-12-15T21:56:9Z</time></trkpt>
<trkpt lat="48.2962290" lon="-1.8837440"><ele></ele><time>2017-12-15T21:56:12Z</time></trkpt>
<trkpt lat="48.2962740" lon="-1.8837820"><ele></ele><time>2017-12-15T21:56:15Z</time></trkpt>
<trkpt lat="48.2962900" lon="-1.8838160"><ele></ele><time>2017-12-15T21:56:18Z</time></trkpt>
<trkpt lat="48.2962970" lon="-1.8838740"><ele></ele><time>2017-12-15T21:56:21Z</time></trkpt>
<trkpt lat="48.2963130" lon="-1.8839250"><ele></ele><time>2017-12-15T21:56:24Z</time></trkpt>
<trkpt lat="48.2963270" lon="-1.8839840"><ele></ele><time>2017-12-15T21:56:27Z</time></trkpt>
<trkpt lat="48.2963500" lon="-1.8840350"><ele></ele><time>2017-12-15T21:56:30Z</time></trkpt>
<trkpt lat="48.2963610" lon="-1.8840780"><ele></ele><time>2017-12-15T21:56:33Z</time></trkpt>
<trkpt lat="48.2963820" lon="-1.8841310"><ele></ele><time>2017-12-15T21:56:36Z</time></trkpt>
<trkpt lat="48.2964160" lon="-1.8841870"><ele></ele><time>2017-12-15T21:56:39Z</time></trkpt>
<trkpt lat="48.2964370" lon="-1.8842670"><ele></ele><time>2017-12-15T21:56:42Z</time></trkpt>
<trkpt lat="48.2964660" lon="-1.8842940"><ele></ele><time>2017-12-15T21:56:45Z</time></trkpt>
<trkpt lat="48.2964980" lon="-1.8842710"><ele></ele><time>2017-12-15T21:56:48Z</time></trkpt>
<trkpt lat="48.2965180" lon="-1.8842370"><ele></ele><time>2017-12-15T21:56:51Z</time></trkpt>
<trkpt lat="48.2964820" lon="-1.8841960"><ele></ele><time>2017-12-15T21:56:54Z</time></trkpt>
<trkpt lat="48.2964490" lon="-1.8841760"><ele></ele><time>2017-12-15T21:56:57Z</time></trkpt>
<trkpt lat="48.2964400" lon="-1.8841360"><ele></ele><time>2017-12-15T21:57:0Z</time></trkpt>
<trkpt lat="48.2964150" lon="-1.8841100"><ele></ele><time>2017-12-15T21:57:3Z</time></trkpt>
<trkpt lat="48.2963780" lon="-1.8840910"><ele></ele><time>2017-12-15T21:57:6Z</time></trkpt>
<trkpt lat="48.2963550" lon="-1.8840700"><ele></ele><time>2017-12-15T21:57:9Z</time></trkpt>
<trkpt lat="48.2963360" lon="-1.8839980"><ele></ele><time>2017-12-15T21:57:12Z</time></trkpt>
<trkpt lat="48.2963370" lon="-1.8839560"><ele></ele><time>2017-12-15T21:57:15Z</time></trkpt>
<trkpt lat="48.2963310" lon="-1.8838940"><ele></ele><time>2017-12-15T21:57:18Z</time></trkpt>
<trkpt lat="48.2963140" lon="-1.8838600"><ele></ele><time>2017-12-15T21:57:21Z</time></trkpt>
<trkpt lat="48.2963190" lon="-1.8837910"><ele></ele><time>2017-12-15T21:57:24Z</time></trkpt>
<trkpt lat="48.2963530" lon="-1.8837780"><ele></ele><time>2017-12-15T21:57:27Z</time></trkpt>
<trkpt lat="48.2963860" lon="-1.8837860"><ele></ele><time>2017-12-15T21:57:30Z</time></trkpt>
<trkpt lat="48.2964230" lon="-1.8837600"><ele></ele><time>2017-12-15T21:57:33Z</time></trkpt>
<trkpt lat="48.2964560" lon="-1.8837600"><ele></ele><time>2017-12-15T21:57:36Z</time></trkpt>
<trkpt lat="48.2964770" lon="-1.8837860"><ele></ele><time>2017-12-15T21:57:39Z</time></trkpt>
<trkpt lat="48.2964960" lon="-1.8838250"><ele></ele><time>2017-12-15T21:57:42Z</time></trkpt>
<trkpt lat="48.2964910" lon="-1.8838690"><ele></ele><time>2017-12-15T21:57:45Z</time></trkpt>
<trkpt lat="48.2964930" lon="-1.8839230"><ele></ele><time>2017-12-15T21:57:48Z</time></trkpt>
<trkpt lat="48.2964970" lon="-1.8839810"><ele></ele><time>2017-12-15T21:57:51Z</time></trkpt>
<trkpt lat="48.2965260" lon="-1.8840290"><ele></ele><time>2017-12-15T21:57:54Z</time></trkpt>
<trkpt lat="48.2965510" lon="-1.8840710"><ele></ele><time>2017-12-15T21:57:57Z</time></trkpt>
<trkpt lat="48.2965830" lon="-1.8840770"><ele></ele><time>2017-12-15T21:58:0Z</time></trkpt>
<trkpt lat="48.2966120" lon="-1.8840620"><ele></ele><time>2017-12-15T21:58:3Z</time></trkpt>
<trkpt lat="48.2966340" lon="-1.8841050"><ele></ele><time>2017-12-15T21:58:6Z</time></trkpt>
<trkpt lat="48.2966390" lon="-1.8841540"><ele></ele><time>2017-12-15T21:58:9Z</time></trkpt>
<trkpt lat="48.2966640" lon="-1.8841880"><ele></ele><time>2017-12-15T21:58:12Z</time></trkpt>
<trkpt lat="48.2966940" lon="-1.8841940"><ele></ele><time>2017-12-15T21:58:15Z</time></trkpt>
<trkpt lat="48.2967380" lon="-1.8842160"><ele></ele><time>2017-12-15T21:58:18Z</time></trkpt>
<trkpt lat="48.2967900" lon="-1.8842040"><ele></ele><time>2017-12-15T21:58:21Z</time></trkpt>
<trkpt lat="48.2968200" lon="-1.8842060"><ele></ele><time>2017-12-15T21:58:24Z</time></trkpt>
<trkpt lat="48.2968560" lon="-1.8842520"><ele></ele><time>2017-12-15T21:58:27Z</time></trkpt>
<trkpt lat="48.2968750" lon="-1.8843020"><ele></ele><time>2017-12-15T21:58:30Z</time></trkpt>
<trkpt lat="48.2968830" lon="-1.8843470"><ele></ele><time>2017-12-15T21:58:33Z</time></trkpt>
<trkpt lat="48.2969020" lon="-1.8843810"><ele></ele><time>2017-12-15T21:58:36Z</time></trkpt>
<trkpt lat="48.2969150" lon="-1.8844170"><ele></ele><time>2017-12-15T21:58:39Z</time></trkpt>
<trkpt lat="48.2969120" lon="-1.8844820"><ele></ele><time>2017-12-15T21:58:42Z</time></trkpt>
<trkpt lat="48.2969280" lon="-1.8845330"><ele></ele><time>2017-12-15T21:58:45Z</time></trkpt>
<trkpt lat="48.2969010" lon="-1.8845510"><ele></ele><time>2017-12-15T21:58:48Z</time></trkpt>
<trkpt lat="48.2968820" lon="-1.8845940"><ele></ele><time>2017-12-15T21:58:51Z</time></trkpt>
<trkpt lat="48.2968410" lon="-1.8845950"><ele></ele><time>2017-12-15T21:58:54Z</time></trkpt>
<trkpt lat="48.2968190" lon="-1.8846320"><ele></ele><time>2017-12-15T21:58:57Z</time></trkpt>
<trkpt lat="48.2968290" lon="-1.8846780"><ele></ele><time>2017-12-15T21:59:0Z</time></trkpt>
<trkpt lat="48.2968060" lon="-1.8847230"><ele></ele><time>2017-12-15T21:59:3Z</time></trkpt>
<trkpt lat="48.2967740" lon="-1.8847370"><ele></ele><time>2017-12-15T21:59:6Z</time></trkpt>
<trkpt lat="48.2967300" lon="-1.8847250"><ele></ele><time>2017-12-15T21:59:9Z</time></trkpt>
<trkpt lat="48.2967010" lon="-1.8847220"><ele></ele><time>2017-12-15T21:59:12Z</time></trkpt>
<trkpt lat="48.2966660" lon="-1.8847250"><ele></ele><time>2017-12-15T21:59:15Z</time></trkpt>
<trkpt lat="48.2966670" lon="-1.8847850"><ele></ele><time>2017-12-15T21:59:18Z</time></trkpt>
<trkpt lat="48.2966700" lon="-1.8848460"><ele></ele><time>2017-12-15T21:59:21Z</time></trkpt>
<trkpt lat="48.2966840" lon="-1.8849280"><ele></ele><time>2017-12-15T21:59:24Z</time></trkpt>
<trkpt lat="48.2966920" lon="-1.8849880"><ele></ele><time>2017-12-15T21:59:27Z</time></trkpt>
<trkpt lat="48.2966830" lon="-1.8850310"><ele></ele><time>2017-12-15T21:59:30Z</time></trkpt>
<trkpt lat="48.2967320" lon="-1.8850690"><ele></ele><time>2017-12-15T21:59:33Z</time></trkpt>
<trkpt lat="48.2967520" lon="-1.8851190"><ele></ele><time>2017-12-15T21:59:36Z</time></trkpt>
<trkpt lat="48.2967810" lon="-1.8851650"><ele></ele><time>2017-12-15T21:59:39Z</time></trkpt>
<trkpt lat="48.2968170" lon="-1.8851710"><ele></ele><time>2017-12-15T21:59:42Z</time></trkpt>
<trkpt lat="48.2968560" lon="-1.8851750"><ele></ele><time>2017-12-15T21:59:45Z</time></trkpt>
<trkpt lat="48.2968930" lon="-1.8851700"><ele></ele><time>2017-12-15T21:59:48Z</time></trkpt>
<trkpt lat="48.2969290" lon="-1.8851410"><ele></ele><time>2017-12-15T21:59:51Z</time></trkpt>
<trkpt lat="48.2969860" lon="-1.8851770"><ele></ele><time>2017-12-15T21:59:54Z</time></trkpt>
<trkpt lat="48.2970180" lon="-1.8852060"><ele></ele><time>2017-12-15T21:59:57Z</time></trkpt>
<trkpt lat="48.2970450" lon="-1.8852440"><ele></ele><time>2017-12-15T22:0:0Z</time></trkpt>
<trkpt lat="48.2970540" lon="-1.8852920"><ele></ele><time>2017-12-15T22:0:3Z</time></trkpt>
<trkpt lat="48.2970740" lon="-1.8853720"><ele></ele><time>2017-12-15T22:0:6Z</time></trkpt>
<trkpt lat="48.2970650" lon="-1.8854200"><ele></ele><time>2017-12-15T22:0:9Z</time></trkpt>
<trkpt lat="48.2971170" lon="-1.8855050"><ele></ele><time>2017-12-15T22:0:12Z</time></trkpt>
<trkpt lat="48.2970970" lon="-1.8855760"><ele></ele><time>2017-12-15T22:0:15Z</time></trkpt>
<trkpt lat="48.2970420" lon="-1.8856030"><ele></ele><time>2017-12-15T22:0:18Z</time></trkpt>
<trkpt lat="48.2970140" lon="-1.8856340"><ele></ele><time>2017-12-15T22:0:21Z</time></trkpt>
<trkpt lat="48.2969740" lon="-1.8856430"><ele></ele><time>2017-12-15T22:0:24Z</time></trkpt>
<trkpt lat="48.2969370" lon="-1.8856630"><ele></ele><time>2017-12-15T22:0:27Z</time></trkpt>
<trkpt lat="48.2969070" lon="-1.8856580"><ele></ele><time>2017-12-15T22:0:30Z</time></trkpt>
<trkpt lat="48.2968680" lon="-1.8856610"><ele></ele><time>2017-12-15T22:0:33Z</time></trkpt>
<trkpt lat="48.2968310" lon="-1.8856520"><ele></ele><time>2017-12-15T22:0:36Z</time></trkpt>
<trkpt lat="48.2967990" lon="-1.8856600"><ele></ele><time>2017-12-15T22:0:39Z</time></trkpt>
<trkpt lat="48.2967590" lon="-1.8856910"><ele></ele><time>2017-12-15T22:0:42Z</time></trkpt>
<trkpt lat="48.2967290" lon="-1.8857080"><ele></ele><time>2017-12-15T22:0:45Z</time></trkpt>
<trkpt lat="48.2967000" lon="-1.8857180"><ele></ele><time>2017-12-15T22:0:48Z</time></trkpt>
<trkpt lat="48.2966550" lon="-1.8857170"><ele></ele><time>2017-12-15T22:0:51Z</time></trkpt>
<trkpt lat="48.2965940" lon="-1.8857250"><ele></ele><time>2017-12-15T22:0:54Z</time></trkpt>
<trkpt lat="48.2965820" lon="-1.8857970"><ele></ele><time>2017-12-15T22:0:57Z</time></trkpt>
<trkpt lat="48.2966070" lon="-1.8858400"><ele></ele><time>2017-12-15T22:1:0Z</time></trkpt>
<trkpt lat="48.2965940" lon="-1.8858900"><ele></ele><time>2017-12-15T22:1:3Z</time></trkpt>
<trkpt lat="48.2965530" lon="-1.8859130"><ele></ele><time>2017-12-15T22:1:6Z</time></trkpt>
<trkpt lat="48.2965450" lon="-1.8859610"><ele></ele><time>2017-12-15T22:1:9Z</time></trkpt>
<trkpt lat="48.2965720" lon="-1.8860210"><ele></ele><time>2017-12-15T22:1:12Z</time></trkpt>
<trkpt lat="48.2965890" lon="-1.8860650"><ele></ele><time>2017-12-15T22:1:15Z</time></trkpt>
<trkpt lat="48.2966290" lon="-1.8861290"><ele></ele><time>2017-12-15T22:1:18Z</time></trkpt>
<trkpt lat="48.2966480" lon="-1.8861850"><ele></ele><time>2017-12-15T22:1:21Z</time></trkpt>
<trkpt lat="48.2966730" lon="-1.8862390"><ele></ele><time>2017-12-15T22:1:24Z</time></trkpt>
<trkpt lat="48.2966480" lon="-1.8862690"><ele></ele><time>2017-12-15T22:1:27Z</time></trkpt>
<trkpt lat="48.2966180" lon="-1.8862920"><ele></ele><time>2017-12-15T22:1:30Z</time></trkpt>
<trkpt lat="48.2965820" lon="-1.8863080"><ele></ele><time>2017-12-15T22:1:33Z</time></trkpt>
<trkpt lat="48.2965420" lon="-1.8863360"><ele></ele><time>2017-12-15T22:1:36Z</time></trkpt>
<trkpt lat="48.2965040" lon="-1.8863520"><ele></ele><time>2017-12-15T22:1:39Z</time></trkpt>
<trkpt lat="48.2964650" lon="-1.8863550"><ele></ele><time>2017-12-15T22:1:42Z</time></trkpt>
<trkpt lat="48.2964360" lon="-1.8863540"><ele></ele><time>2017-12-15T22:1:45Z</time></trkpt>
<trkpt lat="48.2964030" lon="-1.8863700"><ele></ele><time>2017-12-15T22:1:48Z</time></trkpt>
<trkpt lat="48.2963770" lon="-1.8863830"><ele></ele><time>2017-12-15T22:1:51Z</time></trkpt>
<trkpt lat="48.2963310" lon="-1.8863890"><ele></ele><time>2017-12-15T22:1:54Z</time></trkpt>
<trkpt lat="48.2962820" lon="-1.8864040"><ele></ele><time>2017-12-15T22:1:57Z</time></trkpt>
<trkpt lat="48.2962520" lon="-1.8864440"><ele></ele><time>2017-12-15T22:2:0Z</time></trkpt>
<trkpt lat="48.2962270" lon="-1.8864660"><ele></ele><time>2017-12-15T22:2:3Z</time></trkpt>
<trkpt lat="48.2961960" lon="-1.8864750"><ele></ele><time>2017-12-15T22:2:6Z</time></trkpt>
<trkpt lat="48.2961740" lon="-1.8865010"><ele></ele><time>2017-12-15T22:2:9Z</time></trkpt>
<trkpt lat="48.2961400" lon="-1.8865290"><ele></ele><time>2017-12-15T22:2:12Z</time></trkpt>
<trkpt lat="48.2961010" lon="-1.8865730"><ele></ele><time>2017-12-15T22:2:15Z</time></trkpt>
<trkpt lat="48.2960860" lon="-1.8866120"><ele></ele><time>2017-12-15T22:2:18Z</time></trkpt>
<trkpt lat="48.2960540" lon="-1.8866470"><ele></ele><time>2017-12-15T22:2:21Z</time></trkpt>
<trkpt lat="48.2960240" lon="-1.8866840"><ele></ele><time>2017-12-15T22:2:24Z</time></trkpt>
<trkpt lat="48.2959940" lon="-1.8866970"><ele></ele><time>2017-12-15T22:2:27Z</time></trkpt>
<trkpt lat="48.2959880" lon="-1.8867390"><ele></ele><time>2017-12-15T22:2:30Z</time></trkpt>
<trkpt lat="48.2959650" lon="-1.8867790"><ele></ele><time>2017-12-15T22:2:33Z</time></trkpt>
<trkpt lat="48.2959540" lon="-1.8868200"><ele></ele><time>2017-12-15T22:2:36Z</time></trkpt>
<trkpt lat="48.2959310" lon="-1.8868480"><ele></ele><time>2017-12-15T22:2:39Z</time></trkpt>
<trkpt lat="48.2959060" lon="-1.8868690"><ele></ele><time>2017-12-15T22:2:42Z</time></trkpt>
<trkpt lat="48.2958790" lon="-1.8868540"><ele></ele><time>2017-12-15T22:2:45Z</time></trkpt>
<trkpt lat="48.2958420" lon="-1.8869010"><ele></ele><time>2017-12-15T22:2:48Z</time></trkpt>
<trkpt lat="48.2958130" lon="-1.8869270"><ele></ele><time>2017-12-15T22:2:51Z</time></trkpt>
<trkpt lat="48.2957870" lon="-1.8869740"><ele></ele><time>2017-12-15T22:2:54Z</time></trkpt>
<trkpt lat="48.2957520" lon="-1.8870090"><ele></ele><time>2017-12-15T22:2:57Z</time></trkpt>
<trkpt lat="48.2957320" lon="-1.8870500"><ele></ele><time>2017-12-15T22:3:0Z</time></trkpt>
<trkpt lat="48.2957030" lon="-1.8870690"><ele></ele><time>2017-12-15T22:3:3Z</time></trkpt>
<trkpt lat="48.2956530" lon="-1.8870900"><ele></ele><time>2017-12-15T22:3:6Z</time></trkpt>
<trkpt lat="48.2956140" lon="-1.8870990"><ele></ele><time>2017-12-15T22:3:9Z</time></trkpt>
<trkpt lat="48.2955830" lon="-1.8871090"><ele></ele><time>2017-12-15T22:3:12Z</time></trkpt>
<trkpt lat="48.2955650" lon="-1.8871400"><ele></ele><time>2017-12-15T22:3:15Z</time></trkpt>
<trkpt lat="48.2955480" lon="-1.8871730"><ele></ele><time>2017-12-15T22:3:18Z</time></trkpt>
<trkpt lat="48.2955280" lon="-1.8872430"><ele></ele><time>2017-12-15T22:3:21Z</time></trkpt>
<trkpt lat="48.2955270" lon="-1.8872840"><ele></ele><time>2017-12-15T22:3:24Z</time></trkpt>
<trkpt lat="48.2955120" lon="-1.8873480"><ele></ele><time>2017-12-15T22:3:27Z</time></trkpt>
<trkpt lat="48.2954840" lon="-1.8874180"><ele></ele><time>2017-12-15T22:3:30Z</time></trkpt>
<trkpt lat="48.2954700" lon="-1.8874660"><ele></ele><time>2017-12-15T22:3:33Z</time></trkpt>
<trkpt lat="48.2954590" lon="-1.8875290"><ele></ele><time>2017-12-15T22:3:36Z</time></trkpt>
<trkpt lat="48.2954300" lon="-1.8875820"><ele></ele><time>2017-12-15T22:3:39Z</time></trkpt>
<trkpt lat="48.2954240" lon="-1.8876220"><ele></ele><time>2017-12-15T22:3:42Z</time></trkpt>
<trkpt lat="48.2954010" lon="-1.8876530"><ele></ele><time>2017-12-15T22:3:45Z</time></trkpt>
<trkpt lat="48.2953800" lon="-1.8876810"><ele></ele><time>2017-12-15T22:3:48Z</time></trkpt>
<trkpt lat="48.2953490" lon="-1.8877100"><ele></ele><time>2017-12-15T22:3:51Z</time></trkpt>
<trkpt lat="48.2953070" lon="-1.8877220"><ele></ele><time>2017-12-15T22:3:54Z</time></trkpt>
<trkpt lat="48.2952740" lon="-1.8877490"><ele></ele><time>2017-12-15T22:3:57Z</time></trkpt>
<trkpt lat="48.2952460" lon="-1.8877470"><ele></ele><time>2017-12-15T22:4:0Z</time></trkpt>
<trkpt lat="48.2952050" lon="-1.8877630"><ele></ele><time>2017-12-15T22:4:3Z</time></trkpt>
<trkpt lat="48.2951830" lon="-1.8877890"><ele></ele><time>2017-12-15T22:4:6Z</time></trkpt>
<trkpt lat="48.2951530" lon="-1.8878530"><ele></ele><time>2017-12-15T22:4:9Z</time></trkpt>
<trkpt lat="48.2951290" lon="-1.8879010"><ele></ele><time>2017-12-15T22:4:12Z</time></trkpt>
<trkpt lat="48.2951190" lon="-1.8879740"><ele></ele><time>2017-12-15T22:4:15Z</time></trkpt>
<trkpt lat="48.2950960" lon="-1.8880430"><ele></ele><time>2017-12-15T22:4:18Z</time></trkpt>
<trkpt lat="48.2950990" lon="-1.8880850"><ele></ele><time>2017-12-15T22:4:21Z</time></trkpt>
<trkpt lat="48.2951000" lon="-1.8881310"><ele></ele><time>2017-12-15T22:4:24Z</time></trkpt>
<trkpt lat="48.2950780" lon="-1.8881630"><ele></ele><time>2017-12-15T22:4:27Z</time></trkpt>
<trkpt lat="48.2950570" lon="-1.8881910"><ele></ele><time>2017-12-15T22:4:30Z</time></trkpt>
<trkpt lat="48.2950360" lon="-1.8882410"><ele></ele><time>2017-12-15T22:4:33Z</time></trkpt>
<trkpt lat="48.2950090" lon="-1.8882690"><ele></ele><time>2017-12-15T22:4:36Z</time></trkpt>
<trkpt lat="48.2950240" lon="-1.8883340"><ele></ele><time>2017-12-15T22:4:39Z</time></trkpt>
<trkpt lat="48.2950210" lon="-1.8883760"><ele></ele><time>2017-12-15T22:4:42Z</time></trkpt>
<trkpt lat="48.2950150" lon="-1.8884230"><ele></ele><time>2017-12-15T22:4:45Z</time></trkpt>
<trkpt lat="48.2950020" lon="-1.8884650"><ele></ele><time>2017-12-15T22:4:48Z</time></trkpt>
<trkpt lat="48.2949800" lon="-1.8884890"><ele></ele><time>2017-12-15T22:4:51Z</time></trkpt>
<trkpt lat="48.2949670" lon="-1.8885310"><ele></ele><time>2017-12-15T22:4:54Z</time></trkpt>
<trkpt lat="48.2949460" lon="-1.8885570"><ele></ele><time>2017-12-15T22:4:57Z</time></trkpt>
<trkpt lat="48.2949620" lon="-1.8886040"><ele></ele><time>2017-12-15T22:5:0Z</time></trkpt>
<trkpt lat="48.2949780" lon="-1.8886600"><ele></ele><time>2017-12-15T22:5:3Z</time></trkpt>
<trkpt lat="48.2949920" lon="-1.8886950"><ele></ele><time>2017-12-15T22:5:6Z</time></trkpt>
<trkpt lat="48.2949910" lon="-1.8887470"><ele></ele><time>2017-12-15T22:5:9Z</time></trkpt>
<trkpt lat="48.2949940" lon="-1.8887980"><ele></ele><time>2017-12-15T22:5:12Z</time></trkpt>
<trkpt lat="48.2949970" lon="-1.8888640"><ele></ele><time>2017-12-15T22:5:15Z</time></trkpt>
<trkpt lat="48.2949820" lon="-1.8889040"><ele></ele><time>2017-12-15T22:5:18Z</time></trkpt>
<trkpt lat="48.2949590" lon="-1.8889820"><ele></ele><time>2017-12-15T22:5:21Z</time></trkpt>
<trkpt lat="48.2949280" lon="-1.8890420"><ele></ele><time>2017-12-15T22:5:24Z</time></trkpt>
<trkpt lat="48.2949150" lon="-1.8890890"><ele></ele><time>2017-12-15T22:5:27Z</time></trkpt>
<trkpt lat="48.2948910" lon="-1.8891250"><ele></ele><time>2017-12-15T22:5:30Z</time></trkpt>
<trkpt lat="48.2948590" lon="-1.8891570"><ele></ele><time>2017-12-15T22:5:33Z</time></trkpt>
<trkpt lat="48.2948870" lon="-1.8891730"><ele></ele><time>2017-12-15T22:5:36Z</time></trkpt>
<trkpt lat="48.2949160" lon="-1.8892110"><ele></ele><time>2017-12-15T22:5:39Z</time></trkpt>
<trkpt lat="48.2949080" lon="-1.8892490"><ele></ele><time>2017-12-15T22:5:42Z</time></trkpt>
<trkpt lat="48.2949080" lon="-1.8893010"><ele></ele><time>2017-12-15T22:5:45Z</time></trkpt>
<trkpt lat="48.2949050" lon="-1.8893480"><ele></ele><time>2017-12-15T22:5:48Z</time></trkpt>
<trkpt lat="48.2948840" lon="-1.8893940"><ele></ele><time>2017-12-15T22:5:51Z</time></trkpt>
<trkpt lat="48.2948670" lon="-1.8894440"><ele></ele><time>2017-12-15T22:5:54Z</time></trkpt>
<trkpt lat="48.2948500" lon="-1.8894880"><ele></ele><time>2017-12-15T22:5:57Z</time></trkpt>
<trkpt lat="48.2948670" lon="-1.8895700"><ele></ele><time>2017-12-15T22:6:0Z</time></trkpt>
<trkpt lat="48.2948700" lon="-1.8896550"><ele></ele><time>2017-12-15T22:6:3Z</time></trkpt>
<trkpt lat="48.2948650" lon="-1.8896990"><ele></ele><time>2017-12-15T22:6:6Z</time></trkpt>
<trkpt lat="48.2948590" lon="-1.8897600"><ele></ele><time>2017-12-15T22:6:9Z</time></trkpt>
<trkpt lat="48.2948590" lon="-1.8898050"><ele></ele><time>2017-12-15T22:6:12Z</time></trkpt>
<trkpt lat="48.2948600" lon="-1.8898500"><ele></ele><time>2017-12-15T22:6:15Z</time></trkpt>
<trkpt lat="48.2948710" lon="-1.8899210"><ele></ele><time>2017-12-15T22:6:18Z</time></trkpt>
<trkpt lat="48.2948960" lon="-1.8900240"><ele></ele><time>2017-12-15T22:6:21Z</time></trkpt>
<trkpt lat="48.2949140" lon="-1.8901140"><ele></ele><time>2017-12-15T22:6:24Z</time></trkpt>
<trkpt lat="48.2949290" lon="-1.8901870"><ele></ele><time>2017-12-15T22:6:27Z</time></trkpt>
<trkpt lat="48.2949260" lon="-1.8902500"><ele></ele><time>2017-12-15T22:6:30Z</time></trkpt>
<trkpt lat="48.2949150" lon="-1.8903100"><ele></ele><time>2017-12-15T22:6:33Z</time></trkpt>
<trkpt lat="48.2948980" lon="-1.8903420"><ele></ele><time>2017-12-15T22:6:36Z</time></trkpt>
<trkpt lat="48.2948880" lon="-1.8903940"><ele></ele><time>2017-12-15T22:6:39Z</time></trkpt>
<trkpt lat="48.2949200" lon="-1.8904550"><ele></ele><time>2017-12-15T22:6:42Z</time></trkpt>
<trkpt lat="48.2949450" lon="-1.8904950"><ele></ele><time>2017-12-15T22:6:45Z</time></trkpt>
<trkpt lat="48.2949760" lon="-1.8905530"><ele></ele><time>2017-12-15T22:6:48Z</time></trkpt>
<trkpt lat="48.2949960" lon="-1.8906070"><ele></ele><time>2017-12-15T22:6:51Z</time></trkpt>
<trkpt lat="48.2950050" lon="-1.8906620"><ele></ele><time>2017-12-15T22:6:54Z</time></trkpt>
<trkpt lat="48.2950090" lon="-1.8907040"><ele></ele><time>2017-12-15T22:6:57Z</time></trkpt>
<trkpt lat="48.2950010" lon="-1.8907560"><ele></ele><time>2017-12-15T22:7:0Z</time></trkpt>
<trkpt lat="48.2949990" lon="-1.8908010"><ele></ele><time>2017-12-15T22:7:3Z</time></trkpt>
<trkpt lat="48.2949810" lon="-1.8908720"><ele></ele><time>2017-12-15T22:7:6Z</time></trkpt>
<trkpt lat="48.2949760" lon="-1.8909360"><ele></ele><time>2017-12-15T22:7:9Z</time></trkpt>
<trkpt lat="48.2949710" lon="-1.8909980"><ele></ele><time>2017-12-15T22:7:12Z</time></trkpt>
<trkpt lat="48.2949780" lon="-1.8910590"><ele></ele><time>2017-12-15T22:7:15Z</time></trkpt>
<trkpt lat="48.2949710" lon="-1.8911210"><ele></ele><time>2017-12-15T22:7:18Z</time></trkpt>
<trkpt lat="48.2949710" lon="-1.8911790"><ele></ele><time>2017-12-15T22:7:21Z</time></trkpt>
<trkpt lat="48.2949780" lon="-1.8912480"><ele></ele><time>2017-12-15T22:7:24Z</time></trkpt>
<trkpt lat="48.2949860" lon="-1.8913090"><ele></ele><time>2017-12-15T22:7:27Z</time></trkpt>
<trkpt lat="48.2949450" lon="-1.8913210"><ele></ele><time>2017-12-15T22:7:30Z</time></trkpt>
<trkpt lat="48.2949110" lon="-1.8913150"><ele></ele><time>2017-12-15T22:7:33Z</time></trkpt>
<trkpt lat="48.2948780" lon="-1.8913240"><ele></ele><time>2017-12-15T22:7:36Z</time></trkpt>
<trkpt lat="48.2948410" lon="-1.8913380"><ele></ele><time>2017-12-15T22:7:39Z</time></trkpt>
<trkpt lat="48.2948100" lon="-1.8913400"><ele></ele><time>2017-12-15T22:7:42Z</time></trkpt>
<trkpt lat="48.2947800" lon="-1.8913500"><ele></ele><time>2017-12-15T22:7:45Z</time></trkpt>
<trkpt lat="48.2947490" lon="-1.8913640"><ele></ele><time>2017-12-15T22:7:48Z</time></trkpt>
<trkpt lat="48.2947010" lon="-1.8913700"><ele></ele><time>2017-12-15T22:7:51Z</time></trkpt>
<trkpt lat="48.2946500" lon="-1.8913810"><ele></ele><time>2017-12-15T22:7:54Z</time></trkpt>
<trkpt lat="48.2946230" lon="-1.8913850"><ele></ele><time>2017-12-15T22:7:57Z</time></trkpt>
<trkpt lat="48.2945850" lon="-1.8913770"><ele></ele><time>2017-12-15T22:8:0Z</time></trkpt>
<trkpt lat="48.2945470" lon="-1.8913800"><ele></ele><time>2017-12-15T22:8:3Z</time></trkpt>
<trkpt lat="48.2945030" lon="-1.8913800"><ele></ele><time>2017-12-15T22:8:6Z</time></trkpt>
<trkpt lat="48.2944760" lon="-1.8913820"><ele></ele><time>2017-12-15T22:8:9Z</time></trkpt>
<trkpt lat="48.2944330" lon="-1.8913890"><ele></ele><time>2017-12-15T22:8:12Z</time></trkpt>
<trkpt lat="48.2944050" lon="-1.8913930"><ele></ele><time>2017-12-15T22:8:15Z</time></trkpt>
<trkpt lat="48.2943700" lon="-1.8914010"><ele></ele><time>2017-12-15T22:8:18Z</time></trkpt>
<trkpt lat="48.2943350" lon="-1.8913950"><ele></ele><time>2017-12-15T22:8:21Z</time></trkpt>
<trkpt lat="48.2943030" lon="-1.8913990"><ele></ele><time>2017-12-15T22:8:24Z</time></trkpt>
<trkpt lat="48.2942750" lon="-1.8913960"><ele></ele><time>2017-12-15T22:8:27Z</time></trkpt>
<trkpt lat="48.2942430" lon="-1.8913860"><ele></ele><time>2017-12-15T22:8:30Z</time></trkpt>
<trkpt lat="48.2941960" lon="-1.8913740"><ele></ele><time>2017-12-15T22:8:33Z</time></trkpt>
<trkpt lat="48.2941510" lon="-1.8913580"><ele></ele><time>2017-12-15T22:8:36Z</time></trkpt>
<trkpt lat="48.2941140" lon="-1.8913310"><ele></ele><time>2017-12-15T22:8:39Z</time></trkpt>
<trkpt lat="48.2940830" lon="-1.8912960"><ele></ele><time>2017-12-15T22:8:42Z</time></trkpt>
<trkpt lat="48.2940510" lon="-1.8912570"><ele></ele><time>2017-12-15T22:8:45Z</time></trkpt>
<trkpt lat="48.2940170" lon="-1.8912210"><ele></ele><time>2017-12-15T22:8:48Z</time></trkpt>
<trkpt lat="48.2939850" lon="-1.8911610"><ele></ele><time>2017-12-15T22:8:51Z</time></trkpt>
<trkpt lat="48.2939450" lon="-1.8911050"><ele></ele><time>2017-12-15T22:8:54Z</time></trkpt>
<trkpt lat="48.2939240" lon="-1.8910750"><ele></ele><time>2017-12-15T22:8:57Z</time></trkpt>
<trkpt lat="48.2938990" lon="-1.8910410"><ele></ele><time>2017-12-15T22:9:0Z</time></trkpt>
<trkpt lat="48.2938760" lon="-1.8910140"><ele></ele><time>2017-12-15T22:9:3Z</time></trkpt>
<trkpt lat="48.2938360" lon="-1.8909740"><ele></ele><time>2017-12-15T22:9:6Z</time></trkpt>
<trkpt lat="48.2937980" lon="-1.8909300"><ele></ele><time>2017-12-15T22:9:9Z</time></trkpt>
<trkpt lat="48.2937750" lon="-1.8909110"><ele></ele><time>2017-12-15T22:9:12Z</time></trkpt>
<trkpt lat="48.2937490" lon="-1.8908920"><ele></ele><time>2017-12-15T22:9:15Z</time></trkpt>
<trkpt lat="48.2937220" lon="-1.8908770"><ele></ele><time>2017-12-15T22:9:18Z</time></trkpt>
<trkpt lat="48.2936930" lon="-1.8908570"><ele></ele><time>2017-12-15T22:9:21Z</time></trkpt>
<trkpt lat="48.2936670" lon="-1.8908350"><ele></ele><time>2017-12-15T22:9:24Z</time></trkpt>
<trkpt lat="48.2936340" lon="-1.8908260"><ele></ele><time>2017-12-15T22:9:27Z</time></trkpt>
<trkpt lat="48.2936010" lon="-1.8908120"><ele></ele><time>2017-12-15T22:9:30Z</time></trkpt>
<trkpt lat="48.2935740" lon="-1.8908000"><ele></ele><time>2017-12-15T22:9:33Z</time></trkpt>
<trkpt lat="48.2935340" lon="-1.8907860"><ele></ele><time>2017-12-15T22:9:36Z</time></trkpt>
<trkpt lat="48.2934810" lon="-1.8907660"><ele></ele><time>2017-12-15T22:9:39Z</time></trkpt>
<trkpt lat="48.2934540" lon="-1.8907590"><ele></ele><time>2017-12-15T22:9:42Z</time></trkpt>
<trkpt lat="48.2934010" lon="-1.8907430"><ele></ele><time>2017-12-15T22:9:45Z</time></trkpt>
<trkpt lat="48.2933730" lon="-1.8907360"><ele></ele><time>2017-12-15T22:9:48Z</time></trkpt>
<trkpt lat="48.2933400" lon="-1.8907260"><ele></ele><time>2017-12-15T22:9:51Z</time></trkpt>
<trkpt lat="48.2933100" lon="-1.8907180"><ele></ele><time>2017-12-15T22:9:54Z</time></trkpt>
<trkpt lat="48.2932810" lon="-1.8907090"><ele></ele><time>2017-12-15T22:9:57Z</time></trkpt>
<trkpt lat="48.2932530" lon="-1.8907010"><ele></ele><time>2017-12-15T22:10:0Z</time></trkpt>
<trkpt lat="48.2932230" lon="-1.8906950"><ele></ele><time>2017-12-15T22:10:3Z</time></trkpt>
<trkpt lat="48.2931910" lon="-1.8906890"><ele></ele><time>2017-12-15T22:10:6Z</time></trkpt>
<trkpt lat="48.2931600" lon="-1.8906750"><ele></ele><time>2017-12-15T22:10:9Z</time></trkpt>
<trkpt lat="48.2931300" lon="-1.8906700"><ele></ele><time>2017-12-15T22:10:12Z</time></trkpt>
<trkpt lat="48.2931000" lon="-1.8906610"><ele></ele><time>2017-12-15T22:10:15Z</time></trkpt>
<trkpt lat="48.2930670" lon="-1.8906570"><ele></ele><time>2017-12-15T22:10:18Z</time></trkpt>
<trkpt lat="48.2930340" lon="-1.8906490"><ele></ele><time>2017-12-15T22:10:21Z</time></trkpt>
<trkpt lat="48.2930030" lon="-1.8906410"><ele></ele><time>2017-12-15T22:10:24Z</time></trkpt>
<trkpt lat="48.2929710" lon="-1.8906320"><ele></ele><time>2017-12-15T22:10:27Z</time></trkpt>
<trkpt lat="48.2929430" lon="-1.8906190"><ele></ele><time>2017-12-15T22:10:30Z</time></trkpt>
<trkpt lat="48.2929140" lon="-1.8906090"><ele></ele><time>2017-12-15T22:10:33Z</time></trkpt>
<trkpt lat="48.2928840" lon="-1.8905980"><ele></ele><time>2017-12-15T22:10:36Z</time></trkpt>
<trkpt lat="48.2928540" lon="-1.8905890"><ele></ele><time>2017-12-15T22:10:39Z</time></trkpt>
<trkpt lat="48.2928210" lon="-1.8905810"><ele></ele><time>2017-12-15T22:10:42Z</time></trkpt>
<trkpt lat="48.2927860" lon="-1.8905730"><ele></ele><time>2017-12-15T22:10:45Z</time></trkpt>
<trkpt lat="48.2927530" lon="-1.8905630"><ele></ele><time>2017-12-15T22:10:48Z</time></trkpt>
<trkpt lat="48.2927210" lon="-1.8905530"><ele></ele><time>2017-12-15T22:10:51Z</time></trkpt>
<trkpt lat="48.2926880" lon="-1.8905420"><ele></ele><time>2017-12-15T22:10:54Z</time></trkpt>
<trkpt lat="48.2926540" lon="-1.8905320"><ele></ele><time>2017-12-15T22:10:57Z</time></trkpt>
<trkpt lat="48.2926200" lon="-1.8905220"><ele></ele><time>2017-12-15T22:11:0Z</time></trkpt>
<trkpt lat="48.2925890" lon="-1.8905150"><ele></ele><time>2017-12-15T22:11:3Z</time></trkpt>
<trkpt lat="48.2925550" lon="-1.8905020"><ele></ele><time>2017-12-15T22:11:6Z</time></trkpt>
<trkpt lat="48.2925230" lon="-1.8904910"><ele></ele><time>2017-12-15T22:11:9Z</time></trkpt>
<trkpt lat="48.2924910" lon="-1.8904840"><ele></ele><time>2017-12-15T22:11:12Z</time></trkpt>
<trkpt lat="48.2924600" lon="-1.8904760"><ele></ele><time>2017-12-15T22:11:15Z</time></trkpt>
<trkpt lat="48.2924280" lon="-1.8904670"><ele></ele><time>2017-12-15T22:11:18Z</time></trkpt>
<trkpt lat="48.2923950" lon="-1.8904570"><ele></ele><time>2017-12-15T22:11:21Z</time></trkpt>
<trkpt lat="48.2923620" lon="-1.8904490"><ele></ele><time>2017-12-15T22:11:24Z</time></trkpt>
<trkpt lat="48.2923300" lon="-1.8904390"><ele></ele><time>2017-12-15T22:11:27Z</time></trkpt>
<trkpt lat="48.2922980" lon="-1.8904290"><ele></ele><time>2017-12-15T22:11:30Z</time></trkpt>
<trkpt lat="48.2922650" lon="-1.8904160"><ele></ele><time>2017-12-15T22:11:33Z</time></trkpt>
<trkpt lat="48.2922310" lon="-1.8904050"><ele></ele><time>2017-12-15T22:11:36Z</time></trkpt>
<trkpt lat="48.2922000" lon="-1.8903930"><ele></ele><time>2017-12-15T22:11:39Z</time></trkpt>
<trkpt lat="48.2921700" lon="-1.8903790"><ele></ele><time>2017-12-15T22:11:42Z</time></trkpt>
<trkpt lat="48.2921420" lon="-1.8903640"><ele></ele><time>2017-12-15T22:11:45Z</time></trkpt>
<trkpt lat="48.2921130" lon="-1.8903470"><ele></ele><time>2017-12-15T22:11:48Z</time></trkpt>
<trkpt lat="48.2920870" lon="-1.8903370"><ele></ele><time>2017-12-15T22:11:51Z</time></trkpt>
<trkpt lat="48.2920400" lon="-1.8903100"><ele></ele><time>2017-12-15T22:11:54Z</time></trkpt>
<trkpt lat="48.2919920" lon="-1.8902830"><ele></ele><time>2017-12-15T22:11:57Z</time></trkpt>
<trkpt lat="48.2919460" lon="-1.8902780"><ele></ele><time>2017-12-15T22:12:0Z</time></trkpt>
<trkpt lat="48.2919230" lon="-1.8902990"><ele></ele><time>2017-12-15T22:12:3Z</time></trkpt>
<trkpt lat="48.2919000" lon="-1.8903260"><ele></ele><time>2017-12-15T22:12:6Z</time></trkpt>
<trkpt lat="48.2918810" lon="-1.8903850"><ele></ele><time>2017-12-15T22:12:9Z</time></trkpt>
<trkpt lat="48.2918820" lon="-1.8904670"><ele></ele><time>2017-12-15T22:12:12Z</time></trkpt>
<trkpt lat="48.2918840" lon="-1.8905100"><ele></ele><time>2017-12-15T22:12:15Z</time></trkpt>
<trkpt lat="48.2918980" lon="-1.8905600"><ele></ele><time>2017-12-15T22:12:18Z</time></trkpt>
<trkpt lat="48.2919110" lon="-1.8906090"><ele></ele><time>2017-12-15T22:12:21Z</time></trkpt>
<trkpt lat="48.2919290" lon="-1.8906550"><ele></ele><time>2017-12-15T22:12:24Z</time></trkpt>
<trkpt lat="48.2919450" lon="-1.8907060"><ele></ele><time>2017-12-15T22:12:27Z</time></trkpt>
<trkpt lat="48.2919630" lon="-1.8907640"><ele></ele><time>2017-12-15T22:12:30Z</time></trkpt>
<trkpt lat="48.2919780" lon="-1.8908200"><ele></ele><time>2017-12-15T22:12:33Z</time></trkpt>
<trkpt lat="48.2919920" lon="-1.8908800"><ele></ele><time>2017-12-15T22:12:36Z</time></trkpt>
<trkpt lat="48.2920090" lon="-1.8909390"><ele></ele><time>2017-12-15T22:12:39Z</time></trkpt>
<trkpt lat="48.2920250" lon="-1.8909980"><ele></ele><time>2017-12-15T22:12:42Z</time></trkpt>
<trkpt lat="48.2920410" lon="-1.8910600"><ele></ele><time>2017-12-15T22:12:45Z</time></trkpt>
<trkpt lat="48.2920510" lon="-1.8911270"><ele></ele><time>2017-12-15T22:12:48Z</time></trkpt>
<trkpt lat="48.2920580" lon="-1.8911860"><ele></ele><time>2017-12-15T22:12:51Z</time></trkpt>
<trkpt lat="48.2920730" lon="-1.8912480"><ele></ele><time>2017-12-15T22:12:54Z</time></trkpt>
<trkpt lat="48.2920900" lon="-1.8913110"><ele></ele><time>2017-12-15T22:12:57Z</time></trkpt>
<trkpt lat="48.2921030" lon="-1.8913780"><ele></ele><time>2017-12-15T22:13:0Z</time></trkpt>
<trkpt lat="48.2921100" lon="-1.8914420"><ele></ele><time>2017-12-15T22:13:3Z</time></trkpt>
<trkpt lat="48.2921160" lon="-1.8914990"><ele></ele><time>2017-12-15T22:13:6Z</time></trkpt>
<trkpt lat="48.2921150" lon="-1.8915530"><ele></ele><time>2017-12-15T22:13:9Z</time></trkpt>
<trkpt lat="48.2921160" lon="-1.8916170"><ele></ele><time>2017-12-15T22:13:12Z</time></trkpt>
<trkpt lat="48.2921160" lon="-1.8916820"><ele></ele><time>2017-12-15T22:13:15Z</time></trkpt>
<trkpt lat="48.2921150" lon="-1.8917450"><ele></ele><time>2017-12-15T22:13:18Z</time></trkpt>
<trkpt lat="48.2921090" lon="-1.8918050"><ele></ele><time>2017-12-15T22:13:21Z</time></trkpt>
<trkpt lat="48.2920980" lon="-1.8918640"><ele></ele><time>2017-12-15T22:13:24Z</time></trkpt>
<trkpt lat="48.2920920" lon="-1.8919230"><ele></ele><time>2017-12-15T22:13:27Z</time></trkpt>
<trkpt lat="48.2920840" lon="-1.8919790"><ele></ele><time>2017-12-15T22:13:30Z</time></trkpt>
<trkpt lat="48.2920710" lon="-1.8920300"><ele></ele><time>2017-12-15T22:13:33Z</time></trkpt>
<trkpt lat="48.2920580" lon="-1.8920790"><ele></ele><time>2017-12-15T22:13:36Z</time></trkpt>
<trkpt lat="48.2920380" lon="-1.8921230"><ele></ele><time>2017-12-15T22:13:39Z</time></trkpt>
<trkpt lat="48.2920240" lon="-1.8921750"><ele></ele><time>2017-12-15T22:13:42Z</time></trkpt>
<trkpt lat="48.2920130" lon="-1.8922170"><ele></ele><time>2017-12-15T22:13:45Z</time></trkpt>
<trkpt lat="48.2919950" lon="-1.8922610"><ele></ele><time>2017-12-15T22:13:48Z</time></trkpt>
<trkpt lat="48.2919780" lon="-1.8923060"><ele></ele><time>2017-12-15T22:13:51Z</time></trkpt>
<trkpt lat="48.2919600" lon="-1.8923590"><ele></ele><time>2017-12-15T22:13:54Z</time></trkpt>
<trkpt lat="48.2919400" lon="-1.8924130"><ele></ele><time>2017-12-15T22:13:57Z</time></trkpt>
<trkpt lat="48.2919200" lon="-1.8924660"><ele></ele><time>2017-12-15T22:14:0Z</time></trkpt>
<trkpt lat="48.2918930" lon="-1.8925150"><ele></ele><time>2017-12-15T22:14:3Z</time></trkpt>
<trkpt lat="48.2918660" lon="-1.8925650"><ele></ele><time>2017-12-15T22:14:6Z</time></trkpt>
<trkpt lat="48.2918380" lon="-1.8926090"><ele></ele><time>2017-12-15T22:14:9Z</time></trkpt>
<trkpt lat="48.2918130" lon="-1.8926560"><ele></ele><time>2017-12-15T22:14:12Z</time></trkpt>
<trkpt lat="48.2917850" lon="-1.8927020"><ele></ele><time>2017-12-15T22:14:15Z</time></trkpt>
<trkpt lat="48.2917560" lon="-1.8927450"><ele></ele><time>2017-12-15T22:14:18Z</time></trkpt>
<trkpt lat="48.2917290" lon="-1.8927910"><ele></ele><time>2017-12-15T22:14:21Z</time></trkpt>
<trkpt lat="48.2916990" lon="-1.8928420"><ele></ele><time>2017-12-15T22:14:24Z</time></trkpt>
<trkpt lat="48.2916670" lon="-1.8928920"><ele></ele><time>2017-12-15T22:14:27Z</time></trkpt>
<trkpt lat="48.2916410" lon="-1.8929490"><ele></ele><time>2017-12-15T22:14:30Z</time></trkpt>
<trkpt lat="48.2916130" lon="-1.8930100"><ele></ele><time>2017-12-15T22:14:33Z</time></trkpt>
<trkpt lat="48.2915830" lon="-1.8930770"><ele></ele><time>2017-12-15T22:14:36Z</time></trkpt>
<trkpt lat="48.2915540" lon="-1.8931490"><ele></ele><time>2017-12-15T22:14:39Z</time></trkpt>
<trkpt lat="48.2915270" lon="-1.8932240"><ele></ele><time>2017-12-15T22:14:42Z</time></trkpt>
<trkpt lat="48.2915040" lon="-1.8933020"><ele></ele><time>2017-12-15T22:14:45Z</time></trkpt>
<trkpt lat="48.2914900" lon="-1.8933780"><ele></ele><time>2017-12-15T22:14:48Z</time></trkpt>
<trkpt lat="48.2914780" lon="-1.8934600"><ele></ele><time>2017-12-15T22:14:51Z</time></trkpt>
<trkpt lat="48.2914700" lon="-1.8935410"><ele></ele><time>2017-12-15T22:14:54Z</time></trkpt>
<trkpt lat="48.2914620" lon="-1.8936250"><ele></ele><time>2017-12-15T22:14:57Z</time></trkpt>
<trkpt lat="48.2914560" lon="-1.8937060"><ele></ele><time>2017-12-15T22:15:0Z</time></trkpt>
<trkpt lat="48.2914500" lon="-1.8937870"><ele></ele><time>2017-12-15T22:15:3Z</time></trkpt>
<trkpt lat="48.2914450" lon="-1.8938660"><ele></ele><time>2017-12-15T22:15:6Z</time></trkpt>
<trkpt lat="48.2914370" lon="-1.8939440"><ele></ele><time>2017-12-15T22:15:9Z</time></trkpt>
<trkpt lat="48.2914260" lon="-1.8940210"><ele></ele><time>2017-12-15T22:15:12Z</time></trkpt>
<trkpt lat="48.2914190" lon="-1.8940940"><ele></ele><time>2017-12-15T22:15:15Z</time></trkpt>
<trkpt lat="48.2914070" lon="-1.8941730"><ele></ele><time>2017-12-15T22:15:18Z</time></trkpt>
<trkpt lat="48.2913950" lon="-1.8942450"><ele></ele><time>2017-12-15T22:15:21Z</time></trkpt>
<trkpt lat="48.2913790" lon="-1.8943180"><ele></ele><time>2017-12-15T22:15:24Z</time></trkpt>
<trkpt lat="48.2913660" lon="-1.8943870"><ele></ele><time>2017-12-15T22:15:27Z</time></trkpt>
<trkpt lat="48.2913510" lon="-1.8944500"><ele></ele><time>2017-12-15T22:15:30Z</time></trkpt>
<trkpt lat="48.2913350" lon="-1.8945110"><ele></ele><time>2017-12-15T22:15:33Z</time></trkpt>
<trkpt lat="48.2913190" lon="-1.8945770"><ele></ele><time>2017-12-15T22:15:36Z</time></trkpt>
<trkpt lat="48.2913000" lon="-1.8946470"><ele></ele><time>2017-12-15T22:15:39Z</time></trkpt>
<trkpt lat="48.2912850" lon="-1.8947190"><ele></ele><time>2017-12-15T22:15:42Z</time></trkpt>
<trkpt lat="48.2912720" lon="-1.8947890"><ele></ele><time>2017-12-15T22:15:45Z</time></trkpt>
<trkpt lat="48.2912560" lon="-1.8948660"><ele></ele><time>2017-12-15T22:15:48Z</time></trkpt>
<trkpt lat="48.2912420" lon="-1.8949400"><ele></ele><time>2017-12-15T22:15:51Z</time></trkpt>
<trkpt lat="48.2912290" lon="-1.8950090"><ele></ele><time>2017-12-15T22:15:54Z</time></trkpt>
<trkpt lat="48.2912110" lon="-1.8950820"><ele></ele><time>2017-12-15T22:15:57Z</time></trkpt>
<trkpt lat="48.2911910" lon="-1.8951510"><ele></ele><time>2017-12-15T22:16:0Z</time></trkpt>
<trkpt lat="48.2911650" lon="-1.8952170"><ele></ele><time>2017-12-15T22:16:3Z</time></trkpt>
<trkpt lat="48.2911450" lon="-1.8952650"><ele></ele><time>2017-12-15T22:16:6Z</time></trkpt>
<trkpt lat="48.2911290" lon="-1.8953010"><ele></ele><time>2017-12-15T22:16:9Z</time></trkpt>
<trkpt lat="48.2911090" lon="-1.8953630"><ele></ele><time>2017-12-15T22:16:12Z</time></trkpt>
<trkpt lat="48.2910990" lon="-1.8954040"><ele></ele><time>2017-12-15T22:16:15Z</time></trkpt>
<trkpt lat="48.2910840" lon="-1.8954530"><ele></ele><time>2017-12-15T22:16:18Z</time></trkpt>
<trkpt lat="48.2910660" lon="-1.8955070"><ele></ele><time>2017-12-15T22:16:21Z</time></trkpt>
<trkpt lat="48.2910470" lon="-1.8955680"><ele></ele><time>2017-12-15T22:16:24Z</time></trkpt>
<trkpt lat="48.2910280" lon="-1.8956270"><ele></ele><time>2017-12-15T22:16:27Z</time></trkpt>
<trkpt lat="48.2910170" lon="-1.8956770"><ele></ele><time>2017-12-15T22:16:30Z</time></trkpt>
<trkpt lat="48.2910090" lon="-1.8957320"><ele></ele><time>2017-12-15T22:16:33Z</time></trkpt>
<trkpt lat="48.2910000" lon="-1.8957960"><ele></ele><time>2017-12-15T22:16:36Z</time></trkpt>
<trkpt lat="48.2910050" lon="-1.8958380"><ele></ele><time>2017-12-15T22:16:39Z</time></trkpt>
<trkpt lat="48.2910030" lon="-1.8958920"><ele></ele><time>2017-12-15T22:16:42Z</time></trkpt>
<trkpt lat="48.2910040" lon="-1.8959770"><ele></ele><time>2017-12-15T22:16:45Z</time></trkpt>
<trkpt lat="48.2910100" lon="-1.8960320"><ele></ele><time>2017-12-15T22:16:48Z</time></trkpt>
<trkpt lat="48.2910160" lon="-1.8960990"><ele></ele><time>2017-12-15T22:16:51Z</time></trkpt>
<trkpt lat="48.2910230" lon="-1.8961740"><ele></ele><time>2017-12-15T22:16:54Z</time></trkpt>
<trkpt lat="48.2910310" lon="-1.8962560"><ele></ele><time>2017-12-15T22:16:57Z</time></trkpt>
<trkpt lat="48.2910430" lon="-1.8963300"><ele></ele><time>2017-12-15T22:17:0Z</time></trkpt>
<trkpt lat="48.2910480" lon="-1.8964350"><ele></ele><time>2017-12-15T22:17:3Z</time></trkpt>
<trkpt lat="48.2910630" lon="-1.8965290"><ele></ele><time>2017-12-15T22:17:6Z</time></trkpt>
<trkpt lat="48.2910900" lon="-1.8966230"><ele></ele><time>2017-12-15T22:17:9Z</time></trkpt>
<trkpt lat="48.2911210" lon="-1.8966920"><ele></ele><time>2017-12-15T22:17:12Z</time></trkpt>
<trkpt lat="48.2911740" lon="-1.8967290"><ele></ele><time>2017-12-15T22:17:15Z</time></trkpt>
<trkpt lat="48.2912270" lon="-1.8967360"><ele></ele><time>2017-12-15T22:17:18Z</time></trkpt>
<trkpt lat="48.2912770" lon="-1.8967470"><ele></ele><time>2017-12-15T22:17:21Z</time></trkpt>
<trkpt lat="48.2913270" lon="-1.8967550"><ele></ele><time>2017-12-15T22:17:24Z</time></trkpt>
<trkpt lat="48.2913620" lon="-1.8967530"><ele></ele><time>2017-12-15T22:17:27Z</time></trkpt>
<trkpt lat="48.2913810" lon="-1.8967230"><ele></ele><time>2017-12-15T22:17:30Z</time></trkpt>
<trkpt lat="48.2914150" lon="-1.8967440"><ele></ele><time>2017-12-15T22:17:33Z</time></trkpt>
<trkpt lat="48.2914390" lon="-1.8967650"><ele></ele><time>2017-12-15T22:17:36Z</time></trkpt>
<trkpt lat="48.2914840" lon="-1.8968350"><ele></ele><time>2017-12-15T22:17:39Z</time></trkpt>
<trkpt lat="48.2915300" lon="-1.8968950"><ele></ele><time>2017-12-15T22:17:42Z</time></trkpt>
<trkpt lat="48.2915650" lon="-1.8969690"><ele></ele><time>2017-12-15T22:17:45Z</time></trkpt>
<trkpt lat="48.2915980" lon="-1.8970350"><ele></ele><time>2017-12-15T22:17:48Z</time></trkpt>
<trkpt lat="48.2916340" lon="-1.8970850"><ele></ele><time>2017-12-15T22:17:51Z</time></trkpt>
<trkpt lat="48.2916830" lon="-1.8971300"><ele></ele><time>2017-12-15T22:17:54Z</time></trkpt>
<trkpt lat="48.2917230" lon="-1.8971670"><ele></ele><time>2017-12-15T22:17:57Z</time></trkpt>
<trkpt lat="48.2917500" lon="-1.8972180"><ele></ele><time>2017-12-15T22:18:0Z</time></trkpt>
<trkpt lat="48.2917860" lon="-1.8972760"><ele></ele><time>2017-12-15T22:18:3Z</time></trkpt>
<trkpt lat="48.2918250" lon="-1.8973290"><ele></ele><time>2017-12-15T22:18:6Z</time></trkpt>
<trkpt lat="48.2918630" lon="-1.8973850"><ele></ele><time>2017-12-15T22:18:9Z</time></trkpt>
<trkpt lat="48.2919120" lon="-1.8974330"><ele></ele><time>2017-12-15T22:18:12Z</time></trkpt>
<trkpt lat="48.2919460" lon="-1.8974890"><ele></ele><time>2017-12-15T22:18:15Z</time></trkpt>
<trkpt lat="48.2919720" lon="-1.8975460"><ele></ele><time>2017-12-15T22:18:18Z</time></trkpt>
<trkpt lat="48.2919980" lon="-1.8976040"><ele></ele><time>2017-12-15T22:18:21Z</time></trkpt>
<trkpt lat="48.2919840" lon="-1.8976650"><ele></ele><time>2017-12-15T22:18:24Z</time></trkpt>
<trkpt lat="48.2919750" lon="-1.8977320"><ele></ele><time>2017-12-15T22:18:27Z</time></trkpt>
<trkpt lat="48.2919720" lon="-1.8977880"><ele></ele><time>2017-12-15T22:18:30Z</time></trkpt>
<trkpt lat="48.2919850" lon="-1.8978330"><ele></ele><time>2017-12-15T22:18:33Z</time></trkpt>
<trkpt lat="48.2920240" lon="-1.8978700"><ele></ele><time>2017-12-15T22:18:36Z</time></trkpt>
<trkpt lat="48.2920560" lon="-1.8978560"><ele></ele><time>2017-12-15T22:18:39Z</time></trkpt>
<trkpt lat="48.2920850" lon="-1.8978680"><ele></ele><time>2017-12-15T22:18:42Z</time></trkpt>
<trkpt lat="48.2921100" lon="-1.8978910"><ele></ele><time>2017-12-15T22:18:45Z</time></trkpt>
<trkpt lat="48.2921350" lon="-1.8979140"><ele></ele><time>2017-12-15T22:18:48Z</time></trkpt>
<trkpt lat="48.2921570" lon="-1.8979450"><ele></ele><time>2017-12-15T22:18:51Z</time></trkpt>
<trkpt lat="48.2921690" lon="-1.8979890"><ele></ele><time>2017-12-15T22:18:54Z</time></trkpt>
<trkpt lat="48.2921820" lon="-1.8980320"><ele></ele><time>2017-12-15T22:18:57Z</time></trkpt>
<trkpt lat="48.2921950" lon="-1.8980910"><ele></ele><time>2017-12-15T22:19:0Z</time></trkpt>
<trkpt lat="48.2921990" lon="-1.8981460"><ele></ele><time>2017-12-15T22:19:3Z</time></trkpt>
<trkpt lat="48.2922130" lon="-1.8982080"><ele></ele><time>2017-12-15T22:19:6Z</time></trkpt>
<trkpt lat="48.2922460" lon="-1.8982430"><ele></ele><time>2017-12-15T22:19:9Z</time></trkpt>
<trkpt lat="48.2922730" lon="-1.8982740"><ele></ele><time>2017-12-15T22:19:12Z</time></trkpt>
<trkpt lat="48.2923110" lon="-1.8982900"><ele></ele><time>2017-12-15T22:19:15Z</time></trkpt>
<trkpt lat="48.2923380" lon="-1.8983190"><ele></ele><time>2017-12-15T22:19:18Z</time></trkpt>
<trkpt lat="48.2923670" lon="-1.8983310"><ele></ele><time>2017-12-15T22:19:21Z</time></trkpt>
<trkpt lat="48.2923950" lon="-1.8983480"><ele></ele><time>2017-12-15T22:19:24Z</time></trkpt>
<trkpt lat="48.2924240" lon="-1.8983730"><ele></ele><time>2017-12-15T22:19:27Z</time></trkpt>
<trkpt lat="48.2924520" lon="-1.8983960"><ele></ele><time>2017-12-15T22:19:30Z</time></trkpt>
<trkpt lat="48.2924810" lon="-1.8984150"><ele></ele><time>2017-12-15T22:19:33Z</time></trkpt>
<trkpt lat="48.2925130" lon="-1.8984380"><ele></ele><time>2017-12-15T22:19:36Z</time></trkpt>
<trkpt lat="48.2925490" lon="-1.8984660"><ele></ele><time>2017-12-15T22:19:39Z</time></trkpt>
<trkpt lat="48.2925820" lon="-1.8984740"><ele></ele><time>2017-12-15T22:19:42Z</time></trkpt>
<trkpt lat="48.2926100" lon="-1.8984960"><ele></ele><time>2017-12-15T22:19:45Z</time></trkpt>
<trkpt lat="48.2926420" lon="-1.8985130"><ele></ele><time>2017-12-15T22:19:48Z</time></trkpt>
<trkpt lat="48.2926660" lon="-1.8985290"><ele></ele><time>2017-12-15T22:19:51Z</time></trkpt>
<trkpt lat="48.2926980" lon="-1.8985360"><ele></ele><time>2017-12-15T22:19:54Z</time></trkpt>
<trkpt lat="48.2927340" lon="-1.8985480"><ele></ele><time>2017-12-15T22:19:57Z</time></trkpt>
<trkpt lat="48.2927630" lon="-1.8985630"><ele></ele><time>2017-12-15T22:20:0Z</time></trkpt>
<trkpt lat="48.2927960" lon="-1.8985680"><ele></ele><time>2017-12-15T22:20:3Z</time></trkpt>
<trkpt lat="48.2928240" lon="-1.8985790"><ele></ele><time>2017-12-15T22:20:6Z</time></trkpt>
<trkpt lat="48.2928510" lon="-1.8985980"><ele></ele><time>2017-12-15T22:20:9Z</time></trkpt>
<trkpt lat="48.2928790" lon="-1.8986050"><ele></ele><time>2017-12-15T22:20:12Z</time></trkpt>
<trkpt lat="48.2929070" lon="-1.8986310"><ele></ele><time>2017-12-15T22:20:15Z</time></trkpt>
<trkpt lat="48.2929300" lon="-1.8986660"><ele></ele><time>2017-12-15T22:20:18Z</time></trkpt>
<trkpt lat="48.2929640" lon="-1.8986620"><ele></ele><time>2017-12-15T22:20:21Z</time></trkpt>
<trkpt lat="48.2930010" lon="-1.8986480"><ele></ele><time>2017-12-15T22:20:24Z</time></trkpt>
<trkpt lat="48.2930330" lon="-1.8986380"><ele></ele><time>2017-12-15T22:20:27Z</time></trkpt>
<trkpt lat="48.2930610" lon="-1.8986370"><ele></ele><time>2017-12-15T22:20:30Z</time></trkpt>
<trkpt lat="48.2930890" lon="-1.8986270"><ele></ele><time>2017-12-15T22:20:33Z</time></trkpt>
<trkpt lat="48.2931310" lon="-1.8986250"><ele></ele><time>2017-12-15T22:20:36Z</time></trkpt>
<trkpt lat="48.2931720" lon="-1.8986180"><ele></ele><time>2017-12-15T22:20:39Z</time></trkpt>
<trkpt lat="48.2932170" lon="-1.8986190"><ele></ele><time>2017-12-15T22:20:42Z</time></trkpt>
<trkpt lat="48.2932500" lon="-1.8986180"><ele></ele><time>2017-12-15T22:20:45Z</time></trkpt>
<trkpt lat="48.2933040" lon="-1.8986200"><ele></ele><time>2017-12-15T22:20:48Z</time></trkpt>
<trkpt lat="48.2933530" lon="-1.8986330"><ele></ele><time>2017-12-15T22:20:51Z</time></trkpt>
<trkpt lat="48.2933950" lon="-1.8986520"><ele></ele><time>2017-12-15T22:20:54Z</time></trkpt>
<trkpt lat="48.2934400" lon="-1.8986820"><ele></ele><time>2017-12-15T22:20:57Z</time></trkpt>
<trkpt lat="48.2934660" lon="-1.8987040"><ele></ele><time>2017-12-15T22:21:0Z</time></trkpt>
<trkpt lat="48.2935150" lon="-1.8987370"><ele></ele><time>2017-12-15T22:21:3Z</time></trkpt>
<trkpt lat="48.2935450" lon="-1.8987660"><ele></ele><time>2017-12-15T22:21:6Z</time></trkpt>
<trkpt lat="48.2935410" lon="-1.8988400"><ele></ele><time>2017-12-15T22:21:9Z</time></trkpt>
<trkpt lat="48.2935330" lon="-1.8989190"><ele></ele><time>2017-12-15T22:21:12Z</time></trkpt>
<trkpt lat="48.2935360" lon="-1.8989600"><ele></ele><time>2017-12-15T22:21:15Z</time></trkpt>
<trkpt lat="48.2935410" lon="-1.8990060"><ele></ele><time>2017-12-15T22:21:18Z</time></trkpt>
<trkpt lat="48.2935610" lon="-1.8990430"><ele></ele><time>2017-12-15T22:21:21Z</time></trkpt>
<trkpt lat="48.2935700" lon="-1.8991170"><ele></ele><time>2017-12-15T22:21:24Z</time></trkpt>
<trkpt lat="48.2935780" lon="-1.8991770"><ele></ele><time>2017-12-15T22:21:27Z</time></trkpt>
<trkpt lat="48.2935770" lon="-1.8992210"><ele></ele><time>2017-12-15T22:21:30Z</time></trkpt>
<trkpt lat="48.2935630" lon="-1.8992700"><ele></ele><time>2017-12-15T22:21:33Z</time></trkpt>
<trkpt lat="48.2935760" lon="-1.8993260"><ele></ele><time>2017-12-15T22:21:36Z</time></trkpt>
<trkpt lat="48.2935870" lon="-1.8993870"><ele></ele><time>2017-12-15T22:21:39Z</time></trkpt>
<trkpt lat="48.2936020" lon="-1.8994550"><ele></ele><time>2017-12-15T22:21:42Z</time></trkpt>
<trkpt lat="48.2936210" lon="-1.8995210"><ele></ele><time>2017-12-15T22:21:45Z</time></trkpt>
<trkpt lat="48.2936380" lon="-1.8995870"><ele></ele><time>2017-12-15T22:21:48Z</time></trkpt>
<trkpt lat="48.2936520" lon="-1.8996610"><ele></ele><time>2017-12-15T22:21:51Z</time></trkpt>
<trkpt lat="48.2936710" lon="-1.8997390"><ele></ele><time>2017-12-15T22:21:54Z</time></trkpt>
<trkpt lat="48.2936810" lon="-1.8997790"><ele></ele><time>2017-12-15T22:21:57Z</time></trkpt>
<trkpt lat="48.2936920" lon="-1.8998180"><ele></ele><time>2017-12-15T22:22:0Z</time></trkpt>
<trkpt lat="48.2937020" lon="-1.8998610"><ele></ele><time>2017-12-15T22:22:3Z</time></trkpt>
<trkpt lat="48.2937140" lon="-1.8999070"><ele></ele><time>2017-12-15T22:22:6Z</time></trkpt>
<trkpt lat="48.2937270" lon="-1.8999530"><ele></ele><time>2017-12-15T22:22:9Z</time></trkpt>
<trkpt lat="48.2937400" lon="-1.8999940"><ele></ele><time>2017-12-15T22:22:12Z</time></trkpt>
<trkpt lat="48.2937560" lon="-1.9000370"><ele></ele><time>2017-12-15T22:22:15Z</time></trkpt>
<trkpt lat="48.2937730" lon="-1.9000800"><ele></ele><time>2017-12-15T22:22:18Z</time></trkpt>
<trkpt lat="48.2937870" lon="-1.9001300"><ele></ele><time>2017-12-15T22:22:21Z</time></trkpt>
<trkpt lat="48.2938020" lon="-1.9001780"><ele></ele><time>2017-12-15T22:22:24Z</time></trkpt>
<trkpt lat="48.2938150" lon="-1.9002260"><ele></ele><time>2017-12-15T22:22:27Z</time></trkpt>
<trkpt lat="48.2938270" lon="-1.9002740"><ele></ele><time>2017-12-15T22:22:30Z</time></trkpt>
<trkpt lat="48.2938380" lon="-1.9003260"><ele></ele><time>2017-12-15T22:22:33Z</time></trkpt>
<trkpt lat="48.2938510" lon="-1.9003740"><ele></ele><time>2017-12-15T22:22:36Z</time></trkpt>
<trkpt lat="48.2938590" lon="-1.9004320"><ele></ele><time>2017-12-15T22:22:39Z</time></trkpt>
<trkpt lat="48.2938660" lon="-1.9004850"><ele></ele><time>2017-12-15T22:22:42Z</time></trkpt>
<trkpt lat="48.2938730" lon="-1.9005400"><ele></ele><time>2017-12-15T22:22:45Z</time></trkpt>
<trkpt lat="48.2938790" lon="-1.9005950"><ele></ele><time>2017-12-15T22:22:48Z</time></trkpt>
<trkpt lat="48.2938830" lon="-1.9006510"><ele></ele><time>2017-12-15T22:22:51Z</time></trkpt>
<trkpt lat="48.2938890" lon="-1.9007060"><ele></ele><time>2017-12-15T22:22:54Z</time></trkpt>
<trkpt lat="48.2938930" lon="-1.9007670"><ele></ele><time>2017-12-15T22:22:57Z</time></trkpt>
<trkpt lat="48.2938980" lon="-1.9008260"><ele></ele><time>2017-12-15T22:23:0Z</time></trkpt>
<trkpt lat="48.2939050" lon="-1.9008850"><ele></ele><time>2017-12-15T22:23:3Z</time></trkpt>
<trkpt lat="48.2939100" lon="-1.9009450"><ele></ele><time>2017-12-15T22:23:6Z</time></trkpt>
<trkpt lat="48.2939160" lon="-1.9010020"><ele></ele><time>2017-12-15T22:23:9Z</time></trkpt>
<trkpt lat="48.2939210" lon="-1.9010600"><ele></ele><time>2017-12-15T22:23:12Z</time></trkpt>
<trkpt lat="48.2939240" lon="-1.9011210"><ele></ele><time>2017-12-15T22:23:15Z</time></trkpt>
<trkpt lat="48.2939310" lon="-1.9011790"><ele></ele><time>2017-12-15T22:23:18Z</time></trkpt>
<trkpt lat="48.2939380" lon="-1.9012360"><ele></ele><time>2017-12-15T22:23:21Z</time></trkpt>
<trkpt lat="48.2939460" lon="-1.9012950"><ele></ele><time>2017-12-15T22:23:24Z</time></trkpt>
<trkpt lat="48.2939520" lon="-1.9013540"><ele></ele><time>2017-12-15T22:23:27Z</time></trkpt>
<trkpt lat="48.2939560" lon="-1.9014130"><ele></ele><time>2017-12-15T22:23:30Z</time></trkpt>
<trkpt lat="48.2939640" lon="-1.9014720"><ele></ele><time>2017-12-15T22:23:33Z</time></trkpt>
<trkpt lat="48.2939710" lon="-1.9015280"><ele></ele><time>2017-12-15T22:23:36Z</time></trkpt>
<trkpt lat="48.2939750" lon="-1.9015850"><ele></ele><time>2017-12-15T22:23:39Z</time></trkpt>
<trkpt lat="48.2939810" lon="-1.9016410"><ele></ele><time>2017-12-15T22:23:42Z</time></trkpt>
<trkpt lat="48.2939870" lon="-1.9016980"><ele></ele><time>2017-12-15T22:23:45Z</time></trkpt>
<trkpt lat="48.2939950" lon="-1.9017540"><ele></ele><time>2017-12-15T22:23:48Z</time></trkpt>
<trkpt lat="48.2940000" lon="-1.9018130"><ele></ele><time>2017-12-15T22:23:51Z</time></trkpt>
<trkpt lat="48.2940050" lon="-1.9018710"><ele></ele><time>2017-12-15T22:23:54Z</time></trkpt>
<trkpt lat="48.2940110" lon="-1.9019250"><ele></ele><time>2017-12-15T22:23:57Z</time></trkpt>
<trkpt lat="48.2940150" lon="-1.9019750"><ele></ele><time>2017-12-15T22:24:0Z</time></trkpt>
<trkpt lat="48.2940200" lon="-1.9020300"><ele></ele><time>2017-12-15T22:24:3Z</time></trkpt>
<trkpt lat="48.2940250" lon="-1.9020800"><ele></ele><time>2017-12-15T22:24:6Z</time></trkpt>
<trkpt lat="48.2940300" lon="-1.9021310"><ele></ele><time>2017-12-15T22:24:9Z</time></trkpt>
<trkpt lat="48.2940340" lon="-1.9021850"><ele></ele><time>2017-12-15T22:24:12Z</time></trkpt>
<trkpt lat="48.2940360" lon="-1.9022390"><ele></ele><time>2017-12-15T22:24:15Z</time></trkpt>
<trkpt lat="48.2940450" lon="-1.9022910"><ele></ele><time>2017-12-15T22:24:18Z</time></trkpt>
<trkpt lat="48.2940660" lon="-1.9023320"><ele></ele><time>2017-12-15T22:24:21Z</time></trkpt>
<trkpt lat="48.2940970" lon="-1.9023540"><ele></ele><time>2017-12-15T22:24:24Z</time></trkpt>
<trkpt lat="48.2941350" lon="-1.9023520"><ele></ele><time>2017-12-15T22:24:27Z</time></trkpt>
<trkpt lat="48.2941710" lon="-1.9023400"><ele></ele><time>2017-12-15T22:24:30Z</time></trkpt>
<trkpt lat="48.2942070" lon="-1.9023180"><ele></ele><time>2017-12-15T22:24:33Z</time></trkpt>
<trkpt lat="48.2942410" lon="-1.9022920"><ele></ele><time>2017-12-15T22:24:36Z</time></trkpt>
<trkpt lat="48.2942760" lon="-1.9022690"><ele></ele><time>2017-12-15T22:24:39Z</time></trkpt>
<trkpt lat="48.2943080" lon="-1.9022460"><ele></ele><time>2017-12-15T22:24:42Z</time></trkpt>
<trkpt lat="48.2943430" lon="-1.9022240"><ele></ele><time>2017-12-15T22:24:45Z</time></trkpt>
<trkpt lat="48.2943770" lon="-1.9022040"><ele></ele><time>2017-12-15T22:24:48Z</time></trkpt>
<trkpt lat="48.2944100" lon="-1.9021830"><ele></ele><time>2017-12-15T22:24:51Z</time></trkpt>
<trkpt lat="48.2944450" lon="-1.9021620"><ele></ele><time>2017-12-15T22:24:54Z</time></trkpt>
<trkpt lat="48.2944770" lon="-1.9021400"><ele></ele><time>2017-12-15T22:24:57Z</time></trkpt>
<trkpt lat="48.2945100" lon="-1.9021190"><ele></ele><time>2017-12-15T22:25:0Z</time></trkpt>
<trkpt lat="48.2945420" lon="-1.9020980"><ele></ele><time>2017-12-15T22:25:3Z</time></trkpt>
<trkpt lat="48.2945760" lon="-1.9020760"><ele></ele><time>2017-12-15T22:25:6Z</time></trkpt>
<trkpt lat="48.2946100" lon="-1.9020550"><ele></ele><time>2017-12-15T22:25:9Z</time></trkpt>
<trkpt lat="48.2946430" lon="-1.9020350"><ele></ele><time>2017-12-15T22:25:12Z</time></trkpt>
<trkpt lat="48.2946760" lon="-1.9020120"><ele></ele><time>2017-12-15T22:25:15Z</time></trkpt>
<trkpt lat="48.2947070" lon="-1.9019900"><ele></ele><time>2017-12-15T22:25:18Z</time></trkpt>
<trkpt lat="48.2947390" lon="-1.9019680"><ele></ele><time>2017-12-15T22:25:21Z</time></trkpt>
<trkpt lat="48.2947700" lon="-1.9019520"><ele></ele><time>2017-12-15T22:25:24Z</time></trkpt>
<trkpt lat="48.2948020" lon="-1.9019370"><ele></ele><time>2017-12-15T22:25:27Z</time></trkpt>
<trkpt lat="48.2948320" lon="-1.9019200"><ele></ele><time>2017-12-15T22:25:30Z</time></trkpt>
<trkpt lat="48.2948620" lon="-1.9019000"><ele></ele><time>2017-12-15T22:25:33Z</time></trkpt>
<trkpt lat="48.2949020" lon="-1.9018620"><ele></ele><time>2017-12-15T22:25:36Z</time></trkpt>
<trkpt lat="48.2949240" lon="-1.9018320"><ele></ele><time>2017-12-15T22:25:39Z</time></trkpt>
<trkpt lat="48.2949530" lon="-1.9018130"><ele></ele><time>2017-12-15T22:25:42Z</time></trkpt>
<trkpt lat="48.2949790" lon="-1.9018380"><ele></ele><time>2017-12-15T22:25:45Z</time></trkpt>
<trkpt lat="48.2950050" lon="-1.9018720"><ele></ele><time>2017-12-15T22:25:48Z</time></trkpt>
<trkpt lat="48.2950340" lon="-1.9018940"><ele></ele><time>2017-12-15T22:25:51Z</time></trkpt>
<trkpt lat="48.2950510" lon="-1.9019510"><ele></ele><time>2017-12-15T22:25:54Z</time></trkpt>
<trkpt lat="48.2950660" lon="-1.9019950"><ele></ele><time>2017-12-15T22:25:57Z</time></trkpt>
<trkpt lat="48.2950770" lon="-1.9020370"><ele></ele><time>2017-12-15T22:26:0Z</time></trkpt>
<trkpt lat="48.2950960" lon="-1.9020750"><ele></ele><time>2017-12-15T22:26:3Z</time></trkpt>
<trkpt lat="48.2951160" lon="-1.9021520"><ele></ele><time>2017-12-15T22:26:6Z</time></trkpt>
<trkpt lat="48.2951290" lon="-1.9021900"><ele></ele><time>2017-12-15T22:26:9Z</time></trkpt>
<trkpt lat="48.2951400" lon="-1.9022350"><ele></ele><time>2017-12-15T22:26:12Z</time></trkpt>
<trkpt lat="48.2951630" lon="-1.9022560"><ele></ele><time>2017-12-15T22:26:15Z</time></trkpt>
<trkpt lat="48.2951920" lon="-1.9022610"><ele></ele><time>2017-12-15T22:26:18Z</time></trkpt>
<trkpt lat="48.2952330" lon="-1.9022680"><ele></ele><time>2017-12-15T22:26:21Z</time></trkpt>
<trkpt lat="48.2952730" lon="-1.9022610"><ele></ele><time>2017-12-15T22:26:24Z</time></trkpt>
<trkpt lat="48.2953310" lon="-1.9022500"><ele></ele><time>2017-12-15T22:26:27Z</time></trkpt>
<trkpt lat="48.2953570" lon="-1.9022320"><ele></ele><time>2017-12-15T22:26:30Z</time></trkpt>
<trkpt lat="48.2953830" lon="-1.9022130"><ele></ele><time>2017-12-15T22:26:33Z</time></trkpt>
<trkpt lat="48.2954100" lon="-1.9021940"><ele></ele><time>2017-12-15T22:26:36Z</time></trkpt>
<trkpt lat="48.2954360" lon="-1.9021750"><ele></ele><time>2017-12-15T22:26:39Z</time></trkpt>
<trkpt lat="48.2954620" lon="-1.9021570"><ele></ele><time>2017-12-15T22:26:42Z</time></trkpt>
<trkpt lat="48.2954880" lon="-1.9021380"><ele></ele><time>2017-12-15T22:26:45Z</time></trkpt>
<trkpt lat="48.2955090" lon="-1.9021020"><ele></ele><time>2017-12-15T22:26:48Z</time></trkpt>
<trkpt lat="48.2955240" lon="-1.9020580"><ele></ele><time>2017-12-15T22:26:51Z</time></trkpt>
<trkpt lat="48.2955030" lon="-1.9020880"><ele></ele><time>2017-12-15T22:26:54Z</time></trkpt>
<trkpt lat="48.2955270" lon="-1.9020490"><ele></ele><time>2017-12-15T22:26:57Z</time></trkpt>
<trkpt lat="48.2955480" lon="-1.9020180"><ele></ele><time>2017-12-15T22:27:0Z</time></trkpt>
<trkpt lat="48.2955580" lon="-1.9019710"><ele></ele><time>2017-12-15T22:27:3Z</time></trkpt>
<trkpt lat="48.2955980" lon="-1.9018970"><ele></ele><time>2017-12-15T22:27:6Z</time></trkpt>
<trkpt lat="48.2956360" lon="-1.9018710"><ele></ele><time>2017-12-15T22:27:9Z</time></trkpt>
<trkpt lat="48.2956660" lon="-1.9018370"><ele></ele><time>2017-12-15T22:27:12Z</time></trkpt>
<trkpt lat="48.2957040" lon="-1.9018130"><ele></ele><time>2017-12-15T22:27:15Z</time></trkpt>
<trkpt lat="48.2957340" lon="-1.9018370"><ele></ele><time>2017-12-15T22:27:18Z</time></trkpt>
<trkpt lat="48.2957640" lon="-1.9019060"><ele></ele><time>2017-12-15T22:27:21Z</time></trkpt>
<trkpt lat="48.2957930" lon="-1.9019840"><ele></ele><time>2017-12-15T22:27:24Z</time></trkpt>
<trkpt lat="48.2958060" lon="-1.9020290"><ele></ele><time>2017-12-15T22:27:27Z</time></trkpt>
<trkpt lat="48.2958130" lon="-1.9020780"><ele></ele><time>2017-12-15T22:27:30Z</time></trkpt>
<trkpt lat="48.2958190" lon="-1.9021260"><ele></ele><time>2017-12-15T22:27:33Z</time></trkpt>
<trkpt lat="48.2958380" lon="-1.9021640"><ele></ele><time>2017-12-15T22:27:36Z</time></trkpt>
<trkpt lat="48.2958760" lon="-1.9021940"><ele></ele><time>2017-12-15T22:27:39Z</time></trkpt>
<trkpt lat="48.2959150" lon="-1.9021850"><ele></ele><time>2017-12-15T22:27:42Z</time></trkpt>
<trkpt lat="48.2959600" lon="-1.9021850"><ele></ele><time>2017-12-15T22:27:45Z</time></trkpt>
<trkpt lat="48.2959980" lon="-1.9022030"><ele></ele><time>2017-12-15T22:27:48Z</time></trkpt>
<trkpt lat="48.2960200" lon="-1.9022500"><ele></ele><time>2017-12-15T22:27:51Z</time></trkpt>
<trkpt lat="48.2960370" lon="-1.9022840"><ele></ele><time>2017-12-15T22:27:54Z</time></trkpt>
<trkpt lat="48.2960320" lon="-1.9023290"><ele></ele><time>2017-12-15T22:27:57Z</time></trkpt>
<trkpt lat="48.2960360" lon="-1.9023750"><ele></ele><time>2017-12-15T22:28:0Z</time></trkpt>
<trkpt lat="48.2960530" lon="-1.9024360"><ele></ele><time>2017-12-15T22:28:3Z</time></trkpt>
<trkpt lat="48.2960580" lon="-1.9024980"><ele></ele><time>2017-12-15T22:28:6Z</time></trkpt>
<trkpt lat="48.2960660" lon="-1.9025420"><ele></ele><time>2017-12-15T22:28:9Z</time></trkpt>
<trkpt lat="48.2960840" lon="-1.9025740"><ele></ele><time>2017-12-15T22:28:12Z</time></trkpt>
<trkpt lat="48.2961100" lon="-1.9026240"><ele></ele><time>2017-12-15T22:28:15Z</time></trkpt>
<trkpt lat="48.2961350" lon="-1.9026650"><ele></ele><time>2017-12-15T22:28:18Z</time></trkpt>
<trkpt lat="48.2961740" lon="-1.9026740"><ele></ele><time>2017-12-15T22:28:21Z</time></trkpt>
<trkpt lat="48.2961920" lon="-1.9027210"><ele></ele><time>2017-12-15T22:28:24Z</time></trkpt>
<trkpt lat="48.2962050" lon="-1.9027700"><ele></ele><time>2017-12-15T22:28:27Z</time></trkpt>
<trkpt lat="48.2962180" lon="-1.9028280"><ele></ele><time>2017-12-15T22:28:30Z</time></trkpt>
<trkpt lat="48.2962330" lon="-1.9028850"><ele></ele><time>2017-12-15T22:28:33Z</time></trkpt>
<trkpt lat="48.2962420" lon="-1.9029460"><ele></ele><time>2017-12-15T22:28:36Z</time></trkpt>
<trkpt lat="48.2962570" lon="-1.9030190"><ele></ele><time>2017-12-15T22:28:39Z</time></trkpt>
<trkpt lat="48.2962570" lon="-1.9030720"><ele></ele><time>2017-12-15T22:28:42Z</time></trkpt>
<trkpt lat="48.2962890" lon="-1.9031280"><ele></ele><time>2017-12-15T22:28:45Z</time></trkpt>
<trkpt lat="48.2963010" lon="-1.9031830"><ele></ele><time>2017-12-15T22:28:48Z</time></trkpt>
<trkpt lat="48.2963090" lon="-1.9032420"><ele></ele><time>2017-12-15T22:28:51Z</time></trkpt>
<trkpt lat="48.2963380" lon="-1.9032320"><ele></ele><time>2017-12-15T22:28:54Z</time></trkpt>
<trkpt lat="48.2963660" lon="-1.9032510"><ele></ele><time>2017-12-15T22:28:57Z</time></trkpt>
<trkpt lat="48.2963690" lon="-1.9033010"><ele></ele><time>2017-12-15T22:29:0Z</time></trkpt>
<trkpt lat="48.2963890" lon="-1.9033320"><ele></ele><time>2017-12-15T22:29:3Z</time></trkpt>
<trkpt lat="48.2964280" lon="-1.9033420"><ele></ele><time>2017-12-15T22:29:6Z</time></trkpt>
<trkpt lat="48.2964860" lon="-1.9034070"><ele></ele><time>2017-12-15T22:29:9Z</time></trkpt>
<trkpt lat="48.2965220" lon="-1.9034760"><ele></ele><time>2017-12-15T22:29:12Z</time></trkpt>
<trkpt lat="48.2965400" lon="-1.9035130"><ele></ele><time>2017-12-15T22:29:15Z</time></trkpt>
<trkpt lat="48.2965680" lon="-1.9035240"><ele></ele><time>2017-12-15T22:29:18Z</time></trkpt>
<trkpt lat="48.2965820" lon="-1.9035640"><ele></ele><time>2017-12-15T22:29:21Z</time></trkpt>
<trkpt lat="48.2966010" lon="-1.9036040"><ele></ele><time>2017-12-15T22:29:24Z</time></trkpt>
<trkpt lat="48.2966110" lon="-1.9036580"><ele></ele><time>2017-12-15T22:29:27Z</time></trkpt>
<trkpt lat="48.2966280" lon="-1.9037010"><ele></ele><time>2017-12-15T22:29:30Z</time></trkpt>
<trkpt lat="48.2966530" lon="-1.9037250"><ele></ele><time>2017-12-15T22:29:33Z</time></trkpt>
<trkpt lat="48.2966680" lon="-1.9038170"><ele></ele><time>2017-12-15T22:29:36Z</time></trkpt>
<trkpt lat="48.2966800" lon="-1.9038580"><ele></ele><time>2017-12-15T22:29:39Z</time></trkpt>
<trkpt lat="48.2967200" lon="-1.9038610"><ele></ele><time>2017-12-15T22:29:42Z</time></trkpt>
<trkpt lat="48.2967470" lon="-1.9038440"><ele></ele><time>2017-12-15T22:29:45Z</time></trkpt>
<trkpt lat="48.2967740" lon="-1.9038150"><ele></ele><time>2017-12-15T22:29:48Z</time></trkpt>
<trkpt lat="48.2968030" lon="-1.9038010"><ele></ele><time>2017-12-15T22:29:51Z</time></trkpt>
<trkpt lat="48.2968400" lon="-1.9038260"><ele></ele><time>2017-12-15T22:29:54Z</time></trkpt>
<trkpt lat="48.2968730" lon="-1.9038740"><ele></ele><time>2017-12-15T22:29:57Z</time></trkpt>
<trkpt lat="48.2969070" lon="-1.9039270"><ele></ele><time>2017-12-15T22:30:0Z</time></trkpt>
<trkpt lat="48.2969390" lon="-1.9039870"><ele></ele><time>2017-12-15T22:30:3Z</time></trkpt>
<trkpt lat="48.2969690" lon="-1.9040450"><ele></ele><time>2017-12-15T22:30:6Z</time></trkpt>
<trkpt lat="48.2969940" lon="-1.9041140"><ele></ele><time>2017-12-15T22:30:9Z</time></trkpt>
<trkpt lat="48.2970130" lon="-1.9041790"><ele></ele><time>2017-12-15T22:30:12Z</time></trkpt>
<trkpt lat="48.2970410" lon="-1.9042450"><ele></ele><time>2017-12-15T22:30:15Z</time></trkpt>
<trkpt lat="48.2970590" lon="-1.9042750"><ele></ele><time>2017-12-15T22:30:18Z</time></trkpt>
<trkpt lat="48.2970810" lon="-1.9043030"><ele></ele><time>2017-12-15T22:30:21Z</time></trkpt>
<trkpt lat="48.2971120" lon="-1.9043220"><ele></ele><time>2017-12-15T22:30:24Z</time></trkpt>
<trkpt lat="48.2971380" lon="-1.9043490"><ele></ele><time>2017-12-15T22:30:27Z</time></trkpt>
<trkpt lat="48.2971340" lon="-1.9044150"><ele></ele><time>2017-12-15T22:30:30Z</time></trkpt>
<trkpt lat="48.2970980" lon="-1.9044620"><ele></ele><time>2017-12-15T22:30:33Z</time></trkpt>
<trkpt lat="48.2970800" lon="-1.9044950"><ele></ele><time>2017-12-15T22:30:36Z</time></trkpt>
<trkpt lat="48.2970620" lon="-1.9045320"><ele></ele><time>2017-12-15T22:30:39Z</time></trkpt>
<trkpt lat="48.2970440" lon="-1.9045720"><ele></ele><time>2017-12-15T22:30:42Z</time></trkpt>
<trkpt lat="48.2970230" lon="-1.9046130"><ele></ele><time>2017-12-15T22:30:45Z</time></trkpt>
<trkpt lat="48.2970030" lon="-1.9046620"><ele></ele><time>2017-12-15T22:30:48Z</time></trkpt>
<trkpt lat="48.2969740" lon="-1.9047120"><ele></ele><time>2017-12-15T22:30:51Z</time></trkpt>
<trkpt lat="48.2969410" lon="-1.9047590"><ele></ele><time>2017-12-15T22:30:54Z</time></trkpt>
<trkpt lat="48.2969110" lon="-1.9048160"><ele></ele><time>2017-12-15T22:30:57Z</time></trkpt>
<trkpt lat="48.2968910" lon="-1.9048830"><ele></ele><time>2017-12-15T22:31:0Z</time></trkpt>
<trkpt lat="48.2968710" lon="-1.9049560"><ele></ele><time>2017-12-15T22:31:3Z</time></trkpt>
<trkpt lat="48.2968650" lon="-1.9050340"><ele></ele><time>2017-12-15T22:31:6Z</time></trkpt>
<trkpt lat="48.2968770" lon="-1.9051180"><ele></ele><time>2017-12-15T22:31:9Z</time></trkpt>
<trkpt lat="48.2968860" lon="-1.9052080"><ele></ele><time>2017-12-15T22:31:12Z</time></trkpt>
<trkpt lat="48.2969090" lon="-1.9052980"><ele></ele><time>2017-12-15T22:31:15Z</time></trkpt>
<trkpt lat="48.2969380" lon="-1.9053860"><ele></ele><time>2017-12-15T22:31:18Z</time></trkpt>
<trkpt lat="48.2969730" lon="-1.9054730"><ele></ele><time>2017-12-15T22:31:21Z</time></trkpt>
<trkpt lat="48.2970070" lon="-1.9055620"><ele></ele><time>2017-12-15T22:31:24Z</time></trkpt>
<trkpt lat="48.2970430" lon="-1.9056440"><ele></ele><time>2017-12-15T22:31:27Z</time></trkpt>
<trkpt lat="48.2970700" lon="-1.9057250"><ele></ele><time>2017-12-15T22:31:30Z</time></trkpt>
<trkpt lat="48.2970970" lon="-1.9058020"><ele></ele><time>2017-12-15T22:31:33Z</time></trkpt>
<trkpt lat="48.2971240" lon="-1.9058680"><ele></ele><time>2017-12-15T22:31:36Z</time></trkpt>
<trkpt lat="48.2971460" lon="-1.9059370"><ele></ele><time>2017-12-15T22:31:39Z</time></trkpt>
<trkpt lat="48.2971680" lon="-1.9060010"><ele></ele><time>2017-12-15T22:31:42Z</time></trkpt>
<trkpt lat="48.2971900" lon="-1.9060600"><ele></ele><time>2017-12-15T22:31:45Z</time></trkpt>
<trkpt lat="48.2972100" lon="-1.9061180"><ele></ele><time>2017-12-15T22:31:48Z</time></trkpt>
<trkpt lat="48.2972280" lon="-1.9061740"><ele></ele><time>2017-12-15T22:31:51Z</time></trkpt>
<trkpt lat="48.2972440" lon="-1.9062290"><ele></ele><time>2017-12-15T22:31:54Z</time></trkpt>
<trkpt lat="48.2972590" lon="-1.9062820"><ele></ele><time>2017-12-15T22:31:57Z</time></trkpt>
<trkpt lat="48.2972720" lon="-1.9063330"><ele></ele><time>2017-12-15T22:32:0Z</time></trkpt>
<trkpt lat="48.2972880" lon="-1.9063720"><ele></ele><time>2017-12-15T22:32:3Z</time></trkpt>
<trkpt lat="48.2973080" lon="-1.9064130"><ele></ele><time>2017-12-15T22:32:6Z</time></trkpt>
<trkpt lat="48.2973360" lon="-1.9064360"><ele></ele><time>2017-12-15T22:32:9Z</time></trkpt>
<trkpt lat="48.2973530" lon="-1.9064720"><ele></ele><time>2017-12-15T22:32:12Z</time></trkpt>
<trkpt lat="48.2973710" lon="-1.9065110"><ele></ele><time>2017-12-15T22:32:15Z</time></trkpt>
<trkpt lat="48.2973970" lon="-1.9065600"><ele></ele><time>2017-12-15T22:32:18Z</time></trkpt>
<trkpt lat="48.2974150" lon="-1.9066040"><ele></ele><time>2017-12-15T22:32:21Z</time></trkpt>
<trkpt lat="48.2974410" lon="-1.9066570"><ele></ele><time>2017-12-15T22:32:24Z</time></trkpt>
<trkpt lat="48.2974660" lon="-1.9067120"><ele></ele><time>2017-12-15T22:32:27Z</time></trkpt>
<trkpt lat="48.2974940" lon="-1.9067730"><ele></ele><time>2017-12-15T22:32:30Z</time></trkpt>
<trkpt lat="48.2975080" lon="-1.9068350"><ele></ele><time>2017-12-15T22:32:33Z</time></trkpt>
<trkpt lat="48.2975280" lon="-1.9068960"><ele></ele><time>2017-12-15T22:32:36Z</time></trkpt>
<trkpt lat="48.2975400" lon="-1.9069620"><ele></ele><time>2017-12-15T22:32:39Z</time></trkpt>
<trkpt lat="48.2975490" lon="-1.9070080"><ele></ele><time>2017-12-15T22:32:42Z</time></trkpt>
<trkpt lat="48.2975510" lon="-1.9070600"><ele></ele><time>2017-12-15T22:32:45Z</time></trkpt>
<trkpt lat="48.2975420" lon="-1.9071010"><ele></ele><time>2017-12-15T22:32:48Z</time></trkpt>
<trkpt lat="48.2975450" lon="-1.9071430"><ele></ele><time>2017-12-15T22:32:51Z</time></trkpt>
<trkpt lat="48.2975540" lon="-1.9071850"><ele></ele><time>2017-12-15T22:32:54Z</time></trkpt>
<trkpt lat="48.2975790" lon="-1.9072200"><ele></ele><time>2017-12-15T22:32:57Z</time></trkpt>
<trkpt lat="48.2975970" lon="-1.9072550"><ele></ele><time>2017-12-15T22:33:0Z</time></trkpt>
<trkpt lat="48.2976100" lon="-1.9072920"><ele></ele><time>2017-12-15T22:33:3Z</time></trkpt>
<trkpt lat="48.2976350" lon="-1.9073360"><ele></ele><time>2017-12-15T22:33:6Z</time></trkpt>
<trkpt lat="48.2976500" lon="-1.9073810"><ele></ele><time>2017-12-15T22:33:9Z</time></trkpt>
<trkpt lat="48.2976710" lon="-1.9074210"><ele></ele><time>2017-12-15T22:33:12Z</time></trkpt>
<trkpt lat="48.2976820" lon="-1.9074650"><ele></ele><time>2017-12-15T22:33:15Z</time></trkpt>
<trkpt lat="48.2977090" lon="-1.9075180"><ele></ele><time>2017-12-15T22:33:18Z</time></trkpt>
<trkpt lat="48.2977230" lon="-1.9075620"><ele></ele><time>2017-12-15T22:33:21Z</time></trkpt>
<trkpt lat="48.2977370" lon="-1.9076170"><ele></ele><time>2017-12-15T22:33:24Z</time></trkpt>
<trkpt lat="48.2977450" lon="-1.9076590"><ele></ele><time>2017-12-15T22:33:27Z</time></trkpt>
<trkpt lat="48.2977480" lon="-1.9077210"><ele></ele><time>2017-12-15T22:33:30Z</time></trkpt>
<trkpt lat="48.2977560" lon="-1.9077770"><ele></ele><time>2017-12-15T22:33:33Z</time></trkpt>
<trkpt lat="48.2977710" lon="-1.9078190"><ele></ele><time>2017-12-15T22:33:36Z</time></trkpt>
<trkpt lat="48.2977860" lon="-1.9078580"><ele></ele><time>2017-12-15T22:33:39Z</time></trkpt>
<trkpt lat="48.2977990" lon="-1.9078970"><ele></ele><time>2017-12-15T22:33:42Z</time></trkpt>
<trkpt lat="48.2978170" lon="-1.9079390"><ele></ele><time>2017-12-15T22:33:45Z</time></trkpt>
<trkpt lat="48.2978200" lon="-1.9079850"><ele></ele><time>2017-12-15T22:33:48Z</time></trkpt>
<trkpt lat="48.2978270" lon="-1.9080240"><ele></ele><time>2017-12-15T22:33:51Z</time></trkpt>
<trkpt lat="48.2978340" lon="-1.9080810"><ele></ele><time>2017-12-15T22:33:54Z</time></trkpt>
<trkpt lat="48.2978540" lon="-1.9081300"><ele></ele><time>2017-12-15T22:33:57Z</time></trkpt>
<trkpt lat="48.2978820" lon="-1.9081610"><ele></ele><time>2017-12-15T22:34:0Z</time></trkpt>
<trkpt lat="48.2979180" lon="-1.9081950"><ele></ele><time>2017-12-15T22:34:3Z</time></trkpt>
<trkpt lat="48.2979340" lon="-1.9082290"><ele></ele><time>2017-12-15T22:34:6Z</time></trkpt>
<trkpt lat="48.2979540" lon="-1.9082840"><ele></ele><time>2017-12-15T22:34:9Z</time></trkpt>
<trkpt lat="48.2979570" lon="-1.9083280"><ele></ele><time>2017-12-15T22:34:12Z</time></trkpt>
<trkpt lat="48.2979720" lon="-1.9083690"><ele></ele><time>2017-12-15T22:34:15Z</time></trkpt>
<trkpt lat="48.2979750" lon="-1.9084130"><ele></ele><time>2017-12-15T22:34:18Z</time></trkpt>
<trkpt lat="48.2979820" lon="-1.9084590"><ele></ele><time>2017-12-15T22:34:21Z</time></trkpt>
<trkpt lat="48.2979980" lon="-1.9085100"><ele></ele><time>2017-12-15T22:34:24Z</time></trkpt>
<trkpt lat="48.2980130" lon="-1.9085680"><ele></ele><time>2017-12-15T22:34:27Z</time></trkpt>
<trkpt lat="48.2980220" lon="-1.9086170"><ele></ele><time>2017-12-15T22:34:30Z</time></trkpt>
<trkpt lat="48.2980400" lon="-1.9086590"><ele></ele><time>2017-12-15T22:34:33Z</time></trkpt>
<trkpt lat="48.2980620" lon="-1.9087130"><ele></ele><time>2017-12-15T22:34:36Z</time></trkpt>
<trkpt lat="48.2980770" lon="-1.9087610"><ele></ele><time>2017-12-15T22:34:39Z</time></trkpt>
<trkpt lat="48.2980860" lon="-1.9088120"><ele></ele><time>2017-12-15T22:34:42Z</time></trkpt>
<trkpt lat="48.2981020" lon="-1.9088500"><ele></ele><time>2017-12-15T22:34:45Z</time></trkpt>
<trkpt lat="48.2981070" lon="-1.9089090"><ele></ele><time>2017-12-15T22:34:48Z</time></trkpt>
<trkpt lat="48.2981210" lon="-1.9089800"><ele></ele><time>2017-12-15T22:34:51Z</time></trkpt>
<trkpt lat="48.2981420" lon="-1.9090410"><ele></ele><time>2017-12-15T22:34:54Z</time></trkpt>
<trkpt lat="48.2981510" lon="-1.9090990"><ele></ele><time>2017-12-15T22:34:57Z</time></trkpt>
<trkpt lat="48.2981690" lon="-1.9091480"><ele></ele><time>2017-12-15T22:35:0Z</time></trkpt>
<trkpt lat="48.2981620" lon="-1.9092100"><ele></ele><time>2017-12-15T22:35:3Z</time></trkpt>
<trkpt lat="48.2981650" lon="-1.9092670"><ele></ele><time>2017-12-15T22:35:6Z</time></trkpt>
<trkpt lat="48.2981820" lon="-1.9093210"><ele></ele><time>2017-12-15T22:35:9Z</time></trkpt>
<trkpt lat="48.2982040" lon="-1.9093780"><ele></ele><time>2017-12-15T22:35:12Z</time></trkpt>
<trkpt lat="48.2982230" lon="-1.9094340"><ele></ele><time>2017-12-15T22:35:15Z</time></trkpt>
<trkpt lat="48.2982420" lon="-1.9094860"><ele></ele><time>2017-12-15T22:35:18Z</time></trkpt>
<trkpt lat="48.2982650" lon="-1.9095370"><ele></ele><time>2017-12-15T22:35:21Z</time></trkpt>
<trkpt lat="48.2982620" lon="-1.9095820"><ele></ele><time>2017-12-15T22:35:24Z</time></trkpt>
<trkpt lat="48.2982590" lon="-1.9096400"><ele></ele><time>2017-12-15T22:35:27Z</time></trkpt>
<trkpt lat="48.2982720" lon="-1.9096870"><ele></ele><time>2017-12-15T22:35:30Z</time></trkpt>
<trkpt lat="48.2982890" lon="-1.9097340"><ele></ele><time>2017-12-15T22:35:33Z</time></trkpt>
<trkpt lat="48.2983040" lon="-1.9097740"><ele></ele><time>2017-12-15T22:35:36Z</time></trkpt>
<trkpt lat="48.2983050" lon="-1.9098330"><ele></ele><time>2017-12-15T22:35:39Z</time></trkpt>
<trkpt lat="48.2983220" lon="-1.9098810"><ele></ele><time>2017-12-15T22:35:42Z</time></trkpt>
<trkpt lat="48.2983370" lon="-1.9099300"><ele></ele><time>2017-12-15T22:35:45Z</time></trkpt>
<trkpt lat="48.2983360" lon="-1.9099780"><ele></ele><time>2017-12-15T22:35:48Z</time></trkpt>
<trkpt lat="48.2983510" lon="-1.9100250"><ele></ele><time>2017-12-15T22:35:51Z</time></trkpt>
<trkpt lat="48.2983650" lon="-1.9100670"><ele></ele><time>2017-12-15T22:35:54Z</time></trkpt>
<trkpt lat="48.2983820" lon="-1.9101190"><ele></ele><time>2017-12-15T22:35:57Z</time></trkpt>
<trkpt lat="48.2984010" lon="-1.9101770"><ele></ele><time>2017-12-15T22:36:0Z</time></trkpt>
<trkpt lat="48.2984170" lon="-1.9102340"><ele></ele><time>2017-12-15T22:36:3Z</time></trkpt>
<trkpt lat="48.2984280" lon="-1.9102820"><ele></ele><time>2017-12-15T22:36:6Z</time></trkpt>
<trkpt lat="48.2984590" lon="-1.9103240"><ele></ele><time>2017-12-15T22:36:9Z</time></trkpt>
<trkpt lat="48.2984800" lon="-1.9103740"><ele></ele><time>2017-12-15T22:36:12Z</time></trkpt>
<trkpt lat="48.2984980" lon="-1.9104450"><ele></ele><time>2017-12-15T22:36:15Z</time></trkpt>
<trkpt lat="48.2985080" lon="-1.9104830"><ele></ele><time>2017-12-15T22:36:18Z</time></trkpt>
<trkpt lat="48.2985020" lon="-1.9105560"><ele></ele><time>2017-12-15T22:36:21Z</time></trkpt>
<trkpt lat="48.2985040" lon="-1.9106100"><ele></ele><time>2017-12-15T22:36:24Z</time></trkpt>
<trkpt lat="48.2985200" lon="-1.9106440"><ele></ele><time>2017-12-15T22:36:27Z</time></trkpt>
<trkpt lat="48.2985530" lon="-1.9106410"><ele></ele><time>2017-12-15T22:36:30Z</time></trkpt>
<trkpt lat="48.2985960" lon="-1.9106510"><ele></ele><time>2017-12-15T22:36:33Z</time></trkpt>
<trkpt lat="48.2986280" lon="-1.9106520"><ele></ele><time>2017-12-15T22:36:36Z</time></trkpt>
<trkpt lat="48.2986660" lon="-1.9106780"><ele></ele><time>2017-12-15T22:36:39Z</time></trkpt>
<trkpt lat="48.2986830" lon="-1.9107350"><ele></ele><time>2017-12-15T22:36:42Z</time></trkpt>
<trkpt lat="48.2986980" lon="-1.9107820"><ele></ele><time>2017-12-15T22:36:45Z</time></trkpt>
<trkpt lat="48.2987150" lon="-1.9108320"><ele></ele><time>2017-12-15T22:36:48Z</time></trkpt>
<trkpt lat="48.2986880" lon="-1.9108720"><ele></ele><time>2017-12-15T22:36:51Z</time></trkpt>
<trkpt lat="48.2987040" lon="-1.9109150"><ele></ele><time>2017-12-15T22:36:54Z</time></trkpt>
<trkpt lat="48.2986980" lon="-1.9109580"><ele></ele><time>2017-12-15T22:36:57Z</time></trkpt>
<trkpt lat="48.2986960" lon="-1.9110080"><ele></ele><time>2017-12-15T22:37:0Z</time></trkpt>
<trkpt lat="48.2987170" lon="-1.9110580"><ele></ele><time>2017-12-15T22:37:3Z</time></trkpt>
<trkpt lat="48.2987380" lon="-1.9111300"><ele></ele><time>2017-12-15T22:37:6Z</time></trkpt>
<trkpt lat="48.2987400" lon="-1.9111710"><ele></ele><time>2017-12-15T22:37:9Z</time></trkpt>
<trkpt lat="48.2987750" lon="-1.9111170"><ele></ele><time>2017-12-15T22:37:12Z</time></trkpt>
<trkpt lat="48.2988040" lon="-1.9110930"><ele></ele><time>2017-12-15T22:37:15Z</time></trkpt>
<trkpt lat="48.2988290" lon="-1.9111120"><ele></ele><time>2017-12-15T22:37:18Z</time></trkpt>
<trkpt lat="48.2988400" lon="-1.9111600"><ele></ele><time>2017-12-15T22:37:21Z</time></trkpt>
<trkpt lat="48.2988310" lon="-1.9112070"><ele></ele><time>2017-12-15T22:37:24Z</time></trkpt>
<trkpt lat="48.2987990" lon="-1.9112470"><ele></ele><time>2017-12-15T22:37:27Z</time></trkpt>
<trkpt lat="48.2987910" lon="-1.9112870"><ele></ele><time>2017-12-15T22:37:30Z</time></trkpt>
<trkpt lat="48.2988380" lon="-1.9112590"><ele></ele><time>2017-12-15T22:37:33Z</time></trkpt>
<trkpt lat="48.2988540" lon="-1.9113060"><ele></ele><time>2017-12-15T22:37:36Z</time></trkpt>
<trkpt lat="48.2988710" lon="-1.9113450"><ele></ele><time>2017-12-15T22:37:39Z</time></trkpt>
<trkpt lat="48.2988720" lon="-1.9113850"><ele></ele><time>2017-12-15T22:37:42Z</time></trkpt>
<trkpt lat="48.2989030" lon="-1.9113840"><ele></ele><time>2017-12-15T22:37:45Z</time></trkpt>
<trkpt lat="48.2989330" lon="-1.9113590"><ele></ele><time>2017-12-15T22:37:48Z</time></trkpt>
<trkpt lat="48.2989670" lon="-1.9113490"><ele></ele><time>2017-12-15T22:37:51Z</time></trkpt>
<trkpt lat="48.2989910" lon="-1.9112920"><ele></ele><time>2017-12-15T22:37:54Z</time></trkpt>
<trkpt lat="48.2989940" lon="-1.9112240"><ele></ele><time>2017-12-15T22:37:57Z</time></trkpt>
<trkpt lat="48.2989780" lon="-1.9111590"><ele></ele><time>2017-12-15T22:38:0Z</time></trkpt>
<trkpt lat="48.2989960" lon="-1.9111240"><ele></ele><time>2017-12-15T22:38:3Z</time></trkpt>
<trkpt lat="48.2990340" lon="-1.9111180"><ele></ele><time>2017-12-15T22:38:6Z</time></trkpt>
<trkpt lat="48.2990580" lon="-1.9111520"><ele></ele><time>2017-12-15T22:38:9Z</time></trkpt>
<trkpt lat="48.2990770" lon="-1.9111860"><ele></ele><time>2017-12-15T22:38:12Z</time></trkpt>
<trkpt lat="48.2991040" lon="-1.9112310"><ele></ele><time>2017-12-15T22:38:15Z</time></trkpt>
<trkpt lat="48.2991180" lon="-1.9112720"><ele></ele><time>2017-12-15T22:38:18Z</time></trkpt>
<trkpt lat="48.2991370" lon="-1.9113030"><ele></ele><time>2017-12-15T22:38:21Z</time></trkpt>
<trkpt lat="48.2991390" lon="-1.9113490"><ele></ele><time>2017-12-15T22:38:24Z</time></trkpt>
<trkpt lat="48.2991330" lon="-1.9113950"><ele></ele><time>2017-12-15T22:38:27Z</time></trkpt>
<trkpt lat="48.2991040" lon="-1.9114360"><ele></ele><time>2017-12-15T22:38:30Z</time></trkpt>
<trkpt lat="48.2990810" lon="-1.9114620"><ele></ele><time>2017-12-15T22:38:33Z</time></trkpt>
<trkpt lat="48.2990530" lon="-1.9114800"><ele></ele><time>2017-12-15T22:38:36Z</time></trkpt>
<trkpt lat="48.2990250" lon="-1.9115090"><ele></ele><time>2017-12-15T22:38:39Z</time></trkpt>
<trkpt lat="48.2990290" lon="-1.9115640"><ele></ele><time>2017-12-15T22:38:42Z</time></trkpt>
<trkpt lat="48.2990080" lon="-1.9116000"><ele></ele><time>2017-12-15T22:38:45Z</time></trkpt>
<trkpt lat="48.2989850" lon="-1.9116430"><ele></ele><time>2017-12-15T22:38:48Z</time></trkpt>
<trkpt lat="48.2989760" lon="-1.9116960"><ele></ele><time>2017-12-15T22:38:51Z</time></trkpt>
<trkpt lat="48.2989900" lon="-1.9117320"><ele></ele><time>2017-12-15T22:38:54Z</time></trkpt>
<trkpt lat="48.2990220" lon="-1.9117100"><ele></ele><time>2017-12-15T22:38:57Z</time></trkpt>
<trkpt lat="48.2990490" lon="-1.9117000"><ele></ele><time>2017-12-15T22:39:0Z</time></trkpt>
<trkpt lat="48.2990770" lon="-1.9117040"><ele></ele><time>2017-12-15T22:39:3Z</time></trkpt>
<trkpt lat="48.2990960" lon="-1.9117570"><ele></ele><time>2017-12-15T22:39:6Z</time></trkpt>
<trkpt lat="48.2991160" lon="-1.9118070"><ele></ele><time>2017-12-15T22:39:9Z</time></trkpt>
<trkpt lat="48.2991080" lon="-1.9118590"><ele></ele><time>2017-12-15T22:39:12Z</time></trkpt>
<trkpt lat="48.2990960" lon="-1.9119010"><ele></ele><time>2017-12-15T22:39:15Z</time></trkpt>
<trkpt lat="48.2990770" lon="-1.9119350"><ele></ele><time>2017-12-15T22:39:18Z</time></trkpt>
<trkpt lat="48.2990610" lon="-1.9119780"><ele></ele><time>2017-12-15T22:39:21Z</time></trkpt>
<trkpt lat="48.2990740" lon="-1.9120350"><ele></ele><time>2017-12-15T22:39:24Z</time></trkpt>
<trkpt lat="48.2991020" lon="-1.9120890"><ele></ele><time>2017-12-15T22:39:27Z</time></trkpt>
<trkpt lat="48.2991140" lon="-1.9121570"><ele></ele><time>2017-12-15T22:39:30Z</time></trkpt>
<trkpt lat="48.2991310" lon="-1.9122280"><ele></ele><time>2017-12-15T22:39:33Z</time></trkpt>
<trkpt lat="48.2991360" lon="-1.9122690"><ele></ele><time>2017-12-15T22:39:36Z</time></trkpt>
<trkpt lat="48.2991620" lon="-1.9122980"><ele></ele><time>2017-12-15T22:39:39Z</time></trkpt>
<trkpt lat="48.2991850" lon="-1.9122690"><ele></ele><time>2017-12-15T22:39:42Z</time></trkpt>
<trkpt lat="48.2991670" lon="-1.9122010"><ele></ele><time>2017-12-15T22:39:45Z</time></trkpt>
<trkpt lat="48.2991850" lon="-1.9121400"><ele></ele><time>2017-12-15T22:39:48Z</time></trkpt>
<trkpt lat="48.2992330" lon="-1.9121150"><ele></ele><time>2017-12-15T22:39:51Z</time></trkpt>
<trkpt lat="48.2992580" lon="-1.9121300"><ele></ele><time>2017-12-15T22:39:54Z</time></trkpt>
<trkpt lat="48.2992670" lon="-1.9121780"><ele></ele><time>2017-12-15T22:39:57Z</time></trkpt>
<trkpt lat="48.2992970" lon="-1.9121640"><ele></ele><time>2017-12-15T22:40:0Z</time></trkpt>
<trkpt lat="48.2993310" lon="-1.9121770"><ele></ele><time>2017-12-15T22:40:3Z</time></trkpt>
<trkpt lat="48.2993530" lon="-1.9122220"><ele></ele><time>2017-12-15T22:40:6Z</time></trkpt>
<trkpt lat="48.2993750" lon="-1.9122880"><ele></ele><time>2017-12-15T22:40:9Z</time></trkpt>
<trkpt lat="48.2994050" lon="-1.9123460"><ele></ele><time>2017-12-15T22:40:12Z</time></trkpt>
<trkpt lat="48.2994450" lon="-1.9124150"><ele></ele><time>2017-12-15T22:40:15Z</time></trkpt>
<trkpt lat="48.2994670" lon="-1.9124770"><ele></ele><time>2017-12-15T22:40:18Z</time></trkpt>
<trkpt lat="48.2994780" lon="-1.9125350"><ele></ele><time>2017-12-15T22:40:21Z</time></trkpt>
<trkpt lat="48.2994760" lon="-1.9125840"><ele></ele><time>2017-12-15T22:40:24Z</time></trkpt>
<trkpt lat="48.2995110" lon="-1.9126030"><ele></ele><time>2017-12-15T22:40:27Z</time></trkpt>
<trkpt lat="48.2995290" lon="-1.9126490"><ele></ele><time>2017-12-15T22:40:30Z</time></trkpt>
<trkpt lat="48.2995430" lon="-1.9126980"><ele></ele><time>2017-12-15T22:40:33Z</time></trkpt>
<trkpt lat="48.2995460" lon="-1.9127510"><ele></ele><time>2017-12-15T22:40:36Z</time></trkpt>
<trkpt lat="48.2995480" lon="-1.9128030"><ele></ele><time>2017-12-15T22:40:39Z</time></trkpt>
<trkpt lat="48.2995730" lon="-1.9128480"><ele></ele><time>2017-12-15T22:40:42Z</time></trkpt>
<trkpt lat="48.2995800" lon="-1.9128890"><ele></ele><time>2017-12-15T22:40:45Z</time></trkpt>
<trkpt lat="48.2995950" lon="-1.9129420"><ele></ele><time>2017-12-15T22:40:48Z</time></trkpt>
<trkpt lat="48.2996270" lon="-1.9129580"><ele></ele><time>2017-12-15T22:40:51Z</time></trkpt>
<trkpt lat="48.2996620" lon="-1.9129890"><ele></ele><time>2017-12-15T22:40:54Z</time></trkpt>
<trkpt lat="48.2996910" lon="-1.9129980"><ele></ele><time>2017-12-15T22:40:57Z</time></trkpt>
<trkpt lat="48.2997690" lon="-1.9130120"><ele></ele><time>2017-12-15T22:41:0Z</time></trkpt>
<trkpt lat="48.2998150" lon="-1.9130290"><ele></ele><time>2017-12-15T22:41:3Z</time></trkpt>
<trkpt lat="48.2998790" lon="-1.9130240"><ele></ele><time>2017-12-15T22:41:6Z</time></trkpt>
<trkpt lat="48.2999230" lon="-1.9130170"><ele></ele><time>2017-12-15T22:41:9Z</time></trkpt>
<trkpt lat="48.2999870" lon="-1.9129940"><ele></ele><time>2017-12-15T22:41:12Z</time></trkpt>
<trkpt lat="48.3000550" lon="-1.9129790"><ele></ele><time>2017-12-15T22:41:15Z</time></trkpt>
<trkpt lat="48.3001060" lon="-1.9129830"><ele></ele><time>2017-12-15T22:41:18Z</time></trkpt>
<trkpt lat="48.3001710" lon="-1.9129930"><ele></ele><time>2017-12-15T22:41:21Z</time></trkpt>
<trkpt lat="48.3002170" lon="-1.9130470"><ele></ele><time>2017-12-15T22:41:24Z</time></trkpt>
<trkpt lat="48.3002440" lon="-1.9130970"><ele></ele><time>2017-12-15T22:41:27Z</time></trkpt>
<trkpt lat="48.3002700" lon="-1.9131470"><ele></ele><time>2017-12-15T22:41:30Z</time></trkpt>
<trkpt lat="48.3002890" lon="-1.9132000"><ele></ele><time>2017-12-15T22:41:33Z</time></trkpt>
<trkpt lat="48.3003010" lon="-1.9132450"><ele></ele><time>2017-12-15T22:41:36Z</time></trkpt>
<trkpt lat="48.3003260" lon="-1.9133090"><ele></ele><time>2017-12-15T22:41:39Z</time></trkpt>
<trkpt lat="48.3003440" lon="-1.9133810"><ele></ele><time>2017-12-15T22:41:42Z</time></trkpt>
<trkpt lat="48.3003650" lon="-1.9134540"><ele></ele><time>2017-12-15T22:41:45Z</time></trkpt>
<trkpt lat="48.3003750" lon="-1.9135180"><ele></ele><time>2017-12-15T22:41:48Z</time></trkpt>
<trkpt lat="48.3003910" lon="-1.9135760"><ele></ele><time>2017-12-15T22:41:51Z</time></trkpt>
<trkpt lat="48.3004030" lon="-1.9136230"><ele></ele><time>2017-12-15T22:41:54Z</time></trkpt>
<trkpt lat="48.3004270" lon="-1.9136880"><ele></ele><time>2017-12-15T22:41:57Z</time></trkpt>
<trkpt lat="48.3004430" lon="-1.9137510"><ele></ele><time>2017-12-15T22:42:0Z</time></trkpt>
<trkpt lat="48.3004660" lon="-1.9137980"><ele></ele><time>2017-12-15T22:42:3Z</time></trkpt>
<trkpt lat="48.3005210" lon="-1.9138000"><ele></ele><time>2017-12-15T22:42:6Z</time></trkpt>
<trkpt lat="48.3005620" lon="-1.9137930"><ele></ele><time>2017-12-15T22:42:9Z</time></trkpt>
<trkpt lat="48.3006180" lon="-1.9137520"><ele></ele><time>2017-12-15T22:42:12Z</time></trkpt>
<trkpt lat="48.3006730" lon="-1.9137240"><ele></ele><time>2017-12-15T22:42:15Z</time></trkpt>
<trkpt lat="48.3007320" lon="-1.9137030"><ele></ele><time>2017-12-15T22:42:18Z</time></trkpt>
<trkpt lat="48.3007920" lon="-1.9136820"><ele></ele><time>2017-12-15T22:42:21Z</time></trkpt>
<trkpt lat="48.3008430" lon="-1.9136480"><ele></ele><time>2017-12-15T22:42:24Z</time></trkpt>
<trkpt lat="48.3008900" lon="-1.9136120"><ele></ele><time>2017-12-15T22:42:27Z</time></trkpt>
<trkpt lat="48.3009750" lon="-1.9135470"><ele></ele><time>2017-12-15T22:42:30Z</time></trkpt>
<trkpt lat="48.3010480" lon="-1.9135050"><ele></ele><time>2017-12-15T22:42:33Z</time></trkpt>
<trkpt lat="48.3011360" lon="-1.9134730"><ele></ele><time>2017-12-15T22:42:36Z</time></trkpt>
<trkpt lat="48.3011640" lon="-1.9134260"><ele></ele><time>2017-12-15T22:42:39Z</time></trkpt>
<trkpt lat="48.3012250" lon="-1.9134000"><ele></ele><time>2017-12-15T22:42:42Z</time></trkpt>
<trkpt lat="48.3012820" lon="-1.9133360"><ele></ele><time>2017-12-15T22:42:45Z</time></trkpt>
<trkpt lat="48.3013460" lon="-1.9133010"><ele></ele><time>2017-12-15T22:42:48Z</time></trkpt>
<trkpt lat="48.3014090" lon="-1.9132610"><ele></ele><time>2017-12-15T22:42:51Z</time></trkpt>
<trkpt lat="48.3014820" lon="-1.9132040"><ele></ele><time>2017-12-15T22:42:54Z</time></trkpt>
<trkpt lat="48.3015470" lon="-1.9131450"><ele></ele><time>2017-12-15T22:42:57Z</time></trkpt>
<trkpt lat="48.3015880" lon="-1.9130870"><ele></ele><time>2017-12-15T22:43:0Z</time></trkpt>
<trkpt lat="48.3016430" lon="-1.9129730"><ele></ele><time>2017-12-15T22:43:3Z</time></trkpt>
<trkpt lat="48.3017050" lon="-1.9128820"><ele></ele><time>2017-12-15T22:43:6Z</time></trkpt>
<trkpt lat="48.3017460" lon="-1.9127980"><ele></ele><time>2017-12-15T22:43:9Z</time></trkpt>
<trkpt lat="48.3017710" lon="-1.9127330"><ele></ele><time>2017-12-15T22:43:12Z</time></trkpt>
<trkpt lat="48.3017930" lon="-1.9126910"><ele></ele><time>2017-12-15T22:43:15Z</time></trkpt>
<trkpt lat="48.3018140" lon="-1.9126640"><ele></ele><time>2017-12-15T22:43:18Z</time></trkpt>
<trkpt lat="48.3018490" lon="-1.9126780"><ele></ele><time>2017-12-15T22:43:21Z</time></trkpt>
<trkpt lat="48.3018760" lon="-1.9126860"><ele></ele><time>2017-12-15T22:43:24Z</time></trkpt>
<trkpt lat="48.3018950" lon="-1.9127250"><ele></ele><time>2017-12-15T22:43:27Z</time></trkpt>
<trkpt lat="48.3019210" lon="-1.9127930"><ele></ele><time>2017-12-15T22:43:30Z</time></trkpt>
<trkpt lat="48.3019190" lon="-1.9128530"><ele></ele><time>2017-12-15T22:43:33Z</time></trkpt>
<trkpt lat="48.3019300" lon="-1.9128960"><ele></ele><time>2017-12-15T22:43:36Z</time></trkpt>
<trkpt lat="48.3019310" lon="-1.9129430"><ele></ele><time>2017-12-15T22:43:39Z</time></trkpt>
<trkpt lat="48.3019550" lon="-1.9130030"><ele></ele><time>2017-12-15T22:43:42Z</time></trkpt>
<trkpt lat="48.3019560" lon="-1.9130720"><ele></ele><time>2017-12-15T22:43:45Z</time></trkpt>
<trkpt lat="48.3019500" lon="-1.9131300"><ele></ele><time>2017-12-15T22:43:48Z</time></trkpt>
<trkpt lat="48.3019500" lon="-1.9131840"><ele></ele><time>2017-12-15T22:43:51Z</time></trkpt>
<trkpt lat="48.3019470" lon="-1.9132250"><ele></ele><time>2017-12-15T22:43:54Z</time></trkpt>
<trkpt lat="48.3019360" lon="-1.9133170"><ele></ele><time>2017-12-15T22:43:57Z</time></trkpt>
<trkpt lat="48.3019320" lon="-1.9133920"><ele></ele><time>2017-12-15T22:44:0Z</time></trkpt>
<trkpt lat="48.3019160" lon="-1.9134300"><ele></ele><time>2017-12-15T22:44:3Z</time></trkpt>
<trkpt lat="48.3019220" lon="-1.9134890"><ele></ele><time>2017-12-15T22:44:6Z</time></trkpt>
<trkpt lat="48.3019060" lon="-1.9135210"><ele></ele><time>2017-12-15T22:44:9Z</time></trkpt>
<trkpt lat="48.3019050" lon="-1.9136050"><ele></ele><time>2017-12-15T22:44:12Z</time></trkpt>
<trkpt lat="48.3019050" lon="-1.9136720"><ele></ele><time>2017-12-15T22:44:15Z</time></trkpt>
<trkpt lat="48.3018910" lon="-1.9137410"><ele></ele><time>2017-12-15T22:44:18Z</time></trkpt>
<trkpt lat="48.3019000" lon="-1.9137820"><ele></ele><time>2017-12-15T22:44:21Z</time></trkpt>
<trkpt lat="48.3018980" lon="-1.9138290"><ele></ele><time>2017-12-15T22:44:24Z</time></trkpt>
<trkpt lat="48.3018900" lon="-1.9138800"><ele></ele><time>2017-12-15T22:44:27Z</time></trkpt>
<trkpt lat="48.3018850" lon="-1.9139230"><ele></ele><time>2017-12-15T22:44:30Z</time></trkpt>
<trkpt lat="48.3018940" lon="-1.9139660"><ele></ele><time>2017-12-15T22:44:33Z</time></trkpt>
<trkpt lat="48.3018750" lon="-1.9140150"><ele></ele><time>2017-12-15T22:44:36Z</time></trkpt>
<trkpt lat="48.3018840" lon="-1.9140980"><ele></ele><time>2017-12-15T22:44:39Z</time></trkpt>
<trkpt lat="48.3018870" lon="-1.9141390"><ele></ele><time>2017-12-15T22:44:42Z</time></trkpt>
<trkpt lat="48.3018890" lon="-1.9142040"><ele></ele><time>2017-12-15T22:44:45Z</time></trkpt>
<trkpt lat="48.3018800" lon="-1.9142560"><ele></ele><time>2017-12-15T22:44:48Z</time></trkpt>
<trkpt lat="48.3018710" lon="-1.9143030"><ele></ele><time>2017-12-15T22:44:51Z</time></trkpt>
<trkpt lat="48.3018330" lon="-1.9143710"><ele></ele><time>2017-12-15T22:44:54Z</time></trkpt>
<trkpt lat="48.3018140" lon="-1.9144110"><ele></ele><time>2017-12-15T22:44:57Z</time></trkpt>
<trkpt lat="48.3018090" lon="-1.9144560"><ele></ele><time>2017-12-15T22:45:0Z</time></trkpt>
<trkpt lat="48.3017810" lon="-1.9144950"><ele></ele><time>2017-12-15T22:45:3Z</time></trkpt>
<trkpt lat="48.3017610" lon="-1.9145310"><ele></ele><time>2017-12-15T22:45:6Z</time></trkpt>
<trkpt lat="48.3017430" lon="-1.9146040"><ele></ele><time>2017-12-15T22:45:9Z</time></trkpt>
<trkpt lat="48.3017400" lon="-1.9146540"><ele></ele><time>2017-12-15T22:45:12Z</time></trkpt>
<trkpt lat="48.3017190" lon="-1.9146910"><ele></ele><time>2017-12-15T22:45:15Z</time></trkpt>
<trkpt lat="48.3017000" lon="-1.9147230"><ele></ele><time>2017-12-15T22:45:18Z</time></trkpt>
<trkpt lat="48.3016680" lon="-1.9147790"><ele></ele><time>2017-12-15T22:45:21Z</time></trkpt>
<trkpt lat="48.3016390" lon="-1.9148300"><ele></ele><time>2017-12-15T22:45:24Z</time></trkpt>
<trkpt lat="48.3016230" lon="-1.9148830"><ele></ele><time>2017-12-15T22:45:27Z</time></trkpt>
<trkpt lat="48.3016210" lon="-1.9149260"><ele></ele><time>2017-12-15T22:45:30Z</time></trkpt>
<trkpt lat="48.3015990" lon="-1.9149530"><ele></ele><time>2017-12-15T22:45:33Z</time></trkpt>
<trkpt lat="48.3015640" lon="-1.9149760"><ele></ele><time>2017-12-15T22:45:36Z</time></trkpt>
<trkpt lat="48.3015680" lon="-1.9150230"><ele></ele><time>2017-12-15T22:45:39Z</time></trkpt>
<trkpt lat="48.3015750" lon="-1.9150620"><ele></ele><time>2017-12-15T22:45:42Z</time></trkpt>
<trkpt lat="48.3015930" lon="-1.9151010"><ele></ele><time>2017-12-15T22:45:45Z</time></trkpt>
<trkpt lat="48.3015910" lon="-1.9151540"><ele></ele><time>2017-12-15T22:45:48Z</time></trkpt>
<trkpt lat="48.3015750" lon="-1.9152240"><ele></ele><time>2017-12-15T22:45:51Z</time></trkpt>
<trkpt lat="48.3015850" lon="-1.9152730"><ele></ele><time>2017-12-15T22:45:54Z</time></trkpt>
<trkpt lat="48.3015730" lon="-1.9153470"><ele></ele><time>2017-12-15T22:45:57Z</time></trkpt>
<trkpt lat="48.3015590" lon="-1.9154070"><ele></ele><time>2017-12-15T22:46:0Z</time></trkpt>
<trkpt lat="48.3015280" lon="-1.9154800"><ele></ele><time>2017-12-15T22:46:3Z</time></trkpt>
<trkpt lat="48.3014960" lon="-1.9155800"><ele></ele><time>2017-12-15T22:46:6Z</time></trkpt>
<trkpt lat="48.3014840" lon="-1.9156350"><ele></ele><time>2017-12-15T22:46:9Z</time></trkpt>
<trkpt lat="48.3014800" lon="-1.9157170"><ele></ele><time>2017-12-15T22:46:12Z</time></trkpt>
<trkpt lat="48.3014850" lon="-1.9157590"><ele></ele><time>2017-12-15T22:46:15Z</time></trkpt>
<trkpt lat="48.3014720" lon="-1.9158070"><ele></ele><time>2017-12-15T22:46:18Z</time></trkpt>
<trkpt lat="48.3014690" lon="-1.9158560"><ele></ele><time>2017-12-15T22:46:21Z</time></trkpt>
<trkpt lat="48.3014650" lon="-1.9159020"><ele></ele><time>2017-12-15T22:46:24Z</time></trkpt>
<trkpt lat="48.3014590" lon="-1.9159870"><ele></ele><time>2017-12-15T22:46:27Z</time></trkpt>
<trkpt lat="48.3014400" lon="-1.9160310"><ele></ele><time>2017-12-15T22:46:30Z</time></trkpt>
<trkpt lat="48.3013980" lon="-1.9160910"><ele></ele><time>2017-12-15T22:46:33Z</time></trkpt>
<trkpt lat="48.3013860" lon="-1.9161340"><ele></ele><time>2017-12-15T22:46:36Z</time></trkpt>
<trkpt lat="48.3013790" lon="-1.9161780"><ele></ele><time>2017-12-15T22:46:39Z</time></trkpt>
<trkpt lat="48.3013320" lon="-1.9162330"><ele></ele><time>2017-12-15T22:46:42Z</time></trkpt>
<trkpt lat="48.3013040" lon="-1.9162870"><ele></ele><time>2017-12-15T22:46:45Z</time></trkpt>
<trkpt lat="48.3012780" lon="-1.9163370"><ele></ele><time>2017-12-15T22:46:48Z</time></trkpt>
<trkpt lat="48.3012510" lon="-1.9163840"><ele></ele><time>2017-12-15T22:46:51Z</time></trkpt>
<trkpt lat="48.3012320" lon="-1.9164290"><ele></ele><time>2017-12-15T22:46:54Z</time></trkpt>
<trkpt lat="48.3012060" lon="-1.9164770"><ele></ele><time>2017-12-15T22:46:57Z</time></trkpt>
<trkpt lat="48.3011860" lon="-1.9165210"><ele></ele><time>2017-12-15T22:47:0Z</time></trkpt>
<trkpt lat="48.3011520" lon="-1.9165880"><ele></ele><time>2017-12-15T22:47:3Z</time></trkpt>
<trkpt lat="48.3011390" lon="-1.9166340"><ele></ele><time>2017-12-15T22:47:6Z</time></trkpt>
<trkpt lat="48.3011340" lon="-1.9166870"><ele></ele><time>2017-12-15T22:47:9Z</time></trkpt>
<trkpt lat="48.3011220" lon="-1.9167510"><ele></ele><time>2017-12-15T22:47:12Z</time></trkpt>
<trkpt lat="48.3011220" lon="-1.9168120"><ele></ele><time>2017-12-15T22:47:15Z</time></trkpt>
<trkpt lat="48.3011150" lon="-1.9168870"><ele></ele><time>2017-12-15T22:47:18Z</time></trkpt>
<trkpt lat="48.3011040" lon="-1.9169570"><ele></ele><time>2017-12-15T22:47:21Z</time></trkpt>
<trkpt lat="48.3010870" lon="-1.9170230"><ele></ele><time>2017-12-15T22:47:24Z</time></trkpt>
<trkpt lat="48.3010430" lon="-1.9170670"><ele></ele><time>2017-12-15T22:47:27Z</time></trkpt>
<trkpt lat="48.3010140" lon="-1.9171070"><ele></ele><time>2017-12-15T22:47:30Z</time></trkpt>
<trkpt lat="48.3009860" lon="-1.9171350"><ele></ele><time>2017-12-15T22:47:33Z</time></trkpt>
<trkpt lat="48.3009600" lon="-1.9171650"><ele></ele><time>2017-12-15T22:47:36Z</time></trkpt>
<trkpt lat="48.3009180" lon="-1.9171830"><ele></ele><time>2017-12-15T22:47:39Z</time></trkpt>
<trkpt lat="48.3008930" lon="-1.9172090"><ele></ele><time>2017-12-15T22:47:42Z</time></trkpt>
<trkpt lat="48.3008700" lon="-1.9172450"><ele></ele><time>2017-12-15T22:47:45Z</time></trkpt>
<trkpt lat="48.3008530" lon="-1.9172850"><ele></ele><time>2017-12-15T22:47:48Z</time></trkpt>
<trkpt lat="48.3008320" lon="-1.9173340"><ele></ele><time>2017-12-15T22:47:51Z</time></trkpt>
<trkpt lat="48.3008140" lon="-1.9173740"><ele></ele><time>2017-12-15T22:47:54Z</time></trkpt>
<trkpt lat="48.3007910" lon="-1.9174140"><ele></ele><time>2017-12-15T22:47:57Z</time></trkpt>
<trkpt lat="48.3007550" lon="-1.9174660"><ele></ele><time>2017-12-15T22:48:0Z</time></trkpt>
<trkpt lat="48.3007320" lon="-1.9175180"><ele></ele><time>2017-12-15T22:48:3Z</time></trkpt>
<trkpt lat="48.3007080" lon="-1.9175640"><ele></ele><time>2017-12-15T22:48:6Z</time></trkpt>
<trkpt lat="48.3006870" lon="-1.9175970"><ele></ele><time>2017-12-15T22:48:9Z</time></trkpt>
<trkpt lat="48.3006670" lon="-1.9176330"><ele></ele><time>2017-12-15T22:48:12Z</time></trkpt>
<trkpt lat="48.3006430" lon="-1.9176690"><ele></ele><time>2017-12-15T22:48:15Z</time></trkpt>
<trkpt lat="48.3006260" lon="-1.9177020"><ele></ele><time>2017-12-15T22:48:18Z</time></trkpt>
<trkpt lat="48.3006090" lon="-1.9177340"><ele></ele><time>2017-12-15T22:48:21Z</time></trkpt>
<trkpt lat="48.3005910" lon="-1.9177710"><ele></ele><time>2017-12-15T22:48:24Z</time></trkpt>
<trkpt lat="48.3005750" lon="-1.9178280"><ele></ele><time>2017-12-15T22:48:27Z</time></trkpt>
<trkpt lat="48.3005520" lon="-1.9178920"><ele></ele><time>2017-12-15T22:48:30Z</time></trkpt>
<trkpt lat="48.3005310" lon="-1.9179580"><ele></ele><time>2017-12-15T22:48:33Z</time></trkpt>
<trkpt lat="48.3005240" lon="-1.9180060"><ele></ele><time>2017-12-15T22:48:36Z</time></trkpt>
<trkpt lat="48.3005180" lon="-1.9180500"><ele></ele><time>2017-12-15T22:48:39Z</time></trkpt>
<trkpt lat="48.3005050" lon="-1.9180960"><ele></ele><time>2017-12-15T22:48:42Z</time></trkpt>
<trkpt lat="48.3004890" lon="-1.9181390"><ele></ele><time>2017-12-15T22:48:45Z</time></trkpt>
<trkpt lat="48.3004780" lon="-1.9181830"><ele></ele><time>2017-12-15T22:48:48Z</time></trkpt>
<trkpt lat="48.3004700" lon="-1.9182260"><ele></ele><time>2017-12-15T22:48:51Z</time></trkpt>
<trkpt lat="48.3004520" lon="-1.9182630"><ele></ele><time>2017-12-15T22:48:54Z</time></trkpt>
<trkpt lat="48.3004380" lon="-1.9183330"><ele></ele><time>2017-12-15T22:48:57Z</time></trkpt>
<trkpt lat="48.3004300" lon="-1.9183960"><ele></ele><time>2017-12-15T22:49:0Z</time></trkpt>
<trkpt lat="48.3004050" lon="-1.9184560"><ele></ele><time>2017-12-15T22:49:3Z</time></trkpt>
<trkpt lat="48.3003890" lon="-1.9185100"><ele></ele><time>2017-12-15T22:49:6Z</time></trkpt>
<trkpt lat="48.3003770" lon="-1.9185510"><ele></ele><time>2017-12-15T22:49:9Z</time></trkpt>
<trkpt lat="48.3003500" lon="-1.9185940"><ele></ele><time>2017-12-15T22:49:12Z</time></trkpt>
<trkpt lat="48.3003380" lon="-1.9186440"><ele></ele><time>2017-12-15T22:49:15Z</time></trkpt>
<trkpt lat="48.3003180" lon="-1.9187030"><ele></ele><time>2017-12-15T22:49:18Z</time></trkpt>
<trkpt lat="48.3003040" lon="-1.9187560"><ele></ele><time>2017-12-15T22:49:21Z</time></trkpt>
<trkpt lat="48.3002820" lon="-1.9188190"><ele></ele><time>2017-12-15T22:49:24Z</time></trkpt>
<trkpt lat="48.3002700" lon="-1.9188820"><ele></ele><time>2017-12-15T22:49:27Z</time></trkpt>
<trkpt lat="48.3002600" lon="-1.9189430"><ele></ele><time>2017-12-15T22:49:30Z</time></trkpt>
<trkpt lat="48.3002590" lon="-1.9189990"><ele></ele><time>2017-12-15T22:49:33Z</time></trkpt>
<trkpt lat="48.3002600" lon="-1.9190430"><ele></ele><time>2017-12-15T22:49:36Z</time></trkpt>
<trkpt lat="48.3002780" lon="-1.9190750"><ele></ele><time>2017-12-15T22:49:39Z</time></trkpt>
<trkpt lat="48.3002510" lon="-1.9190670"><ele></ele><time>2017-12-15T22:49:42Z</time></trkpt>
<trkpt lat="48.3002350" lon="-1.9191020"><ele></ele><time>2017-12-15T22:49:45Z</time></trkpt>
<trkpt lat="48.3002100" lon="-1.9191240"><ele></ele><time>2017-12-15T22:49:48Z</time></trkpt>
<trkpt lat="48.3002130" lon="-1.9191700"><ele></ele><time>2017-12-15T22:49:51Z</time></trkpt>
<trkpt lat="48.3002090" lon="-1.9191280"><ele></ele><time>2017-12-15T22:49:54Z</time></trkpt>
<trkpt lat="48.3002000" lon="-1.9190680"><ele></ele><time>2017-12-15T22:49:57Z</time></trkpt>
<trkpt lat="48.3002160" lon="-1.9191080"><ele></ele><time>2017-12-15T22:50:0Z</time></trkpt>
<trkpt lat="48.3002050" lon="-1.9191490"><ele></ele><time>2017-12-15T22:50:3Z</time></trkpt>
<trkpt lat="48.3002230" lon="-1.9191170"><ele></ele><time>2017-12-15T22:50:6Z</time></trkpt>
<trkpt lat="48.3002360" lon="-1.9191700"><ele></ele><time>2017-12-15T22:50:9Z</time></trkpt>
<trkpt lat="48.3002040" lon="-1.9191850"><ele></ele><time>2017-12-15T22:50:12Z</time></trkpt>
<trkpt lat="48.3002010" lon="-1.9191330"><ele></ele><time>2017-12-15T22:50:15Z</time></trkpt>
<trkpt lat="48.3002250" lon="-1.9190880"><ele></ele><time>2017-12-15T22:50:18Z</time></trkpt>
<trkpt lat="48.3002520" lon="-1.9190810"><ele></ele><time>2017-12-15T22:50:21Z</time></trkpt>
<trkpt lat="48.3002400" lon="-1.9191200"><ele></ele><time>2017-12-15T22:50:24Z</time></trkpt>
<trkpt lat="48.3002460" lon="-1.9191660"><ele></ele><time>2017-12-15T22:50:27Z</time></trkpt>
<trkpt lat="48.3002490" lon="-1.9192070"><ele></ele><time>2017-12-15T22:50:30Z</time></trkpt>
<trkpt lat="48.3002510" lon="-1.9192530"><ele></ele><time>2017-12-15T22:50:33Z</time></trkpt>
<trkpt lat="48.3002570" lon="-1.9193000"><ele></ele><time>2017-12-15T22:50:36Z</time></trkpt>
<trkpt lat="48.3002600" lon="-1.9193450"><ele></ele><time>2017-12-15T22:50:39Z</time></trkpt>
<trkpt lat="48.3002670" lon="-1.9193860"><ele></ele><time>2017-12-15T22:50:42Z</time></trkpt>
<trkpt lat="48.3002720" lon="-1.9194320"><ele></ele><time>2017-12-15T22:50:45Z</time></trkpt>
<trkpt lat="48.3002710" lon="-1.9194870"><ele></ele><time>2017-12-15T22:50:48Z</time></trkpt>
<trkpt lat="48.3002770" lon="-1.9195370"><ele></ele><time>2017-12-15T22:50:51Z</time></trkpt>
<trkpt lat="48.3002770" lon="-1.9195950"><ele></ele><time>2017-12-15T22:50:54Z</time></trkpt>
<trkpt lat="48.3002820" lon="-1.9196500"><ele></ele><time>2017-12-15T22:50:57Z</time></trkpt>
<trkpt lat="48.3002850" lon="-1.9197140"><ele></ele><time>2017-12-15T22:51:0Z</time></trkpt>
<trkpt lat="48.3002930" lon="-1.9197700"><ele></ele><time>2017-12-15T22:51:3Z</time></trkpt>
<trkpt lat="48.3002990" lon="-1.9198290"><ele></ele><time>2017-12-15T22:51:6Z</time></trkpt>
<trkpt lat="48.3003060" lon="-1.9198920"><ele></ele><time>2017-12-15T22:51:9Z</time></trkpt>
<trkpt lat="48.3003160" lon="-1.9199450"><ele></ele><time>2017-12-15T22:51:12Z</time></trkpt>
<trkpt lat="48.3003270" lon="-1.9199980"><ele></ele><time>2017-12-15T22:51:15Z</time></trkpt>
<trkpt lat="48.3003370" lon="-1.9200550"><ele></ele><time>2017-12-15T22:51:18Z</time></trkpt>
<trkpt lat="48.3003440" lon="-1.9201030"><ele></ele><time>2017-12-15T22:51:21Z</time></trkpt>
<trkpt lat="48.3003570" lon="-1.9201690"><ele></ele><time>2017-12-15T22:51:24Z</time></trkpt>
<trkpt lat="48.3003680" lon="-1.9202390"><ele></ele><time>2017-12-15T22:51:27Z</time></trkpt>
<trkpt lat="48.3003810" lon="-1.9203060"><ele></ele><time>2017-12-15T22:51:30Z</time></trkpt>
<trkpt lat="48.3003770" lon="-1.9203780"><ele></ele><time>2017-12-15T22:51:33Z</time></trkpt>
<trkpt lat="48.3003680" lon="-1.9204570"><ele></ele><time>2017-12-15T22:51:36Z</time></trkpt>
<trkpt lat="48.3003520" lon="-1.9205340"><ele></ele><time>2017-12-15T22:51:39Z</time></trkpt>
<trkpt lat="48.3003260" lon="-1.9206010"><ele></ele><time>2017-12-15T22:51:42Z</time></trkpt>
<trkpt lat="48.3002920" lon="-1.9206540"><ele></ele><time>2017-12-15T22:51:45Z</time></trkpt>
<trkpt lat="48.3002510" lon="-1.9206830"><ele></ele><time>2017-12-15T22:51:48Z</time></trkpt>
<trkpt lat="48.3002120" lon="-1.9206860"><ele></ele><time>2017-12-15T22:51:51Z</time></trkpt>
<trkpt lat="48.3001730" lon="-1.9206840"><ele></ele><time>2017-12-15T22:51:54Z</time></trkpt>
<trkpt lat="48.3001380" lon="-1.9206880"><ele></ele><time>2017-12-15T22:51:57Z</time></trkpt>
<trkpt lat="48.3001050" lon="-1.9206930"><ele></ele><time>2017-12-15T22:52:0Z</time></trkpt>
<trkpt lat="48.3000700" lon="-1.9206980"><ele></ele><time>2017-12-15T22:52:3Z</time></trkpt>
<trkpt lat="48.3000350" lon="-1.9207080"><ele></ele><time>2017-12-15T22:52:6Z</time></trkpt>
<trkpt lat="48.3000000" lon="-1.9207190"><ele></ele><time>2017-12-15T22:52:9Z</time></trkpt>
<trkpt lat="48.2999620" lon="-1.9207330"><ele></ele><time>2017-12-15T22:52:12Z</time></trkpt>
<trkpt lat="48.2999210" lon="-1.9207500"><ele></ele><time>2017-12-15T22:52:15Z</time></trkpt>
<trkpt lat="48.2998820" lon="-1.9207690"><ele></ele><time>2017-12-15T22:52:18Z</time></trkpt>
<trkpt lat="48.2998380" lon="-1.9207880"><ele></ele><time>2017-12-15T22:52:21Z</time></trkpt>
<trkpt lat="48.2997940" lon="-1.9208070"><ele></ele><time>2017-12-15T22:52:24Z</time></trkpt>
<trkpt lat="48.2997510" lon="-1.9208260"><ele></ele><time>2017-12-15T22:52:27Z</time></trkpt>
<trkpt lat="48.2997060" lon="-1.9208450"><ele></ele><time>2017-12-15T22:52:30Z</time></trkpt>
<trkpt lat="48.2996580" lon="-1.9208620"><ele></ele><time>2017-12-15T22:52:33Z</time></trkpt>
<trkpt lat="48.2996130" lon="-1.9208780"><ele></ele><time>2017-12-15T22:52:36Z</time></trkpt>
<trkpt lat="48.2995710" lon="-1.9208900"><ele></ele><time>2017-12-15T22:52:39Z</time></trkpt>
<trkpt lat="48.2995270" lon="-1.9209050"><ele></ele><time>2017-12-15T22:52:42Z</time></trkpt>
<trkpt lat="48.2994780" lon="-1.9209100"><ele></ele><time>2017-12-15T22:52:45Z</time></trkpt>
<trkpt lat="48.2994310" lon="-1.9209150"><ele></ele><time>2017-12-15T22:52:48Z</time></trkpt>
<trkpt lat="48.2993860" lon="-1.9209210"><ele></ele><time>2017-12-15T22:52:51Z</time></trkpt>
<trkpt lat="48.2993320" lon="-1.9209250"><ele></ele><time>2017-12-15T22:52:54Z</time></trkpt>
<trkpt lat="48.2992790" lon="-1.9209240"><ele></ele><time>2017-12-15T22:52:57Z</time></trkpt>
<trkpt lat="48.2992300" lon="-1.9209250"><ele></ele><time>2017-12-15T22:53:0Z</time></trkpt>
<trkpt lat="48.2991780" lon="-1.9209280"><ele></ele><time>2017-12-15T22:53:3Z</time></trkpt>
<trkpt lat="48.2991280" lon="-1.9209290"><ele></ele><time>2017-12-15T22:53:6Z</time></trkpt>
<trkpt lat="48.2990770" lon="-1.9209300"><ele></ele><time>2017-12-15T22:53:9Z</time></trkpt>
<trkpt lat="48.2990270" lon="-1.9209290"><ele></ele><time>2017-12-15T22:53:12Z</time></trkpt>
<trkpt lat="48.2989770" lon="-1.9209310"><ele></ele><time>2017-12-15T22:53:15Z</time></trkpt>
<trkpt lat="48.2989280" lon="-1.9209310"><ele></ele><time>2017-12-15T22:53:18Z</time></trkpt>
<trkpt lat="48.2988790" lon="-1.9209270"><ele></ele><time>2017-12-15T22:53:21Z</time></trkpt>
<trkpt lat="48.2988270" lon="-1.9209270"><ele></ele><time>2017-12-15T22:53:24Z</time></trkpt>
<trkpt lat="48.2987800" lon="-1.9209300"><ele></ele><time>2017-12-15T22:53:27Z</time></trkpt>
<trkpt lat="48.2987280" lon="-1.9209310"><ele></ele><time>2017-12-15T22:53:30Z</time></trkpt>
<trkpt lat="48.2986790" lon="-1.9209340"><ele></ele><time>2017-12-15T22:53:33Z</time></trkpt>
<trkpt lat="48.2986280" lon="-1.9209340"><ele></ele><time>2017-12-15T22:53:36Z</time></trkpt>
<trkpt lat="48.2985780" lon="-1.9209340"><ele></ele><time>2017-12-15T22:53:39Z</time></trkpt>
<trkpt lat="48.2985290" lon="-1.9209360"><ele></ele><time>2017-12-15T22:53:42Z</time></trkpt>
<trkpt lat="48.2984790" lon="-1.9209380"><ele></ele><time>2017-12-15T22:53:45Z</time></trkpt>
<trkpt lat="48.2984320" lon="-1.9209380"><ele></ele><time>2017-12-15T22:53:48Z</time></trkpt>
<trkpt lat="48.2983870" lon="-1.9209340"><ele></ele><time>2017-12-15T22:53:51Z</time></trkpt>
<trkpt lat="48.2983450" lon="-1.9209340"><ele></ele><time>2017-12-15T22:53:54Z</time></trkpt>
<trkpt lat="48.2983010" lon="-1.9209350"><ele></ele><time>2017-12-15T22:53:57Z</time></trkpt>
<trkpt lat="48.2982580" lon="-1.9209340"><ele></ele><time>2017-12-15T22:54:0Z</time></trkpt>
<trkpt lat="48.2982140" lon="-1.9209370"><ele></ele><time>2017-12-15T22:54:3Z</time></trkpt>
<trkpt lat="48.2981710" lon="-1.9209380"><ele></ele><time>2017-12-15T22:54:6Z</time></trkpt>
<trkpt lat="48.2981260" lon="-1.9209390"><ele></ele><time>2017-12-15T22:54:9Z</time></trkpt>
<trkpt lat="48.2980810" lon="-1.9209380"><ele></ele><time>2017-12-15T22:54:12Z</time></trkpt>
<trkpt lat="48.2980360" lon="-1.9209370"><ele></ele><time>2017-12-15T22:54:15Z</time></trkpt>
<trkpt lat="48.2979920" lon="-1.9209370"><ele></ele><time>2017-12-15T22:54:18Z</time></trkpt>
<trkpt lat="48.2979450" lon="-1.9209430"><ele></ele><time>2017-12-15T22:54:21Z</time></trkpt>
<trkpt lat="48.2978990" lon="-1.9209400"><ele></ele><time>2017-12-15T22:54:24Z</time></trkpt>
<trkpt lat="48.2978520" lon="-1.9209410"><ele></ele><time>2017-12-15T22:54:27Z</time></trkpt>
<trkpt lat="48.2978080" lon="-1.9209400"><ele></ele><time>2017-12-15T22:54:30Z</time></trkpt>
<trkpt lat="48.2977630" lon="-1.9209370"><ele></ele><time>2017-12-15T22:54:33Z</time></trkpt>
<trkpt lat="48.2977210" lon="-1.9209330"><ele></ele><time>2017-12-15T22:54:36Z</time></trkpt>
<trkpt lat="48.2976790" lon="-1.9209320"><ele></ele><time>2017-12-15T22:54:39Z</time></trkpt>
<trkpt lat="48.2976330" lon="-1.9209310"><ele></ele><time>2017-12-15T22:54:42Z</time></trkpt>
<trkpt lat="48.2975880" lon="-1.9209330"><ele></ele><time>2017-12-15T22:54:45Z</time></trkpt>
<trkpt lat="48.2975440" lon="-1.9209300"><ele></ele><time>2017-12-15T22:54:48Z</time></trkpt>
<trkpt lat="48.2974990" lon="-1.9209290"><ele></ele><time>2017-12-15T22:54:51Z</time></trkpt>
<trkpt lat="48.2974510" lon="-1.9209250"><ele></ele><time>2017-12-15T22:54:54Z</time></trkpt>
<trkpt lat="48.2974070" lon="-1.9209260"><ele></ele><time>2017-12-15T22:54:57Z</time></trkpt>
<trkpt lat="48.2973640" lon="-1.9209260"><ele></ele><time>2017-12-15T22:55:0Z</time></trkpt>
<trkpt lat="48.2973200" lon="-1.9209240"><ele></ele><time>2017-12-15T22:55:3Z</time></trkpt>
<trkpt lat="48.2972740" lon="-1.9209210"><ele></ele><time>2017-12-15T22:55:6Z</time></trkpt>
<trkpt lat="48.2972280" lon="-1.9209200"><ele></ele><time>2017-12-15T22:55:9Z</time></trkpt>
<trkpt lat="48.2971840" lon="-1.9209210"><ele></ele><time>2017-12-15T22:55:12Z</time></trkpt>
<trkpt lat="48.2971400" lon="-1.9209190"><ele></ele><time>2017-12-15T22:55:15Z</time></trkpt>
<trkpt lat="48.2970960" lon="-1.9209140"><ele></ele><time>2017-12-15T22:55:18Z</time></trkpt>
<trkpt lat="48.2970500" lon="-1.9209120"><ele></ele><time>2017-12-15T22:55:21Z</time></trkpt>
<trkpt lat="48.2970060" lon="-1.9209140"><ele></ele><time>2017-12-15T22:55:24Z</time></trkpt>
<trkpt lat="48.2969600" lon="-1.9209130"><ele></ele><time>2017-12-15T22:55:27Z</time></trkpt>
<trkpt lat="48.2969150" lon="-1.9209140"><ele></ele><time>2017-12-15T22:55:30Z</time></trkpt>
<trkpt lat="48.2968660" lon="-1.9209120"><ele></ele><time>2017-12-15T22:55:33Z</time></trkpt>
<trkpt lat="48.2968200" lon="-1.9209110"><ele></ele><time>2017-12-15T22:55:36Z</time></trkpt>
<trkpt lat="48.2967740" lon="-1.9209110"><ele></ele><time>2017-12-15T22:55:39Z</time></trkpt>
<trkpt lat="48.2967270" lon="-1.9209070"><ele></ele><time>2017-12-15T22:55:42Z</time></trkpt>
<trkpt lat="48.2966790" lon="-1.9209060"><ele></ele><time>2017-12-15T22:55:45Z</time></trkpt>
<trkpt lat="48.2966330" lon="-1.9209030"><ele></ele><time>2017-12-15T22:55:48Z</time></trkpt>
<trkpt lat="48.2965860" lon="-1.9208980"><ele></ele><time>2017-12-15T22:55:51Z</time></trkpt>
<trkpt lat="48.2965390" lon="-1.9208940"><ele></ele><time>2017-12-15T22:55:54Z</time></trkpt>
<trkpt lat="48.2964940" lon="-1.9208920"><ele></ele><time>2017-12-15T22:55:57Z</time></trkpt>
<trkpt lat="48.2964480" lon="-1.9208890"><ele></ele><time>2017-12-15T22:56:0Z</time></trkpt>
<trkpt lat="48.2964010" lon="-1.9208910"><ele></ele><time>2017-12-15T22:56:3Z</time></trkpt>
<trkpt lat="48.2963580" lon="-1.9208920"><ele></ele><time>2017-12-15T22:56:6Z</time></trkpt>
<trkpt lat="48.2963150" lon="-1.9208870"><ele></ele><time>2017-12-15T22:56:9Z</time></trkpt>
<trkpt lat="48.2962700" lon="-1.9208850"><ele></ele><time>2017-12-15T22:56:12Z</time></trkpt>
<trkpt lat="48.2962250" lon="-1.9208780"><ele></ele><time>2017-12-15T22:56:15Z</time></trkpt>
<trkpt lat="48.2961820" lon="-1.9208740"><ele></ele><time>2017-12-15T22:56:18Z</time></trkpt>
<trkpt lat="48.2961390" lon="-1.9208690"><ele></ele><time>2017-12-15T22:56:21Z</time></trkpt>
<trkpt lat="48.2960950" lon="-1.9208770"><ele></ele><time>2017-12-15T22:56:24Z</time></trkpt>
<trkpt lat="48.2960650" lon="-1.9209080"><ele></ele><time>2017-12-15T22:56:27Z</time></trkpt>
<trkpt lat="48.2960500" lon="-1.9209640"><ele></ele><time>2017-12-15T22:56:30Z</time></trkpt>
<trkpt lat="48.2960450" lon="-1.9210300"><ele></ele><time>2017-12-15T22:56:33Z</time></trkpt>
<trkpt lat="48.2960350" lon="-1.9210960"><ele></ele><time>2017-12-15T22:56:36Z</time></trkpt>
<trkpt lat="48.2960210" lon="-1.9211670"><ele></ele><time>2017-12-15T22:56:39Z</time></trkpt>
<trkpt lat="48.2960050" lon="-1.9212370"><ele></ele><time>2017-12-15T22:56:42Z</time></trkpt>
<trkpt lat="48.2959870" lon="-1.9213050"><ele></ele><time>2017-12-15T22:56:45Z</time></trkpt>
<trkpt lat="48.2959660" lon="-1.9213730"><ele></ele><time>2017-12-15T22:56:48Z</time></trkpt>
<trkpt lat="48.2959430" lon="-1.9214340"><ele></ele><time>2017-12-15T22:56:51Z</time></trkpt>
<trkpt lat="48.2959150" lon="-1.9214980"><ele></ele><time>2017-12-15T22:56:54Z</time></trkpt>
<trkpt lat="48.2958940" lon="-1.9215680"><ele></ele><time>2017-12-15T22:56:57Z</time></trkpt>
<trkpt lat="48.2958800" lon="-1.9216500"><ele></ele><time>2017-12-15T22:57:0Z</time></trkpt>
<trkpt lat="48.2958820" lon="-1.9217290"><ele></ele><time>2017-12-15T22:57:3Z</time></trkpt>
<trkpt lat="48.2958930" lon="-1.9218050"><ele></ele><time>2017-12-15T22:57:6Z</time></trkpt>
<trkpt lat="48.2959120" lon="-1.9218770"><ele></ele><time>2017-12-15T22:57:9Z</time></trkpt>
<trkpt lat="48.2959420" lon="-1.9219380"><ele></ele><time>2017-12-15T22:57:12Z</time></trkpt>
<trkpt lat="48.2959750" lon="-1.9220050"><ele></ele><time>2017-12-15T22:57:15Z</time></trkpt>
<trkpt lat="48.2960090" lon="-1.9220730"><ele></ele><time>2017-12-15T22:57:18Z</time></trkpt>
<trkpt lat="48.2960430" lon="-1.9221480"><ele></ele><time>2017-12-15T22:57:21Z</time></trkpt>
<trkpt lat="48.2960730" lon="-1.9222250"><ele></ele><time>2017-12-15T22:57:24Z</time></trkpt>
<trkpt lat="48.2961010" lon="-1.9223000"><ele></ele><time>2017-12-15T22:57:27Z</time></trkpt>
<trkpt lat="48.2961280" lon="-1.9223780"><ele></ele><time>2017-12-15T22:57:30Z</time></trkpt>
<trkpt lat="48.2961540" lon="-1.9224510"><ele></ele><time>2017-12-15T22:57:33Z</time></trkpt>
<trkpt lat="48.2961890" lon="-1.9225200"><ele></ele><time>2017-12-15T22:57:36Z</time></trkpt>
<trkpt lat="48.2962180" lon="-1.9225770"><ele></ele><time>2017-12-15T22:57:39Z</time></trkpt>
<trkpt lat="48.2962480" lon="-1.9226360"><ele></ele><time>2017-12-15T22:57:42Z</time></trkpt>
<trkpt lat="48.2962800" lon="-1.9226960"><ele></ele><time>2017-12-15T22:57:45Z</time></trkpt>
<trkpt lat="48.2963120" lon="-1.9227620"><ele></ele><time>2017-12-15T22:57:48Z</time></trkpt>
<trkpt lat="48.2963440" lon="-1.9228280"><ele></ele><time>2017-12-15T22:57:51Z</time></trkpt>
<trkpt lat="48.2963820" lon="-1.9228980"><ele></ele><time>2017-12-15T22:57:54Z</time></trkpt>
<trkpt lat="48.2964180" lon="-1.9229610"><ele></ele><time>2017-12-15T22:57:57Z</time></trkpt>
<trkpt lat="48.2964500" lon="-1.9230210"><ele></ele><time>2017-12-15T22:58:0Z</time></trkpt>
<trkpt lat="48.2964820" lon="-1.9230730"><ele></ele><time>2017-12-15T22:58:3Z</time></trkpt>
<trkpt lat="48.2965120" lon="-1.9231360"><ele></ele><time>2017-12-15T22:58:6Z</time></trkpt>
<trkpt lat="48.2965470" lon="-1.9231900"><ele></ele><time>2017-12-15T22:58:9Z</time></trkpt>
<trkpt lat="48.2965770" lon="-1.9232520"><ele></ele><time>2017-12-15T22:58:12Z</time></trkpt>
<trkpt lat="48.2966050" lon="-1.9233170"><ele></ele><time>2017-12-15T22:58:15Z</time></trkpt>
<trkpt lat="48.2966350" lon="-1.9233850"><ele></ele><time>2017-12-15T22:58:18Z</time></trkpt>
<trkpt lat="48.2966570" lon="-1.9234520"><ele></ele><time>2017-12-15T22:58:21Z</time></trkpt>
<trkpt lat="48.2966770" lon="-1.9235100"><ele></ele><time>2017-12-15T22:58:24Z</time></trkpt>
<trkpt lat="48.2966920" lon="-1.9235680"><ele></ele><time>2017-12-15T22:58:27Z</time></trkpt>
<trkpt lat="48.2967060" lon="-1.9236290"><ele></ele><time>2017-12-15T22:58:30Z</time></trkpt>
<trkpt lat="48.2967130" lon="-1.9236960"><ele></ele><time>2017-12-15T22:58:33Z</time></trkpt>
<trkpt lat="48.2967050" lon="-1.9237680"><ele></ele><time>2017-12-15T22:58:36Z</time></trkpt>
<trkpt lat="48.2966870" lon="-1.9238350"><ele></ele><time>2017-12-15T22:58:39Z</time></trkpt>
<trkpt lat="48.2966710" lon="-1.9239060"><ele></ele><time>2017-12-15T22:58:42Z</time></trkpt>
<trkpt lat="48.2966530" lon="-1.9239770"><ele></ele><time>2017-12-15T22:58:45Z</time></trkpt>
<trkpt lat="48.2966340" lon="-1.9240450"><ele></ele><time>2017-12-15T22:58:48Z</time></trkpt>
<trkpt lat="48.2966170" lon="-1.9241110"><ele></ele><time>2017-12-15T22:58:51Z</time></trkpt>
<trkpt lat="48.2965960" lon="-1.9241760"><ele></ele><time>2017-12-15T22:58:54Z</time></trkpt>
<trkpt lat="48.2965750" lon="-1.9242340"><ele></ele><time>2017-12-15T22:58:57Z</time></trkpt>
<trkpt lat="48.2965530" lon="-1.9242820"><ele></ele><time>2017-12-15T22:59:0Z</time></trkpt>
<trkpt lat="48.2965290" lon="-1.9243270"><ele></ele><time>2017-12-15T22:59:3Z</time></trkpt>
<trkpt lat="48.2965070" lon="-1.9243700"><ele></ele><time>2017-12-15T22:59:6Z</time></trkpt>
<trkpt lat="48.2964780" lon="-1.9244050"><ele></ele><time>2017-12-15T22:59:9Z</time></trkpt>
<trkpt lat="48.2964460" lon="-1.9244350"><ele></ele><time>2017-12-15T22:59:12Z</time></trkpt>
<trkpt lat="48.2964110" lon="-1.9244610"><ele></ele><time>2017-12-15T22:59:15Z</time></trkpt>
<trkpt lat="48.2963760" lon="-1.9244770"><ele></ele><time>2017-12-15T22:59:18Z</time></trkpt>
<trkpt lat="48.2963370" lon="-1.9244900"><ele></ele><time>2017-12-15T22:59:21Z</time></trkpt>
<trkpt lat="48.2963030" lon="-1.9245010"><ele></ele><time>2017-12-15T22:59:24Z</time></trkpt>
<trkpt lat="48.2962670" lon="-1.9245060"><ele></ele><time>2017-12-15T22:59:27Z</time></trkpt>
<trkpt lat="48.2962320" lon="-1.9245100"><ele></ele><time>2017-12-15T22:59:30Z</time></trkpt>
<trkpt lat="48.2961970" lon="-1.9245190"><ele></ele><time>2017-12-15T22:59:33Z</time></trkpt>
<trkpt lat="48.2961630" lon="-1.9245250"><ele></ele><time>2017-12-15T22:59:36Z</time></trkpt>
<trkpt lat="48.2961280" lon="-1.9245320"><ele></ele><time>2017-12-15T22:59:39Z</time></trkpt>
<trkpt lat="48.2960950" lon="-1.9245400"><ele></ele><time>2017-12-15T22:59:42Z</time></trkpt>
<trkpt lat="48.2960600" lon="-1.9245500"><ele></ele><time>2017-12-15T22:59:45Z</time></trkpt>
<trkpt lat="48.2960250" lon="-1.9245620"><ele></ele><time>2017-12-15T22:59:48Z</time></trkpt>
<trkpt lat="48.2959890" lon="-1.9245750"><ele></ele><time>2017-12-15T22:59:51Z</time></trkpt>
<trkpt lat="48.2959540" lon="-1.9245840"><ele></ele><time>2017-12-15T22:59:54Z</time></trkpt>
<trkpt lat="48.2959230" lon="-1.9245960"><ele></ele><time>2017-12-15T22:59:57Z</time></trkpt>
<trkpt lat="48.2958910" lon="-1.9246060"><ele></ele><time>2017-12-15T23:0:0Z</time></trkpt>
<trkpt lat="48.2958580" lon="-1.9246170"><ele></ele><time>2017-12-15T23:0:3Z</time></trkpt>
<trkpt lat="48.2958270" lon="-1.9246310"><ele></ele><time>2017-12-15T23:0:6Z</time></trkpt>
<trkpt lat="48.2957980" lon="-1.9246460"><ele></ele><time>2017-12-15T23:0:9Z</time></trkpt>
<trkpt lat="48.2957700" lon="-1.9246590"><ele></ele><time>2017-12-15T23:0:12Z</time></trkpt>
<trkpt lat="48.2957410" lon="-1.9246740"><ele></ele><time>2017-12-15T23:0:15Z</time></trkpt>
<trkpt lat="48.2957110" lon="-1.9246880"><ele></ele><time>2017-12-15T23:0:18Z</time></trkpt>
<trkpt lat="48.2956830" lon="-1.9247030"><ele></ele><time>2017-12-15T23:0:21Z</time></trkpt>
<trkpt lat="48.2956520" lon="-1.9247150"><ele></ele><time>2017-12-15T23:0:24Z</time></trkpt>
<trkpt lat="48.2956220" lon="-1.9247280"><ele></ele><time>2017-12-15T23:0:27Z</time></trkpt>
<trkpt lat="48.2955930" lon="-1.9247390"><ele></ele><time>2017-12-15T23:0:30Z</time></trkpt>
<trkpt lat="48.2955650" lon="-1.9247540"><ele></ele><time>2017-12-15T23:0:33Z</time></trkpt>
<trkpt lat="48.2955370" lon="-1.9247680"><ele></ele><time>2017-12-15T23:0:36Z</time></trkpt>
<trkpt lat="48.2955080" lon="-1.9247820"><ele></ele><time>2017-12-15T23:0:39Z</time></trkpt>
<trkpt lat="48.2954550" lon="-1.9248080"><ele></ele><time>2017-12-15T23:0:42Z</time></trkpt>
<trkpt lat="48.2954290" lon="-1.9248190"><ele></ele><time>2017-12-15T23:0:45Z</time></trkpt>
<trkpt lat="48.2954000" lon="-1.9248340"><ele></ele><time>2017-12-15T23:0:48Z</time></trkpt>
<trkpt lat="48.2953720" lon="-1.9248500"><ele></ele><time>2017-12-15T23:0:51Z</time></trkpt>
<trkpt lat="48.2953440" lon="-1.9248640"><ele></ele><time>2017-12-15T23:0:54Z</time></trkpt>
<trkpt lat="48.2952920" lon="-1.9248930"><ele></ele><time>2017-12-15T23:0:57Z</time></trkpt>
<trkpt lat="48.2952430" lon="-1.9249120"><ele></ele><time>2017-12-15T23:1:0Z</time></trkpt>
<trkpt lat="48.2951960" lon="-1.9249330"><ele></ele><time>2017-12-15T23:1:3Z</time></trkpt>
<trkpt lat="48.2951590" lon="-1.9249510"><ele></ele><time>2017-12-15T23:1:6Z</time></trkpt>
<trkpt lat="48.2951250" lon="-1.9249780"><ele></ele><time>2017-12-15T23:1:9Z</time></trkpt>
<trkpt lat="48.2951000" lon="-1.9250060"><ele></ele><time>2017-12-15T23:1:12Z</time></trkpt>
<trkpt lat="48.2950750" lon="-1.9250380"><ele></ele><time>2017-12-15T23:1:15Z</time></trkpt>
<trkpt lat="48.2950490" lon="-1.9250610"><ele></ele><time>2017-12-15T23:1:18Z</time></trkpt>
<trkpt lat="48.2950200" lon="-1.9250660"><ele></ele><time>2017-12-15T23:1:21Z</time></trkpt>
<trkpt lat="48.2949930" lon="-1.9250750"><ele></ele><time>2017-12-15T23:1:24Z</time></trkpt>
<trkpt lat="48.2949540" lon="-1.9250340"><ele></ele><time>2017-12-15T23:1:27Z</time></trkpt>
<trkpt lat="48.2949250" lon="-1.9250160"><ele></ele><time>2017-12-15T23:1:30Z</time></trkpt>
<trkpt lat="48.2948980" lon="-1.9250040"><ele></ele><time>2017-12-15T23:1:33Z</time></trkpt>
<trkpt lat="48.2948590" lon="-1.9250400"><ele></ele><time>2017-12-15T23:1:36Z</time></trkpt>
<trkpt lat="48.2948280" lon="-1.9250860"><ele></ele><time>2017-12-15T23:1:39Z</time></trkpt>
<trkpt lat="48.2947870" lon="-1.9251290"><ele></ele><time>2017-12-15T23:1:42Z</time></trkpt>
<trkpt lat="48.2947620" lon="-1.9251540"><ele></ele><time>2017-12-15T23:1:45Z</time></trkpt>
<trkpt lat="48.2947350" lon="-1.9251800"><ele></ele><time>2017-12-15T23:1:48Z</time></trkpt>
<trkpt lat="48.2947090" lon="-1.9252040"><ele></ele><time>2017-12-15T23:1:51Z</time></trkpt>
<trkpt lat="48.2946850" lon="-1.9252290"><ele></ele><time>2017-12-15T23:1:54Z</time></trkpt>
<trkpt lat="48.2946600" lon="-1.9252520"><ele></ele><time>2017-12-15T23:1:57Z</time></trkpt>
<trkpt lat="48.2946380" lon="-1.9252780"><ele></ele><time>2017-12-15T23:2:0Z</time></trkpt>
<trkpt lat="48.2946140" lon="-1.9253030"><ele></ele><time>2017-12-15T23:2:3Z</time></trkpt>
<trkpt lat="48.2945870" lon="-1.9253290"><ele></ele><time>2017-12-15T23:2:6Z</time></trkpt>
<trkpt lat="48.2945620" lon="-1.9253580"><ele></ele><time>2017-12-15T23:2:9Z</time></trkpt>
<trkpt lat="48.2945370" lon="-1.9253870"><ele></ele><time>2017-12-15T23:2:12Z</time></trkpt>
<trkpt lat="48.2945100" lon="-1.9254150"><ele></ele><time>2017-12-15T23:2:15Z</time></trkpt>
<trkpt lat="48.2944650" lon="-1.9254690"><ele></ele><time>2017-12-15T23:2:18Z</time></trkpt>
<trkpt lat="48.2944390" lon="-1.9254960"><ele></ele><time>2017-12-15T23:2:21Z</time></trkpt>
<trkpt lat="48.2944140" lon="-1.9255260"><ele></ele><time>2017-12-15T23:2:24Z</time></trkpt>
<trkpt lat="48.2943870" lon="-1.9255580"><ele></ele><time>2017-12-15T23:2:27Z</time></trkpt>
<trkpt lat="48.2943590" lon="-1.9255860"><ele></ele><time>2017-12-15T23:2:30Z</time></trkpt>
<trkpt lat="48.2943280" lon="-1.9256140"><ele></ele><time>2017-12-15T23:2:33Z</time></trkpt>
<trkpt lat="48.2942990" lon="-1.9256410"><ele></ele><time>2017-12-15T23:2:36Z</time></trkpt>
<trkpt lat="48.2942690" lon="-1.9256660"><ele></ele><time>2017-12-15T23:2:39Z</time></trkpt>
<trkpt lat="48.2942400" lon="-1.9256930"><ele></ele><time>2017-12-15T23:2:42Z</time></trkpt>
<trkpt lat="48.2942150" lon="-1.9257150"><ele></ele><time>2017-12-15T23:2:45Z</time></trkpt>
<trkpt lat="48.2941860" lon="-1.9257620"><ele></ele><time>2017-12-15T23:2:48Z</time></trkpt>
<trkpt lat="48.2941880" lon="-1.9258420"><ele></ele><time>2017-12-15T23:2:51Z</time></trkpt>
<trkpt lat="48.2941900" lon="-1.9258900"><ele></ele><time>2017-12-15T23:2:54Z</time></trkpt>
<trkpt lat="48.2941900" lon="-1.9259380"><ele></ele><time>2017-12-15T23:2:57Z</time></trkpt>
<trkpt lat="48.2941910" lon="-1.9259870"><ele></ele><time>2017-12-15T23:3:0Z</time></trkpt>
<trkpt lat="48.2941980" lon="-1.9260340"><ele></ele><time>2017-12-15T23:3:3Z</time></trkpt>
<trkpt lat="48.2942000" lon="-1.9260820"><ele></ele><time>2017-12-15T23:3:6Z</time></trkpt>
<trkpt lat="48.2942020" lon="-1.9261270"><ele></ele><time>2017-12-15T23:3:9Z</time></trkpt>
<trkpt lat="48.2941980" lon="-1.9261810"><ele></ele><time>2017-12-15T23:3:12Z</time></trkpt>
<trkpt lat="48.2942000" lon="-1.9262310"><ele></ele><time>2017-12-15T23:3:15Z</time></trkpt>
<trkpt lat="48.2942160" lon="-1.9262780"><ele></ele><time>2017-12-15T23:3:18Z</time></trkpt>
<trkpt lat="48.2942190" lon="-1.9263280"><ele></ele><time>2017-12-15T23:3:21Z</time></trkpt>
<trkpt lat="48.2942290" lon="-1.9263750"><ele></ele><time>2017-12-15T23:3:24Z</time></trkpt>
<trkpt lat="48.2942360" lon="-1.9264250"><ele></ele><time>2017-12-15T23:3:27Z</time></trkpt>
<trkpt lat="48.2942460" lon="-1.9264770"><ele></ele><time>2017-12-15T23:3:30Z</time></trkpt>
<trkpt lat="48.2942520" lon="-1.9265300"><ele></ele><time>2017-12-15T23:3:33Z</time></trkpt>
<trkpt lat="48.2942530" lon="-1.9265840"><ele></ele><time>2017-12-15T23:3:36Z</time></trkpt>
<trkpt lat="48.2942570" lon="-1.9266310"><ele></ele><time>2017-12-15T23:3:39Z</time></trkpt>
<trkpt lat="48.2942710" lon="-1.9266830"><ele></ele><time>2017-12-15T23:3:42Z</time></trkpt>
<trkpt lat="48.2942790" lon="-1.9267510"><ele></ele><time>2017-12-15T23:3:45Z</time></trkpt>
<trkpt lat="48.2942880" lon="-1.9268130"><ele></ele><time>2017-12-15T23:3:48Z</time></trkpt>
<trkpt lat="48.2943000" lon="-1.9268730"><ele></ele><time>2017-12-15T23:3:51Z</time></trkpt>
<trkpt lat="48.2943070" lon="-1.9269240"><ele></ele><time>2017-12-15T23:3:54Z</time></trkpt>
<trkpt lat="48.2943090" lon="-1.9269790"><ele></ele><time>2017-12-15T23:3:57Z</time></trkpt>
<trkpt lat="48.2943080" lon="-1.9270300"><ele></ele><time>2017-12-15T23:4:0Z</time></trkpt>
<trkpt lat="48.2943210" lon="-1.9270810"><ele></ele><time>2017-12-15T23:4:3Z</time></trkpt>
<trkpt lat="48.2943310" lon="-1.9271320"><ele></ele><time>2017-12-15T23:4:6Z</time></trkpt>
<trkpt lat="48.2943340" lon="-1.9271890"><ele></ele><time>2017-12-15T23:4:9Z</time></trkpt>
<trkpt lat="48.2943390" lon="-1.9272440"><ele></ele><time>2017-12-15T23:4:12Z</time></trkpt>
<trkpt lat="48.2943490" lon="-1.9273020"><ele></ele><time>2017-12-15T23:4:15Z</time></trkpt>
<trkpt lat="48.2943600" lon="-1.9273560"><ele></ele><time>2017-12-15T23:4:18Z</time></trkpt>
<trkpt lat="48.2943720" lon="-1.9274080"><ele></ele><time>2017-12-15T23:4:21Z</time></trkpt>
<trkpt lat="48.2943880" lon="-1.9274610"><ele></ele><time>2017-12-15T23:4:24Z</time></trkpt>
<trkpt lat="48.2944080" lon="-1.9275100"><ele></ele><time>2017-12-15T23:4:27Z</time></trkpt>
<trkpt lat="48.2944200" lon="-1.9275570"><ele></ele><time>2017-12-15T23:4:30Z</time></trkpt>
<trkpt lat="48.2944290" lon="-1.9276070"><ele></ele><time>2017-12-15T23:4:33Z</time></trkpt>
<trkpt lat="48.2944450" lon="-1.9276480"><ele></ele><time>2017-12-15T23:4:36Z</time></trkpt>
<trkpt lat="48.2944540" lon="-1.9276940"><ele></ele><time>2017-12-15T23:4:39Z</time></trkpt>
<trkpt lat="48.2944580" lon="-1.9277360"><ele></ele><time>2017-12-15T23:4:42Z</time></trkpt>
<trkpt lat="48.2944730" lon="-1.9277900"><ele></ele><time>2017-12-15T23:4:45Z</time></trkpt>
<trkpt lat="48.2944830" lon="-1.9278310"><ele></ele><time>2017-12-15T23:4:48Z</time></trkpt>
<trkpt lat="48.2945000" lon="-1.9279170"><ele></ele><time>2017-12-15T23:4:51Z</time></trkpt>
<trkpt lat="48.2945120" lon="-1.9279630"><ele></ele><time>2017-12-15T23:4:54Z</time></trkpt>
<trkpt lat="48.2945160" lon="-1.9280140"><ele></ele><time>2017-12-15T23:4:57Z</time></trkpt>
<trkpt lat="48.2945290" lon="-1.9280610"><ele></ele><time>2017-12-15T23:5:0Z</time></trkpt>
<trkpt lat="48.2945350" lon="-1.9281070"><ele></ele><time>2017-12-15T23:5:3Z</time></trkpt>
<trkpt lat="48.2945450" lon="-1.9281570"><ele></ele><time>2017-12-15T23:5:6Z</time></trkpt>
<trkpt lat="48.2945570" lon="-1.9282050"><ele></ele><time>2017-12-15T23:5:9Z</time></trkpt>
<trkpt lat="48.2945690" lon="-1.9282510"><ele></ele><time>2017-12-15T23:5:12Z</time></trkpt>
<trkpt lat="48.2945730" lon="-1.9282970"><ele></ele><time>2017-12-15T23:5:15Z</time></trkpt>
<trkpt lat="48.2945790" lon="-1.9283420"><ele></ele><time>2017-12-15T23:5:18Z</time></trkpt>
<trkpt lat="48.2945860" lon="-1.9283860"><ele></ele><time>2017-12-15T23:5:21Z</time></trkpt>
<trkpt lat="48.2945940" lon="-1.9284350"><ele></ele><time>2017-12-15T23:5:24Z</time></trkpt>
<trkpt lat="48.2946050" lon="-1.9284790"><ele></ele><time>2017-12-15T23:5:27Z</time></trkpt>
<trkpt lat="48.2946170" lon="-1.9285240"><ele></ele><time>2017-12-15T23:5:30Z</time></trkpt>
<trkpt lat="48.2946180" lon="-1.9285730"><ele></ele><time>2017-12-15T23:5:33Z</time></trkpt>
<trkpt lat="48.2946200" lon="-1.9286240"><ele></ele><time>2017-12-15T23:5:36Z</time></trkpt>
<trkpt lat="48.2946270" lon="-1.9286730"><ele></ele><time>2017-12-15T23:5:39Z</time></trkpt>
<trkpt lat="48.2946330" lon="-1.9287270"><ele></ele><time>2017-12-15T23:5:42Z</time></trkpt>
<trkpt lat="48.2946430" lon="-1.9287800"><ele></ele><time>2017-12-15T23:5:45Z</time></trkpt>
<trkpt lat="48.2946500" lon="-1.9288340"><ele></ele><time>2017-12-15T23:5:48Z</time></trkpt>
<trkpt lat="48.2946590" lon="-1.9288850"><ele></ele><time>2017-12-15T23:5:51Z</time></trkpt>
<trkpt lat="48.2946720" lon="-1.9289390"><ele></ele><time>2017-12-15T23:5:54Z</time></trkpt>
<trkpt lat="48.2946870" lon="-1.9289870"><ele></ele><time>2017-12-15T23:5:57Z</time></trkpt>
<trkpt lat="48.2946970" lon="-1.9290340"><ele></ele><time>2017-12-15T23:6:0Z</time></trkpt>
<trkpt lat="48.2947060" lon="-1.9290850"><ele></ele><time>2017-12-15T23:6:3Z</time></trkpt>
<trkpt lat="48.2947140" lon="-1.9291360"><ele></ele><time>2017-12-15T23:6:6Z</time></trkpt>
<trkpt lat="48.2947200" lon="-1.9291910"><ele></ele><time>2017-12-15T23:6:9Z</time></trkpt>
<trkpt lat="48.2947230" lon="-1.9292530"><ele></ele><time>2017-12-15T23:6:12Z</time></trkpt>
<trkpt lat="48.2947290" lon="-1.9293130"><ele></ele><time>2017-12-15T23:6:15Z</time></trkpt>
<trkpt lat="48.2947360" lon="-1.9293750"><ele></ele><time>2017-12-15T23:6:18Z</time></trkpt>
<trkpt lat="48.2947460" lon="-1.9294380"><ele></ele><time>2017-12-15T23:6:21Z</time></trkpt>
<trkpt lat="48.2947540" lon="-1.9294970"><ele></ele><time>2017-12-15T23:6:24Z</time></trkpt>
<trkpt lat="48.2947610" lon="-1.9295530"><ele></ele><time>2017-12-15T23:6:27Z</time></trkpt>
<trkpt lat="48.2947660" lon="-1.9296110"><ele></ele><time>2017-12-15T23:6:30Z</time></trkpt>
<trkpt lat="48.2947720" lon="-1.9296720"><ele></ele><time>2017-12-15T23:6:33Z</time></trkpt>
<trkpt lat="48.2947860" lon="-1.9297420"><ele></ele><time>2017-12-15T23:6:36Z</time></trkpt>
<trkpt lat="48.2947940" lon="-1.9298150"><ele></ele><time>2017-12-15T23:6:39Z</time></trkpt>
<trkpt lat="48.2948040" lon="-1.9298880"><ele></ele><time>2017-12-15T23:6:42Z</time></trkpt>
<trkpt lat="48.2948080" lon="-1.9299570"><ele></ele><time>2017-12-15T23:6:45Z</time></trkpt>
<trkpt lat="48.2948160" lon="-1.9300180"><ele></ele><time>2017-12-15T23:6:48Z</time></trkpt>
<trkpt lat="48.2948220" lon="-1.9300820"><ele></ele><time>2017-12-15T23:6:51Z</time></trkpt>
<trkpt lat="48.2948240" lon="-1.9301490"><ele></ele><time>2017-12-15T23:6:54Z</time></trkpt>
<trkpt lat="48.2948330" lon="-1.9302100"><ele></ele><time>2017-12-15T23:6:57Z</time></trkpt>
<trkpt lat="48.2948500" lon="-1.9302840"><ele></ele><time>2017-12-15T23:7:0Z</time></trkpt>
<trkpt lat="48.2948620" lon="-1.9303450"><ele></ele><time>2017-12-15T23:7:3Z</time></trkpt>
<trkpt lat="48.2948750" lon="-1.9304000"><ele></ele><time>2017-12-15T23:7:6Z</time></trkpt>
<trkpt lat="48.2948880" lon="-1.9304670"><ele></ele><time>2017-12-15T23:7:9Z</time></trkpt>
<trkpt lat="48.2949010" lon="-1.9305320"><ele></ele><time>2017-12-15T23:7:12Z</time></trkpt>
<trkpt lat="48.2949200" lon="-1.9305920"><ele></ele><time>2017-12-15T23:7:15Z</time></trkpt>
<trkpt lat="48.2949300" lon="-1.9306530"><ele></ele><time>2017-12-15T23:7:18Z</time></trkpt>
<trkpt lat="48.2949320" lon="-1.9307140"><ele></ele><time>2017-12-15T23:7:21Z</time></trkpt>
<trkpt lat="48.2949380" lon="-1.9307710"><ele></ele><time>2017-12-15T23:7:24Z</time></trkpt>
<trkpt lat="48.2949450" lon="-1.9308270"><ele></ele><time>2017-12-15T23:7:27Z</time></trkpt>
<trkpt lat="48.2949440" lon="-1.9308790"><ele></ele><time>2017-12-15T23:7:30Z</time></trkpt>
<trkpt lat="48.2949430" lon="-1.9309280"><ele></ele><time>2017-12-15T23:7:33Z</time></trkpt>
<trkpt lat="48.2949530" lon="-1.9309750"><ele></ele><time>2017-12-15T23:7:36Z</time></trkpt>
<trkpt lat="48.2949600" lon="-1.9310330"><ele></ele><time>2017-12-15T23:7:39Z</time></trkpt>
<trkpt lat="48.2949620" lon="-1.9310980"><ele></ele><time>2017-12-15T23:7:42Z</time></trkpt>
<trkpt lat="48.2949640" lon="-1.9311540"><ele></ele><time>2017-12-15T23:7:45Z</time></trkpt>
<trkpt lat="48.2949640" lon="-1.9312100"><ele></ele><time>2017-12-15T23:7:48Z</time></trkpt>
<trkpt lat="48.2949660" lon="-1.9312610"><ele></ele><time>2017-12-15T23:7:51Z</time></trkpt>
<trkpt lat="48.2949660" lon="-1.9313120"><ele></ele><time>2017-12-15T23:7:54Z</time></trkpt>
<trkpt lat="48.2949650" lon="-1.9313640"><ele></ele><time>2017-12-15T23:7:57Z</time></trkpt>
<trkpt lat="48.2949620" lon="-1.9314130"><ele></ele><time>2017-12-15T23:8:0Z</time></trkpt>
<trkpt lat="48.2949620" lon="-1.9314600"><ele></ele><time>2017-12-15T23:8:3Z</time></trkpt>
<trkpt lat="48.2949640" lon="-1.9315050"><ele></ele><time>2017-12-15T23:8:6Z</time></trkpt>
<trkpt lat="48.2949660" lon="-1.9315550"><ele></ele><time>2017-12-15T23:8:9Z</time></trkpt>
<trkpt lat="48.2949700" lon="-1.9316020"><ele></ele><time>2017-12-15T23:8:12Z</time></trkpt>
<trkpt lat="48.2949680" lon="-1.9316500"><ele></ele><time>2017-12-15T23:8:15Z</time></trkpt>
<trkpt lat="48.2949690" lon="-1.9316960"><ele></ele><time>2017-12-15T23:8:18Z</time></trkpt>
<trkpt lat="48.2949730" lon="-1.9317730"><ele></ele><time>2017-12-15T23:8:21Z</time></trkpt>
<trkpt lat="48.2949780" lon="-1.9318200"><ele></ele><time>2017-12-15T23:8:24Z</time></trkpt>
<trkpt lat="48.2949780" lon="-1.9318610"><ele></ele><time>2017-12-15T23:8:27Z</time></trkpt>
<trkpt lat="48.2949810" lon="-1.9319020"><ele></ele><time>2017-12-15T23:8:30Z</time></trkpt>
<trkpt lat="48.2949850" lon="-1.9319430"><ele></ele><time>2017-12-15T23:8:33Z</time></trkpt>
<trkpt lat="48.2949760" lon="-1.9320170"><ele></ele><time>2017-12-15T23:8:36Z</time></trkpt>
<trkpt lat="48.2949710" lon="-1.9320960"><ele></ele><time>2017-12-15T23:8:39Z</time></trkpt>
<trkpt lat="48.2949660" lon="-1.9321420"><ele></ele><time>2017-12-15T23:8:42Z</time></trkpt>
<trkpt lat="48.2949670" lon="-1.9321840"><ele></ele><time>2017-12-15T23:8:45Z</time></trkpt>
<trkpt lat="48.2949650" lon="-1.9322260"><ele></ele><time>2017-12-15T23:8:48Z</time></trkpt>
<trkpt lat="48.2949590" lon="-1.9322700"><ele></ele><time>2017-12-15T23:8:51Z</time></trkpt>
<trkpt lat="48.2949550" lon="-1.9323110"><ele></ele><time>2017-12-15T23:8:54Z</time></trkpt>
<trkpt lat="48.2949470" lon="-1.9323510"><ele></ele><time>2017-12-15T23:8:57Z</time></trkpt>
<trkpt lat="48.2949370" lon="-1.9323920"><ele></ele><time>2017-12-15T23:9:0Z</time></trkpt>
<trkpt lat="48.2949240" lon="-1.9324350"><ele></ele><time>2017-12-15T23:9:3Z</time></trkpt>
<trkpt lat="48.2949200" lon="-1.9324780"><ele></ele><time>2017-12-15T23:9:6Z</time></trkpt>
<trkpt lat="48.2949130" lon="-1.9325590"><ele></ele><time>2017-12-15T23:9:9Z</time></trkpt>
<trkpt lat="48.2949130" lon="-1.9326000"><ele></ele><time>2017-12-15T23:9:12Z</time></trkpt>
<trkpt lat="48.2949070" lon="-1.9326810"><ele></ele><time>2017-12-15T23:9:15Z</time></trkpt>
<trkpt lat="48.2948920" lon="-1.9327170"><ele></ele><time>2017-12-15T23:9:18Z</time></trkpt>
<trkpt lat="48.2948830" lon="-1.9327550"><ele></ele><time>2017-12-15T23:9:21Z</time></trkpt>
<trkpt lat="48.2948770" lon="-1.9327950"><ele></ele><time>2017-12-15T23:9:24Z</time></trkpt>
<trkpt lat="48.2948670" lon="-1.9328370"><ele></ele><time>2017-12-15T23:9:27Z</time></trkpt>
<trkpt lat="48.2948580" lon="-1.9328750"><ele></ele><time>2017-12-15T23:9:30Z</time></trkpt>
<trkpt lat="48.2948460" lon="-1.9329180"><ele></ele><time>2017-12-15T23:9:33Z</time></trkpt>
<trkpt lat="48.2948340" lon="-1.9329570"><ele></ele><time>2017-12-15T23:9:36Z</time></trkpt>
<trkpt lat="48.2948250" lon="-1.9329980"><ele></ele><time>2017-12-15T23:9:39Z</time></trkpt>
<trkpt lat="48.2948090" lon="-1.9330770"><ele></ele><time>2017-12-15T23:9:42Z</time></trkpt>
<trkpt lat="48.2947940" lon="-1.9331200"><ele></ele><time>2017-12-15T23:9:45Z</time></trkpt>
<trkpt lat="48.2947840" lon="-1.9331590"><ele></ele><time>2017-12-15T23:9:48Z</time></trkpt>
<trkpt lat="48.2947740" lon="-1.9332280"><ele></ele><time>2017-12-15T23:9:51Z</time></trkpt>
<trkpt lat="48.2947610" lon="-1.9332710"><ele></ele><time>2017-12-15T23:9:54Z</time></trkpt>
<trkpt lat="48.2947460" lon="-1.9333160"><ele></ele><time>2017-12-15T23:9:57Z</time></trkpt>
<trkpt lat="48.2947320" lon="-1.9333570"><ele></ele><time>2017-12-15T23:10:0Z</time></trkpt>
<trkpt lat="48.2947180" lon="-1.9333940"><ele></ele><time>2017-12-15T23:10:3Z</time></trkpt>
<trkpt lat="48.2947090" lon="-1.9334340"><ele></ele><time>2017-12-15T23:10:6Z</time></trkpt>
<trkpt lat="48.2946910" lon="-1.9335020"><ele></ele><time>2017-12-15T23:10:9Z</time></trkpt>
<trkpt lat="48.2946850" lon="-1.9335660"><ele></ele><time>2017-12-15T23:10:12Z</time></trkpt>
<trkpt lat="48.2946680" lon="-1.9336280"><ele></ele><time>2017-12-15T23:10:15Z</time></trkpt>
<trkpt lat="48.2946570" lon="-1.9336660"><ele></ele><time>2017-12-15T23:10:18Z</time></trkpt>
<trkpt lat="48.2946370" lon="-1.9337330"><ele></ele><time>2017-12-15T23:10:21Z</time></trkpt>
<trkpt lat="48.2946330" lon="-1.9338060"><ele></ele><time>2017-12-15T23:10:24Z</time></trkpt>
<trkpt lat="48.2946090" lon="-1.9338530"><ele></ele><time>2017-12-15T23:10:27Z</time></trkpt>
<trkpt lat="48.2945900" lon="-1.9339330"><ele></ele><time>2017-12-15T23:10:30Z</time></trkpt>
<trkpt lat="48.2945790" lon="-1.9339940"><ele></ele><time>2017-12-15T23:10:33Z</time></trkpt>
<trkpt lat="48.2945770" lon="-1.9340560"><ele></ele><time>2017-12-15T23:10:36Z</time></trkpt>
<trkpt lat="48.2945680" lon="-1.9341260"><ele></ele><time>2017-12-15T23:10:39Z</time></trkpt>
<trkpt lat="48.2945680" lon="-1.9341960"><ele></ele><time>2017-12-15T23:10:42Z</time></trkpt>
<trkpt lat="48.2945740" lon="-1.9342720"><ele></ele><time>2017-12-15T23:10:45Z</time></trkpt>
<trkpt lat="48.2945700" lon="-1.9343130"><ele></ele><time>2017-12-15T23:10:48Z</time></trkpt>
<trkpt lat="48.2945730" lon="-1.9343830"><ele></ele><time>2017-12-15T23:10:51Z</time></trkpt>
<trkpt lat="48.2945770" lon="-1.9344250"><ele></ele><time>2017-12-15T23:10:54Z</time></trkpt>
<trkpt lat="48.2945650" lon="-1.9345130"><ele></ele><time>2017-12-15T23:10:57Z</time></trkpt>
<trkpt lat="48.2945520" lon="-1.9345650"><ele></ele><time>2017-12-15T23:11:0Z</time></trkpt>
<trkpt lat="48.2945430" lon="-1.9346290"><ele></ele><time>2017-12-15T23:11:3Z</time></trkpt>
<trkpt lat="48.2945300" lon="-1.9346910"><ele></ele><time>2017-12-15T23:11:6Z</time></trkpt>
<trkpt lat="48.2945160" lon="-1.9347610"><ele></ele><time>2017-12-15T23:11:9Z</time></trkpt>
<trkpt lat="48.2945030" lon="-1.9348210"><ele></ele><time>2017-12-15T23:11:12Z</time></trkpt>
<trkpt lat="48.2944920" lon="-1.9348930"><ele></ele><time>2017-12-15T23:11:15Z</time></trkpt>
<trkpt lat="48.2944780" lon="-1.9349590"><ele></ele><time>2017-12-15T23:11:18Z</time></trkpt>
<trkpt lat="48.2944760" lon="-1.9350390"><ele></ele><time>2017-12-15T23:11:21Z</time></trkpt>
<trkpt lat="48.2944780" lon="-1.9351270"><ele></ele><time>2017-12-15T23:11:24Z</time></trkpt>
<trkpt lat="48.2944820" lon="-1.9352070"><ele></ele><time>2017-12-15T23:11:27Z</time></trkpt>
<trkpt lat="48.2944990" lon="-1.9352760"><ele></ele><time>2017-12-15T23:11:30Z</time></trkpt>
<trkpt lat="48.2945120" lon="-1.9353600"><ele></ele><time>2017-12-15T23:11:33Z</time></trkpt>
<trkpt lat="48.2945290" lon="-1.9354500"><ele></ele><time>2017-12-15T23:11:36Z</time></trkpt>
<trkpt lat="48.2945410" lon="-1.9355670"><ele></ele><time>2017-12-15T23:11:39Z</time></trkpt>
<trkpt lat="48.2945550" lon="-1.9356710"><ele></ele><time>2017-12-15T23:11:42Z</time></trkpt>
<trkpt lat="48.2945600" lon="-1.9357760"><ele></ele><time>2017-12-15T23:11:45Z</time></trkpt>
<trkpt lat="48.2945710" lon="-1.9358760"><ele></ele><time>2017-12-15T23:11:48Z</time></trkpt>
<trkpt lat="48.2945950" lon="-1.9359570"><ele></ele><time>2017-12-15T23:11:51Z</time></trkpt>
<trkpt lat="48.2946120" lon="-1.9360240"><ele></ele><time>2017-12-15T23:11:54Z</time></trkpt>
<trkpt lat="48.2945900" lon="-1.9360810"><ele></ele><time>2017-12-15T23:11:57Z</time></trkpt>
<trkpt lat="48.2945610" lon="-1.9361430"><ele></ele><time>2017-12-15T23:12:0Z</time></trkpt>
<trkpt lat="48.2945390" lon="-1.9361920"><ele></ele><time>2017-12-15T23:12:3Z</time></trkpt>
<trkpt lat="48.2945250" lon="-1.9362580"><ele></ele><time>2017-12-15T23:12:6Z</time></trkpt>
<trkpt lat="48.2945130" lon="-1.9363200"><ele></ele><time>2017-12-15T23:12:9Z</time></trkpt>
<trkpt lat="48.2944990" lon="-1.9363810"><ele></ele><time>2017-12-15T23:12:12Z</time></trkpt>
<trkpt lat="48.2944780" lon="-1.9364510"><ele></ele><time>2017-12-15T23:12:15Z</time></trkpt>
<trkpt lat="48.2944650" lon="-1.9365120"><ele></ele><time>2017-12-15T23:12:18Z</time></trkpt>
<trkpt lat="48.2944360" lon="-1.9365800"><ele></ele><time>2017-12-15T23:12:21Z</time></trkpt>
<trkpt lat="48.2944210" lon="-1.9366370"><ele></ele><time>2017-12-15T23:12:24Z</time></trkpt>
<trkpt lat="48.2944140" lon="-1.9367040"><ele></ele><time>2017-12-15T23:12:27Z</time></trkpt>
<trkpt lat="48.2943960" lon="-1.9367700"><ele></ele><time>2017-12-15T23:12:30Z</time></trkpt>
<trkpt lat="48.2943690" lon="-1.9368320"><ele></ele><time>2017-12-15T23:12:33Z</time></trkpt>
<trkpt lat="48.2943500" lon="-1.9368860"><ele></ele><time>2017-12-15T23:12:36Z</time></trkpt>
<trkpt lat="48.2943340" lon="-1.9369340"><ele></ele><time>2017-12-15T23:12:39Z</time></trkpt>
<trkpt lat="48.2943080" lon="-1.9369910"><ele></ele><time>2017-12-15T23:12:42Z</time></trkpt>
<trkpt lat="48.2942810" lon="-1.9370510"><ele></ele><time>2017-12-15T23:12:45Z</time></trkpt>
<trkpt lat="48.2942490" lon="-1.9371180"><ele></ele><time>2017-12-15T23:12:48Z</time></trkpt>
<trkpt lat="48.2942220" lon="-1.9371720"><ele></ele><time>2017-12-15T23:12:51Z</time></trkpt>
<trkpt lat="48.2941970" lon="-1.9372180"><ele></ele><time>2017-12-15T23:12:54Z</time></trkpt>
<trkpt lat="48.2941670" lon="-1.9372640"><ele></ele><time>2017-12-15T23:12:57Z</time></trkpt>
<trkpt lat="48.2941350" lon="-1.9373090"><ele></ele><time>2017-12-15T23:13:0Z</time></trkpt>
<trkpt lat="48.2941070" lon="-1.9373660"><ele></ele><time>2017-12-15T23:13:3Z</time></trkpt>
<trkpt lat="48.2940810" lon="-1.9374230"><ele></ele><time>2017-12-15T23:13:6Z</time></trkpt>
<trkpt lat="48.2940800" lon="-1.9374880"><ele></ele><time>2017-12-15T23:13:9Z</time></trkpt>
<trkpt lat="48.2940920" lon="-1.9375700"><ele></ele><time>2017-12-15T23:13:12Z</time></trkpt>
<trkpt lat="48.2941200" lon="-1.9376290"><ele></ele><time>2017-12-15T23:13:15Z</time></trkpt>
<trkpt lat="48.2941560" lon="-1.9376860"><ele></ele><time>2017-12-15T23:13:18Z</time></trkpt>
<trkpt lat="48.2941940" lon="-1.9377410"><ele></ele><time>2017-12-15T23:13:21Z</time></trkpt>
<trkpt lat="48.2942350" lon="-1.9377860"><ele></ele><time>2017-12-15T23:13:24Z</time></trkpt>
<trkpt lat="48.2942800" lon="-1.9378590"><ele></ele><time>2017-12-15T23:13:27Z</time></trkpt>
<trkpt lat="48.2943170" lon="-1.9379340"><ele></ele><time>2017-12-15T23:13:30Z</time></trkpt>
<trkpt lat="48.2943530" lon="-1.9379930"><ele></ele><time>2017-12-15T23:13:33Z</time></trkpt>
<trkpt lat="48.2943780" lon="-1.9380480"><ele></ele><time>2017-12-15T23:13:36Z</time></trkpt>
<trkpt lat="48.2944010" lon="-1.9381120"><ele></ele><time>2017-12-15T23:13:39Z</time></trkpt>
<trkpt lat="48.2944200" lon="-1.9381590"><ele></ele><time>2017-12-15T23:13:42Z</time></trkpt>
<trkpt lat="48.2944710" lon="-1.9382390"><ele></ele><time>2017-12-15T23:13:45Z</time></trkpt>
<trkpt lat="48.2944980" lon="-1.9383020"><ele></ele><time>2017-12-15T23:13:48Z</time></trkpt>
<trkpt lat="48.2945130" lon="-1.9383690"><ele></ele><time>2017-12-15T23:13:51Z</time></trkpt>
<trkpt lat="48.2945180" lon="-1.9384310"><ele></ele><time>2017-12-15T23:13:54Z</time></trkpt>
<trkpt lat="48.2945070" lon="-1.9384940"><ele></ele><time>2017-12-15T23:13:57Z</time></trkpt>
<trkpt lat="48.2945140" lon="-1.9385690"><ele></ele><time>2017-12-15T23:14:0Z</time></trkpt>
<trkpt lat="48.2945030" lon="-1.9386560"><ele></ele><time>2017-12-15T23:14:3Z</time></trkpt>
<trkpt lat="48.2944840" lon="-1.9387360"><ele></ele><time>2017-12-15T23:14:6Z</time></trkpt>
<trkpt lat="48.2944720" lon="-1.9388130"><ele></ele><time>2017-12-15T23:14:9Z</time></trkpt>
<trkpt lat="48.2944600" lon="-1.9388990"><ele></ele><time>2017-12-15T23:14:12Z</time></trkpt>
<trkpt lat="48.2944450" lon="-1.9389800"><ele></ele><time>2017-12-15T23:14:15Z</time></trkpt>
<trkpt lat="48.2944220" lon="-1.9390560"><ele></ele><time>2017-12-15T23:14:18Z</time></trkpt>
<trkpt lat="48.2943930" lon="-1.9391370"><ele></ele><time>2017-12-15T23:14:21Z</time></trkpt>
<trkpt lat="48.2943710" lon="-1.9392120"><ele></ele><time>2017-12-15T23:14:24Z</time></trkpt>
<trkpt lat="48.2943480" lon="-1.9392850"><ele></ele><time>2017-12-15T23:14:27Z</time></trkpt>
<trkpt lat="48.2943150" lon="-1.9393550"><ele></ele><time>2017-12-15T23:14:30Z</time></trkpt>
<trkpt lat="48.2942800" lon="-1.9394260"><ele></ele><time>2017-12-15T23:14:33Z</time></trkpt>
<trkpt lat="48.2942350" lon="-1.9394930"><ele></ele><time>2017-12-15T23:14:36Z</time></trkpt>
<trkpt lat="48.2942020" lon="-1.9395600"><ele></ele><time>2017-12-15T23:14:39Z</time></trkpt>
<trkpt lat="48.2941880" lon="-1.9396160"><ele></ele><time>2017-12-15T23:14:42Z</time></trkpt>
<trkpt lat="48.2941700" lon="-1.9396880"><ele></ele><time>2017-12-15T23:14:45Z</time></trkpt>
<trkpt lat="48.2941960" lon="-1.9397250"><ele></ele><time>2017-12-15T23:14:48Z</time></trkpt>
<trkpt lat="48.2942110" lon="-1.9397790"><ele></ele><time>2017-12-15T23:14:51Z</time></trkpt>
<trkpt lat="48.2942390" lon="-1.9398680"><ele></ele><time>2017-12-15T23:14:54Z</time></trkpt>
<trkpt lat="48.2942610" lon="-1.9399310"><ele></ele><time>2017-12-15T23:14:57Z</time></trkpt>
<trkpt lat="48.2942940" lon="-1.9400170"><ele></ele><time>2017-12-15T23:15:0Z</time></trkpt>
<trkpt lat="48.2943060" lon="-1.9401340"><ele></ele><time>2017-12-15T23:15:3Z</time></trkpt>
<trkpt lat="48.2943190" lon="-1.9402420"><ele></ele><time>2017-12-15T23:15:6Z</time></trkpt>
<trkpt lat="48.2943160" lon="-1.9403540"><ele></ele><time>2017-12-15T23:15:9Z</time></trkpt>
<trkpt lat="48.2943140" lon="-1.9404600"><ele></ele><time>2017-12-15T23:15:12Z</time></trkpt>
<trkpt lat="48.2943040" lon="-1.9405630"><ele></ele><time>2017-12-15T23:15:15Z</time></trkpt>
<trkpt lat="48.2942960" lon="-1.9406510"><ele></ele><time>2017-12-15T23:15:18Z</time></trkpt>
<trkpt lat="48.2942720" lon="-1.9407200"><ele></ele><time>2017-12-15T23:15:21Z</time></trkpt>
<trkpt lat="48.2942440" lon="-1.9407930"><ele></ele><time>2017-12-15T23:15:24Z</time></trkpt>
<trkpt lat="48.2942130" lon="-1.9408560"><ele></ele><time>2017-12-15T23:15:27Z</time></trkpt>
<trkpt lat="48.2941890" lon="-1.9409180"><ele></ele><time>2017-12-15T23:15:30Z</time></trkpt>
<trkpt lat="48.2941700" lon="-1.9409620"><ele></ele><time>2017-12-15T23:15:33Z</time></trkpt>
<trkpt lat="48.2941560" lon="-1.9410140"><ele></ele><time>2017-12-15T23:15:36Z</time></trkpt>
<trkpt lat="48.2941450" lon="-1.9410580"><ele></ele><time>2017-12-15T23:15:39Z</time></trkpt>
<trkpt lat="48.2941590" lon="-1.9411070"><ele></ele><time>2017-12-15T23:15:42Z</time></trkpt>
<trkpt lat="48.2942080" lon="-1.9411010"><ele></ele><time>2017-12-15T23:15:45Z</time></trkpt>
<trkpt lat="48.2942610" lon="-1.9411020"><ele></ele><time>2017-12-15T23:15:48Z</time></trkpt>
<trkpt lat="48.2943090" lon="-1.9410960"><ele></ele><time>2017-12-15T23:15:51Z</time></trkpt>
<trkpt lat="48.2943610" lon="-1.9410900"><ele></ele><time>2017-12-15T23:15:54Z</time></trkpt>
<trkpt lat="48.2943900" lon="-1.9410840"><ele></ele><time>2017-12-15T23:15:57Z</time></trkpt>
<trkpt lat="48.2944180" lon="-1.9410830"><ele></ele><time>2017-12-15T23:16:0Z</time></trkpt>
<trkpt lat="48.2944480" lon="-1.9410800"><ele></ele><time>2017-12-15T23:16:3Z</time></trkpt>
<trkpt lat="48.2944790" lon="-1.9410790"><ele></ele><time>2017-12-15T23:16:6Z</time></trkpt>
<trkpt lat="48.2945080" lon="-1.9410740"><ele></ele><time>2017-12-15T23:16:9Z</time></trkpt>
<trkpt lat="48.2945410" lon="-1.9410790"><ele></ele><time>2017-12-15T23:16:12Z</time></trkpt>
<trkpt lat="48.2945740" lon="-1.9410820"><ele></ele><time>2017-12-15T23:16:15Z</time></trkpt>
<trkpt lat="48.2946070" lon="-1.9410860"><ele></ele><time>2017-12-15T23:16:18Z</time></trkpt>
<trkpt lat="48.2946560" lon="-1.9410850"><ele></ele><time>2017-12-15T23:16:21Z</time></trkpt>
<trkpt lat="48.2947000" lon="-1.9410950"><ele></ele><time>2017-12-15T23:16:24Z</time></trkpt>
<trkpt lat="48.2947210" lon="-1.9411400"><ele></ele><time>2017-12-15T23:16:27Z</time></trkpt>
<trkpt lat="48.2947430" lon="-1.9411950"><ele></ele><time>2017-12-15T23:16:30Z</time></trkpt>
<trkpt lat="48.2947610" lon="-1.9412300"><ele></ele><time>2017-12-15T23:16:33Z</time></trkpt>
<trkpt lat="48.2947890" lon="-1.9412480"><ele></ele><time>2017-12-15T23:16:36Z</time></trkpt>
<trkpt lat="48.2948210" lon="-1.9412650"><ele></ele><time>2017-12-15T23:16:39Z</time></trkpt>
<trkpt lat="48.2948620" lon="-1.9412990"><ele></ele><time>2017-12-15T23:16:42Z</time></trkpt>
<trkpt lat="48.2948930" lon="-1.9413040"><ele></ele><time>2017-12-15T23:16:45Z</time></trkpt>
<trkpt lat="48.2949210" lon="-1.9413350"><ele></ele><time>2017-12-15T23:16:48Z</time></trkpt>
<trkpt lat="48.2949470" lon="-1.9413610"><ele></ele><time>2017-12-15T23:16:51Z</time></trkpt>
<trkpt lat="48.2949720" lon="-1.9413880"><ele></ele><time>2017-12-15T23:16:54Z</time></trkpt>
<trkpt lat="48.2950010" lon="-1.9414140"><ele></ele><time>2017-12-15T23:16:57Z</time></trkpt>
<trkpt lat="48.2950210" lon="-1.9414490"><ele></ele><time>2017-12-15T23:17:0Z</time></trkpt>
<trkpt lat="48.2950460" lon="-1.9414850"><ele></ele><time>2017-12-15T23:17:3Z</time></trkpt>
<trkpt lat="48.2950720" lon="-1.9415020"><ele></ele><time>2017-12-15T23:17:6Z</time></trkpt>
<trkpt lat="48.2950920" lon="-1.9415480"><ele></ele><time>2017-12-15T23:17:9Z</time></trkpt>
<trkpt lat="48.2951080" lon="-1.9415860"><ele></ele><time>2017-12-15T23:17:12Z</time></trkpt>
<trkpt lat="48.2951230" lon="-1.9416210"><ele></ele><time>2017-12-15T23:17:15Z</time></trkpt>
<trkpt lat="48.2951460" lon="-1.9416490"><ele></ele><time>2017-12-15T23:17:18Z</time></trkpt>
<trkpt lat="48.2951660" lon="-1.9416820"><ele></ele><time>2017-12-15T23:17:21Z</time></trkpt>
<trkpt lat="48.2951870" lon="-1.9417140"><ele></ele><time>2017-12-15T23:17:24Z</time></trkpt>
<trkpt lat="48.2951960" lon="-1.9417600"><ele></ele><time>2017-12-15T23:17:27Z</time></trkpt>
<trkpt lat="48.2952080" lon="-1.9418030"><ele></ele><time>2017-12-15T23:17:30Z</time></trkpt>
<trkpt lat="48.2952260" lon="-1.9418360"><ele></ele><time>2017-12-15T23:17:33Z</time></trkpt>
<trkpt lat="48.2952450" lon="-1.9418660"><ele></ele><time>2017-12-15T23:17:36Z</time></trkpt>
<trkpt lat="48.2952560" lon="-1.9419110"><ele></ele><time>2017-12-15T23:17:39Z</time></trkpt>
<trkpt lat="48.2952600" lon="-1.9419590"><ele></ele><time>2017-12-15T23:17:42Z</time></trkpt>
<trkpt lat="48.2952800" lon="-1.9420050"><ele></ele><time>2017-12-15T23:17:45Z</time></trkpt>
<trkpt lat="48.2952870" lon="-1.9420440"><ele></ele><time>2017-12-15T23:17:48Z</time></trkpt>
<trkpt lat="48.2953000" lon="-1.9420890"><ele></ele><time>2017-12-15T23:17:51Z</time></trkpt>
<trkpt lat="48.2953210" lon="-1.9421290"><ele></ele><time>2017-12-15T23:17:54Z</time></trkpt>
<trkpt lat="48.2953370" lon="-1.9421710"><ele></ele><time>2017-12-15T23:17:57Z</time></trkpt>
<trkpt lat="48.2953620" lon="-1.9422020"><ele></ele><time>2017-12-15T23:18:0Z</time></trkpt>
<trkpt lat="48.2953840" lon="-1.9422360"><ele></ele><time>2017-12-15T23:18:3Z</time></trkpt>
<trkpt lat="48.2954020" lon="-1.9422740"><ele></ele><time>2017-12-15T23:18:6Z</time></trkpt>
<trkpt lat="48.2954200" lon="-1.9423070"><ele></ele><time>2017-12-15T23:18:9Z</time></trkpt>
<trkpt lat="48.2954550" lon="-1.9423270"><ele></ele><time>2017-12-15T23:18:12Z</time></trkpt>
<trkpt lat="48.2954720" lon="-1.9423660"><ele></ele><time>2017-12-15T23:18:15Z</time></trkpt>
<trkpt lat="48.2954870" lon="-1.9424070"><ele></ele><time>2017-12-15T23:18:18Z</time></trkpt>
<trkpt lat="48.2955110" lon="-1.9424300"><ele></ele><time>2017-12-15T23:18:21Z</time></trkpt>
<trkpt lat="48.2955250" lon="-1.9424730"><ele></ele><time>2017-12-15T23:18:24Z</time></trkpt>
<trkpt lat="48.2955430" lon="-1.9425060"><ele></ele><time>2017-12-15T23:18:27Z</time></trkpt>
<trkpt lat="48.2955490" lon="-1.9425530"><ele></ele><time>2017-12-15T23:18:30Z</time></trkpt>
<trkpt lat="48.2955660" lon="-1.9425860"><ele></ele><time>2017-12-15T23:18:33Z</time></trkpt>
<trkpt lat="48.2955820" lon="-1.9426230"><ele></ele><time>2017-12-15T23:18:36Z</time></trkpt>
<trkpt lat="48.2955840" lon="-1.9426670"><ele></ele><time>2017-12-15T23:18:39Z</time></trkpt>
<trkpt lat="48.2955660" lon="-1.9427050"><ele></ele><time>2017-12-15T23:18:42Z</time></trkpt>
<trkpt lat="48.2955560" lon="-1.9427450"><ele></ele><time>2017-12-15T23:18:45Z</time></trkpt>
<trkpt lat="48.2955380" lon="-1.9427780"><ele></ele><time>2017-12-15T23:18:48Z</time></trkpt>
<trkpt lat="48.2955140" lon="-1.9427990"><ele></ele><time>2017-12-15T23:18:51Z</time></trkpt>
<trkpt lat="48.2954880" lon="-1.9428270"><ele></ele><time>2017-12-15T23:18:54Z</time></trkpt>
<trkpt lat="48.2954590" lon="-1.9428620"><ele></ele><time>2017-12-15T23:18:57Z</time></trkpt>
<trkpt lat="48.2954320" lon="-1.9428950"><ele></ele><time>2017-12-15T23:19:0Z</time></trkpt>
<trkpt lat="48.2954130" lon="-1.9429270"><ele></ele><time>2017-12-15T23:19:3Z</time></trkpt>
<trkpt lat="48.2953990" lon="-1.9429630"><ele></ele><time>2017-12-15T23:19:6Z</time></trkpt>
<trkpt lat="48.2953780" lon="-1.9430030"><ele></ele><time>2017-12-15T23:19:9Z</time></trkpt>
<trkpt lat="48.2953540" lon="-1.9430390"><ele></ele><time>2017-12-15T23:19:12Z</time></trkpt>
<trkpt lat="48.2953170" lon="-1.9430810"><ele></ele><time>2017-12-15T23:19:15Z</time></trkpt>
<trkpt lat="48.2952920" lon="-1.9431070"><ele></ele><time>2017-12-15T23:19:18Z</time></trkpt>
<trkpt lat="48.2952680" lon="-1.9431520"><ele></ele><time>2017-12-15T23:19:21Z</time></trkpt>
<trkpt lat="48.2952490" lon="-1.9432110"><ele></ele><time>2017-12-15T23:19:24Z</time></trkpt>
<trkpt lat="48.2952210" lon="-1.9432560"><ele></ele><time>2017-12-15T23:19:27Z</time></trkpt>
<trkpt lat="48.2951970" lon="-1.9433080"><ele></ele><time>2017-12-15T23:19:30Z</time></trkpt>
<trkpt lat="48.2951820" lon="-1.9433580"><ele></ele><time>2017-12-15T23:19:33Z</time></trkpt>
<trkpt lat="48.2951680" lon="-1.9434040"><ele></ele><time>2017-12-15T23:19:36Z</time></trkpt>
<trkpt lat="48.2951490" lon="-1.9434570"><ele></ele><time>2017-12-15T23:19:39Z</time></trkpt>
<trkpt lat="48.2951270" lon="-1.9434970"><ele></ele><time>2017-12-15T23:19:42Z</time></trkpt>
<trkpt lat="48.2951120" lon="-1.9435540"><ele></ele><time>2017-12-15T23:19:45Z</time></trkpt>
<trkpt lat="48.2951000" lon="-1.9436150"><ele></ele><time>2017-12-15T23:19:48Z</time></trkpt>
<trkpt lat="48.2950730" lon="-1.9436730"><ele></ele><time>2017-12-15T23:19:51Z</time></trkpt>
<trkpt lat="48.2950520" lon="-1.9437120"><ele></ele><time>2017-12-15T23:19:54Z</time></trkpt>
<trkpt lat="48.2950230" lon="-1.9437520"><ele></ele><time>2017-12-15T23:19:57Z</time></trkpt>
<trkpt lat="48.2950030" lon="-1.9438070"><ele></ele><time>2017-12-15T23:20:0Z</time></trkpt>
<trkpt lat="48.2949730" lon="-1.9438450"><ele></ele><time>2017-12-15T23:20:3Z</time></trkpt>
<trkpt lat="48.2949500" lon="-1.9439040"><ele></ele><time>2017-12-15T23:20:6Z</time></trkpt>
<trkpt lat="48.2949400" lon="-1.9439430"><ele></ele><time>2017-12-15T23:20:9Z</time></trkpt>
<trkpt lat="48.2949390" lon="-1.9439860"><ele></ele><time>2017-12-15T23:20:12Z</time></trkpt>
<trkpt lat="48.2949370" lon="-1.9440300"><ele></ele><time>2017-12-15T23:20:15Z</time></trkpt>
<trkpt lat="48.2949400" lon="-1.9440720"><ele></ele><time>2017-12-15T23:20:18Z</time></trkpt>
<trkpt lat="48.2949590" lon="-1.9441120"><ele></ele><time>2017-12-15T23:20:21Z</time></trkpt>
<trkpt lat="48.2949690" lon="-1.9441570"><ele></ele><time>2017-12-15T23:20:24Z</time></trkpt>
<trkpt lat="48.2949870" lon="-1.9442080"><ele></ele><time>2017-12-15T23:20:27Z</time></trkpt>
<trkpt lat="48.2950090" lon="-1.9442590"><ele></ele><time>2017-12-15T23:20:30Z</time></trkpt>
<trkpt lat="48.2950230" lon="-1.9443270"><ele></ele><time>2017-12-15T23:20:33Z</time></trkpt>
<trkpt lat="48.2950350" lon="-1.9443700"><ele></ele><time>2017-12-15T23:20:36Z</time></trkpt>
<trkpt lat="48.2950410" lon="-1.9444100"><ele></ele><time>2017-12-15T23:20:39Z</time></trkpt>
<trkpt lat="48.2950680" lon="-1.9444770"><ele></ele><time>2017-12-15T23:20:42Z</time></trkpt>
<trkpt lat="48.2950820" lon="-1.9445120"><ele></ele><time>2017-12-15T23:20:45Z</time></trkpt>
<trkpt lat="48.2951150" lon="-1.9445730"><ele></ele><time>2017-12-15T23:20:48Z</time></trkpt>
<trkpt lat="48.2951330" lon="-1.9446050"><ele></ele><time>2017-12-15T23:20:51Z</time></trkpt>
<trkpt lat="48.2951550" lon="-1.9446710"><ele></ele><time>2017-12-15T23:20:54Z</time></trkpt>
<trkpt lat="48.2950940" lon="-1.9447210"><ele></ele><time>2017-12-15T23:20:57Z</time></trkpt>
<trkpt lat="48.2950510" lon="-1.9447520"><ele></ele><time>2017-12-15T23:21:0Z</time></trkpt>
<trkpt lat="48.2950180" lon="-1.9447880"><ele></ele><time>2017-12-15T23:21:3Z</time></trkpt>
<trkpt lat="48.2949850" lon="-1.9448120"><ele></ele><time>2017-12-15T23:21:6Z</time></trkpt>
<trkpt lat="48.2949520" lon="-1.9448430"><ele></ele><time>2017-12-15T23:21:9Z</time></trkpt>
<trkpt lat="48.2949170" lon="-1.9448740"><ele></ele><time>2017-12-15T23:21:12Z</time></trkpt>
<trkpt lat="48.2948750" lon="-1.9449070"><ele></ele><time>2017-12-15T23:21:15Z</time></trkpt>
<trkpt lat="48.2948270" lon="-1.9449410"><ele></ele><time>2017-12-15T23:21:18Z</time></trkpt>
<trkpt lat="48.2947780" lon="-1.9449710"><ele></ele><time>2017-12-15T23:21:21Z</time></trkpt>
<trkpt lat="48.2947300" lon="-1.9450070"><ele></ele><time>2017-12-15T23:21:24Z</time></trkpt>
<trkpt lat="48.2946980" lon="-1.9450370"><ele></ele><time>2017-12-15T23:21:27Z</time></trkpt>
<trkpt lat="48.2946680" lon="-1.9450610"><ele></ele><time>2017-12-15T23:21:30Z</time></trkpt>
<trkpt lat="48.2946360" lon="-1.9450840"><ele></ele><time>2017-12-15T23:21:33Z</time></trkpt>
<trkpt lat="48.2946080" lon="-1.9450950"><ele></ele><time>2017-12-15T23:21:36Z</time></trkpt>
<trkpt lat="48.2945950" lon="-1.9450560"><ele></ele><time>2017-12-15T23:21:39Z</time></trkpt>
<trkpt lat="48.2945790" lon="-1.9449950"><ele></ele><time>2017-12-15T23:21:42Z</time></trkpt>
<trkpt lat="48.2945660" lon="-1.9449190"><ele></ele><time>2017-12-15T23:21:45Z</time></trkpt>
<trkpt lat="48.2945470" lon="-1.9448460"><ele></ele><time>2017-12-15T23:21:48Z</time></trkpt>
<trkpt lat="48.2945400" lon="-1.9448050"><ele></ele><time>2017-12-15T23:21:51Z</time></trkpt>
<trkpt lat="48.2945350" lon="-1.9447580"><ele></ele><time>2017-12-15T23:21:54Z</time></trkpt>
<trkpt lat="48.2945240" lon="-1.9447150"><ele></ele><time>2017-12-15T23:21:57Z</time></trkpt>
<trkpt lat="48.2945200" lon="-1.9446610"><ele></ele><time>2017-12-15T23:22:0Z</time></trkpt>
<trkpt lat="48.2944980" lon="-1.9445940"><ele></ele><time>2017-12-15T23:22:3Z</time></trkpt>
<trkpt lat="48.2944710" lon="-1.9445440"><ele></ele><time>2017-12-15T23:22:6Z</time></trkpt>
<trkpt lat="48.2944400" lon="-1.9445140"><ele></ele><time>2017-12-15T23:22:9Z</time></trkpt>
<trkpt lat="48.2944150" lon="-1.9444770"><ele></ele><time>2017-12-15T23:22:12Z</time></trkpt>
<trkpt lat="48.2944120" lon="-1.9444360"><ele></ele><time>2017-12-15T23:22:15Z</time></trkpt>
<trkpt lat="48.2944080" lon="-1.9443710"><ele></ele><time>2017-12-15T23:22:18Z</time></trkpt>
<trkpt lat="48.2944030" lon="-1.9443270"><ele></ele><time>2017-12-15T23:22:21Z</time></trkpt>
<trkpt lat="48.2943920" lon="-1.9442860"><ele></ele><time>2017-12-15T23:22:24Z</time></trkpt>
<trkpt lat="48.2943800" lon="-1.9442430"><ele></ele><time>2017-12-15T23:22:27Z</time></trkpt>
<trkpt lat="48.2943690" lon="-1.9442060"><ele></ele><time>2017-12-15T23:22:30Z</time></trkpt>
<trkpt lat="48.2943610" lon="-1.9441630"><ele></ele><time>2017-12-15T23:22:33Z</time></trkpt>
<trkpt lat="48.2943530" lon="-1.9441200"><ele></ele><time>2017-12-15T23:22:36Z</time></trkpt>
<trkpt lat="48.2943470" lon="-1.9440620"><ele></ele><time>2017-12-15T23:22:39Z</time></trkpt>
<trkpt lat="48.2943450" lon="-1.9440190"><ele></ele><time>2017-12-15T23:22:42Z</time></trkpt>
<trkpt lat="48.2943440" lon="-1.9439660"><ele></ele><time>2017-12-15T23:22:45Z</time></trkpt>
<trkpt lat="48.2943290" lon="-1.9439270"><ele></ele><time>2017-12-15T23:22:48Z</time></trkpt>
<trkpt lat="48.2943140" lon="-1.9438880"><ele></ele><time>2017-12-15T23:22:51Z</time></trkpt>
<trkpt lat="48.2943100" lon="-1.9438380"><ele></ele><time>2017-12-15T23:22:54Z</time></trkpt>
<trkpt lat="48.2942920" lon="-1.9438040"><ele></ele><time>2017-12-15T23:22:57Z</time></trkpt>
<trkpt lat="48.2942640" lon="-1.9437830"><ele></ele><time>2017-12-15T23:23:0Z</time></trkpt>
<trkpt lat="48.2942320" lon="-1.9437590"><ele></ele><time>2017-12-15T23:23:3Z</time></trkpt>
<trkpt lat="48.2941960" lon="-1.9436990"><ele></ele><time>2017-12-15T23:23:6Z</time></trkpt>
<trkpt lat="48.2941960" lon="-1.9436470"><ele></ele><time>2017-12-15T23:23:9Z</time></trkpt>
<trkpt lat="48.2941930" lon="-1.9436020"><ele></ele><time>2017-12-15T23:23:12Z</time></trkpt>
<trkpt lat="48.2941920" lon="-1.9435490"><ele></ele><time>2017-12-15T23:23:15Z</time></trkpt>
<trkpt lat="48.2941930" lon="-1.9434800"><ele></ele><time>2017-12-15T23:23:18Z</time></trkpt>
<trkpt lat="48.2941980" lon="-1.9434200"><ele></ele><time>2017-12-15T23:23:21Z</time></trkpt>
<trkpt lat="48.2942070" lon="-1.9433540"><ele></ele><time>2017-12-15T23:23:24Z</time></trkpt>
<trkpt lat="48.2942140" lon="-1.9432860"><ele></ele><time>2017-12-15T23:23:27Z</time></trkpt>
<trkpt lat="48.2942250" lon="-1.9432220"><ele></ele><time>2017-12-15T23:23:30Z</time></trkpt>
<trkpt lat="48.2942340" lon="-1.9431560"><ele></ele><time>2017-12-15T23:23:33Z</time></trkpt>
<trkpt lat="48.2942420" lon="-1.9430880"><ele></ele><time>2017-12-15T23:23:36Z</time></trkpt>
<trkpt lat="48.2942530" lon="-1.9430300"><ele></ele><time>2017-12-15T23:23:39Z</time></trkpt>
<trkpt lat="48.2942370" lon="-1.9429850"><ele></ele><time>2017-12-15T23:23:42Z</time></trkpt>
<trkpt lat="48.2941870" lon="-1.9429440"><ele></ele><time>2017-12-15T23:23:45Z</time></trkpt>
<trkpt lat="48.2941460" lon="-1.9428940"><ele></ele><time>2017-12-15T23:23:48Z</time></trkpt>
<trkpt lat="48.2941170" lon="-1.9428420"><ele></ele><time>2017-12-15T23:23:51Z</time></trkpt>
<trkpt lat="48.2940940" lon="-1.9428650"><ele></ele><time>2017-12-15T23:23:54Z</time></trkpt>
<trkpt lat="48.2940750" lon="-1.9428980"><ele></ele><time>2017-12-15T23:23:57Z</time></trkpt>
<trkpt lat="48.2940670" lon="-1.9429490"><ele></ele><time>2017-12-15T23:24:0Z</time></trkpt>
<trkpt lat="48.2940420" lon="-1.9430180"><ele></ele><time>2017-12-15T23:24:3Z</time></trkpt>
<trkpt lat="48.2940280" lon="-1.9430600"><ele></ele><time>2017-12-15T23:24:6Z</time></trkpt>
<trkpt lat="48.2940130" lon="-1.9431010"><ele></ele><time>2017-12-15T23:24:9Z</time></trkpt>
<trkpt lat="48.2939970" lon="-1.9431380"><ele></ele><time>2017-12-15T23:24:12Z</time></trkpt>
<trkpt lat="48.2939770" lon="-1.9431800"><ele></ele><time>2017-12-15T23:24:15Z</time></trkpt>
<trkpt lat="48.2939610" lon="-1.9432250"><ele></ele><time>2017-12-15T23:24:18Z</time></trkpt>
<trkpt lat="48.2939470" lon="-1.9432710"><ele></ele><time>2017-12-15T23:24:21Z</time></trkpt>
<trkpt lat="48.2939320" lon="-1.9433190"><ele></ele><time>2017-12-15T23:24:24Z</time></trkpt>
<trkpt lat="48.2939080" lon="-1.9433640"><ele></ele><time>2017-12-15T23:24:27Z</time></trkpt>
<trkpt lat="48.2938890" lon="-1.9434100"><ele></ele><time>2017-12-15T23:24:30Z</time></trkpt>
<trkpt lat="48.2938710" lon="-1.9434540"><ele></ele><time>2017-12-15T23:24:33Z</time></trkpt>
<trkpt lat="48.2938540" lon="-1.9434990"><ele></ele><time>2017-12-15T23:24:36Z</time></trkpt>
<trkpt lat="48.2938400" lon="-1.9435460"><ele></ele><time>2017-12-15T23:24:39Z</time></trkpt>
<trkpt lat="48.2938240" lon="-1.9435950"><ele></ele><time>2017-12-15T23:24:42Z</time></trkpt>
<trkpt lat="48.2938020" lon="-1.9436440"><ele></ele><time>2017-12-15T23:24:45Z</time></trkpt>
<trkpt lat="48.2937840" lon="-1.9436890"><ele></ele><time>2017-12-15T23:24:48Z</time></trkpt>
<trkpt lat="48.2937630" lon="-1.9437340"><ele></ele><time>2017-12-15T23:24:51Z</time></trkpt>
<trkpt lat="48.2937450" lon="-1.9437800"><ele></ele><time>2017-12-15T23:24:54Z</time></trkpt>
<trkpt lat="48.2937260" lon="-1.9438270"><ele></ele><time>2017-12-15T23:24:57Z</time></trkpt>
<trkpt lat="48.2937070" lon="-1.9438750"><ele></ele><time>2017-12-15T23:25:0Z</time></trkpt>
<trkpt lat="48.2936870" lon="-1.9439190"><ele></ele><time>2017-12-15T23:25:3Z</time></trkpt>
<trkpt lat="48.2936650" lon="-1.9439650"><ele></ele><time>2017-12-15T23:25:6Z</time></trkpt>
<trkpt lat="48.2936440" lon="-1.9440110"><ele></ele><time>2017-12-15T23:25:9Z</time></trkpt>
<trkpt lat="48.2936210" lon="-1.9440570"><ele></ele><time>2017-12-15T23:25:12Z</time></trkpt>
<trkpt lat="48.2935960" lon="-1.9440990"><ele></ele><time>2017-12-15T23:25:15Z</time></trkpt>
<trkpt lat="48.2935620" lon="-1.9441400"><ele></ele><time>2017-12-15T23:25:18Z</time></trkpt>
<trkpt lat="48.2935310" lon="-1.9441810"><ele></ele><time>2017-12-15T23:25:21Z</time></trkpt>
<trkpt lat="48.2934990" lon="-1.9442190"><ele></ele><time>2017-12-15T23:25:24Z</time></trkpt>
<trkpt lat="48.2934670" lon="-1.9442530"><ele></ele><time>2017-12-15T23:25:27Z</time></trkpt>
<trkpt lat="48.2934340" lon="-1.9442860"><ele></ele><time>2017-12-15T23:25:30Z</time></trkpt>
<trkpt lat="48.2934030" lon="-1.9443130"><ele></ele><time>2017-12-15T23:25:33Z</time></trkpt>
<trkpt lat="48.2933690" lon="-1.9443370"><ele></ele><time>2017-12-15T23:25:36Z</time></trkpt>
<trkpt lat="48.2933340" lon="-1.9443610"><ele></ele><time>2017-12-15T23:25:39Z</time></trkpt>
<trkpt lat="48.2932970" lon="-1.9443780"><ele></ele><time>2017-12-15T23:25:42Z</time></trkpt>
<trkpt lat="48.2932590" lon="-1.9443950"><ele></ele><time>2017-12-15T23:25:45Z</time></trkpt>
<trkpt lat="48.2932240" lon="-1.9444080"><ele></ele><time>2017-12-15T23:25:48Z</time></trkpt>
<trkpt lat="48.2931930" lon="-1.9444230"><ele></ele><time>2017-12-15T23:25:51Z</time></trkpt>
<trkpt lat="48.2931590" lon="-1.9444460"><ele></ele><time>2017-12-15T23:25:54Z</time></trkpt>
<trkpt lat="48.2931310" lon="-1.9444700"><ele></ele><time>2017-12-15T23:25:57Z</time></trkpt>
<trkpt lat="48.2931130" lon="-1.9445180"><ele></ele><time>2017-12-15T23:26:0Z</time></trkpt>
<trkpt lat="48.2931080" lon="-1.9445680"><ele></ele><time>2017-12-15T23:26:3Z</time></trkpt>
<trkpt lat="48.2931140" lon="-1.9446150"><ele></ele><time>2017-12-15T23:26:6Z</time></trkpt>
<trkpt lat="48.2931220" lon="-1.9446670"><ele></ele><time>2017-12-15T23:26:9Z</time></trkpt>
<trkpt lat="48.2931330" lon="-1.9447210"><ele></ele><time>2017-12-15T23:26:12Z</time></trkpt>
<trkpt lat="48.2931420" lon="-1.9447730"><ele></ele><time>2017-12-15T23:26:15Z</time></trkpt>
<trkpt lat="48.2931530" lon="-1.9448220"><ele></ele><time>2017-12-15T23:26:18Z</time></trkpt>
<trkpt lat="48.2931680" lon="-1.9448580"><ele></ele><time>2017-12-15T23:26:21Z</time></trkpt>
<trkpt lat="48.2931880" lon="-1.9449250"><ele></ele><time>2017-12-15T23:26:24Z</time></trkpt>
<trkpt lat="48.2932020" lon="-1.9449800"><ele></ele><time>2017-12-15T23:26:27Z</time></trkpt>
<trkpt lat="48.2931820" lon="-1.9450080"><ele></ele><time>2017-12-15T23:26:30Z</time></trkpt>
<trkpt lat="48.2932030" lon="-1.9450460"><ele></ele><time>2017-12-15T23:26:33Z</time></trkpt>
<trkpt lat="48.2932220" lon="-1.9450790"><ele></ele><time>2017-12-15T23:26:36Z</time></trkpt>
<trkpt lat="48.2932430" lon="-1.9451200"><ele></ele><time>2017-12-15T23:26:39Z</time></trkpt>
<trkpt lat="48.2932700" lon="-1.9451600"><ele></ele><time>2017-12-15T23:26:42Z</time></trkpt>
<trkpt lat="48.2932830" lon="-1.9451960"><ele></ele><time>2017-12-15T23:26:45Z</time></trkpt>
<trkpt lat="48.2933080" lon="-1.9452290"><ele></ele><time>2017-12-15T23:26:48Z</time></trkpt>
<trkpt lat="48.2933360" lon="-1.9452550"><ele></ele><time>2017-12-15T23:26:51Z</time></trkpt>
<trkpt lat="48.2933710" lon="-1.9452800"><ele></ele><time>2017-12-15T23:26:54Z</time></trkpt>
<trkpt lat="48.2934060" lon="-1.9453050"><ele></ele><time>2017-12-15T23:26:57Z</time></trkpt>
<trkpt lat="48.2934420" lon="-1.9453260"><ele></ele><time>2017-12-15T23:27:0Z</time></trkpt>
<trkpt lat="48.2934750" lon="-1.9453520"><ele></ele><time>2017-12-15T23:27:3Z</time></trkpt>
<trkpt lat="48.2935030" lon="-1.9453780"><ele></ele><time>2017-12-15T23:27:6Z</time></trkpt>
<trkpt lat="48.2935380" lon="-1.9453790"><ele></ele><time>2017-12-15T23:27:9Z</time></trkpt>
<trkpt lat="48.2935670" lon="-1.9453630"><ele></ele><time>2017-12-15T23:27:12Z</time></trkpt>
<trkpt lat="48.2935990" lon="-1.9453400"><ele></ele><time>2017-12-15T23:27:15Z</time></trkpt>
<trkpt lat="48.2936270" lon="-1.9453170"><ele></ele><time>2017-12-15T23:27:18Z</time></trkpt>
<trkpt lat="48.2936550" lon="-1.9453130"><ele></ele><time>2017-12-15T23:27:21Z</time></trkpt>
<trkpt lat="48.2936820" lon="-1.9453040"><ele></ele><time>2017-12-15T23:27:24Z</time></trkpt>
<trkpt lat="48.2937080" lon="-1.9452770"><ele></ele><time>2017-12-15T23:27:27Z</time></trkpt>
<trkpt lat="48.2937360" lon="-1.9452710"><ele></ele><time>2017-12-15T23:27:30Z</time></trkpt>
<trkpt lat="48.2937670" lon="-1.9452600"><ele></ele><time>2017-12-15T23:27:33Z</time></trkpt>
<trkpt lat="48.2938060" lon="-1.9452480"><ele></ele><time>2017-12-15T23:27:36Z</time></trkpt>
<trkpt lat="48.2938330" lon="-1.9452300"><ele></ele><time>2017-12-15T23:27:39Z</time></trkpt>
<trkpt lat="48.2938630" lon="-1.9452180"><ele></ele><time>2017-12-15T23:27:42Z</time></trkpt>
<trkpt lat="48.2938970" lon="-1.9452110"><ele></ele><time>2017-12-15T23:27:45Z</time></trkpt>
<trkpt lat="48.2939240" lon="-1.9452000"><ele></ele><time>2017-12-15T23:27:48Z</time></trkpt>
<trkpt lat="48.2939500" lon="-1.9451850"><ele></ele><time>2017-12-15T23:27:51Z</time></trkpt>
<trkpt lat="48.2939780" lon="-1.9451780"><ele></ele><time>2017-12-15T23:27:54Z</time></trkpt>
<trkpt lat="48.2940050" lon="-1.9451880"><ele></ele><time>2017-12-15T23:27:57Z</time></trkpt>
<trkpt lat="48.2940330" lon="-1.9452020"><ele></ele><time>2017-12-15T23:28:0Z</time></trkpt>
<trkpt lat="48.2940620" lon="-1.9452090"><ele></ele><time>2017-12-15T23:28:3Z</time></trkpt>
<trkpt lat="48.2940930" lon="-1.9452210"><ele></ele><time>2017-12-15T23:28:6Z</time></trkpt>
<trkpt lat="48.2941220" lon="-1.9452480"><ele></ele><time>2017-12-15T23:28:9Z</time></trkpt>
<trkpt lat="48.2941460" lon="-1.9452680"><ele></ele><time>2017-12-15T23:28:12Z</time></trkpt>
<trkpt lat="48.2941920" lon="-1.9452920"><ele></ele><time>2017-12-15T23:28:15Z</time></trkpt>
<trkpt lat="48.2942180" lon="-1.9452850"><ele></ele><time>2017-12-15T23:28:18Z</time></trkpt>
<trkpt lat="48.2942650" lon="-1.9452880"><ele></ele><time>2017-12-15T23:28:21Z</time></trkpt>
<trkpt lat="48.2942930" lon="-1.9453230"><ele></ele><time>2017-12-15T23:28:24Z</time></trkpt>
<trkpt lat="48.2943260" lon="-1.9453430"><ele></ele><time>2017-12-15T23:28:27Z</time></trkpt>
<trkpt lat="48.2943450" lon="-1.9453910"><ele></ele><time>2017-12-15T23:28:30Z</time></trkpt>
<trkpt lat="48.2943850" lon="-1.9454010"><ele></ele><time>2017-12-15T23:28:33Z</time></trkpt>
<trkpt lat="48.2944250" lon="-1.9454290"><ele></ele><time>2017-12-15T23:28:36Z</time></trkpt>
<trkpt lat="48.2944430" lon="-1.9454770"><ele></ele><time>2017-12-15T23:28:39Z</time></trkpt>
<trkpt lat="48.2944480" lon="-1.9455290"><ele></ele><time>2017-12-15T23:28:42Z</time></trkpt>
<trkpt lat="48.2944460" lon="-1.9455700"><ele></ele><time>2017-12-15T23:28:45Z</time></trkpt>
<trkpt lat="48.2944550" lon="-1.9455290"><ele></ele><time>2017-12-15T23:28:48Z</time></trkpt>
<trkpt lat="48.2944750" lon="-1.9454940"><ele></ele><time>2017-12-15T23:28:51Z</time></trkpt>
<trkpt lat="48.2944910" lon="-1.9454350"><ele></ele><time>2017-12-15T23:28:54Z</time></trkpt>
<trkpt lat="48.2945010" lon="-1.9453900"><ele></ele><time>2017-12-15T23:28:57Z</time></trkpt>
<trkpt lat="48.2945260" lon="-1.9454310"><ele></ele><time>2017-12-15T23:29:0Z</time></trkpt>
<trkpt lat="48.2945590" lon="-1.9454900"><ele></ele><time>2017-12-15T23:29:3Z</time></trkpt>
<trkpt lat="48.2945820" lon="-1.9455300"><ele></ele><time>2017-12-15T23:29:6Z</time></trkpt>
<trkpt lat="48.2946070" lon="-1.9455640"><ele></ele><time>2017-12-15T23:29:9Z</time></trkpt>
<trkpt lat="48.2946330" lon="-1.9456000"><ele></ele><time>2017-12-15T23:29:12Z</time></trkpt>
<trkpt lat="48.2946590" lon="-1.9456340"><ele></ele><time>2017-12-15T23:29:15Z</time></trkpt>
<trkpt lat="48.2946820" lon="-1.9456700"><ele></ele><time>2017-12-15T23:29:18Z</time></trkpt>
<trkpt lat="48.2947100" lon="-1.9457020"><ele></ele><time>2017-12-15T23:29:21Z</time></trkpt>
<trkpt lat="48.2947310" lon="-1.9457400"><ele></ele><time>2017-12-15T23:29:24Z</time></trkpt>
<trkpt lat="48.2947540" lon="-1.9457760"><ele></ele><time>2017-12-15T23:29:27Z</time></trkpt>
<trkpt lat="48.2947880" lon="-1.9458220"><ele></ele><time>2017-12-15T23:29:30Z</time></trkpt>
<trkpt lat="48.2948080" lon="-1.9458670"><ele></ele><time>2017-12-15T23:29:33Z</time></trkpt>
<trkpt lat="48.2948400" lon="-1.9458670"><ele></ele><time>2017-12-15T23:29:36Z</time></trkpt>
<trkpt lat="48.2948660" lon="-1.9458540"><ele></ele><time>2017-12-15T23:29:39Z</time></trkpt>
<trkpt lat="48.2949020" lon="-1.9458260"><ele></ele><time>2017-12-15T23:29:42Z</time></trkpt>
<trkpt lat="48.2949420" lon="-1.9458190"><ele></ele><time>2017-12-15T23:29:45Z</time></trkpt>
<trkpt lat="48.2949850" lon="-1.9458570"><ele></ele><time>2017-12-15T23:29:48Z</time></trkpt>
<trkpt lat="48.2950160" lon="-1.9459580"><ele></ele><time>2017-12-15T23:29:51Z</time></trkpt>
<trkpt lat="48.2950590" lon="-1.9460280"><ele></ele><time>2017-12-15T23:29:54Z</time></trkpt>
<trkpt lat="48.2951020" lon="-1.9460980"><ele></ele><time>2017-12-15T23:29:57Z</time></trkpt>
<trkpt lat="48.2951520" lon="-1.9461720"><ele></ele><time>2017-12-15T23:30:0Z</time></trkpt>
<trkpt lat="48.2951970" lon="-1.9462420"><ele></ele><time>2017-12-15T23:30:3Z</time></trkpt>
<trkpt lat="48.2952340" lon="-1.9463080"><ele></ele><time>2017-12-15T23:30:6Z</time></trkpt>
<trkpt lat="48.2952740" lon="-1.9463660"><ele></ele><time>2017-12-15T23:30:9Z</time></trkpt>
<trkpt lat="48.2953120" lon="-1.9464330"><ele></ele><time>2017-12-15T23:30:12Z</time></trkpt>
<trkpt lat="48.2953560" lon="-1.9465100"><ele></ele><time>2017-12-15T23:30:15Z</time></trkpt>
<trkpt lat="48.2953980" lon="-1.9465990"><ele></ele><time>2017-12-15T23:30:18Z</time></trkpt>
<trkpt lat="48.2954420" lon="-1.9466890"><ele></ele><time>2017-12-15T23:30:21Z</time></trkpt>
<trkpt lat="48.2954860" lon="-1.9467900"><ele></ele><time>2017-12-15T23:30:24Z</time></trkpt>
<trkpt lat="48.2955430" lon="-1.9468870"><ele></ele><time>2017-12-15T23:30:27Z</time></trkpt>
<trkpt lat="48.2955940" lon="-1.9469890"><ele></ele><time>2017-12-15T23:30:30Z</time></trkpt>
<trkpt lat="48.2956510" lon="-1.9470890"><ele></ele><time>2017-12-15T23:30:33Z</time></trkpt>
<trkpt lat="48.2957070" lon="-1.9471900"><ele></ele><time>2017-12-15T23:30:36Z</time></trkpt>
<trkpt lat="48.2957660" lon="-1.9472910"><ele></ele><time>2017-12-15T23:30:39Z</time></trkpt>
<trkpt lat="48.2958310" lon="-1.9474110"><ele></ele><time>2017-12-15T23:30:42Z</time></trkpt>
<trkpt lat="48.2958960" lon="-1.9475370"><ele></ele><time>2017-12-15T23:30:45Z</time></trkpt>
<trkpt lat="48.2959480" lon="-1.9476420"><ele></ele><time>2017-12-15T23:30:48Z</time></trkpt>
<trkpt lat="48.2960170" lon="-1.9477710"><ele></ele><time>2017-12-15T23:30:51Z</time></trkpt>
<trkpt lat="48.2960830" lon="-1.9478820"><ele></ele><time>2017-12-15T23:30:54Z</time></trkpt>
<trkpt lat="48.2961510" lon="-1.9479810"><ele></ele><time>2017-12-15T23:30:57Z</time></trkpt>
<trkpt lat="48.2961950" lon="-1.9480700"><ele></ele><time>2017-12-15T23:31:0Z</time></trkpt>
<trkpt lat="48.2962410" lon="-1.9481350"><ele></ele><time>2017-12-15T23:31:3Z</time></trkpt>
<trkpt lat="48.2962880" lon="-1.9481610"><ele></ele><time>2017-12-15T23:31:6Z</time></trkpt>
<trkpt lat="48.2963260" lon="-1.9481720"><ele></ele><time>2017-12-15T23:31:9Z</time></trkpt>
<trkpt lat="48.2963840" lon="-1.9481840"><ele></ele><time>2017-12-15T23:31:12Z</time></trkpt>
<trkpt lat="48.2964380" lon="-1.9481780"><ele></ele><time>2017-12-15T23:31:15Z</time></trkpt>
<trkpt lat="48.2964860" lon="-1.9481720"><ele></ele><time>2017-12-15T23:31:18Z</time></trkpt>
<trkpt lat="48.2965450" lon="-1.9481380"><ele></ele><time>2017-12-15T23:31:21Z</time></trkpt>
<trkpt lat="48.2965930" lon="-1.9481310"><ele></ele><time>2017-12-15T23:31:24Z</time></trkpt>
<trkpt lat="48.2966400" lon="-1.9481270"><ele></ele><time>2017-12-15T23:31:27Z</time></trkpt>
<trkpt lat="48.2966840" lon="-1.9480910"><ele></ele><time>2017-12-15T23:31:30Z</time></trkpt>
<trkpt lat="48.2967370" lon="-1.9480710"><ele></ele><time>2017-12-15T23:31:33Z</time></trkpt>
<trkpt lat="48.2967890" lon="-1.9480550"><ele></ele><time>2017-12-15T23:31:36Z</time></trkpt>
<trkpt lat="48.2968390" lon="-1.9480430"><ele></ele><time>2017-12-15T23:31:39Z</time></trkpt>
<trkpt lat="48.2968960" lon="-1.9480220"><ele></ele><time>2017-12-15T23:31:42Z</time></trkpt>
<trkpt lat="48.2969470" lon="-1.9480110"><ele></ele><time>2017-12-15T23:31:45Z</time></trkpt>
<trkpt lat="48.2969990" lon="-1.9480010"><ele></ele><time>2017-12-15T23:31:48Z</time></trkpt>
<trkpt lat="48.2970550" lon="-1.9479920"><ele></ele><time>2017-12-15T23:31:51Z</time></trkpt>
<trkpt lat="48.2971110" lon="-1.9479820"><ele></ele><time>2017-12-15T23:31:54Z</time></trkpt>
<trkpt lat="48.2971720" lon="-1.9479700"><ele></ele><time>2017-12-15T23:31:57Z</time></trkpt>
<trkpt lat="48.2972260" lon="-1.9479660"><ele></ele><time>2017-12-15T23:32:0Z</time></trkpt>
<trkpt lat="48.2972810" lon="-1.9479760"><ele></ele><time>2017-12-15T23:32:3Z</time></trkpt>
<trkpt lat="48.2973340" lon="-1.9479860"><ele></ele><time>2017-12-15T23:32:6Z</time></trkpt>
<trkpt lat="48.2973890" lon="-1.9479970"><ele></ele><time>2017-12-15T23:32:9Z</time></trkpt>
<trkpt lat="48.2974380" lon="-1.9480140"><ele></ele><time>2017-12-15T23:32:12Z</time></trkpt>
<trkpt lat="48.2974890" lon="-1.9480350"><ele></ele><time>2017-12-15T23:32:15Z</time></trkpt>
<trkpt lat="48.2975410" lon="-1.9480700"><ele></ele><time>2017-12-15T23:32:18Z</time></trkpt>
<trkpt lat="48.2975900" lon="-1.9481050"><ele></ele><time>2017-12-15T23:32:21Z</time></trkpt>
<trkpt lat="48.2976340" lon="-1.9481290"><ele></ele><time>2017-12-15T23:32:24Z</time></trkpt>
<trkpt lat="48.2976730" lon="-1.9481390"><ele></ele><time>2017-12-15T23:32:27Z</time></trkpt>
<trkpt lat="48.2977150" lon="-1.9481420"><ele></ele><time>2017-12-15T23:32:30Z</time></trkpt>
<trkpt lat="48.2977510" lon="-1.9481020"><ele></ele><time>2017-12-15T23:32:33Z</time></trkpt>
<trkpt lat="48.2977810" lon="-1.9480560"><ele></ele><time>2017-12-15T23:32:36Z</time></trkpt>
<trkpt lat="48.2978060" lon="-1.9479960"><ele></ele><time>2017-12-15T23:32:39Z</time></trkpt>
<trkpt lat="48.2978260" lon="-1.9479350"><ele></ele><time>2017-12-15T23:32:42Z</time></trkpt>
<trkpt lat="48.2978440" lon="-1.9478730"><ele></ele><time>2017-12-15T23:32:45Z</time></trkpt>
<trkpt lat="48.2978630" lon="-1.9478120"><ele></ele><time>2017-12-15T23:32:48Z</time></trkpt>
<trkpt lat="48.2978830" lon="-1.9477440"><ele></ele><time>2017-12-15T23:32:51Z</time></trkpt>
<trkpt lat="48.2978950" lon="-1.9476800"><ele></ele><time>2017-12-15T23:32:54Z</time></trkpt>
<trkpt lat="48.2979100" lon="-1.9476110"><ele></ele><time>2017-12-15T23:32:57Z</time></trkpt>
<trkpt lat="48.2979270" lon="-1.9475480"><ele></ele><time>2017-12-15T23:33:0Z</time></trkpt>
<trkpt lat="48.2979430" lon="-1.9474780"><ele></ele><time>2017-12-15T23:33:3Z</time></trkpt>
<trkpt lat="48.2979570" lon="-1.9474110"><ele></ele><time>2017-12-15T23:33:6Z</time></trkpt>
<trkpt lat="48.2979690" lon="-1.9473490"><ele></ele><time>2017-12-15T23:33:9Z</time></trkpt>
<trkpt lat="48.2979850" lon="-1.9472910"><ele></ele><time>2017-12-15T23:33:12Z</time></trkpt>
<trkpt lat="48.2980090" lon="-1.9472330"><ele></ele><time>2017-12-15T23:33:15Z</time></trkpt>
<trkpt lat="48.2980210" lon="-1.9471760"><ele></ele><time>2017-12-15T23:33:18Z</time></trkpt>
<trkpt lat="48.2980400" lon="-1.9471340"><ele></ele><time>2017-12-15T23:33:21Z</time></trkpt>
<trkpt lat="48.2980780" lon="-1.9471160"><ele></ele><time>2017-12-15T23:33:24Z</time></trkpt>
<trkpt lat="48.2981300" lon="-1.9471310"><ele></ele><time>2017-12-15T23:33:27Z</time></trkpt>
<trkpt lat="48.2981880" lon="-1.9471620"><ele></ele><time>2017-12-15T23:33:30Z</time></trkpt>
<trkpt lat="48.2982580" lon="-1.9471940"><ele></ele><time>2017-12-15T23:33:33Z</time></trkpt>
<trkpt lat="48.2983330" lon="-1.9472240"><ele></ele><time>2017-12-15T23:33:36Z</time></trkpt>
<trkpt lat="48.2984150" lon="-1.9472640"><ele></ele><time>2017-12-15T23:33:39Z</time></trkpt>
<trkpt lat="48.2985040" lon="-1.9473160"><ele></ele><time>2017-12-15T23:33:42Z</time></trkpt>
<trkpt lat="48.2985990" lon="-1.9473710"><ele></ele><time>2017-12-15T23:33:45Z</time></trkpt>
<trkpt lat="48.2986970" lon="-1.9474380"><ele></ele><time>2017-12-15T23:33:48Z</time></trkpt>
<trkpt lat="48.2988020" lon="-1.9475150"><ele></ele><time>2017-12-15T23:33:51Z</time></trkpt>
<trkpt lat="48.2989110" lon="-1.9476030"><ele></ele><time>2017-12-15T23:33:54Z</time></trkpt>
<trkpt lat="48.2990190" lon="-1.9476910"><ele></ele><time>2017-12-15T23:33:57Z</time></trkpt>
<trkpt lat="48.2991350" lon="-1.9477770"><ele></ele><time>2017-12-15T23:34:0Z</time></trkpt>
<trkpt lat="48.2992530" lon="-1.9478610"><ele></ele><time>2017-12-15T23:34:3Z</time></trkpt>
<trkpt lat="48.2993770" lon="-1.9479410"><ele></ele><time>2017-12-15T23:34:6Z</time></trkpt>
<trkpt lat="48.2995070" lon="-1.9480190"><ele></ele><time>2017-12-15T23:34:9Z</time></trkpt>
<trkpt lat="48.2996350" lon="-1.9480940"><ele></ele><time>2017-12-15T23:34:12Z</time></trkpt>
<trkpt lat="48.2997640" lon="-1.9481540"><ele></ele><time>2017-12-15T23:34:15Z</time></trkpt>
<trkpt lat="48.2998960" lon="-1.9481990"><ele></ele><time>2017-12-15T23:34:18Z</time></trkpt>
<trkpt lat="48.3000290" lon="-1.9482190"><ele></ele><time>2017-12-15T23:34:21Z</time></trkpt>
<trkpt lat="48.3001570" lon="-1.9482050"><ele></ele><time>2017-12-15T23:34:24Z</time></trkpt>
<trkpt lat="48.3002830" lon="-1.9481840"><ele></ele><time>2017-12-15T23:34:27Z</time></trkpt>
<trkpt lat="48.3003990" lon="-1.9481590"><ele></ele><time>2017-12-15T23:34:30Z</time></trkpt>
<trkpt lat="48.3005180" lon="-1.9481330"><ele></ele><time>2017-12-15T23:34:33Z</time></trkpt>
<trkpt lat="48.3006200" lon="-1.9481510"><ele></ele><time>2017-12-15T23:34:36Z</time></trkpt>
<trkpt lat="48.3007160" lon="-1.9481560"><ele></ele><time>2017-12-15T23:34:39Z</time></trkpt>
<trkpt lat="48.3008110" lon="-1.9481680"><ele></ele><time>2017-12-15T23:34:42Z</time></trkpt>
<trkpt lat="48.3008900" lon="-1.9481840"><ele></ele><time>2017-12-15T23:34:45Z</time></trkpt>
<trkpt lat="48.3009560" lon="-1.9482050"><ele></ele><time>2017-12-15T23:34:48Z</time></trkpt>
<trkpt lat="48.3010020" lon="-1.9482320"><ele></ele><time>2017-12-15T23:34:51Z</time></trkpt>
<trkpt lat="48.3010390" lon="-1.9482860"><ele></ele><time>2017-12-15T23:34:54Z</time></trkpt>
<trkpt lat="48.3010550" lon="-1.9483550"><ele></ele><time>2017-12-15T23:34:57Z</time></trkpt>
<trkpt lat="48.3010620" lon="-1.9484290"><ele></ele><time>2017-12-15T23:35:0Z</time></trkpt>
<trkpt lat="48.3010610" lon="-1.9485080"><ele></ele><time>2017-12-15T23:35:3Z</time></trkpt>
<trkpt lat="48.3010590" lon="-1.9485880"><ele></ele><time>2017-12-15T23:35:6Z</time></trkpt>
<trkpt lat="48.3010510" lon="-1.9486730"><ele></ele><time>2017-12-15T23:35:9Z</time></trkpt>
<trkpt lat="48.3010430" lon="-1.9487570"><ele></ele><time>2017-12-15T23:35:12Z</time></trkpt>
<trkpt lat="48.3010510" lon="-1.9488440"><ele></ele><time>2017-12-15T23:35:15Z</time></trkpt>
<trkpt lat="48.3010690" lon="-1.9489300"><ele></ele><time>2017-12-15T23:35:18Z</time></trkpt>
<trkpt lat="48.3010960" lon="-1.9490080"><ele></ele><time>2017-12-15T23:35:21Z</time></trkpt>
<trkpt lat="48.3011370" lon="-1.9490770"><ele></ele><time>2017-12-15T23:35:24Z</time></trkpt>
<trkpt lat="48.3011890" lon="-1.9491330"><ele></ele><time>2017-12-15T23:35:27Z</time></trkpt>
<trkpt lat="48.3012460" lon="-1.9491710"><ele></ele><time>2017-12-15T23:35:30Z</time></trkpt>
<trkpt lat="48.3013060" lon="-1.9492080"><ele></ele><time>2017-12-15T23:35:33Z</time></trkpt>
<trkpt lat="48.3013660" lon="-1.9492440"><ele></ele><time>2017-12-15T23:35:36Z</time></trkpt>
<trkpt lat="48.3014220" lon="-1.9492810"><ele></ele><time>2017-12-15T23:35:39Z</time></trkpt>
<trkpt lat="48.3014790" lon="-1.9493210"><ele></ele><time>2017-12-15T23:35:42Z</time></trkpt>
<trkpt lat="48.3015430" lon="-1.9493490"><ele></ele><time>2017-12-15T23:35:45Z</time></trkpt>
<trkpt lat="48.3015920" lon="-1.9493810"><ele></ele><time>2017-12-15T23:35:48Z</time></trkpt>
<trkpt lat="48.3016450" lon="-1.9494160"><ele></ele><time>2017-12-15T23:35:51Z</time></trkpt>
<trkpt lat="48.3016980" lon="-1.9494480"><ele></ele><time>2017-12-15T23:35:54Z</time></trkpt>
<trkpt lat="48.3017530" lon="-1.9494870"><ele></ele><time>2017-12-15T23:35:57Z</time></trkpt>
<trkpt lat="48.3018030" lon="-1.9495230"><ele></ele><time>2017-12-15T23:36:0Z</time></trkpt>
<trkpt lat="48.3018510" lon="-1.9495590"><ele></ele><time>2017-12-15T23:36:3Z</time></trkpt>
<trkpt lat="48.3018990" lon="-1.9495990"><ele></ele><time>2017-12-15T23:36:6Z</time></trkpt>
<trkpt lat="48.3019440" lon="-1.9496300"><ele></ele><time>2017-12-15T23:36:9Z</time></trkpt>
<trkpt lat="48.3019810" lon="-1.9496630"><ele></ele><time>2017-12-15T23:36:12Z</time></trkpt>
<trkpt lat="48.3020190" lon="-1.9496910"><ele></ele><time>2017-12-15T23:36:15Z</time></trkpt>
<trkpt lat="48.3020550" lon="-1.9497210"><ele></ele><time>2017-12-15T23:36:18Z</time></trkpt>
<trkpt lat="48.3020880" lon="-1.9497510"><ele></ele><time>2017-12-15T23:36:21Z</time></trkpt>
<trkpt lat="48.3021200" lon="-1.9497820"><ele></ele><time>2017-12-15T23:36:24Z</time></trkpt>
<trkpt lat="48.3021530" lon="-1.9498110"><ele></ele><time>2017-12-15T23:36:27Z</time></trkpt>
<trkpt lat="48.3021890" lon="-1.9498430"><ele></ele><time>2017-12-15T23:36:30Z</time></trkpt>
<trkpt lat="48.3022240" lon="-1.9498730"><ele></ele><time>2017-12-15T23:36:33Z</time></trkpt>
<trkpt lat="48.3022550" lon="-1.9498980"><ele></ele><time>2017-12-15T23:36:36Z</time></trkpt>
<trkpt lat="48.3022870" lon="-1.9499250"><ele></ele><time>2017-12-15T23:36:39Z</time></trkpt>
<trkpt lat="48.3023180" lon="-1.9499540"><ele></ele><time>2017-12-15T23:36:42Z</time></trkpt>
<trkpt lat="48.3023440" lon="-1.9499820"><ele></ele><time>2017-12-15T23:36:45Z</time></trkpt>
<trkpt lat="48.3023700" lon="-1.9500110"><ele></ele><time>2017-12-15T23:36:48Z</time></trkpt>
<trkpt lat="48.3023970" lon="-1.9500370"><ele></ele><time>2017-12-15T23:36:51Z</time></trkpt>
<trkpt lat="48.3024230" lon="-1.9500620"><ele></ele><time>2017-12-15T23:36:54Z</time></trkpt>
<trkpt lat="48.3024500" lon="-1.9500960"><ele></ele><time>2017-12-15T23:36:57Z</time></trkpt>
<trkpt lat="48.3024720" lon="-1.9501260"><ele></ele><time>2017-12-15T23:37:0Z</time></trkpt>
<trkpt lat="48.3024940" lon="-1.9501600"><ele></ele><time>2017-12-15T23:37:3Z</time></trkpt>
<trkpt lat="48.3025200" lon="-1.9501770"><ele></ele><time>2017-12-15T23:37:6Z</time></trkpt>
<trkpt lat="48.3025530" lon="-1.9502100"><ele></ele><time>2017-12-15T23:37:9Z</time></trkpt>
<trkpt lat="48.3025830" lon="-1.9502400"><ele></ele><time>2017-12-15T23:37:12Z</time></trkpt>
<trkpt lat="48.3026090" lon="-1.9502610"><ele></ele><time>2017-12-15T23:37:15Z</time></trkpt>
<trkpt lat="48.3026530" lon="-1.9502890"><ele></ele><time>2017-12-15T23:37:18Z</time></trkpt>
<trkpt lat="48.3026850" lon="-1.9503090"><ele></ele><time>2017-12-15T23:37:21Z</time></trkpt>
<trkpt lat="48.3027180" lon="-1.9503360"><ele></ele><time>2017-12-15T23:37:24Z</time></trkpt>
<trkpt lat="48.3027480" lon="-1.9503640"><ele></ele><time>2017-12-15T23:37:27Z</time></trkpt>
<trkpt lat="48.3027820" lon="-1.9503910"><ele></ele><time>2017-12-15T23:37:30Z</time></trkpt>
<trkpt lat="48.3028150" lon="-1.9504200"><ele></ele><time>2017-12-15T23:37:33Z</time></trkpt>
<trkpt lat="48.3028450" lon="-1.9504450"><ele></ele><time>2017-12-15T23:37:36Z</time></trkpt>
<trkpt lat="48.3028780" lon="-1.9504760"><ele></ele><time>2017-12-15T23:37:39Z</time></trkpt>
<trkpt lat="48.3029090" lon="-1.9504980"><ele></ele><time>2017-12-15T23:37:42Z</time></trkpt>
<trkpt lat="48.3029400" lon="-1.9505240"><ele></ele><time>2017-12-15T23:37:45Z</time></trkpt>
<trkpt lat="48.3029670" lon="-1.9505530"><ele></ele><time>2017-12-15T23:37:48Z</time></trkpt>
<trkpt lat="48.3029980" lon="-1.9505870"><ele></ele><time>2017-12-15T23:37:51Z</time></trkpt>
<trkpt lat="48.3030300" lon="-1.9506180"><ele></ele><time>2017-12-15T23:37:54Z</time></trkpt>
<trkpt lat="48.3030660" lon="-1.9506530"><ele></ele><time>2017-12-15T23:37:57Z</time></trkpt>
<trkpt lat="48.3031010" lon="-1.9506910"><ele></ele><time>2017-12-15T23:38:0Z</time></trkpt>
<trkpt lat="48.3031330" lon="-1.9507260"><ele></ele><time>2017-12-15T23:38:3Z</time></trkpt>
<trkpt lat="48.3031690" lon="-1.9507680"><ele></ele><time>2017-12-15T23:38:6Z</time></trkpt>
<trkpt lat="48.3031990" lon="-1.9508240"><ele></ele><time>2017-12-15T23:38:9Z</time></trkpt>
<trkpt lat="48.3032330" lon="-1.9508870"><ele></ele><time>2017-12-15T23:38:12Z</time></trkpt>
<trkpt lat="48.3032710" lon="-1.9509510"><ele></ele><time>2017-12-15T23:38:15Z</time></trkpt>
<trkpt lat="48.3033100" lon="-1.9510270"><ele></ele><time>2017-12-15T23:38:18Z</time></trkpt>
<trkpt lat="48.3033500" lon="-1.9511030"><ele></ele><time>2017-12-15T23:38:21Z</time></trkpt>
<trkpt lat="48.3033860" lon="-1.9511910"><ele></ele><time>2017-12-15T23:38:24Z</time></trkpt>
<trkpt lat="48.3034320" lon="-1.9512830"><ele></ele><time>2017-12-15T23:38:27Z</time></trkpt>
<trkpt lat="48.3034800" lon="-1.9513730"><ele></ele><time>2017-12-15T23:38:30Z</time></trkpt>
<trkpt lat="48.3035340" lon="-1.9514580"><ele></ele><time>2017-12-15T23:38:33Z</time></trkpt>
<trkpt lat="48.3035880" lon="-1.9515450"><ele></ele><time>2017-12-15T23:38:36Z</time></trkpt>
<trkpt lat="48.3036400" lon="-1.9516370"><ele></ele><time>2017-12-15T23:38:39Z</time></trkpt>
<trkpt lat="48.3036930" lon="-1.9517270"><ele></ele><time>2017-12-15T23:38:42Z</time></trkpt>
<trkpt lat="48.3037470" lon="-1.9518180"><ele></ele><time>2017-12-15T23:38:45Z</time></trkpt>
<trkpt lat="48.3037950" lon="-1.9519100"><ele></ele><time>2017-12-15T23:38:48Z</time></trkpt>
<trkpt lat="48.3038500" lon="-1.9519960"><ele></ele><time>2017-12-15T23:38:51Z</time></trkpt>
<trkpt lat="48.3039040" lon="-1.9520800"><ele></ele><time>2017-12-15T23:38:54Z</time></trkpt>
<trkpt lat="48.3039570" lon="-1.9521600"><ele></ele><time>2017-12-15T23:38:57Z</time></trkpt>
<trkpt lat="48.3040140" lon="-1.9522410"><ele></ele><time>2017-12-15T23:39:0Z</time></trkpt>
<trkpt lat="48.3040670" lon="-1.9523230"><ele></ele><time>2017-12-15T23:39:3Z</time></trkpt>
<trkpt lat="48.3041190" lon="-1.9524080"><ele></ele><time>2017-12-15T23:39:6Z</time></trkpt>
<trkpt lat="48.3041710" lon="-1.9524930"><ele></ele><time>2017-12-15T23:39:9Z</time></trkpt>
<trkpt lat="48.3042240" lon="-1.9525740"><ele></ele><time>2017-12-15T23:39:12Z</time></trkpt>
<trkpt lat="48.3042780" lon="-1.9526560"><ele></ele><time>2017-12-15T23:39:15Z</time></trkpt>
<trkpt lat="48.3043330" lon="-1.9527320"><ele></ele><time>2017-12-15T23:39:18Z</time></trkpt>
<trkpt lat="48.3043890" lon="-1.9528130"><ele></ele><time>2017-12-15T23:39:21Z</time></trkpt>
<trkpt lat="48.3044450" lon="-1.9528900"><ele></ele><time>2017-12-15T23:39:24Z</time></trkpt>
<trkpt lat="48.3044970" lon="-1.9529580"><ele></ele><time>2017-12-15T23:39:27Z</time></trkpt>
<trkpt lat="48.3045490" lon="-1.9530300"><ele></ele><time>2017-12-15T23:39:30Z</time></trkpt>
<trkpt lat="48.3045990" lon="-1.9530980"><ele></ele><time>2017-12-15T23:39:33Z</time></trkpt>
<trkpt lat="48.3046490" lon="-1.9531630"><ele></ele><time>2017-12-15T23:39:36Z</time></trkpt>
<trkpt lat="48.3046950" lon="-1.9532250"><ele></ele><time>2017-12-15T23:39:39Z</time></trkpt>
<trkpt lat="48.3047450" lon="-1.9532860"><ele></ele><time>2017-12-15T23:39:42Z</time></trkpt>
<trkpt lat="48.3047940" lon="-1.9533470"><ele></ele><time>2017-12-15T23:39:45Z</time></trkpt>
<trkpt lat="48.3048420" lon="-1.9534060"><ele></ele><time>2017-12-15T23:39:48Z</time></trkpt>
<trkpt lat="48.3048950" lon="-1.9534720"><ele></ele><time>2017-12-15T23:39:51Z</time></trkpt>
<trkpt lat="48.3049480" lon="-1.9535320"><ele></ele><time>2017-12-15T23:39:54Z</time></trkpt>
<trkpt lat="48.3049990" lon="-1.9535930"><ele></ele><time>2017-12-15T23:39:57Z</time></trkpt>
<trkpt lat="48.3050500" lon="-1.9536510"><ele></ele><time>2017-12-15T23:40:0Z</time></trkpt>
<trkpt lat="48.3051000" lon="-1.9537140"><ele></ele><time>2017-12-15T23:40:3Z</time></trkpt>
<trkpt lat="48.3051480" lon="-1.9537770"><ele></ele><time>2017-12-15T23:40:6Z</time></trkpt>
<trkpt lat="48.3051940" lon="-1.9538370"><ele></ele><time>2017-12-15T23:40:9Z</time></trkpt>
<trkpt lat="48.3052390" lon="-1.9539040"><ele></ele><time>2017-12-15T23:40:12Z</time></trkpt>
<trkpt lat="48.3052840" lon="-1.9539710"><ele></ele><time>2017-12-15T23:40:15Z</time></trkpt>
<trkpt lat="48.3053230" lon="-1.9540400"><ele></ele><time>2017-12-15T23:40:18Z</time></trkpt>
<trkpt lat="48.3053600" lon="-1.9541130"><ele></ele><time>2017-12-15T23:40:21Z</time></trkpt>
<trkpt lat="48.3053980" lon="-1.9541870"><ele></ele><time>2017-12-15T23:40:24Z</time></trkpt>
<trkpt lat="48.3054290" lon="-1.9542610"><ele></ele><time>2017-12-15T23:40:27Z</time></trkpt>
<trkpt lat="48.3054590" lon="-1.9543330"><ele></ele><time>2017-12-15T23:40:30Z</time></trkpt>
<trkpt lat="48.3054920" lon="-1.9544110"><ele></ele><time>2017-12-15T23:40:33Z</time></trkpt>
<trkpt lat="48.3055210" lon="-1.9544870"><ele></ele><time>2017-12-15T23:40:36Z</time></trkpt>
<trkpt lat="48.3055500" lon="-1.9545580"><ele></ele><time>2017-12-15T23:40:39Z</time></trkpt>
<trkpt lat="48.3055810" lon="-1.9546250"><ele></ele><time>2017-12-15T23:40:42Z</time></trkpt>
<trkpt lat="48.3056150" lon="-1.9546900"><ele></ele><time>2017-12-15T23:40:45Z</time></trkpt>
<trkpt lat="48.3056450" lon="-1.9547520"><ele></ele><time>2017-12-15T23:40:48Z</time></trkpt>
<trkpt lat="48.3056700" lon="-1.9548200"><ele></ele><time>2017-12-15T23:40:51Z</time></trkpt>
<trkpt lat="48.3056970" lon="-1.9548880"><ele></ele><time>2017-12-15T23:40:54Z</time></trkpt>
<trkpt lat="48.3057260" lon="-1.9549590"><ele></ele><time>2017-12-15T23:40:57Z</time></trkpt>
<trkpt lat="48.3057550" lon="-1.9550250"><ele></ele><time>2017-12-15T23:41:0Z</time></trkpt>
<trkpt lat="48.3057860" lon="-1.9550940"><ele></ele><time>2017-12-15T23:41:3Z</time></trkpt>
<trkpt lat="48.3058180" lon="-1.9551590"><ele></ele><time>2017-12-15T23:41:6Z</time></trkpt>
<trkpt lat="48.3058460" lon="-1.9552260"><ele></ele><time>2017-12-15T23:41:9Z</time></trkpt>
<trkpt lat="48.3058750" lon="-1.9552900"><ele></ele><time>2017-12-15T23:41:12Z</time></trkpt>
<trkpt lat="48.3059070" lon="-1.9553550"><ele></ele><time>2017-12-15T23:41:15Z</time></trkpt>
<trkpt lat="48.3059410" lon="-1.9554200"><ele></ele><time>2017-12-15T23:41:18Z</time></trkpt>
<trkpt lat="48.3059730" lon="-1.9554850"><ele></ele><time>2017-12-15T23:41:21Z</time></trkpt>
<trkpt lat="48.3060050" lon="-1.9555430"><ele></ele><time>2017-12-15T23:41:24Z</time></trkpt>
<trkpt lat="48.3060400" lon="-1.9555870"><ele></ele><time>2017-12-15T23:41:27Z</time></trkpt>
<trkpt lat="48.3060700" lon="-1.9556430"><ele></ele><time>2017-12-15T23:41:30Z</time></trkpt>
<trkpt lat="48.3061020" lon="-1.9556990"><ele></ele><time>2017-12-15T23:41:33Z</time></trkpt>
<trkpt lat="48.3061380" lon="-1.9557530"><ele></ele><time>2017-12-15T23:41:36Z</time></trkpt>
<trkpt lat="48.3061720" lon="-1.9558070"><ele></ele><time>2017-12-15T23:41:39Z</time></trkpt>
<trkpt lat="48.3062080" lon="-1.9558580"><ele></ele><time>2017-12-15T23:41:42Z</time></trkpt>
<trkpt lat="48.3062440" lon="-1.9559150"><ele></ele><time>2017-12-15T23:41:45Z</time></trkpt>
<trkpt lat="48.3062810" lon="-1.9559560"><ele></ele><time>2017-12-15T23:41:48Z</time></trkpt>
<trkpt lat="48.3063210" lon="-1.9559970"><ele></ele><time>2017-12-15T23:41:51Z</time></trkpt>
<trkpt lat="48.3063600" lon="-1.9560360"><ele></ele><time>2017-12-15T23:41:54Z</time></trkpt>
<trkpt lat="48.3063990" lon="-1.9560750"><ele></ele><time>2017-12-15T23:41:57Z</time></trkpt>
<trkpt lat="48.3064340" lon="-1.9561160"><ele></ele><time>2017-12-15T23:42:0Z</time></trkpt>
<trkpt lat="48.3064700" lon="-1.9561510"><ele></ele><time>2017-12-15T23:42:3Z</time></trkpt>
<trkpt lat="48.3065020" lon="-1.9561910"><ele></ele><time>2017-12-15T23:42:6Z</time></trkpt>
<trkpt lat="48.3065390" lon="-1.9562270"><ele></ele><time>2017-12-15T23:42:9Z</time></trkpt>
<trkpt lat="48.3065700" lon="-1.9562620"><ele></ele><time>2017-12-15T23:42:12Z</time></trkpt>
<trkpt lat="48.3065980" lon="-1.9562920"><ele></ele><time>2017-12-15T23:42:15Z</time></trkpt>
<trkpt lat="48.3066330" lon="-1.9563190"><ele></ele><time>2017-12-15T23:42:18Z</time></trkpt>
<trkpt lat="48.3066690" lon="-1.9563540"><ele></ele><time>2017-12-15T23:42:21Z</time></trkpt>
<trkpt lat="48.3067040" lon="-1.9563850"><ele></ele><time>2017-12-15T23:42:24Z</time></trkpt>
<trkpt lat="48.3067410" lon="-1.9564170"><ele></ele><time>2017-12-15T23:42:27Z</time></trkpt>
<trkpt lat="48.3067760" lon="-1.9564600"><ele></ele><time>2017-12-15T23:42:30Z</time></trkpt>
<trkpt lat="48.3068140" lon="-1.9564910"><ele></ele><time>2017-12-15T23:42:33Z</time></trkpt>
<trkpt lat="48.3068380" lon="-1.9565130"><ele></ele><time>2017-12-15T23:42:36Z</time></trkpt>
<trkpt lat="48.3068660" lon="-1.9565410"><ele></ele><time>2017-12-15T23:42:39Z</time></trkpt>
<trkpt lat="48.3069000" lon="-1.9565690"><ele></ele><time>2017-12-15T23:42:42Z</time></trkpt>
<trkpt lat="48.3069290" lon="-1.9565890"><ele></ele><time>2017-12-15T23:42:45Z</time></trkpt>
<trkpt lat="48.3069620" lon="-1.9566090"><ele></ele><time>2017-12-15T23:42:48Z</time></trkpt>
<trkpt lat="48.3069900" lon="-1.9566480"><ele></ele><time>2017-12-15T23:42:51Z</time></trkpt>
<trkpt lat="48.3070150" lon="-1.9566840"><ele></ele><time>2017-12-15T23:42:54Z</time></trkpt>
<trkpt lat="48.3070430" lon="-1.9567200"><ele></ele><time>2017-12-15T23:42:57Z</time></trkpt>
<trkpt lat="48.3070730" lon="-1.9567460"><ele></ele><time>2017-12-15T23:43:0Z</time></trkpt>
<trkpt lat="48.3071060" lon="-1.9567750"><ele></ele><time>2017-12-15T23:43:3Z</time></trkpt>
<trkpt lat="48.3071460" lon="-1.9568060"><ele></ele><time>2017-12-15T23:43:6Z</time></trkpt>
<trkpt lat="48.3071810" lon="-1.9568370"><ele></ele><time>2017-12-15T23:43:9Z</time></trkpt>
<trkpt lat="48.3072190" lon="-1.9568700"><ele></ele><time>2017-12-15T23:43:12Z</time></trkpt>
<trkpt lat="48.3072560" lon="-1.9569010"><ele></ele><time>2017-12-15T23:43:15Z</time></trkpt>
<trkpt lat="48.3072970" lon="-1.9569310"><ele></ele><time>2017-12-15T23:43:18Z</time></trkpt>
<trkpt lat="48.3073330" lon="-1.9569640"><ele></ele><time>2017-12-15T23:43:21Z</time></trkpt>
<trkpt lat="48.3073700" lon="-1.9569960"><ele></ele><time>2017-12-15T23:43:24Z</time></trkpt>
<trkpt lat="48.3074050" lon="-1.9570260"><ele></ele><time>2017-12-15T23:43:27Z</time></trkpt>
<trkpt lat="48.3074410" lon="-1.9570500"><ele></ele><time>2017-12-15T23:43:30Z</time></trkpt>
<trkpt lat="48.3074780" lon="-1.9570800"><ele></ele><time>2017-12-15T23:43:33Z</time></trkpt>
<trkpt lat="48.3075190" lon="-1.9571080"><ele></ele><time>2017-12-15T23:43:36Z</time></trkpt>
<trkpt lat="48.3075540" lon="-1.9571310"><ele></ele><time>2017-12-15T23:43:39Z</time></trkpt>
<trkpt lat="48.3075960" lon="-1.9571570"><ele></ele><time>2017-12-15T23:43:42Z</time></trkpt>
<trkpt lat="48.3076280" lon="-1.9571860"><ele></ele><time>2017-12-15T23:43:45Z</time></trkpt>
<trkpt lat="48.3076590" lon="-1.9572120"><ele></ele><time>2017-12-15T23:43:48Z</time></trkpt>
<trkpt lat="48.3076930" lon="-1.9572350"><ele></ele><time>2017-12-15T23:43:51Z</time></trkpt>
<trkpt lat="48.3077270" lon="-1.9572540"><ele></ele><time>2017-12-15T23:43:54Z</time></trkpt>
<trkpt lat="48.3077630" lon="-1.9572760"><ele></ele><time>2017-12-15T23:43:57Z</time></trkpt>
<trkpt lat="48.3078030" lon="-1.9573020"><ele></ele><time>2017-12-15T23:44:0Z</time></trkpt>
<trkpt lat="48.3078390" lon="-1.9573270"><ele></ele><time>2017-12-15T23:44:3Z</time></trkpt>
<trkpt lat="48.3078790" lon="-1.9573560"><ele></ele><time>2017-12-15T23:44:6Z</time></trkpt>
<trkpt lat="48.3079140" lon="-1.9573800"><ele></ele><time>2017-12-15T23:44:9Z</time></trkpt>
<trkpt lat="48.3079450" lon="-1.9574080"><ele></ele><time>2017-12-15T23:44:12Z</time></trkpt>
<trkpt lat="48.3079750" lon="-1.9574360"><ele></ele><time>2017-12-15T23:44:15Z</time></trkpt>
<trkpt lat="48.3080090" lon="-1.9574610"><ele></ele><time>2017-12-15T23:44:18Z</time></trkpt>
<trkpt lat="48.3080430" lon="-1.9574870"><ele></ele><time>2017-12-15T23:44:21Z</time></trkpt>
<trkpt lat="48.3080700" lon="-1.9575100"><ele></ele><time>2017-12-15T23:44:24Z</time></trkpt>
<trkpt lat="48.3081030" lon="-1.9575310"><ele></ele><time>2017-12-15T23:44:27Z</time></trkpt>
<trkpt lat="48.3081390" lon="-1.9575600"><ele></ele><time>2017-12-15T23:44:30Z</time></trkpt>
<trkpt lat="48.3081710" lon="-1.9575800"><ele></ele><time>2017-12-15T23:44:33Z</time></trkpt>
<trkpt lat="48.3082020" lon="-1.9576060"><ele></ele><time>2017-12-15T23:44:36Z</time></trkpt>
<trkpt lat="48.3082390" lon="-1.9576330"><ele></ele><time>2017-12-15T23:44:39Z</time></trkpt>
<trkpt lat="48.3082650" lon="-1.9576520"><ele></ele><time>2017-12-15T23:44:42Z</time></trkpt>
<trkpt lat="48.3082930" lon="-1.9576720"><ele></ele><time>2017-12-15T23:44:45Z</time></trkpt>
<trkpt lat="48.3083250" lon="-1.9576840"><ele></ele><time>2017-12-15T23:44:48Z</time></trkpt>
<trkpt lat="48.3083600" lon="-1.9576870"><ele></ele><time>2017-12-15T23:44:51Z</time></trkpt>
<trkpt lat="48.3083920" lon="-1.9576880"><ele></ele><time>2017-12-15T23:44:54Z</time></trkpt>
<trkpt lat="48.3084310" lon="-1.9576870"><ele></ele><time>2017-12-15T23:44:57Z</time></trkpt>
<trkpt lat="48.3084740" lon="-1.9576880"><ele></ele><time>2017-12-15T23:45:0Z</time></trkpt>
<trkpt lat="48.3085190" lon="-1.9576890"><ele></ele><time>2017-12-15T23:45:3Z</time></trkpt>
<trkpt lat="48.3085640" lon="-1.9576920"><ele></ele><time>2017-12-15T23:45:6Z</time></trkpt>
<trkpt lat="48.3086050" lon="-1.9576920"><ele></ele><time>2017-12-15T23:45:9Z</time></trkpt>
<trkpt lat="48.3086450" lon="-1.9576970"><ele></ele><time>2017-12-15T23:45:12Z</time></trkpt>
<trkpt lat="48.3086840" lon="-1.9576970"><ele></ele><time>2017-12-15T23:45:15Z</time></trkpt>
<trkpt lat="48.3087190" lon="-1.9576980"><ele></ele><time>2017-12-15T23:45:18Z</time></trkpt>
<trkpt lat="48.3087530" lon="-1.9577050"><ele></ele><time>2017-12-15T23:45:21Z</time></trkpt>
<trkpt lat="48.3088010" lon="-1.9577060"><ele></ele><time>2017-12-15T23:45:24Z</time></trkpt>
<trkpt lat="48.3088330" lon="-1.9577030"><ele></ele><time>2017-12-15T23:45:27Z</time></trkpt>
<trkpt lat="48.3088690" lon="-1.9577020"><ele></ele><time>2017-12-15T23:45:30Z</time></trkpt>
<trkpt lat="48.3089070" lon="-1.9576990"><ele></ele><time>2017-12-15T23:45:33Z</time></trkpt>
<trkpt lat="48.3089460" lon="-1.9576980"><ele></ele><time>2017-12-15T23:45:36Z</time></trkpt>
<trkpt lat="48.3089830" lon="-1.9576950"><ele></ele><time>2017-12-15T23:45:39Z</time></trkpt>
<trkpt lat="48.3090260" lon="-1.9576980"><ele></ele><time>2017-12-15T23:45:42Z</time></trkpt>
<trkpt lat="48.3090690" lon="-1.9577010"><ele></ele><time>2017-12-15T23:45:45Z</time></trkpt>
<trkpt lat="48.3091100" lon="-1.9577100"><ele></ele><time>2017-12-15T23:45:48Z</time></trkpt>
<trkpt lat="48.3091510" lon="-1.9577100"><ele></ele><time>2017-12-15T23:45:51Z</time></trkpt>
<trkpt lat="48.3091870" lon="-1.9577000"><ele></ele><time>2017-12-15T23:45:54Z</time></trkpt>
<trkpt lat="48.3092290" lon="-1.9577010"><ele></ele><time>2017-12-15T23:45:57Z</time></trkpt>
<trkpt lat="48.3092730" lon="-1.9577110"><ele></ele><time>2017-12-15T23:46:0Z</time></trkpt>
<trkpt lat="48.3093140" lon="-1.9577170"><ele></ele><time>2017-12-15T23:46:3Z</time></trkpt>
<trkpt lat="48.3093550" lon="-1.9577220"><ele></ele><time>2017-12-15T23:46:6Z</time></trkpt>
<trkpt lat="48.3093930" lon="-1.9577260"><ele></ele><time>2017-12-15T23:46:9Z</time></trkpt>
<trkpt lat="48.3094330" lon="-1.9577300"><ele></ele><time>2017-12-15T23:46:12Z</time></trkpt>
<trkpt lat="48.3094730" lon="-1.9577300"><ele></ele><time>2017-12-15T23:46:15Z</time></trkpt>
<trkpt lat="48.3095160" lon="-1.9577360"><ele></ele><time>2017-12-15T23:46:18Z</time></trkpt>
<trkpt lat="48.3095580" lon="-1.9577420"><ele></ele><time>2017-12-15T23:46:21Z</time></trkpt>
<trkpt lat="48.3095990" lon="-1.9577440"><ele></ele><time>2017-12-15T23:46:24Z</time></trkpt>
<trkpt lat="48.3096400" lon="-1.9577540"><ele></ele><time>2017-12-15T23:46:27Z</time></trkpt>
<trkpt lat="48.3096820" lon="-1.9577630"><ele></ele><time>2017-12-15T23:46:30Z</time></trkpt>
<trkpt lat="48.3097220" lon="-1.9577650"><ele></ele><time>2017-12-15T23:46:33Z</time></trkpt>
<trkpt lat="48.3097590" lon="-1.9577640"><ele></ele><time>2017-12-15T23:46:36Z</time></trkpt>
<trkpt lat="48.3097980" lon="-1.9577540"><ele></ele><time>2017-12-15T23:46:39Z</time></trkpt>
<trkpt lat="48.3098390" lon="-1.9577440"><ele></ele><time>2017-12-15T23:46:42Z</time></trkpt>
<trkpt lat="48.3098790" lon="-1.9577370"><ele></ele><time>2017-12-15T23:46:45Z</time></trkpt>
<trkpt lat="48.3099210" lon="-1.9577300"><ele></ele><time>2017-12-15T23:46:48Z</time></trkpt>
<trkpt lat="48.3099640" lon="-1.9577220"><ele></ele><time>2017-12-15T23:46:51Z</time></trkpt>
<trkpt lat="48.3100060" lon="-1.9577120"><ele></ele><time>2017-12-15T23:46:54Z</time></trkpt>
<trkpt lat="48.3100490" lon="-1.9577040"><ele></ele><time>2017-12-15T23:46:57Z</time></trkpt>
<trkpt lat="48.3100890" lon="-1.9576940"><ele></ele><time>2017-12-15T23:47:0Z</time></trkpt>
<trkpt lat="48.3101300" lon="-1.9576820"><ele></ele><time>2017-12-15T23:47:3Z</time></trkpt>
<trkpt lat="48.3101660" lon="-1.9576760"><ele></ele><time>2017-12-15T23:47:6Z</time></trkpt>
<trkpt lat="48.3101990" lon="-1.9576670"><ele></ele><time>2017-12-15T23:47:9Z</time></trkpt>
<trkpt lat="48.3102330" lon="-1.9576560"><ele></ele><time>2017-12-15T23:47:12Z</time></trkpt>
<trkpt lat="48.3102710" lon="-1.9576460"><ele></ele><time>2017-12-15T23:47:15Z</time></trkpt>
<trkpt lat="48.3103100" lon="-1.9576350"><ele></ele><time>2017-12-15T23:47:18Z</time></trkpt>
<trkpt lat="48.3103500" lon="-1.9576250"><ele></ele><time>2017-12-15T23:47:21Z</time></trkpt>
<trkpt lat="48.3103890" lon="-1.9576160"><ele></ele><time>2017-12-15T23:47:24Z</time></trkpt>
<trkpt lat="48.3104300" lon="-1.9576090"><ele></ele><time>2017-12-15T23:47:27Z</time></trkpt>
<trkpt lat="48.3104700" lon="-1.9576030"><ele></ele><time>2017-12-15T23:47:30Z</time></trkpt>
<trkpt lat="48.3105090" lon="-1.9575960"><ele></ele><time>2017-12-15T23:47:33Z</time></trkpt>
<trkpt lat="48.3105490" lon="-1.9575910"><ele></ele><time>2017-12-15T23:47:36Z</time></trkpt>
<trkpt lat="48.3105920" lon="-1.9575870"><ele></ele><time>2017-12-15T23:47:39Z</time></trkpt>
<trkpt lat="48.3106330" lon="-1.9575830"><ele></ele><time>2017-12-15T23:47:42Z</time></trkpt>
<trkpt lat="48.3106760" lon="-1.9575840"><ele></ele><time>2017-12-15T23:47:45Z</time></trkpt>
<trkpt lat="48.3107180" lon="-1.9575860"><ele></ele><time>2017-12-15T23:47:48Z</time></trkpt>
<trkpt lat="48.3107600" lon="-1.9575910"><ele></ele><time>2017-12-15T23:47:51Z</time></trkpt>
<trkpt lat="48.3108000" lon="-1.9576060"><ele></ele><time>2017-12-15T23:47:54Z</time></trkpt>
<trkpt lat="48.3108420" lon="-1.9576230"><ele></ele><time>2017-12-15T23:47:57Z</time></trkpt>
<trkpt lat="48.3108810" lon="-1.9576420"><ele></ele><time>2017-12-15T23:48:0Z</time></trkpt>
<trkpt lat="48.3109200" lon="-1.9576640"><ele></ele><time>2017-12-15T23:48:3Z</time></trkpt>
<trkpt lat="48.3109580" lon="-1.9576850"><ele></ele><time>2017-12-15T23:48:6Z</time></trkpt>
<trkpt lat="48.3109970" lon="-1.9577040"><ele></ele><time>2017-12-15T23:48:9Z</time></trkpt>
<trkpt lat="48.3110390" lon="-1.9577220"><ele></ele><time>2017-12-15T23:48:12Z</time></trkpt>
<trkpt lat="48.3110780" lon="-1.9577320"><ele></ele><time>2017-12-15T23:48:15Z</time></trkpt>
<trkpt lat="48.3111210" lon="-1.9577420"><ele></ele><time>2017-12-15T23:48:18Z</time></trkpt>
<trkpt lat="48.3111640" lon="-1.9577550"><ele></ele><time>2017-12-15T23:48:21Z</time></trkpt>
<trkpt lat="48.3112040" lon="-1.9577580"><ele></ele><time>2017-12-15T23:48:24Z</time></trkpt>
<trkpt lat="48.3112430" lon="-1.9577540"><ele></ele><time>2017-12-15T23:48:27Z</time></trkpt>
<trkpt lat="48.3112800" lon="-1.9577300"><ele></ele><time>2017-12-15T23:48:30Z</time></trkpt>
<trkpt lat="48.3113120" lon="-1.9576980"><ele></ele><time>2017-12-15T23:48:33Z</time></trkpt>
<trkpt lat="48.3113420" lon="-1.9576630"><ele></ele><time>2017-12-15T23:48:36Z</time></trkpt>
<trkpt lat="48.3113770" lon="-1.9576270"><ele></ele><time>2017-12-15T23:48:39Z</time></trkpt>
<trkpt lat="48.3114110" lon="-1.9575980"><ele></ele><time>2017-12-15T23:48:42Z</time></trkpt>
<trkpt lat="48.3114470" lon="-1.9575700"><ele></ele><time>2017-12-15T23:48:45Z</time></trkpt>
<trkpt lat="48.3114850" lon="-1.9575400"><ele></ele><time>2017-12-15T23:48:48Z</time></trkpt>
<trkpt lat="48.3115220" lon="-1.9575130"><ele></ele><time>2017-12-15T23:48:51Z</time></trkpt>
<trkpt lat="48.3115580" lon="-1.9574890"><ele></ele><time>2017-12-15T23:48:54Z</time></trkpt>
<trkpt lat="48.3115960" lon="-1.9574720"><ele></ele><time>2017-12-15T23:48:57Z</time></trkpt>
<trkpt lat="48.3116320" lon="-1.9574620"><ele></ele><time>2017-12-15T23:49:0Z</time></trkpt>
<trkpt lat="48.3116680" lon="-1.9574560"><ele></ele><time>2017-12-15T23:49:3Z</time></trkpt>
<trkpt lat="48.3117060" lon="-1.9574540"><ele></ele><time>2017-12-15T23:49:6Z</time></trkpt>
<trkpt lat="48.3117430" lon="-1.9574520"><ele></ele><time>2017-12-15T23:49:9Z</time></trkpt>
<trkpt lat="48.3117830" lon="-1.9574550"><ele></ele><time>2017-12-15T23:49:12Z</time></trkpt>
<trkpt lat="48.3118210" lon="-1.9574620"><ele></ele><time>2017-12-15T23:49:15Z</time></trkpt>
<trkpt lat="48.3118610" lon="-1.9574770"><ele></ele><time>2017-12-15T23:49:18Z</time></trkpt>
<trkpt lat="48.3118970" lon="-1.9575060"><ele></ele><time>2017-12-15T23:49:21Z</time></trkpt>
<trkpt lat="48.3119360" lon="-1.9575190"><ele></ele><time>2017-12-15T23:49:24Z</time></trkpt>
<trkpt lat="48.3119800" lon="-1.9575420"><ele></ele><time>2017-12-15T23:49:27Z</time></trkpt>
<trkpt lat="48.3120210" lon="-1.9575620"><ele></ele><time>2017-12-15T23:49:30Z</time></trkpt>
<trkpt lat="48.3120600" lon="-1.9575800"><ele></ele><time>2017-12-15T23:49:33Z</time></trkpt>
<trkpt lat="48.3121010" lon="-1.9576030"><ele></ele><time>2017-12-15T23:49:36Z</time></trkpt>
<trkpt lat="48.3121400" lon="-1.9576220"><ele></ele><time>2017-12-15T23:49:39Z</time></trkpt>
<trkpt lat="48.3121800" lon="-1.9576400"><ele></ele><time>2017-12-15T23:49:42Z</time></trkpt>
<trkpt lat="48.3122190" lon="-1.9576550"><ele></ele><time>2017-12-15T23:49:45Z</time></trkpt>
<trkpt lat="48.3122590" lon="-1.9576730"><ele></ele><time>2017-12-15T23:49:48Z</time></trkpt>
<trkpt lat="48.3122990" lon="-1.9576900"><ele></ele><time>2017-12-15T23:49:51Z</time></trkpt>
<trkpt lat="48.3123370" lon="-1.9577000"><ele></ele><time>2017-12-15T23:49:54Z</time></trkpt>
<trkpt lat="48.3123710" lon="-1.9577130"><ele></ele><time>2017-12-15T23:49:57Z</time></trkpt>
<trkpt lat="48.3124010" lon="-1.9577240"><ele></ele><time>2017-12-15T23:50:0Z</time></trkpt>
<trkpt lat="48.3124330" lon="-1.9577350"><ele></ele><time>2017-12-15T23:50:3Z</time></trkpt>
<trkpt lat="48.3124710" lon="-1.9577550"><ele></ele><time>2017-12-15T23:50:6Z</time></trkpt>
<trkpt lat="48.3125090" lon="-1.9577710"><ele></ele><time>2017-12-15T23:50:9Z</time></trkpt>
<trkpt lat="48.3125500" lon="-1.9577890"><ele></ele><time>2017-12-15T23:50:12Z</time></trkpt>
<trkpt lat="48.3125900" lon="-1.9578030"><ele></ele><time>2017-12-15T23:50:15Z</time></trkpt>
<trkpt lat="48.3126290" lon="-1.9578190"><ele></ele><time>2017-12-15T23:50:18Z</time></trkpt>
<trkpt lat="48.3126700" lon="-1.9578380"><ele></ele><time>2017-12-15T23:50:21Z</time></trkpt>
<trkpt lat="48.3127100" lon="-1.9578550"><ele></ele><time>2017-12-15T23:50:24Z</time></trkpt>
<trkpt lat="48.3127460" lon="-1.9578710"><ele></ele><time>2017-12-15T23:50:27Z</time></trkpt>
<trkpt lat="48.3127830" lon="-1.9578830"><ele></ele><time>2017-12-15T23:50:30Z</time></trkpt>
<trkpt lat="48.3128200" lon="-1.9578990"><ele></ele><time>2017-12-15T23:50:33Z</time></trkpt>
<trkpt lat="48.3128550" lon="-1.9579090"><ele></ele><time>2017-12-15T23:50:36Z</time></trkpt>
<trkpt lat="48.3128910" lon="-1.9579170"><ele></ele><time>2017-12-15T23:50:39Z</time></trkpt>
<trkpt lat="48.3129310" lon="-1.9579270"><ele></ele><time>2017-12-15T23:50:42Z</time></trkpt>
<trkpt lat="48.3129690" lon="-1.9579370"><ele></ele><time>2017-12-15T23:50:45Z</time></trkpt>
<trkpt lat="48.3130080" lon="-1.9579420"><ele></ele><time>2017-12-15T23:50:48Z</time></trkpt>
<trkpt lat="48.3130490" lon="-1.9579480"><ele></ele><time>2017-12-15T23:50:51Z</time></trkpt>
<trkpt lat="48.3130900" lon="-1.9579590"><ele></ele><time>2017-12-15T23:50:54Z</time></trkpt>
<trkpt lat="48.3131330" lon="-1.9579710"><ele></ele><time>2017-12-15T23:50:57Z</time></trkpt>
<trkpt lat="48.3131790" lon="-1.9579830"><ele></ele><time>2017-12-15T23:51:0Z</time></trkpt>
<trkpt lat="48.3132240" lon="-1.9579990"><ele></ele><time>2017-12-15T23:51:3Z</time></trkpt>
<trkpt lat="48.3132670" lon="-1.9580230"><ele></ele><time>2017-12-15T23:51:6Z</time></trkpt>
<trkpt lat="48.3133020" lon="-1.9580390"><ele></ele><time>2017-12-15T23:51:9Z</time></trkpt>
<trkpt lat="48.3133350" lon="-1.9580610"><ele></ele><time>2017-12-15T23:51:12Z</time></trkpt>
<trkpt lat="48.3133700" lon="-1.9580870"><ele></ele><time>2017-12-15T23:51:15Z</time></trkpt>
<trkpt lat="48.3134080" lon="-1.9581110"><ele></ele><time>2017-12-15T23:51:18Z</time></trkpt>
<trkpt lat="48.3134470" lon="-1.9581380"><ele></ele><time>2017-12-15T23:51:21Z</time></trkpt>
<trkpt lat="48.3134830" lon="-1.9581640"><ele></ele><time>2017-12-15T23:51:24Z</time></trkpt>
<trkpt lat="48.3135190" lon="-1.9581840"><ele></ele><time>2017-12-15T23:51:27Z</time></trkpt>
<trkpt lat="48.3135560" lon="-1.9582160"><ele></ele><time>2017-12-15T23:51:30Z</time></trkpt>
<trkpt lat="48.3135890" lon="-1.9582470"><ele></ele><time>2017-12-15T23:51:33Z</time></trkpt>
<trkpt lat="48.3136200" lon="-1.9582700"><ele></ele><time>2017-12-15T23:51:36Z</time></trkpt>
<trkpt lat="48.3136540" lon="-1.9582940"><ele></ele><time>2017-12-15T23:51:39Z</time></trkpt>
<trkpt lat="48.3136890" lon="-1.9583190"><ele></ele><time>2017-12-15T23:51:42Z</time></trkpt>
<trkpt lat="48.3137260" lon="-1.9583490"><ele></ele><time>2017-12-15T23:51:45Z</time></trkpt>
<trkpt lat="48.3137620" lon="-1.9583790"><ele></ele><time>2017-12-15T23:51:48Z</time></trkpt>
<trkpt lat="48.3138030" lon="-1.9584110"><ele></ele><time>2017-12-15T23:51:51Z</time></trkpt>
<trkpt lat="48.3138430" lon="-1.9584400"><ele></ele><time>2017-12-15T23:51:54Z</time></trkpt>
<trkpt lat="48.3138810" lon="-1.9584710"><ele></ele><time>2017-12-15T23:51:57Z</time></trkpt>
<trkpt lat="48.3139190" lon="-1.9584980"><ele></ele><time>2017-12-15T23:52:0Z</time></trkpt>
<trkpt lat="48.3139580" lon="-1.9585320"><ele></ele><time>2017-12-15T23:52:3Z</time></trkpt>
<trkpt lat="48.3139960" lon="-1.9585640"><ele></ele><time>2017-12-15T23:52:6Z</time></trkpt>
<trkpt lat="48.3140360" lon="-1.9585900"><ele></ele><time>2017-12-15T23:52:9Z</time></trkpt>
<trkpt lat="48.3140730" lon="-1.9586240"><ele></ele><time>2017-12-15T23:52:12Z</time></trkpt>
<trkpt lat="48.3141120" lon="-1.9586510"><ele></ele><time>2017-12-15T23:52:15Z</time></trkpt>
<trkpt lat="48.3141500" lon="-1.9586860"><ele></ele><time>2017-12-15T23:52:18Z</time></trkpt>
<trkpt lat="48.3141850" lon="-1.9587240"><ele></ele><time>2017-12-15T23:52:21Z</time></trkpt>
<trkpt lat="48.3142180" lon="-1.9587580"><ele></ele><time>2017-12-15T23:52:24Z</time></trkpt>
<trkpt lat="48.3142610" lon="-1.9587870"><ele></ele><time>2017-12-15T23:52:27Z</time></trkpt>
<trkpt lat="48.3142980" lon="-1.9588120"><ele></ele><time>2017-12-15T23:52:30Z</time></trkpt>
<trkpt lat="48.3143390" lon="-1.9588380"><ele></ele><time>2017-12-15T23:52:33Z</time></trkpt>
<trkpt lat="48.3143790" lon="-1.9588620"><ele></ele><time>2017-12-15T23:52:36Z</time></trkpt>
<trkpt lat="48.3144170" lon="-1.9588850"><ele></ele><time>2017-12-15T23:52:39Z</time></trkpt>
<trkpt lat="48.3144530" lon="-1.9589040"><ele></ele><time>2017-12-15T23:52:42Z</time></trkpt>
<trkpt lat="48.3144950" lon="-1.9589190"><ele></ele><time>2017-12-15T23:52:45Z</time></trkpt>
<trkpt lat="48.3145310" lon="-1.9589330"><ele></ele><time>2017-12-15T23:52:48Z</time></trkpt>
<trkpt lat="48.3145710" lon="-1.9589470"><ele></ele><time>2017-12-15T23:52:51Z</time></trkpt>
<trkpt lat="48.3146040" lon="-1.9589430"><ele></ele><time>2017-12-15T23:52:54Z</time></trkpt>
<trkpt lat="48.3146350" lon="-1.9589290"><ele></ele><time>2017-12-15T23:52:57Z</time></trkpt>
<trkpt lat="48.3146700" lon="-1.9589090"><ele></ele><time>2017-12-15T23:53:0Z</time></trkpt>
<trkpt lat="48.3147060" lon="-1.9589010"><ele></ele><time>2017-12-15T23:53:3Z</time></trkpt>
<trkpt lat="48.3147480" lon="-1.9589080"><ele></ele><time>2017-12-15T23:53:6Z</time></trkpt>
<trkpt lat="48.3147920" lon="-1.9589250"><ele></ele><time>2017-12-15T23:53:9Z</time></trkpt>
<trkpt lat="48.3148360" lon="-1.9589390"><ele></ele><time>2017-12-15T23:53:12Z</time></trkpt>
<trkpt lat="48.3148780" lon="-1.9589590"><ele></ele><time>2017-12-15T23:53:15Z</time></trkpt>
<trkpt lat="48.3149210" lon="-1.9589820"><ele></ele><time>2017-12-15T23:53:18Z</time></trkpt>
<trkpt lat="48.3149630" lon="-1.9590090"><ele></ele><time>2017-12-15T23:53:21Z</time></trkpt>
<trkpt lat="48.3150050" lon="-1.9590300"><ele></ele><time>2017-12-15T23:53:24Z</time></trkpt>
<trkpt lat="48.3150540" lon="-1.9590490"><ele></ele><time>2017-12-15T23:53:27Z</time></trkpt>
<trkpt lat="48.3150980" lon="-1.9590640"><ele></ele><time>2017-12-15T23:53:30Z</time></trkpt>
<trkpt lat="48.3151440" lon="-1.9590740"><ele></ele><time>2017-12-15T23:53:33Z</time></trkpt>
<trkpt lat="48.3151860" lon="-1.9590880"><ele></ele><time>2017-12-15T23:53:36Z</time></trkpt>
<trkpt lat="48.3152300" lon="-1.9591030"><ele></ele><time>2017-12-15T23:53:39Z</time></trkpt>
<trkpt lat="48.3152730" lon="-1.9591170"><ele></ele><time>2017-12-15T23:53:42Z</time></trkpt>
<trkpt lat="48.3153180" lon="-1.9591340"><ele></ele><time>2017-12-15T23:53:45Z</time></trkpt>
<trkpt lat="48.3153630" lon="-1.9591450"><ele></ele><time>2017-12-15T23:53:48Z</time></trkpt>
<trkpt lat="48.3154100" lon="-1.9591540"><ele></ele><time>2017-12-15T23:53:51Z</time></trkpt>
<trkpt lat="48.3154540" lon="-1.9591590"><ele></ele><time>2017-12-15T23:53:54Z</time></trkpt>
<trkpt lat="48.3154980" lon="-1.9591640"><ele></ele><time>2017-12-15T23:53:57Z</time></trkpt>
<trkpt lat="48.3155370" lon="-1.9591640"><ele></ele><time>2017-12-15T23:54:0Z</time></trkpt>
<trkpt lat="48.3155810" lon="-1.9591660"><ele></ele><time>2017-12-15T23:54:3Z</time></trkpt>
<trkpt lat="48.3156240" lon="-1.9591660"><ele></ele><time>2017-12-15T23:54:6Z</time></trkpt>
<trkpt lat="48.3156680" lon="-1.9591650"><ele></ele><time>2017-12-15T23:54:9Z</time></trkpt>
<trkpt lat="48.3157120" lon="-1.9591690"><ele></ele><time>2017-12-15T23:54:12Z</time></trkpt>
<trkpt lat="48.3157540" lon="-1.9591680"><ele></ele><time>2017-12-15T23:54:15Z</time></trkpt>
<trkpt lat="48.3157980" lon="-1.9591700"><ele></ele><time>2017-12-15T23:54:18Z</time></trkpt>
<trkpt lat="48.3158410" lon="-1.9591710"><ele></ele><time>2017-12-15T23:54:21Z</time></trkpt>
<trkpt lat="48.3158820" lon="-1.9591740"><ele></ele><time>2017-12-15T23:54:24Z</time></trkpt>
<trkpt lat="48.3159250" lon="-1.9591760"><ele></ele><time>2017-12-15T23:54:27Z</time></trkpt>
<trkpt lat="48.3159700" lon="-1.9591770"><ele></ele><time>2017-12-15T23:54:30Z</time></trkpt>
<trkpt lat="48.3160140" lon="-1.9591800"><ele></ele><time>2017-12-15T23:54:33Z</time></trkpt>
<trkpt lat="48.3160580" lon="-1.9591860"><ele></ele><time>2017-12-15T23:54:36Z</time></trkpt>
<trkpt lat="48.3161030" lon="-1.9591890"><ele></ele><time>2017-12-15T23:54:39Z</time></trkpt>
<trkpt lat="48.3161490" lon="-1.9591950"><ele></ele><time>2017-12-15T23:54:42Z</time></trkpt>
<trkpt lat="48.3161920" lon="-1.9592040"><ele></ele><time>2017-12-15T23:54:45Z</time></trkpt>
<trkpt lat="48.3162340" lon="-1.9592130"><ele></ele><time>2017-12-15T23:54:48Z</time></trkpt>
<trkpt lat="48.3162800" lon="-1.9592260"><ele></ele><time>2017-12-15T23:54:51Z</time></trkpt>
<trkpt lat="48.3163230" lon="-1.9592350"><ele></ele><time>2017-12-15T23:54:54Z</time></trkpt>
<trkpt lat="48.3163660" lon="-1.9592390"><ele></ele><time>2017-12-15T23:54:57Z</time></trkpt>
<trkpt lat="48.3164090" lon="-1.9592510"><ele></ele><time>2017-12-15T23:55:0Z</time></trkpt>
<trkpt lat="48.3164540" lon="-1.9592690"><ele></ele><time>2017-12-15T23:55:3Z</time></trkpt>
<trkpt lat="48.3164960" lon="-1.9592860"><ele></ele><time>2017-12-15T23:55:6Z</time></trkpt>
<trkpt lat="48.3165430" lon="-1.9593080"><ele></ele><time>2017-12-15T23:55:9Z</time></trkpt>
<trkpt lat="48.3165900" lon="-1.9593250"><ele></ele><time>2017-12-15T23:55:12Z</time></trkpt>
<trkpt lat="48.3166360" lon="-1.9593430"><ele></ele><time>2017-12-15T23:55:15Z</time></trkpt>
<trkpt lat="48.3166820" lon="-1.9593660"><ele></ele><time>2017-12-15T23:55:18Z</time></trkpt>
<trkpt lat="48.3167290" lon="-1.9593850"><ele></ele><time>2017-12-15T23:55:21Z</time></trkpt>
<trkpt lat="48.3167750" lon="-1.9594070"><ele></ele><time>2017-12-15T23:55:24Z</time></trkpt>
<trkpt lat="48.3168190" lon="-1.9594290"><ele></ele><time>2017-12-15T23:55:27Z</time></trkpt>
<trkpt lat="48.3168680" lon="-1.9594510"><ele></ele><time>2017-12-15T23:55:30Z</time></trkpt>
<trkpt lat="48.3169160" lon="-1.9594740"><ele></ele><time>2017-12-15T23:55:33Z</time></trkpt>
<trkpt lat="48.3169630" lon="-1.9595010"><ele></ele><time>2017-12-15T23:55:36Z</time></trkpt>
<trkpt lat="48.3170130" lon="-1.9595330"><ele></ele><time>2017-12-15T23:55:39Z</time></trkpt>
<trkpt lat="48.3170610" lon="-1.9595670"><ele></ele><time>2017-12-15T23:55:42Z</time></trkpt>
<trkpt lat="48.3171090" lon="-1.9596010"><ele></ele><time>2017-12-15T23:55:45Z</time></trkpt>
<trkpt lat="48.3171570" lon="-1.9596350"><ele></ele><time>2017-12-15T23:55:48Z</time></trkpt>
<trkpt lat="48.3172060" lon="-1.9596750"><ele></ele><time>2017-12-15T23:55:51Z</time></trkpt>
<trkpt lat="48.3172560" lon="-1.9597140"><ele></ele><time>2017-12-15T23:55:54Z</time></trkpt>
<trkpt lat="48.3173030" lon="-1.9597530"><ele></ele><time>2017-12-15T23:55:57Z</time></trkpt>
<trkpt lat="48.3173530" lon="-1.9597890"><ele></ele><time>2017-12-15T23:56:0Z</time></trkpt>
<trkpt lat="48.3174020" lon="-1.9598290"><ele></ele><time>2017-12-15T23:56:3Z</time></trkpt>
<trkpt lat="48.3174540" lon="-1.9598680"><ele></ele><time>2017-12-15T23:56:6Z</time></trkpt>
<trkpt lat="48.3175060" lon="-1.9599050"><ele></ele><time>2017-12-15T23:56:9Z</time></trkpt>
<trkpt lat="48.3175570" lon="-1.9599430"><ele></ele><time>2017-12-15T23:56:12Z</time></trkpt>
<trkpt lat="48.3176090" lon="-1.9599820"><ele></ele><time>2017-12-15T23:56:15Z</time></trkpt>
<trkpt lat="48.3176590" lon="-1.9600200"><ele></ele><time>2017-12-15T23:56:18Z</time></trkpt>
<trkpt lat="48.3177130" lon="-1.9600600"><ele></ele><time>2017-12-15T23:56:21Z</time></trkpt>
<trkpt lat="48.3177640" lon="-1.9600990"><ele></ele><time>2017-12-15T23:56:24Z</time></trkpt>
<trkpt lat="48.3178140" lon="-1.9601440"><ele></ele><time>2017-12-15T23:56:27Z</time></trkpt>
<trkpt lat="48.3178670" lon="-1.9601880"><ele></ele><time>2017-12-15T23:56:30Z</time></trkpt>
<trkpt lat="48.3179210" lon="-1.9602280"><ele></ele><time>2017-12-15T23:56:33Z</time></trkpt>
<trkpt lat="48.3179730" lon="-1.9602660"><ele></ele><time>2017-12-15T23:56:36Z</time></trkpt>
<trkpt lat="48.3180250" lon="-1.9603050"><ele></ele><time>2017-12-15T23:56:39Z</time></trkpt>
<trkpt lat="48.3180780" lon="-1.9603490"><ele></ele><time>2017-12-15T23:56:42Z</time></trkpt>
<trkpt lat="48.3181330" lon="-1.9603890"><ele></ele><time>2017-12-15T23:56:45Z</time></trkpt>
<trkpt lat="48.3181860" lon="-1.9604310"><ele></ele><time>2017-12-15T23:56:48Z</time></trkpt>
<trkpt lat="48.3182430" lon="-1.9604730"><ele></ele><time>2017-12-15T23:56:51Z</time></trkpt>
<trkpt lat="48.3183000" lon="-1.9605090"><ele></ele><time>2017-12-15T23:56:54Z</time></trkpt>
<trkpt lat="48.3183620" lon="-1.9605520"><ele></ele><time>2017-12-15T23:56:57Z</time></trkpt>
<trkpt lat="48.3184230" lon="-1.9606010"><ele></ele><time>2017-12-15T23:57:0Z</time></trkpt>
<trkpt lat="48.3184830" lon="-1.9606470"><ele></ele><time>2017-12-15T23:57:3Z</time></trkpt>
<trkpt lat="48.3185400" lon="-1.9606890"><ele></ele><time>2017-12-15T23:57:6Z</time></trkpt>
<trkpt lat="48.3185990" lon="-1.9607290"><ele></ele><time>2017-12-15T23:57:9Z</time></trkpt>
<trkpt lat="48.3186560" lon="-1.9607610"><ele></ele><time>2017-12-15T23:57:12Z</time></trkpt>
<trkpt lat="48.3187060" lon="-1.9607710"><ele></ele><time>2017-12-15T23:57:15Z</time></trkpt>
<trkpt lat="48.3187540" lon="-1.9607380"><ele></ele><time>2017-12-15T23:57:18Z</time></trkpt>
<trkpt lat="48.3187780" lon="-1.9606770"><ele></ele><time>2017-12-15T23:57:21Z</time></trkpt>
<trkpt lat="48.3187990" lon="-1.9606080"><ele></ele><time>2017-12-15T23:57:24Z</time></trkpt>
<trkpt lat="48.3188150" lon="-1.9605370"><ele></ele><time>2017-12-15T23:57:27Z</time></trkpt>
<trkpt lat="48.3188260" lon="-1.9604630"><ele></ele><time>2017-12-15T23:57:30Z</time></trkpt>
<trkpt lat="48.3188400" lon="-1.9603980"><ele></ele><time>2017-12-15T23:57:33Z</time></trkpt>
<trkpt lat="48.3188590" lon="-1.9603330"><ele></ele><time>2017-12-15T23:57:36Z</time></trkpt>
<trkpt lat="48.3188710" lon="-1.9602680"><ele></ele><time>2017-12-15T23:57:39Z</time></trkpt>
<trkpt lat="48.3188830" lon="-1.9602020"><ele></ele><time>2017-12-15T23:57:42Z</time></trkpt>
<trkpt lat="48.3188940" lon="-1.9601390"><ele></ele><time>2017-12-15T23:57:45Z</time></trkpt>
<trkpt lat="48.3189020" lon="-1.9600760"><ele></ele><time>2017-12-15T23:57:48Z</time></trkpt>
<trkpt lat="48.3189110" lon="-1.9600060"><ele></ele><time>2017-12-15T23:57:51Z</time></trkpt>
<trkpt lat="48.3189190" lon="-1.9599430"><ele></ele><time>2017-12-15T23:57:54Z</time></trkpt>
<trkpt lat="48.3189250" lon="-1.9598830"><ele></ele><time>2017-12-15T23:57:57Z</time></trkpt>
<trkpt lat="48.3189350" lon="-1.9598280"><ele></ele><time>2017-12-15T23:58:0Z</time></trkpt>
<trkpt lat="48.3189450" lon="-1.9597730"><ele></ele><time>2017-12-15T23:58:3Z</time></trkpt>
<trkpt lat="48.3189490" lon="-1.9597180"><ele></ele><time>2017-12-15T23:58:6Z</time></trkpt>
<trkpt lat="48.3189560" lon="-1.9596590"><ele></ele><time>2017-12-15T23:58:9Z</time></trkpt>
<trkpt lat="48.3189660" lon="-1.9596010"><ele></ele><time>2017-12-15T23:58:12Z</time></trkpt>
<trkpt lat="48.3189780" lon="-1.9595460"><ele></ele><time>2017-12-15T23:58:15Z</time></trkpt>
<trkpt lat="48.3189830" lon="-1.9594890"><ele></ele><time>2017-12-15T23:58:18Z</time></trkpt>
<trkpt lat="48.3189920" lon="-1.9594290"><ele></ele><time>2017-12-15T23:58:21Z</time></trkpt>
<trkpt lat="48.3190010" lon="-1.9593700"><ele></ele><time>2017-12-15T23:58:24Z</time></trkpt>
<trkpt lat="48.3190100" lon="-1.9593140"><ele></ele><time>2017-12-15T23:58:27Z</time></trkpt>
<trkpt lat="48.3190170" lon="-1.9592520"><ele></ele><time>2017-12-15T23:58:30Z</time></trkpt>
<trkpt lat="48.3190230" lon="-1.9591960"><ele></ele><time>2017-12-15T23:58:33Z</time></trkpt>
<trkpt lat="48.3190300" lon="-1.9591380"><ele></ele><time>2017-12-15T23:58:36Z</time></trkpt>
<trkpt lat="48.3190360" lon="-1.9590820"><ele></ele><time>2017-12-15T23:58:39Z</time></trkpt>
<trkpt lat="48.3190420" lon="-1.9590240"><ele></ele><time>2017-12-15T23:58:42Z</time></trkpt>
<trkpt lat="48.3190490" lon="-1.9589670"><ele></ele><time>2017-12-15T23:58:45Z</time></trkpt>
<trkpt lat="48.3190600" lon="-1.9589040"><ele></ele><time>2017-12-15T23:58:48Z</time></trkpt>
<trkpt lat="48.3190690" lon="-1.9588400"><ele></ele><time>2017-12-15T23:58:51Z</time></trkpt>
<trkpt lat="48.3190770" lon="-1.9587780"><ele></ele><time>2017-12-15T23:58:54Z</time></trkpt>
<trkpt lat="48.3190830" lon="-1.9587140"><ele></ele><time>2017-12-15T23:58:57Z</time></trkpt>
<trkpt lat="48.3190920" lon="-1.9586520"><ele></ele><time>2017-12-15T23:59:0Z</time></trkpt>
<trkpt lat="48.3191010" lon="-1.9585870"><ele></ele><time>2017-12-15T23:59:3Z</time></trkpt>
<trkpt lat="48.3191080" lon="-1.9585230"><ele></ele><time>2017-12-15T23:59:6Z</time></trkpt>
<trkpt lat="48.3191170" lon="-1.9584560"><ele></ele><time>2017-12-15T23:59:9Z</time></trkpt>
<trkpt lat="48.3191270" lon="-1.9583890"><ele></ele><time>2017-12-15T23:59:12Z</time></trkpt>
<trkpt lat="48.3191410" lon="-1.9583200"><ele></ele><time>2017-12-15T23:59:15Z</time></trkpt>
<trkpt lat="48.3191500" lon="-1.9582500"><ele></ele><time>2017-12-15T23:59:18Z</time></trkpt>
<trkpt lat="48.3191610" lon="-1.9581810"><ele></ele><time>2017-12-15T23:59:21Z</time></trkpt>
<trkpt lat="48.3191710" lon="-1.9581170"><ele></ele><time>2017-12-15T23:59:24Z</time></trkpt>
<trkpt lat="48.3191830" lon="-1.9580510"><ele></ele><time>2017-12-15T23:59:27Z</time></trkpt>
<trkpt lat="48.3191930" lon="-1.9579860"><ele></ele><time>2017-12-15T23:59:30Z</time></trkpt>
<trkpt lat="48.3192110" lon="-1.9579230"><ele></ele><time>2017-12-15T23:59:33Z</time></trkpt>
<trkpt lat="48.3192260" lon="-1.9578610"><ele></ele><time>2017-12-15T23:59:36Z</time></trkpt>
<trkpt lat="48.3192440" lon="-1.9577950"><ele></ele><time>2017-12-15T23:59:39Z</time></trkpt>
<trkpt lat="48.3192610" lon="-1.9577260"><ele></ele><time>2017-12-15T23:59:42Z</time></trkpt>
<trkpt lat="48.3192790" lon="-1.9576570"><ele></ele><time>2017-12-15T23:59:45Z</time></trkpt>
<trkpt lat="48.3192960" lon="-1.9575870"><ele></ele><time>2017-12-15T23:59:48Z</time></trkpt>
<trkpt lat="48.3193110" lon="-1.9575160"><ele></ele><time>2017-12-15T23:59:51Z</time></trkpt>
<trkpt lat="48.3193260" lon="-1.9574460"><ele></ele><time>2017-12-15T23:59:54Z</time></trkpt>
<trkpt lat="48.3193420" lon="-1.9573750"><ele></ele><time>2017-12-15T23:59:57Z</time></trkpt>
<trkpt lat="48.3193580" lon="-1.9573070"><ele></ele><time>2017-12-16T0:0:0Z</time></trkpt>
<trkpt lat="48.3193740" lon="-1.9572410"><ele></ele><time>2017-12-16T0:0:3Z</time></trkpt>
<trkpt lat="48.3193890" lon="-1.9571750"><ele></ele><time>2017-12-16T0:0:6Z</time></trkpt>
<trkpt lat="48.3194030" lon="-1.9571110"><ele></ele><time>2017-12-16T0:0:9Z</time></trkpt>
<trkpt lat="48.3194190" lon="-1.9570520"><ele></ele><time>2017-12-16T0:0:12Z</time></trkpt>
<trkpt lat="48.3194400" lon="-1.9569890"><ele></ele><time>2017-12-16T0:0:15Z</time></trkpt>
<trkpt lat="48.3194570" lon="-1.9569290"><ele></ele><time>2017-12-16T0:0:18Z</time></trkpt>
<trkpt lat="48.3194730" lon="-1.9568710"><ele></ele><time>2017-12-16T0:0:21Z</time></trkpt>
<trkpt lat="48.3194870" lon="-1.9568110"><ele></ele><time>2017-12-16T0:0:24Z</time></trkpt>
<trkpt lat="48.3194980" lon="-1.9567540"><ele></ele><time>2017-12-16T0:0:27Z</time></trkpt>
<trkpt lat="48.3195090" lon="-1.9566960"><ele></ele><time>2017-12-16T0:0:30Z</time></trkpt>
<trkpt lat="48.3195180" lon="-1.9566380"><ele></ele><time>2017-12-16T0:0:33Z</time></trkpt>
<trkpt lat="48.3195280" lon="-1.9565760"><ele></ele><time>2017-12-16T0:0:36Z</time></trkpt>
<trkpt lat="48.3195400" lon="-1.9565170"><ele></ele><time>2017-12-16T0:0:39Z</time></trkpt>
<trkpt lat="48.3195520" lon="-1.9564550"><ele></ele><time>2017-12-16T0:0:42Z</time></trkpt>
<trkpt lat="48.3195560" lon="-1.9564000"><ele></ele><time>2017-12-16T0:0:45Z</time></trkpt>
<trkpt lat="48.3195590" lon="-1.9563540"><ele></ele><time>2017-12-16T0:0:48Z</time></trkpt>
<trkpt lat="48.3195630" lon="-1.9562740"><ele></ele><time>2017-12-16T0:0:51Z</time></trkpt>
<trkpt lat="48.3195740" lon="-1.9562230"><ele></ele><time>2017-12-16T0:0:54Z</time></trkpt>
<trkpt lat="48.3195840" lon="-1.9561750"><ele></ele><time>2017-12-16T0:0:57Z</time></trkpt>
<trkpt lat="48.3195940" lon="-1.9561250"><ele></ele><time>2017-12-16T0:1:0Z</time></trkpt>
<trkpt lat="48.3196010" lon="-1.9560810"><ele></ele><time>2017-12-16T0:1:3Z</time></trkpt>
<trkpt lat="48.3196080" lon="-1.9560360"><ele></ele><time>2017-12-16T0:1:6Z</time></trkpt>
<trkpt lat="48.3196140" lon="-1.9559910"><ele></ele><time>2017-12-16T0:1:9Z</time></trkpt>
<trkpt lat="48.3196250" lon="-1.9559450"><ele></ele><time>2017-12-16T0:1:12Z</time></trkpt>
<trkpt lat="48.3196340" lon="-1.9559040"><ele></ele><time>2017-12-16T0:1:15Z</time></trkpt>
<trkpt lat="48.3196470" lon="-1.9558630"><ele></ele><time>2017-12-16T0:1:18Z</time></trkpt>
<trkpt lat="48.3196560" lon="-1.9558190"><ele></ele><time>2017-12-16T0:1:21Z</time></trkpt>
<trkpt lat="48.3196550" lon="-1.9557700"><ele></ele><time>2017-12-16T0:1:24Z</time></trkpt>
<trkpt lat="48.3196390" lon="-1.9557280"><ele></ele><time>2017-12-16T0:1:27Z</time></trkpt>
<trkpt lat="48.3196120" lon="-1.9557030"><ele></ele><time>2017-12-16T0:1:30Z</time></trkpt>
<trkpt lat="48.3195760" lon="-1.9556910"><ele></ele><time>2017-12-16T0:1:33Z</time></trkpt>
<trkpt lat="48.3195400" lon="-1.9556870"><ele></ele><time>2017-12-16T0:1:36Z</time></trkpt>
<trkpt lat="48.3195020" lon="-1.9556730"><ele></ele><time>2017-12-16T0:1:39Z</time></trkpt>
<trkpt lat="48.3194610" lon="-1.9556590"><ele></ele><time>2017-12-16T0:1:42Z</time></trkpt>
<trkpt lat="48.3194160" lon="-1.9556430"><ele></ele><time>2017-12-16T0:1:45Z</time></trkpt>
<trkpt lat="48.3193720" lon="-1.9556260"><ele></ele><time>2017-12-16T0:1:48Z</time></trkpt>
<trkpt lat="48.3193280" lon="-1.9556100"><ele></ele><time>2017-12-16T0:1:51Z</time></trkpt>
<trkpt lat="48.3192800" lon="-1.9555930"><ele></ele><time>2017-12-16T0:1:54Z</time></trkpt>
<trkpt lat="48.3192330" lon="-1.9555740"><ele></ele><time>2017-12-16T0:1:57Z</time></trkpt>
<trkpt lat="48.3191870" lon="-1.9555540"><ele></ele><time>2017-12-16T0:2:0Z</time></trkpt>
<trkpt lat="48.3191410" lon="-1.9555350"><ele></ele><time>2017-12-16T0:2:3Z</time></trkpt>
<trkpt lat="48.3190960" lon="-1.9555220"><ele></ele><time>2017-12-16T0:2:6Z</time></trkpt>
<trkpt lat="48.3190480" lon="-1.9555060"><ele></ele><time>2017-12-16T0:2:9Z</time></trkpt>
<trkpt lat="48.3189990" lon="-1.9554860"><ele></ele><time>2017-12-16T0:2:12Z</time></trkpt>
<trkpt lat="48.3189500" lon="-1.9554710"><ele></ele><time>2017-12-16T0:2:15Z</time></trkpt>
<trkpt lat="48.3189020" lon="-1.9554470"><ele></ele><time>2017-12-16T0:2:18Z</time></trkpt>
<trkpt lat="48.3188510" lon="-1.9554330"><ele></ele><time>2017-12-16T0:2:21Z</time></trkpt>
<trkpt lat="48.3188040" lon="-1.9554100"><ele></ele><time>2017-12-16T0:2:24Z</time></trkpt>
<trkpt lat="48.3187510" lon="-1.9553910"><ele></ele><time>2017-12-16T0:2:27Z</time></trkpt>
<trkpt lat="48.3186960" lon="-1.9553710"><ele></ele><time>2017-12-16T0:2:30Z</time></trkpt>
<trkpt lat="48.3186390" lon="-1.9553520"><ele></ele><time>2017-12-16T0:2:33Z</time></trkpt>
<trkpt lat="48.3185830" lon="-1.9553280"><ele></ele><time>2017-12-16T0:2:36Z</time></trkpt>
<trkpt lat="48.3185270" lon="-1.9553110"><ele></ele><time>2017-12-16T0:2:39Z</time></trkpt>
<trkpt lat="48.3184670" lon="-1.9552880"><ele></ele><time>2017-12-16T0:2:42Z</time></trkpt>
<trkpt lat="48.3184090" lon="-1.9552690"><ele></ele><time>2017-12-16T0:2:45Z</time></trkpt>
<trkpt lat="48.3183550" lon="-1.9552490"><ele></ele><time>2017-12-16T0:2:48Z</time></trkpt>
<trkpt lat="48.3183000" lon="-1.9552270"><ele></ele><time>2017-12-16T0:2:51Z</time></trkpt>
<trkpt lat="48.3182440" lon="-1.9552080"><ele></ele><time>2017-12-16T0:2:54Z</time></trkpt>
<trkpt lat="48.3181840" lon="-1.9551830"><ele></ele><time>2017-12-16T0:2:57Z</time></trkpt>
<trkpt lat="48.3181300" lon="-1.9551590"><ele></ele><time>2017-12-16T0:3:0Z</time></trkpt>
<trkpt lat="48.3180730" lon="-1.9551390"><ele></ele><time>2017-12-16T0:3:3Z</time></trkpt>
<trkpt lat="48.3180190" lon="-1.9551170"><ele></ele><time>2017-12-16T0:3:6Z</time></trkpt>
<trkpt lat="48.3179660" lon="-1.9550910"><ele></ele><time>2017-12-16T0:3:9Z</time></trkpt>
<trkpt lat="48.3179140" lon="-1.9550730"><ele></ele><time>2017-12-16T0:3:12Z</time></trkpt>
<trkpt lat="48.3178590" lon="-1.9550530"><ele></ele><time>2017-12-16T0:3:15Z</time></trkpt>
<trkpt lat="48.3178110" lon="-1.9550170"><ele></ele><time>2017-12-16T0:3:18Z</time></trkpt>
<trkpt lat="48.3177680" lon="-1.9549720"><ele></ele><time>2017-12-16T0:3:21Z</time></trkpt>
<trkpt lat="48.3177300" lon="-1.9549080"><ele></ele><time>2017-12-16T0:3:24Z</time></trkpt>
<trkpt lat="48.3177000" lon="-1.9548240"><ele></ele><time>2017-12-16T0:3:27Z</time></trkpt>
<trkpt lat="48.3176660" lon="-1.9547360"><ele></ele><time>2017-12-16T0:3:30Z</time></trkpt>
<trkpt lat="48.3176330" lon="-1.9546480"><ele></ele><time>2017-12-16T0:3:33Z</time></trkpt>
<trkpt lat="48.3175990" lon="-1.9545660"><ele></ele><time>2017-12-16T0:3:36Z</time></trkpt>
<trkpt lat="48.3175670" lon="-1.9544870"><ele></ele><time>2017-12-16T0:3:39Z</time></trkpt>
<trkpt lat="48.3175330" lon="-1.9544070"><ele></ele><time>2017-12-16T0:3:42Z</time></trkpt>
<trkpt lat="48.3174990" lon="-1.9543270"><ele></ele><time>2017-12-16T0:3:45Z</time></trkpt>
<trkpt lat="48.3174700" lon="-1.9542420"><ele></ele><time>2017-12-16T0:3:48Z</time></trkpt>
<trkpt lat="48.3174450" lon="-1.9541550"><ele></ele><time>2017-12-16T0:3:51Z</time></trkpt>
<trkpt lat="48.3174240" lon="-1.9540710"><ele></ele><time>2017-12-16T0:3:54Z</time></trkpt>
<trkpt lat="48.3174040" lon="-1.9539870"><ele></ele><time>2017-12-16T0:3:57Z</time></trkpt>
<trkpt lat="48.3173850" lon="-1.9539060"><ele></ele><time>2017-12-16T0:4:0Z</time></trkpt>
<trkpt lat="48.3173650" lon="-1.9538320"><ele></ele><time>2017-12-16T0:4:3Z</time></trkpt>
<trkpt lat="48.3173460" lon="-1.9537500"><ele></ele><time>2017-12-16T0:4:6Z</time></trkpt>
<trkpt lat="48.3173270" lon="-1.9536730"><ele></ele><time>2017-12-16T0:4:9Z</time></trkpt>
<trkpt lat="48.3173060" lon="-1.9536010"><ele></ele><time>2017-12-16T0:4:12Z</time></trkpt>
<trkpt lat="48.3172870" lon="-1.9535220"><ele></ele><time>2017-12-16T0:4:15Z</time></trkpt>
<trkpt lat="48.3172630" lon="-1.9534520"><ele></ele><time>2017-12-16T0:4:18Z</time></trkpt>
<trkpt lat="48.3172400" lon="-1.9533770"><ele></ele><time>2017-12-16T0:4:21Z</time></trkpt>
<trkpt lat="48.3172160" lon="-1.9533070"><ele></ele><time>2017-12-16T0:4:24Z</time></trkpt>
<trkpt lat="48.3171910" lon="-1.9532320"><ele></ele><time>2017-12-16T0:4:27Z</time></trkpt>
<trkpt lat="48.3171670" lon="-1.9531480"><ele></ele><time>2017-12-16T0:4:30Z</time></trkpt>
<trkpt lat="48.3171400" lon="-1.9530650"><ele></ele><time>2017-12-16T0:4:33Z</time></trkpt>
<trkpt lat="48.3171110" lon="-1.9529870"><ele></ele><time>2017-12-16T0:4:36Z</time></trkpt>
<trkpt lat="48.3170810" lon="-1.9529110"><ele></ele><time>2017-12-16T0:4:39Z</time></trkpt>
<trkpt lat="48.3170510" lon="-1.9528370"><ele></ele><time>2017-12-16T0:4:42Z</time></trkpt>
<trkpt lat="48.3170170" lon="-1.9527540"><ele></ele><time>2017-12-16T0:4:45Z</time></trkpt>
<trkpt lat="48.3169840" lon="-1.9526680"><ele></ele><time>2017-12-16T0:4:48Z</time></trkpt>
<trkpt lat="48.3169500" lon="-1.9525770"><ele></ele><time>2017-12-16T0:4:51Z</time></trkpt>
<trkpt lat="48.3169290" lon="-1.9524810"><ele></ele><time>2017-12-16T0:4:54Z</time></trkpt>
<trkpt lat="48.3169040" lon="-1.9523890"><ele></ele><time>2017-12-16T0:4:57Z</time></trkpt>
<trkpt lat="48.3168720" lon="-1.9522990"><ele></ele><time>2017-12-16T0:5:0Z</time></trkpt>
<trkpt lat="48.3168400" lon="-1.9522050"><ele></ele><time>2017-12-16T0:5:3Z</time></trkpt>
<trkpt lat="48.3168080" lon="-1.9521170"><ele></ele><time>2017-12-16T0:5:6Z</time></trkpt>
<trkpt lat="48.3167720" lon="-1.9520290"><ele></ele><time>2017-12-16T0:5:9Z</time></trkpt>
<trkpt lat="48.3167380" lon="-1.9519410"><ele></ele><time>2017-12-16T0:5:12Z</time></trkpt>
<trkpt lat="48.3167000" lon="-1.9518580"><ele></ele><time>2017-12-16T0:5:15Z</time></trkpt>
<trkpt lat="48.3166570" lon="-1.9517840"><ele></ele><time>2017-12-16T0:5:18Z</time></trkpt>
<trkpt lat="48.3166150" lon="-1.9517040"><ele></ele><time>2017-12-16T0:5:21Z</time></trkpt>
<trkpt lat="48.3165790" lon="-1.9516310"><ele></ele><time>2017-12-16T0:5:24Z</time></trkpt>
<trkpt lat="48.3165500" lon="-1.9515500"><ele></ele><time>2017-12-16T0:5:27Z</time></trkpt>
<trkpt lat="48.3165070" lon="-1.9514690"><ele></ele><time>2017-12-16T0:5:30Z</time></trkpt>
<trkpt lat="48.3164680" lon="-1.9513900"><ele></ele><time>2017-12-16T0:5:33Z</time></trkpt>
<trkpt lat="48.3164290" lon="-1.9513060"><ele></ele><time>2017-12-16T0:5:36Z</time></trkpt>
<trkpt lat="48.3163980" lon="-1.9512140"><ele></ele><time>2017-12-16T0:5:39Z</time></trkpt>
<trkpt lat="48.3163700" lon="-1.9511270"><ele></ele><time>2017-12-16T0:5:42Z</time></trkpt>
<trkpt lat="48.3163360" lon="-1.9510380"><ele></ele><time>2017-12-16T0:5:45Z</time></trkpt>
<trkpt lat="48.3163010" lon="-1.9509520"><ele></ele><time>2017-12-16T0:5:48Z</time></trkpt>
<trkpt lat="48.3162710" lon="-1.9508700"><ele></ele><time>2017-12-16T0:5:51Z</time></trkpt>
<trkpt lat="48.3162340" lon="-1.9508010"><ele></ele><time>2017-12-16T0:5:54Z</time></trkpt>
<trkpt lat="48.3162010" lon="-1.9507180"><ele></ele><time>2017-12-16T0:5:57Z</time></trkpt>
<trkpt lat="48.3161700" lon="-1.9506460"><ele></ele><time>2017-12-16T0:6:0Z</time></trkpt>
<trkpt lat="48.3161310" lon="-1.9505790"><ele></ele><time>2017-12-16T0:6:3Z</time></trkpt>
<trkpt lat="48.3160750" lon="-1.9505160"><ele></ele><time>2017-12-16T0:6:6Z</time></trkpt>
<trkpt lat="48.3160230" lon="-1.9504560"><ele></ele><time>2017-12-16T0:6:9Z</time></trkpt>
<trkpt lat="48.3159730" lon="-1.9503870"><ele></ele><time>2017-12-16T0:6:12Z</time></trkpt>
<trkpt lat="48.3159220" lon="-1.9503200"><ele></ele><time>2017-12-16T0:6:15Z</time></trkpt>
<trkpt lat="48.3158680" lon="-1.9502490"><ele></ele><time>2017-12-16T0:6:18Z</time></trkpt>
<trkpt lat="48.3158160" lon="-1.9501810"><ele></ele><time>2017-12-16T0:6:21Z</time></trkpt>
<trkpt lat="48.3157710" lon="-1.9501140"><ele></ele><time>2017-12-16T0:6:24Z</time></trkpt>
<trkpt lat="48.3157250" lon="-1.9500480"><ele></ele><time>2017-12-16T0:6:27Z</time></trkpt>
<trkpt lat="48.3156750" lon="-1.9499790"><ele></ele><time>2017-12-16T0:6:30Z</time></trkpt>
<trkpt lat="48.3156240" lon="-1.9499170"><ele></ele><time>2017-12-16T0:6:33Z</time></trkpt>
<trkpt lat="48.3155680" lon="-1.9498570"><ele></ele><time>2017-12-16T0:6:36Z</time></trkpt>
<trkpt lat="48.3155130" lon="-1.9498000"><ele></ele><time>2017-12-16T0:6:39Z</time></trkpt>
<trkpt lat="48.3154540" lon="-1.9497370"><ele></ele><time>2017-12-16T0:6:42Z</time></trkpt>
<trkpt lat="48.3154000" lon="-1.9496850"><ele></ele><time>2017-12-16T0:6:45Z</time></trkpt>
<trkpt lat="48.3153470" lon="-1.9496330"><ele></ele><time>2017-12-16T0:6:48Z</time></trkpt>
<trkpt lat="48.3152940" lon="-1.9495770"><ele></ele><time>2017-12-16T0:6:51Z</time></trkpt>
<trkpt lat="48.3152440" lon="-1.9495250"><ele></ele><time>2017-12-16T0:6:54Z</time></trkpt>
<trkpt lat="48.3151940" lon="-1.9494670"><ele></ele><time>2017-12-16T0:6:57Z</time></trkpt>
<trkpt lat="48.3151520" lon="-1.9494120"><ele></ele><time>2017-12-16T0:7:0Z</time></trkpt>
<trkpt lat="48.3151110" lon="-1.9493560"><ele></ele><time>2017-12-16T0:7:3Z</time></trkpt>
<trkpt lat="48.3150680" lon="-1.9492920"><ele></ele><time>2017-12-16T0:7:6Z</time></trkpt>
<trkpt lat="48.3150260" lon="-1.9492330"><ele></ele><time>2017-12-16T0:7:9Z</time></trkpt>
<trkpt lat="48.3149810" lon="-1.9491800"><ele></ele><time>2017-12-16T0:7:12Z</time></trkpt>
<trkpt lat="48.3149330" lon="-1.9491280"><ele></ele><time>2017-12-16T0:7:15Z</time></trkpt>
<trkpt lat="48.3148850" lon="-1.9490790"><ele></ele><time>2017-12-16T0:7:18Z</time></trkpt>
<trkpt lat="48.3148360" lon="-1.9490300"><ele></ele><time>2017-12-16T0:7:21Z</time></trkpt>
<trkpt lat="48.3147880" lon="-1.9489850"><ele></ele><time>2017-12-16T0:7:24Z</time></trkpt>
<trkpt lat="48.3147400" lon="-1.9489450"><ele></ele><time>2017-12-16T0:7:27Z</time></trkpt>
<trkpt lat="48.3146920" lon="-1.9489060"><ele></ele><time>2017-12-16T0:7:30Z</time></trkpt>
<trkpt lat="48.3146420" lon="-1.9488740"><ele></ele><time>2017-12-16T0:7:33Z</time></trkpt>
<trkpt lat="48.3145910" lon="-1.9488350"><ele></ele><time>2017-12-16T0:7:36Z</time></trkpt>
<trkpt lat="48.3145440" lon="-1.9487980"><ele></ele><time>2017-12-16T0:7:39Z</time></trkpt>
<trkpt lat="48.3144930" lon="-1.9487560"><ele></ele><time>2017-12-16T0:7:42Z</time></trkpt>
<trkpt lat="48.3144470" lon="-1.9487110"><ele></ele><time>2017-12-16T0:7:45Z</time></trkpt>
<trkpt lat="48.3144070" lon="-1.9486760"><ele></ele><time>2017-12-16T0:7:48Z</time></trkpt>
<trkpt lat="48.3143600" lon="-1.9486410"><ele></ele><time>2017-12-16T0:7:51Z</time></trkpt>
<trkpt lat="48.3143080" lon="-1.9485990"><ele></ele><time>2017-12-16T0:7:54Z</time></trkpt>
<trkpt lat="48.3142580" lon="-1.9485610"><ele></ele><time>2017-12-16T0:7:57Z</time></trkpt>
<trkpt lat="48.3142040" lon="-1.9485200"><ele></ele><time>2017-12-16T0:8:0Z</time></trkpt>
<trkpt lat="48.3141500" lon="-1.9484710"><ele></ele><time>2017-12-16T0:8:3Z</time></trkpt>
<trkpt lat="48.3141020" lon="-1.9484320"><ele></ele><time>2017-12-16T0:8:6Z</time></trkpt>
<trkpt lat="48.3140550" lon="-1.9483990"><ele></ele><time>2017-12-16T0:8:9Z</time></trkpt>
<trkpt lat="48.3140030" lon="-1.9483590"><ele></ele><time>2017-12-16T0:8:12Z</time></trkpt>
<trkpt lat="48.3139560" lon="-1.9483040"><ele></ele><time>2017-12-16T0:8:15Z</time></trkpt>
<trkpt lat="48.3138980" lon="-1.9482450"><ele></ele><time>2017-12-16T0:8:18Z</time></trkpt>
<trkpt lat="48.3138430" lon="-1.9481790"><ele></ele><time>2017-12-16T0:8:21Z</time></trkpt>
<trkpt lat="48.3137900" lon="-1.9481150"><ele></ele><time>2017-12-16T0:8:24Z</time></trkpt>
<trkpt lat="48.3137260" lon="-1.9480430"><ele></ele><time>2017-12-16T0:8:27Z</time></trkpt>
<trkpt lat="48.3136670" lon="-1.9479700"><ele></ele><time>2017-12-16T0:8:30Z</time></trkpt>
<trkpt lat="48.3136030" lon="-1.9478960"><ele></ele><time>2017-12-16T0:8:33Z</time></trkpt>
<trkpt lat="48.3135370" lon="-1.9478200"><ele></ele><time>2017-12-16T0:8:36Z</time></trkpt>
<trkpt lat="48.3134730" lon="-1.9477520"><ele></ele><time>2017-12-16T0:8:39Z</time></trkpt>
<trkpt lat="48.3134050" lon="-1.9476910"><ele></ele><time>2017-12-16T0:8:42Z</time></trkpt>
<trkpt lat="48.3133390" lon="-1.9476490"><ele></ele><time>2017-12-16T0:8:45Z</time></trkpt>
<trkpt lat="48.3132840" lon="-1.9476210"><ele></ele><time>2017-12-16T0:8:48Z</time></trkpt>
<trkpt lat="48.3132450" lon="-1.9475960"><ele></ele><time>2017-12-16T0:8:51Z</time></trkpt>
<trkpt lat="48.3132080" lon="-1.9475610"><ele></ele><time>2017-12-16T0:8:54Z</time></trkpt>
<trkpt lat="48.3132050" lon="-1.9475180"><ele></ele><time>2017-12-16T0:8:57Z</time></trkpt>
<trkpt lat="48.3132110" lon="-1.9474760"><ele></ele><time>2017-12-16T0:9:0Z</time></trkpt>
<trkpt lat="48.3132320" lon="-1.9474440"><ele></ele><time>2017-12-16T0:9:3Z</time></trkpt>
<trkpt lat="48.3132580" lon="-1.9474020"><ele></ele><time>2017-12-16T0:9:6Z</time></trkpt>
<trkpt lat="48.3132900" lon="-1.9473570"><ele></ele><time>2017-12-16T0:9:9Z</time></trkpt>
<trkpt lat="48.3133260" lon="-1.9473130"><ele></ele><time>2017-12-16T0:9:12Z</time></trkpt>
<trkpt lat="48.3133610" lon="-1.9472690"><ele></ele><time>2017-12-16T0:9:15Z</time></trkpt>
<trkpt lat="48.3133990" lon="-1.9472230"><ele></ele><time>2017-12-16T0:9:18Z</time></trkpt>
<trkpt lat="48.3134390" lon="-1.9471720"><ele></ele><time>2017-12-16T0:9:21Z</time></trkpt>
<trkpt lat="48.3134780" lon="-1.9471160"><ele></ele><time>2017-12-16T0:9:24Z</time></trkpt>
<trkpt lat="48.3135180" lon="-1.9470630"><ele></ele><time>2017-12-16T0:9:27Z</time></trkpt>
<trkpt lat="48.3135570" lon="-1.9470080"><ele></ele><time>2017-12-16T0:9:30Z</time></trkpt>
<trkpt lat="48.3135920" lon="-1.9469430"><ele></ele><time>2017-12-16T0:9:33Z</time></trkpt>
<trkpt lat="48.3136260" lon="-1.9468720"><ele></ele><time>2017-12-16T0:9:36Z</time></trkpt>
<trkpt lat="48.3136600" lon="-1.9467950"><ele></ele><time>2017-12-16T0:9:39Z</time></trkpt>
<trkpt lat="48.3136970" lon="-1.9467220"><ele></ele><time>2017-12-16T0:9:42Z</time></trkpt>
<trkpt lat="48.3137410" lon="-1.9466490"><ele></ele><time>2017-12-16T0:9:45Z</time></trkpt>
<trkpt lat="48.3137800" lon="-1.9465750"><ele></ele><time>2017-12-16T0:9:48Z</time></trkpt>
<trkpt lat="48.3138220" lon="-1.9464970"><ele></ele><time>2017-12-16T0:9:51Z</time></trkpt>
<trkpt lat="48.3138610" lon="-1.9464180"><ele></ele><time>2017-12-16T0:9:54Z</time></trkpt>
<trkpt lat="48.3139030" lon="-1.9463440"><ele></ele><time>2017-12-16T0:9:57Z</time></trkpt>
<trkpt lat="48.3139450" lon="-1.9462780"><ele></ele><time>2017-12-16T0:10:0Z</time></trkpt>
<trkpt lat="48.3139900" lon="-1.9462170"><ele></ele><time>2017-12-16T0:10:3Z</time></trkpt>
<trkpt lat="48.3140450" lon="-1.9461930"><ele></ele><time>2017-12-16T0:10:6Z</time></trkpt>
<trkpt lat="48.3140960" lon="-1.9462120"><ele></ele><time>2017-12-16T0:10:9Z</time></trkpt>
<trkpt lat="48.3141430" lon="-1.9462550"><ele></ele><time>2017-12-16T0:10:12Z</time></trkpt>
<trkpt lat="48.3141840" lon="-1.9463020"><ele></ele><time>2017-12-16T0:10:15Z</time></trkpt>
<trkpt lat="48.3142270" lon="-1.9463490"><ele></ele><time>2017-12-16T0:10:18Z</time></trkpt>
<trkpt lat="48.3142670" lon="-1.9463840"><ele></ele><time>2017-12-16T0:10:21Z</time></trkpt>
<trkpt lat="48.3143050" lon="-1.9464160"><ele></ele><time>2017-12-16T0:10:24Z</time></trkpt>
<trkpt lat="48.3143440" lon="-1.9464510"><ele></ele><time>2017-12-16T0:10:27Z</time></trkpt>
<trkpt lat="48.3143810" lon="-1.9464950"><ele></ele><time>2017-12-16T0:10:30Z</time></trkpt>
<trkpt lat="48.3144200" lon="-1.9465410"><ele></ele><time>2017-12-16T0:10:33Z</time></trkpt>
<trkpt lat="48.3144600" lon="-1.9465840"><ele></ele><time>2017-12-16T0:10:36Z</time></trkpt>
<trkpt lat="48.3145020" lon="-1.9466240"><ele></ele><time>2017-12-16T0:10:39Z</time></trkpt>
<trkpt lat="48.3145430" lon="-1.9466650"><ele></ele><time>2017-12-16T0:10:42Z</time></trkpt>
<trkpt lat="48.3145790" lon="-1.9467000"><ele></ele><time>2017-12-16T0:10:45Z</time></trkpt>
<trkpt lat="48.3146190" lon="-1.9467350"><ele></ele><time>2017-12-16T0:10:48Z</time></trkpt>
<trkpt lat="48.3146590" lon="-1.9467670"><ele></ele><time>2017-12-16T0:10:51Z</time></trkpt>
<trkpt lat="48.3147010" lon="-1.9467910"><ele></ele><time>2017-12-16T0:10:54Z</time></trkpt>
<trkpt lat="48.3147450" lon="-1.9468190"><ele></ele><time>2017-12-16T0:10:57Z</time></trkpt>
<trkpt lat="48.3147840" lon="-1.9468520"><ele></ele><time>2017-12-16T0:11:0Z</time></trkpt>
<trkpt lat="48.3148210" lon="-1.9468890"><ele></ele><time>2017-12-16T0:11:3Z</time></trkpt>
<trkpt lat="48.3148580" lon="-1.9469210"><ele></ele><time>2017-12-16T0:11:6Z</time></trkpt>
<trkpt lat="48.3148940" lon="-1.9469530"><ele></ele><time>2017-12-16T0:11:9Z</time></trkpt>
<trkpt lat="48.3149340" lon="-1.9469880"><ele></ele><time>2017-12-16T0:11:12Z</time></trkpt>
<trkpt lat="48.3149700" lon="-1.9470160"><ele></ele><time>2017-12-16T0:11:15Z</time></trkpt>
<trkpt lat="48.3150050" lon="-1.9470470"><ele></ele><time>2017-12-16T0:11:18Z</time></trkpt>
<trkpt lat="48.3150440" lon="-1.9470800"><ele></ele><time>2017-12-16T0:11:21Z</time></trkpt>
<trkpt lat="48.3150780" lon="-1.9471100"><ele></ele><time>2017-12-16T0:11:24Z</time></trkpt>
<trkpt lat="48.3151100" lon="-1.9471370"><ele></ele><time>2017-12-16T0:11:27Z</time></trkpt>
<trkpt lat="48.3151430" lon="-1.9471670"><ele></ele><time>2017-12-16T0:11:30Z</time></trkpt>
<trkpt lat="48.3151770" lon="-1.9471960"><ele></ele><time>2017-12-16T0:11:33Z</time></trkpt>
<trkpt lat="48.3152060" lon="-1.9472260"><ele></ele><time>2017-12-16T0:11:36Z</time></trkpt>
<trkpt lat="48.3152400" lon="-1.9472550"><ele></ele><time>2017-12-16T0:11:39Z</time></trkpt>
<trkpt lat="48.3152710" lon="-1.9472850"><ele></ele><time>2017-12-16T0:11:42Z</time></trkpt>
<trkpt lat="48.3153020" lon="-1.9473130"><ele></ele><time>2017-12-16T0:11:45Z</time></trkpt>
<trkpt lat="48.3153330" lon="-1.9473380"><ele></ele><time>2017-12-16T0:11:48Z</time></trkpt>
<trkpt lat="48.3153650" lon="-1.9473650"><ele></ele><time>2017-12-16T0:11:51Z</time></trkpt>
<trkpt lat="48.3153950" lon="-1.9473910"><ele></ele><time>2017-12-16T0:11:54Z</time></trkpt>
<trkpt lat="48.3154240" lon="-1.9474200"><ele></ele><time>2017-12-16T0:11:57Z</time></trkpt>
<trkpt lat="48.3154560" lon="-1.9474450"><ele></ele><time>2017-12-16T0:12:0Z</time></trkpt>
<trkpt lat="48.3154860" lon="-1.9474700"><ele></ele><time>2017-12-16T0:12:3Z</time></trkpt>
<trkpt lat="48.3155130" lon="-1.9474930"><ele></ele><time>2017-12-16T0:12:6Z</time></trkpt>
<trkpt lat="48.3155380" lon="-1.9475250"><ele></ele><time>2017-12-16T0:12:9Z</time></trkpt>
<trkpt lat="48.3155680" lon="-1.9475510"><ele></ele><time>2017-12-16T0:12:12Z</time></trkpt>
<trkpt lat="48.3155980" lon="-1.9475750"><ele></ele><time>2017-12-16T0:12:15Z</time></trkpt>
<trkpt lat="48.3156260" lon="-1.9476000"><ele></ele><time>2017-12-16T0:12:18Z</time></trkpt>
<trkpt lat="48.3156560" lon="-1.9476230"><ele></ele><time>2017-12-16T0:12:21Z</time></trkpt>
<trkpt lat="48.3156860" lon="-1.9476500"><ele></ele><time>2017-12-16T0:12:24Z</time></trkpt>
<trkpt lat="48.3157170" lon="-1.9476750"><ele></ele><time>2017-12-16T0:12:27Z</time></trkpt>
<trkpt lat="48.3157530" lon="-1.9476980"><ele></ele><time>2017-12-16T0:12:30Z</time></trkpt>
<trkpt lat="48.3157890" lon="-1.9477190"><ele></ele><time>2017-12-16T0:12:33Z</time></trkpt>
<trkpt lat="48.3158260" lon="-1.9477410"><ele></ele><time>2017-12-16T0:12:36Z</time></trkpt>
<trkpt lat="48.3158630" lon="-1.9477630"><ele></ele><time>2017-12-16T0:12:39Z</time></trkpt>
<trkpt lat="48.3158990" lon="-1.9477840"><ele></ele><time>2017-12-16T0:12:42Z</time></trkpt>
<trkpt lat="48.3159370" lon="-1.9478060"><ele></ele><time>2017-12-16T0:12:45Z</time></trkpt>
<trkpt lat="48.3159740" lon="-1.9478270"><ele></ele><time>2017-12-16T0:12:48Z</time></trkpt>
<trkpt lat="48.3160120" lon="-1.9478470"><ele></ele><time>2017-12-16T0:12:51Z</time></trkpt>
<trkpt lat="48.3160480" lon="-1.9478640"><ele></ele><time>2017-12-16T0:12:54Z</time></trkpt>
<trkpt lat="48.3160830" lon="-1.9478840"><ele></ele><time>2017-12-16T0:12:57Z</time></trkpt>
<trkpt lat="48.3161170" lon="-1.9479020"><ele></ele><time>2017-12-16T0:13:0Z</time></trkpt>
<trkpt lat="48.3161510" lon="-1.9479210"><ele></ele><time>2017-12-16T0:13:3Z</time></trkpt>
<trkpt lat="48.3161860" lon="-1.9479370"><ele></ele><time>2017-12-16T0:13:6Z</time></trkpt>
<trkpt lat="48.3162190" lon="-1.9479500"><ele></ele><time>2017-12-16T0:13:9Z</time></trkpt>
<trkpt lat="48.3162540" lon="-1.9479670"><ele></ele><time>2017-12-16T0:13:12Z</time></trkpt>
<trkpt lat="48.3162870" lon="-1.9479850"><ele></ele><time>2017-12-16T0:13:15Z</time></trkpt>
<trkpt lat="48.3163210" lon="-1.9480040"><ele></ele><time>2017-12-16T0:13:18Z</time></trkpt>
<trkpt lat="48.3163550" lon="-1.9480200"><ele></ele><time>2017-12-16T0:13:21Z</time></trkpt>
<trkpt lat="48.3163910" lon="-1.9480370"><ele></ele><time>2017-12-16T0:13:24Z</time></trkpt>
<trkpt lat="48.3164260" lon="-1.9480550"><ele></ele><time>2017-12-16T0:13:27Z</time></trkpt>
<trkpt lat="48.3164600" lon="-1.9480720"><ele></ele><time>2017-12-16T0:13:30Z</time></trkpt>
<trkpt lat="48.3164950" lon="-1.9480870"><ele></ele><time>2017-12-16T0:13:33Z</time></trkpt>
<trkpt lat="48.3165270" lon="-1.9481020"><ele></ele><time>2017-12-16T0:13:36Z</time></trkpt>
<trkpt lat="48.3165560" lon="-1.9481180"><ele></ele><time>2017-12-16T0:13:39Z</time></trkpt>
<trkpt lat="48.3165870" lon="-1.9481280"><ele></ele><time>2017-12-16T0:13:42Z</time></trkpt>
<trkpt lat="48.3166230" lon="-1.9481410"><ele></ele><time>2017-12-16T0:13:45Z</time></trkpt>
<trkpt lat="48.3166540" lon="-1.9481590"><ele></ele><time>2017-12-16T0:13:48Z</time></trkpt>
<trkpt lat="48.3166840" lon="-1.9481740"><ele></ele><time>2017-12-16T0:13:51Z</time></trkpt>
<trkpt lat="48.3167120" lon="-1.9481860"><ele></ele><time>2017-12-16T0:13:54Z</time></trkpt>
<trkpt lat="48.3167450" lon="-1.9482030"><ele></ele><time>2017-12-16T0:13:57Z</time></trkpt>
<trkpt lat="48.3167770" lon="-1.9482160"><ele></ele><time>2017-12-16T0:14:0Z</time></trkpt>
<trkpt lat="48.3168050" lon="-1.9482310"><ele></ele><time>2017-12-16T0:14:3Z</time></trkpt>
<trkpt lat="48.3168350" lon="-1.9482510"><ele></ele><time>2017-12-16T0:14:6Z</time></trkpt>
<trkpt lat="48.3168650" lon="-1.9482650"><ele></ele><time>2017-12-16T0:14:9Z</time></trkpt>
<trkpt lat="48.3168960" lon="-1.9482840"><ele></ele><time>2017-12-16T0:14:12Z</time></trkpt>
<trkpt lat="48.3169270" lon="-1.9483020"><ele></ele><time>2017-12-16T0:14:15Z</time></trkpt>
<trkpt lat="48.3169570" lon="-1.9483170"><ele></ele><time>2017-12-16T0:14:18Z</time></trkpt>
<trkpt lat="48.3169880" lon="-1.9483320"><ele></ele><time>2017-12-16T0:14:21Z</time></trkpt>
<trkpt lat="48.3170200" lon="-1.9483510"><ele></ele><time>2017-12-16T0:14:24Z</time></trkpt>
<trkpt lat="48.3170520" lon="-1.9483670"><ele></ele><time>2017-12-16T0:14:27Z</time></trkpt>
<trkpt lat="48.3170850" lon="-1.9483830"><ele></ele><time>2017-12-16T0:14:30Z</time></trkpt>
<trkpt lat="48.3171180" lon="-1.9483970"><ele></ele><time>2017-12-16T0:14:33Z</time></trkpt>
<trkpt lat="48.3171490" lon="-1.9484050"><ele></ele><time>2017-12-16T0:14:36Z</time></trkpt>
<trkpt lat="48.3171810" lon="-1.9484200"><ele></ele><time>2017-12-16T0:14:39Z</time></trkpt>
<trkpt lat="48.3172140" lon="-1.9484290"><ele></ele><time>2017-12-16T0:14:42Z</time></trkpt>
<trkpt lat="48.3172480" lon="-1.9484350"><ele></ele><time>2017-12-16T0:14:45Z</time></trkpt>
<trkpt lat="48.3172800" lon="-1.9484410"><ele></ele><time>2017-12-16T0:14:48Z</time></trkpt>
<trkpt lat="48.3173130" lon="-1.9484460"><ele></ele><time>2017-12-16T0:14:51Z</time></trkpt>
<trkpt lat="48.3173430" lon="-1.9484520"><ele></ele><time>2017-12-16T0:14:54Z</time></trkpt>
<trkpt lat="48.3173730" lon="-1.9484550"><ele></ele><time>2017-12-16T0:14:57Z</time></trkpt>
<trkpt lat="48.3174050" lon="-1.9484580"><ele></ele><time>2017-12-16T0:15:0Z</time></trkpt>
<trkpt lat="48.3174390" lon="-1.9484620"><ele></ele><time>2017-12-16T0:15:3Z</time></trkpt>
<trkpt lat="48.3174720" lon="-1.9484670"><ele></ele><time>2017-12-16T0:15:6Z</time></trkpt>
<trkpt lat="48.3175060" lon="-1.9484740"><ele></ele><time>2017-12-16T0:15:9Z</time></trkpt>
<trkpt lat="48.3175400" lon="-1.9484810"><ele></ele><time>2017-12-16T0:15:12Z</time></trkpt>
<trkpt lat="48.3175720" lon="-1.9484840"><ele></ele><time>2017-12-16T0:15:15Z</time></trkpt>
<trkpt lat="48.3176060" lon="-1.9484870"><ele></ele><time>2017-12-16T0:15:18Z</time></trkpt>
<trkpt lat="48.3176400" lon="-1.9484930"><ele></ele><time>2017-12-16T0:15:21Z</time></trkpt>
<trkpt lat="48.3176710" lon="-1.9485020"><ele></ele><time>2017-12-16T0:15:24Z</time></trkpt>
<trkpt lat="48.3177060" lon="-1.9485070"><ele></ele><time>2017-12-16T0:15:27Z</time></trkpt>
<trkpt lat="48.3177400" lon="-1.9485150"><ele></ele><time>2017-12-16T0:15:30Z</time></trkpt>
<trkpt lat="48.3177730" lon="-1.9485230"><ele></ele><time>2017-12-16T0:15:33Z</time></trkpt>
<trkpt lat="48.3178060" lon="-1.9485310"><ele></ele><time>2017-12-16T0:15:36Z</time></trkpt>
<trkpt lat="48.3178400" lon="-1.9485370"><ele></ele><time>2017-12-16T0:15:39Z</time></trkpt>
<trkpt lat="48.3178700" lon="-1.9485440"><ele></ele><time>2017-12-16T0:15:42Z</time></trkpt>
<trkpt lat="48.3179030" lon="-1.9485550"><ele></ele><time>2017-12-16T0:15:45Z</time></trkpt>
<trkpt lat="48.3179360" lon="-1.9485600"><ele></ele><time>2017-12-16T0:15:48Z</time></trkpt>
<trkpt lat="48.3179680" lon="-1.9485660"><ele></ele><time>2017-12-16T0:15:51Z</time></trkpt>
<trkpt lat="48.3180020" lon="-1.9485740"><ele></ele><time>2017-12-16T0:15:54Z</time></trkpt>
<trkpt lat="48.3180350" lon="-1.9485800"><ele></ele><time>2017-12-16T0:15:57Z</time></trkpt>
<trkpt lat="48.3180710" lon="-1.9485890"><ele></ele><time>2017-12-16T0:16:0Z</time></trkpt>
<trkpt lat="48.3181040" lon="-1.9485980"><ele></ele><time>2017-12-16T0:16:3Z</time></trkpt>
<trkpt lat="48.3181370" lon="-1.9486060"><ele></ele><time>2017-12-16T0:16:6Z</time></trkpt>
<trkpt lat="48.3181710" lon="-1.9486140"><ele></ele><time>2017-12-16T0:16:9Z</time></trkpt>
<trkpt lat="48.3182040" lon="-1.9486260"><ele></ele><time>2017-12-16T0:16:12Z</time></trkpt>
<trkpt lat="48.3182350" lon="-1.9486330"><ele></ele><time>2017-12-16T0:16:15Z</time></trkpt>
<trkpt lat="48.3182680" lon="-1.9486380"><ele></ele><time>2017-12-16T0:16:18Z</time></trkpt>
<trkpt lat="48.3183020" lon="-1.9486430"><ele></ele><time>2017-12-16T0:16:21Z</time></trkpt>
<trkpt lat="48.3183360" lon="-1.9486540"><ele></ele><time>2017-12-16T0:16:24Z</time></trkpt>
<trkpt lat="48.3183710" lon="-1.9486620"><ele></ele><time>2017-12-16T0:16:27Z</time></trkpt>
<trkpt lat="48.3184070" lon="-1.9486700"><ele></ele><time>2017-12-16T0:16:30Z</time></trkpt>
<trkpt lat="48.3184440" lon="-1.9486770"><ele></ele><time>2017-12-16T0:16:33Z</time></trkpt>
<trkpt lat="48.3184790" lon="-1.9486840"><ele></ele><time>2017-12-16T0:16:36Z</time></trkpt>
<trkpt lat="48.3185170" lon="-1.9486910"><ele></ele><time>2017-12-16T0:16:39Z</time></trkpt>
<trkpt lat="48.3185560" lon="-1.9487010"><ele></ele><time>2017-12-16T0:16:42Z</time></trkpt>
<trkpt lat="48.3185940" lon="-1.9487110"><ele></ele><time>2017-12-16T0:16:45Z</time></trkpt>
<trkpt lat="48.3186340" lon="-1.9487240"><ele></ele><time>2017-12-16T0:16:48Z</time></trkpt>
<trkpt lat="48.3186740" lon="-1.9487390"><ele></ele><time>2017-12-16T0:16:51Z</time></trkpt>
<trkpt lat="48.3187130" lon="-1.9487540"><ele></ele><time>2017-12-16T0:16:54Z</time></trkpt>
<trkpt lat="48.3187540" lon="-1.9487670"><ele></ele><time>2017-12-16T0:16:57Z</time></trkpt>
<trkpt lat="48.3187910" lon="-1.9487800"><ele></ele><time>2017-12-16T0:17:0Z</time></trkpt>
<trkpt lat="48.3188280" lon="-1.9487940"><ele></ele><time>2017-12-16T0:17:3Z</time></trkpt>
<trkpt lat="48.3188650" lon="-1.9488140"><ele></ele><time>2017-12-16T0:17:6Z</time></trkpt>
<trkpt lat="48.3188990" lon="-1.9488280"><ele></ele><time>2017-12-16T0:17:9Z</time></trkpt>
<trkpt lat="48.3189330" lon="-1.9488440"><ele></ele><time>2017-12-16T0:17:12Z</time></trkpt>
<trkpt lat="48.3189680" lon="-1.9488570"><ele></ele><time>2017-12-16T0:17:15Z</time></trkpt>
<trkpt lat="48.3190000" lon="-1.9488730"><ele></ele><time>2017-12-16T0:17:18Z</time></trkpt>
<trkpt lat="48.3190350" lon="-1.9488860"><ele></ele><time>2017-12-16T0:17:21Z</time></trkpt>
<trkpt lat="48.3190700" lon="-1.9489010"><ele></ele><time>2017-12-16T0:17:24Z</time></trkpt>
<trkpt lat="48.3191050" lon="-1.9489150"><ele></ele><time>2017-12-16T0:17:27Z</time></trkpt>
<trkpt lat="48.3191420" lon="-1.9489330"><ele></ele><time>2017-12-16T0:17:30Z</time></trkpt>
<trkpt lat="48.3191790" lon="-1.9489510"><ele></ele><time>2017-12-16T0:17:33Z</time></trkpt>
<trkpt lat="48.3192160" lon="-1.9489720"><ele></ele><time>2017-12-16T0:17:36Z</time></trkpt>
<trkpt lat="48.3192540" lon="-1.9489880"><ele></ele><time>2017-12-16T0:17:39Z</time></trkpt>
<trkpt lat="48.3192900" lon="-1.9490050"><ele></ele><time>2017-12-16T0:17:42Z</time></trkpt>
<trkpt lat="48.3193300" lon="-1.9490250"><ele></ele><time>2017-12-16T0:17:45Z</time></trkpt>
<trkpt lat="48.3193690" lon="-1.9490440"><ele></ele><time>2017-12-16T0:17:48Z</time></trkpt>
<trkpt lat="48.3194090" lon="-1.9490650"><ele></ele><time>2017-12-16T0:17:51Z</time></trkpt>
<trkpt lat="48.3194490" lon="-1.9490870"><ele></ele><time>2017-12-16T0:17:54Z</time></trkpt>
<trkpt lat="48.3194880" lon="-1.9491110"><ele></ele><time>2017-12-16T0:17:57Z</time></trkpt>
<trkpt lat="48.3195290" lon="-1.9491330"><ele></ele><time>2017-12-16T0:18:0Z</time></trkpt>
<trkpt lat="48.3195710" lon="-1.9491550"><ele></ele><time>2017-12-16T0:18:3Z</time></trkpt>
<trkpt lat="48.3196140" lon="-1.9491800"><ele></ele><time>2017-12-16T0:18:6Z</time></trkpt>
<trkpt lat="48.3196550" lon="-1.9492060"><ele></ele><time>2017-12-16T0:18:9Z</time></trkpt>
<trkpt lat="48.3196970" lon="-1.9492330"><ele></ele><time>2017-12-16T0:18:12Z</time></trkpt>
<trkpt lat="48.3197370" lon="-1.9492550"><ele></ele><time>2017-12-16T0:18:15Z</time></trkpt>
<trkpt lat="48.3197720" lon="-1.9492770"><ele></ele><time>2017-12-16T0:18:18Z</time></trkpt>
<trkpt lat="48.3198120" lon="-1.9493010"><ele></ele><time>2017-12-16T0:18:21Z</time></trkpt>
<trkpt lat="48.3198490" lon="-1.9493240"><ele></ele><time>2017-12-16T0:18:24Z</time></trkpt>
<trkpt lat="48.3198850" lon="-1.9493460"><ele></ele><time>2017-12-16T0:18:27Z</time></trkpt>
<trkpt lat="48.3199230" lon="-1.9493690"><ele></ele><time>2017-12-16T0:18:30Z</time></trkpt>
<trkpt lat="48.3199600" lon="-1.9493890"><ele></ele><time>2017-12-16T0:18:33Z</time></trkpt>
<trkpt lat="48.3199960" lon="-1.9494120"><ele></ele><time>2017-12-16T0:18:36Z</time></trkpt>
<trkpt lat="48.3200330" lon="-1.9494370"><ele></ele><time>2017-12-16T0:18:39Z</time></trkpt>
<trkpt lat="48.3200680" lon="-1.9494620"><ele></ele><time>2017-12-16T0:18:42Z</time></trkpt>
<trkpt lat="48.3201040" lon="-1.9494890"><ele></ele><time>2017-12-16T0:18:45Z</time></trkpt>
<trkpt lat="48.3201390" lon="-1.9495150"><ele></ele><time>2017-12-16T0:18:48Z</time></trkpt>
<trkpt lat="48.3201740" lon="-1.9495430"><ele></ele><time>2017-12-16T0:18:51Z</time></trkpt>
<trkpt lat="48.3202060" lon="-1.9495740"><ele></ele><time>2017-12-16T0:18:54Z</time></trkpt>
<trkpt lat="48.3202430" lon="-1.9495890"><ele></ele><time>2017-12-16T0:18:57Z</time></trkpt>
<trkpt lat="48.3202750" lon="-1.9495930"><ele></ele><time>2017-12-16T0:19:0Z</time></trkpt>
<trkpt lat="48.3203130" lon="-1.9495690"><ele></ele><time>2017-12-16T0:19:3Z</time></trkpt>
<trkpt lat="48.3203340" lon="-1.9495190"><ele></ele><time>2017-12-16T0:19:6Z</time></trkpt>
<trkpt lat="48.3203530" lon="-1.9494670"><ele></ele><time>2017-12-16T0:19:9Z</time></trkpt>
<trkpt lat="48.3203780" lon="-1.9494130"><ele></ele><time>2017-12-16T0:19:12Z</time></trkpt>
<trkpt lat="48.3204040" lon="-1.9493600"><ele></ele><time>2017-12-16T0:19:15Z</time></trkpt>
<trkpt lat="48.3204330" lon="-1.9493060"><ele></ele><time>2017-12-16T0:19:18Z</time></trkpt>
<trkpt lat="48.3204620" lon="-1.9492540"><ele></ele><time>2017-12-16T0:19:21Z</time></trkpt>
<trkpt lat="48.3204910" lon="-1.9491970"><ele></ele><time>2017-12-16T0:19:24Z</time></trkpt>
<trkpt lat="48.3205210" lon="-1.9491440"><ele></ele><time>2017-12-16T0:19:27Z</time></trkpt>
<trkpt lat="48.3205470" lon="-1.9490880"><ele></ele><time>2017-12-16T0:19:30Z</time></trkpt>
<trkpt lat="48.3205830" lon="-1.9490320"><ele></ele><time>2017-12-16T0:19:33Z</time></trkpt>
<trkpt lat="48.3206130" lon="-1.9489800"><ele></ele><time>2017-12-16T0:19:36Z</time></trkpt>
<trkpt lat="48.3206430" lon="-1.9489310"><ele></ele><time>2017-12-16T0:19:39Z</time></trkpt>
<trkpt lat="48.3206720" lon="-1.9488860"><ele></ele><time>2017-12-16T0:19:42Z</time></trkpt>
<trkpt lat="48.3207040" lon="-1.9488370"><ele></ele><time>2017-12-16T0:19:45Z</time></trkpt>
<trkpt lat="48.3207350" lon="-1.9487800"><ele></ele><time>2017-12-16T0:19:48Z</time></trkpt>
<trkpt lat="48.3207630" lon="-1.9487210"><ele></ele><time>2017-12-16T0:19:51Z</time></trkpt>
<trkpt lat="48.3207940" lon="-1.9486570"><ele></ele><time>2017-12-16T0:19:54Z</time></trkpt>
<trkpt lat="48.3208250" lon="-1.9485860"><ele></ele><time>2017-12-16T0:19:57Z</time></trkpt>
<trkpt lat="48.3208570" lon="-1.9485130"><ele></ele><time>2017-12-16T0:20:0Z</time></trkpt>
<trkpt lat="48.3208830" lon="-1.9484380"><ele></ele><time>2017-12-16T0:20:3Z</time></trkpt>
<trkpt lat="48.3209140" lon="-1.9483630"><ele></ele><time>2017-12-16T0:20:6Z</time></trkpt>
<trkpt lat="48.3209390" lon="-1.9482860"><ele></ele><time>2017-12-16T0:20:9Z</time></trkpt>
<trkpt lat="48.3209640" lon="-1.9482080"><ele></ele><time>2017-12-16T0:20:12Z</time></trkpt>
<trkpt lat="48.3209900" lon="-1.9481340"><ele></ele><time>2017-12-16T0:20:15Z</time></trkpt>
<trkpt lat="48.3210150" lon="-1.9480610"><ele></ele><time>2017-12-16T0:20:18Z</time></trkpt>
<trkpt lat="48.3210450" lon="-1.9479880"><ele></ele><time>2017-12-16T0:20:21Z</time></trkpt>
<trkpt lat="48.3210760" lon="-1.9479200"><ele></ele><time>2017-12-16T0:20:24Z</time></trkpt>
<trkpt lat="48.3211060" lon="-1.9478610"><ele></ele><time>2017-12-16T0:20:27Z</time></trkpt>
<trkpt lat="48.3211440" lon="-1.9478060"><ele></ele><time>2017-12-16T0:20:30Z</time></trkpt>
<trkpt lat="48.3211820" lon="-1.9477470"><ele></ele><time>2017-12-16T0:20:33Z</time></trkpt>
<trkpt lat="48.3212180" lon="-1.9476800"><ele></ele><time>2017-12-16T0:20:36Z</time></trkpt>
<trkpt lat="48.3212490" lon="-1.9476110"><ele></ele><time>2017-12-16T0:20:39Z</time></trkpt>
<trkpt lat="48.3212810" lon="-1.9475430"><ele></ele><time>2017-12-16T0:20:42Z</time></trkpt>
<trkpt lat="48.3213100" lon="-1.9474770"><ele></ele><time>2017-12-16T0:20:45Z</time></trkpt>
<trkpt lat="48.3213370" lon="-1.9474080"><ele></ele><time>2017-12-16T0:20:48Z</time></trkpt>
<trkpt lat="48.3213670" lon="-1.9473420"><ele></ele><time>2017-12-16T0:20:51Z</time></trkpt>
<trkpt lat="48.3213950" lon="-1.9472760"><ele></ele><time>2017-12-16T0:20:54Z</time></trkpt>
<trkpt lat="48.3214220" lon="-1.9472130"><ele></ele><time>2017-12-16T0:20:57Z</time></trkpt>
<trkpt lat="48.3214520" lon="-1.9471460"><ele></ele><time>2017-12-16T0:21:0Z</time></trkpt>
<trkpt lat="48.3214790" lon="-1.9470750"><ele></ele><time>2017-12-16T0:21:3Z</time></trkpt>
<trkpt lat="48.3215110" lon="-1.9470030"><ele></ele><time>2017-12-16T0:21:6Z</time></trkpt>
<trkpt lat="48.3215420" lon="-1.9469320"><ele></ele><time>2017-12-16T0:21:9Z</time></trkpt>
<trkpt lat="48.3215750" lon="-1.9468610"><ele></ele><time>2017-12-16T0:21:12Z</time></trkpt>
<trkpt lat="48.3216060" lon="-1.9467890"><ele></ele><time>2017-12-16T0:21:15Z</time></trkpt>
<trkpt lat="48.3216370" lon="-1.9467180"><ele></ele><time>2017-12-16T0:21:18Z</time></trkpt>
<trkpt lat="48.3216690" lon="-1.9466460"><ele></ele><time>2017-12-16T0:21:21Z</time></trkpt>
<trkpt lat="48.3217000" lon="-1.9465780"><ele></ele><time>2017-12-16T0:21:24Z</time></trkpt>
<trkpt lat="48.3217310" lon="-1.9465090"><ele></ele><time>2017-12-16T0:21:27Z</time></trkpt>
<trkpt lat="48.3217640" lon="-1.9464390"><ele></ele><time>2017-12-16T0:21:30Z</time></trkpt>
<trkpt lat="48.3217930" lon="-1.9463670"><ele></ele><time>2017-12-16T0:21:33Z</time></trkpt>
<trkpt lat="48.3218250" lon="-1.9462950"><ele></ele><time>2017-12-16T0:21:36Z</time></trkpt>
<trkpt lat="48.3218540" lon="-1.9462230"><ele></ele><time>2017-12-16T0:21:39Z</time></trkpt>
<trkpt lat="48.3218810" lon="-1.9461430"><ele></ele><time>2017-12-16T0:21:42Z</time></trkpt>
<trkpt lat="48.3219140" lon="-1.9460620"><ele></ele><time>2017-12-16T0:21:45Z</time></trkpt>
<trkpt lat="48.3219420" lon="-1.9459780"><ele></ele><time>2017-12-16T0:21:48Z</time></trkpt>
<trkpt lat="48.3219700" lon="-1.9458950"><ele></ele><time>2017-12-16T0:21:51Z</time></trkpt>
<trkpt lat="48.3220000" lon="-1.9458130"><ele></ele><time>2017-12-16T0:21:54Z</time></trkpt>
<trkpt lat="48.3220320" lon="-1.9457320"><ele></ele><time>2017-12-16T0:21:57Z</time></trkpt>
<trkpt lat="48.3220620" lon="-1.9456580"><ele></ele><time>2017-12-16T0:22:0Z</time></trkpt>
<trkpt lat="48.3220980" lon="-1.9455880"><ele></ele><time>2017-12-16T0:22:3Z</time></trkpt>
<trkpt lat="48.3221370" lon="-1.9455200"><ele></ele><time>2017-12-16T0:22:6Z</time></trkpt>
<trkpt lat="48.3221730" lon="-1.9454520"><ele></ele><time>2017-12-16T0:22:9Z</time></trkpt>
<trkpt lat="48.3222080" lon="-1.9453860"><ele></ele><time>2017-12-16T0:22:12Z</time></trkpt>
<trkpt lat="48.3222450" lon="-1.9453150"><ele></ele><time>2017-12-16T0:22:15Z</time></trkpt>
<trkpt lat="48.3222800" lon="-1.9452480"><ele></ele><time>2017-12-16T0:22:18Z</time></trkpt>
<trkpt lat="48.3223070" lon="-1.9451790"><ele></ele><time>2017-12-16T0:22:21Z</time></trkpt>
<trkpt lat="48.3223310" lon="-1.9451080"><ele></ele><time>2017-12-16T0:22:24Z</time></trkpt>
<trkpt lat="48.3223580" lon="-1.9450360"><ele></ele><time>2017-12-16T0:22:27Z</time></trkpt>
<trkpt lat="48.3223840" lon="-1.9449650"><ele></ele><time>2017-12-16T0:22:30Z</time></trkpt>
<trkpt lat="48.3224080" lon="-1.9448920"><ele></ele><time>2017-12-16T0:22:33Z</time></trkpt>
<trkpt lat="48.3224340" lon="-1.9448270"><ele></ele><time>2017-12-16T0:22:36Z</time></trkpt>
<trkpt lat="48.3224610" lon="-1.9447620"><ele></ele><time>2017-12-16T0:22:39Z</time></trkpt>
<trkpt lat="48.3224860" lon="-1.9446900"><ele></ele><time>2017-12-16T0:22:42Z</time></trkpt>
<trkpt lat="48.3225110" lon="-1.9446140"><ele></ele><time>2017-12-16T0:22:45Z</time></trkpt>
<trkpt lat="48.3225310" lon="-1.9445440"><ele></ele><time>2017-12-16T0:22:48Z</time></trkpt>
<trkpt lat="48.3225570" lon="-1.9444760"><ele></ele><time>2017-12-16T0:22:51Z</time></trkpt>
<trkpt lat="48.3225710" lon="-1.9443990"><ele></ele><time>2017-12-16T0:22:54Z</time></trkpt>
<trkpt lat="48.3225870" lon="-1.9443250"><ele></ele><time>2017-12-16T0:22:57Z</time></trkpt>
<trkpt lat="48.3226010" lon="-1.9442510"><ele></ele><time>2017-12-16T0:23:0Z</time></trkpt>
<trkpt lat="48.3226230" lon="-1.9441760"><ele></ele><time>2017-12-16T0:23:3Z</time></trkpt>
<trkpt lat="48.3226420" lon="-1.9440970"><ele></ele><time>2017-12-16T0:23:6Z</time></trkpt>
<trkpt lat="48.3226620" lon="-1.9440190"><ele></ele><time>2017-12-16T0:23:9Z</time></trkpt>
<trkpt lat="48.3226930" lon="-1.9439400"><ele></ele><time>2017-12-16T0:23:12Z</time></trkpt>
<trkpt lat="48.3227260" lon="-1.9438740"><ele></ele><time>2017-12-16T0:23:15Z</time></trkpt>
<trkpt lat="48.3227600" lon="-1.9438130"><ele></ele><time>2017-12-16T0:23:18Z</time></trkpt>
<trkpt lat="48.3228000" lon="-1.9437520"><ele></ele><time>2017-12-16T0:23:21Z</time></trkpt>
<trkpt lat="48.3228430" lon="-1.9436970"><ele></ele><time>2017-12-16T0:23:24Z</time></trkpt>
<trkpt lat="48.3228850" lon="-1.9436500"><ele></ele><time>2017-12-16T0:23:27Z</time></trkpt>
<trkpt lat="48.3229270" lon="-1.9436070"><ele></ele><time>2017-12-16T0:23:30Z</time></trkpt>
<trkpt lat="48.3229740" lon="-1.9435710"><ele></ele><time>2017-12-16T0:23:33Z</time></trkpt>
<trkpt lat="48.3230250" lon="-1.9435360"><ele></ele><time>2017-12-16T0:23:36Z</time></trkpt>
<trkpt lat="48.3230700" lon="-1.9435050"><ele></ele><time>2017-12-16T0:23:39Z</time></trkpt>
<trkpt lat="48.3231180" lon="-1.9434770"><ele></ele><time>2017-12-16T0:23:42Z</time></trkpt>
<trkpt lat="48.3231610" lon="-1.9434470"><ele></ele><time>2017-12-16T0:23:45Z</time></trkpt>
<trkpt lat="48.3232080" lon="-1.9434060"><ele></ele><time>2017-12-16T0:23:48Z</time></trkpt>
<trkpt lat="48.3232520" lon="-1.9433680"><ele></ele><time>2017-12-16T0:23:51Z</time></trkpt>
<trkpt lat="48.3232990" lon="-1.9433260"><ele></ele><time>2017-12-16T0:23:54Z</time></trkpt>
<trkpt lat="48.3233490" lon="-1.9432930"><ele></ele><time>2017-12-16T0:23:57Z</time></trkpt>
<trkpt lat="48.3234030" lon="-1.9432640"><ele></ele><time>2017-12-16T0:24:0Z</time></trkpt>
<trkpt lat="48.3234520" lon="-1.9432320"><ele></ele><time>2017-12-16T0:24:3Z</time></trkpt>
<trkpt lat="48.3235010" lon="-1.9432010"><ele></ele><time>2017-12-16T0:24:6Z</time></trkpt>
<trkpt lat="48.3235550" lon="-1.9431650"><ele></ele><time>2017-12-16T0:24:9Z</time></trkpt>
<trkpt lat="48.3235970" lon="-1.9431260"><ele></ele><time>2017-12-16T0:24:12Z</time></trkpt>
<trkpt lat="48.3236380" lon="-1.9430890"><ele></ele><time>2017-12-16T0:24:15Z</time></trkpt>
<trkpt lat="48.3236800" lon="-1.9430510"><ele></ele><time>2017-12-16T0:24:18Z</time></trkpt>
<trkpt lat="48.3237240" lon="-1.9430180"><ele></ele><time>2017-12-16T0:24:21Z</time></trkpt>
<trkpt lat="48.3237690" lon="-1.9429820"><ele></ele><time>2017-12-16T0:24:24Z</time></trkpt>
<trkpt lat="48.3238130" lon="-1.9429450"><ele></ele><time>2017-12-16T0:24:27Z</time></trkpt>
<trkpt lat="48.3238600" lon="-1.9429130"><ele></ele><time>2017-12-16T0:24:30Z</time></trkpt>
<trkpt lat="48.3239050" lon="-1.9428800"><ele></ele><time>2017-12-16T0:24:33Z</time></trkpt>
<trkpt lat="48.3239490" lon="-1.9428480"><ele></ele><time>2017-12-16T0:24:36Z</time></trkpt>
<trkpt lat="48.3239940" lon="-1.9428130"><ele></ele><time>2017-12-16T0:24:39Z</time></trkpt>
<trkpt lat="48.3240370" lon="-1.9427690"><ele></ele><time>2017-12-16T0:24:42Z</time></trkpt>
<trkpt lat="48.3240760" lon="-1.9427250"><ele></ele><time>2017-12-16T0:24:45Z</time></trkpt>
<trkpt lat="48.3241190" lon="-1.9426860"><ele></ele><time>2017-12-16T0:24:48Z</time></trkpt>
<trkpt lat="48.3241610" lon="-1.9426540"><ele></ele><time>2017-12-16T0:24:51Z</time></trkpt>
<trkpt lat="48.3241980" lon="-1.9426210"><ele></ele><time>2017-12-16T0:24:54Z</time></trkpt>
<trkpt lat="48.3242280" lon="-1.9425770"><ele></ele><time>2017-12-16T0:24:57Z</time></trkpt>
<trkpt lat="48.3242600" lon="-1.9425390"><ele></ele><time>2017-12-16T0:25:0Z</time></trkpt>
<trkpt lat="48.3242940" lon="-1.9425010"><ele></ele><time>2017-12-16T0:25:3Z</time></trkpt>
<trkpt lat="48.3243280" lon="-1.9424630"><ele></ele><time>2017-12-16T0:25:6Z</time></trkpt>
<trkpt lat="48.3243630" lon="-1.9424270"><ele></ele><time>2017-12-16T0:25:9Z</time></trkpt>
<trkpt lat="48.3243970" lon="-1.9423820"><ele></ele><time>2017-12-16T0:25:12Z</time></trkpt>
<trkpt lat="48.3244290" lon="-1.9423380"><ele></ele><time>2017-12-16T0:25:15Z</time></trkpt>
<trkpt lat="48.3244650" lon="-1.9423000"><ele></ele><time>2017-12-16T0:25:18Z</time></trkpt>
<trkpt lat="48.3245040" lon="-1.9422710"><ele></ele><time>2017-12-16T0:25:21Z</time></trkpt>
<trkpt lat="48.3245460" lon="-1.9422500"><ele></ele><time>2017-12-16T0:25:24Z</time></trkpt>
<trkpt lat="48.3245840" lon="-1.9422380"><ele></ele><time>2017-12-16T0:25:27Z</time></trkpt>
<trkpt lat="48.3246290" lon="-1.9422270"><ele></ele><time>2017-12-16T0:25:30Z</time></trkpt>
<trkpt lat="48.3246820" lon="-1.9422160"><ele></ele><time>2017-12-16T0:25:33Z</time></trkpt>
<trkpt lat="48.3247340" lon="-1.9422010"><ele></ele><time>2017-12-16T0:25:36Z</time></trkpt>
<trkpt lat="48.3247840" lon="-1.9421780"><ele></ele><time>2017-12-16T0:25:39Z</time></trkpt>
<trkpt lat="48.3248370" lon="-1.9421520"><ele></ele><time>2017-12-16T0:25:42Z</time></trkpt>
<trkpt lat="48.3248910" lon="-1.9421290"><ele></ele><time>2017-12-16T0:25:45Z</time></trkpt>
<trkpt lat="48.3249440" lon="-1.9421040"><ele></ele><time>2017-12-16T0:25:48Z</time></trkpt>
<trkpt lat="48.3249940" lon="-1.9420740"><ele></ele><time>2017-12-16T0:25:51Z</time></trkpt>
<trkpt lat="48.3250430" lon="-1.9420420"><ele></ele><time>2017-12-16T0:25:54Z</time></trkpt>
<trkpt lat="48.3250930" lon="-1.9420030"><ele></ele><time>2017-12-16T0:25:57Z</time></trkpt>
<trkpt lat="48.3251420" lon="-1.9419630"><ele></ele><time>2017-12-16T0:26:0Z</time></trkpt>
<trkpt lat="48.3251970" lon="-1.9419230"><ele></ele><time>2017-12-16T0:26:3Z</time></trkpt>
<trkpt lat="48.3252500" lon="-1.9418840"><ele></ele><time>2017-12-16T0:26:6Z</time></trkpt>
<trkpt lat="48.3252970" lon="-1.9418460"><ele></ele><time>2017-12-16T0:26:9Z</time></trkpt>
<trkpt lat="48.3253440" lon="-1.9418060"><ele></ele><time>2017-12-16T0:26:12Z</time></trkpt>
<trkpt lat="48.3253870" lon="-1.9417660"><ele></ele><time>2017-12-16T0:26:15Z</time></trkpt>
<trkpt lat="48.3254340" lon="-1.9417350"><ele></ele><time>2017-12-16T0:26:18Z</time></trkpt>
<trkpt lat="48.3254870" lon="-1.9417110"><ele></ele><time>2017-12-16T0:26:21Z</time></trkpt>
<trkpt lat="48.3255400" lon="-1.9416790"><ele></ele><time>2017-12-16T0:26:24Z</time></trkpt>
<trkpt lat="48.3255950" lon="-1.9416470"><ele></ele><time>2017-12-16T0:26:27Z</time></trkpt>
<trkpt lat="48.3256540" lon="-1.9416150"><ele></ele><time>2017-12-16T0:26:30Z</time></trkpt>
<trkpt lat="48.3257150" lon="-1.9415910"><ele></ele><time>2017-12-16T0:26:33Z</time></trkpt>
<trkpt lat="48.3257750" lon="-1.9415660"><ele></ele><time>2017-12-16T0:26:36Z</time></trkpt>
<trkpt lat="48.3258300" lon="-1.9415430"><ele></ele><time>2017-12-16T0:26:39Z</time></trkpt>
<trkpt lat="48.3258870" lon="-1.9415230"><ele></ele><time>2017-12-16T0:26:42Z</time></trkpt>
<trkpt lat="48.3259410" lon="-1.9415110"><ele></ele><time>2017-12-16T0:26:45Z</time></trkpt>
<trkpt lat="48.3259930" lon="-1.9415010"><ele></ele><time>2017-12-16T0:26:48Z</time></trkpt>
<trkpt lat="48.3260350" lon="-1.9414900"><ele></ele><time>2017-12-16T0:26:51Z</time></trkpt>
<trkpt lat="48.3260700" lon="-1.9414820"><ele></ele><time>2017-12-16T0:26:54Z</time></trkpt>
<trkpt lat="48.3260980" lon="-1.9414700"><ele></ele><time>2017-12-16T0:26:57Z</time></trkpt>
<trkpt lat="48.3261330" lon="-1.9414490"><ele></ele><time>2017-12-16T0:27:0Z</time></trkpt>
<trkpt lat="48.3261700" lon="-1.9414340"><ele></ele><time>2017-12-16T0:27:3Z</time></trkpt>
<trkpt lat="48.3262160" lon="-1.9414210"><ele></ele><time>2017-12-16T0:27:6Z</time></trkpt>
<trkpt lat="48.3262690" lon="-1.9414080"><ele></ele><time>2017-12-16T0:27:9Z</time></trkpt>
<trkpt lat="48.3263250" lon="-1.9413820"><ele></ele><time>2017-12-16T0:27:12Z</time></trkpt>
<trkpt lat="48.3263820" lon="-1.9413520"><ele></ele><time>2017-12-16T0:27:15Z</time></trkpt>
<trkpt lat="48.3264410" lon="-1.9413220"><ele></ele><time>2017-12-16T0:27:18Z</time></trkpt>
<trkpt lat="48.3264920" lon="-1.9412940"><ele></ele><time>2017-12-16T0:27:21Z</time></trkpt>
<trkpt lat="48.3265540" lon="-1.9412760"><ele></ele><time>2017-12-16T0:27:24Z</time></trkpt>
<trkpt lat="48.3266140" lon="-1.9412600"><ele></ele><time>2017-12-16T0:27:27Z</time></trkpt>
<trkpt lat="48.3266780" lon="-1.9412330"><ele></ele><time>2017-12-16T0:27:30Z</time></trkpt>
<trkpt lat="48.3267420" lon="-1.9412160"><ele></ele><time>2017-12-16T0:27:33Z</time></trkpt>
<trkpt lat="48.3268020" lon="-1.9411950"><ele></ele><time>2017-12-16T0:27:36Z</time></trkpt>
<trkpt lat="48.3268620" lon="-1.9411770"><ele></ele><time>2017-12-16T0:27:39Z</time></trkpt>
<trkpt lat="48.3269230" lon="-1.9411650"><ele></ele><time>2017-12-16T0:27:42Z</time></trkpt>
<trkpt lat="48.3269870" lon="-1.9411500"><ele></ele><time>2017-12-16T0:27:45Z</time></trkpt>
<trkpt lat="48.3270490" lon="-1.9411350"><ele></ele><time>2017-12-16T0:27:48Z</time></trkpt>
<trkpt lat="48.3271090" lon="-1.9411120"><ele></ele><time>2017-12-16T0:27:51Z</time></trkpt>
<trkpt lat="48.3271640" lon="-1.9410730"><ele></ele><time>2017-12-16T0:27:54Z</time></trkpt>
<trkpt lat="48.3272180" lon="-1.9410220"><ele></ele><time>2017-12-16T0:27:57Z</time></trkpt>
<trkpt lat="48.3272700" lon="-1.9409710"><ele></ele><time>2017-12-16T0:28:0Z</time></trkpt>
<trkpt lat="48.3273170" lon="-1.9409120"><ele></ele><time>2017-12-16T0:28:3Z</time></trkpt>
<trkpt lat="48.3273610" lon="-1.9408580"><ele></ele><time>2017-12-16T0:28:6Z</time></trkpt>
<trkpt lat="48.3274070" lon="-1.9408030"><ele></ele><time>2017-12-16T0:28:9Z</time></trkpt>
<trkpt lat="48.3274560" lon="-1.9407530"><ele></ele><time>2017-12-16T0:28:12Z</time></trkpt>
<trkpt lat="48.3275140" lon="-1.9407180"><ele></ele><time>2017-12-16T0:28:15Z</time></trkpt>
<trkpt lat="48.3275680" lon="-1.9406900"><ele></ele><time>2017-12-16T0:28:18Z</time></trkpt>
<trkpt lat="48.3276340" lon="-1.9406830"><ele></ele><time>2017-12-16T0:28:21Z</time></trkpt>
<trkpt lat="48.3276980" lon="-1.9406770"><ele></ele><time>2017-12-16T0:28:24Z</time></trkpt>
<trkpt lat="48.3277590" lon="-1.9406760"><ele></ele><time>2017-12-16T0:28:27Z</time></trkpt>
<trkpt lat="48.3278230" lon="-1.9406670"><ele></ele><time>2017-12-16T0:28:30Z</time></trkpt>
<trkpt lat="48.3278790" lon="-1.9406450"><ele></ele><time>2017-12-16T0:28:33Z</time></trkpt>
<trkpt lat="48.3279310" lon="-1.9406100"><ele></ele><time>2017-12-16T0:28:36Z</time></trkpt>
<trkpt lat="48.3279770" lon="-1.9405590"><ele></ele><time>2017-12-16T0:28:39Z</time></trkpt>
<trkpt lat="48.3280200" lon="-1.9405070"><ele></ele><time>2017-12-16T0:28:42Z</time></trkpt>
<trkpt lat="48.3280620" lon="-1.9404410"><ele></ele><time>2017-12-16T0:28:45Z</time></trkpt>
<trkpt lat="48.3281020" lon="-1.9403850"><ele></ele><time>2017-12-16T0:28:48Z</time></trkpt>
<trkpt lat="48.3281480" lon="-1.9403370"><ele></ele><time>2017-12-16T0:28:51Z</time></trkpt>
<trkpt lat="48.3282010" lon="-1.9402860"><ele></ele><time>2017-12-16T0:28:54Z</time></trkpt>
<trkpt lat="48.3282480" lon="-1.9402280"><ele></ele><time>2017-12-16T0:28:57Z</time></trkpt>
<trkpt lat="48.3283020" lon="-1.9401860"><ele></ele><time>2017-12-16T0:29:0Z</time></trkpt>
<trkpt lat="48.3283550" lon="-1.9401420"><ele></ele><time>2017-12-16T0:29:3Z</time></trkpt>
<trkpt lat="48.3284090" lon="-1.9400910"><ele></ele><time>2017-12-16T0:29:6Z</time></trkpt>
<trkpt lat="48.3284730" lon="-1.9400580"><ele></ele><time>2017-12-16T0:29:9Z</time></trkpt>
<trkpt lat="48.3285250" lon="-1.9400270"><ele></ele><time>2017-12-16T0:29:12Z</time></trkpt>
<trkpt lat="48.3285790" lon="-1.9399870"><ele></ele><time>2017-12-16T0:29:15Z</time></trkpt>
<trkpt lat="48.3286430" lon="-1.9399580"><ele></ele><time>2017-12-16T0:29:18Z</time></trkpt>
<trkpt lat="48.3287060" lon="-1.9399250"><ele></ele><time>2017-12-16T0:29:21Z</time></trkpt>
<trkpt lat="48.3287680" lon="-1.9398950"><ele></ele><time>2017-12-16T0:29:24Z</time></trkpt>
<trkpt lat="48.3288330" lon="-1.9398640"><ele></ele><time>2017-12-16T0:29:27Z</time></trkpt>
<trkpt lat="48.3288980" lon="-1.9398340"><ele></ele><time>2017-12-16T0:29:30Z</time></trkpt>
<trkpt lat="48.3289640" lon="-1.9398120"><ele></ele><time>2017-12-16T0:29:33Z</time></trkpt>
<trkpt lat="48.3290260" lon="-1.9397920"><ele></ele><time>2017-12-16T0:29:36Z</time></trkpt>
<trkpt lat="48.3290910" lon="-1.9397720"><ele></ele><time>2017-12-16T0:29:39Z</time></trkpt>
<trkpt lat="48.3291520" lon="-1.9397540"><ele></ele><time>2017-12-16T0:29:42Z</time></trkpt>
<trkpt lat="48.3292210" lon="-1.9397370"><ele></ele><time>2017-12-16T0:29:45Z</time></trkpt>
<trkpt lat="48.3292820" lon="-1.9397250"><ele></ele><time>2017-12-16T0:29:48Z</time></trkpt>
<trkpt lat="48.3293490" lon="-1.9397030"><ele></ele><time>2017-12-16T0:29:51Z</time></trkpt>
<trkpt lat="48.3294070" lon="-1.9396940"><ele></ele><time>2017-12-16T0:29:54Z</time></trkpt>
<trkpt lat="48.3294670" lon="-1.9396560"><ele></ele><time>2017-12-16T0:29:57Z</time></trkpt>
<trkpt lat="48.3295190" lon="-1.9396170"><ele></ele><time>2017-12-16T0:30:0Z</time></trkpt>
<trkpt lat="48.3295710" lon="-1.9395760"><ele></ele><time>2017-12-16T0:30:3Z</time></trkpt>
<trkpt lat="48.3296140" lon="-1.9395340"><ele></ele><time>2017-12-16T0:30:6Z</time></trkpt>
<trkpt lat="48.3296660" lon="-1.9395010"><ele></ele><time>2017-12-16T0:30:9Z</time></trkpt>
<trkpt lat="48.3297170" lon="-1.9394720"><ele></ele><time>2017-12-16T0:30:12Z</time></trkpt>
<trkpt lat="48.3297620" lon="-1.9394400"><ele></ele><time>2017-12-16T0:30:15Z</time></trkpt>
<trkpt lat="48.3298120" lon="-1.9394090"><ele></ele><time>2017-12-16T0:30:18Z</time></trkpt>
<trkpt lat="48.3298620" lon="-1.9393800"><ele></ele><time>2017-12-16T0:30:21Z</time></trkpt>
<trkpt lat="48.3299090" lon="-1.9393510"><ele></ele><time>2017-12-16T0:30:24Z</time></trkpt>
<trkpt lat="48.3299590" lon="-1.9393220"><ele></ele><time>2017-12-16T0:30:27Z</time></trkpt>
<trkpt lat="48.3300100" lon="-1.9392940"><ele></ele><time>2017-12-16T0:30:30Z</time></trkpt>
<trkpt lat="48.3300580" lon="-1.9392680"><ele></ele><time>2017-12-16T0:30:33Z</time></trkpt>
<trkpt lat="48.3301130" lon="-1.9392470"><ele></ele><time>2017-12-16T0:30:36Z</time></trkpt>
<trkpt lat="48.3301680" lon="-1.9392310"><ele></ele><time>2017-12-16T0:30:39Z</time></trkpt>
<trkpt lat="48.3302190" lon="-1.9392180"><ele></ele><time>2017-12-16T0:30:42Z</time></trkpt>
<trkpt lat="48.3302700" lon="-1.9392110"><ele></ele><time>2017-12-16T0:30:45Z</time></trkpt>
<trkpt lat="48.3303270" lon="-1.9391990"><ele></ele><time>2017-12-16T0:30:48Z</time></trkpt>
<trkpt lat="48.3303790" lon="-1.9391840"><ele></ele><time>2017-12-16T0:30:51Z</time></trkpt>
<trkpt lat="48.3304270" lon="-1.9391720"><ele></ele><time>2017-12-16T0:30:54Z</time></trkpt>
<trkpt lat="48.3304790" lon="-1.9391630"><ele></ele><time>2017-12-16T0:30:57Z</time></trkpt>
<trkpt lat="48.3305290" lon="-1.9391500"><ele></ele><time>2017-12-16T0:31:0Z</time></trkpt>
<trkpt lat="48.3305780" lon="-1.9391360"><ele></ele><time>2017-12-16T0:31:3Z</time></trkpt>
<trkpt lat="48.3306270" lon="-1.9391210"><ele></ele><time>2017-12-16T0:31:6Z</time></trkpt>
<trkpt lat="48.3306770" lon="-1.9391050"><ele></ele><time>2017-12-16T0:31:9Z</time></trkpt>
<trkpt lat="48.3307250" lon="-1.9390890"><ele></ele><time>2017-12-16T0:31:12Z</time></trkpt>
<trkpt lat="48.3307750" lon="-1.9390770"><ele></ele><time>2017-12-16T0:31:15Z</time></trkpt>
<trkpt lat="48.3308250" lon="-1.9390640"><ele></ele><time>2017-12-16T0:31:18Z</time></trkpt>
<trkpt lat="48.3308750" lon="-1.9390510"><ele></ele><time>2017-12-16T0:31:21Z</time></trkpt>
<trkpt lat="48.3309220" lon="-1.9390440"><ele></ele><time>2017-12-16T0:31:24Z</time></trkpt>
<trkpt lat="48.3309690" lon="-1.9390450"><ele></ele><time>2017-12-16T0:31:27Z</time></trkpt>
<trkpt lat="48.3310230" lon="-1.9390330"><ele></ele><time>2017-12-16T0:31:30Z</time></trkpt>
<trkpt lat="48.3310610" lon="-1.9390840"><ele></ele><time>2017-12-16T0:31:33Z</time></trkpt>
<trkpt lat="48.3310970" lon="-1.9391260"><ele></ele><time>2017-12-16T0:31:36Z</time></trkpt>
<trkpt lat="48.3311360" lon="-1.9391620"><ele></ele><time>2017-12-16T0:31:39Z</time></trkpt>
<trkpt lat="48.3311820" lon="-1.9391740"><ele></ele><time>2017-12-16T0:31:42Z</time></trkpt>
<trkpt lat="48.3312300" lon="-1.9391720"><ele></ele><time>2017-12-16T0:31:45Z</time></trkpt>
<trkpt lat="48.3312730" lon="-1.9391580"><ele></ele><time>2017-12-16T0:31:48Z</time></trkpt>
<trkpt lat="48.3313120" lon="-1.9391370"><ele></ele><time>2017-12-16T0:31:51Z</time></trkpt>
<trkpt lat="48.3313520" lon="-1.9391170"><ele></ele><time>2017-12-16T0:31:54Z</time></trkpt>
<trkpt lat="48.3313870" lon="-1.9390960"><ele></ele><time>2017-12-16T0:31:57Z</time></trkpt>
<trkpt lat="48.3314210" lon="-1.9390800"><ele></ele><time>2017-12-16T0:32:0Z</time></trkpt>
<trkpt lat="48.3314550" lon="-1.9390560"><ele></ele><time>2017-12-16T0:32:3Z</time></trkpt>
<trkpt lat="48.3314880" lon="-1.9390230"><ele></ele><time>2017-12-16T0:32:6Z</time></trkpt>
<trkpt lat="48.3315240" lon="-1.9389960"><ele></ele><time>2017-12-16T0:32:9Z</time></trkpt>
<trkpt lat="48.3315640" lon="-1.9389710"><ele></ele><time>2017-12-16T0:32:12Z</time></trkpt>
<trkpt lat="48.3316080" lon="-1.9389430"><ele></ele><time>2017-12-16T0:32:15Z</time></trkpt>
<trkpt lat="48.3316500" lon="-1.9389140"><ele></ele><time>2017-12-16T0:32:18Z</time></trkpt>
<trkpt lat="48.3316960" lon="-1.9388870"><ele></ele><time>2017-12-16T0:32:21Z</time></trkpt>
<trkpt lat="48.3317450" lon="-1.9388610"><ele></ele><time>2017-12-16T0:32:24Z</time></trkpt>
<trkpt lat="48.3317970" lon="-1.9388350"><ele></ele><time>2017-12-16T0:32:27Z</time></trkpt>
<trkpt lat="48.3318450" lon="-1.9388060"><ele></ele><time>2017-12-16T0:32:30Z</time></trkpt>
<trkpt lat="48.3318930" lon="-1.9387790"><ele></ele><time>2017-12-16T0:32:33Z</time></trkpt>
<trkpt lat="48.3319430" lon="-1.9387530"><ele></ele><time>2017-12-16T0:32:36Z</time></trkpt>
<trkpt lat="48.3319910" lon="-1.9387290"><ele></ele><time>2017-12-16T0:32:39Z</time></trkpt>
<trkpt lat="48.3320420" lon="-1.9387060"><ele></ele><time>2017-12-16T0:32:42Z</time></trkpt>
<trkpt lat="48.3320930" lon="-1.9386850"><ele></ele><time>2017-12-16T0:32:45Z</time></trkpt>
<trkpt lat="48.3321420" lon="-1.9386590"><ele></ele><time>2017-12-16T0:32:48Z</time></trkpt>
<trkpt lat="48.3321960" lon="-1.9386430"><ele></ele><time>2017-12-16T0:32:51Z</time></trkpt>
<trkpt lat="48.3322460" lon="-1.9386230"><ele></ele><time>2017-12-16T0:32:54Z</time></trkpt>
<trkpt lat="48.3322950" lon="-1.9386040"><ele></ele><time>2017-12-16T0:32:57Z</time></trkpt>
<trkpt lat="48.3323480" lon="-1.9385870"><ele></ele><time>2017-12-16T0:33:0Z</time></trkpt>
<trkpt lat="48.3324020" lon="-1.9385730"><ele></ele><time>2017-12-16T0:33:3Z</time></trkpt>
<trkpt lat="48.3324590" lon="-1.9385590"><ele></ele><time>2017-12-16T0:33:6Z</time></trkpt>
<trkpt lat="48.3325140" lon="-1.9385490"><ele></ele><time>2017-12-16T0:33:9Z</time></trkpt>
<trkpt lat="48.3325650" lon="-1.9385370"><ele></ele><time>2017-12-16T0:33:12Z</time></trkpt>
<trkpt lat="48.3326190" lon="-1.9385200"><ele></ele><time>2017-12-16T0:33:15Z</time></trkpt>
<trkpt lat="48.3326680" lon="-1.9385070"><ele></ele><time>2017-12-16T0:33:18Z</time></trkpt>
<trkpt lat="48.3327200" lon="-1.9384930"><ele></ele><time>2017-12-16T0:33:21Z</time></trkpt>
<trkpt lat="48.3327730" lon="-1.9384780"><ele></ele><time>2017-12-16T0:33:24Z</time></trkpt>
<trkpt lat="48.3328240" lon="-1.9384600"><ele></ele><time>2017-12-16T0:33:27Z</time></trkpt>
<trkpt lat="48.3328790" lon="-1.9384520"><ele></ele><time>2017-12-16T0:33:30Z</time></trkpt>
<trkpt lat="48.3329310" lon="-1.9384380"><ele></ele><time>2017-12-16T0:33:33Z</time></trkpt>
<trkpt lat="48.3329840" lon="-1.9384210"><ele></ele><time>2017-12-16T0:33:36Z</time></trkpt>
<trkpt lat="48.3330370" lon="-1.9384040"><ele></ele><time>2017-12-16T0:33:39Z</time></trkpt>
<trkpt lat="48.3330870" lon="-1.9383790"><ele></ele><time>2017-12-16T0:33:42Z</time></trkpt>
<trkpt lat="48.3331390" lon="-1.9383510"><ele></ele><time>2017-12-16T0:33:45Z</time></trkpt>
<trkpt lat="48.3331890" lon="-1.9383230"><ele></ele><time>2017-12-16T0:33:48Z</time></trkpt>
<trkpt lat="48.3332400" lon="-1.9382920"><ele></ele><time>2017-12-16T0:33:51Z</time></trkpt>
<trkpt lat="48.3332910" lon="-1.9382630"><ele></ele><time>2017-12-16T0:33:54Z</time></trkpt>
<trkpt lat="48.3333390" lon="-1.9382270"><ele></ele><time>2017-12-16T0:33:57Z</time></trkpt>
<trkpt lat="48.3333890" lon="-1.9381860"><ele></ele><time>2017-12-16T0:34:0Z</time></trkpt>
<trkpt lat="48.3334360" lon="-1.9381450"><ele></ele><time>2017-12-16T0:34:3Z</time></trkpt>
<trkpt lat="48.3334820" lon="-1.9381020"><ele></ele><time>2017-12-16T0:34:6Z</time></trkpt>
<trkpt lat="48.3335290" lon="-1.9380570"><ele></ele><time>2017-12-16T0:34:9Z</time></trkpt>
<trkpt lat="48.3335760" lon="-1.9380110"><ele></ele><time>2017-12-16T0:34:12Z</time></trkpt>
<trkpt lat="48.3336210" lon="-1.9379620"><ele></ele><time>2017-12-16T0:34:15Z</time></trkpt>
<trkpt lat="48.3336640" lon="-1.9379110"><ele></ele><time>2017-12-16T0:34:18Z</time></trkpt>
<trkpt lat="48.3337070" lon="-1.9378630"><ele></ele><time>2017-12-16T0:34:21Z</time></trkpt>
<trkpt lat="48.3337490" lon="-1.9378120"><ele></ele><time>2017-12-16T0:34:24Z</time></trkpt>
<trkpt lat="48.3337870" lon="-1.9377500"><ele></ele><time>2017-12-16T0:34:27Z</time></trkpt>
<trkpt lat="48.3338240" lon="-1.9376870"><ele></ele><time>2017-12-16T0:34:30Z</time></trkpt>
<trkpt lat="48.3338580" lon="-1.9376240"><ele></ele><time>2017-12-16T0:34:33Z</time></trkpt>
<trkpt lat="48.3338920" lon="-1.9375570"><ele></ele><time>2017-12-16T0:34:36Z</time></trkpt>
<trkpt lat="48.3339320" lon="-1.9374940"><ele></ele><time>2017-12-16T0:34:39Z</time></trkpt>
<trkpt lat="48.3339690" lon="-1.9374340"><ele></ele><time>2017-12-16T0:34:42Z</time></trkpt>
<trkpt lat="48.3340100" lon="-1.9373770"><ele></ele><time>2017-12-16T0:34:45Z</time></trkpt>
<trkpt lat="48.3340590" lon="-1.9373340"><ele></ele><time>2017-12-16T0:34:48Z</time></trkpt>
<trkpt lat="48.3341170" lon="-1.9373090"><ele></ele><time>2017-12-16T0:34:51Z</time></trkpt>
<trkpt lat="48.3341750" lon="-1.9373030"><ele></ele><time>2017-12-16T0:34:54Z</time></trkpt>
<trkpt lat="48.3342350" lon="-1.9373110"><ele></ele><time>2017-12-16T0:34:57Z</time></trkpt>
<trkpt lat="48.3342940" lon="-1.9373260"><ele></ele><time>2017-12-16T0:35:0Z</time></trkpt>
<trkpt lat="48.3343540" lon="-1.9373480"><ele></ele><time>2017-12-16T0:35:3Z</time></trkpt>
<trkpt lat="48.3344100" lon="-1.9373610"><ele></ele><time>2017-12-16T0:35:6Z</time></trkpt>
<trkpt lat="48.3344700" lon="-1.9373690"><ele></ele><time>2017-12-16T0:35:9Z</time></trkpt>
<trkpt lat="48.3345300" lon="-1.9373590"><ele></ele><time>2017-12-16T0:35:12Z</time></trkpt>
<trkpt lat="48.3345750" lon="-1.9373030"><ele></ele><time>2017-12-16T0:35:15Z</time></trkpt>
<trkpt lat="48.3346080" lon="-1.9372310"><ele></ele><time>2017-12-16T0:35:18Z</time></trkpt>
<trkpt lat="48.3346360" lon="-1.9371520"><ele></ele><time>2017-12-16T0:35:21Z</time></trkpt>
<trkpt lat="48.3346610" lon="-1.9370740"><ele></ele><time>2017-12-16T0:35:24Z</time></trkpt>
<trkpt lat="48.3346830" lon="-1.9369950"><ele></ele><time>2017-12-16T0:35:27Z</time></trkpt>
<trkpt lat="48.3347100" lon="-1.9369170"><ele></ele><time>2017-12-16T0:35:30Z</time></trkpt>
<trkpt lat="48.3347360" lon="-1.9368440"><ele></ele><time>2017-12-16T0:35:33Z</time></trkpt>
<trkpt lat="48.3347650" lon="-1.9367700"><ele></ele><time>2017-12-16T0:35:36Z</time></trkpt>
<trkpt lat="48.3347930" lon="-1.9367010"><ele></ele><time>2017-12-16T0:35:39Z</time></trkpt>
<trkpt lat="48.3348280" lon="-1.9366620"><ele></ele><time>2017-12-16T0:35:42Z</time></trkpt>
<trkpt lat="48.3348760" lon="-1.9366700"><ele></ele><time>2017-12-16T0:35:45Z</time></trkpt>
<trkpt lat="48.3349220" lon="-1.9366980"><ele></ele><time>2017-12-16T0:35:48Z</time></trkpt>
<trkpt lat="48.3349730" lon="-1.9367240"><ele></ele><time>2017-12-16T0:35:51Z</time></trkpt>
<trkpt lat="48.3350260" lon="-1.9367420"><ele></ele><time>2017-12-16T0:35:54Z</time></trkpt>
<trkpt lat="48.3350820" lon="-1.9367540"><ele></ele><time>2017-12-16T0:35:57Z</time></trkpt>
<trkpt lat="48.3351330" lon="-1.9367930"><ele></ele><time>2017-12-16T0:36:0Z</time></trkpt>
<trkpt lat="48.3351730" lon="-1.9368530"><ele></ele><time>2017-12-16T0:36:3Z</time></trkpt>
<trkpt lat="48.3351810" lon="-1.9369200"><ele></ele><time>2017-12-16T0:36:6Z</time></trkpt>
<trkpt lat="48.3351690" lon="-1.9369990"><ele></ele><time>2017-12-16T0:36:9Z</time></trkpt>
<trkpt lat="48.3351600" lon="-1.9370630"><ele></ele><time>2017-12-16T0:36:12Z</time></trkpt>
<trkpt lat="48.3351430" lon="-1.9371240"><ele></ele><time>2017-12-16T0:36:15Z</time></trkpt>
<trkpt lat="48.3351480" lon="-1.9371810"><ele></ele><time>2017-12-16T0:36:18Z</time></trkpt>
<trkpt lat="48.3351800" lon="-1.9372100"><ele></ele><time>2017-12-16T0:36:21Z</time></trkpt>
<trkpt lat="48.3352220" lon="-1.9372080"><ele></ele><time>2017-12-16T0:36:24Z</time></trkpt>
<trkpt lat="48.3352650" lon="-1.9371960"><ele></ele><time>2017-12-16T0:36:27Z</time></trkpt>
<trkpt lat="48.3353150" lon="-1.9371820"><ele></ele><time>2017-12-16T0:36:30Z</time></trkpt>
<trkpt lat="48.3353730" lon="-1.9371760"><ele></ele><time>2017-12-16T0:36:33Z</time></trkpt>
<trkpt lat="48.3354330" lon="-1.9371660"><ele></ele><time>2017-12-16T0:36:36Z</time></trkpt>
<trkpt lat="48.3354930" lon="-1.9371480"><ele></ele><time>2017-12-16T0:36:39Z</time></trkpt>
<trkpt lat="48.3355520" lon="-1.9371220"><ele></ele><time>2017-12-16T0:36:42Z</time></trkpt>
<trkpt lat="48.3356120" lon="-1.9370950"><ele></ele><time>2017-12-16T0:36:45Z</time></trkpt>
<trkpt lat="48.3356790" lon="-1.9370650"><ele></ele><time>2017-12-16T0:36:48Z</time></trkpt>
<trkpt lat="48.3357470" lon="-1.9370400"><ele></ele><time>2017-12-16T0:36:51Z</time></trkpt>
<trkpt lat="48.3358140" lon="-1.9370160"><ele></ele><time>2017-12-16T0:36:54Z</time></trkpt>
<trkpt lat="48.3358790" lon="-1.9370000"><ele></ele><time>2017-12-16T0:36:57Z</time></trkpt>
<trkpt lat="48.3359470" lon="-1.9369700"><ele></ele><time>2017-12-16T0:37:0Z</time></trkpt>
<trkpt lat="48.3360030" lon="-1.9369300"><ele></ele><time>2017-12-16T0:37:3Z</time></trkpt>
<trkpt lat="48.3360610" lon="-1.9368880"><ele></ele><time>2017-12-16T0:37:6Z</time></trkpt>
<trkpt lat="48.3361090" lon="-1.9368390"><ele></ele><time>2017-12-16T0:37:9Z</time></trkpt>
<trkpt lat="48.3361610" lon="-1.9367850"><ele></ele><time>2017-12-16T0:37:12Z</time></trkpt>
<trkpt lat="48.3362150" lon="-1.9367540"><ele></ele><time>2017-12-16T0:37:15Z</time></trkpt>
<trkpt lat="48.3362780" lon="-1.9367590"><ele></ele><time>2017-12-16T0:37:18Z</time></trkpt>
<trkpt lat="48.3363350" lon="-1.9367790"><ele></ele><time>2017-12-16T0:37:21Z</time></trkpt>
<trkpt lat="48.3363980" lon="-1.9368200"><ele></ele><time>2017-12-16T0:37:24Z</time></trkpt>
<trkpt lat="48.3364590" lon="-1.9368260"><ele></ele><time>2017-12-16T0:37:27Z</time></trkpt>
<trkpt lat="48.3365260" lon="-1.9368340"><ele></ele><time>2017-12-16T0:37:30Z</time></trkpt>
<trkpt lat="48.3365980" lon="-1.9368480"><ele></ele><time>2017-12-16T0:37:33Z</time></trkpt>
<trkpt lat="48.3366630" lon="-1.9368410"><ele></ele><time>2017-12-16T0:37:36Z</time></trkpt>
<trkpt lat="48.3367260" lon="-1.9368360"><ele></ele><time>2017-12-16T0:37:39Z</time></trkpt>
<trkpt lat="48.3367920" lon="-1.9368310"><ele></ele><time>2017-12-16T0:37:42Z</time></trkpt>
<trkpt lat="48.3368580" lon="-1.9368270"><ele></ele><time>2017-12-16T0:37:45Z</time></trkpt>
<trkpt lat="48.3369220" lon="-1.9368270"><ele></ele><time>2017-12-16T0:37:48Z</time></trkpt>
<trkpt lat="48.3369900" lon="-1.9368240"><ele></ele><time>2017-12-16T0:37:51Z</time></trkpt>
<trkpt lat="48.3370580" lon="-1.9368280"><ele></ele><time>2017-12-16T0:37:54Z</time></trkpt>
<trkpt lat="48.3371240" lon="-1.9368310"><ele></ele><time>2017-12-16T0:37:57Z</time></trkpt>
<trkpt lat="48.3371870" lon="-1.9368360"><ele></ele><time>2017-12-16T0:38:0Z</time></trkpt>
<trkpt lat="48.3372460" lon="-1.9368400"><ele></ele><time>2017-12-16T0:38:3Z</time></trkpt>
<trkpt lat="48.3373200" lon="-1.9368450"><ele></ele><time>2017-12-16T0:38:6Z</time></trkpt>
<trkpt lat="48.3373840" lon="-1.9368550"><ele></ele><time>2017-12-16T0:38:9Z</time></trkpt>
<trkpt lat="48.3374490" lon="-1.9368710"><ele></ele><time>2017-12-16T0:38:12Z</time></trkpt>
<trkpt lat="48.3375180" lon="-1.9368900"><ele></ele><time>2017-12-16T0:38:15Z</time></trkpt>
<trkpt lat="48.3375720" lon="-1.9369160"><ele></ele><time>2017-12-16T0:38:18Z</time></trkpt>
<trkpt lat="48.3376280" lon="-1.9369430"><ele></ele><time>2017-12-16T0:38:21Z</time></trkpt>
<trkpt lat="48.3376920" lon="-1.9369760"><ele></ele><time>2017-12-16T0:38:24Z</time></trkpt>
<trkpt lat="48.3377510" lon="-1.9370080"><ele></ele><time>2017-12-16T0:38:27Z</time></trkpt>
<trkpt lat="48.3378250" lon="-1.9370430"><ele></ele><time>2017-12-16T0:38:30Z</time></trkpt>
<trkpt lat="48.3378920" lon="-1.9370800"><ele></ele><time>2017-12-16T0:38:33Z</time></trkpt>
<trkpt lat="48.3379560" lon="-1.9371160"><ele></ele><time>2017-12-16T0:38:36Z</time></trkpt>
<trkpt lat="48.3380190" lon="-1.9371470"><ele></ele><time>2017-12-16T0:38:39Z</time></trkpt>
<trkpt lat="48.3380900" lon="-1.9371820"><ele></ele><time>2017-12-16T0:38:42Z</time></trkpt>
<trkpt lat="48.3381570" lon="-1.9372110"><ele></ele><time>2017-12-16T0:38:45Z</time></trkpt>
<trkpt lat="48.3382290" lon="-1.9372390"><ele></ele><time>2017-12-16T0:38:48Z</time></trkpt>
<trkpt lat="48.3382970" lon="-1.9372710"><ele></ele><time>2017-12-16T0:38:51Z</time></trkpt>
<trkpt lat="48.3383660" lon="-1.9373050"><ele></ele><time>2017-12-16T0:38:54Z</time></trkpt>
<trkpt lat="48.3384290" lon="-1.9373360"><ele></ele><time>2017-12-16T0:38:57Z</time></trkpt>
<trkpt lat="48.3384960" lon="-1.9373670"><ele></ele><time>2017-12-16T0:39:0Z</time></trkpt>
<trkpt lat="48.3385610" lon="-1.9374010"><ele></ele><time>2017-12-16T0:39:3Z</time></trkpt>
<trkpt lat="48.3386230" lon="-1.9374360"><ele></ele><time>2017-12-16T0:39:6Z</time></trkpt>
<trkpt lat="48.3386830" lon="-1.9374550"><ele></ele><time>2017-12-16T0:39:9Z</time></trkpt>
<trkpt lat="48.3387320" lon="-1.9374250"><ele></ele><time>2017-12-16T0:39:12Z</time></trkpt>
<trkpt lat="48.3387700" lon="-1.9373690"><ele></ele><time>2017-12-16T0:39:15Z</time></trkpt>
<trkpt lat="48.3387940" lon="-1.9373020"><ele></ele><time>2017-12-16T0:39:18Z</time></trkpt>
<trkpt lat="48.3388200" lon="-1.9372320"><ele></ele><time>2017-12-16T0:39:21Z</time></trkpt>
<trkpt lat="48.3388390" lon="-1.9371570"><ele></ele><time>2017-12-16T0:39:24Z</time></trkpt>
<trkpt lat="48.3388620" lon="-1.9370850"><ele></ele><time>2017-12-16T0:39:27Z</time></trkpt>
<trkpt lat="48.3388880" lon="-1.9370190"><ele></ele><time>2017-12-16T0:39:30Z</time></trkpt>
<trkpt lat="48.3389090" lon="-1.9369550"><ele></ele><time>2017-12-16T0:39:33Z</time></trkpt>
<trkpt lat="48.3389300" lon="-1.9368990"><ele></ele><time>2017-12-16T0:39:36Z</time></trkpt>
<trkpt lat="48.3389580" lon="-1.9368460"><ele></ele><time>2017-12-16T0:39:39Z</time></trkpt>
<trkpt lat="48.3389820" lon="-1.9367870"><ele></ele><time>2017-12-16T0:39:42Z</time></trkpt>
<trkpt lat="48.3390110" lon="-1.9367360"><ele></ele><time>2017-12-16T0:39:45Z</time></trkpt>
<trkpt lat="48.3390410" lon="-1.9366870"><ele></ele><time>2017-12-16T0:39:48Z</time></trkpt>
<trkpt lat="48.3390670" lon="-1.9366390"><ele></ele><time>2017-12-16T0:39:51Z</time></trkpt>
<trkpt lat="48.3390980" lon="-1.9365960"><ele></ele><time>2017-12-16T0:39:54Z</time></trkpt>
<trkpt lat="48.3391290" lon="-1.9365450"><ele></ele><time>2017-12-16T0:39:57Z</time></trkpt>
<trkpt lat="48.3391560" lon="-1.9364860"><ele></ele><time>2017-12-16T0:40:0Z</time></trkpt>
<trkpt lat="48.3391890" lon="-1.9364240"><ele></ele><time>2017-12-16T0:40:3Z</time></trkpt>
<trkpt lat="48.3392160" lon="-1.9363630"><ele></ele><time>2017-12-16T0:40:6Z</time></trkpt>
<trkpt lat="48.3392480" lon="-1.9363000"><ele></ele><time>2017-12-16T0:40:9Z</time></trkpt>
<trkpt lat="48.3392840" lon="-1.9362450"><ele></ele><time>2017-12-16T0:40:12Z</time></trkpt>
<trkpt lat="48.3393190" lon="-1.9361900"><ele></ele><time>2017-12-16T0:40:15Z</time></trkpt>
<trkpt lat="48.3393580" lon="-1.9361410"><ele></ele><time>2017-12-16T0:40:18Z</time></trkpt>
<trkpt lat="48.3393960" lon="-1.9360920"><ele></ele><time>2017-12-16T0:40:21Z</time></trkpt>
<trkpt lat="48.3394400" lon="-1.9360460"><ele></ele><time>2017-12-16T0:40:24Z</time></trkpt>
<trkpt lat="48.3394830" lon="-1.9360040"><ele></ele><time>2017-12-16T0:40:27Z</time></trkpt>
<trkpt lat="48.3395250" lon="-1.9359580"><ele></ele><time>2017-12-16T0:40:30Z</time></trkpt>
<trkpt lat="48.3395640" lon="-1.9359140"><ele></ele><time>2017-12-16T0:40:33Z</time></trkpt>
<trkpt lat="48.3396020" lon="-1.9358720"><ele></ele><time>2017-12-16T0:40:36Z</time></trkpt>
<trkpt lat="48.3396440" lon="-1.9358330"><ele></ele><time>2017-12-16T0:40:39Z</time></trkpt>
<trkpt lat="48.3396840" lon="-1.9357970"><ele></ele><time>2017-12-16T0:40:42Z</time></trkpt>
<trkpt lat="48.3397200" lon="-1.9357620"><ele></ele><time>2017-12-16T0:40:45Z</time></trkpt>
<trkpt lat="48.3397510" lon="-1.9357240"><ele></ele><time>2017-12-16T0:40:48Z</time></trkpt>
<trkpt lat="48.3397840" lon="-1.9356910"><ele></ele><time>2017-12-16T0:40:51Z</time></trkpt>
<trkpt lat="48.3398190" lon="-1.9356540"><ele></ele><time>2017-12-16T0:40:54Z</time></trkpt>
<trkpt lat="48.3398540" lon="-1.9356210"><ele></ele><time>2017-12-16T0:40:57Z</time></trkpt>
<trkpt lat="48.3398830" lon="-1.9355830"><ele></ele><time>2017-12-16T0:41:0Z</time></trkpt>
<trkpt lat="48.3399130" lon="-1.9355490"><ele></ele><time>2017-12-16T0:41:3Z</time></trkpt>
<trkpt lat="48.3399490" lon="-1.9355200"><ele></ele><time>2017-12-16T0:41:6Z</time></trkpt>
<trkpt lat="48.3399830" lon="-1.9354900"><ele></ele><time>2017-12-16T0:41:9Z</time></trkpt>
<trkpt lat="48.3400220" lon="-1.9354600"><ele></ele><time>2017-12-16T0:41:12Z</time></trkpt>
<trkpt lat="48.3400560" lon="-1.9354300"><ele></ele><time>2017-12-16T0:41:15Z</time></trkpt>
<trkpt lat="48.3400880" lon="-1.9354030"><ele></ele><time>2017-12-16T0:41:18Z</time></trkpt>
<trkpt lat="48.3401210" lon="-1.9353790"><ele></ele><time>2017-12-16T0:41:21Z</time></trkpt>
<trkpt lat="48.3401550" lon="-1.9353640"><ele></ele><time>2017-12-16T0:41:24Z</time></trkpt>
<trkpt lat="48.3401920" lon="-1.9353510"><ele></ele><time>2017-12-16T0:41:27Z</time></trkpt>
<trkpt lat="48.3402350" lon="-1.9353540"><ele></ele><time>2017-12-16T0:41:30Z</time></trkpt>
<trkpt lat="48.3402740" lon="-1.9353670"><ele></ele><time>2017-12-16T0:41:33Z</time></trkpt>
<trkpt lat="48.3403140" lon="-1.9353880"><ele></ele><time>2017-12-16T0:41:36Z</time></trkpt>
<trkpt lat="48.3403550" lon="-1.9354120"><ele></ele><time>2017-12-16T0:41:39Z</time></trkpt>
<trkpt lat="48.3403940" lon="-1.9354330"><ele></ele><time>2017-12-16T0:41:42Z</time></trkpt>
<trkpt lat="48.3404340" lon="-1.9354540"><ele></ele><time>2017-12-16T0:41:45Z</time></trkpt>
<trkpt lat="48.3404800" lon="-1.9354800"><ele></ele><time>2017-12-16T0:41:48Z</time></trkpt>
<trkpt lat="48.3405250" lon="-1.9354950"><ele></ele><time>2017-12-16T0:41:51Z</time></trkpt>
<trkpt lat="48.3405710" lon="-1.9355020"><ele></ele><time>2017-12-16T0:41:54Z</time></trkpt>
<trkpt lat="48.3406180" lon="-1.9355020"><ele></ele><time>2017-12-16T0:41:57Z</time></trkpt>
<trkpt lat="48.3406660" lon="-1.9355000"><ele></ele><time>2017-12-16T0:42:0Z</time></trkpt>
<trkpt lat="48.3407080" lon="-1.9354930"><ele></ele><time>2017-12-16T0:42:3Z</time></trkpt>
<trkpt lat="48.3407510" lon="-1.9354840"><ele></ele><time>2017-12-16T0:42:6Z</time></trkpt>
<trkpt lat="48.3407940" lon="-1.9354710"><ele></ele><time>2017-12-16T0:42:9Z</time></trkpt>
<trkpt lat="48.3408400" lon="-1.9354610"><ele></ele><time>2017-12-16T0:42:12Z</time></trkpt>
<trkpt lat="48.3408830" lon="-1.9354540"><ele></ele><time>2017-12-16T0:42:15Z</time></trkpt>
<trkpt lat="48.3409220" lon="-1.9354450"><ele></ele><time>2017-12-16T0:42:18Z</time></trkpt>
<trkpt lat="48.3409650" lon="-1.9354350"><ele></ele><time>2017-12-16T0:42:21Z</time></trkpt>
<trkpt lat="48.3410030" lon="-1.9354160"><ele></ele><time>2017-12-16T0:42:24Z</time></trkpt>
<trkpt lat="48.3410450" lon="-1.9353990"><ele></ele><time>2017-12-16T0:42:27Z</time></trkpt>
<trkpt lat="48.3410850" lon="-1.9353800"><ele></ele><time>2017-12-16T0:42:30Z</time></trkpt>
<trkpt lat="48.3411250" lon="-1.9353590"><ele></ele><time>2017-12-16T0:42:33Z</time></trkpt>
<trkpt lat="48.3411680" lon="-1.9353360"><ele></ele><time>2017-12-16T0:42:36Z</time></trkpt>
<trkpt lat="48.3412110" lon="-1.9353160"><ele></ele><time>2017-12-16T0:42:39Z</time></trkpt>
<trkpt lat="48.3412530" lon="-1.9352990"><ele></ele><time>2017-12-16T0:42:42Z</time></trkpt>
<trkpt lat="48.3412990" lon="-1.9352910"><ele></ele><time>2017-12-16T0:42:45Z</time></trkpt>
<trkpt lat="48.3413430" lon="-1.9352830"><ele></ele><time>2017-12-16T0:42:48Z</time></trkpt>
<trkpt lat="48.3413900" lon="-1.9352730"><ele></ele><time>2017-12-16T0:42:51Z</time></trkpt>
<trkpt lat="48.3414350" lon="-1.9352640"><ele></ele><time>2017-12-16T0:42:54Z</time></trkpt>
<trkpt lat="48.3414780" lon="-1.9352540"><ele></ele><time>2017-12-16T0:42:57Z</time></trkpt>
<trkpt lat="48.3415210" lon="-1.9352440"><ele></ele><time>2017-12-16T0:43:0Z</time></trkpt>
<trkpt lat="48.3415660" lon="-1.9352420"><ele></ele><time>2017-12-16T0:43:3Z</time></trkpt>
<trkpt lat="48.3416110" lon="-1.9352380"><ele></ele><time>2017-12-16T0:43:6Z</time></trkpt>
<trkpt lat="48.3416570" lon="-1.9352340"><ele></ele><time>2017-12-16T0:43:9Z</time></trkpt>
<trkpt lat="48.3416990" lon="-1.9352250"><ele></ele><time>2017-12-16T0:43:12Z</time></trkpt>
<trkpt lat="48.3417460" lon="-1.9352200"><ele></ele><time>2017-12-16T0:43:15Z</time></trkpt>
<trkpt lat="48.3417860" lon="-1.9352090"><ele></ele><time>2017-12-16T0:43:18Z</time></trkpt>
<trkpt lat="48.3418370" lon="-1.9352000"><ele></ele><time>2017-12-16T0:43:21Z</time></trkpt>
<trkpt lat="48.3418820" lon="-1.9351830"><ele></ele><time>2017-12-16T0:43:24Z</time></trkpt>
<trkpt lat="48.3419280" lon="-1.9351690"><ele></ele><time>2017-12-16T0:43:27Z</time></trkpt>
<trkpt lat="48.3419790" lon="-1.9351620"><ele></ele><time>2017-12-16T0:43:30Z</time></trkpt>
<trkpt lat="48.3420200" lon="-1.9351630"><ele></ele><time>2017-12-16T0:43:33Z</time></trkpt>
<trkpt lat="48.3420700" lon="-1.9351690"><ele></ele><time>2017-12-16T0:43:36Z</time></trkpt>
<trkpt lat="48.3421190" lon="-1.9351870"><ele></ele><time>2017-12-16T0:43:39Z</time></trkpt>
<trkpt lat="48.3421700" lon="-1.9352180"><ele></ele><time>2017-12-16T0:43:42Z</time></trkpt>
<trkpt lat="48.3422200" lon="-1.9352520"><ele></ele><time>2017-12-16T0:43:45Z</time></trkpt>
<trkpt lat="48.3422720" lon="-1.9352840"><ele></ele><time>2017-12-16T0:43:48Z</time></trkpt>
<trkpt lat="48.3423210" lon="-1.9353230"><ele></ele><time>2017-12-16T0:43:51Z</time></trkpt>
<trkpt lat="48.3423670" lon="-1.9353640"><ele></ele><time>2017-12-16T0:43:54Z</time></trkpt>
<trkpt lat="48.3424130" lon="-1.9354120"><ele></ele><time>2017-12-16T0:43:57Z</time></trkpt>
<trkpt lat="48.3424620" lon="-1.9354580"><ele></ele><time>2017-12-16T0:44:0Z</time></trkpt>
<trkpt lat="48.3425080" lon="-1.9355060"><ele></ele><time>2017-12-16T0:44:3Z</time></trkpt>
<trkpt lat="48.3425550" lon="-1.9355500"><ele></ele><time>2017-12-16T0:44:6Z</time></trkpt>
<trkpt lat="48.3426010" lon="-1.9355940"><ele></ele><time>2017-12-16T0:44:9Z</time></trkpt>
<trkpt lat="48.3426510" lon="-1.9356420"><ele></ele><time>2017-12-16T0:44:12Z</time></trkpt>
<trkpt lat="48.3426940" lon="-1.9356880"><ele></ele><time>2017-12-16T0:44:15Z</time></trkpt>
<trkpt lat="48.3427320" lon="-1.9357320"><ele></ele><time>2017-12-16T0:44:18Z</time></trkpt>
<trkpt lat="48.3427700" lon="-1.9357750"><ele></ele><time>2017-12-16T0:44:21Z</time></trkpt>
<trkpt lat="48.3428080" lon="-1.9358210"><ele></ele><time>2017-12-16T0:44:24Z</time></trkpt>
<trkpt lat="48.3428470" lon="-1.9358630"><ele></ele><time>2017-12-16T0:44:27Z</time></trkpt>
<trkpt lat="48.3428800" lon="-1.9359180"><ele></ele><time>2017-12-16T0:44:30Z</time></trkpt>
<trkpt lat="48.3429130" lon="-1.9359670"><ele></ele><time>2017-12-16T0:44:33Z</time></trkpt>
<trkpt lat="48.3429460" lon="-1.9360190"><ele></ele><time>2017-12-16T0:44:36Z</time></trkpt>
<trkpt lat="48.3429770" lon="-1.9360750"><ele></ele><time>2017-12-16T0:44:39Z</time></trkpt>
<trkpt lat="48.3430110" lon="-1.9361300"><ele></ele><time>2017-12-16T0:44:42Z</time></trkpt>
<trkpt lat="48.3430450" lon="-1.9361860"><ele></ele><time>2017-12-16T0:44:45Z</time></trkpt>
<trkpt lat="48.3430730" lon="-1.9362420"><ele></ele><time>2017-12-16T0:44:48Z</time></trkpt>
<trkpt lat="48.3431090" lon="-1.9362910"><ele></ele><time>2017-12-16T0:44:51Z</time></trkpt>
<trkpt lat="48.3431520" lon="-1.9363360"><ele></ele><time>2017-12-16T0:44:54Z</time></trkpt>
<trkpt lat="48.3431950" lon="-1.9363760"><ele></ele><time>2017-12-16T0:44:57Z</time></trkpt>
<trkpt lat="48.3432380" lon="-1.9364170"><ele></ele><time>2017-12-16T0:45:0Z</time></trkpt>
<trkpt lat="48.3432770" lon="-1.9364650"><ele></ele><time>2017-12-16T0:45:3Z</time></trkpt>
<trkpt lat="48.3433180" lon="-1.9365080"><ele></ele><time>2017-12-16T0:45:6Z</time></trkpt>
<trkpt lat="48.3433540" lon="-1.9365540"><ele></ele><time>2017-12-16T0:45:9Z</time></trkpt>
<trkpt lat="48.3433970" lon="-1.9365980"><ele></ele><time>2017-12-16T0:45:12Z</time></trkpt>
<trkpt lat="48.3434380" lon="-1.9366380"><ele></ele><time>2017-12-16T0:45:15Z</time></trkpt>
<trkpt lat="48.3434790" lon="-1.9366740"><ele></ele><time>2017-12-16T0:45:18Z</time></trkpt>
<trkpt lat="48.3435230" lon="-1.9367160"><ele></ele><time>2017-12-16T0:45:21Z</time></trkpt>
<trkpt lat="48.3435680" lon="-1.9367540"><ele></ele><time>2017-12-16T0:45:24Z</time></trkpt>
<trkpt lat="48.3436140" lon="-1.9367910"><ele></ele><time>2017-12-16T0:45:27Z</time></trkpt>
<trkpt lat="48.3436630" lon="-1.9368170"><ele></ele><time>2017-12-16T0:45:30Z</time></trkpt>
<trkpt lat="48.3437130" lon="-1.9368370"><ele></ele><time>2017-12-16T0:45:33Z</time></trkpt>
<trkpt lat="48.3437590" lon="-1.9368590"><ele></ele><time>2017-12-16T0:45:36Z</time></trkpt>
<trkpt lat="48.3438090" lon="-1.9368720"><ele></ele><time>2017-12-16T0:45:39Z</time></trkpt>
<trkpt lat="48.3438580" lon="-1.9368860"><ele></ele><time>2017-12-16T0:45:42Z</time></trkpt>
<trkpt lat="48.3439090" lon="-1.9369050"><ele></ele><time>2017-12-16T0:45:45Z</time></trkpt>
<trkpt lat="48.3439600" lon="-1.9369230"><ele></ele><time>2017-12-16T0:45:48Z</time></trkpt>
<trkpt lat="48.3440110" lon="-1.9369390"><ele></ele><time>2017-12-16T0:45:51Z</time></trkpt>
<trkpt lat="48.3440580" lon="-1.9369700"><ele></ele><time>2017-12-16T0:45:54Z</time></trkpt>
<trkpt lat="48.3441050" lon="-1.9369900"><ele></ele><time>2017-12-16T0:45:57Z</time></trkpt>
<trkpt lat="48.3441560" lon="-1.9370110"><ele></ele><time>2017-12-16T0:46:0Z</time></trkpt>
<trkpt lat="48.3442080" lon="-1.9370430"><ele></ele><time>2017-12-16T0:46:3Z</time></trkpt>
<trkpt lat="48.3442600" lon="-1.9370760"><ele></ele><time>2017-12-16T0:46:6Z</time></trkpt>
<trkpt lat="48.3443080" lon="-1.9371090"><ele></ele><time>2017-12-16T0:46:9Z</time></trkpt>
<trkpt lat="48.3443620" lon="-1.9371480"><ele></ele><time>2017-12-16T0:46:12Z</time></trkpt>
<trkpt lat="48.3444140" lon="-1.9371840"><ele></ele><time>2017-12-16T0:46:15Z</time></trkpt>
<trkpt lat="48.3444640" lon="-1.9372170"><ele></ele><time>2017-12-16T0:46:18Z</time></trkpt>
<trkpt lat="48.3445200" lon="-1.9372440"><ele></ele><time>2017-12-16T0:46:21Z</time></trkpt>
<trkpt lat="48.3445700" lon="-1.9372690"><ele></ele><time>2017-12-16T0:46:24Z</time></trkpt>
<trkpt lat="48.3446270" lon="-1.9373070"><ele></ele><time>2017-12-16T0:46:27Z</time></trkpt>
<trkpt lat="48.3446770" lon="-1.9373410"><ele></ele><time>2017-12-16T0:46:30Z</time></trkpt>
<trkpt lat="48.3447360" lon="-1.9373750"><ele></ele><time>2017-12-16T0:46:33Z</time></trkpt>
<trkpt lat="48.3447870" lon="-1.9373890"><ele></ele><time>2017-12-16T0:46:36Z</time></trkpt>
<trkpt lat="48.3448370" lon="-1.9373620"><ele></ele><time>2017-12-16T0:46:39Z</time></trkpt>
<trkpt lat="48.3448810" lon="-1.9373090"><ele></ele><time>2017-12-16T0:46:42Z</time></trkpt>
<trkpt lat="48.3449180" lon="-1.9372490"><ele></ele><time>2017-12-16T0:46:45Z</time></trkpt>
<trkpt lat="48.3449600" lon="-1.9371940"><ele></ele><time>2017-12-16T0:46:48Z</time></trkpt>
<trkpt lat="48.3450130" lon="-1.9371460"><ele></ele><time>2017-12-16T0:46:51Z</time></trkpt>
<trkpt lat="48.3450560" lon="-1.9370980"><ele></ele><time>2017-12-16T0:46:54Z</time></trkpt>
<trkpt lat="48.3451100" lon="-1.9370530"><ele></ele><time>2017-12-16T0:46:57Z</time></trkpt>
<trkpt lat="48.3451620" lon="-1.9370100"><ele></ele><time>2017-12-16T0:47:0Z</time></trkpt>
<trkpt lat="48.3452090" lon="-1.9369730"><ele></ele><time>2017-12-16T0:47:3Z</time></trkpt>
<trkpt lat="48.3452550" lon="-1.9369320"><ele></ele><time>2017-12-16T0:47:6Z</time></trkpt>
<trkpt lat="48.3453100" lon="-1.9368950"><ele></ele><time>2017-12-16T0:47:9Z</time></trkpt>
<trkpt lat="48.3453500" lon="-1.9368660"><ele></ele><time>2017-12-16T0:47:12Z</time></trkpt>
<trkpt lat="48.3453910" lon="-1.9368390"><ele></ele><time>2017-12-16T0:47:15Z</time></trkpt>
<trkpt lat="48.3454340" lon="-1.9368210"><ele></ele><time>2017-12-16T0:47:18Z</time></trkpt>
<trkpt lat="48.3454670" lon="-1.9367880"><ele></ele><time>2017-12-16T0:47:21Z</time></trkpt>
<trkpt lat="48.3454930" lon="-1.9367340"><ele></ele><time>2017-12-16T0:47:24Z</time></trkpt>
<trkpt lat="48.3455040" lon="-1.9366640"><ele></ele><time>2017-12-16T0:47:27Z</time></trkpt>
<trkpt lat="48.3455180" lon="-1.9365960"><ele></ele><time>2017-12-16T0:47:30Z</time></trkpt>
<trkpt lat="48.3455330" lon="-1.9365250"><ele></ele><time>2017-12-16T0:47:33Z</time></trkpt>
<trkpt lat="48.3455450" lon="-1.9364410"><ele></ele><time>2017-12-16T0:47:36Z</time></trkpt>
<trkpt lat="48.3455610" lon="-1.9363500"><ele></ele><time>2017-12-16T0:47:39Z</time></trkpt>
<trkpt lat="48.3455780" lon="-1.9362520"><ele></ele><time>2017-12-16T0:47:42Z</time></trkpt>
<trkpt lat="48.3455940" lon="-1.9361490"><ele></ele><time>2017-12-16T0:47:45Z</time></trkpt>
<trkpt lat="48.3456170" lon="-1.9360320"><ele></ele><time>2017-12-16T0:47:48Z</time></trkpt>
<trkpt lat="48.3456370" lon="-1.9359190"><ele></ele><time>2017-12-16T0:47:51Z</time></trkpt>
<trkpt lat="48.3456590" lon="-1.9358070"><ele></ele><time>2017-12-16T0:47:54Z</time></trkpt>
<trkpt lat="48.3456770" lon="-1.9357000"><ele></ele><time>2017-12-16T0:47:57Z</time></trkpt>
<trkpt lat="48.3456960" lon="-1.9355870"><ele></ele><time>2017-12-16T0:48:0Z</time></trkpt>
<trkpt lat="48.3457150" lon="-1.9354790"><ele></ele><time>2017-12-16T0:48:3Z</time></trkpt>
<trkpt lat="48.3457330" lon="-1.9353710"><ele></ele><time>2017-12-16T0:48:6Z</time></trkpt>
<trkpt lat="48.3457560" lon="-1.9352690"><ele></ele><time>2017-12-16T0:48:9Z</time></trkpt>
<trkpt lat="48.3457760" lon="-1.9351640"><ele></ele><time>2017-12-16T0:48:12Z</time></trkpt>
<trkpt lat="48.3457950" lon="-1.9350560"><ele></ele><time>2017-12-16T0:48:15Z</time></trkpt>
<trkpt lat="48.3458080" lon="-1.9349470"><ele></ele><time>2017-12-16T0:48:18Z</time></trkpt>
<trkpt lat="48.3458230" lon="-1.9348400"><ele></ele><time>2017-12-16T0:48:21Z</time></trkpt>
<trkpt lat="48.3458410" lon="-1.9347340"><ele></ele><time>2017-12-16T0:48:24Z</time></trkpt>
<trkpt lat="48.3458600" lon="-1.9346260"><ele></ele><time>2017-12-16T0:48:27Z</time></trkpt>
<trkpt lat="48.3458810" lon="-1.9345220"><ele></ele><time>2017-12-16T0:48:30Z</time></trkpt>
<trkpt lat="48.3459000" lon="-1.9344180"><ele></ele><time>2017-12-16T0:48:33Z</time></trkpt>
<trkpt lat="48.3459200" lon="-1.9343110"><ele></ele><time>2017-12-16T0:48:36Z</time></trkpt>
<trkpt lat="48.3459390" lon="-1.9342060"><ele></ele><time>2017-12-16T0:48:39Z</time></trkpt>
<trkpt lat="48.3459580" lon="-1.9341010"><ele></ele><time>2017-12-16T0:48:42Z</time></trkpt>
<trkpt lat="48.3459780" lon="-1.9339980"><ele></ele><time>2017-12-16T0:48:45Z</time></trkpt>
<trkpt lat="48.3459940" lon="-1.9338950"><ele></ele><time>2017-12-16T0:48:48Z</time></trkpt>
<trkpt lat="48.3460130" lon="-1.9337900"><ele></ele><time>2017-12-16T0:48:51Z</time></trkpt>
<trkpt lat="48.3460290" lon="-1.9336880"><ele></ele><time>2017-12-16T0:48:54Z</time></trkpt>
<trkpt lat="48.3460490" lon="-1.9335850"><ele></ele><time>2017-12-16T0:48:57Z</time></trkpt>
<trkpt lat="48.3460650" lon="-1.9334810"><ele></ele><time>2017-12-16T0:49:0Z</time></trkpt>
<trkpt lat="48.3460820" lon="-1.9333790"><ele></ele><time>2017-12-16T0:49:3Z</time></trkpt>
<trkpt lat="48.3461010" lon="-1.9332740"><ele></ele><time>2017-12-16T0:49:6Z</time></trkpt>
<trkpt lat="48.3461160" lon="-1.9331660"><ele></ele><time>2017-12-16T0:49:9Z</time></trkpt>
<trkpt lat="48.3461330" lon="-1.9330620"><ele></ele><time>2017-12-16T0:49:12Z</time></trkpt>
<trkpt lat="48.3461510" lon="-1.9329550"><ele></ele><time>2017-12-16T0:49:15Z</time></trkpt>
<trkpt lat="48.3461700" lon="-1.9328490"><ele></ele><time>2017-12-16T0:49:18Z</time></trkpt>
<trkpt lat="48.3461850" lon="-1.9327440"><ele></ele><time>2017-12-16T0:49:21Z</time></trkpt>
<trkpt lat="48.3462050" lon="-1.9326380"><ele></ele><time>2017-12-16T0:49:24Z</time></trkpt>
<trkpt lat="48.3462240" lon="-1.9325330"><ele></ele><time>2017-12-16T0:49:27Z</time></trkpt>
<trkpt lat="48.3462420" lon="-1.9324250"><ele></ele><time>2017-12-16T0:49:30Z</time></trkpt>
<trkpt lat="48.3462590" lon="-1.9323220"><ele></ele><time>2017-12-16T0:49:33Z</time></trkpt>
<trkpt lat="48.3462770" lon="-1.9322170"><ele></ele><time>2017-12-16T0:49:36Z</time></trkpt>
<trkpt lat="48.3462980" lon="-1.9321120"><ele></ele><time>2017-12-16T0:49:39Z</time></trkpt>
<trkpt lat="48.3463200" lon="-1.9320060"><ele></ele><time>2017-12-16T0:49:42Z</time></trkpt>
<trkpt lat="48.3463390" lon="-1.9318960"><ele></ele><time>2017-12-16T0:49:45Z</time></trkpt>
<trkpt lat="48.3463580" lon="-1.9317850"><ele></ele><time>2017-12-16T0:49:48Z</time></trkpt>
<trkpt lat="48.3463750" lon="-1.9316740"><ele></ele><time>2017-12-16T0:49:51Z</time></trkpt>
<trkpt lat="48.3463920" lon="-1.9315650"><ele></ele><time>2017-12-16T0:49:54Z</time></trkpt>
<trkpt lat="48.3464060" lon="-1.9314560"><ele></ele><time>2017-12-16T0:49:57Z</time></trkpt>
<trkpt lat="48.3464220" lon="-1.9313440"><ele></ele><time>2017-12-16T0:50:0Z</time></trkpt>
<trkpt lat="48.3464420" lon="-1.9312310"><ele></ele><time>2017-12-16T0:50:3Z</time></trkpt>
<trkpt lat="48.3464570" lon="-1.9311190"><ele></ele><time>2017-12-16T0:50:6Z</time></trkpt>
<trkpt lat="48.3464730" lon="-1.9310100"><ele></ele><time>2017-12-16T0:50:9Z</time></trkpt>
<trkpt lat="48.3464930" lon="-1.9309020"><ele></ele><time>2017-12-16T0:50:12Z</time></trkpt>
<trkpt lat="48.3465120" lon="-1.9307950"><ele></ele><time>2017-12-16T0:50:15Z</time></trkpt>
<trkpt lat="48.3465330" lon="-1.9306880"><ele></ele><time>2017-12-16T0:50:18Z</time></trkpt>
<trkpt lat="48.3465500" lon="-1.9305770"><ele></ele><time>2017-12-16T0:50:21Z</time></trkpt>
<trkpt lat="48.3465680" lon="-1.9304670"><ele></ele><time>2017-12-16T0:50:24Z</time></trkpt>
<trkpt lat="48.3465850" lon="-1.9303580"><ele></ele><time>2017-12-16T0:50:27Z</time></trkpt>
<trkpt lat="48.3466070" lon="-1.9302500"><ele></ele><time>2017-12-16T0:50:30Z</time></trkpt>
<trkpt lat="48.3466250" lon="-1.9301430"><ele></ele><time>2017-12-16T0:50:33Z</time></trkpt>
<trkpt lat="48.3466490" lon="-1.9300340"><ele></ele><time>2017-12-16T0:50:36Z</time></trkpt>
<trkpt lat="48.3466760" lon="-1.9299330"><ele></ele><time>2017-12-16T0:50:39Z</time></trkpt>
<trkpt lat="48.3467020" lon="-1.9298340"><ele></ele><time>2017-12-16T0:50:42Z</time></trkpt>
<trkpt lat="48.3467240" lon="-1.9297300"><ele></ele><time>2017-12-16T0:50:45Z</time></trkpt>
<trkpt lat="48.3467580" lon="-1.9296380"><ele></ele><time>2017-12-16T0:50:48Z</time></trkpt>
<trkpt lat="48.3467980" lon="-1.9295470"><ele></ele><time>2017-12-16T0:50:51Z</time></trkpt>
<trkpt lat="48.3468280" lon="-1.9294610"><ele></ele><time>2017-12-16T0:50:54Z</time></trkpt>
<trkpt lat="48.3468670" lon="-1.9293780"><ele></ele><time>2017-12-16T0:50:57Z</time></trkpt>
<trkpt lat="48.3469060" lon="-1.9292950"><ele></ele><time>2017-12-16T0:51:0Z</time></trkpt>
<trkpt lat="48.3469460" lon="-1.9292110"><ele></ele><time>2017-12-16T0:51:3Z</time></trkpt>
<trkpt lat="48.3469900" lon="-1.9291320"><ele></ele><time>2017-12-16T0:51:6Z</time></trkpt>
<trkpt lat="48.3470340" lon="-1.9290580"><ele></ele><time>2017-12-16T0:51:9Z</time></trkpt>
<trkpt lat="48.3470830" lon="-1.9289860"><ele></ele><time>2017-12-16T0:51:12Z</time></trkpt>
<trkpt lat="48.3471310" lon="-1.9289210"><ele></ele><time>2017-12-16T0:51:15Z</time></trkpt>
<trkpt lat="48.3471790" lon="-1.9288640"><ele></ele><time>2017-12-16T0:51:18Z</time></trkpt>
<trkpt lat="48.3472270" lon="-1.9288090"><ele></ele><time>2017-12-16T0:51:21Z</time></trkpt>
<trkpt lat="48.3472770" lon="-1.9287600"><ele></ele><time>2017-12-16T0:51:24Z</time></trkpt>
<trkpt lat="48.3473220" lon="-1.9287050"><ele></ele><time>2017-12-16T0:51:27Z</time></trkpt>
<trkpt lat="48.3473700" lon="-1.9286870"><ele></ele><time>2017-12-16T0:51:30Z</time></trkpt>
<trkpt lat="48.3474050" lon="-1.9286470"><ele></ele><time>2017-12-16T0:51:33Z</time></trkpt>
<trkpt lat="48.3474450" lon="-1.9286080"><ele></ele><time>2017-12-16T0:51:36Z</time></trkpt>
<trkpt lat="48.3474840" lon="-1.9285750"><ele></ele><time>2017-12-16T0:51:39Z</time></trkpt>
<trkpt lat="48.3475220" lon="-1.9285640"><ele></ele><time>2017-12-16T0:51:42Z</time></trkpt>
<trkpt lat="48.3475620" lon="-1.9285570"><ele></ele><time>2017-12-16T0:51:45Z</time></trkpt>
<trkpt lat="48.3475890" lon="-1.9285270"><ele></ele><time>2017-12-16T0:51:48Z</time></trkpt>
<trkpt lat="48.3476220" lon="-1.9284880"><ele></ele><time>2017-12-16T0:51:51Z</time></trkpt>
<trkpt lat="48.3476520" lon="-1.9284650"><ele></ele><time>2017-12-16T0:51:54Z</time></trkpt>
<trkpt lat="48.3476920" lon="-1.9284480"><ele></ele><time>2017-12-16T0:51:57Z</time></trkpt>
<trkpt lat="48.3477320" lon="-1.9284160"><ele></ele><time>2017-12-16T0:52:0Z</time></trkpt>
<trkpt lat="48.3477720" lon="-1.9283820"><ele></ele><time>2017-12-16T0:52:3Z</time></trkpt>
<trkpt lat="48.3478140" lon="-1.9283480"><ele></ele><time>2017-12-16T0:52:6Z</time></trkpt>
<trkpt lat="48.3478430" lon="-1.9283180"><ele></ele><time>2017-12-16T0:52:9Z</time></trkpt>
<trkpt lat="48.3478820" lon="-1.9282860"><ele></ele><time>2017-12-16T0:52:12Z</time></trkpt>
<trkpt lat="48.3479180" lon="-1.9282530"><ele></ele><time>2017-12-16T0:52:15Z</time></trkpt>
<trkpt lat="48.3479500" lon="-1.9282140"><ele></ele><time>2017-12-16T0:52:18Z</time></trkpt>
<trkpt lat="48.3479660" lon="-1.9281660"><ele></ele><time>2017-12-16T0:52:21Z</time></trkpt>
<trkpt lat="48.3479710" lon="-1.9281130"><ele></ele><time>2017-12-16T0:52:24Z</time></trkpt>
<trkpt lat="48.3479760" lon="-1.9280630"><ele></ele><time>2017-12-16T0:52:27Z</time></trkpt>
<trkpt lat="48.3479830" lon="-1.9280060"><ele></ele><time>2017-12-16T0:52:30Z</time></trkpt>
<trkpt lat="48.3480190" lon="-1.9279680"><ele></ele><time>2017-12-16T0:52:33Z</time></trkpt>
<trkpt lat="48.3480290" lon="-1.9279010"><ele></ele><time>2017-12-16T0:52:36Z</time></trkpt>
<trkpt lat="48.3480480" lon="-1.9278660"><ele></ele><time>2017-12-16T0:52:39Z</time></trkpt>
<trkpt lat="48.3480670" lon="-1.9278170"><ele></ele><time>2017-12-16T0:52:42Z</time></trkpt>
<trkpt lat="48.3480910" lon="-1.9277790"><ele></ele><time>2017-12-16T0:52:45Z</time></trkpt>
<trkpt lat="48.3480960" lon="-1.9277200"><ele></ele><time>2017-12-16T0:52:48Z</time></trkpt>
<trkpt lat="48.3481170" lon="-1.9276850"><ele></ele><time>2017-12-16T0:52:51Z</time></trkpt>
<trkpt lat="48.3481540" lon="-1.9276380"><ele></ele><time>2017-12-16T0:52:54Z</time></trkpt>
<trkpt lat="48.3481800" lon="-1.9276030"><ele></ele><time>2017-12-16T0:52:57Z</time></trkpt>
<trkpt lat="48.3482060" lon="-1.9275700"><ele></ele><time>2017-12-16T0:53:0Z</time></trkpt>
<trkpt lat="48.3482240" lon="-1.9275330"><ele></ele><time>2017-12-16T0:53:3Z</time></trkpt>
<trkpt lat="48.3482420" lon="-1.9274990"><ele></ele><time>2017-12-16T0:53:6Z</time></trkpt>
<trkpt lat="48.3482590" lon="-1.9274620"><ele></ele><time>2017-12-16T0:53:9Z</time></trkpt>
<trkpt lat="48.3482990" lon="-1.9274100"><ele></ele><time>2017-12-16T0:53:12Z</time></trkpt>
<trkpt lat="48.3483190" lon="-1.9273790"><ele></ele><time>2017-12-16T0:53:15Z</time></trkpt>
<trkpt lat="48.3483550" lon="-1.9273280"><ele></ele><time>2017-12-16T0:53:18Z</time></trkpt>
<trkpt lat="48.3483920" lon="-1.9272870"><ele></ele><time>2017-12-16T0:53:21Z</time></trkpt>
<trkpt lat="48.3484210" lon="-1.9272770"><ele></ele><time>2017-12-16T0:53:24Z</time></trkpt>
<trkpt lat="48.3484450" lon="-1.9272430"><ele></ele><time>2017-12-16T0:53:27Z</time></trkpt>
<trkpt lat="48.3484840" lon="-1.9272260"><ele></ele><time>2017-12-16T0:53:30Z</time></trkpt>
<trkpt lat="48.3485190" lon="-1.9271910"><ele></ele><time>2017-12-16T0:53:33Z</time></trkpt>
<trkpt lat="48.3485620" lon="-1.9271700"><ele></ele><time>2017-12-16T0:53:36Z</time></trkpt>
<trkpt lat="48.3485890" lon="-1.9271630"><ele></ele><time>2017-12-16T0:53:39Z</time></trkpt>
<trkpt lat="48.3486450" lon="-1.9271550"><ele></ele><time>2017-12-16T0:53:42Z</time></trkpt>
<trkpt lat="48.3486720" lon="-1.9271360"><ele></ele><time>2017-12-16T0:53:45Z</time></trkpt>
<trkpt lat="48.3487260" lon="-1.9270990"><ele></ele><time>2017-12-16T0:53:48Z</time></trkpt>
<trkpt lat="48.3487450" lon="-1.9270680"><ele></ele><time>2017-12-16T0:53:51Z</time></trkpt>
<trkpt lat="48.3487670" lon="-1.9270340"><ele></ele><time>2017-12-16T0:53:54Z</time></trkpt>
<trkpt lat="48.3487910" lon="-1.9270020"><ele></ele><time>2017-12-16T0:53:57Z</time></trkpt>
<trkpt lat="48.3488260" lon="-1.9269760"><ele></ele><time>2017-12-16T0:54:0Z</time></trkpt>
<trkpt lat="48.3488470" lon="-1.9269320"><ele></ele><time>2017-12-16T0:54:3Z</time></trkpt>
<trkpt lat="48.3488670" lon="-1.9268800"><ele></ele><time>2017-12-16T0:54:6Z</time></trkpt>
<trkpt lat="48.3488800" lon="-1.9268380"><ele></ele><time>2017-12-16T0:54:9Z</time></trkpt>
<trkpt lat="48.3489050" lon="-1.9268220"><ele></ele><time>2017-12-16T0:54:12Z</time></trkpt>
<trkpt lat="48.3489310" lon="-1.9267860"><ele></ele><time>2017-12-16T0:54:15Z</time></trkpt>
<trkpt lat="48.3489670" lon="-1.9267330"><ele></ele><time>2017-12-16T0:54:18Z</time></trkpt>
<trkpt lat="48.3489860" lon="-1.9266980"><ele></ele><time>2017-12-16T0:54:21Z</time></trkpt>
<trkpt lat="48.3490160" lon="-1.9266500"><ele></ele><time>2017-12-16T0:54:24Z</time></trkpt>
<trkpt lat="48.3490460" lon="-1.9266270"><ele></ele><time>2017-12-16T0:54:27Z</time></trkpt>
<trkpt lat="48.3490720" lon="-1.9265920"><ele></ele><time>2017-12-16T0:54:30Z</time></trkpt>
<trkpt lat="48.3491090" lon="-1.9265500"><ele></ele><time>2017-12-16T0:54:33Z</time></trkpt>
<trkpt lat="48.3491310" lon="-1.9265170"><ele></ele><time>2017-12-16T0:54:36Z</time></trkpt>
<trkpt lat="48.3491880" lon="-1.9264630"><ele></ele><time>2017-12-16T0:54:39Z</time></trkpt>
<trkpt lat="48.3492200" lon="-1.9264270"><ele></ele><time>2017-12-16T0:54:42Z</time></trkpt>
<trkpt lat="48.3492520" lon="-1.9263950"><ele></ele><time>2017-12-16T0:54:45Z</time></trkpt>
<trkpt lat="48.3492700" lon="-1.9263410"><ele></ele><time>2017-12-16T0:54:48Z</time></trkpt>
<trkpt lat="48.3492900" lon="-1.9262980"><ele></ele><time>2017-12-16T0:54:51Z</time></trkpt>
<trkpt lat="48.3493110" lon="-1.9262590"><ele></ele><time>2017-12-16T0:54:54Z</time></trkpt>
<trkpt lat="48.3493240" lon="-1.9262150"><ele></ele><time>2017-12-16T0:54:57Z</time></trkpt>
<trkpt lat="48.3493340" lon="-1.9261610"><ele></ele><time>2017-12-16T0:55:0Z</time></trkpt>
<trkpt lat="48.3493330" lon="-1.9261180"><ele></ele><time>2017-12-16T0:55:3Z</time></trkpt>
<trkpt lat="48.3493360" lon="-1.9260410"><ele></ele><time>2017-12-16T0:55:6Z</time></trkpt>
<trkpt lat="48.3493570" lon="-1.9259970"><ele></ele><time>2017-12-16T0:55:9Z</time></trkpt>
<trkpt lat="48.3493660" lon="-1.9259470"><ele></ele><time>2017-12-16T0:55:12Z</time></trkpt>
<trkpt lat="48.3493600" lon="-1.9258900"><ele></ele><time>2017-12-16T0:55:15Z</time></trkpt>
<trkpt lat="48.3494160" lon="-1.9258560"><ele></ele><time>2017-12-16T0:55:18Z</time></trkpt>
<trkpt lat="48.3494540" lon="-1.9258360"><ele></ele><time>2017-12-16T0:55:21Z</time></trkpt>
<trkpt lat="48.3495060" lon="-1.9258300"><ele></ele><time>2017-12-16T0:55:24Z</time></trkpt>
<trkpt lat="48.3495590" lon="-1.9258320"><ele></ele><time>2017-12-16T0:55:27Z</time></trkpt>
<trkpt lat="48.3495920" lon="-1.9258350"><ele></ele><time>2017-12-16T0:55:30Z</time></trkpt>
<trkpt lat="48.3496660" lon="-1.9258460"><ele></ele><time>2017-12-16T0:55:33Z</time></trkpt>
<trkpt lat="48.3497620" lon="-1.9258790"><ele></ele><time>2017-12-16T0:55:36Z</time></trkpt>
<trkpt lat="48.3498390" lon="-1.9259130"><ele></ele><time>2017-12-16T0:55:39Z</time></trkpt>
<trkpt lat="48.3499070" lon="-1.9259730"><ele></ele><time>2017-12-16T0:55:42Z</time></trkpt>
<trkpt lat="48.3499420" lon="-1.9260820"><ele></ele><time>2017-12-16T0:55:45Z</time></trkpt>
<trkpt lat="48.3499810" lon="-1.9261840"><ele></ele><time>2017-12-16T0:55:48Z</time></trkpt>
<trkpt lat="48.3500210" lon="-1.9262500"><ele></ele><time>2017-12-16T0:55:51Z</time></trkpt>
<trkpt lat="48.3500680" lon="-1.9262880"><ele></ele><time>2017-12-16T0:55:54Z</time></trkpt>
<trkpt lat="48.3501050" lon="-1.9263340"><ele></ele><time>2017-12-16T0:55:57Z</time></trkpt>
<trkpt lat="48.3501560" lon="-1.9263730"><ele></ele><time>2017-12-16T0:56:0Z</time></trkpt>
<trkpt lat="48.3501960" lon="-1.9263570"><ele></ele><time>2017-12-16T0:56:3Z</time></trkpt>
<trkpt lat="48.3502160" lon="-1.9263280"><ele></ele><time>2017-12-16T0:56:6Z</time></trkpt>
<trkpt lat="48.3502450" lon="-1.9262910"><ele></ele><time>2017-12-16T0:56:9Z</time></trkpt>
<trkpt lat="48.3502760" lon="-1.9262460"><ele></ele><time>2017-12-16T0:56:12Z</time></trkpt>
<trkpt lat="48.3503090" lon="-1.9262000"><ele></ele><time>2017-12-16T0:56:15Z</time></trkpt>
<trkpt lat="48.3503430" lon="-1.9261530"><ele></ele><time>2017-12-16T0:56:18Z</time></trkpt>
<trkpt lat="48.3503800" lon="-1.9261100"><ele></ele><time>2017-12-16T0:56:21Z</time></trkpt>
<trkpt lat="48.3504130" lon="-1.9260710"><ele></ele><time>2017-12-16T0:56:24Z</time></trkpt>
<trkpt lat="48.3504450" lon="-1.9260300"><ele></ele><time>2017-12-16T0:56:27Z</time></trkpt>
<trkpt lat="48.3504780" lon="-1.9259860"><ele></ele><time>2017-12-16T0:56:30Z</time></trkpt>
<trkpt lat="48.3505130" lon="-1.9259450"><ele></ele><time>2017-12-16T0:56:33Z</time></trkpt>
<trkpt lat="48.3505460" lon="-1.9259050"><ele></ele><time>2017-12-16T0:56:36Z</time></trkpt>
<trkpt lat="48.3505800" lon="-1.9258630"><ele></ele><time>2017-12-16T0:56:39Z</time></trkpt>
<trkpt lat="48.3506120" lon="-1.9258200"><ele></ele><time>2017-12-16T0:56:42Z</time></trkpt>
<trkpt lat="48.3506440" lon="-1.9257770"><ele></ele><time>2017-12-16T0:56:45Z</time></trkpt>
<trkpt lat="48.3506750" lon="-1.9257340"><ele></ele><time>2017-12-16T0:56:48Z</time></trkpt>
<trkpt lat="48.3507070" lon="-1.9256890"><ele></ele><time>2017-12-16T0:56:51Z</time></trkpt>
<trkpt lat="48.3507380" lon="-1.9256430"><ele></ele><time>2017-12-16T0:56:54Z</time></trkpt>
<trkpt lat="48.3507690" lon="-1.9255950"><ele></ele><time>2017-12-16T0:56:57Z</time></trkpt>
<trkpt lat="48.3508000" lon="-1.9255520"><ele></ele><time>2017-12-16T0:57:0Z</time></trkpt>
<trkpt lat="48.3508330" lon="-1.9255090"><ele></ele><time>2017-12-16T0:57:3Z</time></trkpt>
<trkpt lat="48.3508690" lon="-1.9254710"><ele></ele><time>2017-12-16T0:57:6Z</time></trkpt>
<trkpt lat="48.3509030" lon="-1.9254240"><ele></ele><time>2017-12-16T0:57:9Z</time></trkpt>
<trkpt lat="48.3509370" lon="-1.9253770"><ele></ele><time>2017-12-16T0:57:12Z</time></trkpt>
<trkpt lat="48.3509730" lon="-1.9253390"><ele></ele><time>2017-12-16T0:57:15Z</time></trkpt>
<trkpt lat="48.3510110" lon="-1.9252990"><ele></ele><time>2017-12-16T0:57:18Z</time></trkpt>
<trkpt lat="48.3510550" lon="-1.9252590"><ele></ele><time>2017-12-16T0:57:21Z</time></trkpt>
<trkpt lat="48.3510930" lon="-1.9252110"><ele></ele><time>2017-12-16T0:57:24Z</time></trkpt>
<trkpt lat="48.3511260" lon="-1.9251620"><ele></ele><time>2017-12-16T0:57:27Z</time></trkpt>
<trkpt lat="48.3511570" lon="-1.9251170"><ele></ele><time>2017-12-16T0:57:30Z</time></trkpt>
<trkpt lat="48.3511890" lon="-1.9250720"><ele></ele><time>2017-12-16T0:57:33Z</time></trkpt>
<trkpt lat="48.3512200" lon="-1.9250320"><ele></ele><time>2017-12-16T0:57:36Z</time></trkpt>
<trkpt lat="48.3512610" lon="-1.9250130"><ele></ele><time>2017-12-16T0:57:39Z</time></trkpt>
<trkpt lat="48.3513060" lon="-1.9250200"><ele></ele><time>2017-12-16T0:57:42Z</time></trkpt>
<trkpt lat="48.3513500" lon="-1.9250330"><ele></ele><time>2017-12-16T0:57:45Z</time></trkpt>
<trkpt lat="48.3513930" lon="-1.9250460"><ele></ele><time>2017-12-16T0:57:48Z</time></trkpt>
<trkpt lat="48.3514380" lon="-1.9250460"><ele></ele><time>2017-12-16T0:57:51Z</time></trkpt>
<trkpt lat="48.3514810" lon="-1.9250400"><ele></ele><time>2017-12-16T0:57:54Z</time></trkpt>
<trkpt lat="48.3515270" lon="-1.9250370"><ele></ele><time>2017-12-16T0:57:57Z</time></trkpt>
<trkpt lat="48.3515690" lon="-1.9250380"><ele></ele><time>2017-12-16T0:58:0Z</time></trkpt>
<trkpt lat="48.3516190" lon="-1.9250420"><ele></ele><time>2017-12-16T0:58:3Z</time></trkpt>
<trkpt lat="48.3516670" lon="-1.9250300"><ele></ele><time>2017-12-16T0:58:6Z</time></trkpt>
<trkpt lat="48.3516990" lon="-1.9250390"><ele></ele><time>2017-12-16T0:58:9Z</time></trkpt>
<trkpt lat="48.3517490" lon="-1.9250390"><ele></ele><time>2017-12-16T0:58:12Z</time></trkpt>
<trkpt lat="48.3518000" lon="-1.9250440"><ele></ele><time>2017-12-16T0:58:15Z</time></trkpt>
<trkpt lat="48.3518440" lon="-1.9250550"><ele></ele><time>2017-12-16T0:58:18Z</time></trkpt>
<trkpt lat="48.3518920" lon="-1.9250480"><ele></ele><time>2017-12-16T0:58:21Z</time></trkpt>
<trkpt lat="48.3519290" lon="-1.9250460"><ele></ele><time>2017-12-16T0:58:24Z</time></trkpt>
<trkpt lat="48.3519830" lon="-1.9250630"><ele></ele><time>2017-12-16T0:58:27Z</time></trkpt>
<trkpt lat="48.3520340" lon="-1.9250710"><ele></ele><time>2017-12-16T0:58:30Z</time></trkpt>
<trkpt lat="48.3520830" lon="-1.9250850"><ele></ele><time>2017-12-16T0:58:33Z</time></trkpt>
<trkpt lat="48.3521370" lon="-1.9250910"><ele></ele><time>2017-12-16T0:58:36Z</time></trkpt>
<trkpt lat="48.3521850" lon="-1.9251030"><ele></ele><time>2017-12-16T0:58:39Z</time></trkpt>
<trkpt lat="48.3522350" lon="-1.9251040"><ele></ele><time>2017-12-16T0:58:42Z</time></trkpt>
<trkpt lat="48.3522810" lon="-1.9251160"><ele></ele><time>2017-12-16T0:58:45Z</time></trkpt>
<trkpt lat="48.3523310" lon="-1.9251250"><ele></ele><time>2017-12-16T0:58:48Z</time></trkpt>
<trkpt lat="48.3523800" lon="-1.9251350"><ele></ele><time>2017-12-16T0:58:51Z</time></trkpt>
<trkpt lat="48.3524340" lon="-1.9251410"><ele></ele><time>2017-12-16T0:58:54Z</time></trkpt>
<trkpt lat="48.3524820" lon="-1.9251470"><ele></ele><time>2017-12-16T0:58:57Z</time></trkpt>
<trkpt lat="48.3525310" lon="-1.9251570"><ele></ele><time>2017-12-16T0:59:0Z</time></trkpt>
<trkpt lat="48.3525820" lon="-1.9251680"><ele></ele><time>2017-12-16T0:59:3Z</time></trkpt>
<trkpt lat="48.3526250" lon="-1.9251690"><ele></ele><time>2017-12-16T0:59:6Z</time></trkpt>
<trkpt lat="48.3526730" lon="-1.9251870"><ele></ele><time>2017-12-16T0:59:9Z</time></trkpt>
<trkpt lat="48.3527210" lon="-1.9251950"><ele></ele><time>2017-12-16T0:59:12Z</time></trkpt>
<trkpt lat="48.3527680" lon="-1.9252080"><ele></ele><time>2017-12-16T0:59:15Z</time></trkpt>
<trkpt lat="48.3528220" lon="-1.9252210"><ele></ele><time>2017-12-16T0:59:18Z</time></trkpt>
<trkpt lat="48.3528700" lon="-1.9252290"><ele></ele><time>2017-12-16T0:59:21Z</time></trkpt>
<trkpt lat="48.3529160" lon="-1.9252410"><ele></ele><time>2017-12-16T0:59:24Z</time></trkpt>
<trkpt lat="48.3529600" lon="-1.9252420"><ele></ele><time>2017-12-16T0:59:27Z</time></trkpt>
<trkpt lat="48.3530060" lon="-1.9252370"><ele></ele><time>2017-12-16T0:59:30Z</time></trkpt>
<trkpt lat="48.3530540" lon="-1.9252380"><ele></ele><time>2017-12-16T0:59:33Z</time></trkpt>
<trkpt lat="48.3531020" lon="-1.9252390"><ele></ele><time>2017-12-16T0:59:36Z</time></trkpt>
<trkpt lat="48.3531520" lon="-1.9252510"><ele></ele><time>2017-12-16T0:59:39Z</time></trkpt>
<trkpt lat="48.3531990" lon="-1.9252640"><ele></ele><time>2017-12-16T0:59:42Z</time></trkpt>
<trkpt lat="48.3532530" lon="-1.9252650"><ele></ele><time>2017-12-16T0:59:45Z</time></trkpt>
<trkpt lat="48.3533100" lon="-1.9252760"><ele></ele><time>2017-12-16T0:59:48Z</time></trkpt>
<trkpt lat="48.3533670" lon="-1.9252900"><ele></ele><time>2017-12-16T0:59:51Z</time></trkpt>
<trkpt lat="48.3534230" lon="-1.9252980"><ele></ele><time>2017-12-16T0:59:54Z</time></trkpt>
<trkpt lat="48.3534820" lon="-1.9253200"><ele></ele><time>2017-12-16T0:59:57Z</time></trkpt>
<trkpt lat="48.3535390" lon="-1.9253480"><ele></ele><time>2017-12-16T1:0:0Z</time></trkpt>
<trkpt lat="48.3535960" lon="-1.9253760"><ele></ele><time>2017-12-16T1:0:3Z</time></trkpt>
<trkpt lat="48.3536430" lon="-1.9254160"><ele></ele><time>2017-12-16T1:0:6Z</time></trkpt>
<trkpt lat="48.3536730" lon="-1.9254800"><ele></ele><time>2017-12-16T1:0:9Z</time></trkpt>
<trkpt lat="48.3536880" lon="-1.9255700"><ele></ele><time>2017-12-16T1:0:12Z</time></trkpt>
<trkpt lat="48.3536850" lon="-1.9256470"><ele></ele><time>2017-12-16T1:0:15Z</time></trkpt>
<trkpt lat="48.3536730" lon="-1.9257260"><ele></ele><time>2017-12-16T1:0:18Z</time></trkpt>
<trkpt lat="48.3536730" lon="-1.9258240"><ele></ele><time>2017-12-16T1:0:21Z</time></trkpt>
<trkpt lat="48.3537220" lon="-1.9258850"><ele></ele><time>2017-12-16T1:0:24Z</time></trkpt>
<trkpt lat="48.3537810" lon="-1.9259200"><ele></ele><time>2017-12-16T1:0:27Z</time></trkpt>
<trkpt lat="48.3538420" lon="-1.9259400"><ele></ele><time>2017-12-16T1:0:30Z</time></trkpt>
<trkpt lat="48.3539060" lon="-1.9259550"><ele></ele><time>2017-12-16T1:0:33Z</time></trkpt>
<trkpt lat="48.3539710" lon="-1.9259680"><ele></ele><time>2017-12-16T1:0:36Z</time></trkpt>
<trkpt lat="48.3540400" lon="-1.9259800"><ele></ele><time>2017-12-16T1:0:39Z</time></trkpt>
<trkpt lat="48.3541050" lon="-1.9259960"><ele></ele><time>2017-12-16T1:0:42Z</time></trkpt>
<trkpt lat="48.3541680" lon="-1.9260110"><ele></ele><time>2017-12-16T1:0:45Z</time></trkpt>
<trkpt lat="48.3542320" lon="-1.9260300"><ele></ele><time>2017-12-16T1:0:48Z</time></trkpt>
<trkpt lat="48.3542960" lon="-1.9260480"><ele></ele><time>2017-12-16T1:0:51Z</time></trkpt>
<trkpt lat="48.3543510" lon="-1.9260700"><ele></ele><time>2017-12-16T1:0:54Z</time></trkpt>
<trkpt lat="48.3544080" lon="-1.9260930"><ele></ele><time>2017-12-16T1:0:57Z</time></trkpt>
<trkpt lat="48.3544610" lon="-1.9261310"><ele></ele><time>2017-12-16T1:1:0Z</time></trkpt>
<trkpt lat="48.3545070" lon="-1.9261530"><ele></ele><time>2017-12-16T1:1:3Z</time></trkpt>
<trkpt lat="48.3545480" lon="-1.9261550"><ele></ele><time>2017-12-16T1:1:6Z</time></trkpt>
<trkpt lat="48.3545850" lon="-1.9261310"><ele></ele><time>2017-12-16T1:1:9Z</time></trkpt>
<trkpt lat="48.3546020" lon="-1.9260870"><ele></ele><time>2017-12-16T1:1:12Z</time></trkpt>
<trkpt lat="48.3546230" lon="-1.9260520"><ele></ele><time>2017-12-16T1:1:15Z</time></trkpt>
<trkpt lat="48.3546230" lon="-1.9259990"><ele></ele><time>2017-12-16T1:1:18Z</time></trkpt>
<trkpt lat="48.3546280" lon="-1.9259460"><ele></ele><time>2017-12-16T1:1:21Z</time></trkpt>
<trkpt lat="48.3546400" lon="-1.9258870"><ele></ele><time>2017-12-16T1:1:24Z</time></trkpt>
<trkpt lat="48.3546520" lon="-1.9258320"><ele></ele><time>2017-12-16T1:1:27Z</time></trkpt>
<trkpt lat="48.3546840" lon="-1.9257920"><ele></ele><time>2017-12-16T1:1:30Z</time></trkpt>
<trkpt lat="48.3547190" lon="-1.9257930"><ele></ele><time>2017-12-16T1:1:33Z</time></trkpt>
<trkpt lat="48.3547560" lon="-1.9258010"><ele></ele><time>2017-12-16T1:1:36Z</time></trkpt>
<trkpt lat="48.3547860" lon="-1.9258010"><ele></ele><time>2017-12-16T1:1:39Z</time></trkpt>
<trkpt lat="48.3548350" lon="-1.9257910"><ele></ele><time>2017-12-16T1:1:42Z</time></trkpt>
<trkpt lat="48.3548850" lon="-1.9257820"><ele></ele><time>2017-12-16T1:1:45Z</time></trkpt>
<trkpt lat="48.3549390" lon="-1.9257370"><ele></ele><time>2017-12-16T1:1:48Z</time></trkpt>
<trkpt lat="48.3549630" lon="-1.9257640"><ele></ele><time>2017-12-16T1:1:51Z</time></trkpt>
<trkpt lat="48.3550290" lon="-1.9257650"><ele></ele><time>2017-12-16T1:1:54Z</time></trkpt>
<trkpt lat="48.3550670" lon="-1.9257700"><ele></ele><time>2017-12-16T1:1:57Z</time></trkpt>
<trkpt lat="48.3551150" lon="-1.9257630"><ele></ele><time>2017-12-16T1:2:0Z</time></trkpt>
<trkpt lat="48.3551610" lon="-1.9257770"><ele></ele><time>2017-12-16T1:2:3Z</time></trkpt>
<trkpt lat="48.3552370" lon="-1.9257810"><ele></ele><time>2017-12-16T1:2:6Z</time></trkpt>
<trkpt lat="48.3552710" lon="-1.9257830"><ele></ele><time>2017-12-16T1:2:9Z</time></trkpt>
<trkpt lat="48.3553290" lon="-1.9258030"><ele></ele><time>2017-12-16T1:2:12Z</time></trkpt>
<trkpt lat="48.3553780" lon="-1.9258150"><ele></ele><time>2017-12-16T1:2:15Z</time></trkpt>
<trkpt lat="48.3554280" lon="-1.9258190"><ele></ele><time>2017-12-16T1:2:18Z</time></trkpt>
<trkpt lat="48.3554690" lon="-1.9258230"><ele></ele><time>2017-12-16T1:2:21Z</time></trkpt>
<trkpt lat="48.3555100" lon="-1.9258430"><ele></ele><time>2017-12-16T1:2:24Z</time></trkpt>
<trkpt lat="48.3555420" lon="-1.9258620"><ele></ele><time>2017-12-16T1:2:27Z</time></trkpt>
<trkpt lat="48.3555770" lon="-1.9258780"><ele></ele><time>2017-12-16T1:2:30Z</time></trkpt>
<trkpt lat="48.3556180" lon="-1.9259010"><ele></ele><time>2017-12-16T1:2:33Z</time></trkpt>
<trkpt lat="48.3556560" lon="-1.9259400"><ele></ele><time>2017-12-16T1:2:36Z</time></trkpt>
<trkpt lat="48.3557050" lon="-1.9259550"><ele></ele><time>2017-12-16T1:2:39Z</time></trkpt>
<trkpt lat="48.3557370" lon="-1.9259720"><ele></ele><time>2017-12-16T1:2:42Z</time></trkpt>
<trkpt lat="48.3557440" lon="-1.9259170"><ele></ele><time>2017-12-16T1:2:45Z</time></trkpt>
<trkpt lat="48.3557490" lon="-1.9258430"><ele></ele><time>2017-12-16T1:2:48Z</time></trkpt>
<trkpt lat="48.3557460" lon="-1.9257740"><ele></ele><time>2017-12-16T1:2:51Z</time></trkpt>
<trkpt lat="48.3557310" lon="-1.9256960"><ele></ele><time>2017-12-16T1:2:54Z</time></trkpt>
<trkpt lat="48.3557270" lon="-1.9256520"><ele></ele><time>2017-12-16T1:2:57Z</time></trkpt>
<trkpt lat="48.3557160" lon="-1.9256030"><ele></ele><time>2017-12-16T1:3:0Z</time></trkpt>
<trkpt lat="48.3557120" lon="-1.9255590"><ele></ele><time>2017-12-16T1:3:3Z</time></trkpt>
<trkpt lat="48.3557090" lon="-1.9254960"><ele></ele><time>2017-12-16T1:3:6Z</time></trkpt>
<trkpt lat="48.3556750" lon="-1.9254210"><ele></ele><time>2017-12-16T1:3:9Z</time></trkpt>
<trkpt lat="48.3556450" lon="-1.9253690"><ele></ele><time>2017-12-16T1:3:12Z</time></trkpt>
<trkpt lat="48.3556270" lon="-1.9252930"><ele></ele><time>2017-12-16T1:3:15Z</time></trkpt>
<trkpt lat="48.3556300" lon="-1.9252510"><ele></ele><time>2017-12-16T1:3:18Z</time></trkpt>
<trkpt lat="48.3556210" lon="-1.9251690"><ele></ele><time>2017-12-16T1:3:21Z</time></trkpt>
<trkpt lat="48.3556090" lon="-1.9251150"><ele></ele><time>2017-12-16T1:3:24Z</time></trkpt>
<trkpt lat="48.3556050" lon="-1.9250580"><ele></ele><time>2017-12-16T1:3:27Z</time></trkpt>
<trkpt lat="48.3555940" lon="-1.9250040"><ele></ele><time>2017-12-16T1:3:30Z</time></trkpt>
<trkpt lat="48.3556000" lon="-1.9249430"><ele></ele><time>2017-12-16T1:3:33Z</time></trkpt>
<trkpt lat="48.3556120" lon="-1.9248830"><ele></ele><time>2017-12-16T1:3:36Z</time></trkpt>
<trkpt lat="48.3556150" lon="-1.9248200"><ele></ele><time>2017-12-16T1:3:39Z</time></trkpt>
<trkpt lat="48.3556190" lon="-1.9247550"><ele></ele><time>2017-12-16T1:3:42Z</time></trkpt>
<trkpt lat="48.3556070" lon="-1.9247170"><ele></ele><time>2017-12-16T1:3:45Z</time></trkpt>
<trkpt lat="48.3555860" lon="-1.9246680"><ele></ele><time>2017-12-16T1:3:48Z</time></trkpt>
<trkpt lat="48.3555690" lon="-1.9246180"><ele></ele><time>2017-12-16T1:3:51Z</time></trkpt>
<trkpt lat="48.3555580" lon="-1.9245650"><ele></ele><time>2017-12-16T1:3:54Z</time></trkpt>
<trkpt lat="48.3555380" lon="-1.9245100"><ele></ele><time>2017-12-16T1:3:57Z</time></trkpt>
<trkpt lat="48.3555360" lon="-1.9244640"><ele></ele><time>2017-12-16T1:4:0Z</time></trkpt>
<trkpt lat="48.3555110" lon="-1.9244120"><ele></ele><time>2017-12-16T1:4:3Z</time></trkpt>
<trkpt lat="48.3555010" lon="-1.9243600"><ele></ele><time>2017-12-16T1:4:6Z</time></trkpt>
<trkpt lat="48.3554840" lon="-1.9243040"><ele></ele><time>2017-12-16T1:4:9Z</time></trkpt>
<trkpt lat="48.3554730" lon="-1.9242450"><ele></ele><time>2017-12-16T1:4:12Z</time></trkpt>
<trkpt lat="48.3554620" lon="-1.9241860"><ele></ele><time>2017-12-16T1:4:15Z</time></trkpt>
<trkpt lat="48.3554390" lon="-1.9241330"><ele></ele><time>2017-12-16T1:4:18Z</time></trkpt>
<trkpt lat="48.3554300" lon="-1.9240740"><ele></ele><time>2017-12-16T1:4:21Z</time></trkpt>
<trkpt lat="48.3554140" lon="-1.9240280"><ele></ele><time>2017-12-16T1:4:24Z</time></trkpt>
<trkpt lat="48.3553940" lon="-1.9239530"><ele></ele><time>2017-12-16T1:4:27Z</time></trkpt>
<trkpt lat="48.3554020" lon="-1.9238740"><ele></ele><time>2017-12-16T1:4:30Z</time></trkpt>
<trkpt lat="48.3554020" lon="-1.9238160"><ele></ele><time>2017-12-16T1:4:33Z</time></trkpt>
<trkpt lat="48.3553930" lon="-1.9237590"><ele></ele><time>2017-12-16T1:4:36Z</time></trkpt>
<trkpt lat="48.3553890" lon="-1.9237130"><ele></ele><time>2017-12-16T1:4:39Z</time></trkpt>
<trkpt lat="48.3553850" lon="-1.9236500"><ele></ele><time>2017-12-16T1:4:42Z</time></trkpt>
<trkpt lat="48.3553610" lon="-1.9235720"><ele></ele><time>2017-12-16T1:4:45Z</time></trkpt>
<trkpt lat="48.3553610" lon="-1.9235080"><ele></ele><time>2017-12-16T1:4:48Z</time></trkpt>
<trkpt lat="48.3553560" lon="-1.9234470"><ele></ele><time>2017-12-16T1:4:51Z</time></trkpt>
<trkpt lat="48.3553440" lon="-1.9233930"><ele></ele><time>2017-12-16T1:4:54Z</time></trkpt>
<trkpt lat="48.3553300" lon="-1.9233350"><ele></ele><time>2017-12-16T1:4:57Z</time></trkpt>
<trkpt lat="48.3553080" lon="-1.9232900"><ele></ele><time>2017-12-16T1:5:0Z</time></trkpt>
<trkpt lat="48.3552960" lon="-1.9232290"><ele></ele><time>2017-12-16T1:5:3Z</time></trkpt>
<trkpt lat="48.3552840" lon="-1.9231470"><ele></ele><time>2017-12-16T1:5:6Z</time></trkpt>
<trkpt lat="48.3552850" lon="-1.9230790"><ele></ele><time>2017-12-16T1:5:9Z</time></trkpt>
<trkpt lat="48.3552800" lon="-1.9230070"><ele></ele><time>2017-12-16T1:5:12Z</time></trkpt>
<trkpt lat="48.3552650" lon="-1.9229590"><ele></ele><time>2017-12-16T1:5:15Z</time></trkpt>
<trkpt lat="48.3552610" lon="-1.9228940"><ele></ele><time>2017-12-16T1:5:18Z</time></trkpt>
<trkpt lat="48.3552720" lon="-1.9228400"><ele></ele><time>2017-12-16T1:5:21Z</time></trkpt>
<trkpt lat="48.3552870" lon="-1.9227970"><ele></ele><time>2017-12-16T1:5:24Z</time></trkpt>
<trkpt lat="48.3552820" lon="-1.9227550"><ele></ele><time>2017-12-16T1:5:27Z</time></trkpt>
<trkpt lat="48.3552650" lon="-1.9227140"><ele></ele><time>2017-12-16T1:5:30Z</time></trkpt>
<trkpt lat="48.3552470" lon="-1.9226510"><ele></ele><time>2017-12-16T1:5:33Z</time></trkpt>
<trkpt lat="48.3552530" lon="-1.9225730"><ele></ele><time>2017-12-16T1:5:36Z</time></trkpt>
<trkpt lat="48.3552690" lon="-1.9224990"><ele></ele><time>2017-12-16T1:5:39Z</time></trkpt>
<trkpt lat="48.3552730" lon="-1.9224240"><ele></ele><time>2017-12-16T1:5:42Z</time></trkpt>
<trkpt lat="48.3553250" lon="-1.9223460"><ele></ele><time>2017-12-16T1:5:45Z</time></trkpt>
<trkpt lat="48.3553760" lon="-1.9222760"><ele></ele><time>2017-12-16T1:5:48Z</time></trkpt>
<trkpt lat="48.3554300" lon="-1.9222250"><ele></ele><time>2017-12-16T1:5:51Z</time></trkpt>
<trkpt lat="48.3554900" lon="-1.9221990"><ele></ele><time>2017-12-16T1:5:54Z</time></trkpt>
<trkpt lat="48.3555220" lon="-1.9221520"><ele></ele><time>2017-12-16T1:5:57Z</time></trkpt>
<trkpt lat="48.3555550" lon="-1.9221120"><ele></ele><time>2017-12-16T1:6:0Z</time></trkpt>
<trkpt lat="48.3555780" lon="-1.9220580"><ele></ele><time>2017-12-16T1:6:3Z</time></trkpt>
<trkpt lat="48.3556130" lon="-1.9220130"><ele></ele><time>2017-12-16T1:6:6Z</time></trkpt>
<trkpt lat="48.3556580" lon="-1.9219610"><ele></ele><time>2017-12-16T1:6:9Z</time></trkpt>
<trkpt lat="48.3556900" lon="-1.9219310"><ele></ele><time>2017-12-16T1:6:12Z</time></trkpt>
<trkpt lat="48.3557300" lon="-1.9218700"><ele></ele><time>2017-12-16T1:6:15Z</time></trkpt>
<trkpt lat="48.3557620" lon="-1.9218310"><ele></ele><time>2017-12-16T1:6:18Z</time></trkpt>
<trkpt lat="48.3557800" lon="-1.9217930"><ele></ele><time>2017-12-16T1:6:21Z</time></trkpt>
<trkpt lat="48.3558230" lon="-1.9217670"><ele></ele><time>2017-12-16T1:6:24Z</time></trkpt>
<trkpt lat="48.3558570" lon="-1.9217310"><ele></ele><time>2017-12-16T1:6:27Z</time></trkpt>
<trkpt lat="48.3559010" lon="-1.9217160"><ele></ele><time>2017-12-16T1:6:30Z</time></trkpt>
<trkpt lat="48.3559280" lon="-1.9216860"><ele></ele><time>2017-12-16T1:6:33Z</time></trkpt>
<trkpt lat="48.3559790" lon="-1.9216600"><ele></ele><time>2017-12-16T1:6:36Z</time></trkpt>
<trkpt lat="48.3560260" lon="-1.9216150"><ele></ele><time>2017-12-16T1:6:39Z</time></trkpt>
<trkpt lat="48.3560720" lon="-1.9215700"><ele></ele><time>2017-12-16T1:6:42Z</time></trkpt>
<trkpt lat="48.3561290" lon="-1.9215340"><ele></ele><time>2017-12-16T1:6:45Z</time></trkpt>
<trkpt lat="48.3561750" lon="-1.9214990"><ele></ele><time>2017-12-16T1:6:48Z</time></trkpt>
<trkpt lat="48.3562020" lon="-1.9214590"><ele></ele><time>2017-12-16T1:6:51Z</time></trkpt>
<trkpt lat="48.3562260" lon="-1.9214220"><ele></ele><time>2017-12-16T1:6:54Z</time></trkpt>
<trkpt lat="48.3562570" lon="-1.9213780"><ele></ele><time>2017-12-16T1:6:57Z</time></trkpt>
<trkpt lat="48.3563030" lon="-1.9213460"><ele></ele><time>2017-12-16T1:7:0Z</time></trkpt>
<trkpt lat="48.3563380" lon="-1.9213030"><ele></ele><time>2017-12-16T1:7:3Z</time></trkpt>
<trkpt lat="48.3563710" lon="-1.9212680"><ele></ele><time>2017-12-16T1:7:6Z</time></trkpt>
<trkpt lat="48.3564110" lon="-1.9212360"><ele></ele><time>2017-12-16T1:7:9Z</time></trkpt>
<trkpt lat="48.3564490" lon="-1.9212060"><ele></ele><time>2017-12-16T1:7:12Z</time></trkpt>
<trkpt lat="48.3564790" lon="-1.9211910"><ele></ele><time>2017-12-16T1:7:15Z</time></trkpt>
<trkpt lat="48.3565160" lon="-1.9211390"><ele></ele><time>2017-12-16T1:7:18Z</time></trkpt>
<trkpt lat="48.3565560" lon="-1.9211110"><ele></ele><time>2017-12-16T1:7:21Z</time></trkpt>
<trkpt lat="48.3565940" lon="-1.9210900"><ele></ele><time>2017-12-16T1:7:24Z</time></trkpt>
<trkpt lat="48.3566310" lon="-1.9210480"><ele></ele><time>2017-12-16T1:7:27Z</time></trkpt>
<trkpt lat="48.3566720" lon="-1.9210170"><ele></ele><time>2017-12-16T1:7:30Z</time></trkpt>
<trkpt lat="48.3567060" lon="-1.9209640"><ele></ele><time>2017-12-16T1:7:33Z</time></trkpt>
<trkpt lat="48.3567430" lon="-1.9209370"><ele></ele><time>2017-12-16T1:7:36Z</time></trkpt>
<trkpt lat="48.3567860" lon="-1.9209070"><ele></ele><time>2017-12-16T1:7:39Z</time></trkpt>
<trkpt lat="48.3568200" lon="-1.9208700"><ele></ele><time>2017-12-16T1:7:42Z</time></trkpt>
<trkpt lat="48.3568610" lon="-1.9208370"><ele></ele><time>2017-12-16T1:7:45Z</time></trkpt>
<trkpt lat="48.3569010" lon="-1.9207970"><ele></ele><time>2017-12-16T1:7:48Z</time></trkpt>
<trkpt lat="48.3569380" lon="-1.9207630"><ele></ele><time>2017-12-16T1:7:51Z</time></trkpt>
<trkpt lat="48.3569750" lon="-1.9207320"><ele></ele><time>2017-12-16T1:7:54Z</time></trkpt>
<trkpt lat="48.3570120" lon="-1.9206890"><ele></ele><time>2017-12-16T1:7:57Z</time></trkpt>
<trkpt lat="48.3570470" lon="-1.9206480"><ele></ele><time>2017-12-16T1:8:0Z</time></trkpt>
<trkpt lat="48.3570870" lon="-1.9206080"><ele></ele><time>2017-12-16T1:8:3Z</time></trkpt>
<trkpt lat="48.3571270" lon="-1.9205720"><ele></ele><time>2017-12-16T1:8:6Z</time></trkpt>
<trkpt lat="48.3571690" lon="-1.9205470"><ele></ele><time>2017-12-16T1:8:9Z</time></trkpt>
<trkpt lat="48.3572100" lon="-1.9205030"><ele></ele><time>2017-12-16T1:8:12Z</time></trkpt>
<trkpt lat="48.3572500" lon="-1.9204780"><ele></ele><time>2017-12-16T1:8:15Z</time></trkpt>
<trkpt lat="48.3572920" lon="-1.9204180"><ele></ele><time>2017-12-16T1:8:18Z</time></trkpt>
<trkpt lat="48.3573340" lon="-1.9203720"><ele></ele><time>2017-12-16T1:8:21Z</time></trkpt>
<trkpt lat="48.3573760" lon="-1.9203250"><ele></ele><time>2017-12-16T1:8:24Z</time></trkpt>
<trkpt lat="48.3574190" lon="-1.9202710"><ele></ele><time>2017-12-16T1:8:27Z</time></trkpt>
<trkpt lat="48.3574640" lon="-1.9202240"><ele></ele><time>2017-12-16T1:8:30Z</time></trkpt>
<trkpt lat="48.3575080" lon="-1.9201790"><ele></ele><time>2017-12-16T1:8:33Z</time></trkpt>
<trkpt lat="48.3575500" lon="-1.9201320"><ele></ele><time>2017-12-16T1:8:36Z</time></trkpt>
<trkpt lat="48.3575970" lon="-1.9200950"><ele></ele><time>2017-12-16T1:8:39Z</time></trkpt>
<trkpt lat="48.3576460" lon="-1.9200450"><ele></ele><time>2017-12-16T1:8:42Z</time></trkpt>
<trkpt lat="48.3576970" lon="-1.9200000"><ele></ele><time>2017-12-16T1:8:45Z</time></trkpt>
<trkpt lat="48.3577450" lon="-1.9199550"><ele></ele><time>2017-12-16T1:8:48Z</time></trkpt>
<trkpt lat="48.3577980" lon="-1.9199300"><ele></ele><time>2017-12-16T1:8:51Z</time></trkpt>
<trkpt lat="48.3578500" lon="-1.9198930"><ele></ele><time>2017-12-16T1:8:54Z</time></trkpt>
<trkpt lat="48.3579060" lon="-1.9198640"><ele></ele><time>2017-12-16T1:8:57Z</time></trkpt>
<trkpt lat="48.3579600" lon="-1.9198270"><ele></ele><time>2017-12-16T1:9:0Z</time></trkpt>
<trkpt lat="48.3580120" lon="-1.9197940"><ele></ele><time>2017-12-16T1:9:3Z</time></trkpt>
<trkpt lat="48.3580620" lon="-1.9197540"><ele></ele><time>2017-12-16T1:9:6Z</time></trkpt>
<trkpt lat="48.3581100" lon="-1.9197170"><ele></ele><time>2017-12-16T1:9:9Z</time></trkpt>
<trkpt lat="48.3581570" lon="-1.9196860"><ele></ele><time>2017-12-16T1:9:12Z</time></trkpt>
<trkpt lat="48.3581970" lon="-1.9196490"><ele></ele><time>2017-12-16T1:9:15Z</time></trkpt>
<trkpt lat="48.3582360" lon="-1.9196070"><ele></ele><time>2017-12-16T1:9:18Z</time></trkpt>
<trkpt lat="48.3582770" lon="-1.9195680"><ele></ele><time>2017-12-16T1:9:21Z</time></trkpt>
<trkpt lat="48.3583240" lon="-1.9195240"><ele></ele><time>2017-12-16T1:9:24Z</time></trkpt>
<trkpt lat="48.3583700" lon="-1.9194860"><ele></ele><time>2017-12-16T1:9:27Z</time></trkpt>
<trkpt lat="48.3584120" lon="-1.9194500"><ele></ele><time>2017-12-16T1:9:30Z</time></trkpt>
<trkpt lat="48.3584530" lon="-1.9194140"><ele></ele><time>2017-12-16T1:9:33Z</time></trkpt>
<trkpt lat="48.3584910" lon="-1.9193860"><ele></ele><time>2017-12-16T1:9:36Z</time></trkpt>
<trkpt lat="48.3585310" lon="-1.9193450"><ele></ele><time>2017-12-16T1:9:39Z</time></trkpt>
<trkpt lat="48.3585630" lon="-1.9193630"><ele></ele><time>2017-12-16T1:9:42Z</time></trkpt>
<trkpt lat="48.3585910" lon="-1.9193580"><ele></ele><time>2017-12-16T1:9:45Z</time></trkpt>
<trkpt lat="48.3586320" lon="-1.9193430"><ele></ele><time>2017-12-16T1:9:48Z</time></trkpt>
<trkpt lat="48.3586760" lon="-1.9193100"><ele></ele><time>2017-12-16T1:9:51Z</time></trkpt>
<trkpt lat="48.3587290" lon="-1.9192800"><ele></ele><time>2017-12-16T1:9:54Z</time></trkpt>
<trkpt lat="48.3587800" lon="-1.9192390"><ele></ele><time>2017-12-16T1:9:57Z</time></trkpt>
<trkpt lat="48.3588470" lon="-1.9191860"><ele></ele><time>2017-12-16T1:10:0Z</time></trkpt>
<trkpt lat="48.3589030" lon="-1.9191450"><ele></ele><time>2017-12-16T1:10:3Z</time></trkpt>
<trkpt lat="48.3589690" lon="-1.9191020"><ele></ele><time>2017-12-16T1:10:6Z</time></trkpt>
<trkpt lat="48.3590310" lon="-1.9190630"><ele></ele><time>2017-12-16T1:10:9Z</time></trkpt>
<trkpt lat="48.3590930" lon="-1.9190180"><ele></ele><time>2017-12-16T1:10:12Z</time></trkpt>
<trkpt lat="48.3591610" lon="-1.9189790"><ele></ele><time>2017-12-16T1:10:15Z</time></trkpt>
<trkpt lat="48.3592220" lon="-1.9189360"><ele></ele><time>2017-12-16T1:10:18Z</time></trkpt>
<trkpt lat="48.3592830" lon="-1.9188940"><ele></ele><time>2017-12-16T1:10:21Z</time></trkpt>
<trkpt lat="48.3593500" lon="-1.9188520"><ele></ele><time>2017-12-16T1:10:24Z</time></trkpt>
<trkpt lat="48.3594190" lon="-1.9188100"><ele></ele><time>2017-12-16T1:10:27Z</time></trkpt>
<trkpt lat="48.3594810" lon="-1.9187770"><ele></ele><time>2017-12-16T1:10:30Z</time></trkpt>
<trkpt lat="48.3595400" lon="-1.9187300"><ele></ele><time>2017-12-16T1:10:33Z</time></trkpt>
<trkpt lat="48.3596020" lon="-1.9186790"><ele></ele><time>2017-12-16T1:10:36Z</time></trkpt>
<trkpt lat="48.3596620" lon="-1.9186490"><ele></ele><time>2017-12-16T1:10:39Z</time></trkpt>
<trkpt lat="48.3597180" lon="-1.9185970"><ele></ele><time>2017-12-16T1:10:42Z</time></trkpt>
<trkpt lat="48.3597770" lon="-1.9185590"><ele></ele><time>2017-12-16T1:10:45Z</time></trkpt>
<trkpt lat="48.3598400" lon="-1.9185340"><ele></ele><time>2017-12-16T1:10:48Z</time></trkpt>
<trkpt lat="48.3599110" lon="-1.9185120"><ele></ele><time>2017-12-16T1:10:51Z</time></trkpt>
<trkpt lat="48.3599790" lon="-1.9184750"><ele></ele><time>2017-12-16T1:10:54Z</time></trkpt>
<trkpt lat="48.3600460" lon="-1.9184360"><ele></ele><time>2017-12-16T1:10:57Z</time></trkpt>
<trkpt lat="48.3601060" lon="-1.9184010"><ele></ele><time>2017-12-16T1:11:0Z</time></trkpt>
<trkpt lat="48.3601710" lon="-1.9183600"><ele></ele><time>2017-12-16T1:11:3Z</time></trkpt>
<trkpt lat="48.3602360" lon="-1.9183190"><ele></ele><time>2017-12-16T1:11:6Z</time></trkpt>
<trkpt lat="48.3602980" lon="-1.9182790"><ele></ele><time>2017-12-16T1:11:9Z</time></trkpt>
<trkpt lat="48.3603650" lon="-1.9182390"><ele></ele><time>2017-12-16T1:11:12Z</time></trkpt>
<trkpt lat="48.3604240" lon="-1.9182030"><ele></ele><time>2017-12-16T1:11:15Z</time></trkpt>
<trkpt lat="48.3604910" lon="-1.9181630"><ele></ele><time>2017-12-16T1:11:18Z</time></trkpt>
<trkpt lat="48.3605440" lon="-1.9181120"><ele></ele><time>2017-12-16T1:11:21Z</time></trkpt>
<trkpt lat="48.3606100" lon="-1.9180830"><ele></ele><time>2017-12-16T1:11:24Z</time></trkpt>
<trkpt lat="48.3606690" lon="-1.9180530"><ele></ele><time>2017-12-16T1:11:27Z</time></trkpt>
<trkpt lat="48.3607240" lon="-1.9180140"><ele></ele><time>2017-12-16T1:11:30Z</time></trkpt>
<trkpt lat="48.3607720" lon="-1.9179760"><ele></ele><time>2017-12-16T1:11:33Z</time></trkpt>
<trkpt lat="48.3608400" lon="-1.9179380"><ele></ele><time>2017-12-16T1:11:36Z</time></trkpt>
<trkpt lat="48.3608950" lon="-1.9178920"><ele></ele><time>2017-12-16T1:11:39Z</time></trkpt>
<trkpt lat="48.3609660" lon="-1.9178510"><ele></ele><time>2017-12-16T1:11:42Z</time></trkpt>
<trkpt lat="48.3610300" lon="-1.9178110"><ele></ele><time>2017-12-16T1:11:45Z</time></trkpt>
<trkpt lat="48.3610900" lon="-1.9177830"><ele></ele><time>2017-12-16T1:11:48Z</time></trkpt>
<trkpt lat="48.3611530" lon="-1.9177500"><ele></ele><time>2017-12-16T1:11:51Z</time></trkpt>
<trkpt lat="48.3612060" lon="-1.9177270"><ele></ele><time>2017-12-16T1:11:54Z</time></trkpt>
<trkpt lat="48.3612610" lon="-1.9176700"><ele></ele><time>2017-12-16T1:11:57Z</time></trkpt>
<trkpt lat="48.3613290" lon="-1.9176400"><ele></ele><time>2017-12-16T1:12:0Z</time></trkpt>
<trkpt lat="48.3613930" lon="-1.9175870"><ele></ele><time>2017-12-16T1:12:3Z</time></trkpt>
<trkpt lat="48.3614590" lon="-1.9175550"><ele></ele><time>2017-12-16T1:12:6Z</time></trkpt>
<trkpt lat="48.3615240" lon="-1.9175260"><ele></ele><time>2017-12-16T1:12:9Z</time></trkpt>
<trkpt lat="48.3615880" lon="-1.9175050"><ele></ele><time>2017-12-16T1:12:12Z</time></trkpt>
<trkpt lat="48.3616560" lon="-1.9174750"><ele></ele><time>2017-12-16T1:12:15Z</time></trkpt>
<trkpt lat="48.3617190" lon="-1.9174540"><ele></ele><time>2017-12-16T1:12:18Z</time></trkpt>
<trkpt lat="48.3617790" lon="-1.9174370"><ele></ele><time>2017-12-16T1:12:21Z</time></trkpt>
<trkpt lat="48.3618430" lon="-1.9174140"><ele></ele><time>2017-12-16T1:12:24Z</time></trkpt>
<trkpt lat="48.3619120" lon="-1.9173830"><ele></ele><time>2017-12-16T1:12:27Z</time></trkpt>
<trkpt lat="48.3619720" lon="-1.9173630"><ele></ele><time>2017-12-16T1:12:30Z</time></trkpt>
<trkpt lat="48.3620280" lon="-1.9173410"><ele></ele><time>2017-12-16T1:12:33Z</time></trkpt>
<trkpt lat="48.3620800" lon="-1.9173250"><ele></ele><time>2017-12-16T1:12:36Z</time></trkpt>
<trkpt lat="48.3621500" lon="-1.9173210"><ele></ele><time>2017-12-16T1:12:39Z</time></trkpt>
<trkpt lat="48.3622190" lon="-1.9173180"><ele></ele><time>2017-12-16T1:12:42Z</time></trkpt>
<trkpt lat="48.3622750" lon="-1.9173320"><ele></ele><time>2017-12-16T1:12:45Z</time></trkpt>
<trkpt lat="48.3623320" lon="-1.9173300"><ele></ele><time>2017-12-16T1:12:48Z</time></trkpt>
<trkpt lat="48.3623860" lon="-1.9173270"><ele></ele><time>2017-12-16T1:12:51Z</time></trkpt>
<trkpt lat="48.3624440" lon="-1.9173120"><ele></ele><time>2017-12-16T1:12:54Z</time></trkpt>
<trkpt lat="48.3625210" lon="-1.9173100"><ele></ele><time>2017-12-16T1:12:57Z</time></trkpt>
<trkpt lat="48.3625780" lon="-1.9173110"><ele></ele><time>2017-12-16T1:13:0Z</time></trkpt>
<trkpt lat="48.3626420" lon="-1.9173190"><ele></ele><time>2017-12-16T1:13:3Z</time></trkpt>
<trkpt lat="48.3627040" lon="-1.9173170"><ele></ele><time>2017-12-16T1:13:6Z</time></trkpt>
<trkpt lat="48.3627650" lon="-1.9173380"><ele></ele><time>2017-12-16T1:13:9Z</time></trkpt>
<trkpt lat="48.3628160" lon="-1.9173830"><ele></ele><time>2017-12-16T1:13:12Z</time></trkpt>
<trkpt lat="48.3628410" lon="-1.9174370"><ele></ele><time>2017-12-16T1:13:15Z</time></trkpt>
<trkpt lat="48.3628500" lon="-1.9175030"><ele></ele><time>2017-12-16T1:13:18Z</time></trkpt>
<trkpt lat="48.3628520" lon="-1.9175740"><ele></ele><time>2017-12-16T1:13:21Z</time></trkpt>
<trkpt lat="48.3628460" lon="-1.9176500"><ele></ele><time>2017-12-16T1:13:24Z</time></trkpt>
<trkpt lat="48.3628400" lon="-1.9177240"><ele></ele><time>2017-12-16T1:13:27Z</time></trkpt>
<trkpt lat="48.3628340" lon="-1.9178020"><ele></ele><time>2017-12-16T1:13:30Z</time></trkpt>
<trkpt lat="48.3628240" lon="-1.9178770"><ele></ele><time>2017-12-16T1:13:33Z</time></trkpt>
<trkpt lat="48.3628160" lon="-1.9179510"><ele></ele><time>2017-12-16T1:13:36Z</time></trkpt>
<trkpt lat="48.3628120" lon="-1.9180210"><ele></ele><time>2017-12-16T1:13:39Z</time></trkpt>
<trkpt lat="48.3628070" lon="-1.9180860"><ele></ele><time>2017-12-16T1:13:42Z</time></trkpt>
<trkpt lat="48.3628030" lon="-1.9181510"><ele></ele><time>2017-12-16T1:13:45Z</time></trkpt>
<trkpt lat="48.3627980" lon="-1.9182110"><ele></ele><time>2017-12-16T1:13:48Z</time></trkpt>
<trkpt lat="48.3627920" lon="-1.9182710"><ele></ele><time>2017-12-16T1:13:51Z</time></trkpt>
<trkpt lat="48.3627910" lon="-1.9183250"><ele></ele><time>2017-12-16T1:13:54Z</time></trkpt>
<trkpt lat="48.3627990" lon="-1.9183750"><ele></ele><time>2017-12-16T1:13:57Z</time></trkpt>
<trkpt lat="48.3628120" lon="-1.9184210"><ele></ele><time>2017-12-16T1:14:0Z</time></trkpt>
<trkpt lat="48.3628450" lon="-1.9184400"><ele></ele><time>2017-12-16T1:14:3Z</time></trkpt>
<trkpt lat="48.3628750" lon="-1.9184310"><ele></ele><time>2017-12-16T1:14:6Z</time></trkpt>
<trkpt lat="48.3629170" lon="-1.9184160"><ele></ele><time>2017-12-16T1:14:9Z</time></trkpt>
<trkpt lat="48.3629600" lon="-1.9183950"><ele></ele><time>2017-12-16T1:14:12Z</time></trkpt>
<trkpt lat="48.3630130" lon="-1.9183860"><ele></ele><time>2017-12-16T1:14:15Z</time></trkpt>
<trkpt lat="48.3630670" lon="-1.9183740"><ele></ele><time>2017-12-16T1:14:18Z</time></trkpt>
<trkpt lat="48.3631230" lon="-1.9183690"><ele></ele><time>2017-12-16T1:14:21Z</time></trkpt>
<trkpt lat="48.3631760" lon="-1.9183480"><ele></ele><time>2017-12-16T1:14:24Z</time></trkpt>
<trkpt lat="48.3632330" lon="-1.9183180"><ele></ele><time>2017-12-16T1:14:27Z</time></trkpt>
<trkpt lat="48.3632910" lon="-1.9182780"><ele></ele><time>2017-12-16T1:14:30Z</time></trkpt>
<trkpt lat="48.3633440" lon="-1.9182260"><ele></ele><time>2017-12-16T1:14:33Z</time></trkpt>
<trkpt lat="48.3634000" lon="-1.9181800"><ele></ele><time>2017-12-16T1:14:36Z</time></trkpt>
<trkpt lat="48.3634570" lon="-1.9181380"><ele></ele><time>2017-12-16T1:14:39Z</time></trkpt>
<trkpt lat="48.3635030" lon="-1.9180950"><ele></ele><time>2017-12-16T1:14:42Z</time></trkpt>
<trkpt lat="48.3635550" lon="-1.9180380"><ele></ele><time>2017-12-16T1:14:45Z</time></trkpt>
<trkpt lat="48.3636060" lon="-1.9179930"><ele></ele><time>2017-12-16T1:14:48Z</time></trkpt>
<trkpt lat="48.3636680" lon="-1.9179750"><ele></ele><time>2017-12-16T1:14:51Z</time></trkpt>
<trkpt lat="48.3637260" lon="-1.9179400"><ele></ele><time>2017-12-16T1:14:54Z</time></trkpt>
<trkpt lat="48.3637850" lon="-1.9179040"><ele></ele><time>2017-12-16T1:14:57Z</time></trkpt>
<trkpt lat="48.3638470" lon="-1.9178720"><ele></ele><time>2017-12-16T1:15:0Z</time></trkpt>
<trkpt lat="48.3638990" lon="-1.9178350"><ele></ele><time>2017-12-16T1:15:3Z</time></trkpt>
<trkpt lat="48.3639630" lon="-1.9178110"><ele></ele><time>2017-12-16T1:15:6Z</time></trkpt>
<trkpt lat="48.3640230" lon="-1.9177820"><ele></ele><time>2017-12-16T1:15:9Z</time></trkpt>
<trkpt lat="48.3640850" lon="-1.9177550"><ele></ele><time>2017-12-16T1:15:12Z</time></trkpt>
<trkpt lat="48.3641430" lon="-1.9177170"><ele></ele><time>2017-12-16T1:15:15Z</time></trkpt>
<trkpt lat="48.3641970" lon="-1.9176850"><ele></ele><time>2017-12-16T1:15:18Z</time></trkpt>
<trkpt lat="48.3642490" lon="-1.9176430"><ele></ele><time>2017-12-16T1:15:21Z</time></trkpt>
<trkpt lat="48.3643130" lon="-1.9176080"><ele></ele><time>2017-12-16T1:15:24Z</time></trkpt>
<trkpt lat="48.3643750" lon="-1.9175780"><ele></ele><time>2017-12-16T1:15:27Z</time></trkpt>
<trkpt lat="48.3644280" lon="-1.9175450"><ele></ele><time>2017-12-16T1:15:30Z</time></trkpt>
<trkpt lat="48.3644920" lon="-1.9175190"><ele></ele><time>2017-12-16T1:15:33Z</time></trkpt>
<trkpt lat="48.3645540" lon="-1.9175060"><ele></ele><time>2017-12-16T1:15:36Z</time></trkpt>
<trkpt lat="48.3646120" lon="-1.9175030"><ele></ele><time>2017-12-16T1:15:39Z</time></trkpt>
<trkpt lat="48.3646630" lon="-1.9174950"><ele></ele><time>2017-12-16T1:15:42Z</time></trkpt>
<trkpt lat="48.3647070" lon="-1.9174900"><ele></ele><time>2017-12-16T1:15:45Z</time></trkpt>
<trkpt lat="48.3647390" lon="-1.9174830"><ele></ele><time>2017-12-16T1:15:48Z</time></trkpt>
<trkpt lat="48.3647630" lon="-1.9174280"><ele></ele><time>2017-12-16T1:15:51Z</time></trkpt>
<trkpt lat="48.3647390" lon="-1.9173630"><ele></ele><time>2017-12-16T1:15:54Z</time></trkpt>
<trkpt lat="48.3647080" lon="-1.9172940"><ele></ele><time>2017-12-16T1:15:57Z</time></trkpt>
<trkpt lat="48.3646930" lon="-1.9172590"><ele></ele><time>2017-12-16T1:16:0Z</time></trkpt>
<trkpt lat="48.3646720" lon="-1.9172160"><ele></ele><time>2017-12-16T1:16:3Z</time></trkpt>
<trkpt lat="48.3646560" lon="-1.9171700"><ele></ele><time>2017-12-16T1:16:6Z</time></trkpt>
<trkpt lat="48.3646390" lon="-1.9171260"><ele></ele><time>2017-12-16T1:16:9Z</time></trkpt>
<trkpt lat="48.3646290" lon="-1.9170810"><ele></ele><time>2017-12-16T1:16:12Z</time></trkpt>
<trkpt lat="48.3646160" lon="-1.9170290"><ele></ele><time>2017-12-16T1:16:15Z</time></trkpt>
<trkpt lat="48.3646020" lon="-1.9169800"><ele></ele><time>2017-12-16T1:16:18Z</time></trkpt>
<trkpt lat="48.3645920" lon="-1.9169330"><ele></ele><time>2017-12-16T1:16:21Z</time></trkpt>
<trkpt lat="48.3645840" lon="-1.9168800"><ele></ele><time>2017-12-16T1:16:24Z</time></trkpt>
<trkpt lat="48.3645740" lon="-1.9168260"><ele></ele><time>2017-12-16T1:16:27Z</time></trkpt>
<trkpt lat="48.3645670" lon="-1.9167750"><ele></ele><time>2017-12-16T1:16:30Z</time></trkpt>
<trkpt lat="48.3645560" lon="-1.9167200"><ele></ele><time>2017-12-16T1:16:33Z</time></trkpt>
<trkpt lat="48.3645440" lon="-1.9166630"><ele></ele><time>2017-12-16T1:16:36Z</time></trkpt>
<trkpt lat="48.3645340" lon="-1.9166050"><ele></ele><time>2017-12-16T1:16:39Z</time></trkpt>
<trkpt lat="48.3645230" lon="-1.9165470"><ele></ele><time>2017-12-16T1:16:42Z</time></trkpt>
<trkpt lat="48.3645120" lon="-1.9164890"><ele></ele><time>2017-12-16T1:16:45Z</time></trkpt>
<trkpt lat="48.3645060" lon="-1.9164300"><ele></ele><time>2017-12-16T1:16:48Z</time></trkpt>
<trkpt lat="48.3645010" lon="-1.9163750"><ele></ele><time>2017-12-16T1:16:51Z</time></trkpt>
<trkpt lat="48.3644990" lon="-1.9163200"><ele></ele><time>2017-12-16T1:16:54Z</time></trkpt>
<trkpt lat="48.3645090" lon="-1.9162650"><ele></ele><time>2017-12-16T1:16:57Z</time></trkpt>
<trkpt lat="48.3645260" lon="-1.9162180"><ele></ele><time>2017-12-16T1:17:0Z</time></trkpt>
<trkpt lat="48.3645520" lon="-1.9161810"><ele></ele><time>2017-12-16T1:17:3Z</time></trkpt>
<trkpt lat="48.3645850" lon="-1.9161520"><ele></ele><time>2017-12-16T1:17:6Z</time></trkpt>
<trkpt lat="48.3646220" lon="-1.9161290"><ele></ele><time>2017-12-16T1:17:9Z</time></trkpt>
<trkpt lat="48.3646600" lon="-1.9161090"><ele></ele><time>2017-12-16T1:17:12Z</time></trkpt>
<trkpt lat="48.3646970" lon="-1.9160880"><ele></ele><time>2017-12-16T1:17:15Z</time></trkpt>
<trkpt lat="48.3647360" lon="-1.9160650"><ele></ele><time>2017-12-16T1:17:18Z</time></trkpt>
<trkpt lat="48.3647740" lon="-1.9160410"><ele></ele><time>2017-12-16T1:17:21Z</time></trkpt>
<trkpt lat="48.3648170" lon="-1.9160230"><ele></ele><time>2017-12-16T1:17:24Z</time></trkpt>
<trkpt lat="48.3648580" lon="-1.9160030"><ele></ele><time>2017-12-16T1:17:27Z</time></trkpt>
<trkpt lat="48.3649010" lon="-1.9159850"><ele></ele><time>2017-12-16T1:17:30Z</time></trkpt>
<trkpt lat="48.3649460" lon="-1.9159610"><ele></ele><time>2017-12-16T1:17:33Z</time></trkpt>
<trkpt lat="48.3649930" lon="-1.9159410"><ele></ele><time>2017-12-16T1:17:36Z</time></trkpt>
<trkpt lat="48.3650390" lon="-1.9159180"><ele></ele><time>2017-12-16T1:17:39Z</time></trkpt>
<trkpt lat="48.3650900" lon="-1.9158950"><ele></ele><time>2017-12-16T1:17:42Z</time></trkpt>
<trkpt lat="48.3651390" lon="-1.9158730"><ele></ele><time>2017-12-16T1:17:45Z</time></trkpt>
<trkpt lat="48.3651890" lon="-1.9158450"><ele></ele><time>2017-12-16T1:17:48Z</time></trkpt>
<trkpt lat="48.3652410" lon="-1.9158190"><ele></ele><time>2017-12-16T1:17:51Z</time></trkpt>
<trkpt lat="48.3652930" lon="-1.9157900"><ele></ele><time>2017-12-16T1:17:54Z</time></trkpt>
<trkpt lat="48.3653470" lon="-1.9157650"><ele></ele><time>2017-12-16T1:17:57Z</time></trkpt>
<trkpt lat="48.3653990" lon="-1.9157360"><ele></ele><time>2017-12-16T1:18:0Z</time></trkpt>
<trkpt lat="48.3654500" lon="-1.9157080"><ele></ele><time>2017-12-16T1:18:3Z</time></trkpt>
<trkpt lat="48.3655040" lon="-1.9156800"><ele></ele><time>2017-12-16T1:18:6Z</time></trkpt>
<trkpt lat="48.3655570" lon="-1.9156480"><ele></ele><time>2017-12-16T1:18:9Z</time></trkpt>
<trkpt lat="48.3656120" lon="-1.9156190"><ele></ele><time>2017-12-16T1:18:12Z</time></trkpt>
<trkpt lat="48.3656690" lon="-1.9155900"><ele></ele><time>2017-12-16T1:18:15Z</time></trkpt>
<trkpt lat="48.3657270" lon="-1.9155610"><ele></ele><time>2017-12-16T1:18:18Z</time></trkpt>
<trkpt lat="48.3657830" lon="-1.9155290"><ele></ele><time>2017-12-16T1:18:21Z</time></trkpt>
<trkpt lat="48.3658390" lon="-1.9154990"><ele></ele><time>2017-12-16T1:18:24Z</time></trkpt>
<trkpt lat="48.3658940" lon="-1.9154670"><ele></ele><time>2017-12-16T1:18:27Z</time></trkpt>
<trkpt lat="48.3659480" lon="-1.9154360"><ele></ele><time>2017-12-16T1:18:30Z</time></trkpt>
<trkpt lat="48.3660050" lon="-1.9154090"><ele></ele><time>2017-12-16T1:18:33Z</time></trkpt>
<trkpt lat="48.3660600" lon="-1.9153770"><ele></ele><time>2017-12-16T1:18:36Z</time></trkpt>
<trkpt lat="48.3661180" lon="-1.9153480"><ele></ele><time>2017-12-16T1:18:39Z</time></trkpt>
<trkpt lat="48.3661720" lon="-1.9153210"><ele></ele><time>2017-12-16T1:18:42Z</time></trkpt>
<trkpt lat="48.3662280" lon="-1.9152910"><ele></ele><time>2017-12-16T1:18:45Z</time></trkpt>
<trkpt lat="48.3662840" lon="-1.9152600"><ele></ele><time>2017-12-16T1:18:48Z</time></trkpt>
<trkpt lat="48.3663400" lon="-1.9152300"><ele></ele><time>2017-12-16T1:18:51Z</time></trkpt>
<trkpt lat="48.3663960" lon="-1.9152040"><ele></ele><time>2017-12-16T1:18:54Z</time></trkpt>
<trkpt lat="48.3664560" lon="-1.9151760"><ele></ele><time>2017-12-16T1:18:57Z</time></trkpt>
<trkpt lat="48.3665120" lon="-1.9151470"><ele></ele><time>2017-12-16T1:19:0Z</time></trkpt>
<trkpt lat="48.3665660" lon="-1.9151170"><ele></ele><time>2017-12-16T1:19:3Z</time></trkpt>
<trkpt lat="48.3666190" lon="-1.9150820"><ele></ele><time>2017-12-16T1:19:6Z</time></trkpt>
<trkpt lat="48.3666700" lon="-1.9150520"><ele></ele><time>2017-12-16T1:19:9Z</time></trkpt>
<trkpt lat="48.3667280" lon="-1.9150220"><ele></ele><time>2017-12-16T1:19:12Z</time></trkpt>
<trkpt lat="48.3667840" lon="-1.9149900"><ele></ele><time>2017-12-16T1:19:15Z</time></trkpt>
<trkpt lat="48.3668420" lon="-1.9149610"><ele></ele><time>2017-12-16T1:19:18Z</time></trkpt>
<trkpt lat="48.3668970" lon="-1.9149240"><ele></ele><time>2017-12-16T1:19:21Z</time></trkpt>
<trkpt lat="48.3669560" lon="-1.9148900"><ele></ele><time>2017-12-16T1:19:24Z</time></trkpt>
<trkpt lat="48.3670110" lon="-1.9148530"><ele></ele><time>2017-12-16T1:19:27Z</time></trkpt>
<trkpt lat="48.3670640" lon="-1.9148120"><ele></ele><time>2017-12-16T1:19:30Z</time></trkpt>
<trkpt lat="48.3671190" lon="-1.9147710"><ele></ele><time>2017-12-16T1:19:33Z</time></trkpt>
<trkpt lat="48.3671630" lon="-1.9147200"><ele></ele><time>2017-12-16T1:19:36Z</time></trkpt>
<trkpt lat="48.3671910" lon="-1.9146490"><ele></ele><time>2017-12-16T1:19:39Z</time></trkpt>
<trkpt lat="48.3671940" lon="-1.9145710"><ele></ele><time>2017-12-16T1:19:42Z</time></trkpt>
<trkpt lat="48.3671750" lon="-1.9144960"><ele></ele><time>2017-12-16T1:19:45Z</time></trkpt>
<trkpt lat="48.3671420" lon="-1.9144300"><ele></ele><time>2017-12-16T1:19:48Z</time></trkpt>
<trkpt lat="48.3671030" lon="-1.9143680"><ele></ele><time>2017-12-16T1:19:51Z</time></trkpt>
<trkpt lat="48.3670610" lon="-1.9143060"><ele></ele><time>2017-12-16T1:19:54Z</time></trkpt>
<trkpt lat="48.3670200" lon="-1.9142410"><ele></ele><time>2017-12-16T1:19:57Z</time></trkpt>
<trkpt lat="48.3669800" lon="-1.9141790"><ele></ele><time>2017-12-16T1:20:0Z</time></trkpt>
<trkpt lat="48.3669370" lon="-1.9141130"><ele></ele><time>2017-12-16T1:20:3Z</time></trkpt>
<trkpt lat="48.3668930" lon="-1.9140480"><ele></ele><time>2017-12-16T1:20:6Z</time></trkpt>
<trkpt lat="48.3668520" lon="-1.9139830"><ele></ele><time>2017-12-16T1:20:9Z</time></trkpt>
<trkpt lat="48.3668110" lon="-1.9139150"><ele></ele><time>2017-12-16T1:20:12Z</time></trkpt>
<trkpt lat="48.3667710" lon="-1.9138530"><ele></ele><time>2017-12-16T1:20:15Z</time></trkpt>
<trkpt lat="48.3667360" lon="-1.9137940"><ele></ele><time>2017-12-16T1:20:18Z</time></trkpt>
<trkpt lat="48.3667030" lon="-1.9137360"><ele></ele><time>2017-12-16T1:20:21Z</time></trkpt>
<trkpt lat="48.3666680" lon="-1.9136760"><ele></ele><time>2017-12-16T1:20:24Z</time></trkpt>
<trkpt lat="48.3666340" lon="-1.9136190"><ele></ele><time>2017-12-16T1:20:27Z</time></trkpt>
<trkpt lat="48.3665990" lon="-1.9135580"><ele></ele><time>2017-12-16T1:20:30Z</time></trkpt>
<trkpt lat="48.3665650" lon="-1.9134920"><ele></ele><time>2017-12-16T1:20:33Z</time></trkpt>
<trkpt lat="48.3665370" lon="-1.9134250"><ele></ele><time>2017-12-16T1:20:36Z</time></trkpt>
<trkpt lat="48.3665090" lon="-1.9133570"><ele></ele><time>2017-12-16T1:20:39Z</time></trkpt>
<trkpt lat="48.3664820" lon="-1.9132860"><ele></ele><time>2017-12-16T1:20:42Z</time></trkpt>
<trkpt lat="48.3664550" lon="-1.9132140"><ele></ele><time>2017-12-16T1:20:45Z</time></trkpt>
<trkpt lat="48.3664340" lon="-1.9131390"><ele></ele><time>2017-12-16T1:20:48Z</time></trkpt>
<trkpt lat="48.3664120" lon="-1.9130660"><ele></ele><time>2017-12-16T1:20:51Z</time></trkpt>
<trkpt lat="48.3663930" lon="-1.9129930"><ele></ele><time>2017-12-16T1:20:54Z</time></trkpt>
<trkpt lat="48.3663760" lon="-1.9129220"><ele></ele><time>2017-12-16T1:20:57Z</time></trkpt>
<trkpt lat="48.3663600" lon="-1.9128450"><ele></ele><time>2017-12-16T1:21:0Z</time></trkpt>
<trkpt lat="48.3663460" lon="-1.9127700"><ele></ele><time>2017-12-16T1:21:3Z</time></trkpt>
<trkpt lat="48.3663340" lon="-1.9126970"><ele></ele><time>2017-12-16T1:21:6Z</time></trkpt>
<trkpt lat="48.3663340" lon="-1.9126260"><ele></ele><time>2017-12-16T1:21:9Z</time></trkpt>
<trkpt lat="48.3663510" lon="-1.9125570"><ele></ele><time>2017-12-16T1:21:12Z</time></trkpt>
<trkpt lat="48.3663840" lon="-1.9125120"><ele></ele><time>2017-12-16T1:21:15Z</time></trkpt>
<trkpt lat="48.3664240" lon="-1.9125010"><ele></ele><time>2017-12-16T1:21:18Z</time></trkpt>
<trkpt lat="48.3664670" lon="-1.9125210"><ele></ele><time>2017-12-16T1:21:21Z</time></trkpt>
<trkpt lat="48.3665090" lon="-1.9125470"><ele></ele><time>2017-12-16T1:21:24Z</time></trkpt>
<trkpt lat="48.3665540" lon="-1.9125710"><ele></ele><time>2017-12-16T1:21:27Z</time></trkpt>
<trkpt lat="48.3666030" lon="-1.9126030"><ele></ele><time>2017-12-16T1:21:30Z</time></trkpt>
<trkpt lat="48.3666520" lon="-1.9126290"><ele></ele><time>2017-12-16T1:21:33Z</time></trkpt>
<trkpt lat="48.3667040" lon="-1.9126420"><ele></ele><time>2017-12-16T1:21:36Z</time></trkpt>
<trkpt lat="48.3667630" lon="-1.9126550"><ele></ele><time>2017-12-16T1:21:39Z</time></trkpt>
<trkpt lat="48.3668180" lon="-1.9126700"><ele></ele><time>2017-12-16T1:21:42Z</time></trkpt>
<trkpt lat="48.3668740" lon="-1.9126870"><ele></ele><time>2017-12-16T1:21:45Z</time></trkpt>
<trkpt lat="48.3669290" lon="-1.9127030"><ele></ele><time>2017-12-16T1:21:48Z</time></trkpt>
<trkpt lat="48.3669880" lon="-1.9127210"><ele></ele><time>2017-12-16T1:21:51Z</time></trkpt>
<trkpt lat="48.3670470" lon="-1.9127380"><ele></ele><time>2017-12-16T1:21:54Z</time></trkpt>
<trkpt lat="48.3671020" lon="-1.9127520"><ele></ele><time>2017-12-16T1:21:57Z</time></trkpt>
<trkpt lat="48.3671580" lon="-1.9127680"><ele></ele><time>2017-12-16T1:22:0Z</time></trkpt>
<trkpt lat="48.3672160" lon="-1.9127870"><ele></ele><time>2017-12-16T1:22:3Z</time></trkpt>
<trkpt lat="48.3672700" lon="-1.9128070"><ele></ele><time>2017-12-16T1:22:6Z</time></trkpt>
<trkpt lat="48.3673270" lon="-1.9128180"><ele></ele><time>2017-12-16T1:22:9Z</time></trkpt>
<trkpt lat="48.3673830" lon="-1.9128330"><ele></ele><time>2017-12-16T1:22:12Z</time></trkpt>
<trkpt lat="48.3674420" lon="-1.9128500"><ele></ele><time>2017-12-16T1:22:15Z</time></trkpt>
<trkpt lat="48.3675000" lon="-1.9128690"><ele></ele><time>2017-12-16T1:22:18Z</time></trkpt>
<trkpt lat="48.3675580" lon="-1.9128810"><ele></ele><time>2017-12-16T1:22:21Z</time></trkpt>
<trkpt lat="48.3676160" lon="-1.9128940"><ele></ele><time>2017-12-16T1:22:24Z</time></trkpt>
<trkpt lat="48.3676870" lon="-1.9128990"><ele></ele><time>2017-12-16T1:22:27Z</time></trkpt>
<trkpt lat="48.3677400" lon="-1.9129210"><ele></ele><time>2017-12-16T1:22:30Z</time></trkpt>
<trkpt lat="48.3677980" lon="-1.9129390"><ele></ele><time>2017-12-16T1:22:33Z</time></trkpt>
<trkpt lat="48.3678570" lon="-1.9129590"><ele></ele><time>2017-12-16T1:22:36Z</time></trkpt>
<trkpt lat="48.3679130" lon="-1.9129740"><ele></ele><time>2017-12-16T1:22:39Z</time></trkpt>
<trkpt lat="48.3679750" lon="-1.9129900"><ele></ele><time>2017-12-16T1:22:42Z</time></trkpt>
<trkpt lat="48.3680340" lon="-1.9130060"><ele></ele><time>2017-12-16T1:22:45Z</time></trkpt>
<trkpt lat="48.3680910" lon="-1.9130190"><ele></ele><time>2017-12-16T1:22:48Z</time></trkpt>
<trkpt lat="48.3681510" lon="-1.9130380"><ele></ele><time>2017-12-16T1:22:51Z</time></trkpt>
<trkpt lat="48.3682080" lon="-1.9130570"><ele></ele><time>2017-12-16T1:22:54Z</time></trkpt>
<trkpt lat="48.3682640" lon="-1.9130740"><ele></ele><time>2017-12-16T1:22:57Z</time></trkpt>
<trkpt lat="48.3683200" lon="-1.9130890"><ele></ele><time>2017-12-16T1:23:0Z</time></trkpt>
<trkpt lat="48.3683770" lon="-1.9131010"><ele></ele><time>2017-12-16T1:23:3Z</time></trkpt>
<trkpt lat="48.3684320" lon="-1.9131160"><ele></ele><time>2017-12-16T1:23:6Z</time></trkpt>
<trkpt lat="48.3684900" lon="-1.9131310"><ele></ele><time>2017-12-16T1:23:9Z</time></trkpt>
<trkpt lat="48.3685500" lon="-1.9131500"><ele></ele><time>2017-12-16T1:23:12Z</time></trkpt>
<trkpt lat="48.3686040" lon="-1.9131690"><ele></ele><time>2017-12-16T1:23:15Z</time></trkpt>
<trkpt lat="48.3686580" lon="-1.9131950"><ele></ele><time>2017-12-16T1:23:18Z</time></trkpt>
<trkpt lat="48.3687100" lon="-1.9132270"><ele></ele><time>2017-12-16T1:23:21Z</time></trkpt>
<trkpt lat="48.3687590" lon="-1.9132570"><ele></ele><time>2017-12-16T1:23:24Z</time></trkpt>
<trkpt lat="48.3688100" lon="-1.9132960"><ele></ele><time>2017-12-16T1:23:27Z</time></trkpt>
<trkpt lat="48.3688550" lon="-1.9133360"><ele></ele><time>2017-12-16T1:23:30Z</time></trkpt>
<trkpt lat="48.3689020" lon="-1.9133760"><ele></ele><time>2017-12-16T1:23:33Z</time></trkpt>
<trkpt lat="48.3689500" lon="-1.9134280"><ele></ele><time>2017-12-16T1:23:36Z</time></trkpt>
<trkpt lat="48.3689970" lon="-1.9134780"><ele></ele><time>2017-12-16T1:23:39Z</time></trkpt>
<trkpt lat="48.3690450" lon="-1.9135330"><ele></ele><time>2017-12-16T1:23:42Z</time></trkpt>
<trkpt lat="48.3690930" lon="-1.9135790"><ele></ele><time>2017-12-16T1:23:45Z</time></trkpt>
<trkpt lat="48.3691400" lon="-1.9136260"><ele></ele><time>2017-12-16T1:23:48Z</time></trkpt>
<trkpt lat="48.3691890" lon="-1.9136760"><ele></ele><time>2017-12-16T1:23:51Z</time></trkpt>
<trkpt lat="48.3692370" lon="-1.9137210"><ele></ele><time>2017-12-16T1:23:54Z</time></trkpt>
<trkpt lat="48.3692810" lon="-1.9137790"><ele></ele><time>2017-12-16T1:23:57Z</time></trkpt>
<trkpt lat="48.3693260" lon="-1.9138220"><ele></ele><time>2017-12-16T1:24:0Z</time></trkpt>
<trkpt lat="48.3693750" lon="-1.9138670"><ele></ele><time>2017-12-16T1:24:3Z</time></trkpt>
<trkpt lat="48.3694200" lon="-1.9139160"><ele></ele><time>2017-12-16T1:24:6Z</time></trkpt>
<trkpt lat="48.3694660" lon="-1.9139580"><ele></ele><time>2017-12-16T1:24:9Z</time></trkpt>
<trkpt lat="48.3695120" lon="-1.9139980"><ele></ele><time>2017-12-16T1:24:12Z</time></trkpt>
<trkpt lat="48.3695630" lon="-1.9140380"><ele></ele><time>2017-12-16T1:24:15Z</time></trkpt>
<trkpt lat="48.3696200" lon="-1.9140650"><ele></ele><time>2017-12-16T1:24:18Z</time></trkpt>
<trkpt lat="48.3696740" lon="-1.9140870"><ele></ele><time>2017-12-16T1:24:21Z</time></trkpt>
<trkpt lat="48.3697280" lon="-1.9141050"><ele></ele><time>2017-12-16T1:24:24Z</time></trkpt>
<trkpt lat="48.3697880" lon="-1.9141100"><ele></ele><time>2017-12-16T1:24:27Z</time></trkpt>
<trkpt lat="48.3698430" lon="-1.9141130"><ele></ele><time>2017-12-16T1:24:30Z</time></trkpt>
<trkpt lat="48.3699020" lon="-1.9141110"><ele></ele><time>2017-12-16T1:24:33Z</time></trkpt>
<trkpt lat="48.3699620" lon="-1.9141040"><ele></ele><time>2017-12-16T1:24:36Z</time></trkpt>
<trkpt lat="48.3700220" lon="-1.9140870"><ele></ele><time>2017-12-16T1:24:39Z</time></trkpt>
<trkpt lat="48.3700790" lon="-1.9140660"><ele></ele><time>2017-12-16T1:24:42Z</time></trkpt>
<trkpt lat="48.3701350" lon="-1.9140480"><ele></ele><time>2017-12-16T1:24:45Z</time></trkpt>
<trkpt lat="48.3701950" lon="-1.9140280"><ele></ele><time>2017-12-16T1:24:48Z</time></trkpt>
<trkpt lat="48.3702510" lon="-1.9140050"><ele></ele><time>2017-12-16T1:24:51Z</time></trkpt>
<trkpt lat="48.3703050" lon="-1.9139870"><ele></ele><time>2017-12-16T1:24:54Z</time></trkpt>
<trkpt lat="48.3703650" lon="-1.9139730"><ele></ele><time>2017-12-16T1:24:57Z</time></trkpt>
<trkpt lat="48.3704240" lon="-1.9139560"><ele></ele><time>2017-12-16T1:25:0Z</time></trkpt>
<trkpt lat="48.3704840" lon="-1.9139390"><ele></ele><time>2017-12-16T1:25:3Z</time></trkpt>
<trkpt lat="48.3705400" lon="-1.9139180"><ele></ele><time>2017-12-16T1:25:6Z</time></trkpt>
<trkpt lat="48.3706000" lon="-1.9138980"><ele></ele><time>2017-12-16T1:25:9Z</time></trkpt>
<trkpt lat="48.3706570" lon="-1.9138750"><ele></ele><time>2017-12-16T1:25:12Z</time></trkpt>
<trkpt lat="48.3707170" lon="-1.9138600"><ele></ele><time>2017-12-16T1:25:15Z</time></trkpt>
<trkpt lat="48.3707730" lon="-1.9138440"><ele></ele><time>2017-12-16T1:25:18Z</time></trkpt>
<trkpt lat="48.3708330" lon="-1.9138270"><ele></ele><time>2017-12-16T1:25:21Z</time></trkpt>
<trkpt lat="48.3708910" lon="-1.9138080"><ele></ele><time>2017-12-16T1:25:24Z</time></trkpt>
<trkpt lat="48.3709520" lon="-1.9137930"><ele></ele><time>2017-12-16T1:25:27Z</time></trkpt>
<trkpt lat="48.3710120" lon="-1.9137750"><ele></ele><time>2017-12-16T1:25:30Z</time></trkpt>
<trkpt lat="48.3710730" lon="-1.9137560"><ele></ele><time>2017-12-16T1:25:33Z</time></trkpt>
<trkpt lat="48.3711320" lon="-1.9137340"><ele></ele><time>2017-12-16T1:25:36Z</time></trkpt>
<trkpt lat="48.3711930" lon="-1.9137170"><ele></ele><time>2017-12-16T1:25:39Z</time></trkpt>
<trkpt lat="48.3712500" lon="-1.9136970"><ele></ele><time>2017-12-16T1:25:42Z</time></trkpt>
<trkpt lat="48.3713060" lon="-1.9136730"><ele></ele><time>2017-12-16T1:25:45Z</time></trkpt>
<trkpt lat="48.3713670" lon="-1.9136520"><ele></ele><time>2017-12-16T1:25:48Z</time></trkpt>
<trkpt lat="48.3714250" lon="-1.9136340"><ele></ele><time>2017-12-16T1:25:51Z</time></trkpt>
<trkpt lat="48.3714880" lon="-1.9136220"><ele></ele><time>2017-12-16T1:25:54Z</time></trkpt>
<trkpt lat="48.3715500" lon="-1.9136060"><ele></ele><time>2017-12-16T1:25:57Z</time></trkpt>
<trkpt lat="48.3716110" lon="-1.9135890"><ele></ele><time>2017-12-16T1:26:0Z</time></trkpt>
<trkpt lat="48.3716760" lon="-1.9135880"><ele></ele><time>2017-12-16T1:26:3Z</time></trkpt>
<trkpt lat="48.3717410" lon="-1.9135970"><ele></ele><time>2017-12-16T1:26:6Z</time></trkpt>
<trkpt lat="48.3718000" lon="-1.9136190"><ele></ele><time>2017-12-16T1:26:9Z</time></trkpt>
<trkpt lat="48.3718600" lon="-1.9136480"><ele></ele><time>2017-12-16T1:26:12Z</time></trkpt>
<trkpt lat="48.3719150" lon="-1.9136810"><ele></ele><time>2017-12-16T1:26:15Z</time></trkpt>
<trkpt lat="48.3719690" lon="-1.9137160"><ele></ele><time>2017-12-16T1:26:18Z</time></trkpt>
<trkpt lat="48.3720210" lon="-1.9137470"><ele></ele><time>2017-12-16T1:26:21Z</time></trkpt>
<trkpt lat="48.3720760" lon="-1.9137790"><ele></ele><time>2017-12-16T1:26:24Z</time></trkpt>
<trkpt lat="48.3721320" lon="-1.9138090"><ele></ele><time>2017-12-16T1:26:27Z</time></trkpt>
<trkpt lat="48.3721870" lon="-1.9138370"><ele></ele><time>2017-12-16T1:26:30Z</time></trkpt>
<trkpt lat="48.3722410" lon="-1.9138690"><ele></ele><time>2017-12-16T1:26:33Z</time></trkpt>
<trkpt lat="48.3722970" lon="-1.9139010"><ele></ele><time>2017-12-16T1:26:36Z</time></trkpt>
<trkpt lat="48.3723500" lon="-1.9139280"><ele></ele><time>2017-12-16T1:26:39Z</time></trkpt>
<trkpt lat="48.3724030" lon="-1.9139560"><ele></ele><time>2017-12-16T1:26:42Z</time></trkpt>
<trkpt lat="48.3724510" lon="-1.9139820"><ele></ele><time>2017-12-16T1:26:45Z</time></trkpt>
<trkpt lat="48.3725050" lon="-1.9140170"><ele></ele><time>2017-12-16T1:26:48Z</time></trkpt>
<trkpt lat="48.3725540" lon="-1.9140510"><ele></ele><time>2017-12-16T1:26:51Z</time></trkpt>
<trkpt lat="48.3726040" lon="-1.9140880"><ele></ele><time>2017-12-16T1:26:54Z</time></trkpt>
<trkpt lat="48.3726350" lon="-1.9141260"><ele></ele><time>2017-12-16T1:26:57Z</time></trkpt>
<trkpt lat="48.3726550" lon="-1.9141660"><ele></ele><time>2017-12-16T1:27:0Z</time></trkpt>
<trkpt lat="48.3726600" lon="-1.9142130"><ele></ele><time>2017-12-16T1:27:3Z</time></trkpt>
<trkpt lat="48.3726540" lon="-1.9142700"><ele></ele><time>2017-12-16T1:27:6Z</time></trkpt>
<trkpt lat="48.3726410" lon="-1.9143350"><ele></ele><time>2017-12-16T1:27:9Z</time></trkpt>
<trkpt lat="48.3726250" lon="-1.9144010"><ele></ele><time>2017-12-16T1:27:12Z</time></trkpt>
<trkpt lat="48.3726130" lon="-1.9144700"><ele></ele><time>2017-12-16T1:27:15Z</time></trkpt>
<trkpt lat="48.3725960" lon="-1.9145320"><ele></ele><time>2017-12-16T1:27:18Z</time></trkpt>
<trkpt lat="48.3725830" lon="-1.9146000"><ele></ele><time>2017-12-16T1:27:21Z</time></trkpt>
<trkpt lat="48.3725910" lon="-1.9146680"><ele></ele><time>2017-12-16T1:27:24Z</time></trkpt>
<trkpt lat="48.3726170" lon="-1.9147370"><ele></ele><time>2017-12-16T1:27:27Z</time></trkpt>
<trkpt lat="48.3726560" lon="-1.9148060"><ele></ele><time>2017-12-16T1:27:30Z</time></trkpt>
<trkpt lat="48.3726930" lon="-1.9148730"><ele></ele><time>2017-12-16T1:27:33Z</time></trkpt>
<trkpt lat="48.3727350" lon="-1.9149460"><ele></ele><time>2017-12-16T1:27:36Z</time></trkpt>
<trkpt lat="48.3727760" lon="-1.9150130"><ele></ele><time>2017-12-16T1:27:39Z</time></trkpt>
<trkpt lat="48.3728120" lon="-1.9150840"><ele></ele><time>2017-12-16T1:27:42Z</time></trkpt>
<trkpt lat="48.3728560" lon="-1.9151490"><ele></ele><time>2017-12-16T1:27:45Z</time></trkpt>
<trkpt lat="48.3729000" lon="-1.9152150"><ele></ele><time>2017-12-16T1:27:48Z</time></trkpt>
<trkpt lat="48.3729460" lon="-1.9152800"><ele></ele><time>2017-12-16T1:27:51Z</time></trkpt>
<trkpt lat="48.3729930" lon="-1.9153390"><ele></ele><time>2017-12-16T1:27:54Z</time></trkpt>
<trkpt lat="48.3730390" lon="-1.9153930"><ele></ele><time>2017-12-16T1:27:57Z</time></trkpt>
<trkpt lat="48.3730830" lon="-1.9154480"><ele></ele><time>2017-12-16T1:28:0Z</time></trkpt>
<trkpt lat="48.3731280" lon="-1.9155080"><ele></ele><time>2017-12-16T1:28:3Z</time></trkpt>
<trkpt lat="48.3731720" lon="-1.9155680"><ele></ele><time>2017-12-16T1:28:6Z</time></trkpt>
<trkpt lat="48.3732180" lon="-1.9156240"><ele></ele><time>2017-12-16T1:28:9Z</time></trkpt>
<trkpt lat="48.3732650" lon="-1.9156790"><ele></ele><time>2017-12-16T1:28:12Z</time></trkpt>
<trkpt lat="48.3733130" lon="-1.9157400"><ele></ele><time>2017-12-16T1:28:15Z</time></trkpt>
<trkpt lat="48.3733630" lon="-1.9157890"><ele></ele><time>2017-12-16T1:28:18Z</time></trkpt>
<trkpt lat="48.3734100" lon="-1.9158380"><ele></ele><time>2017-12-16T1:28:21Z</time></trkpt>
<trkpt lat="48.3734590" lon="-1.9158920"><ele></ele><time>2017-12-16T1:28:24Z</time></trkpt>
<trkpt lat="48.3735110" lon="-1.9159440"><ele></ele><time>2017-12-16T1:28:27Z</time></trkpt>
<trkpt lat="48.3735620" lon="-1.9159870"><ele></ele><time>2017-12-16T1:28:30Z</time></trkpt>
<trkpt lat="48.3736140" lon="-1.9160310"><ele></ele><time>2017-12-16T1:28:33Z</time></trkpt>
<trkpt lat="48.3736650" lon="-1.9160720"><ele></ele><time>2017-12-16T1:28:36Z</time></trkpt>
<trkpt lat="48.3737170" lon="-1.9161190"><ele></ele><time>2017-12-16T1:28:39Z</time></trkpt>
<trkpt lat="48.3737680" lon="-1.9161610"><ele></ele><time>2017-12-16T1:28:42Z</time></trkpt>
<trkpt lat="48.3738200" lon="-1.9162030"><ele></ele><time>2017-12-16T1:28:45Z</time></trkpt>
<trkpt lat="48.3738690" lon="-1.9162460"><ele></ele><time>2017-12-16T1:28:48Z</time></trkpt>
<trkpt lat="48.3739180" lon="-1.9162880"><ele></ele><time>2017-12-16T1:28:51Z</time></trkpt>
<trkpt lat="48.3739660" lon="-1.9163330"><ele></ele><time>2017-12-16T1:28:54Z</time></trkpt>
<trkpt lat="48.3740130" lon="-1.9163790"><ele></ele><time>2017-12-16T1:28:57Z</time></trkpt>
<trkpt lat="48.3740540" lon="-1.9164200"><ele></ele><time>2017-12-16T1:29:0Z</time></trkpt>
<trkpt lat="48.3740910" lon="-1.9164500"><ele></ele><time>2017-12-16T1:29:3Z</time></trkpt>
<trkpt lat="48.3741260" lon="-1.9164830"><ele></ele><time>2017-12-16T1:29:6Z</time></trkpt>
<trkpt lat="48.3741620" lon="-1.9165060"><ele></ele><time>2017-12-16T1:29:9Z</time></trkpt>
<trkpt lat="48.3741940" lon="-1.9165030"><ele></ele><time>2017-12-16T1:29:12Z</time></trkpt>
<trkpt lat="48.3742160" lon="-1.9164650"><ele></ele><time>2017-12-16T1:29:15Z</time></trkpt>
<trkpt lat="48.3742360" lon="-1.9164160"><ele></ele><time>2017-12-16T1:29:18Z</time></trkpt>
<trkpt lat="48.3742560" lon="-1.9163600"><ele></ele><time>2017-12-16T1:29:21Z</time></trkpt>
<trkpt lat="48.3742780" lon="-1.9163020"><ele></ele><time>2017-12-16T1:29:24Z</time></trkpt>
<trkpt lat="48.3742930" lon="-1.9162420"><ele></ele><time>2017-12-16T1:29:27Z</time></trkpt>
<trkpt lat="48.3743090" lon="-1.9161700"><ele></ele><time>2017-12-16T1:29:30Z</time></trkpt>
<trkpt lat="48.3743280" lon="-1.9160940"><ele></ele><time>2017-12-16T1:29:33Z</time></trkpt>
<trkpt lat="48.3743480" lon="-1.9160170"><ele></ele><time>2017-12-16T1:29:36Z</time></trkpt>
<trkpt lat="48.3743700" lon="-1.9159380"><ele></ele><time>2017-12-16T1:29:39Z</time></trkpt>
<trkpt lat="48.3743920" lon="-1.9158590"><ele></ele><time>2017-12-16T1:29:42Z</time></trkpt>
<trkpt lat="48.3744120" lon="-1.9157790"><ele></ele><time>2017-12-16T1:29:45Z</time></trkpt>
<trkpt lat="48.3744380" lon="-1.9157050"><ele></ele><time>2017-12-16T1:29:48Z</time></trkpt>
<trkpt lat="48.3744630" lon="-1.9156290"><ele></ele><time>2017-12-16T1:29:51Z</time></trkpt>
<trkpt lat="48.3744840" lon="-1.9155490"><ele></ele><time>2017-12-16T1:29:54Z</time></trkpt>
<trkpt lat="48.3745130" lon="-1.9154730"><ele></ele><time>2017-12-16T1:29:57Z</time></trkpt>
<trkpt lat="48.3745340" lon="-1.9153940"><ele></ele><time>2017-12-16T1:30:0Z</time></trkpt>
<trkpt lat="48.3745540" lon="-1.9153160"><ele></ele><time>2017-12-16T1:30:3Z</time></trkpt>
<trkpt lat="48.3745800" lon="-1.9152430"><ele></ele><time>2017-12-16T1:30:6Z</time></trkpt>
<trkpt lat="48.3746020" lon="-1.9151610"><ele></ele><time>2017-12-16T1:30:9Z</time></trkpt>
<trkpt lat="48.3746210" lon="-1.9150810"><ele></ele><time>2017-12-16T1:30:12Z</time></trkpt>
<trkpt lat="48.3746350" lon="-1.9149960"><ele></ele><time>2017-12-16T1:30:15Z</time></trkpt>
<trkpt lat="48.3746540" lon="-1.9149090"><ele></ele><time>2017-12-16T1:30:18Z</time></trkpt>
<trkpt lat="48.3746790" lon="-1.9148290"><ele></ele><time>2017-12-16T1:30:21Z</time></trkpt>
<trkpt lat="48.3747030" lon="-1.9147440"><ele></ele><time>2017-12-16T1:30:24Z</time></trkpt>
<trkpt lat="48.3747300" lon="-1.9146690"><ele></ele><time>2017-12-16T1:30:27Z</time></trkpt>
<trkpt lat="48.3747470" lon="-1.9145790"><ele></ele><time>2017-12-16T1:30:30Z</time></trkpt>
<trkpt lat="48.3747720" lon="-1.9145180"><ele></ele><time>2017-12-16T1:30:33Z</time></trkpt>
<trkpt lat="48.3747940" lon="-1.9144340"><ele></ele><time>2017-12-16T1:30:36Z</time></trkpt>
<trkpt lat="48.3748190" lon="-1.9143530"><ele></ele><time>2017-12-16T1:30:39Z</time></trkpt>
<trkpt lat="48.3748310" lon="-1.9142700"><ele></ele><time>2017-12-16T1:30:42Z</time></trkpt>
<trkpt lat="48.3748530" lon="-1.9141870"><ele></ele><time>2017-12-16T1:30:45Z</time></trkpt>
<trkpt lat="48.3748710" lon="-1.9141180"><ele></ele><time>2017-12-16T1:30:48Z</time></trkpt>
<trkpt lat="48.3748930" lon="-1.9140380"><ele></ele><time>2017-12-16T1:30:51Z</time></trkpt>
<trkpt lat="48.3749130" lon="-1.9139630"><ele></ele><time>2017-12-16T1:30:54Z</time></trkpt>
<trkpt lat="48.3749410" lon="-1.9138940"><ele></ele><time>2017-12-16T1:30:57Z</time></trkpt>
<trkpt lat="48.3749630" lon="-1.9138150"><ele></ele><time>2017-12-16T1:31:0Z</time></trkpt>
<trkpt lat="48.3749890" lon="-1.9137400"><ele></ele><time>2017-12-16T1:31:3Z</time></trkpt>
<trkpt lat="48.3750220" lon="-1.9136700"><ele></ele><time>2017-12-16T1:31:6Z</time></trkpt>
<trkpt lat="48.3750380" lon="-1.9135920"><ele></ele><time>2017-12-16T1:31:9Z</time></trkpt>
<trkpt lat="48.3750610" lon="-1.9135130"><ele></ele><time>2017-12-16T1:31:12Z</time></trkpt>
<trkpt lat="48.3750850" lon="-1.9134340"><ele></ele><time>2017-12-16T1:31:15Z</time></trkpt>
<trkpt lat="48.3751110" lon="-1.9133520"><ele></ele><time>2017-12-16T1:31:18Z</time></trkpt>
<trkpt lat="48.3751380" lon="-1.9132750"><ele></ele><time>2017-12-16T1:31:21Z</time></trkpt>
<trkpt lat="48.3751550" lon="-1.9131950"><ele></ele><time>2017-12-16T1:31:24Z</time></trkpt>
<trkpt lat="48.3751700" lon="-1.9131160"><ele></ele><time>2017-12-16T1:31:27Z</time></trkpt>
<trkpt lat="48.3751860" lon="-1.9130400"><ele></ele><time>2017-12-16T1:31:30Z</time></trkpt>
<trkpt lat="48.3752050" lon="-1.9129620"><ele></ele><time>2017-12-16T1:31:33Z</time></trkpt>
<trkpt lat="48.3752230" lon="-1.9128810"><ele></ele><time>2017-12-16T1:31:36Z</time></trkpt>
<trkpt lat="48.3752310" lon="-1.9127980"><ele></ele><time>2017-12-16T1:31:39Z</time></trkpt>
<trkpt lat="48.3752530" lon="-1.9127190"><ele></ele><time>2017-12-16T1:31:42Z</time></trkpt>
<trkpt lat="48.3752800" lon="-1.9126410"><ele></ele><time>2017-12-16T1:31:45Z</time></trkpt>
<trkpt lat="48.3753010" lon="-1.9125620"><ele></ele><time>2017-12-16T1:31:48Z</time></trkpt>
<trkpt lat="48.3753190" lon="-1.9124780"><ele></ele><time>2017-12-16T1:31:51Z</time></trkpt>
<trkpt lat="48.3753440" lon="-1.9123950"><ele></ele><time>2017-12-16T1:31:54Z</time></trkpt>
<trkpt lat="48.3753610" lon="-1.9123160"><ele></ele><time>2017-12-16T1:31:57Z</time></trkpt>
<trkpt lat="48.3753830" lon="-1.9122380"><ele></ele><time>2017-12-16T1:32:0Z</time></trkpt>
<trkpt lat="48.3754100" lon="-1.9121600"><ele></ele><time>2017-12-16T1:32:3Z</time></trkpt>
<trkpt lat="48.3754340" lon="-1.9120790"><ele></ele><time>2017-12-16T1:32:6Z</time></trkpt>
<trkpt lat="48.3754620" lon="-1.9119950"><ele></ele><time>2017-12-16T1:32:9Z</time></trkpt>
<trkpt lat="48.3754850" lon="-1.9119120"><ele></ele><time>2017-12-16T1:32:12Z</time></trkpt>
<trkpt lat="48.3755180" lon="-1.9118270"><ele></ele><time>2017-12-16T1:32:15Z</time></trkpt>
<trkpt lat="48.3755460" lon="-1.9117500"><ele></ele><time>2017-12-16T1:32:18Z</time></trkpt>
<trkpt lat="48.3755750" lon="-1.9116720"><ele></ele><time>2017-12-16T1:32:21Z</time></trkpt>
<trkpt lat="48.3755940" lon="-1.9115880"><ele></ele><time>2017-12-16T1:32:24Z</time></trkpt>
<trkpt lat="48.3756150" lon="-1.9115100"><ele></ele><time>2017-12-16T1:32:27Z</time></trkpt>
<trkpt lat="48.3756300" lon="-1.9114190"><ele></ele><time>2017-12-16T1:32:30Z</time></trkpt>
<trkpt lat="48.3756550" lon="-1.9113330"><ele></ele><time>2017-12-16T1:32:33Z</time></trkpt>
<trkpt lat="48.3756800" lon="-1.9112470"><ele></ele><time>2017-12-16T1:32:36Z</time></trkpt>
<trkpt lat="48.3757060" lon="-1.9111620"><ele></ele><time>2017-12-16T1:32:39Z</time></trkpt>
<trkpt lat="48.3757210" lon="-1.9110750"><ele></ele><time>2017-12-16T1:32:42Z</time></trkpt>
<trkpt lat="48.3757440" lon="-1.9109890"><ele></ele><time>2017-12-16T1:32:45Z</time></trkpt>
<trkpt lat="48.3757660" lon="-1.9109050"><ele></ele><time>2017-12-16T1:32:48Z</time></trkpt>
<trkpt lat="48.3757850" lon="-1.9108190"><ele></ele><time>2017-12-16T1:32:51Z</time></trkpt>
<trkpt lat="48.3758110" lon="-1.9107340"><ele></ele><time>2017-12-16T1:32:54Z</time></trkpt>
<trkpt lat="48.3758310" lon="-1.9106460"><ele></ele><time>2017-12-16T1:32:57Z</time></trkpt>
<trkpt lat="48.3758480" lon="-1.9105440"><ele></ele><time>2017-12-16T1:33:0Z</time></trkpt>
<trkpt lat="48.3758660" lon="-1.9104550"><ele></ele><time>2017-12-16T1:33:3Z</time></trkpt>
<trkpt lat="48.3758890" lon="-1.9103710"><ele></ele><time>2017-12-16T1:33:6Z</time></trkpt>
<trkpt lat="48.3759050" lon="-1.9102940"><ele></ele><time>2017-12-16T1:33:9Z</time></trkpt>
<trkpt lat="48.3759380" lon="-1.9102270"><ele></ele><time>2017-12-16T1:33:12Z</time></trkpt>
<trkpt lat="48.3759660" lon="-1.9101480"><ele></ele><time>2017-12-16T1:33:15Z</time></trkpt>
<trkpt lat="48.3759870" lon="-1.9100650"><ele></ele><time>2017-12-16T1:33:18Z</time></trkpt>
<trkpt lat="48.3760110" lon="-1.9099790"><ele></ele><time>2017-12-16T1:33:21Z</time></trkpt>
<trkpt lat="48.3760330" lon="-1.9098970"><ele></ele><time>2017-12-16T1:33:24Z</time></trkpt>
<trkpt lat="48.3760550" lon="-1.9098040"><ele></ele><time>2017-12-16T1:33:27Z</time></trkpt>
<trkpt lat="48.3760730" lon="-1.9097140"><ele></ele><time>2017-12-16T1:33:30Z</time></trkpt>
<trkpt lat="48.3760970" lon="-1.9096200"><ele></ele><time>2017-12-16T1:33:33Z</time></trkpt>
<trkpt lat="48.3761180" lon="-1.9095280"><ele></ele><time>2017-12-16T1:33:36Z</time></trkpt>
<trkpt lat="48.3761420" lon="-1.9094480"><ele></ele><time>2017-12-16T1:33:39Z</time></trkpt>
<trkpt lat="48.3761680" lon="-1.9093600"><ele></ele><time>2017-12-16T1:33:42Z</time></trkpt>
<trkpt lat="48.3761960" lon="-1.9092820"><ele></ele><time>2017-12-16T1:33:45Z</time></trkpt>
<trkpt lat="48.3762190" lon="-1.9092030"><ele></ele><time>2017-12-16T1:33:48Z</time></trkpt>
<trkpt lat="48.3762440" lon="-1.9091160"><ele></ele><time>2017-12-16T1:33:51Z</time></trkpt>
<trkpt lat="48.3762720" lon="-1.9090240"><ele></ele><time>2017-12-16T1:33:54Z</time></trkpt>
<trkpt lat="48.3762940" lon="-1.9089420"><ele></ele><time>2017-12-16T1:33:57Z</time></trkpt>
<trkpt lat="48.3763170" lon="-1.9088550"><ele></ele><time>2017-12-16T1:34:0Z</time></trkpt>
<trkpt lat="48.3763490" lon="-1.9087670"><ele></ele><time>2017-12-16T1:34:3Z</time></trkpt>
<trkpt lat="48.3763710" lon="-1.9086850"><ele></ele><time>2017-12-16T1:34:6Z</time></trkpt>
<trkpt lat="48.3763930" lon="-1.9086060"><ele></ele><time>2017-12-16T1:34:9Z</time></trkpt>
<trkpt lat="48.3764270" lon="-1.9085430"><ele></ele><time>2017-12-16T1:34:12Z</time></trkpt>
<trkpt lat="48.3764450" lon="-1.9084520"><ele></ele><time>2017-12-16T1:34:15Z</time></trkpt>
<trkpt lat="48.3764680" lon="-1.9083660"><ele></ele><time>2017-12-16T1:34:18Z</time></trkpt>
<trkpt lat="48.3764840" lon="-1.9082780"><ele></ele><time>2017-12-16T1:34:21Z</time></trkpt>
<trkpt lat="48.3765080" lon="-1.9081860"><ele></ele><time>2017-12-16T1:34:24Z</time></trkpt>
<trkpt lat="48.3765330" lon="-1.9080960"><ele></ele><time>2017-12-16T1:34:27Z</time></trkpt>
<trkpt lat="48.3765550" lon="-1.9080110"><ele></ele><time>2017-12-16T1:34:30Z</time></trkpt>
<trkpt lat="48.3765800" lon="-1.9079250"><ele></ele><time>2017-12-16T1:34:33Z</time></trkpt>
<trkpt lat="48.3766030" lon="-1.9078370"><ele></ele><time>2017-12-16T1:34:36Z</time></trkpt>
<trkpt lat="48.3766300" lon="-1.9077520"><ele></ele><time>2017-12-16T1:34:39Z</time></trkpt>
<trkpt lat="48.3766530" lon="-1.9076590"><ele></ele><time>2017-12-16T1:34:42Z</time></trkpt>
<trkpt lat="48.3766830" lon="-1.9075720"><ele></ele><time>2017-12-16T1:34:45Z</time></trkpt>
<trkpt lat="48.3767030" lon="-1.9074860"><ele></ele><time>2017-12-16T1:34:48Z</time></trkpt>
<trkpt lat="48.3767260" lon="-1.9074130"><ele></ele><time>2017-12-16T1:34:51Z</time></trkpt>
<trkpt lat="48.3767450" lon="-1.9073190"><ele></ele><time>2017-12-16T1:34:54Z</time></trkpt>
<trkpt lat="48.3767730" lon="-1.9072420"><ele></ele><time>2017-12-16T1:34:57Z</time></trkpt>
<trkpt lat="48.3767920" lon="-1.9071510"><ele></ele><time>2017-12-16T1:35:0Z</time></trkpt>
<trkpt lat="48.3768150" lon="-1.9070600"><ele></ele><time>2017-12-16T1:35:3Z</time></trkpt>
<trkpt lat="48.3768390" lon="-1.9069730"><ele></ele><time>2017-12-16T1:35:6Z</time></trkpt>
<trkpt lat="48.3768650" lon="-1.9068870"><ele></ele><time>2017-12-16T1:35:9Z</time></trkpt>
<trkpt lat="48.3768940" lon="-1.9068150"><ele></ele><time>2017-12-16T1:35:12Z</time></trkpt>
<trkpt lat="48.3769180" lon="-1.9067300"><ele></ele><time>2017-12-16T1:35:15Z</time></trkpt>
<trkpt lat="48.3769560" lon="-1.9066380"><ele></ele><time>2017-12-16T1:35:18Z</time></trkpt>
<trkpt lat="48.3769690" lon="-1.9065470"><ele></ele><time>2017-12-16T1:35:21Z</time></trkpt>
<trkpt lat="48.3770050" lon="-1.9064680"><ele></ele><time>2017-12-16T1:35:24Z</time></trkpt>
<trkpt lat="48.3770310" lon="-1.9063820"><ele></ele><time>2017-12-16T1:35:27Z</time></trkpt>
<trkpt lat="48.3770530" lon="-1.9062930"><ele></ele><time>2017-12-16T1:35:30Z</time></trkpt>
<trkpt lat="48.3770780" lon="-1.9062070"><ele></ele><time>2017-12-16T1:35:33Z</time></trkpt>
<trkpt lat="48.3771020" lon="-1.9061200"><ele></ele><time>2017-12-16T1:35:36Z</time></trkpt>
<trkpt lat="48.3771270" lon="-1.9060320"><ele></ele><time>2017-12-16T1:35:39Z</time></trkpt>
<trkpt lat="48.3771530" lon="-1.9059500"><ele></ele><time>2017-12-16T1:35:42Z</time></trkpt>
<trkpt lat="48.3771750" lon="-1.9058640"><ele></ele><time>2017-12-16T1:35:45Z</time></trkpt>
<trkpt lat="48.3771940" lon="-1.9057840"><ele></ele><time>2017-12-16T1:35:48Z</time></trkpt>
<trkpt lat="48.3772260" lon="-1.9057010"><ele></ele><time>2017-12-16T1:35:51Z</time></trkpt>
<trkpt lat="48.3772450" lon="-1.9056150"><ele></ele><time>2017-12-16T1:35:54Z</time></trkpt>
<trkpt lat="48.3772640" lon="-1.9055360"><ele></ele><time>2017-12-16T1:35:57Z</time></trkpt>
<trkpt lat="48.3772860" lon="-1.9054470"><ele></ele><time>2017-12-16T1:36:0Z</time></trkpt>
<trkpt lat="48.3773120" lon="-1.9053600"><ele></ele><time>2017-12-16T1:36:3Z</time></trkpt>
<trkpt lat="48.3773360" lon="-1.9052690"><ele></ele><time>2017-12-16T1:36:6Z</time></trkpt>
<trkpt lat="48.3773640" lon="-1.9051830"><ele></ele><time>2017-12-16T1:36:9Z</time></trkpt>
<trkpt lat="48.3773930" lon="-1.9050880"><ele></ele><time>2017-12-16T1:36:12Z</time></trkpt>
<trkpt lat="48.3774190" lon="-1.9050040"><ele></ele><time>2017-12-16T1:36:15Z</time></trkpt>
<trkpt lat="48.3774380" lon="-1.9049120"><ele></ele><time>2017-12-16T1:36:18Z</time></trkpt>
<trkpt lat="48.3774620" lon="-1.9048270"><ele></ele><time>2017-12-16T1:36:21Z</time></trkpt>
<trkpt lat="48.3774810" lon="-1.9047350"><ele></ele><time>2017-12-16T1:36:24Z</time></trkpt>
<trkpt lat="48.3775080" lon="-1.9046450"><ele></ele><time>2017-12-16T1:36:27Z</time></trkpt>
<trkpt lat="48.3775310" lon="-1.9045540"><ele></ele><time>2017-12-16T1:36:30Z</time></trkpt>
<trkpt lat="48.3775560" lon="-1.9044640"><ele></ele><time>2017-12-16T1:36:33Z</time></trkpt>
<trkpt lat="48.3775870" lon="-1.9043820"><ele></ele><time>2017-12-16T1:36:36Z</time></trkpt>
<trkpt lat="48.3776130" lon="-1.9042910"><ele></ele><time>2017-12-16T1:36:39Z</time></trkpt>
<trkpt lat="48.3776320" lon="-1.9042030"><ele></ele><time>2017-12-16T1:36:42Z</time></trkpt>
<trkpt lat="48.3776570" lon="-1.9040990"><ele></ele><time>2017-12-16T1:36:45Z</time></trkpt>
<trkpt lat="48.3776760" lon="-1.9040180"><ele></ele><time>2017-12-16T1:36:48Z</time></trkpt>
<trkpt lat="48.3777010" lon="-1.9039360"><ele></ele><time>2017-12-16T1:36:51Z</time></trkpt>
<trkpt lat="48.3777140" lon="-1.9038480"><ele></ele><time>2017-12-16T1:36:54Z</time></trkpt>
<trkpt lat="48.3777390" lon="-1.9037630"><ele></ele><time>2017-12-16T1:36:57Z</time></trkpt>
<trkpt lat="48.3777560" lon="-1.9036760"><ele></ele><time>2017-12-16T1:37:0Z</time></trkpt>
<trkpt lat="48.3777850" lon="-1.9035890"><ele></ele><time>2017-12-16T1:37:3Z</time></trkpt>
<trkpt lat="48.3778090" lon="-1.9035030"><ele></ele><time>2017-12-16T1:37:6Z</time></trkpt>
<trkpt lat="48.3778290" lon="-1.9034160"><ele></ele><time>2017-12-16T1:37:9Z</time></trkpt>
<trkpt lat="48.3778470" lon="-1.9033270"><ele></ele><time>2017-12-16T1:37:12Z</time></trkpt>
<trkpt lat="48.3778670" lon="-1.9032450"><ele></ele><time>2017-12-16T1:37:15Z</time></trkpt>
<trkpt lat="48.3778930" lon="-1.9031590"><ele></ele><time>2017-12-16T1:37:18Z</time></trkpt>
<trkpt lat="48.3779120" lon="-1.9030760"><ele></ele><time>2017-12-16T1:37:21Z</time></trkpt>
<trkpt lat="48.3779430" lon="-1.9029960"><ele></ele><time>2017-12-16T1:37:24Z</time></trkpt>
<trkpt lat="48.3779660" lon="-1.9029050"><ele></ele><time>2017-12-16T1:37:27Z</time></trkpt>
<trkpt lat="48.3779870" lon="-1.9028250"><ele></ele><time>2017-12-16T1:37:30Z</time></trkpt>
<trkpt lat="48.3780130" lon="-1.9027430"><ele></ele><time>2017-12-16T1:37:33Z</time></trkpt>
<trkpt lat="48.3780360" lon="-1.9026600"><ele></ele><time>2017-12-16T1:37:36Z</time></trkpt>
<trkpt lat="48.3780670" lon="-1.9025910"><ele></ele><time>2017-12-16T1:37:39Z</time></trkpt>
<trkpt lat="48.3781060" lon="-1.9025010"><ele></ele><time>2017-12-16T1:37:42Z</time></trkpt>
<trkpt lat="48.3781270" lon="-1.9024040"><ele></ele><time>2017-12-16T1:37:45Z</time></trkpt>
<trkpt lat="48.3781440" lon="-1.9023240"><ele></ele><time>2017-12-16T1:37:48Z</time></trkpt>
<trkpt lat="48.3781670" lon="-1.9022410"><ele></ele><time>2017-12-16T1:37:51Z</time></trkpt>
<trkpt lat="48.3781880" lon="-1.9021660"><ele></ele><time>2017-12-16T1:37:54Z</time></trkpt>
<trkpt lat="48.3782090" lon="-1.9020800"><ele></ele><time>2017-12-16T1:37:57Z</time></trkpt>
<trkpt lat="48.3782300" lon="-1.9019960"><ele></ele><time>2017-12-16T1:38:0Z</time></trkpt>
<trkpt lat="48.3782490" lon="-1.9019210"><ele></ele><time>2017-12-16T1:38:3Z</time></trkpt>
<trkpt lat="48.3782760" lon="-1.9018420"><ele></ele><time>2017-12-16T1:38:6Z</time></trkpt>
<trkpt lat="48.3782950" lon="-1.9017650"><ele></ele><time>2017-12-16T1:38:9Z</time></trkpt>
<trkpt lat="48.3783190" lon="-1.9016860"><ele></ele><time>2017-12-16T1:38:12Z</time></trkpt>
<trkpt lat="48.3783450" lon="-1.9016080"><ele></ele><time>2017-12-16T1:38:15Z</time></trkpt>
<trkpt lat="48.3783660" lon="-1.9015310"><ele></ele><time>2017-12-16T1:38:18Z</time></trkpt>
<trkpt lat="48.3783810" lon="-1.9014550"><ele></ele><time>2017-12-16T1:38:21Z</time></trkpt>
<trkpt lat="48.3783950" lon="-1.9013850"><ele></ele><time>2017-12-16T1:38:24Z</time></trkpt>
<trkpt lat="48.3784070" lon="-1.9013030"><ele></ele><time>2017-12-16T1:38:27Z</time></trkpt>
<trkpt lat="48.3784250" lon="-1.9012200"><ele></ele><time>2017-12-16T1:38:30Z</time></trkpt>
<trkpt lat="48.3784330" lon="-1.9011380"><ele></ele><time>2017-12-16T1:38:33Z</time></trkpt>
<trkpt lat="48.3784440" lon="-1.9010580"><ele></ele><time>2017-12-16T1:38:36Z</time></trkpt>
<trkpt lat="48.3784530" lon="-1.9009700"><ele></ele><time>2017-12-16T1:38:39Z</time></trkpt>
<trkpt lat="48.3784540" lon="-1.9008840"><ele></ele><time>2017-12-16T1:38:42Z</time></trkpt>
<trkpt lat="48.3784630" lon="-1.9008030"><ele></ele><time>2017-12-16T1:38:45Z</time></trkpt>
<trkpt lat="48.3784640" lon="-1.9007180"><ele></ele><time>2017-12-16T1:38:48Z</time></trkpt>
<trkpt lat="48.3784680" lon="-1.9006340"><ele></ele><time>2017-12-16T1:38:51Z</time></trkpt>
<trkpt lat="48.3784670" lon="-1.9005470"><ele></ele><time>2017-12-16T1:38:54Z</time></trkpt>
<trkpt lat="48.3784610" lon="-1.9004610"><ele></ele><time>2017-12-16T1:38:57Z</time></trkpt>
<trkpt lat="48.3784600" lon="-1.9003750"><ele></ele><time>2017-12-16T1:39:0Z</time></trkpt>
<trkpt lat="48.3784580" lon="-1.9002910"><ele></ele><time>2017-12-16T1:39:3Z</time></trkpt>
<trkpt lat="48.3784550" lon="-1.9002050"><ele></ele><time>2017-12-16T1:39:6Z</time></trkpt>
<trkpt lat="48.3784480" lon="-1.9001230"><ele></ele><time>2017-12-16T1:39:9Z</time></trkpt>
<trkpt lat="48.3784430" lon="-1.9000380"><ele></ele><time>2017-12-16T1:39:12Z</time></trkpt>
<trkpt lat="48.3784280" lon="-1.8999520"><ele></ele><time>2017-12-16T1:39:15Z</time></trkpt>
<trkpt lat="48.3784150" lon="-1.8998640"><ele></ele><time>2017-12-16T1:39:18Z</time></trkpt>
<trkpt lat="48.3784060" lon="-1.8997810"><ele></ele><time>2017-12-16T1:39:21Z</time></trkpt>
<trkpt lat="48.3783930" lon="-1.8997000"><ele></ele><time>2017-12-16T1:39:24Z</time></trkpt>
<trkpt lat="48.3783800" lon="-1.8996080"><ele></ele><time>2017-12-16T1:39:27Z</time></trkpt>
<trkpt lat="48.3783580" lon="-1.8995220"><ele></ele><time>2017-12-16T1:39:30Z</time></trkpt>
<trkpt lat="48.3783390" lon="-1.8994420"><ele></ele><time>2017-12-16T1:39:33Z</time></trkpt>
<trkpt lat="48.3783240" lon="-1.8993550"><ele></ele><time>2017-12-16T1:39:36Z</time></trkpt>
<trkpt lat="48.3783080" lon="-1.8992730"><ele></ele><time>2017-12-16T1:39:39Z</time></trkpt>
<trkpt lat="48.3782880" lon="-1.8992010"><ele></ele><time>2017-12-16T1:39:42Z</time></trkpt>
<trkpt lat="48.3782700" lon="-1.8991210"><ele></ele><time>2017-12-16T1:39:45Z</time></trkpt>
<trkpt lat="48.3782520" lon="-1.8990470"><ele></ele><time>2017-12-16T1:39:48Z</time></trkpt>
<trkpt lat="48.3782290" lon="-1.8989630"><ele></ele><time>2017-12-16T1:39:51Z</time></trkpt>
<trkpt lat="48.3782070" lon="-1.8988630"><ele></ele><time>2017-12-16T1:39:54Z</time></trkpt>
<trkpt lat="48.3781900" lon="-1.8987870"><ele></ele><time>2017-12-16T1:39:57Z</time></trkpt>
<trkpt lat="48.3781690" lon="-1.8987050"><ele></ele><time>2017-12-16T1:40:0Z</time></trkpt>
<trkpt lat="48.3781450" lon="-1.8986320"><ele></ele><time>2017-12-16T1:40:3Z</time></trkpt>
<trkpt lat="48.3781280" lon="-1.8985530"><ele></ele><time>2017-12-16T1:40:6Z</time></trkpt>
<trkpt lat="48.3781130" lon="-1.8984710"><ele></ele><time>2017-12-16T1:40:9Z</time></trkpt>
<trkpt lat="48.3780970" lon="-1.8983930"><ele></ele><time>2017-12-16T1:40:12Z</time></trkpt>
<trkpt lat="48.3780750" lon="-1.8983150"><ele></ele><time>2017-12-16T1:40:15Z</time></trkpt>
<trkpt lat="48.3780530" lon="-1.8982360"><ele></ele><time>2017-12-16T1:40:18Z</time></trkpt>
<trkpt lat="48.3780330" lon="-1.8981530"><ele></ele><time>2017-12-16T1:40:21Z</time></trkpt>
<trkpt lat="48.3780130" lon="-1.8980740"><ele></ele><time>2017-12-16T1:40:24Z</time></trkpt>
<trkpt lat="48.3779920" lon="-1.8979900"><ele></ele><time>2017-12-16T1:40:27Z</time></trkpt>
<trkpt lat="48.3779730" lon="-1.8979160"><ele></ele><time>2017-12-16T1:40:30Z</time></trkpt>
<trkpt lat="48.3779540" lon="-1.8978330"><ele></ele><time>2017-12-16T1:40:33Z</time></trkpt>
<trkpt lat="48.3779380" lon="-1.8977520"><ele></ele><time>2017-12-16T1:40:36Z</time></trkpt>
<trkpt lat="48.3779160" lon="-1.8976660"><ele></ele><time>2017-12-16T1:40:39Z</time></trkpt>
<trkpt lat="48.3778980" lon="-1.8975860"><ele></ele><time>2017-12-16T1:40:42Z</time></trkpt>
<trkpt lat="48.3778810" lon="-1.8975060"><ele></ele><time>2017-12-16T1:40:45Z</time></trkpt>
<trkpt lat="48.3778650" lon="-1.8974210"><ele></ele><time>2017-12-16T1:40:48Z</time></trkpt>
<trkpt lat="48.3778540" lon="-1.8973410"><ele></ele><time>2017-12-16T1:40:51Z</time></trkpt>
<trkpt lat="48.3778420" lon="-1.8972560"><ele></ele><time>2017-12-16T1:40:54Z</time></trkpt>
<trkpt lat="48.3778310" lon="-1.8971730"><ele></ele><time>2017-12-16T1:40:57Z</time></trkpt>
<trkpt lat="48.3778230" lon="-1.8970830"><ele></ele><time>2017-12-16T1:41:0Z</time></trkpt>
<trkpt lat="48.3778120" lon="-1.8969990"><ele></ele><time>2017-12-16T1:41:3Z</time></trkpt>
<trkpt lat="48.3778070" lon="-1.8969140"><ele></ele><time>2017-12-16T1:41:6Z</time></trkpt>
<trkpt lat="48.3778040" lon="-1.8968290"><ele></ele><time>2017-12-16T1:41:9Z</time></trkpt>
<trkpt lat="48.3778020" lon="-1.8967500"><ele></ele><time>2017-12-16T1:41:12Z</time></trkpt>
<trkpt lat="48.3778060" lon="-1.8966620"><ele></ele><time>2017-12-16T1:41:15Z</time></trkpt>
<trkpt lat="48.3778030" lon="-1.8965770"><ele></ele><time>2017-12-16T1:41:18Z</time></trkpt>
<trkpt lat="48.3777920" lon="-1.8964770"><ele></ele><time>2017-12-16T1:41:21Z</time></trkpt>
<trkpt lat="48.3778020" lon="-1.8964120"><ele></ele><time>2017-12-16T1:41:24Z</time></trkpt>
<trkpt lat="48.3778120" lon="-1.8963360"><ele></ele><time>2017-12-16T1:41:27Z</time></trkpt>
<trkpt lat="48.3778140" lon="-1.8962570"><ele></ele><time>2017-12-16T1:41:30Z</time></trkpt>
<trkpt lat="48.3778280" lon="-1.8961720"><ele></ele><time>2017-12-16T1:41:33Z</time></trkpt>
<trkpt lat="48.3778350" lon="-1.8960870"><ele></ele><time>2017-12-16T1:41:36Z</time></trkpt>
<trkpt lat="48.3778420" lon="-1.8960100"><ele></ele><time>2017-12-16T1:41:39Z</time></trkpt>
<trkpt lat="48.3778470" lon="-1.8959370"><ele></ele><time>2017-12-16T1:41:42Z</time></trkpt>
<trkpt lat="48.3778480" lon="-1.8958730"><ele></ele><time>2017-12-16T1:41:45Z</time></trkpt>
<trkpt lat="48.3778470" lon="-1.8958170"><ele></ele><time>2017-12-16T1:41:48Z</time></trkpt>
<trkpt lat="48.3778910" lon="-1.8957500"><ele></ele><time>2017-12-16T1:41:51Z</time></trkpt>
<trkpt lat="48.3779160" lon="-1.8957030"><ele></ele><time>2017-12-16T1:41:54Z</time></trkpt>
<trkpt lat="48.3779330" lon="-1.8956600"><ele></ele><time>2017-12-16T1:41:57Z</time></trkpt>
<trkpt lat="48.3779440" lon="-1.8956000"><ele></ele><time>2017-12-16T1:42:0Z</time></trkpt>
<trkpt lat="48.3779620" lon="-1.8955530"><ele></ele><time>2017-12-16T1:42:3Z</time></trkpt>
<trkpt lat="48.3779730" lon="-1.8955030"><ele></ele><time>2017-12-16T1:42:6Z</time></trkpt>
<trkpt lat="48.3779820" lon="-1.8954610"><ele></ele><time>2017-12-16T1:42:9Z</time></trkpt>
<trkpt lat="48.3779890" lon="-1.8953770"><ele></ele><time>2017-12-16T1:42:12Z</time></trkpt>
<trkpt lat="48.3780130" lon="-1.8953370"><ele></ele><time>2017-12-16T1:42:15Z</time></trkpt>
<trkpt lat="48.3780380" lon="-1.8952890"><ele></ele><time>2017-12-16T1:42:18Z</time></trkpt>
<trkpt lat="48.3780650" lon="-1.8952400"><ele></ele><time>2017-12-16T1:42:21Z</time></trkpt>
<trkpt lat="48.3780960" lon="-1.8951840"><ele></ele><time>2017-12-16T1:42:24Z</time></trkpt>
<trkpt lat="48.3781260" lon="-1.8951260"><ele></ele><time>2017-12-16T1:42:27Z</time></trkpt>
<trkpt lat="48.3781610" lon="-1.8950630"><ele></ele><time>2017-12-16T1:42:30Z</time></trkpt>
<trkpt lat="48.3781950" lon="-1.8949890"><ele></ele><time>2017-12-16T1:42:33Z</time></trkpt>
<trkpt lat="48.3782300" lon="-1.8949150"><ele></ele><time>2017-12-16T1:42:36Z</time></trkpt>
<trkpt lat="48.3782690" lon="-1.8948450"><ele></ele><time>2017-12-16T1:42:39Z</time></trkpt>
<trkpt lat="48.3783120" lon="-1.8947810"><ele></ele><time>2017-12-16T1:42:42Z</time></trkpt>
<trkpt lat="48.3783520" lon="-1.8947260"><ele></ele><time>2017-12-16T1:42:45Z</time></trkpt>
<trkpt lat="48.3783910" lon="-1.8946720"><ele></ele><time>2017-12-16T1:42:48Z</time></trkpt>
<trkpt lat="48.3784290" lon="-1.8946200"><ele></ele><time>2017-12-16T1:42:51Z</time></trkpt>
<trkpt lat="48.3784610" lon="-1.8945650"><ele></ele><time>2017-12-16T1:42:54Z</time></trkpt>
<trkpt lat="48.3785040" lon="-1.8945070"><ele></ele><time>2017-12-16T1:42:57Z</time></trkpt>
<trkpt lat="48.3785450" lon="-1.8944410"><ele></ele><time>2017-12-16T1:43:0Z</time></trkpt>
<trkpt lat="48.3785820" lon="-1.8943830"><ele></ele><time>2017-12-16T1:43:3Z</time></trkpt>
<trkpt lat="48.3786130" lon="-1.8943340"><ele></ele><time>2017-12-16T1:43:6Z</time></trkpt>
<trkpt lat="48.3786420" lon="-1.8942800"><ele></ele><time>2017-12-16T1:43:9Z</time></trkpt>
<trkpt lat="48.3786820" lon="-1.8942210"><ele></ele><time>2017-12-16T1:43:12Z</time></trkpt>
<trkpt lat="48.3787230" lon="-1.8941630"><ele></ele><time>2017-12-16T1:43:15Z</time></trkpt>
<trkpt lat="48.3787590" lon="-1.8941060"><ele></ele><time>2017-12-16T1:43:18Z</time></trkpt>
<trkpt lat="48.3788060" lon="-1.8940520"><ele></ele><time>2017-12-16T1:43:21Z</time></trkpt>
<trkpt lat="48.3788500" lon="-1.8940000"><ele></ele><time>2017-12-16T1:43:24Z</time></trkpt>
<trkpt lat="48.3788900" lon="-1.8939490"><ele></ele><time>2017-12-16T1:43:27Z</time></trkpt>
<trkpt lat="48.3789340" lon="-1.8938950"><ele></ele><time>2017-12-16T1:43:30Z</time></trkpt>
<trkpt lat="48.3789770" lon="-1.8938410"><ele></ele><time>2017-12-16T1:43:33Z</time></trkpt>
<trkpt lat="48.3790140" lon="-1.8937870"><ele></ele><time>2017-12-16T1:43:36Z</time></trkpt>
<trkpt lat="48.3790520" lon="-1.8937330"><ele></ele><time>2017-12-16T1:43:39Z</time></trkpt>
<trkpt lat="48.3790820" lon="-1.8936760"><ele></ele><time>2017-12-16T1:43:42Z</time></trkpt>
<trkpt lat="48.3791140" lon="-1.8936210"><ele></ele><time>2017-12-16T1:43:45Z</time></trkpt>
<trkpt lat="48.3791350" lon="-1.8935730"><ele></ele><time>2017-12-16T1:43:48Z</time></trkpt>
<trkpt lat="48.3791670" lon="-1.8935500"><ele></ele><time>2017-12-16T1:43:51Z</time></trkpt>
<trkpt lat="48.3792090" lon="-1.8935360"><ele></ele><time>2017-12-16T1:43:54Z</time></trkpt>
<trkpt lat="48.3792470" lon="-1.8934920"><ele></ele><time>2017-12-16T1:43:57Z</time></trkpt>
<trkpt lat="48.3792820" lon="-1.8934490"><ele></ele><time>2017-12-16T1:44:0Z</time></trkpt>
<trkpt lat="48.3793260" lon="-1.8934010"><ele></ele><time>2017-12-16T1:44:3Z</time></trkpt>
<trkpt lat="48.3793680" lon="-1.8933550"><ele></ele><time>2017-12-16T1:44:6Z</time></trkpt>
<trkpt lat="48.3794040" lon="-1.8933010"><ele></ele><time>2017-12-16T1:44:9Z</time></trkpt>
<trkpt lat="48.3794420" lon="-1.8932370"><ele></ele><time>2017-12-16T1:44:12Z</time></trkpt>
<trkpt lat="48.3794870" lon="-1.8931810"><ele></ele><time>2017-12-16T1:44:15Z</time></trkpt>
<trkpt lat="48.3795310" lon="-1.8931210"><ele></ele><time>2017-12-16T1:44:18Z</time></trkpt>
<trkpt lat="48.3795680" lon="-1.8930540"><ele></ele><time>2017-12-16T1:44:21Z</time></trkpt>
<trkpt lat="48.3796080" lon="-1.8929930"><ele></ele><time>2017-12-16T1:44:24Z</time></trkpt>
<trkpt lat="48.3796460" lon="-1.8929380"><ele></ele><time>2017-12-16T1:44:27Z</time></trkpt>
<trkpt lat="48.3796910" lon="-1.8928880"><ele></ele><time>2017-12-16T1:44:30Z</time></trkpt>
<trkpt lat="48.3797300" lon="-1.8928180"><ele></ele><time>2017-12-16T1:44:33Z</time></trkpt>
<trkpt lat="48.3797720" lon="-1.8927590"><ele></ele><time>2017-12-16T1:44:36Z</time></trkpt>
<trkpt lat="48.3798120" lon="-1.8926990"><ele></ele><time>2017-12-16T1:44:39Z</time></trkpt>
<trkpt lat="48.3798630" lon="-1.8926500"><ele></ele><time>2017-12-16T1:44:42Z</time></trkpt>
<trkpt lat="48.3799080" lon="-1.8925900"><ele></ele><time>2017-12-16T1:44:45Z</time></trkpt>
<trkpt lat="48.3799510" lon="-1.8925320"><ele></ele><time>2017-12-16T1:44:48Z</time></trkpt>
<trkpt lat="48.3799920" lon="-1.8924670"><ele></ele><time>2017-12-16T1:44:51Z</time></trkpt>
<trkpt lat="48.3800360" lon="-1.8924110"><ele></ele><time>2017-12-16T1:44:54Z</time></trkpt>
<trkpt lat="48.3800860" lon="-1.8923590"><ele></ele><time>2017-12-16T1:44:57Z</time></trkpt>
<trkpt lat="48.3801290" lon="-1.8923000"><ele></ele><time>2017-12-16T1:45:0Z</time></trkpt>
<trkpt lat="48.3801730" lon="-1.8922520"><ele></ele><time>2017-12-16T1:45:3Z</time></trkpt>
<trkpt lat="48.3802210" lon="-1.8921960"><ele></ele><time>2017-12-16T1:45:6Z</time></trkpt>
<trkpt lat="48.3802660" lon="-1.8921400"><ele></ele><time>2017-12-16T1:45:9Z</time></trkpt>
<trkpt lat="48.3803080" lon="-1.8920940"><ele></ele><time>2017-12-16T1:45:12Z</time></trkpt>
<trkpt lat="48.3803520" lon="-1.8920480"><ele></ele><time>2017-12-16T1:45:15Z</time></trkpt>
<trkpt lat="48.3803870" lon="-1.8919960"><ele></ele><time>2017-12-16T1:45:18Z</time></trkpt>
<trkpt lat="48.3804330" lon="-1.8919350"><ele></ele><time>2017-12-16T1:45:21Z</time></trkpt>
<trkpt lat="48.3804560" lon="-1.8918670"><ele></ele><time>2017-12-16T1:45:24Z</time></trkpt>
<trkpt lat="48.3805000" lon="-1.8918070"><ele></ele><time>2017-12-16T1:45:27Z</time></trkpt>
<trkpt lat="48.3805460" lon="-1.8917450"><ele></ele><time>2017-12-16T1:45:30Z</time></trkpt>
<trkpt lat="48.3805960" lon="-1.8916750"><ele></ele><time>2017-12-16T1:45:33Z</time></trkpt>
<trkpt lat="48.3806420" lon="-1.8916080"><ele></ele><time>2017-12-16T1:45:36Z</time></trkpt>
<trkpt lat="48.3806860" lon="-1.8915300"><ele></ele><time>2017-12-16T1:45:39Z</time></trkpt>
<trkpt lat="48.3807210" lon="-1.8914570"><ele></ele><time>2017-12-16T1:45:42Z</time></trkpt>
<trkpt lat="48.3807650" lon="-1.8913820"><ele></ele><time>2017-12-16T1:45:45Z</time></trkpt>
<trkpt lat="48.3808130" lon="-1.8913170"><ele></ele><time>2017-12-16T1:45:48Z</time></trkpt>
<trkpt lat="48.3808610" lon="-1.8912590"><ele></ele><time>2017-12-16T1:45:51Z</time></trkpt>
<trkpt lat="48.3809080" lon="-1.8912000"><ele></ele><time>2017-12-16T1:45:54Z</time></trkpt>
<trkpt lat="48.3809590" lon="-1.8911410"><ele></ele><time>2017-12-16T1:45:57Z</time></trkpt>
<trkpt lat="48.3810050" lon="-1.8910810"><ele></ele><time>2017-12-16T1:46:0Z</time></trkpt>
<trkpt lat="48.3810490" lon="-1.8910190"><ele></ele><time>2017-12-16T1:46:3Z</time></trkpt>
<trkpt lat="48.3810880" lon="-1.8909610"><ele></ele><time>2017-12-16T1:46:6Z</time></trkpt>
<trkpt lat="48.3811230" lon="-1.8908880"><ele></ele><time>2017-12-16T1:46:9Z</time></trkpt>
<trkpt lat="48.3811610" lon="-1.8908230"><ele></ele><time>2017-12-16T1:46:12Z</time></trkpt>
<trkpt lat="48.3812010" lon="-1.8907610"><ele></ele><time>2017-12-16T1:46:15Z</time></trkpt>
<trkpt lat="48.3812410" lon="-1.8906980"><ele></ele><time>2017-12-16T1:46:18Z</time></trkpt>
<trkpt lat="48.3812800" lon="-1.8906330"><ele></ele><time>2017-12-16T1:46:21Z</time></trkpt>
<trkpt lat="48.3813250" lon="-1.8905730"><ele></ele><time>2017-12-16T1:46:24Z</time></trkpt>
<trkpt lat="48.3813580" lon="-1.8905110"><ele></ele><time>2017-12-16T1:46:27Z</time></trkpt>
<trkpt lat="48.3813950" lon="-1.8904390"><ele></ele><time>2017-12-16T1:46:30Z</time></trkpt>
<trkpt lat="48.3814300" lon="-1.8903650"><ele></ele><time>2017-12-16T1:46:33Z</time></trkpt>
<trkpt lat="48.3814690" lon="-1.8903030"><ele></ele><time>2017-12-16T1:46:36Z</time></trkpt>
<trkpt lat="48.3815070" lon="-1.8902360"><ele></ele><time>2017-12-16T1:46:39Z</time></trkpt>
<trkpt lat="48.3815400" lon="-1.8901670"><ele></ele><time>2017-12-16T1:46:42Z</time></trkpt>
<trkpt lat="48.3815840" lon="-1.8900920"><ele></ele><time>2017-12-16T1:46:45Z</time></trkpt>
<trkpt lat="48.3816220" lon="-1.8900300"><ele></ele><time>2017-12-16T1:46:48Z</time></trkpt>
<trkpt lat="48.3816570" lon="-1.8899660"><ele></ele><time>2017-12-16T1:46:51Z</time></trkpt>
<trkpt lat="48.3816920" lon="-1.8898990"><ele></ele><time>2017-12-16T1:46:54Z</time></trkpt>
<trkpt lat="48.3817270" lon="-1.8898330"><ele></ele><time>2017-12-16T1:46:57Z</time></trkpt>
<trkpt lat="48.3817610" lon="-1.8897690"><ele></ele><time>2017-12-16T1:47:0Z</time></trkpt>
<trkpt lat="48.3817960" lon="-1.8896970"><ele></ele><time>2017-12-16T1:47:3Z</time></trkpt>
<trkpt lat="48.3818320" lon="-1.8896320"><ele></ele><time>2017-12-16T1:47:6Z</time></trkpt>
<trkpt lat="48.3818720" lon="-1.8895660"><ele></ele><time>2017-12-16T1:47:9Z</time></trkpt>
<trkpt lat="48.3819090" lon="-1.8894970"><ele></ele><time>2017-12-16T1:47:12Z</time></trkpt>
<trkpt lat="48.3819410" lon="-1.8894230"><ele></ele><time>2017-12-16T1:47:15Z</time></trkpt>
<trkpt lat="48.3819710" lon="-1.8893390"><ele></ele><time>2017-12-16T1:47:18Z</time></trkpt>
<trkpt lat="48.3820040" lon="-1.8892640"><ele></ele><time>2017-12-16T1:47:21Z</time></trkpt>
<trkpt lat="48.3820420" lon="-1.8891950"><ele></ele><time>2017-12-16T1:47:24Z</time></trkpt>
<trkpt lat="48.3820810" lon="-1.8891190"><ele></ele><time>2017-12-16T1:47:27Z</time></trkpt>
<trkpt lat="48.3821140" lon="-1.8890430"><ele></ele><time>2017-12-16T1:47:30Z</time></trkpt>
<trkpt lat="48.3821430" lon="-1.8889650"><ele></ele><time>2017-12-16T1:47:33Z</time></trkpt>
<trkpt lat="48.3821710" lon="-1.8888790"><ele></ele><time>2017-12-16T1:47:36Z</time></trkpt>
<trkpt lat="48.3821990" lon="-1.8888000"><ele></ele><time>2017-12-16T1:47:39Z</time></trkpt>
<trkpt lat="48.3822200" lon="-1.8887210"><ele></ele><time>2017-12-16T1:47:42Z</time></trkpt>
<trkpt lat="48.3822400" lon="-1.8886370"><ele></ele><time>2017-12-16T1:47:45Z</time></trkpt>
<trkpt lat="48.3822660" lon="-1.8885630"><ele></ele><time>2017-12-16T1:47:48Z</time></trkpt>
<trkpt lat="48.3822880" lon="-1.8884820"><ele></ele><time>2017-12-16T1:47:51Z</time></trkpt>
<trkpt lat="48.3822970" lon="-1.8883950"><ele></ele><time>2017-12-16T1:47:54Z</time></trkpt>
<trkpt lat="48.3823130" lon="-1.8883100"><ele></ele><time>2017-12-16T1:47:57Z</time></trkpt>
<trkpt lat="48.3823220" lon="-1.8882220"><ele></ele><time>2017-12-16T1:48:0Z</time></trkpt>
<trkpt lat="48.3823350" lon="-1.8881370"><ele></ele><time>2017-12-16T1:48:3Z</time></trkpt>
<trkpt lat="48.3823440" lon="-1.8880520"><ele></ele><time>2017-12-16T1:48:6Z</time></trkpt>
<trkpt lat="48.3823520" lon="-1.8879630"><ele></ele><time>2017-12-16T1:48:9Z</time></trkpt>
<trkpt lat="48.3823590" lon="-1.8878730"><ele></ele><time>2017-12-16T1:48:12Z</time></trkpt>
<trkpt lat="48.3823600" lon="-1.8877810"><ele></ele><time>2017-12-16T1:48:15Z</time></trkpt>
<trkpt lat="48.3823560" lon="-1.8876890"><ele></ele><time>2017-12-16T1:48:18Z</time></trkpt>
<trkpt lat="48.3823510" lon="-1.8875980"><ele></ele><time>2017-12-16T1:48:21Z</time></trkpt>
<trkpt lat="48.3823430" lon="-1.8875050"><ele></ele><time>2017-12-16T1:48:24Z</time></trkpt>
<trkpt lat="48.3823350" lon="-1.8874150"><ele></ele><time>2017-12-16T1:48:27Z</time></trkpt>
<trkpt lat="48.3823260" lon="-1.8873300"><ele></ele><time>2017-12-16T1:48:30Z</time></trkpt>
<trkpt lat="48.3823180" lon="-1.8872430"><ele></ele><time>2017-12-16T1:48:33Z</time></trkpt>
<trkpt lat="48.3823060" lon="-1.8871590"><ele></ele><time>2017-12-16T1:48:36Z</time></trkpt>
<trkpt lat="48.3822880" lon="-1.8870760"><ele></ele><time>2017-12-16T1:48:39Z</time></trkpt>
<trkpt lat="48.3822680" lon="-1.8869900"><ele></ele><time>2017-12-16T1:48:42Z</time></trkpt>
<trkpt lat="48.3822410" lon="-1.8869080"><ele></ele><time>2017-12-16T1:48:45Z</time></trkpt>
<trkpt lat="48.3822200" lon="-1.8868290"><ele></ele><time>2017-12-16T1:48:48Z</time></trkpt>
<trkpt lat="48.3821920" lon="-1.8867530"><ele></ele><time>2017-12-16T1:48:51Z</time></trkpt>
<trkpt lat="48.3821600" lon="-1.8866780"><ele></ele><time>2017-12-16T1:48:54Z</time></trkpt>
<trkpt lat="48.3821280" lon="-1.8866000"><ele></ele><time>2017-12-16T1:48:57Z</time></trkpt>
<trkpt lat="48.3820960" lon="-1.8865280"><ele></ele><time>2017-12-16T1:49:0Z</time></trkpt>
<trkpt lat="48.3820660" lon="-1.8864580"><ele></ele><time>2017-12-16T1:49:3Z</time></trkpt>
<trkpt lat="48.3820270" lon="-1.8863970"><ele></ele><time>2017-12-16T1:49:6Z</time></trkpt>
<trkpt lat="48.3819930" lon="-1.8863320"><ele></ele><time>2017-12-16T1:49:9Z</time></trkpt>
<trkpt lat="48.3819590" lon="-1.8862640"><ele></ele><time>2017-12-16T1:49:12Z</time></trkpt>
<trkpt lat="48.3819330" lon="-1.8862030"><ele></ele><time>2017-12-16T1:49:15Z</time></trkpt>
<trkpt lat="48.3818960" lon="-1.8861470"><ele></ele><time>2017-12-16T1:49:18Z</time></trkpt>
<trkpt lat="48.3818520" lon="-1.8860910"><ele></ele><time>2017-12-16T1:49:21Z</time></trkpt>
<trkpt lat="48.3818080" lon="-1.8860240"><ele></ele><time>2017-12-16T1:49:24Z</time></trkpt>
<trkpt lat="48.3817600" lon="-1.8859690"><ele></ele><time>2017-12-16T1:49:27Z</time></trkpt>
<trkpt lat="48.3817170" lon="-1.8859130"><ele></ele><time>2017-12-16T1:49:30Z</time></trkpt>
<trkpt lat="48.3816690" lon="-1.8858590"><ele></ele><time>2017-12-16T1:49:33Z</time></trkpt>
<trkpt lat="48.3816160" lon="-1.8858140"><ele></ele><time>2017-12-16T1:49:36Z</time></trkpt>
<trkpt lat="48.3815580" lon="-1.8857660"><ele></ele><time>2017-12-16T1:49:39Z</time></trkpt>
<trkpt lat="48.3814990" lon="-1.8857200"><ele></ele><time>2017-12-16T1:49:42Z</time></trkpt>
<trkpt lat="48.3814390" lon="-1.8856890"><ele></ele><time>2017-12-16T1:49:45Z</time></trkpt>
<trkpt lat="48.3813760" lon="-1.8856520"><ele></ele><time>2017-12-16T1:49:48Z</time></trkpt>
<trkpt lat="48.3813160" lon="-1.8856080"><ele></ele><time>2017-12-16T1:49:51Z</time></trkpt>
<trkpt lat="48.3812570" lon="-1.8855850"><ele></ele><time>2017-12-16T1:49:54Z</time></trkpt>
<trkpt lat="48.3812030" lon="-1.8855750"><ele></ele><time>2017-12-16T1:49:57Z</time></trkpt>
<trkpt lat="48.3811470" lon="-1.8855560"><ele></ele><time>2017-12-16T1:50:0Z</time></trkpt>
<trkpt lat="48.3810820" lon="-1.8855230"><ele></ele><time>2017-12-16T1:50:3Z</time></trkpt>
<trkpt lat="48.3810160" lon="-1.8855030"><ele></ele><time>2017-12-16T1:50:6Z</time></trkpt>
<trkpt lat="48.3809430" lon="-1.8854880"><ele></ele><time>2017-12-16T1:50:9Z</time></trkpt>
<trkpt lat="48.3808900" lon="-1.8854820"><ele></ele><time>2017-12-16T1:50:12Z</time></trkpt>
<trkpt lat="48.3808370" lon="-1.8854800"><ele></ele><time>2017-12-16T1:50:15Z</time></trkpt>
<trkpt lat="48.3807740" lon="-1.8854710"><ele></ele><time>2017-12-16T1:50:18Z</time></trkpt>
<trkpt lat="48.3807130" lon="-1.8854600"><ele></ele><time>2017-12-16T1:50:21Z</time></trkpt>
<trkpt lat="48.3806500" lon="-1.8854460"><ele></ele><time>2017-12-16T1:50:24Z</time></trkpt>
<trkpt lat="48.3805880" lon="-1.8854340"><ele></ele><time>2017-12-16T1:50:27Z</time></trkpt>
<trkpt lat="48.3805230" lon="-1.8854190"><ele></ele><time>2017-12-16T1:50:30Z</time></trkpt>
<trkpt lat="48.3804580" lon="-1.8853960"><ele></ele><time>2017-12-16T1:50:33Z</time></trkpt>
<trkpt lat="48.3804010" lon="-1.8853770"><ele></ele><time>2017-12-16T1:50:36Z</time></trkpt>
<trkpt lat="48.3803440" lon="-1.8853590"><ele></ele><time>2017-12-16T1:50:39Z</time></trkpt>
<trkpt lat="48.3802870" lon="-1.8853370"><ele></ele><time>2017-12-16T1:50:42Z</time></trkpt>
<trkpt lat="48.3802350" lon="-1.8853100"><ele></ele><time>2017-12-16T1:50:45Z</time></trkpt>
<trkpt lat="48.3801760" lon="-1.8852750"><ele></ele><time>2017-12-16T1:50:48Z</time></trkpt>
<trkpt lat="48.3801270" lon="-1.8852350"><ele></ele><time>2017-12-16T1:50:51Z</time></trkpt>
<trkpt lat="48.3800750" lon="-1.8851930"><ele></ele><time>2017-12-16T1:50:54Z</time></trkpt>
<trkpt lat="48.3800310" lon="-1.8851590"><ele></ele><time>2017-12-16T1:50:57Z</time></trkpt>
<trkpt lat="48.3799770" lon="-1.8851110"><ele></ele><time>2017-12-16T1:51:0Z</time></trkpt>
<trkpt lat="48.3799300" lon="-1.8850530"><ele></ele><time>2017-12-16T1:51:3Z</time></trkpt>
<trkpt lat="48.3798930" lon="-1.8849900"><ele></ele><time>2017-12-16T1:51:6Z</time></trkpt>
<trkpt lat="48.3798540" lon="-1.8849330"><ele></ele><time>2017-12-16T1:51:9Z</time></trkpt>
<trkpt lat="48.3798150" lon="-1.8848640"><ele></ele><time>2017-12-16T1:51:12Z</time></trkpt>
<trkpt lat="48.3797740" lon="-1.8848100"><ele></ele><time>2017-12-16T1:51:15Z</time></trkpt>
<trkpt lat="48.3797330" lon="-1.8847430"><ele></ele><time>2017-12-16T1:51:18Z</time></trkpt>
<trkpt lat="48.3797020" lon="-1.8846930"><ele></ele><time>2017-12-16T1:51:21Z</time></trkpt>
<trkpt lat="48.3796690" lon="-1.8846510"><ele></ele><time>2017-12-16T1:51:24Z</time></trkpt>
<trkpt lat="48.3796420" lon="-1.8846220"><ele></ele><time>2017-12-16T1:51:27Z</time></trkpt>
<trkpt lat="48.3796300" lon="-1.8845780"><ele></ele><time>2017-12-16T1:51:30Z</time></trkpt>
<trkpt lat="48.3796200" lon="-1.8845170"><ele></ele><time>2017-12-16T1:51:33Z</time></trkpt>
<trkpt lat="48.3795970" lon="-1.8844620"><ele></ele><time>2017-12-16T1:51:36Z</time></trkpt>
<trkpt lat="48.3795700" lon="-1.8844100"><ele></ele><time>2017-12-16T1:51:39Z</time></trkpt>
<trkpt lat="48.3795440" lon="-1.8843490"><ele></ele><time>2017-12-16T1:51:42Z</time></trkpt>
<trkpt lat="48.3795160" lon="-1.8842840"><ele></ele><time>2017-12-16T1:51:45Z</time></trkpt>
<trkpt lat="48.3794930" lon="-1.8842240"><ele></ele><time>2017-12-16T1:51:48Z</time></trkpt>
<trkpt lat="48.3794710" lon="-1.8841570"><ele></ele><time>2017-12-16T1:51:51Z</time></trkpt>
<trkpt lat="48.3794540" lon="-1.8840870"><ele></ele><time>2017-12-16T1:51:54Z</time></trkpt>
<trkpt lat="48.3794440" lon="-1.8840200"><ele></ele><time>2017-12-16T1:51:57Z</time></trkpt>
<trkpt lat="48.3794250" lon="-1.8839460"><ele></ele><time>2017-12-16T1:52:0Z</time></trkpt>
<trkpt lat="48.3794130" lon="-1.8838650"><ele></ele><time>2017-12-16T1:52:3Z</time></trkpt>
<trkpt lat="48.3794050" lon="-1.8837860"><ele></ele><time>2017-12-16T1:52:6Z</time></trkpt>
<trkpt lat="48.3793900" lon="-1.8837070"><ele></ele><time>2017-12-16T1:52:9Z</time></trkpt>
<trkpt lat="48.3793650" lon="-1.8836300"><ele></ele><time>2017-12-16T1:52:12Z</time></trkpt>
<trkpt lat="48.3793380" lon="-1.8835540"><ele></ele><time>2017-12-16T1:52:15Z</time></trkpt>
<trkpt lat="48.3793030" lon="-1.8834850"><ele></ele><time>2017-12-16T1:52:18Z</time></trkpt>
<trkpt lat="48.3792660" lon="-1.8834160"><ele></ele><time>2017-12-16T1:52:21Z</time></trkpt>
<trkpt lat="48.3792320" lon="-1.8833470"><ele></ele><time>2017-12-16T1:52:24Z</time></trkpt>
<trkpt lat="48.3791960" lon="-1.8832820"><ele></ele><time>2017-12-16T1:52:27Z</time></trkpt>
<trkpt lat="48.3791590" lon="-1.8832170"><ele></ele><time>2017-12-16T1:52:30Z</time></trkpt>
<trkpt lat="48.3791300" lon="-1.8831480"><ele></ele><time>2017-12-16T1:52:33Z</time></trkpt>
<trkpt lat="48.3791040" lon="-1.8830790"><ele></ele><time>2017-12-16T1:52:36Z</time></trkpt>
<trkpt lat="48.3790860" lon="-1.8830090"><ele></ele><time>2017-12-16T1:52:39Z</time></trkpt>
<trkpt lat="48.3790710" lon="-1.8829380"><ele></ele><time>2017-12-16T1:52:42Z</time></trkpt>
<trkpt lat="48.3790560" lon="-1.8828650"><ele></ele><time>2017-12-16T1:52:45Z</time></trkpt>
<trkpt lat="48.3790420" lon="-1.8827920"><ele></ele><time>2017-12-16T1:52:48Z</time></trkpt>
<trkpt lat="48.3790340" lon="-1.8827190"><ele></ele><time>2017-12-16T1:52:51Z</time></trkpt>
<trkpt lat="48.3790280" lon="-1.8826490"><ele></ele><time>2017-12-16T1:52:54Z</time></trkpt>
<trkpt lat="48.3790220" lon="-1.8825800"><ele></ele><time>2017-12-16T1:52:57Z</time></trkpt>
<trkpt lat="48.3790210" lon="-1.8825180"><ele></ele><time>2017-12-16T1:53:0Z</time></trkpt>
<trkpt lat="48.3790230" lon="-1.8824590"><ele></ele><time>2017-12-16T1:53:3Z</time></trkpt>
<trkpt lat="48.3790240" lon="-1.8824050"><ele></ele><time>2017-12-16T1:53:6Z</time></trkpt>
<trkpt lat="48.3790240" lon="-1.8823620"><ele></ele><time>2017-12-16T1:53:9Z</time></trkpt>
<trkpt lat="48.3790390" lon="-1.8822780"><ele></ele><time>2017-12-16T1:53:12Z</time></trkpt>
<trkpt lat="48.3790280" lon="-1.8822380"><ele></ele><time>2017-12-16T1:53:15Z</time></trkpt>
<trkpt lat="48.3790140" lon="-1.8822030"><ele></ele><time>2017-12-16T1:53:18Z</time></trkpt>
<trkpt lat="48.3790230" lon="-1.8821560"><ele></ele><time>2017-12-16T1:53:21Z</time></trkpt>
<trkpt lat="48.3790350" lon="-1.8821160"><ele></ele><time>2017-12-16T1:53:24Z</time></trkpt>
<trkpt lat="48.3790550" lon="-1.8820860"><ele></ele><time>2017-12-16T1:53:27Z</time></trkpt>
<trkpt lat="48.3790480" lon="-1.8820410"><ele></ele><time>2017-12-16T1:53:30Z</time></trkpt>
<trkpt lat="48.3790350" lon="-1.8820050"><ele></ele><time>2017-12-16T1:53:33Z</time></trkpt>
<trkpt lat="48.3790230" lon="-1.8819600"><ele></ele><time>2017-12-16T1:53:36Z</time></trkpt>
<trkpt lat="48.3790190" lon="-1.8819070"><ele></ele><time>2017-12-16T1:53:39Z</time></trkpt>
<trkpt lat="48.3790470" lon="-1.8818850"><ele></ele><time>2017-12-16T1:53:42Z</time></trkpt>
<trkpt lat="48.3790210" lon="-1.8818700"><ele></ele><time>2017-12-16T1:53:45Z</time></trkpt>
<trkpt lat="48.3790100" lon="-1.8819120"><ele></ele><time>2017-12-16T1:53:48Z</time></trkpt>
<trkpt lat="48.3789930" lon="-1.8819520"><ele></ele><time>2017-12-16T1:53:51Z</time></trkpt>
<trkpt lat="48.3789970" lon="-1.8819940"><ele></ele><time>2017-12-16T1:53:54Z</time></trkpt>
<trkpt lat="48.3789990" lon="-1.8820370"><ele></ele><time>2017-12-16T1:53:57Z</time></trkpt>
<trkpt lat="48.3789920" lon="-1.8820830"><ele></ele><time>2017-12-16T1:54:0Z</time></trkpt>
<trkpt lat="48.3789860" lon="-1.8821260"><ele></ele><time>2017-12-16T1:54:3Z</time></trkpt>
<trkpt lat="48.3790340" lon="-1.8822670"><ele></ele><time>2017-12-16T1:54:6Z</time></trkpt>
<trkpt lat="48.3790370" lon="-1.8823130"><ele></ele><time>2017-12-16T1:54:9Z</time></trkpt>
<trkpt lat="48.3790120" lon="-1.8822800"><ele></ele><time>2017-12-16T1:54:12Z</time></trkpt>
<trkpt lat="48.3789950" lon="-1.8822360"><ele></ele><time>2017-12-16T1:54:15Z</time></trkpt>
<trkpt lat="48.3789780" lon="-1.8821940"><ele></ele><time>2017-12-16T1:54:18Z</time></trkpt>
<trkpt lat="48.3789620" lon="-1.8821400"><ele></ele><time>2017-12-16T1:54:21Z</time></trkpt>
<trkpt lat="48.3789570" lon="-1.8820970"><ele></ele><time>2017-12-16T1:54:24Z</time></trkpt>
<trkpt lat="48.3789480" lon="-1.8820430"><ele></ele><time>2017-12-16T1:54:27Z</time></trkpt>
<trkpt lat="48.3789370" lon="-1.8819930"><ele></ele><time>2017-12-16T1:54:30Z</time></trkpt>
<trkpt lat="48.3789340" lon="-1.8819400"><ele></ele><time>2017-12-16T1:54:33Z</time></trkpt>
<trkpt lat="48.3789200" lon="-1.8818850"><ele></ele><time>2017-12-16T1:54:36Z</time></trkpt>
<trkpt lat="48.3789150" lon="-1.8818280"><ele></ele><time>2017-12-16T1:54:39Z</time></trkpt>
<trkpt lat="48.3789030" lon="-1.8817740"><ele></ele><time>2017-12-16T1:54:42Z</time></trkpt>
<trkpt lat="48.3788940" lon="-1.8817330"><ele></ele><time>2017-12-16T1:54:45Z</time></trkpt>
<trkpt lat="48.3788980" lon="-1.8816810"><ele></ele><time>2017-12-16T1:54:48Z</time></trkpt>
<trkpt lat="48.3788900" lon="-1.8816280"><ele></ele><time>2017-12-16T1:54:51Z</time></trkpt>
<trkpt lat="48.3788860" lon="-1.8815760"><ele></ele><time>2017-12-16T1:54:54Z</time></trkpt>
<trkpt lat="48.3788830" lon="-1.8815210"><ele></ele><time>2017-12-16T1:54:57Z</time></trkpt>
<trkpt lat="48.3788950" lon="-1.8814670"><ele></ele><time>2017-12-16T1:55:0Z</time></trkpt>
<trkpt lat="48.3788810" lon="-1.8814250"><ele></ele><time>2017-12-16T1:55:3Z</time></trkpt>
<trkpt lat="48.3788680" lon="-1.8813790"><ele></ele><time>2017-12-16T1:55:6Z</time></trkpt>
<trkpt lat="48.3788610" lon="-1.8813390"><ele></ele><time>2017-12-16T1:55:9Z</time></trkpt>
<trkpt lat="48.3788440" lon="-1.8812970"><ele></ele><time>2017-12-16T1:55:12Z</time></trkpt>
<trkpt lat="48.3788340" lon="-1.8812570"><ele></ele><time>2017-12-16T1:55:15Z</time></trkpt>
<trkpt lat="48.3788090" lon="-1.8812300"><ele></ele><time>2017-12-16T1:55:18Z</time></trkpt>
<trkpt lat="48.3787850" lon="-1.8811940"><ele></ele><time>2017-12-16T1:55:21Z</time></trkpt>
<trkpt lat="48.3787630" lon="-1.8811630"><ele></ele><time>2017-12-16T1:55:24Z</time></trkpt>
<trkpt lat="48.3787280" lon="-1.8811560"><ele></ele><time>2017-12-16T1:55:27Z</time></trkpt>
<trkpt lat="48.3786950" lon="-1.8811660"><ele></ele><time>2017-12-16T1:55:30Z</time></trkpt>
<trkpt lat="48.3786670" lon="-1.8811830"><ele></ele><time>2017-12-16T1:55:33Z</time></trkpt>
<trkpt lat="48.3786350" lon="-1.8811990"><ele></ele><time>2017-12-16T1:55:36Z</time></trkpt>
<trkpt lat="48.3786070" lon="-1.8812300"><ele></ele><time>2017-12-16T1:55:39Z</time></trkpt>
<trkpt lat="48.3785920" lon="-1.8812670"><ele></ele><time>2017-12-16T1:55:42Z</time></trkpt>
<trkpt lat="48.3785630" lon="-1.8812630"><ele></ele><time>2017-12-16T1:55:45Z</time></trkpt>
<trkpt lat="48.3785680" lon="-1.8813090"><ele></ele><time>2017-12-16T1:55:48Z</time></trkpt>
<trkpt lat="48.3785910" lon="-1.8812520"><ele></ele><time>2017-12-16T1:55:51Z</time></trkpt>
<trkpt lat="48.3786180" lon="-1.8811990"><ele></ele><time>2017-12-16T1:55:54Z</time></trkpt>
<trkpt lat="48.3786360" lon="-1.8811640"><ele></ele><time>2017-12-16T1:55:57Z</time></trkpt>
<trkpt lat="48.3786620" lon="-1.8811160"><ele></ele><time>2017-12-16T1:56:0Z</time></trkpt>
<trkpt lat="48.3787210" lon="-1.8811400"><ele></ele><time>2017-12-16T1:56:3Z</time></trkpt>
<trkpt lat="48.3787490" lon="-1.8811720"><ele></ele><time>2017-12-16T1:56:6Z</time></trkpt>
<trkpt lat="48.3787790" lon="-1.8812080"><ele></ele><time>2017-12-16T1:56:9Z</time></trkpt>
<trkpt lat="48.3788070" lon="-1.8812430"><ele></ele><time>2017-12-16T1:56:12Z</time></trkpt>
<trkpt lat="48.3788360" lon="-1.8812630"><ele></ele><time>2017-12-16T1:56:15Z</time></trkpt>
<trkpt lat="48.3788670" lon="-1.8812610"><ele></ele><time>2017-12-16T1:56:18Z</time></trkpt>
<trkpt lat="48.3788980" lon="-1.8812560"><ele></ele><time>2017-12-16T1:56:21Z</time></trkpt>
<trkpt lat="48.3789120" lon="-1.8811940"><ele></ele><time>2017-12-16T1:56:24Z</time></trkpt>
<trkpt lat="48.3789290" lon="-1.8811380"><ele></ele><time>2017-12-16T1:56:27Z</time></trkpt>
<trkpt lat="48.3789510" lon="-1.8810850"><ele></ele><time>2017-12-16T1:56:30Z</time></trkpt>
<trkpt lat="48.3789620" lon="-1.8810220"><ele></ele><time>2017-12-16T1:56:33Z</time></trkpt>
<trkpt lat="48.3789720" lon="-1.8809590"><ele></ele><time>2017-12-16T1:56:36Z</time></trkpt>
<trkpt lat="48.3789730" lon="-1.8808890"><ele></ele><time>2017-12-16T1:56:39Z</time></trkpt>
<trkpt lat="48.3789730" lon="-1.8808260"><ele></ele><time>2017-12-16T1:56:42Z</time></trkpt>
<trkpt lat="48.3789680" lon="-1.8807650"><ele></ele><time>2017-12-16T1:56:45Z</time></trkpt>
<trkpt lat="48.3789600" lon="-1.8807010"><ele></ele><time>2017-12-16T1:56:48Z</time></trkpt>
<trkpt lat="48.3789570" lon="-1.8806430"><ele></ele><time>2017-12-16T1:56:51Z</time></trkpt>
<trkpt lat="48.3789560" lon="-1.8805810"><ele></ele><time>2017-12-16T1:56:54Z</time></trkpt>
<trkpt lat="48.3789530" lon="-1.8805190"><ele></ele><time>2017-12-16T1:56:57Z</time></trkpt>
<trkpt lat="48.3789480" lon="-1.8804650"><ele></ele><time>2017-12-16T1:57:0Z</time></trkpt>
<trkpt lat="48.3789410" lon="-1.8804080"><ele></ele><time>2017-12-16T1:57:3Z</time></trkpt>
<trkpt lat="48.3789380" lon="-1.8803530"><ele></ele><time>2017-12-16T1:57:6Z</time></trkpt>
<trkpt lat="48.3789300" lon="-1.8803010"><ele></ele><time>2017-12-16T1:57:9Z</time></trkpt>
<trkpt lat="48.3789240" lon="-1.8802450"><ele></ele><time>2017-12-16T1:57:12Z</time></trkpt>
<trkpt lat="48.3789100" lon="-1.8801840"><ele></ele><time>2017-12-16T1:57:15Z</time></trkpt>
<trkpt lat="48.3788990" lon="-1.8801220"><ele></ele><time>2017-12-16T1:57:18Z</time></trkpt>
<trkpt lat="48.3788880" lon="-1.8800640"><ele></ele><time>2017-12-16T1:57:21Z</time></trkpt>
<trkpt lat="48.3788740" lon="-1.8800080"><ele></ele><time>2017-12-16T1:57:24Z</time></trkpt>
<trkpt lat="48.3788620" lon="-1.8799490"><ele></ele><time>2017-12-16T1:57:27Z</time></trkpt>
<trkpt lat="48.3788520" lon="-1.8798970"><ele></ele><time>2017-12-16T1:57:30Z</time></trkpt>
<trkpt lat="48.3788440" lon="-1.8798470"><ele></ele><time>2017-12-16T1:57:33Z</time></trkpt>
<trkpt lat="48.3788360" lon="-1.8798000"><ele></ele><time>2017-12-16T1:57:36Z</time></trkpt>
<trkpt lat="48.3788290" lon="-1.8797530"><ele></ele><time>2017-12-16T1:57:39Z</time></trkpt>
<trkpt lat="48.3788200" lon="-1.8797000"><ele></ele><time>2017-12-16T1:57:42Z</time></trkpt>
<trkpt lat="48.3788190" lon="-1.8796440"><ele></ele><time>2017-12-16T1:57:45Z</time></trkpt>
<trkpt lat="48.3788140" lon="-1.8795780"><ele></ele><time>2017-12-16T1:57:48Z</time></trkpt>
<trkpt lat="48.3788130" lon="-1.8795350"><ele></ele><time>2017-12-16T1:57:51Z</time></trkpt>
<trkpt lat="48.3787910" lon="-1.8795000"><ele></ele><time>2017-12-16T1:57:54Z</time></trkpt>
<trkpt lat="48.3787700" lon="-1.8794610"><ele></ele><time>2017-12-16T1:57:57Z</time></trkpt>
<trkpt lat="48.3787980" lon="-1.8794280"><ele></ele><time>2017-12-16T1:58:0Z</time></trkpt>
<trkpt lat="48.3788320" lon="-1.8794450"><ele></ele><time>2017-12-16T1:58:3Z</time></trkpt>
<trkpt lat="48.3788680" lon="-1.8794620"><ele></ele><time>2017-12-16T1:58:6Z</time></trkpt>
<trkpt lat="48.3789080" lon="-1.8794820"><ele></ele><time>2017-12-16T1:58:9Z</time></trkpt>
<trkpt lat="48.3789500" lon="-1.8794990"><ele></ele><time>2017-12-16T1:58:12Z</time></trkpt>
<trkpt lat="48.3789920" lon="-1.8795230"><ele></ele><time>2017-12-16T1:58:15Z</time></trkpt>
<trkpt lat="48.3790400" lon="-1.8795470"><ele></ele><time>2017-12-16T1:58:18Z</time></trkpt>
<trkpt lat="48.3790870" lon="-1.8795730"><ele></ele><time>2017-12-16T1:58:21Z</time></trkpt>
<trkpt lat="48.3791370" lon="-1.8795990"><ele></ele><time>2017-12-16T1:58:24Z</time></trkpt>
<trkpt lat="48.3791880" lon="-1.8796200"><ele></ele><time>2017-12-16T1:58:27Z</time></trkpt>
<trkpt lat="48.3792410" lon="-1.8796470"><ele></ele><time>2017-12-16T1:58:30Z</time></trkpt>
<trkpt lat="48.3792950" lon="-1.8796730"><ele></ele><time>2017-12-16T1:58:33Z</time></trkpt>
<trkpt lat="48.3793500" lon="-1.8797020"><ele></ele><time>2017-12-16T1:58:36Z</time></trkpt>
<trkpt lat="48.3794100" lon="-1.8797380"><ele></ele><time>2017-12-16T1:58:39Z</time></trkpt>
<trkpt lat="48.3794720" lon="-1.8797670"><ele></ele><time>2017-12-16T1:58:42Z</time></trkpt>
<trkpt lat="48.3795370" lon="-1.8797970"><ele></ele><time>2017-12-16T1:58:45Z</time></trkpt>
<trkpt lat="48.3796000" lon="-1.8798310"><ele></ele><time>2017-12-16T1:58:48Z</time></trkpt>
<trkpt lat="48.3796680" lon="-1.8798680"><ele></ele><time>2017-12-16T1:58:51Z</time></trkpt>
<trkpt lat="48.3797350" lon="-1.8799060"><ele></ele><time>2017-12-16T1:58:54Z</time></trkpt>
<trkpt lat="48.3798090" lon="-1.8799410"><ele></ele><time>2017-12-16T1:58:57Z</time></trkpt>
<trkpt lat="48.3798800" lon="-1.8799720"><ele></ele><time>2017-12-16T1:59:0Z</time></trkpt>
<trkpt lat="48.3799490" lon="-1.8800100"><ele></ele><time>2017-12-16T1:59:3Z</time></trkpt>
<trkpt lat="48.3800200" lon="-1.8800470"><ele></ele><time>2017-12-16T1:59:6Z</time></trkpt>
<trkpt lat="48.3800920" lon="-1.8800840"><ele></ele><time>2017-12-16T1:59:9Z</time></trkpt>
<trkpt lat="48.3801600" lon="-1.8801170"><ele></ele><time>2017-12-16T1:59:12Z</time></trkpt>
<trkpt lat="48.3802290" lon="-1.8801500"><ele></ele><time>2017-12-16T1:59:15Z</time></trkpt>
<trkpt lat="48.3802980" lon="-1.8801830"><ele></ele><time>2017-12-16T1:59:18Z</time></trkpt>
<trkpt lat="48.3803650" lon="-1.8802140"><ele></ele><time>2017-12-16T1:59:21Z</time></trkpt>
<trkpt lat="48.3804270" lon="-1.8802400"><ele></ele><time>2017-12-16T1:59:24Z</time></trkpt>
<trkpt lat="48.3804900" lon="-1.8802780"><ele></ele><time>2017-12-16T1:59:27Z</time></trkpt>
<trkpt lat="48.3805490" lon="-1.8803110"><ele></ele><time>2017-12-16T1:59:30Z</time></trkpt>
<trkpt lat="48.3806070" lon="-1.8803400"><ele></ele><time>2017-12-16T1:59:33Z</time></trkpt>
<trkpt lat="48.3806630" lon="-1.8803700"><ele></ele><time>2017-12-16T1:59:36Z</time></trkpt>
<trkpt lat="48.3807160" lon="-1.8804020"><ele></ele><time>2017-12-16T1:59:39Z</time></trkpt>
<trkpt lat="48.3807670" lon="-1.8804300"><ele></ele><time>2017-12-16T1:59:42Z</time></trkpt>
<trkpt lat="48.3808160" lon="-1.8804610"><ele></ele><time>2017-12-16T1:59:45Z</time></trkpt>
<trkpt lat="48.3808640" lon="-1.8804880"><ele></ele><time>2017-12-16T1:59:48Z</time></trkpt>
<trkpt lat="48.3809110" lon="-1.8805150"><ele></ele><time>2017-12-16T1:59:51Z</time></trkpt>
<trkpt lat="48.3809560" lon="-1.8805430"><ele></ele><time>2017-12-16T1:59:54Z</time></trkpt>
<trkpt lat="48.3810010" lon="-1.8805690"><ele></ele><time>2017-12-16T1:59:57Z</time></trkpt>
<trkpt lat="48.3810510" lon="-1.8805970"><ele></ele><time>2017-12-16T2:0:0Z</time></trkpt>
<trkpt lat="48.3810930" lon="-1.8806270"><ele></ele><time>2017-12-16T2:0:3Z</time></trkpt>
<trkpt lat="48.3811370" lon="-1.8806500"><ele></ele><time>2017-12-16T2:0:6Z</time></trkpt>
<trkpt lat="48.3811800" lon="-1.8806860"><ele></ele><time>2017-12-16T2:0:9Z</time></trkpt>
<trkpt lat="48.3812260" lon="-1.8807180"><ele></ele><time>2017-12-16T2:0:12Z</time></trkpt>
<trkpt lat="48.3812660" lon="-1.8807510"><ele></ele><time>2017-12-16T2:0:15Z</time></trkpt>
<trkpt lat="48.3813070" lon="-1.8807860"><ele></ele><time>2017-12-16T2:0:18Z</time></trkpt>
<trkpt lat="48.3813520" lon="-1.8808180"><ele></ele><time>2017-12-16T2:0:21Z</time></trkpt>
<trkpt lat="48.3813940" lon="-1.8808550"><ele></ele><time>2017-12-16T2:0:24Z</time></trkpt>
<trkpt lat="48.3814330" lon="-1.8808960"><ele></ele><time>2017-12-16T2:0:27Z</time></trkpt>
<trkpt lat="48.3814760" lon="-1.8809370"><ele></ele><time>2017-12-16T2:0:30Z</time></trkpt>
<trkpt lat="48.3815160" lon="-1.8809750"><ele></ele><time>2017-12-16T2:0:33Z</time></trkpt>
<trkpt lat="48.3815570" lon="-1.8810200"><ele></ele><time>2017-12-16T2:0:36Z</time></trkpt>
<trkpt lat="48.3815920" lon="-1.8810630"><ele></ele><time>2017-12-16T2:0:39Z</time></trkpt>
<trkpt lat="48.3816260" lon="-1.8811070"><ele></ele><time>2017-12-16T2:0:42Z</time></trkpt>
<trkpt lat="48.3816630" lon="-1.8811510"><ele></ele><time>2017-12-16T2:0:45Z</time></trkpt>
<trkpt lat="48.3816970" lon="-1.8811960"><ele></ele><time>2017-12-16T2:0:48Z</time></trkpt>
<trkpt lat="48.3817330" lon="-1.8812440"><ele></ele><time>2017-12-16T2:0:51Z</time></trkpt>
<trkpt lat="48.3817680" lon="-1.8812980"><ele></ele><time>2017-12-16T2:0:54Z</time></trkpt>
<trkpt lat="48.3818040" lon="-1.8813450"><ele></ele><time>2017-12-16T2:0:57Z</time></trkpt>
<trkpt lat="48.3818440" lon="-1.8813910"><ele></ele><time>2017-12-16T2:1:0Z</time></trkpt>
<trkpt lat="48.3818820" lon="-1.8814380"><ele></ele><time>2017-12-16T2:1:3Z</time></trkpt>
<trkpt lat="48.3819190" lon="-1.8814840"><ele></ele><time>2017-12-16T2:1:6Z</time></trkpt>
<trkpt lat="48.3819600" lon="-1.8815350"><ele></ele><time>2017-12-16T2:1:9Z</time></trkpt>
<trkpt lat="48.3819980" lon="-1.8815840"><ele></ele><time>2017-12-16T2:1:12Z</time></trkpt>
<trkpt lat="48.3820400" lon="-1.8816370"><ele></ele><time>2017-12-16T2:1:15Z</time></trkpt>
<trkpt lat="48.3820830" lon="-1.8816910"><ele></ele><time>2017-12-16T2:1:18Z</time></trkpt>
<trkpt lat="48.3821260" lon="-1.8817460"><ele></ele><time>2017-12-16T2:1:21Z</time></trkpt>
<trkpt lat="48.3821680" lon="-1.8818050"><ele></ele><time>2017-12-16T2:1:24Z</time></trkpt>
<trkpt lat="48.3822110" lon="-1.8818610"><ele></ele><time>2017-12-16T2:1:27Z</time></trkpt>
<trkpt lat="48.3822510" lon="-1.8819220"><ele></ele><time>2017-12-16T2:1:30Z</time></trkpt>
<trkpt lat="48.3822940" lon="-1.8819820"><ele></ele><time>2017-12-16T2:1:33Z</time></trkpt>
<trkpt lat="48.3823380" lon="-1.8820370"><ele></ele><time>2017-12-16T2:1:36Z</time></trkpt>
<trkpt lat="48.3823830" lon="-1.8820960"><ele></ele><time>2017-12-16T2:1:39Z</time></trkpt>
<trkpt lat="48.3824300" lon="-1.8821560"><ele></ele><time>2017-12-16T2:1:42Z</time></trkpt>
<trkpt lat="48.3824750" lon="-1.8822160"><ele></ele><time>2017-12-16T2:1:45Z</time></trkpt>
<trkpt lat="48.3825200" lon="-1.8822800"><ele></ele><time>2017-12-16T2:1:48Z</time></trkpt>
<trkpt lat="48.3825650" lon="-1.8823460"><ele></ele><time>2017-12-16T2:1:51Z</time></trkpt>
<trkpt lat="48.3826080" lon="-1.8824090"><ele></ele><time>2017-12-16T2:1:54Z</time></trkpt>
<trkpt lat="48.3826550" lon="-1.8824720"><ele></ele><time>2017-12-16T2:1:57Z</time></trkpt>
<trkpt lat="48.3827010" lon="-1.8825370"><ele></ele><time>2017-12-16T2:2:0Z</time></trkpt>
<trkpt lat="48.3827500" lon="-1.8826040"><ele></ele><time>2017-12-16T2:2:3Z</time></trkpt>
<trkpt lat="48.3827980" lon="-1.8826780"><ele></ele><time>2017-12-16T2:2:6Z</time></trkpt>
<trkpt lat="48.3828500" lon="-1.8827480"><ele></ele><time>2017-12-16T2:2:9Z</time></trkpt>
<trkpt lat="48.3829010" lon="-1.8828220"><ele></ele><time>2017-12-16T2:2:12Z</time></trkpt>
<trkpt lat="48.3829590" lon="-1.8828940"><ele></ele><time>2017-12-16T2:2:15Z</time></trkpt>
<trkpt lat="48.3830140" lon="-1.8829590"><ele></ele><time>2017-12-16T2:2:18Z</time></trkpt>
<trkpt lat="48.3830700" lon="-1.8830330"><ele></ele><time>2017-12-16T2:2:21Z</time></trkpt>
<trkpt lat="48.3831280" lon="-1.8831080"><ele></ele><time>2017-12-16T2:2:24Z</time></trkpt>
<trkpt lat="48.3831800" lon="-1.8831920"><ele></ele><time>2017-12-16T2:2:27Z</time></trkpt>
<trkpt lat="48.3832330" lon="-1.8832800"><ele></ele><time>2017-12-16T2:2:30Z</time></trkpt>
<trkpt lat="48.3832910" lon="-1.8833590"><ele></ele><time>2017-12-16T2:2:33Z</time></trkpt>
<trkpt lat="48.3833560" lon="-1.8834260"><ele></ele><time>2017-12-16T2:2:36Z</time></trkpt>
<trkpt lat="48.3834150" lon="-1.8835040"><ele></ele><time>2017-12-16T2:2:39Z</time></trkpt>
<trkpt lat="48.3834770" lon="-1.8835840"><ele></ele><time>2017-12-16T2:2:42Z</time></trkpt>
<trkpt lat="48.3835370" lon="-1.8836600"><ele></ele><time>2017-12-16T2:2:45Z</time></trkpt>
<trkpt lat="48.3835980" lon="-1.8837330"><ele></ele><time>2017-12-16T2:2:48Z</time></trkpt>
<trkpt lat="48.3836560" lon="-1.8838060"><ele></ele><time>2017-12-16T2:2:51Z</time></trkpt>
<trkpt lat="48.3837150" lon="-1.8838820"><ele></ele><time>2017-12-16T2:2:54Z</time></trkpt>
<trkpt lat="48.3837690" lon="-1.8839610"><ele></ele><time>2017-12-16T2:2:57Z</time></trkpt>
<trkpt lat="48.3838280" lon="-1.8840400"><ele></ele><time>2017-12-16T2:3:0Z</time></trkpt>
<trkpt lat="48.3838810" lon="-1.8841200"><ele></ele><time>2017-12-16T2:3:3Z</time></trkpt>
<trkpt lat="48.3839310" lon="-1.8841990"><ele></ele><time>2017-12-16T2:3:6Z</time></trkpt>
<trkpt lat="48.3839810" lon="-1.8842720"><ele></ele><time>2017-12-16T2:3:9Z</time></trkpt>
<trkpt lat="48.3840310" lon="-1.8843460"><ele></ele><time>2017-12-16T2:3:12Z</time></trkpt>
<trkpt lat="48.3840790" lon="-1.8844080"><ele></ele><time>2017-12-16T2:3:15Z</time></trkpt>
<trkpt lat="48.3841260" lon="-1.8844690"><ele></ele><time>2017-12-16T2:3:18Z</time></trkpt>
<trkpt lat="48.3841810" lon="-1.8845120"><ele></ele><time>2017-12-16T2:3:21Z</time></trkpt>
<trkpt lat="48.3842230" lon="-1.8845690"><ele></ele><time>2017-12-16T2:3:24Z</time></trkpt>
<trkpt lat="48.3842660" lon="-1.8846320"><ele></ele><time>2017-12-16T2:3:27Z</time></trkpt>
<trkpt lat="48.3843080" lon="-1.8846880"><ele></ele><time>2017-12-16T2:3:30Z</time></trkpt>
<trkpt lat="48.3843500" lon="-1.8847510"><ele></ele><time>2017-12-16T2:3:33Z</time></trkpt>
<trkpt lat="48.3843840" lon="-1.8848190"><ele></ele><time>2017-12-16T2:3:36Z</time></trkpt>
<trkpt lat="48.3844250" lon="-1.8848750"><ele></ele><time>2017-12-16T2:3:39Z</time></trkpt>
<trkpt lat="48.3844680" lon="-1.8849250"><ele></ele><time>2017-12-16T2:3:42Z</time></trkpt>
<trkpt lat="48.3845100" lon="-1.8849780"><ele></ele><time>2017-12-16T2:3:45Z</time></trkpt>
<trkpt lat="48.3845470" lon="-1.8850270"><ele></ele><time>2017-12-16T2:3:48Z</time></trkpt>
<trkpt lat="48.3845850" lon="-1.8850770"><ele></ele><time>2017-12-16T2:3:51Z</time></trkpt>
<trkpt lat="48.3846230" lon="-1.8851230"><ele></ele><time>2017-12-16T2:3:54Z</time></trkpt>
<trkpt lat="48.3846560" lon="-1.8851660"><ele></ele><time>2017-12-16T2:3:57Z</time></trkpt>
<trkpt lat="48.3846870" lon="-1.8852120"><ele></ele><time>2017-12-16T2:4:0Z</time></trkpt>
<trkpt lat="48.3847160" lon="-1.8852560"><ele></ele><time>2017-12-16T2:4:3Z</time></trkpt>
<trkpt lat="48.3847480" lon="-1.8852970"><ele></ele><time>2017-12-16T2:4:6Z</time></trkpt>
<trkpt lat="48.3847810" lon="-1.8853390"><ele></ele><time>2017-12-16T2:4:9Z</time></trkpt>
<trkpt lat="48.3848100" lon="-1.8853800"><ele></ele><time>2017-12-16T2:4:12Z</time></trkpt>
<trkpt lat="48.3848370" lon="-1.8854250"><ele></ele><time>2017-12-16T2:4:15Z</time></trkpt>
<trkpt lat="48.3848660" lon="-1.8854620"><ele></ele><time>2017-12-16T2:4:18Z</time></trkpt>
<trkpt lat="48.3848950" lon="-1.8855020"><ele></ele><time>2017-12-16T2:4:21Z</time></trkpt>
<trkpt lat="48.3849230" lon="-1.8855400"><ele></ele><time>2017-12-16T2:4:24Z</time></trkpt>
<trkpt lat="48.3849550" lon="-1.8855760"><ele></ele><time>2017-12-16T2:4:27Z</time></trkpt>
<trkpt lat="48.3849850" lon="-1.8856090"><ele></ele><time>2017-12-16T2:4:30Z</time></trkpt>
<trkpt lat="48.3850150" lon="-1.8856540"><ele></ele><time>2017-12-16T2:4:33Z</time></trkpt>
<trkpt lat="48.3850420" lon="-1.8856960"><ele></ele><time>2017-12-16T2:4:36Z</time></trkpt>
<trkpt lat="48.3850710" lon="-1.8857370"><ele></ele><time>2017-12-16T2:4:39Z</time></trkpt>
<trkpt lat="48.3851020" lon="-1.8857760"><ele></ele><time>2017-12-16T2:4:42Z</time></trkpt>
<trkpt lat="48.3851280" lon="-1.8858200"><ele></ele><time>2017-12-16T2:4:45Z</time></trkpt>
<trkpt lat="48.3851560" lon="-1.8858540"><ele></ele><time>2017-12-16T2:4:48Z</time></trkpt>
<trkpt lat="48.3851820" lon="-1.8858950"><ele></ele><time>2017-12-16T2:4:51Z</time></trkpt>
<trkpt lat="48.3852080" lon="-1.8859290"><ele></ele><time>2017-12-16T2:4:54Z</time></trkpt>
<trkpt lat="48.3852250" lon="-1.8859710"><ele></ele><time>2017-12-16T2:4:57Z</time></trkpt>
<trkpt lat="48.3852580" lon="-1.8860050"><ele></ele><time>2017-12-16T2:5:0Z</time></trkpt>
<trkpt lat="48.3852850" lon="-1.8860400"><ele></ele><time>2017-12-16T2:5:3Z</time></trkpt>
<trkpt lat="48.3853120" lon="-1.8860730"><ele></ele><time>2017-12-16T2:5:6Z</time></trkpt>
<trkpt lat="48.3853440" lon="-1.8861150"><ele></ele><time>2017-12-16T2:5:9Z</time></trkpt>
<trkpt lat="48.3853760" lon="-1.8861520"><ele></ele><time>2017-12-16T2:5:12Z</time></trkpt>
<trkpt lat="48.3854030" lon="-1.8861880"><ele></ele><time>2017-12-16T2:5:15Z</time></trkpt>
<trkpt lat="48.3854240" lon="-1.8862270"><ele></ele><time>2017-12-16T2:5:18Z</time></trkpt>
<trkpt lat="48.3854510" lon="-1.8862670"><ele></ele><time>2017-12-16T2:5:21Z</time></trkpt>
<trkpt lat="48.3854800" lon="-1.8863010"><ele></ele><time>2017-12-16T2:5:24Z</time></trkpt>
<trkpt lat="48.3855090" lon="-1.8863380"><ele></ele><time>2017-12-16T2:5:27Z</time></trkpt>
<trkpt lat="48.3855340" lon="-1.8863670"><ele></ele><time>2017-12-16T2:5:30Z</time></trkpt>
<trkpt lat="48.3855640" lon="-1.8864050"><ele></ele><time>2017-12-16T2:5:33Z</time></trkpt>
<trkpt lat="48.3855950" lon="-1.8864490"><ele></ele><time>2017-12-16T2:5:36Z</time></trkpt>
<trkpt lat="48.3856220" lon="-1.8864870"><ele></ele><time>2017-12-16T2:5:39Z</time></trkpt>
<trkpt lat="48.3856480" lon="-1.8865150"><ele></ele><time>2017-12-16T2:5:42Z</time></trkpt>
<trkpt lat="48.3856720" lon="-1.8865500"><ele></ele><time>2017-12-16T2:5:45Z</time></trkpt>
<trkpt lat="48.3857000" lon="-1.8865840"><ele></ele><time>2017-12-16T2:5:48Z</time></trkpt>
<trkpt lat="48.3857270" lon="-1.8866220"><ele></ele><time>2017-12-16T2:5:51Z</time></trkpt>
<trkpt lat="48.3857550" lon="-1.8866560"><ele></ele><time>2017-12-16T2:5:54Z</time></trkpt>
<trkpt lat="48.3857830" lon="-1.8866940"><ele></ele><time>2017-12-16T2:5:57Z</time></trkpt>
<trkpt lat="48.3858100" lon="-1.8867250"><ele></ele><time>2017-12-16T2:6:0Z</time></trkpt>
<trkpt lat="48.3858360" lon="-1.8867590"><ele></ele><time>2017-12-16T2:6:3Z</time></trkpt>
<trkpt lat="48.3858610" lon="-1.8867920"><ele></ele><time>2017-12-16T2:6:6Z</time></trkpt>
<trkpt lat="48.3858850" lon="-1.8868300"><ele></ele><time>2017-12-16T2:6:9Z</time></trkpt>
<trkpt lat="48.3859110" lon="-1.8868640"><ele></ele><time>2017-12-16T2:6:12Z</time></trkpt>
<trkpt lat="48.3859360" lon="-1.8869000"><ele></ele><time>2017-12-16T2:6:15Z</time></trkpt>
<trkpt lat="48.3859650" lon="-1.8869350"><ele></ele><time>2017-12-16T2:6:18Z</time></trkpt>
<trkpt lat="48.3859930" lon="-1.8869720"><ele></ele><time>2017-12-16T2:6:21Z</time></trkpt>
<trkpt lat="48.3860200" lon="-1.8870070"><ele></ele><time>2017-12-16T2:6:24Z</time></trkpt>
<trkpt lat="48.3860480" lon="-1.8870410"><ele></ele><time>2017-12-16T2:6:27Z</time></trkpt>
<trkpt lat="48.3860750" lon="-1.8870730"><ele></ele><time>2017-12-16T2:6:30Z</time></trkpt>
<trkpt lat="48.3861000" lon="-1.8871130"><ele></ele><time>2017-12-16T2:6:33Z</time></trkpt>
<trkpt lat="48.3861280" lon="-1.8871480"><ele></ele><time>2017-12-16T2:6:36Z</time></trkpt>
<trkpt lat="48.3861550" lon="-1.8871820"><ele></ele><time>2017-12-16T2:6:39Z</time></trkpt>
<trkpt lat="48.3861850" lon="-1.8872130"><ele></ele><time>2017-12-16T2:6:42Z</time></trkpt>
<trkpt lat="48.3862130" lon="-1.8872530"><ele></ele><time>2017-12-16T2:6:45Z</time></trkpt>
<trkpt lat="48.3862400" lon="-1.8872910"><ele></ele><time>2017-12-16T2:6:48Z</time></trkpt>
<trkpt lat="48.3862670" lon="-1.8873360"><ele></ele><time>2017-12-16T2:6:51Z</time></trkpt>
<trkpt lat="48.3862940" lon="-1.8873730"><ele></ele><time>2017-12-16T2:6:54Z</time></trkpt>
<trkpt lat="48.3863240" lon="-1.8874120"><ele></ele><time>2017-12-16T2:6:57Z</time></trkpt>
<trkpt lat="48.3863520" lon="-1.8874580"><ele></ele><time>2017-12-16T2:7:0Z</time></trkpt>
<trkpt lat="48.3863790" lon="-1.8875040"><ele></ele><time>2017-12-16T2:7:3Z</time></trkpt>
<trkpt lat="48.3864090" lon="-1.8875480"><ele></ele><time>2017-12-16T2:7:6Z</time></trkpt>
<trkpt lat="48.3864400" lon="-1.8875890"><ele></ele><time>2017-12-16T2:7:9Z</time></trkpt>
<trkpt lat="48.3864690" lon="-1.8876260"><ele></ele><time>2017-12-16T2:7:12Z</time></trkpt>
<trkpt lat="48.3865020" lon="-1.8876710"><ele></ele><time>2017-12-16T2:7:15Z</time></trkpt>
<trkpt lat="48.3865310" lon="-1.8877180"><ele></ele><time>2017-12-16T2:7:18Z</time></trkpt>
<trkpt lat="48.3865630" lon="-1.8877600"><ele></ele><time>2017-12-16T2:7:21Z</time></trkpt>
<trkpt lat="48.3865970" lon="-1.8878020"><ele></ele><time>2017-12-16T2:7:24Z</time></trkpt>
<trkpt lat="48.3866300" lon="-1.8878480"><ele></ele><time>2017-12-16T2:7:27Z</time></trkpt>
<trkpt lat="48.3866610" lon="-1.8878910"><ele></ele><time>2017-12-16T2:7:30Z</time></trkpt>
<trkpt lat="48.3866960" lon="-1.8879340"><ele></ele><time>2017-12-16T2:7:33Z</time></trkpt>
<trkpt lat="48.3867260" lon="-1.8879830"><ele></ele><time>2017-12-16T2:7:36Z</time></trkpt>
<trkpt lat="48.3867590" lon="-1.8880400"><ele></ele><time>2017-12-16T2:7:39Z</time></trkpt>
<trkpt lat="48.3867890" lon="-1.8880820"><ele></ele><time>2017-12-16T2:7:42Z</time></trkpt>
<trkpt lat="48.3868210" lon="-1.8881230"><ele></ele><time>2017-12-16T2:7:45Z</time></trkpt>
<trkpt lat="48.3868490" lon="-1.8881640"><ele></ele><time>2017-12-16T2:7:48Z</time></trkpt>
<trkpt lat="48.3868790" lon="-1.8882030"><ele></ele><time>2017-12-16T2:7:51Z</time></trkpt>
<trkpt lat="48.3869110" lon="-1.8882410"><ele></ele><time>2017-12-16T2:7:54Z</time></trkpt>
<trkpt lat="48.3869400" lon="-1.8882850"><ele></ele><time>2017-12-16T2:7:57Z</time></trkpt>
<trkpt lat="48.3869720" lon="-1.8883320"><ele></ele><time>2017-12-16T2:8:0Z</time></trkpt>
<trkpt lat="48.3870020" lon="-1.8883760"><ele></ele><time>2017-12-16T2:8:3Z</time></trkpt>
<trkpt lat="48.3870340" lon="-1.8884220"><ele></ele><time>2017-12-16T2:8:6Z</time></trkpt>
<trkpt lat="48.3870650" lon="-1.8884570"><ele></ele><time>2017-12-16T2:8:9Z</time></trkpt>
<trkpt lat="48.3871010" lon="-1.8884990"><ele></ele><time>2017-12-16T2:8:12Z</time></trkpt>
<trkpt lat="48.3871320" lon="-1.8885370"><ele></ele><time>2017-12-16T2:8:15Z</time></trkpt>
<trkpt lat="48.3871710" lon="-1.8885750"><ele></ele><time>2017-12-16T2:8:18Z</time></trkpt>
<trkpt lat="48.3872040" lon="-1.8886130"><ele></ele><time>2017-12-16T2:8:21Z</time></trkpt>
<trkpt lat="48.3872340" lon="-1.8886500"><ele></ele><time>2017-12-16T2:8:24Z</time></trkpt>
<trkpt lat="48.3872630" lon="-1.8886890"><ele></ele><time>2017-12-16T2:8:27Z</time></trkpt>
<trkpt lat="48.3872910" lon="-1.8887240"><ele></ele><time>2017-12-16T2:8:30Z</time></trkpt>
<trkpt lat="48.3873180" lon="-1.8887610"><ele></ele><time>2017-12-16T2:8:33Z</time></trkpt>
<trkpt lat="48.3873460" lon="-1.8887910"><ele></ele><time>2017-12-16T2:8:36Z</time></trkpt>
<trkpt lat="48.3873740" lon="-1.8888280"><ele></ele><time>2017-12-16T2:8:39Z</time></trkpt>
<trkpt lat="48.3873980" lon="-1.8888670"><ele></ele><time>2017-12-16T2:8:42Z</time></trkpt>
<trkpt lat="48.3874240" lon="-1.8889040"><ele></ele><time>2017-12-16T2:8:45Z</time></trkpt>
<trkpt lat="48.3874510" lon="-1.8889410"><ele></ele><time>2017-12-16T2:8:48Z</time></trkpt>
<trkpt lat="48.3874780" lon="-1.8889840"><ele></ele><time>2017-12-16T2:8:51Z</time></trkpt>
<trkpt lat="48.3875060" lon="-1.8890150"><ele></ele><time>2017-12-16T2:8:54Z</time></trkpt>
<trkpt lat="48.3875350" lon="-1.8890500"><ele></ele><time>2017-12-16T2:8:57Z</time></trkpt>
<trkpt lat="48.3875650" lon="-1.8890830"><ele></ele><time>2017-12-16T2:9:0Z</time></trkpt>
<trkpt lat="48.3875930" lon="-1.8891190"><ele></ele><time>2017-12-16T2:9:3Z</time></trkpt>
<trkpt lat="48.3876240" lon="-1.8891550"><ele></ele><time>2017-12-16T2:9:6Z</time></trkpt>
<trkpt lat="48.3876490" lon="-1.8891900"><ele></ele><time>2017-12-16T2:9:9Z</time></trkpt>
<trkpt lat="48.3876720" lon="-1.8892320"><ele></ele><time>2017-12-16T2:9:12Z</time></trkpt>
<trkpt lat="48.3876970" lon="-1.8892710"><ele></ele><time>2017-12-16T2:9:15Z</time></trkpt>
<trkpt lat="48.3877240" lon="-1.8893090"><ele></ele><time>2017-12-16T2:9:18Z</time></trkpt>
<trkpt lat="48.3877490" lon="-1.8893430"><ele></ele><time>2017-12-16T2:9:21Z</time></trkpt>
<trkpt lat="48.3877760" lon="-1.8893740"><ele></ele><time>2017-12-16T2:9:24Z</time></trkpt>
<trkpt lat="48.3878000" lon="-1.8894100"><ele></ele><time>2017-12-16T2:9:27Z</time></trkpt>
<trkpt lat="48.3878280" lon="-1.8894430"><ele></ele><time>2017-12-16T2:9:30Z</time></trkpt>
<trkpt lat="48.3878560" lon="-1.8894780"><ele></ele><time>2017-12-16T2:9:33Z</time></trkpt>
<trkpt lat="48.3878830" lon="-1.8895110"><ele></ele><time>2017-12-16T2:9:36Z</time></trkpt>
<trkpt lat="48.3879080" lon="-1.8895450"><ele></ele><time>2017-12-16T2:9:39Z</time></trkpt>
<trkpt lat="48.3879320" lon="-1.8895810"><ele></ele><time>2017-12-16T2:9:42Z</time></trkpt>
<trkpt lat="48.3879570" lon="-1.8896130"><ele></ele><time>2017-12-16T2:9:45Z</time></trkpt>
<trkpt lat="48.3879830" lon="-1.8896490"><ele></ele><time>2017-12-16T2:9:48Z</time></trkpt>
<trkpt lat="48.3880060" lon="-1.8896850"><ele></ele><time>2017-12-16T2:9:51Z</time></trkpt>
<trkpt lat="48.3880290" lon="-1.8897230"><ele></ele><time>2017-12-16T2:9:54Z</time></trkpt>
<trkpt lat="48.3880550" lon="-1.8897580"><ele></ele><time>2017-12-16T2:9:57Z</time></trkpt>
<trkpt lat="48.3880800" lon="-1.8897970"><ele></ele><time>2017-12-16T2:10:0Z</time></trkpt>
<trkpt lat="48.3881090" lon="-1.8898310"><ele></ele><time>2017-12-16T2:10:3Z</time></trkpt>
<trkpt lat="48.3881380" lon="-1.8898670"><ele></ele><time>2017-12-16T2:10:6Z</time></trkpt>
<trkpt lat="48.3881640" lon="-1.8899070"><ele></ele><time>2017-12-16T2:10:9Z</time></trkpt>
<trkpt lat="48.3881920" lon="-1.8899430"><ele></ele><time>2017-12-16T2:10:12Z</time></trkpt>
<trkpt lat="48.3882190" lon="-1.8899840"><ele></ele><time>2017-12-16T2:10:15Z</time></trkpt>
<trkpt lat="48.3882470" lon="-1.8900210"><ele></ele><time>2017-12-16T2:10:18Z</time></trkpt>
<trkpt lat="48.3882740" lon="-1.8900610"><ele></ele><time>2017-12-16T2:10:21Z</time></trkpt>
<trkpt lat="48.3883040" lon="-1.8900980"><ele></ele><time>2017-12-16T2:10:24Z</time></trkpt>
<trkpt lat="48.3883330" lon="-1.8901340"><ele></ele><time>2017-12-16T2:10:27Z</time></trkpt>
<trkpt lat="48.3883600" lon="-1.8901730"><ele></ele><time>2017-12-16T2:10:30Z</time></trkpt>
<trkpt lat="48.3883880" lon="-1.8902090"><ele></ele><time>2017-12-16T2:10:33Z</time></trkpt>
<trkpt lat="48.3884150" lon="-1.8902450"><ele></ele><time>2017-12-16T2:10:36Z</time></trkpt>
<trkpt lat="48.3884410" lon="-1.8902810"><ele></ele><time>2017-12-16T2:10:39Z</time></trkpt>
<trkpt lat="48.3884650" lon="-1.8903180"><ele></ele><time>2017-12-16T2:10:42Z</time></trkpt>
<trkpt lat="48.3884920" lon="-1.8903520"><ele></ele><time>2017-12-16T2:10:45Z</time></trkpt>
<trkpt lat="48.3885200" lon="-1.8903860"><ele></ele><time>2017-12-16T2:10:48Z</time></trkpt>
<trkpt lat="48.3885460" lon="-1.8904230"><ele></ele><time>2017-12-16T2:10:51Z</time></trkpt>
<trkpt lat="48.3885700" lon="-1.8904600"><ele></ele><time>2017-12-16T2:10:54Z</time></trkpt>
<trkpt lat="48.3885940" lon="-1.8904950"><ele></ele><time>2017-12-16T2:10:57Z</time></trkpt>
<trkpt lat="48.3886200" lon="-1.8905310"><ele></ele><time>2017-12-16T2:11:0Z</time></trkpt>
<trkpt lat="48.3886470" lon="-1.8905630"><ele></ele><time>2017-12-16T2:11:3Z</time></trkpt>
<trkpt lat="48.3886710" lon="-1.8905940"><ele></ele><time>2017-12-16T2:11:6Z</time></trkpt>
<trkpt lat="48.3886990" lon="-1.8906290"><ele></ele><time>2017-12-16T2:11:9Z</time></trkpt>
<trkpt lat="48.3887260" lon="-1.8906670"><ele></ele><time>2017-12-16T2:11:12Z</time></trkpt>
<trkpt lat="48.3887540" lon="-1.8906990"><ele></ele><time>2017-12-16T2:11:15Z</time></trkpt>
<trkpt lat="48.3887830" lon="-1.8907350"><ele></ele><time>2017-12-16T2:11:18Z</time></trkpt>
<trkpt lat="48.3888110" lon="-1.8907720"><ele></ele><time>2017-12-16T2:11:21Z</time></trkpt>
<trkpt lat="48.3888420" lon="-1.8908110"><ele></ele><time>2017-12-16T2:11:24Z</time></trkpt>
<trkpt lat="48.3888700" lon="-1.8908490"><ele></ele><time>2017-12-16T2:11:27Z</time></trkpt>
<trkpt lat="48.3888970" lon="-1.8908890"><ele></ele><time>2017-12-16T2:11:30Z</time></trkpt>
<trkpt lat="48.3889240" lon="-1.8909290"><ele></ele><time>2017-12-16T2:11:33Z</time></trkpt>
<trkpt lat="48.3889520" lon="-1.8909640"><ele></ele><time>2017-12-16T2:11:36Z</time></trkpt>
<trkpt lat="48.3889790" lon="-1.8909990"><ele></ele><time>2017-12-16T2:11:39Z</time></trkpt>
<trkpt lat="48.3890060" lon="-1.8910360"><ele></ele><time>2017-12-16T2:11:42Z</time></trkpt>
<trkpt lat="48.3890320" lon="-1.8910740"><ele></ele><time>2017-12-16T2:11:45Z</time></trkpt>
<trkpt lat="48.3890600" lon="-1.8911090"><ele></ele><time>2017-12-16T2:11:48Z</time></trkpt>
<trkpt lat="48.3890880" lon="-1.8911480"><ele></ele><time>2017-12-16T2:11:51Z</time></trkpt>
<trkpt lat="48.3891140" lon="-1.8911840"><ele></ele><time>2017-12-16T2:11:54Z</time></trkpt>
<trkpt lat="48.3891410" lon="-1.8912210"><ele></ele><time>2017-12-16T2:11:57Z</time></trkpt>
<trkpt lat="48.3891700" lon="-1.8912570"><ele></ele><time>2017-12-16T2:12:0Z</time></trkpt>
<trkpt lat="48.3891960" lon="-1.8912960"><ele></ele><time>2017-12-16T2:12:3Z</time></trkpt>
<trkpt lat="48.3892220" lon="-1.8913340"><ele></ele><time>2017-12-16T2:12:6Z</time></trkpt>
<trkpt lat="48.3892500" lon="-1.8913700"><ele></ele><time>2017-12-16T2:12:9Z</time></trkpt>
<trkpt lat="48.3892740" lon="-1.8914080"><ele></ele><time>2017-12-16T2:12:12Z</time></trkpt>
<trkpt lat="48.3893010" lon="-1.8914430"><ele></ele><time>2017-12-16T2:12:15Z</time></trkpt>
<trkpt lat="48.3893270" lon="-1.8914660"><ele></ele><time>2017-12-16T2:12:18Z</time></trkpt>
<trkpt lat="48.3893560" lon="-1.8915030"><ele></ele><time>2017-12-16T2:12:21Z</time></trkpt>
<trkpt lat="48.3893830" lon="-1.8915380"><ele></ele><time>2017-12-16T2:12:24Z</time></trkpt>
<trkpt lat="48.3894090" lon="-1.8915750"><ele></ele><time>2017-12-16T2:12:27Z</time></trkpt>
<trkpt lat="48.3894370" lon="-1.8916120"><ele></ele><time>2017-12-16T2:12:30Z</time></trkpt>
<trkpt lat="48.3894650" lon="-1.8916490"><ele></ele><time>2017-12-16T2:12:33Z</time></trkpt>
<trkpt lat="48.3894910" lon="-1.8916840"><ele></ele><time>2017-12-16T2:12:36Z</time></trkpt>
<trkpt lat="48.3895190" lon="-1.8917190"><ele></ele><time>2017-12-16T2:12:39Z</time></trkpt>
<trkpt lat="48.3895460" lon="-1.8917560"><ele></ele><time>2017-12-16T2:12:42Z</time></trkpt>
<trkpt lat="48.3895710" lon="-1.8917940"><ele></ele><time>2017-12-16T2:12:45Z</time></trkpt>
<trkpt lat="48.3895960" lon="-1.8918300"><ele></ele><time>2017-12-16T2:12:48Z</time></trkpt>
<trkpt lat="48.3896230" lon="-1.8918640"><ele></ele><time>2017-12-16T2:12:51Z</time></trkpt>
<trkpt lat="48.3896510" lon="-1.8918990"><ele></ele><time>2017-12-16T2:12:54Z</time></trkpt>
<trkpt lat="48.3896760" lon="-1.8919340"><ele></ele><time>2017-12-16T2:12:57Z</time></trkpt>
<trkpt lat="48.3896980" lon="-1.8919700"><ele></ele><time>2017-12-16T2:13:0Z</time></trkpt>
<trkpt lat="48.3897280" lon="-1.8920050"><ele></ele><time>2017-12-16T2:13:3Z</time></trkpt>
<trkpt lat="48.3897570" lon="-1.8920370"><ele></ele><time>2017-12-16T2:13:6Z</time></trkpt>
<trkpt lat="48.3897810" lon="-1.8920740"><ele></ele><time>2017-12-16T2:13:9Z</time></trkpt>
<trkpt lat="48.3898090" lon="-1.8921130"><ele></ele><time>2017-12-16T2:13:12Z</time></trkpt>
<trkpt lat="48.3898310" lon="-1.8921530"><ele></ele><time>2017-12-16T2:13:15Z</time></trkpt>
<trkpt lat="48.3898550" lon="-1.8921960"><ele></ele><time>2017-12-16T2:13:18Z</time></trkpt>
<trkpt lat="48.3898840" lon="-1.8922290"><ele></ele><time>2017-12-16T2:13:21Z</time></trkpt>
<trkpt lat="48.3899120" lon="-1.8922620"><ele></ele><time>2017-12-16T2:13:24Z</time></trkpt>
<trkpt lat="48.3899380" lon="-1.8923000"><ele></ele><time>2017-12-16T2:13:27Z</time></trkpt>
<trkpt lat="48.3899630" lon="-1.8923380"><ele></ele><time>2017-12-16T2:13:30Z</time></trkpt>
<trkpt lat="48.3899870" lon="-1.8923710"><ele></ele><time>2017-12-16T2:13:33Z</time></trkpt>
<trkpt lat="48.3900150" lon="-1.8924090"><ele></ele><time>2017-12-16T2:13:36Z</time></trkpt>
<trkpt lat="48.3900460" lon="-1.8924480"><ele></ele><time>2017-12-16T2:13:39Z</time></trkpt>
<trkpt lat="48.3900720" lon="-1.8924900"><ele></ele><time>2017-12-16T2:13:42Z</time></trkpt>
<trkpt lat="48.3900990" lon="-1.8925290"><ele></ele><time>2017-12-16T2:13:45Z</time></trkpt>
<trkpt lat="48.3901250" lon="-1.8925650"><ele></ele><time>2017-12-16T2:13:48Z</time></trkpt>
<trkpt lat="48.3901520" lon="-1.8926000"><ele></ele><time>2017-12-16T2:13:51Z</time></trkpt>
<trkpt lat="48.3901820" lon="-1.8926330"><ele></ele><time>2017-12-16T2:13:54Z</time></trkpt>
<trkpt lat="48.3902130" lon="-1.8926640"><ele></ele><time>2017-12-16T2:13:57Z</time></trkpt>
<trkpt lat="48.3902390" lon="-1.8926990"><ele></ele><time>2017-12-16T2:14:0Z</time></trkpt>
<trkpt lat="48.3902650" lon="-1.8927360"><ele></ele><time>2017-12-16T2:14:3Z</time></trkpt>
<trkpt lat="48.3902900" lon="-1.8927720"><ele></ele><time>2017-12-16T2:14:6Z</time></trkpt>
<trkpt lat="48.3903140" lon="-1.8928070"><ele></ele><time>2017-12-16T2:14:9Z</time></trkpt>
<trkpt lat="48.3903410" lon="-1.8928410"><ele></ele><time>2017-12-16T2:14:12Z</time></trkpt>
<trkpt lat="48.3903660" lon="-1.8928760"><ele></ele><time>2017-12-16T2:14:15Z</time></trkpt>
<trkpt lat="48.3903900" lon="-1.8929100"><ele></ele><time>2017-12-16T2:14:18Z</time></trkpt>
<trkpt lat="48.3904170" lon="-1.8929450"><ele></ele><time>2017-12-16T2:14:21Z</time></trkpt>
<trkpt lat="48.3904420" lon="-1.8929810"><ele></ele><time>2017-12-16T2:14:24Z</time></trkpt>
<trkpt lat="48.3904680" lon="-1.8930140"><ele></ele><time>2017-12-16T2:14:27Z</time></trkpt>
<trkpt lat="48.3904950" lon="-1.8930450"><ele></ele><time>2017-12-16T2:14:30Z</time></trkpt>
<trkpt lat="48.3905210" lon="-1.8930780"><ele></ele><time>2017-12-16T2:14:33Z</time></trkpt>
<trkpt lat="48.3905440" lon="-1.8931130"><ele></ele><time>2017-12-16T2:14:36Z</time></trkpt>
<trkpt lat="48.3905690" lon="-1.8931490"><ele></ele><time>2017-12-16T2:14:39Z</time></trkpt>
<trkpt lat="48.3905940" lon="-1.8931780"><ele></ele><time>2017-12-16T2:14:42Z</time></trkpt>
<trkpt lat="48.3906170" lon="-1.8932110"><ele></ele><time>2017-12-16T2:14:45Z</time></trkpt>
<trkpt lat="48.3906440" lon="-1.8932440"><ele></ele><time>2017-12-16T2:14:48Z</time></trkpt>
<trkpt lat="48.3906680" lon="-1.8932720"><ele></ele><time>2017-12-16T2:14:51Z</time></trkpt>
<trkpt lat="48.3906920" lon="-1.8933070"><ele></ele><time>2017-12-16T2:14:54Z</time></trkpt>
<trkpt lat="48.3907140" lon="-1.8933430"><ele></ele><time>2017-12-16T2:14:57Z</time></trkpt>
<trkpt lat="48.3907370" lon="-1.8933820"><ele></ele><time>2017-12-16T2:15:0Z</time></trkpt>
<trkpt lat="48.3907600" lon="-1.8934150"><ele></ele><time>2017-12-16T2:15:3Z</time></trkpt>
<trkpt lat="48.3907880" lon="-1.8934480"><ele></ele><time>2017-12-16T2:15:6Z</time></trkpt>
<trkpt lat="48.3908120" lon="-1.8934800"><ele></ele><time>2017-12-16T2:15:9Z</time></trkpt>
<trkpt lat="48.3908370" lon="-1.8935120"><ele></ele><time>2017-12-16T2:15:12Z</time></trkpt>
<trkpt lat="48.3908620" lon="-1.8935430"><ele></ele><time>2017-12-16T2:15:15Z</time></trkpt>
<trkpt lat="48.3908860" lon="-1.8935750"><ele></ele><time>2017-12-16T2:15:18Z</time></trkpt>
<trkpt lat="48.3909110" lon="-1.8936060"><ele></ele><time>2017-12-16T2:15:21Z</time></trkpt>
<trkpt lat="48.3909370" lon="-1.8936360"><ele></ele><time>2017-12-16T2:15:24Z</time></trkpt>
<trkpt lat="48.3909620" lon="-1.8936700"><ele></ele><time>2017-12-16T2:15:27Z</time></trkpt>
<trkpt lat="48.3909840" lon="-1.8936980"><ele></ele><time>2017-12-16T2:15:30Z</time></trkpt>
<trkpt lat="48.3910080" lon="-1.8937320"><ele></ele><time>2017-12-16T2:15:33Z</time></trkpt>
<trkpt lat="48.3910300" lon="-1.8937630"><ele></ele><time>2017-12-16T2:15:36Z</time></trkpt>
<trkpt lat="48.3910530" lon="-1.8938010"><ele></ele><time>2017-12-16T2:15:39Z</time></trkpt>
<trkpt lat="48.3910720" lon="-1.8938400"><ele></ele><time>2017-12-16T2:15:42Z</time></trkpt>
<trkpt lat="48.3910970" lon="-1.8938790"><ele></ele><time>2017-12-16T2:15:45Z</time></trkpt>
<trkpt lat="48.3911220" lon="-1.8939140"><ele></ele><time>2017-12-16T2:15:48Z</time></trkpt>
<trkpt lat="48.3911470" lon="-1.8939510"><ele></ele><time>2017-12-16T2:15:51Z</time></trkpt>
<trkpt lat="48.3911710" lon="-1.8939900"><ele></ele><time>2017-12-16T2:15:54Z</time></trkpt>
<trkpt lat="48.3911970" lon="-1.8940260"><ele></ele><time>2017-12-16T2:15:57Z</time></trkpt>
<trkpt lat="48.3912210" lon="-1.8940620"><ele></ele><time>2017-12-16T2:16:0Z</time></trkpt>
<trkpt lat="48.3912460" lon="-1.8940990"><ele></ele><time>2017-12-16T2:16:3Z</time></trkpt>
<trkpt lat="48.3912720" lon="-1.8941320"><ele></ele><time>2017-12-16T2:16:6Z</time></trkpt>
<trkpt lat="48.3913000" lon="-1.8941640"><ele></ele><time>2017-12-16T2:16:9Z</time></trkpt>
<trkpt lat="48.3913290" lon="-1.8941970"><ele></ele><time>2017-12-16T2:16:12Z</time></trkpt>
<trkpt lat="48.3913600" lon="-1.8942320"><ele></ele><time>2017-12-16T2:16:15Z</time></trkpt>
<trkpt lat="48.3913870" lon="-1.8942680"><ele></ele><time>2017-12-16T2:16:18Z</time></trkpt>
<trkpt lat="48.3914120" lon="-1.8943060"><ele></ele><time>2017-12-16T2:16:21Z</time></trkpt>
<trkpt lat="48.3914370" lon="-1.8943420"><ele></ele><time>2017-12-16T2:16:24Z</time></trkpt>
<trkpt lat="48.3914610" lon="-1.8943790"><ele></ele><time>2017-12-16T2:16:27Z</time></trkpt>
<trkpt lat="48.3914870" lon="-1.8944130"><ele></ele><time>2017-12-16T2:16:30Z</time></trkpt>
<trkpt lat="48.3915150" lon="-1.8944470"><ele></ele><time>2017-12-16T2:16:33Z</time></trkpt>
<trkpt lat="48.3915430" lon="-1.8944830"><ele></ele><time>2017-12-16T2:16:36Z</time></trkpt>
<trkpt lat="48.3915680" lon="-1.8945160"><ele></ele><time>2017-12-16T2:16:39Z</time></trkpt>
<trkpt lat="48.3915960" lon="-1.8945470"><ele></ele><time>2017-12-16T2:16:42Z</time></trkpt>
<trkpt lat="48.3916220" lon="-1.8945780"><ele></ele><time>2017-12-16T2:16:45Z</time></trkpt>
<trkpt lat="48.3916480" lon="-1.8946040"><ele></ele><time>2017-12-16T2:16:48Z</time></trkpt>
<trkpt lat="48.3916740" lon="-1.8946300"><ele></ele><time>2017-12-16T2:16:51Z</time></trkpt>
<trkpt lat="48.3917000" lon="-1.8946600"><ele></ele><time>2017-12-16T2:16:54Z</time></trkpt>
<trkpt lat="48.3917260" lon="-1.8946890"><ele></ele><time>2017-12-16T2:16:57Z</time></trkpt>
<trkpt lat="48.3917470" lon="-1.8947220"><ele></ele><time>2017-12-16T2:17:0Z</time></trkpt>
<trkpt lat="48.3917740" lon="-1.8947540"><ele></ele><time>2017-12-16T2:17:3Z</time></trkpt>
<trkpt lat="48.3918040" lon="-1.8947770"><ele></ele><time>2017-12-16T2:17:6Z</time></trkpt>
<trkpt lat="48.3918320" lon="-1.8948000"><ele></ele><time>2017-12-16T2:17:9Z</time></trkpt>
<trkpt lat="48.3918580" lon="-1.8948310"><ele></ele><time>2017-12-16T2:17:12Z</time></trkpt>
<trkpt lat="48.3918810" lon="-1.8948650"><ele></ele><time>2017-12-16T2:17:15Z</time></trkpt>
<trkpt lat="48.3919070" lon="-1.8948990"><ele></ele><time>2017-12-16T2:17:18Z</time></trkpt>
<trkpt lat="48.3919330" lon="-1.8949350"><ele></ele><time>2017-12-16T2:17:21Z</time></trkpt>
<trkpt lat="48.3919580" lon="-1.8949690"><ele></ele><time>2017-12-16T2:17:24Z</time></trkpt>
<trkpt lat="48.3919770" lon="-1.8950020"><ele></ele><time>2017-12-16T2:17:27Z</time></trkpt>
<trkpt lat="48.3919960" lon="-1.8950400"><ele></ele><time>2017-12-16T2:17:30Z</time></trkpt>
<trkpt lat="48.3920180" lon="-1.8950810"><ele></ele><time>2017-12-16T2:17:33Z</time></trkpt>
<trkpt lat="48.3920400" lon="-1.8951250"><ele></ele><time>2017-12-16T2:17:36Z</time></trkpt>
<trkpt lat="48.3920610" lon="-1.8951720"><ele></ele><time>2017-12-16T2:17:39Z</time></trkpt>
<trkpt lat="48.3920830" lon="-1.8952120"><ele></ele><time>2017-12-16T2:17:42Z</time></trkpt>
<trkpt lat="48.3921070" lon="-1.8952530"><ele></ele><time>2017-12-16T2:17:45Z</time></trkpt>
<trkpt lat="48.3921300" lon="-1.8952960"><ele></ele><time>2017-12-16T2:17:48Z</time></trkpt>
<trkpt lat="48.3921580" lon="-1.8953340"><ele></ele><time>2017-12-16T2:17:51Z</time></trkpt>
<trkpt lat="48.3921840" lon="-1.8953730"><ele></ele><time>2017-12-16T2:17:54Z</time></trkpt>
<trkpt lat="48.3922090" lon="-1.8954130"><ele></ele><time>2017-12-16T2:17:57Z</time></trkpt>
<trkpt lat="48.3922330" lon="-1.8954480"><ele></ele><time>2017-12-16T2:18:0Z</time></trkpt>
<trkpt lat="48.3922580" lon="-1.8954790"><ele></ele><time>2017-12-16T2:18:3Z</time></trkpt>
<trkpt lat="48.3922840" lon="-1.8955110"><ele></ele><time>2017-12-16T2:18:6Z</time></trkpt>
<trkpt lat="48.3923110" lon="-1.8955460"><ele></ele><time>2017-12-16T2:18:9Z</time></trkpt>
<trkpt lat="48.3923410" lon="-1.8955820"><ele></ele><time>2017-12-16T2:18:12Z</time></trkpt>
<trkpt lat="48.3923690" lon="-1.8956160"><ele></ele><time>2017-12-16T2:18:15Z</time></trkpt>
<trkpt lat="48.3924010" lon="-1.8956490"><ele></ele><time>2017-12-16T2:18:18Z</time></trkpt>
<trkpt lat="48.3924300" lon="-1.8956830"><ele></ele><time>2017-12-16T2:18:21Z</time></trkpt>
<trkpt lat="48.3924570" lon="-1.8957170"><ele></ele><time>2017-12-16T2:18:24Z</time></trkpt>
<trkpt lat="48.3924860" lon="-1.8957520"><ele></ele><time>2017-12-16T2:18:27Z</time></trkpt>
<trkpt lat="48.3925150" lon="-1.8957850"><ele></ele><time>2017-12-16T2:18:30Z</time></trkpt>
<trkpt lat="48.3925430" lon="-1.8958180"><ele></ele><time>2017-12-16T2:18:33Z</time></trkpt>
<trkpt lat="48.3925700" lon="-1.8958510"><ele></ele><time>2017-12-16T2:18:36Z</time></trkpt>
<trkpt lat="48.3926000" lon="-1.8958920"><ele></ele><time>2017-12-16T2:18:39Z</time></trkpt>
<trkpt lat="48.3926300" lon="-1.8959320"><ele></ele><time>2017-12-16T2:18:42Z</time></trkpt>
<trkpt lat="48.3926600" lon="-1.8959700"><ele></ele><time>2017-12-16T2:18:45Z</time></trkpt>
<trkpt lat="48.3926880" lon="-1.8960120"><ele></ele><time>2017-12-16T2:18:48Z</time></trkpt>
<trkpt lat="48.3927160" lon="-1.8960550"><ele></ele><time>2017-12-16T2:18:51Z</time></trkpt>
<trkpt lat="48.3927450" lon="-1.8960940"><ele></ele><time>2017-12-16T2:18:54Z</time></trkpt>
<trkpt lat="48.3927770" lon="-1.8961360"><ele></ele><time>2017-12-16T2:18:57Z</time></trkpt>
<trkpt lat="48.3928130" lon="-1.8961780"><ele></ele><time>2017-12-16T2:19:0Z</time></trkpt>
<trkpt lat="48.3928450" lon="-1.8962260"><ele></ele><time>2017-12-16T2:19:3Z</time></trkpt>
<trkpt lat="48.3928780" lon="-1.8962750"><ele></ele><time>2017-12-16T2:19:6Z</time></trkpt>
<trkpt lat="48.3929140" lon="-1.8963180"><ele></ele><time>2017-12-16T2:19:9Z</time></trkpt>
<trkpt lat="48.3929460" lon="-1.8963600"><ele></ele><time>2017-12-16T2:19:12Z</time></trkpt>
<trkpt lat="48.3929810" lon="-1.8964000"><ele></ele><time>2017-12-16T2:19:15Z</time></trkpt>
<trkpt lat="48.3930150" lon="-1.8964450"><ele></ele><time>2017-12-16T2:19:18Z</time></trkpt>
<trkpt lat="48.3930480" lon="-1.8964920"><ele></ele><time>2017-12-16T2:19:21Z</time></trkpt>
<trkpt lat="48.3930820" lon="-1.8965300"><ele></ele><time>2017-12-16T2:19:24Z</time></trkpt>
<trkpt lat="48.3931180" lon="-1.8965780"><ele></ele><time>2017-12-16T2:19:27Z</time></trkpt>
<trkpt lat="48.3931510" lon="-1.8966240"><ele></ele><time>2017-12-16T2:19:30Z</time></trkpt>
<trkpt lat="48.3931860" lon="-1.8966710"><ele></ele><time>2017-12-16T2:19:33Z</time></trkpt>
<trkpt lat="48.3932220" lon="-1.8967170"><ele></ele><time>2017-12-16T2:19:36Z</time></trkpt>
<trkpt lat="48.3932550" lon="-1.8967670"><ele></ele><time>2017-12-16T2:19:39Z</time></trkpt>
<trkpt lat="48.3932910" lon="-1.8968100"><ele></ele><time>2017-12-16T2:19:42Z</time></trkpt>
<trkpt lat="48.3933280" lon="-1.8968560"><ele></ele><time>2017-12-16T2:19:45Z</time></trkpt>
<trkpt lat="48.3933640" lon="-1.8969040"><ele></ele><time>2017-12-16T2:19:48Z</time></trkpt>
<trkpt lat="48.3934000" lon="-1.8969510"><ele></ele><time>2017-12-16T2:19:51Z</time></trkpt>
<trkpt lat="48.3934350" lon="-1.8969980"><ele></ele><time>2017-12-16T2:19:54Z</time></trkpt>
<trkpt lat="48.3934740" lon="-1.8970480"><ele></ele><time>2017-12-16T2:19:57Z</time></trkpt>
<trkpt lat="48.3935110" lon="-1.8970890"><ele></ele><time>2017-12-16T2:20:0Z</time></trkpt>
<trkpt lat="48.3935420" lon="-1.8971430"><ele></ele><time>2017-12-16T2:20:3Z</time></trkpt>
<trkpt lat="48.3935770" lon="-1.8972000"><ele></ele><time>2017-12-16T2:20:6Z</time></trkpt>
<trkpt lat="48.3936150" lon="-1.8972450"><ele></ele><time>2017-12-16T2:20:9Z</time></trkpt>
<trkpt lat="48.3936550" lon="-1.8972950"><ele></ele><time>2017-12-16T2:20:12Z</time></trkpt>
<trkpt lat="48.3936930" lon="-1.8973470"><ele></ele><time>2017-12-16T2:20:15Z</time></trkpt>
<trkpt lat="48.3937310" lon="-1.8973980"><ele></ele><time>2017-12-16T2:20:18Z</time></trkpt>
<trkpt lat="48.3937650" lon="-1.8974430"><ele></ele><time>2017-12-16T2:20:21Z</time></trkpt>
<trkpt lat="48.3938070" lon="-1.8974990"><ele></ele><time>2017-12-16T2:20:24Z</time></trkpt>
<trkpt lat="48.3938530" lon="-1.8975480"><ele></ele><time>2017-12-16T2:20:27Z</time></trkpt>
<trkpt lat="48.3938890" lon="-1.8976040"><ele></ele><time>2017-12-16T2:20:30Z</time></trkpt>
<trkpt lat="48.3939260" lon="-1.8976610"><ele></ele><time>2017-12-16T2:20:33Z</time></trkpt>
<trkpt lat="48.3939670" lon="-1.8977090"><ele></ele><time>2017-12-16T2:20:36Z</time></trkpt>
<trkpt lat="48.3940070" lon="-1.8977620"><ele></ele><time>2017-12-16T2:20:39Z</time></trkpt>
<trkpt lat="48.3940430" lon="-1.8978150"><ele></ele><time>2017-12-16T2:20:42Z</time></trkpt>
<trkpt lat="48.3940810" lon="-1.8978640"><ele></ele><time>2017-12-16T2:20:45Z</time></trkpt>
<trkpt lat="48.3941180" lon="-1.8979180"><ele></ele><time>2017-12-16T2:20:48Z</time></trkpt>
<trkpt lat="48.3941560" lon="-1.8979700"><ele></ele><time>2017-12-16T2:20:51Z</time></trkpt>
<trkpt lat="48.3941940" lon="-1.8980220"><ele></ele><time>2017-12-16T2:20:54Z</time></trkpt>
<trkpt lat="48.3942330" lon="-1.8980800"><ele></ele><time>2017-12-16T2:20:57Z</time></trkpt>
<trkpt lat="48.3942680" lon="-1.8981260"><ele></ele><time>2017-12-16T2:21:0Z</time></trkpt>
<trkpt lat="48.3943040" lon="-1.8981810"><ele></ele><time>2017-12-16T2:21:3Z</time></trkpt>
<trkpt lat="48.3943500" lon="-1.8982370"><ele></ele><time>2017-12-16T2:21:6Z</time></trkpt>
<trkpt lat="48.3943870" lon="-1.8982920"><ele></ele><time>2017-12-16T2:21:9Z</time></trkpt>
<trkpt lat="48.3944260" lon="-1.8983430"><ele></ele><time>2017-12-16T2:21:12Z</time></trkpt>
<trkpt lat="48.3944630" lon="-1.8984020"><ele></ele><time>2017-12-16T2:21:15Z</time></trkpt>
<trkpt lat="48.3945090" lon="-1.8984530"><ele></ele><time>2017-12-16T2:21:18Z</time></trkpt>
<trkpt lat="48.3945480" lon="-1.8985080"><ele></ele><time>2017-12-16T2:21:21Z</time></trkpt>
<trkpt lat="48.3945900" lon="-1.8985600"><ele></ele><time>2017-12-16T2:21:24Z</time></trkpt>
<trkpt lat="48.3946320" lon="-1.8986190"><ele></ele><time>2017-12-16T2:21:27Z</time></trkpt>
<trkpt lat="48.3946700" lon="-1.8986700"><ele></ele><time>2017-12-16T2:21:30Z</time></trkpt>
<trkpt lat="48.3947050" lon="-1.8987190"><ele></ele><time>2017-12-16T2:21:33Z</time></trkpt>
<trkpt lat="48.3947450" lon="-1.8987710"><ele></ele><time>2017-12-16T2:21:36Z</time></trkpt>
<trkpt lat="48.3947790" lon="-1.8988260"><ele></ele><time>2017-12-16T2:21:39Z</time></trkpt>
<trkpt lat="48.3948170" lon="-1.8988850"><ele></ele><time>2017-12-16T2:21:42Z</time></trkpt>
<trkpt lat="48.3948540" lon="-1.8989340"><ele></ele><time>2017-12-16T2:21:45Z</time></trkpt>
<trkpt lat="48.3948900" lon="-1.8989790"><ele></ele><time>2017-12-16T2:21:48Z</time></trkpt>
<trkpt lat="48.3949250" lon="-1.8990270"><ele></ele><time>2017-12-16T2:21:51Z</time></trkpt>
<trkpt lat="48.3949620" lon="-1.8990780"><ele></ele><time>2017-12-16T2:21:54Z</time></trkpt>
<trkpt lat="48.3949980" lon="-1.8991250"><ele></ele><time>2017-12-16T2:21:57Z</time></trkpt>
<trkpt lat="48.3950330" lon="-1.8991720"><ele></ele><time>2017-12-16T2:22:0Z</time></trkpt>
<trkpt lat="48.3950690" lon="-1.8992240"><ele></ele><time>2017-12-16T2:22:3Z</time></trkpt>
<trkpt lat="48.3951050" lon="-1.8992800"><ele></ele><time>2017-12-16T2:22:6Z</time></trkpt>
<trkpt lat="48.3951450" lon="-1.8993310"><ele></ele><time>2017-12-16T2:22:9Z</time></trkpt>
<trkpt lat="48.3951860" lon="-1.8993790"><ele></ele><time>2017-12-16T2:22:12Z</time></trkpt>
<trkpt lat="48.3952270" lon="-1.8994280"><ele></ele><time>2017-12-16T2:22:15Z</time></trkpt>
<trkpt lat="48.3952640" lon="-1.8994770"><ele></ele><time>2017-12-16T2:22:18Z</time></trkpt>
<trkpt lat="48.3953000" lon="-1.8995280"><ele></ele><time>2017-12-16T2:22:21Z</time></trkpt>
<trkpt lat="48.3953360" lon="-1.8995800"><ele></ele><time>2017-12-16T2:22:24Z</time></trkpt>
<trkpt lat="48.3953760" lon="-1.8996290"><ele></ele><time>2017-12-16T2:22:27Z</time></trkpt>
<trkpt lat="48.3954180" lon="-1.8996810"><ele></ele><time>2017-12-16T2:22:30Z</time></trkpt>
<trkpt lat="48.3954540" lon="-1.8997340"><ele></ele><time>2017-12-16T2:22:33Z</time></trkpt>
<trkpt lat="48.3954920" lon="-1.8997890"><ele></ele><time>2017-12-16T2:22:36Z</time></trkpt>
<trkpt lat="48.3955340" lon="-1.8998370"><ele></ele><time>2017-12-16T2:22:39Z</time></trkpt>
<trkpt lat="48.3955730" lon="-1.8998940"><ele></ele><time>2017-12-16T2:22:42Z</time></trkpt>
<trkpt lat="48.3956090" lon="-1.8999480"><ele></ele><time>2017-12-16T2:22:45Z</time></trkpt>
<trkpt lat="48.3956490" lon="-1.8999970"><ele></ele><time>2017-12-16T2:22:48Z</time></trkpt>
<trkpt lat="48.3956890" lon="-1.9000490"><ele></ele><time>2017-12-16T2:22:51Z</time></trkpt>
<trkpt lat="48.3957270" lon="-1.9001040"><ele></ele><time>2017-12-16T2:22:54Z</time></trkpt>
<trkpt lat="48.3957700" lon="-1.9001580"><ele></ele><time>2017-12-16T2:22:57Z</time></trkpt>
<trkpt lat="48.3958100" lon="-1.9002080"><ele></ele><time>2017-12-16T2:23:0Z</time></trkpt>
<trkpt lat="48.3958490" lon="-1.9002550"><ele></ele><time>2017-12-16T2:23:3Z</time></trkpt>
<trkpt lat="48.3958860" lon="-1.9003040"><ele></ele><time>2017-12-16T2:23:6Z</time></trkpt>
<trkpt lat="48.3959270" lon="-1.9003590"><ele></ele><time>2017-12-16T2:23:9Z</time></trkpt>
<trkpt lat="48.3959640" lon="-1.9004100"><ele></ele><time>2017-12-16T2:23:12Z</time></trkpt>
<trkpt lat="48.3960050" lon="-1.9004610"><ele></ele><time>2017-12-16T2:23:15Z</time></trkpt>
<trkpt lat="48.3960500" lon="-1.9005080"><ele></ele><time>2017-12-16T2:23:18Z</time></trkpt>
<trkpt lat="48.3960920" lon="-1.9005630"><ele></ele><time>2017-12-16T2:23:21Z</time></trkpt>
<trkpt lat="48.3961300" lon="-1.9006250"><ele></ele><time>2017-12-16T2:23:24Z</time></trkpt>
<trkpt lat="48.3961670" lon="-1.9006850"><ele></ele><time>2017-12-16T2:23:27Z</time></trkpt>
<trkpt lat="48.3962070" lon="-1.9007440"><ele></ele><time>2017-12-16T2:23:30Z</time></trkpt>
<trkpt lat="48.3962480" lon="-1.9008010"><ele></ele><time>2017-12-16T2:23:33Z</time></trkpt>
<trkpt lat="48.3962860" lon="-1.9008610"><ele></ele><time>2017-12-16T2:23:36Z</time></trkpt>
<trkpt lat="48.3963250" lon="-1.9009240"><ele></ele><time>2017-12-16T2:23:39Z</time></trkpt>
<trkpt lat="48.3963690" lon="-1.9009850"><ele></ele><time>2017-12-16T2:23:42Z</time></trkpt>
<trkpt lat="48.3964130" lon="-1.9010440"><ele></ele><time>2017-12-16T2:23:45Z</time></trkpt>
<trkpt lat="48.3964540" lon="-1.9011050"><ele></ele><time>2017-12-16T2:23:48Z</time></trkpt>
<trkpt lat="48.3965030" lon="-1.9011600"><ele></ele><time>2017-12-16T2:23:51Z</time></trkpt>
<trkpt lat="48.3965440" lon="-1.9012210"><ele></ele><time>2017-12-16T2:23:54Z</time></trkpt>
<trkpt lat="48.3965890" lon="-1.9012820"><ele></ele><time>2017-12-16T2:23:57Z</time></trkpt>
<trkpt lat="48.3966300" lon="-1.9013390"><ele></ele><time>2017-12-16T2:24:0Z</time></trkpt>
<trkpt lat="48.3966690" lon="-1.9014020"><ele></ele><time>2017-12-16T2:24:3Z</time></trkpt>
<trkpt lat="48.3967120" lon="-1.9014610"><ele></ele><time>2017-12-16T2:24:6Z</time></trkpt>
<trkpt lat="48.3967540" lon="-1.9015210"><ele></ele><time>2017-12-16T2:24:9Z</time></trkpt>
<trkpt lat="48.3967960" lon="-1.9015800"><ele></ele><time>2017-12-16T2:24:12Z</time></trkpt>
<trkpt lat="48.3968390" lon="-1.9016320"><ele></ele><time>2017-12-16T2:24:15Z</time></trkpt>
<trkpt lat="48.3968800" lon="-1.9016890"><ele></ele><time>2017-12-16T2:24:18Z</time></trkpt>
<trkpt lat="48.3969210" lon="-1.9017440"><ele></ele><time>2017-12-16T2:24:21Z</time></trkpt>
<trkpt lat="48.3969650" lon="-1.9018070"><ele></ele><time>2017-12-16T2:24:24Z</time></trkpt>
<trkpt lat="48.3970090" lon="-1.9018610"><ele></ele><time>2017-12-16T2:24:27Z</time></trkpt>
<trkpt lat="48.3970530" lon="-1.9019170"><ele></ele><time>2017-12-16T2:24:30Z</time></trkpt>
<trkpt lat="48.3970950" lon="-1.9019720"><ele></ele><time>2017-12-16T2:24:33Z</time></trkpt>
<trkpt lat="48.3971390" lon="-1.9020260"><ele></ele><time>2017-12-16T2:24:36Z</time></trkpt>
<trkpt lat="48.3971790" lon="-1.9020870"><ele></ele><time>2017-12-16T2:24:39Z</time></trkpt>
<trkpt lat="48.3972120" lon="-1.9021400"><ele></ele><time>2017-12-16T2:24:42Z</time></trkpt>
<trkpt lat="48.3972530" lon="-1.9022010"><ele></ele><time>2017-12-16T2:24:45Z</time></trkpt>
<trkpt lat="48.3973040" lon="-1.9022580"><ele></ele><time>2017-12-16T2:24:48Z</time></trkpt>
<trkpt lat="48.3973460" lon="-1.9023140"><ele></ele><time>2017-12-16T2:24:51Z</time></trkpt>
<trkpt lat="48.3973850" lon="-1.9023690"><ele></ele><time>2017-12-16T2:24:54Z</time></trkpt>
<trkpt lat="48.3974320" lon="-1.9024290"><ele></ele><time>2017-12-16T2:24:57Z</time></trkpt>
<trkpt lat="48.3974740" lon="-1.9024960"><ele></ele><time>2017-12-16T2:25:0Z</time></trkpt>
<trkpt lat="48.3975130" lon="-1.9025610"><ele></ele><time>2017-12-16T2:25:3Z</time></trkpt>
<trkpt lat="48.3975560" lon="-1.9026220"><ele></ele><time>2017-12-16T2:25:6Z</time></trkpt>
<trkpt lat="48.3975950" lon="-1.9026730"><ele></ele><time>2017-12-16T2:25:9Z</time></trkpt>
<trkpt lat="48.3976350" lon="-1.9027200"><ele></ele><time>2017-12-16T2:25:12Z</time></trkpt>
<trkpt lat="48.3976740" lon="-1.9027660"><ele></ele><time>2017-12-16T2:25:15Z</time></trkpt>
<trkpt lat="48.3977160" lon="-1.9028200"><ele></ele><time>2017-12-16T2:25:18Z</time></trkpt>
<trkpt lat="48.3977580" lon="-1.9028740"><ele></ele><time>2017-12-16T2:25:21Z</time></trkpt>
<trkpt lat="48.3977980" lon="-1.9029220"><ele></ele><time>2017-12-16T2:25:24Z</time></trkpt>
<trkpt lat="48.3978400" lon="-1.9029720"><ele></ele><time>2017-12-16T2:25:27Z</time></trkpt>
<trkpt lat="48.3978800" lon="-1.9030170"><ele></ele><time>2017-12-16T2:25:30Z</time></trkpt>
<trkpt lat="48.3979220" lon="-1.9030550"><ele></ele><time>2017-12-16T2:25:33Z</time></trkpt>
<trkpt lat="48.3979660" lon="-1.9030900"><ele></ele><time>2017-12-16T2:25:36Z</time></trkpt>
<trkpt lat="48.3980100" lon="-1.9031220"><ele></ele><time>2017-12-16T2:25:39Z</time></trkpt>
<trkpt lat="48.3980500" lon="-1.9031490"><ele></ele><time>2017-12-16T2:25:42Z</time></trkpt>
<trkpt lat="48.3980990" lon="-1.9031590"><ele></ele><time>2017-12-16T2:25:45Z</time></trkpt>
<trkpt lat="48.3981480" lon="-1.9031750"><ele></ele><time>2017-12-16T2:25:48Z</time></trkpt>
<trkpt lat="48.3981970" lon="-1.9031890"><ele></ele><time>2017-12-16T2:25:51Z</time></trkpt>
<trkpt lat="48.3982440" lon="-1.9032100"><ele></ele><time>2017-12-16T2:25:54Z</time></trkpt>
<trkpt lat="48.3982930" lon="-1.9032270"><ele></ele><time>2017-12-16T2:25:57Z</time></trkpt>
<trkpt lat="48.3983430" lon="-1.9032430"><ele></ele><time>2017-12-16T2:26:0Z</time></trkpt>
<trkpt lat="48.3983950" lon="-1.9032640"><ele></ele><time>2017-12-16T2:26:3Z</time></trkpt>
<trkpt lat="48.3984490" lon="-1.9032760"><ele></ele><time>2017-12-16T2:26:6Z</time></trkpt>
<trkpt lat="48.3985020" lon="-1.9032940"><ele></ele><time>2017-12-16T2:26:9Z</time></trkpt>
<trkpt lat="48.3985550" lon="-1.9033110"><ele></ele><time>2017-12-16T2:26:12Z</time></trkpt>
<trkpt lat="48.3986100" lon="-1.9033290"><ele></ele><time>2017-12-16T2:26:15Z</time></trkpt>
<trkpt lat="48.3986630" lon="-1.9033440"><ele></ele><time>2017-12-16T2:26:18Z</time></trkpt>
<trkpt lat="48.3987170" lon="-1.9033620"><ele></ele><time>2017-12-16T2:26:21Z</time></trkpt>
<trkpt lat="48.3987680" lon="-1.9033810"><ele></ele><time>2017-12-16T2:26:24Z</time></trkpt>
<trkpt lat="48.3988140" lon="-1.9033970"><ele></ele><time>2017-12-16T2:26:27Z</time></trkpt>
<trkpt lat="48.3988670" lon="-1.9033950"><ele></ele><time>2017-12-16T2:26:30Z</time></trkpt>
<trkpt lat="48.3989170" lon="-1.9034120"><ele></ele><time>2017-12-16T2:26:33Z</time></trkpt>
<trkpt lat="48.3989600" lon="-1.9034320"><ele></ele><time>2017-12-16T2:26:36Z</time></trkpt>
<trkpt lat="48.3990030" lon="-1.9034520"><ele></ele><time>2017-12-16T2:26:39Z</time></trkpt>
<trkpt lat="48.3990500" lon="-1.9034610"><ele></ele><time>2017-12-16T2:26:42Z</time></trkpt>
<trkpt lat="48.3990950" lon="-1.9034750"><ele></ele><time>2017-12-16T2:26:45Z</time></trkpt>
<trkpt lat="48.3991400" lon="-1.9034890"><ele></ele><time>2017-12-16T2:26:48Z</time></trkpt>
<trkpt lat="48.3991850" lon="-1.9035060"><ele></ele><time>2017-12-16T2:26:51Z</time></trkpt>
<trkpt lat="48.3992370" lon="-1.9035060"><ele></ele><time>2017-12-16T2:26:54Z</time></trkpt>
<trkpt lat="48.3992810" lon="-1.9035160"><ele></ele><time>2017-12-16T2:26:57Z</time></trkpt>
<trkpt lat="48.3993230" lon="-1.9035300"><ele></ele><time>2017-12-16T2:27:0Z</time></trkpt>
<trkpt lat="48.3993690" lon="-1.9035420"><ele></ele><time>2017-12-16T2:27:3Z</time></trkpt>
<trkpt lat="48.3994140" lon="-1.9035620"><ele></ele><time>2017-12-16T2:27:6Z</time></trkpt>
<trkpt lat="48.3994580" lon="-1.9035750"><ele></ele><time>2017-12-16T2:27:9Z</time></trkpt>
<trkpt lat="48.3995040" lon="-1.9035900"><ele></ele><time>2017-12-16T2:27:12Z</time></trkpt>
<trkpt lat="48.3995480" lon="-1.9036070"><ele></ele><time>2017-12-16T2:27:15Z</time></trkpt>
<trkpt lat="48.3995940" lon="-1.9036230"><ele></ele><time>2017-12-16T2:27:18Z</time></trkpt>
<trkpt lat="48.3996410" lon="-1.9036390"><ele></ele><time>2017-12-16T2:27:21Z</time></trkpt>
<trkpt lat="48.3996870" lon="-1.9036570"><ele></ele><time>2017-12-16T2:27:24Z</time></trkpt>
<trkpt lat="48.3997310" lon="-1.9036740"><ele></ele><time>2017-12-16T2:27:27Z</time></trkpt>
<trkpt lat="48.3997770" lon="-1.9036880"><ele></ele><time>2017-12-16T2:27:30Z</time></trkpt>
<trkpt lat="48.3998220" lon="-1.9037030"><ele></ele><time>2017-12-16T2:27:33Z</time></trkpt>
<trkpt lat="48.3998640" lon="-1.9037340"><ele></ele><time>2017-12-16T2:27:36Z</time></trkpt>
<trkpt lat="48.3999030" lon="-1.9037550"><ele></ele><time>2017-12-16T2:27:39Z</time></trkpt>
<trkpt lat="48.3999480" lon="-1.9037720"><ele></ele><time>2017-12-16T2:27:42Z</time></trkpt>
<trkpt lat="48.3999910" lon="-1.9037890"><ele></ele><time>2017-12-16T2:27:45Z</time></trkpt>
<trkpt lat="48.4000320" lon="-1.9038000"><ele></ele><time>2017-12-16T2:27:48Z</time></trkpt>
<trkpt lat="48.4000700" lon="-1.9038160"><ele></ele><time>2017-12-16T2:27:51Z</time></trkpt>
<trkpt lat="48.4001140" lon="-1.9038390"><ele></ele><time>2017-12-16T2:27:54Z</time></trkpt>
<trkpt lat="48.4001530" lon="-1.9038550"><ele></ele><time>2017-12-16T2:27:57Z</time></trkpt>
<trkpt lat="48.4001930" lon="-1.9038670"><ele></ele><time>2017-12-16T2:28:0Z</time></trkpt>
<trkpt lat="48.4002390" lon="-1.9038810"><ele></ele><time>2017-12-16T2:28:3Z</time></trkpt>
<trkpt lat="48.4002860" lon="-1.9038950"><ele></ele><time>2017-12-16T2:28:6Z</time></trkpt>
<trkpt lat="48.4003300" lon="-1.9039080"><ele></ele><time>2017-12-16T2:28:9Z</time></trkpt>
<trkpt lat="48.4003740" lon="-1.9039220"><ele></ele><time>2017-12-16T2:28:12Z</time></trkpt>
<trkpt lat="48.4004170" lon="-1.9039430"><ele></ele><time>2017-12-16T2:28:15Z</time></trkpt>
<trkpt lat="48.4004610" lon="-1.9039620"><ele></ele><time>2017-12-16T2:28:18Z</time></trkpt>
<trkpt lat="48.4005080" lon="-1.9039800"><ele></ele><time>2017-12-16T2:28:21Z</time></trkpt>
<trkpt lat="48.4005550" lon="-1.9039980"><ele></ele><time>2017-12-16T2:28:24Z</time></trkpt>
<trkpt lat="48.4006000" lon="-1.9040080"><ele></ele><time>2017-12-16T2:28:27Z</time></trkpt>
<trkpt lat="48.4006440" lon="-1.9040090"><ele></ele><time>2017-12-16T2:28:30Z</time></trkpt>
<trkpt lat="48.4006890" lon="-1.9040250"><ele></ele><time>2017-12-16T2:28:33Z</time></trkpt>
<trkpt lat="48.4007320" lon="-1.9040430"><ele></ele><time>2017-12-16T2:28:36Z</time></trkpt>
<trkpt lat="48.4007740" lon="-1.9040570"><ele></ele><time>2017-12-16T2:28:39Z</time></trkpt>
<trkpt lat="48.4008150" lon="-1.9040680"><ele></ele><time>2017-12-16T2:28:42Z</time></trkpt>
<trkpt lat="48.4008610" lon="-1.9040870"><ele></ele><time>2017-12-16T2:28:45Z</time></trkpt>
<trkpt lat="48.4009000" lon="-1.9040990"><ele></ele><time>2017-12-16T2:28:48Z</time></trkpt>
<trkpt lat="48.4009400" lon="-1.9041160"><ele></ele><time>2017-12-16T2:28:51Z</time></trkpt>
<trkpt lat="48.4009800" lon="-1.9041290"><ele></ele><time>2017-12-16T2:28:54Z</time></trkpt>
<trkpt lat="48.4010160" lon="-1.9041500"><ele></ele><time>2017-12-16T2:28:57Z</time></trkpt>
<trkpt lat="48.4010360" lon="-1.9042030"><ele></ele><time>2017-12-16T2:29:0Z</time></trkpt>
<trkpt lat="48.4010330" lon="-1.9042740"><ele></ele><time>2017-12-16T2:29:3Z</time></trkpt>
<trkpt lat="48.4010250" lon="-1.9043400"><ele></ele><time>2017-12-16T2:29:6Z</time></trkpt>
<trkpt lat="48.4010040" lon="-1.9044130"><ele></ele><time>2017-12-16T2:29:9Z</time></trkpt>
<trkpt lat="48.4009940" lon="-1.9044900"><ele></ele><time>2017-12-16T2:29:12Z</time></trkpt>
<trkpt lat="48.4009780" lon="-1.9045750"><ele></ele><time>2017-12-16T2:29:15Z</time></trkpt>
<trkpt lat="48.4009630" lon="-1.9046580"><ele></ele><time>2017-12-16T2:29:18Z</time></trkpt>
<trkpt lat="48.4009450" lon="-1.9047430"><ele></ele><time>2017-12-16T2:29:21Z</time></trkpt>
<trkpt lat="48.4009280" lon="-1.9048370"><ele></ele><time>2017-12-16T2:29:24Z</time></trkpt>
<trkpt lat="48.4009150" lon="-1.9049310"><ele></ele><time>2017-12-16T2:29:27Z</time></trkpt>
<trkpt lat="48.4008980" lon="-1.9050260"><ele></ele><time>2017-12-16T2:29:30Z</time></trkpt>
<trkpt lat="48.4008780" lon="-1.9051210"><ele></ele><time>2017-12-16T2:29:33Z</time></trkpt>
<trkpt lat="48.4008590" lon="-1.9052150"><ele></ele><time>2017-12-16T2:29:36Z</time></trkpt>
<trkpt lat="48.4008440" lon="-1.9052940"><ele></ele><time>2017-12-16T2:29:39Z</time></trkpt>
<trkpt lat="48.4008150" lon="-1.9054020"><ele></ele><time>2017-12-16T2:29:42Z</time></trkpt>
<trkpt lat="48.4007940" lon="-1.9054980"><ele></ele><time>2017-12-16T2:29:45Z</time></trkpt>
<trkpt lat="48.4007750" lon="-1.9055980"><ele></ele><time>2017-12-16T2:29:48Z</time></trkpt>
<trkpt lat="48.4007520" lon="-1.9057000"><ele></ele><time>2017-12-16T2:29:51Z</time></trkpt>
<trkpt lat="48.4007330" lon="-1.9058000"><ele></ele><time>2017-12-16T2:29:54Z</time></trkpt>
<trkpt lat="48.4007150" lon="-1.9059050"><ele></ele><time>2017-12-16T2:29:57Z</time></trkpt>
<trkpt lat="48.4006940" lon="-1.9060040"><ele></ele><time>2017-12-16T2:30:0Z</time></trkpt>
<trkpt lat="48.4006800" lon="-1.9060940"><ele></ele><time>2017-12-16T2:30:3Z</time></trkpt>
<trkpt lat="48.4006880" lon="-1.9061780"><ele></ele><time>2017-12-16T2:30:6Z</time></trkpt>
<trkpt lat="48.4007170" lon="-1.9062420"><ele></ele><time>2017-12-16T2:30:9Z</time></trkpt>
<trkpt lat="48.4007640" lon="-1.9062840"><ele></ele><time>2017-12-16T2:30:12Z</time></trkpt>
<trkpt lat="48.4008140" lon="-1.9063120"><ele></ele><time>2017-12-16T2:30:15Z</time></trkpt>
<trkpt lat="48.4008630" lon="-1.9063070"><ele></ele><time>2017-12-16T2:30:18Z</time></trkpt>
<trkpt lat="48.4009100" lon="-1.9062820"><ele></ele><time>2017-12-16T2:30:21Z</time></trkpt>
<trkpt lat="48.4009450" lon="-1.9062410"><ele></ele><time>2017-12-16T2:30:24Z</time></trkpt>
<trkpt lat="48.4009740" lon="-1.9061900"><ele></ele><time>2017-12-16T2:30:27Z</time></trkpt>
<trkpt lat="48.4009990" lon="-1.9061390"><ele></ele><time>2017-12-16T2:30:30Z</time></trkpt>
<trkpt lat="48.4010220" lon="-1.9060900"><ele></ele><time>2017-12-16T2:30:33Z</time></trkpt>
<trkpt lat="48.4010430" lon="-1.9060440"><ele></ele><time>2017-12-16T2:30:36Z</time></trkpt>
<trkpt lat="48.4010660" lon="-1.9060050"><ele></ele><time>2017-12-16T2:30:39Z</time></trkpt>
<trkpt lat="48.4010910" lon="-1.9059740"><ele></ele><time>2017-12-16T2:30:42Z</time></trkpt>
<trkpt lat="48.4011200" lon="-1.9059570"><ele></ele><time>2017-12-16T2:30:45Z</time></trkpt>
<trkpt lat="48.4011780" lon="-1.9059800"><ele></ele><time>2017-12-16T2:30:48Z</time></trkpt>
<trkpt lat="48.4012070" lon="-1.9060090"><ele></ele><time>2017-12-16T2:30:51Z</time></trkpt>
<trkpt lat="48.4012400" lon="-1.9060410"><ele></ele><time>2017-12-16T2:30:54Z</time></trkpt>
<trkpt lat="48.4012690" lon="-1.9060750"><ele></ele><time>2017-12-16T2:30:57Z</time></trkpt>
<trkpt lat="48.4012990" lon="-1.9061080"><ele></ele><time>2017-12-16T2:31:0Z</time></trkpt>
<trkpt lat="48.4013350" lon="-1.9061370"><ele></ele><time>2017-12-16T2:31:3Z</time></trkpt>
<trkpt lat="48.4013670" lon="-1.9061700"><ele></ele><time>2017-12-16T2:31:6Z</time></trkpt>
<trkpt lat="48.4013910" lon="-1.9062040"><ele></ele><time>2017-12-16T2:31:9Z</time></trkpt>
<trkpt lat="48.4014130" lon="-1.9062320"><ele></ele><time>2017-12-16T2:31:12Z</time></trkpt>
<trkpt lat="48.4014370" lon="-1.9062510"><ele></ele><time>2017-12-16T2:31:15Z</time></trkpt>
<trkpt lat="48.4014620" lon="-1.9062750"><ele></ele><time>2017-12-16T2:31:18Z</time></trkpt>
<trkpt lat="48.4014860" lon="-1.9062960"><ele></ele><time>2017-12-16T2:31:21Z</time></trkpt>
<trkpt lat="48.4015060" lon="-1.9063300"><ele></ele><time>2017-12-16T2:31:24Z</time></trkpt>
<trkpt lat="48.4015240" lon="-1.9063670"><ele></ele><time>2017-12-16T2:31:27Z</time></trkpt>
</trkseg></trk></gpx>